<?xml version="1.0" encoding="UTF-8" standalone="no" ?>
  <gpx version="1.0" creator="Loctome.com">
  <metadata>
  <link href="https://play.google.com/store/apps/details?id=com.loctome.app.loctome">
      <text>Loctome Live Track GPS</text>
  </link>
  <desc>File created by Loctome Android Client No Limits Edition</desc>
  <time>2016-06-01T12:44:37Z</time>
  </metadata>
  <trk>
    <name>2016-06-01T12:44:37Z</name>
    <trkseg>
      <trkpt lat="39.21440385548267" lon="-6.123163621797809"><ele>991</ele><speed>0.00</speed><time>2016-06-01T12:44:38Z</time><pdop>32.0</pdop><geoidheight>50.60</geoidheight><course>0.0</course><type>1</type></trkpt>
      <trkpt lat="39.214452442147234" lon="-6.123078949669609"><ele>983</ele><speed>0.00</speed><time>2016-06-01T12:45:38Z</time><pdop>12.0</pdop><geoidheight>50.60</geoidheight><course>0.0</course><type>1</type></trkpt>
      <trkpt lat="39.214452442147234" lon="-6.123078949669609"><ele>987</ele><speed>0.00</speed><time>2016-06-01T12:46:38Z</time><pdop>16.0</pdop><geoidheight>50.60</geoidheight><course>0.0</course><type>1</type></trkpt>
      <trkpt lat="39.214452442147234" lon="-6.123078949669609"><ele>988</ele><speed>0.00</speed><time>2016-06-01T12:47:38Z</time><pdop>24.0</pdop><geoidheight>50.60</geoidheight><course>0.0</course><type>1</type></trkpt>
      <trkpt lat="39.214452442147234" lon="-6.123078949669609"><ele>990</ele><speed>0.00</speed><time>2016-06-01T12:48:39Z</time><pdop>24.0</pdop><geoidheight>50.60</geoidheight><course>0.0</course><type>1</type></trkpt>
      <trkpt lat="39.214515488446025" lon="-6.122572840586384"><ele>989</ele><speed>8.44</speed><time>2016-06-01T12:49:17Z</time><pdop>16.0</pdop><geoidheight>50.60</geoidheight><course>92.09823</course><type>1</type></trkpt>
      <trkpt lat="39.214264521557695" lon="-6.122311243781078"><ele>982</ele><speed>6.93</speed><time>2016-06-01T12:49:22Z</time><pdop>16.0</pdop><geoidheight>50.60</geoidheight><course>158.00652</course><type>1</type></trkpt>
      <trkpt lat="39.21405033953278" lon="-6.122083215848929"><ele>982</ele><speed>11.13</speed><time>2016-06-01T12:49:25Z</time><pdop>12.0</pdop><geoidheight>50.60</geoidheight><course>143.36725</course><type>1</type></trkpt>
      <trkpt lat="39.21379716677068" lon="-6.121962125655551"><ele>984</ele><speed>9.33</speed><time>2016-06-01T12:49:28Z</time><pdop>12.0</pdop><geoidheight>50.60</geoidheight><course>159.21062</course><type>1</type></trkpt>
      <trkpt lat="39.21350403171817" lon="-6.121824364773594"><ele>985</ele><speed>11.54</speed><time>2016-06-01T12:49:31Z</time><pdop>12.0</pdop><geoidheight>50.60</geoidheight><course>161.6166</course><type>1</type></trkpt>
      <trkpt lat="39.21319159684586" lon="-6.121788913714521"><ele>982</ele><speed>10.52</speed><time>2016-06-01T12:49:34Z</time><pdop>16.0</pdop><geoidheight>50.60</geoidheight><course>173.94124</course><type>1</type></trkpt>
      <trkpt lat="39.212938468116725" lon="-6.121661301758266"><ele>980</ele><speed>9.84</speed><time>2016-06-01T12:49:37Z</time><pdop>12.0</pdop><geoidheight>50.60</geoidheight><course>155.49942</course><type>1</type></trkpt>
      <trkpt lat="39.21268980587028" lon="-6.121495861602893"><ele>978</ele><speed>10.82</speed><time>2016-06-01T12:49:40Z</time><pdop>12.0</pdop><geoidheight>50.60</geoidheight><course>152.29439</course><type>1</type></trkpt>
      <trkpt lat="39.21240237416589" lon="-6.121369243940386"><ele>974</ele><speed>11.09</speed><time>2016-06-01T12:49:43Z</time><pdop>12.0</pdop><geoidheight>50.60</geoidheight><course>162.2051</course><type>1</type></trkpt>
      <trkpt lat="39.21209599875662" lon="-6.121325939276641"><ele>969</ele><speed>12.15</speed><time>2016-06-01T12:49:46Z</time><pdop>12.0</pdop><geoidheight>50.60</geoidheight><course>172.3321</course><type>1</type></trkpt>
      <trkpt lat="39.21189222404347" lon="-6.121313571218588"><ele>965</ele><speed>11.11</speed><time>2016-06-01T12:49:48Z</time><pdop>8.0</pdop><geoidheight>50.60</geoidheight><course>175.47054</course><type>1</type></trkpt>
      <trkpt lat="39.211601908399764" lon="-6.1212244889951535"><ele>964</ele><speed>11.75</speed><time>2016-06-01T12:49:51Z</time><pdop>12.0</pdop><geoidheight>50.60</geoidheight><course>157.52759</course><type>1</type></trkpt>
      <trkpt lat="39.21135219579251" lon="-6.12102768650766"><ele>961</ele><speed>11.15</speed><time>2016-06-01T12:49:54Z</time><pdop>16.0</pdop><geoidheight>50.60</geoidheight><course>148.2396</course><type>1</type></trkpt>
      <trkpt lat="39.21108260104269" lon="-6.120875201664728"><ele>957</ele><speed>11.35</speed><time>2016-06-01T12:49:57Z</time><pdop>12.0</pdop><geoidheight>50.60</geoidheight><course>153.6245</course><type>1</type></trkpt>
      <trkpt lat="39.21084170780397" lon="-6.120724530274444"><ele>952</ele><speed>10.59</speed><time>2016-06-01T12:50:00Z</time><pdop>16.0</pdop><geoidheight>50.60</geoidheight><course>146.99272</course><type>1</type></trkpt>
      <trkpt lat="39.210673123591135" lon="-6.120402261410561"><ele>946</ele><speed>8.37</speed><time>2016-06-01T12:50:04Z</time><pdop>16.0</pdop><geoidheight>50.60</geoidheight><course>111.53398</course><type>1</type></trkpt>
      <trkpt lat="39.21059832649899" lon="-6.1201256060473606"><ele>945</ele><speed>7.03</speed><time>2016-06-01T12:50:07Z</time><pdop>8.0</pdop><geoidheight>50.60</geoidheight><course>104.13642</course><type>1</type></trkpt>
      <trkpt lat="39.2106070024198" lon="-6.119835983662367"><ele>942</ele><speed>4.39</speed><time>2016-06-01T12:50:12Z</time><pdop>16.0</pdop><geoidheight>50.60</geoidheight><course>76.47729</course><type>1</type></trkpt>
      <trkpt lat="39.21091950385431" lon="-6.119711662498425"><ele>937</ele><speed>4.56</speed><time>2016-06-01T12:50:20Z</time><pdop>16.0</pdop><geoidheight>50.60</geoidheight><course>0.21096823</course><type>1</type></trkpt>
      <trkpt lat="39.21122588632808" lon="-6.119653649385879"><ele>928</ele><speed>5.77</speed><time>2016-06-01T12:50:27Z</time><pdop>16.0</pdop><geoidheight>50.60</geoidheight><course>5.8854136</course><type>1</type></trkpt>
      <trkpt lat="39.211545241075626" lon="-6.119610828327814"><ele>919</ele><speed>4.97</speed><time>2016-06-01T12:50:33Z</time><pdop>16.0</pdop><geoidheight>50.60</geoidheight><course>10.512107</course><type>1</type></trkpt>
      <trkpt lat="39.211667571424705" lon="-6.119255274836843"><ele>910</ele><speed>5.05</speed><time>2016-06-01T12:50:40Z</time><pdop>16.0</pdop><geoidheight>50.60</geoidheight><course>104.41705</course><type>1</type></trkpt>
      <trkpt lat="39.21144655703642" lon="-6.118966740888278"><ele>901</ele><speed>10.73</speed><time>2016-06-01T12:50:44Z</time><pdop>12.0</pdop><geoidheight>50.60</geoidheight><course>152.65532</course><type>1</type></trkpt>
      <trkpt lat="39.21108703074472" lon="-6.118915475915088"><ele>896</ele><speed>11.90</speed><time>2016-06-01T12:50:46Z</time><pdop>16.0</pdop><geoidheight>50.60</geoidheight><course>177.31859</course><type>1</type></trkpt>
      <trkpt lat="39.210731499218745" lon="-6.118933264001978"><ele>889</ele><speed>13.10</speed><time>2016-06-01T12:50:50Z</time><pdop>12.0</pdop><geoidheight>50.60</geoidheight><course>181.06694</course><type>1</type></trkpt>
      <trkpt lat="39.2103734877589" lon="-6.119001081947002"><ele>884</ele><speed>13.00</speed><time>2016-06-01T12:50:53Z</time><pdop>12.0</pdop><geoidheight>50.60</geoidheight><course>187.18533</course><type>1</type></trkpt>
      <trkpt lat="39.21014023682452" lon="-6.119030451670327"><ele>882</ele><speed>13.24</speed><time>2016-06-01T12:50:55Z</time><pdop>8.0</pdop><geoidheight>50.60</geoidheight><course>183.31638</course><type>1</type></trkpt>
      <trkpt lat="39.209894832522885" lon="-6.119035271828611"><ele>880</ele><speed>13.93</speed><time>2016-06-01T12:50:57Z</time><pdop>12.0</pdop><geoidheight>50.60</geoidheight><course>180.6969</course><type>1</type></trkpt>
      <trkpt lat="39.20966694337933" lon="-6.11903081966295"><ele>878</ele><speed>12.21</speed><time>2016-06-01T12:50:59Z</time><pdop>8.0</pdop><geoidheight>50.60</geoidheight><course>177.02199</course><type>1</type></trkpt>
      <trkpt lat="39.209475625767844" lon="-6.119010372292436"><ele>877</ele><speed>10.18</speed><time>2016-06-01T12:51:01Z</time><pdop>12.0</pdop><geoidheight>50.60</geoidheight><course>174.32928</course><type>1</type></trkpt>
      <trkpt lat="39.20925222754027" lon="-6.118976476715827"><ele>876</ele><speed>13.36</speed><time>2016-06-01T12:51:03Z</time><pdop>12.0</pdop><geoidheight>50.60</geoidheight><course>174.54938</course><type>1</type></trkpt>
      <trkpt lat="39.20901842292822" lon="-6.118949628635709"><ele>876</ele><speed>12.38</speed><time>2016-06-01T12:51:05Z</time><pdop>8.0</pdop><geoidheight>50.60</geoidheight><course>177.76869</course><type>1</type></trkpt>
      <trkpt lat="39.20877831285422" lon="-6.118969491348524"><ele>874</ele><speed>13.67</speed><time>2016-06-01T12:51:07Z</time><pdop>12.0</pdop><geoidheight>50.60</geoidheight><course>183.49341</course><type>1</type></trkpt>
      <trkpt lat="39.208508720499054" lon="-6.119020815334743"><ele>870</ele><speed>15.57</speed><time>2016-06-01T12:51:09Z</time><pdop>8.0</pdop><geoidheight>50.60</geoidheight><course>183.83356</course><type>1</type></trkpt>
      <trkpt lat="39.20825982981294" lon="-6.119058580622406"><ele>866</ele><speed>13.21</speed><time>2016-06-01T12:51:11Z</time><pdop>8.0</pdop><geoidheight>50.60</geoidheight><course>183.58151</course><type>1</type></trkpt>
      <trkpt lat="39.20805447925831" lon="-6.119092272964285"><ele>864</ele><speed>11.18</speed><time>2016-06-01T12:51:13Z</time><pdop>12.0</pdop><geoidheight>50.60</geoidheight><course>183.98198</course><type>1</type></trkpt>
      <trkpt lat="39.20776641832157" lon="-6.119105532781621"><ele>861</ele><speed>10.55</speed><time>2016-06-01T12:51:16Z</time><pdop>12.0</pdop><geoidheight>50.60</geoidheight><course>183.6306</course><type>1</type></trkpt>
      <trkpt lat="39.207500781251525" lon="-6.119158132955822"><ele>859</ele><speed>10.08</speed><time>2016-06-01T12:51:19Z</time><pdop>8.0</pdop><geoidheight>50.60</geoidheight><course>191.25027</course><type>1</type></trkpt>
      <trkpt lat="39.20728973711661" lon="-6.119232447995427"><ele>859</ele><speed>7.20</speed><time>2016-06-01T12:51:22Z</time><pdop>12.0</pdop><geoidheight>50.60</geoidheight><course>190.33682</course><type>1</type></trkpt>
      <trkpt lat="39.20708462009364" lon="-6.119066038274258"><ele>863</ele><speed>7.73</speed><time>2016-06-01T12:51:27Z</time><pdop>12.0</pdop><geoidheight>50.60</geoidheight><course>109.34241</course><type>1</type></trkpt>
      <trkpt lat="39.20726725742096" lon="-6.118813878390841"><ele>864</ele><speed>10.02</speed><time>2016-06-01T12:51:31Z</time><pdop>16.0</pdop><geoidheight>50.60</geoidheight><course>35.20682</course><type>1</type></trkpt>
      <trkpt lat="39.207404475301615" lon="-6.1190906022435305"><ele>863</ele><speed>7.42</speed><time>2016-06-01T12:51:36Z</time><pdop>12.0</pdop><geoidheight>50.60</geoidheight><course>281.30884</course><type>1</type></trkpt>
      <trkpt lat="39.207540342355024" lon="-6.119330956884825"><ele>858</ele><speed>3.41</speed><time>2016-06-01T12:51:41Z</time><pdop>12.0</pdop><geoidheight>50.60</geoidheight><course>336.1858</course><type>1</type></trkpt>
      <trkpt lat="39.20774465829675" lon="-6.119201424522004"><ele>868</ele><speed>10.05</speed><time>2016-06-01T12:51:47Z</time><pdop>12.0</pdop><geoidheight>50.60</geoidheight><course>81.93577</course><type>1</type></trkpt>
      <trkpt lat="39.20767546613396" lon="-6.118842851196889"><ele>867</ele><speed>11.11</speed><time>2016-06-01T12:51:50Z</time><pdop>12.0</pdop><geoidheight>50.60</geoidheight><course>115.41631</course><type>1</type></trkpt>
      <trkpt lat="39.20752784061104" lon="-6.118588258565415"><ele>866</ele><speed>9.45</speed><time>2016-06-01T12:51:53Z</time><pdop>12.0</pdop><geoidheight>50.60</geoidheight><course>125.71186</course><type>1</type></trkpt>
      <trkpt lat="39.20731811887404" lon="-6.118431184039326"><ele>865</ele><speed>8.35</speed><time>2016-06-01T12:51:56Z</time><pdop>8.0</pdop><geoidheight>50.60</geoidheight><course>165.04945</course><type>1</type></trkpt>
      <trkpt lat="39.207143952265085" lon="-6.11832350127317"><ele>867</ele><speed>7.41</speed><time>2016-06-01T12:51:59Z</time><pdop>12.0</pdop><geoidheight>50.60</geoidheight><course>145.33507</course><type>1</type></trkpt>
      <trkpt lat="39.20690584396031" lon="-6.1181138322792235"><ele>869</ele><speed>6.77</speed><time>2016-06-01T12:52:03Z</time><pdop>16.0</pdop><geoidheight>50.60</geoidheight><course>143.79805</course><type>1</type></trkpt>
      <trkpt lat="39.20675097201644" lon="-6.11774608842914"><ele>872</ele><speed>7.07</speed><time>2016-06-01T12:52:08Z</time><pdop>16.0</pdop><geoidheight>50.60</geoidheight><course>104.663704</course><type>1</type></trkpt>
      <trkpt lat="39.20687915462326" lon="-6.117476845210868"><ele>870</ele><speed>4.03</speed><time>2016-06-01T12:52:13Z</time><pdop>8.0</pdop><geoidheight>50.60</geoidheight><course>35.737705</course><type>1</type></trkpt>
      <trkpt lat="39.207111881331855" lon="-6.117412498736993"><ele>873</ele><speed>7.19</speed><time>2016-06-01T12:52:16Z</time><pdop>16.0</pdop><geoidheight>50.60</geoidheight><course>353.5044</course><type>1</type></trkpt>
      <trkpt lat="39.20727327753077" lon="-6.1177357175402935"><ele>871</ele><speed>10.21</speed><time>2016-06-01T12:52:21Z</time><pdop>12.0</pdop><geoidheight>50.60</geoidheight><course>283.58466</course><type>1</type></trkpt>
      <trkpt lat="39.207165787188856" lon="-6.11809863141917"><ele>872</ele><speed>10.14</speed><time>2016-06-01T12:52:25Z</time><pdop>16.0</pdop><geoidheight>50.60</geoidheight><course>209.58568</course><type>1</type></trkpt>
      <trkpt lat="39.20694323503192" lon="-6.117808016875203"><ele>872</ele><speed>7.14</speed><time>2016-06-01T12:52:30Z</time><pdop>16.0</pdop><geoidheight>50.60</geoidheight><course>72.36795</course><type>1</type></trkpt>
      <trkpt lat="39.20706660894454" lon="-6.117402900426688"><ele>876</ele><speed>3.41</speed><time>2016-06-01T12:52:36Z</time><pdop>8.0</pdop><geoidheight>50.60</geoidheight><course>75.82224</course><type>1</type></trkpt>
      <trkpt lat="39.20714586724101" lon="-6.117153599220195"><ele>876</ele><speed>6.48</speed><time>2016-06-01T12:52:41Z</time><pdop>12.0</pdop><geoidheight>50.60</geoidheight><course>60.641502</course><type>1</type></trkpt>
      <trkpt lat="39.20717962986025" lon="-6.116921422921264"><ele>875</ele><speed>5.69</speed><time>2016-06-01T12:52:45Z</time><pdop>8.0</pdop><geoidheight>50.60</geoidheight><course>69.54647</course><type>1</type></trkpt>
      <trkpt lat="39.207232542051884" lon="-6.116669656505946"><ele>870</ele><speed>4.43</speed><time>2016-06-01T12:52:49Z</time><pdop>8.0</pdop><geoidheight>50.60</geoidheight><course>70.86773</course><type>1</type></trkpt>
      <trkpt lat="39.20733356056005" lon="-6.116510303111057"><ele>871</ele><speed>6.10</speed><time>2016-06-01T12:52:51Z</time><pdop>8.0</pdop><geoidheight>50.60</geoidheight><course>51.53475</course><type>1</type></trkpt>
      <trkpt lat="39.20744333010767" lon="-6.1163505662519"><ele>873</ele><speed>6.28</speed><time>2016-06-01T12:52:55Z</time><pdop>8.0</pdop><geoidheight>50.60</geoidheight><course>47.28949</course><type>1</type></trkpt>
      <trkpt lat="39.207610607131706" lon="-6.116126261068383"><ele>878</ele><speed>6.97</speed><time>2016-06-01T12:52:59Z</time><pdop>12.0</pdop><geoidheight>50.60</geoidheight><course>51.51462</course><type>1</type></trkpt>
      <trkpt lat="39.20776067318804" lon="-6.115834443820947"><ele>883</ele><speed>7.35</speed><time>2016-06-01T12:53:03Z</time><pdop>16.0</pdop><geoidheight>50.60</geoidheight><course>68.18564</course><type>1</type></trkpt>
      <trkpt lat="39.20791008332246" lon="-6.115441451853663"><ele>883</ele><speed>7.76</speed><time>2016-06-01T12:53:08Z</time><pdop>12.0</pdop><geoidheight>50.60</geoidheight><course>58.9927</course><type>1</type></trkpt>
      <trkpt lat="39.208043635243904" lon="-6.115203021914346"><ele>887</ele><speed>8.25</speed><time>2016-06-01T12:53:11Z</time><pdop>6.0</pdop><geoidheight>50.60</geoidheight><course>51.36793</course><type>1</type></trkpt>
      <trkpt lat="39.20821432160611" lon="-6.115045034534715"><ele>894</ele><speed>5.58</speed><time>2016-06-01T12:53:15Z</time><pdop>12.0</pdop><geoidheight>50.60</geoidheight><course>36.315525</course><type>1</type></trkpt>
      <trkpt lat="39.20847757331227" lon="-6.1148053156734985"><ele>902</ele><speed>7.54</speed><time>2016-06-01T12:53:19Z</time><pdop>16.0</pdop><geoidheight>50.60</geoidheight><course>36.455975</course><type>1</type></trkpt>
      <trkpt lat="39.208557465271866" lon="-6.114356645820373"><ele>905</ele><speed>13.27</speed><time>2016-06-01T12:53:22Z</time><pdop>12.0</pdop><geoidheight>50.60</geoidheight><course>100.938805</course><type>1</type></trkpt>
      <trkpt lat="39.208369600565604" lon="-6.114027625541444"><ele>904</ele><speed>12.09</speed><time>2016-06-01T12:53:26Z</time><pdop>8.0</pdop><geoidheight>50.60</geoidheight><course>154.38399</course><type>1</type></trkpt>
      <trkpt lat="39.20809690756031" lon="-6.1141141091018625"><ele>905</ele><speed>9.77</speed><time>2016-06-01T12:53:29Z</time><pdop>8.0</pdop><geoidheight>50.60</geoidheight><course>208.25015</course><type>1</type></trkpt>
      <trkpt lat="39.2078771237293" lon="-6.114313869853689"><ele>908</ele><speed>10.63</speed><time>2016-06-01T12:53:32Z</time><pdop>6.0</pdop><geoidheight>50.60</geoidheight><course>214.50816</course><type>1</type></trkpt>
      <trkpt lat="39.207777167143256" lon="-6.114506776211071"><ele>910</ele><speed>9.80</speed><time>2016-06-01T12:53:34Z</time><pdop>12.0</pdop><geoidheight>50.60</geoidheight><course>238.24132</course><type>1</type></trkpt>
      <trkpt lat="39.20762749947403" lon="-6.11478845469246"><ele>913</ele><speed>7.09</speed><time>2016-06-01T12:53:38Z</time><pdop>12.0</pdop><geoidheight>50.60</geoidheight><course>232.4306</course><type>1</type></trkpt>
      <trkpt lat="39.20758235336873" lon="-6.115052976158287"><ele>917</ele><speed>7.24</speed><time>2016-06-01T12:53:41Z</time><pdop>8.0</pdop><geoidheight>50.60</geoidheight><course>291.68228</course><type>1</type></trkpt>
      <trkpt lat="39.20776312571605" lon="-6.115065135552676"><ele>921</ele><speed>7.89</speed><time>2016-06-01T12:53:45Z</time><pdop>12.0</pdop><geoidheight>50.60</geoidheight><course>2.3778307</course><type>1</type></trkpt>
      <trkpt lat="39.2077143388279" lon="-6.114736435556207"><ele>926</ele><speed>12.49</speed><time>2016-06-01T12:53:48Z</time><pdop>8.0</pdop><geoidheight>50.60</geoidheight><course>133.91266</course><type>1</type></trkpt>
      <trkpt lat="39.20751739765435" lon="-6.114589677706298"><ele>928</ele><speed>14.71</speed><time>2016-06-01T12:53:50Z</time><pdop>16.0</pdop><geoidheight>50.60</geoidheight><course>163.34218</course><type>1</type></trkpt>
      <trkpt lat="39.20716626532185" lon="-6.114628117751469"><ele>931</ele><speed>10.81</speed><time>2016-06-01T12:53:53Z</time><pdop>8.0</pdop><geoidheight>50.60</geoidheight><course>206.5536</course><type>1</type></trkpt>
      <trkpt lat="39.207102325571064" lon="-6.114952083678706"><ele>931</ele><speed>8.86</speed><time>2016-06-01T12:53:56Z</time><pdop>16.0</pdop><geoidheight>50.60</geoidheight><course>274.90717</course><type>1</type></trkpt>
      <trkpt lat="39.207194955272605" lon="-6.1146189030252005"><ele>940</ele><speed>11.69</speed><time>2016-06-01T12:54:05Z</time><pdop>12.0</pdop><geoidheight>50.60</geoidheight><course>132.74152</course><type>1</type></trkpt>
      <trkpt lat="39.20699958993927" lon="-6.114497853677945"><ele>941</ele><speed>12.90</speed><time>2016-06-01T12:54:06Z</time><pdop>12.0</pdop><geoidheight>50.60</geoidheight><course>160.42015</course><type>1</type></trkpt>
      <trkpt lat="39.206691939683296" lon="-6.114585428485937"><ele>944</ele><speed>13.47</speed><time>2016-06-01T12:54:10Z</time><pdop>12.0</pdop><geoidheight>50.60</geoidheight><course>214.32617</course><type>1</type></trkpt>
      <trkpt lat="39.206545511683146" lon="-6.114768580882792"><ele>945</ele><speed>10.95</speed><time>2016-06-01T12:54:12Z</time><pdop>8.0</pdop><geoidheight>50.60</geoidheight><course>226.01422</course><type>1</type></trkpt>
      <trkpt lat="39.206423935079776" lon="-6.114931394661134"><ele>947</ele><speed>9.45</speed><time>2016-06-01T12:54:13Z</time><pdop>8.0</pdop><geoidheight>50.60</geoidheight><course>227.68689</course><type>1</type></trkpt>
      <trkpt lat="39.20633588243191" lon="-6.11514610047073"><ele>950</ele><speed>10.32</speed><time>2016-06-01T12:54:15Z</time><pdop>8.0</pdop><geoidheight>50.60</geoidheight><course>244.56583</course><type>1</type></trkpt>
      <trkpt lat="39.206246864203635" lon="-6.115475657652033"><ele>952</ele><speed>9.29</speed><time>2016-06-01T12:54:19Z</time><pdop>16.0</pdop><geoidheight>50.60</geoidheight><course>267.5796</course><type>1</type></trkpt>
      <trkpt lat="39.206253207901185" lon="-6.115765381345502"><ele>951</ele><speed>7.70</speed><time>2016-06-01T12:54:21Z</time><pdop>8.0</pdop><geoidheight>50.60</geoidheight><course>286.6243</course><type>1</type></trkpt>
      <trkpt lat="39.206379429905866" lon="-6.115996292992544"><ele>955</ele><speed>9.16</speed><time>2016-06-01T12:54:25Z</time><pdop>12.0</pdop><geoidheight>50.60</geoidheight><course>325.85416</course><type>1</type></trkpt>
      <trkpt lat="39.20655413341194" lon="-6.11577997757254"><ele>959</ele><speed>9.48</speed><time>2016-06-01T12:54:30Z</time><pdop>12.0</pdop><geoidheight>50.60</geoidheight><course>118.229324</course><type>1</type></trkpt>
      <trkpt lat="39.20633036789337" lon="-6.115698204151003"><ele>963</ele><speed>13.07</speed><time>2016-06-01T12:54:31Z</time><pdop>12.0</pdop><geoidheight>50.60</geoidheight><course>178.68341</course><type>1</type></trkpt>
      <trkpt lat="39.206097429764924" lon="-6.115885064827644"><ele>972</ele><speed>9.18</speed><time>2016-06-01T12:54:35Z</time><pdop>8.0</pdop><geoidheight>50.60</geoidheight><course>239.37328</course><type>1</type></trkpt>
      <trkpt lat="39.2061360858131" lon="-6.116149136626267"><ele>977</ele><speed>8.76</speed><time>2016-06-01T12:54:39Z</time><pdop>8.0</pdop><geoidheight>50.60</geoidheight><course>308.93347</course><type>1</type></trkpt>
      <trkpt lat="39.2063623783364" lon="-6.1161425664840605"><ele>978</ele><speed>8.21</speed><time>2016-06-01T12:54:43Z</time><pdop>12.0</pdop><geoidheight>50.60</geoidheight><course>13.4042225</course><type>1</type></trkpt>
      <trkpt lat="39.20653908701347" lon="-6.115949125474682"><ele>971</ele><speed>7.71</speed><time>2016-06-01T12:54:46Z</time><pdop>12.0</pdop><geoidheight>50.60</geoidheight><course>37.711506</course><type>1</type></trkpt>
      <trkpt lat="39.2065475854225" lon="-6.1156495457721896"><ele>975</ele><speed>11.29</speed><time>2016-06-01T12:54:49Z</time><pdop>12.0</pdop><geoidheight>50.60</geoidheight><course>107.89376</course><type>1</type></trkpt>
      <trkpt lat="39.20636616970574" lon="-6.115400140512309"><ele>987</ele><speed>11.49</speed><time>2016-06-01T12:54:52Z</time><pdop>12.0</pdop><geoidheight>50.60</geoidheight><course>143.73566</course><type>1</type></trkpt>
      <trkpt lat="39.20609978786799" lon="-6.115294324999321"><ele>998</ele><speed>10.51</speed><time>2016-06-01T12:54:54Z</time><pdop>8.0</pdop><geoidheight>50.60</geoidheight><course>167.06664</course><type>1</type></trkpt>
      <trkpt lat="39.2059258054773" lon="-6.115292771347152"><ele>1004</ele><speed>9.13</speed><time>2016-06-01T12:54:56Z</time><pdop>8.0</pdop><geoidheight>50.60</geoidheight><course>181.56535</course><type>1</type></trkpt>
      <trkpt lat="39.20570439974348" lon="-6.115550300112176"><ele>1009</ele><speed>11.52</speed><time>2016-06-01T12:55:00Z</time><pdop>12.0</pdop><geoidheight>50.60</geoidheight><course>230.6746</course><type>1</type></trkpt>
      <trkpt lat="39.205751799265656" lon="-6.11597625156607"><ele>1014</ele><speed>6.15</speed><time>2016-06-01T12:55:05Z</time><pdop>12.0</pdop><geoidheight>50.60</geoidheight><course>284.7444</course><type>1</type></trkpt>
      <trkpt lat="39.205994922643036" lon="-6.116063898783551"><ele>1025</ele><speed>6.12</speed><time>2016-06-01T12:55:11Z</time><pdop>16.0</pdop><geoidheight>50.60</geoidheight><course>54.7555</course><type>1</type></trkpt>
      <trkpt lat="39.20603187785341" lon="-6.11567962526545"><ele>1031</ele><speed>10.28</speed><time>2016-06-01T12:55:15Z</time><pdop>16.0</pdop><geoidheight>50.60</geoidheight><course>107.69214</course><type>1</type></trkpt>
      <trkpt lat="39.20572093956694" lon="-6.115438215199324"><ele>1038</ele><speed>13.23</speed><time>2016-06-01T12:55:19Z</time><pdop>12.0</pdop><geoidheight>50.60</geoidheight><course>144.62506</course><type>1</type></trkpt>
      <trkpt lat="39.2054360283384" lon="-6.115561990197032"><ele>1039</ele><speed>8.78</speed><time>2016-06-01T12:55:21Z</time><pdop>12.0</pdop><geoidheight>50.60</geoidheight><course>196.5818</course><type>1</type></trkpt>
      <trkpt lat="39.205263798583665" lon="-6.115701504842242"><ele>1040</ele><speed>10.55</speed><time>2016-06-01T12:55:24Z</time><pdop>8.0</pdop><geoidheight>50.60</geoidheight><course>216.6524</course><type>1</type></trkpt>
      <trkpt lat="39.20511167134666" lon="-6.115854893513354"><ele>1042</ele><speed>9.24</speed><time>2016-06-01T12:55:26Z</time><pdop>8.0</pdop><geoidheight>50.60</geoidheight><course>220.37532</course><type>1</type></trkpt>
      <trkpt lat="39.20500229671892" lon="-6.116113255638563"><ele>1040</ele><speed>8.90</speed><time>2016-06-01T12:55:29Z</time><pdop>8.0</pdop><geoidheight>50.60</geoidheight><course>266.25293</course><type>1</type></trkpt>
      <trkpt lat="39.20507665445628" lon="-6.116339733352828"><ele>1037</ele><speed>4.57</speed><time>2016-06-01T12:55:32Z</time><pdop>12.0</pdop><geoidheight>50.60</geoidheight><course>326.971</course><type>1</type></trkpt>
      <trkpt lat="39.205193672983384" lon="-6.11610395861522"><ele>1041</ele><speed>10.68</speed><time>2016-06-01T12:55:38Z</time><pdop>12.0</pdop><geoidheight>50.60</geoidheight><course>122.02189</course><type>1</type></trkpt>
      <trkpt lat="39.20492913453052" lon="-6.115987483514427"><ele>1049</ele><speed>11.88</speed><time>2016-06-01T12:55:42Z</time><pdop>8.0</pdop><geoidheight>50.60</geoidheight><course>176.7429</course><type>1</type></trkpt>
      <trkpt lat="39.204760013546135" lon="-6.116085446943844"><ele>1054</ele><speed>11.19</speed><time>2016-06-01T12:55:44Z</time><pdop>12.0</pdop><geoidheight>50.60</geoidheight><course>207.76382</course><type>1</type></trkpt>
      <trkpt lat="39.204569692039534" lon="-6.116358237892438"><ele>1058</ele><speed>11.45</speed><time>2016-06-01T12:55:47Z</time><pdop>8.0</pdop><geoidheight>50.60</geoidheight><course>241.74777</course><type>1</type></trkpt>
      <trkpt lat="39.20454078946638" lon="-6.116603739499338"><ele>1063</ele><speed>10.37</speed><time>2016-06-01T12:55:49Z</time><pdop>8.0</pdop><geoidheight>50.60</geoidheight><course>270.51508</course><type>1</type></trkpt>
      <trkpt lat="39.20454479678058" lon="-6.116864751996262"><ele>1069</ele><speed>6.51</speed><time>2016-06-01T12:55:52Z</time><pdop>12.0</pdop><geoidheight>50.60</geoidheight><course>277.24625</course><type>1</type></trkpt>
      <trkpt lat="39.20456887381561" lon="-6.117229406081964"><ele>1071</ele><speed>8.36</speed><time>2016-06-01T12:55:55Z</time><pdop>12.0</pdop><geoidheight>50.60</geoidheight><course>274.19327</course><type>1</type></trkpt>
      <trkpt lat="39.204591517046424" lon="-6.117439281454481"><ele>1072</ele><speed>9.25</speed><time>2016-06-01T12:55:57Z</time><pdop>6.0</pdop><geoidheight>50.60</geoidheight><course>280.40097</course><type>1</type></trkpt>
      <trkpt lat="39.20463449979836" lon="-6.117614246751942"><ele>1074</ele><speed>7.12</speed><time>2016-06-01T12:56:00Z</time><pdop>8.0</pdop><geoidheight>50.60</geoidheight><course>286.83835</course><type>1</type></trkpt>
      <trkpt lat="39.20473271008824" lon="-6.117809545801241"><ele>1077</ele><speed>6.86</speed><time>2016-06-01T12:56:03Z</time><pdop>12.0</pdop><geoidheight>50.60</geoidheight><course>319.91635</course><type>1</type></trkpt>
      <trkpt lat="39.204937519597365" lon="-6.117618988690912"><ele>1087</ele><speed>8.05</speed><time>2016-06-01T12:56:09Z</time><pdop>12.0</pdop><geoidheight>50.60</geoidheight><course>98.25681</course><type>1</type></trkpt>
      <trkpt lat="39.204710454165294" lon="-6.117405653978124"><ele>1090</ele><speed>12.25</speed><time>2016-06-01T12:56:12Z</time><pdop>16.0</pdop><geoidheight>50.60</geoidheight><course>160.58904</course><type>1</type></trkpt>
      <trkpt lat="39.20442343481531" lon="-6.11748580625503"><ele>1090</ele><speed>10.62</speed><time>2016-06-01T12:56:15Z</time><pdop>12.0</pdop><geoidheight>50.60</geoidheight><course>213.86581</course><type>1</type></trkpt>
      <trkpt lat="39.204312303934685" lon="-6.117757839916975"><ele>1093</ele><speed>8.81</speed><time>2016-06-01T12:56:18Z</time><pdop>12.0</pdop><geoidheight>50.60</geoidheight><course>250.76099</course><type>1</type></trkpt>
      <trkpt lat="39.20436106019871" lon="-6.118080171117683"><ele>1097</ele><speed>6.59</speed><time>2016-06-01T12:56:22Z</time><pdop>12.0</pdop><geoidheight>50.60</geoidheight><course>302.3501</course><type>1</type></trkpt>
      <trkpt lat="39.20455612811199" lon="-6.118017309641735"><ele>1097</ele><speed>6.15</speed><time>2016-06-01T12:56:27Z</time><pdop>8.0</pdop><geoidheight>50.60</geoidheight><course>78.56642</course><type>1</type></trkpt>
      <trkpt lat="39.20450750866458" lon="-6.11778844946917"><ele>1098</ele><speed>10.27</speed><time>2016-06-01T12:56:30Z</time><pdop>8.0</pdop><geoidheight>50.60</geoidheight><course>118.170334</course><type>1</type></trkpt>
      <trkpt lat="39.204339242920064" lon="-6.117605550140395"><ele>1100</ele><speed>13.53</speed><time>2016-06-01T12:56:32Z</time><pdop>12.0</pdop><geoidheight>50.60</geoidheight><course>151.5869</course><type>1</type></trkpt>
      <trkpt lat="39.204119668641184" lon="-6.117542705191102"><ele>1101</ele><speed>12.65</speed><time>2016-06-01T12:56:33Z</time><pdop>8.0</pdop><geoidheight>50.60</geoidheight><course>171.04709</course><type>1</type></trkpt>
      <trkpt lat="39.2039246492345" lon="-6.117567093575242"><ele>1102</ele><speed>11.04</speed><time>2016-06-01T12:56:36Z</time><pdop>8.0</pdop><geoidheight>50.60</geoidheight><course>191.27963</course><type>1</type></trkpt>
      <trkpt lat="39.20374903914033" lon="-6.117663259312375"><ele>1103</ele><speed>11.34</speed><time>2016-06-01T12:56:38Z</time><pdop>6.0</pdop><geoidheight>50.60</geoidheight><course>207.38882</course><type>1</type></trkpt>
      <trkpt lat="39.203568246316166" lon="-6.117792067264461"><ele>1105</ele><speed>10.96</speed><time>2016-06-01T12:56:40Z</time><pdop>6.0</pdop><geoidheight>50.60</geoidheight><course>211.29286</course><type>1</type></trkpt>
      <trkpt lat="39.203401369019645" lon="-6.117952624364302"><ele>1108</ele><speed>11.70</speed><time>2016-06-01T12:56:42Z</time><pdop>8.0</pdop><geoidheight>50.60</geoidheight><course>217.49158</course><type>1</type></trkpt>
      <trkpt lat="39.203272320861316" lon="-6.11812095056337"><ele>1110</ele><speed>10.18</speed><time>2016-06-01T12:56:44Z</time><pdop>8.0</pdop><geoidheight>50.60</geoidheight><course>223.34142</course><type>1</type></trkpt>
      <trkpt lat="39.203219455424964" lon="-6.1183478050085975"><ele>1111</ele><speed>9.50</speed><time>2016-06-01T12:56:45Z</time><pdop>12.0</pdop><geoidheight>50.60</geoidheight><course>272.5288</course><type>1</type></trkpt>
      <trkpt lat="39.203348846619356" lon="-6.118617604250697"><ele>1111</ele><speed>8.72</speed><time>2016-06-01T12:56:49Z</time><pdop>8.0</pdop><geoidheight>50.60</geoidheight><course>326.51102</course><type>1</type></trkpt>
      <trkpt lat="39.20350265002281" lon="-6.1186044349964"><ele>1107</ele><speed>5.61</speed><time>2016-06-01T12:56:51Z</time><pdop>8.0</pdop><geoidheight>50.60</geoidheight><course>21.211123</course><type>1</type></trkpt>
      <trkpt lat="39.20351156349807" lon="-6.118257880693412"><ele>1095</ele><speed>9.89</speed><time>2016-06-01T12:56:56Z</time><pdop>12.0</pdop><geoidheight>50.60</geoidheight><course>119.594826</course><type>1</type></trkpt>
      <trkpt lat="39.20325325765178" lon="-6.118018910052586"><ele>1087</ele><speed>13.27</speed><time>2016-06-01T12:56:59Z</time><pdop>12.0</pdop><geoidheight>50.60</geoidheight><course>152.29924</course><type>1</type></trkpt>
      <trkpt lat="39.203033043683696" lon="-6.118050229864953"><ele>1083</ele><speed>12.59</speed><time>2016-06-01T12:57:01Z</time><pdop>12.0</pdop><geoidheight>50.60</geoidheight><course>202.88004</course><type>1</type></trkpt>
      <trkpt lat="39.20283785211236" lon="-6.1183234041096535"><ele>1080</ele><speed>10.61</speed><time>2016-06-01T12:57:03Z</time><pdop>16.0</pdop><geoidheight>50.60</geoidheight><course>238.44394</course><type>1</type></trkpt>
      <trkpt lat="39.202754692409236" lon="-6.118714607441656"><ele>1078</ele><speed>9.38</speed><time>2016-06-01T12:57:08Z</time><pdop>12.0</pdop><geoidheight>50.60</geoidheight><course>289.35797</course><type>1</type></trkpt>
      <trkpt lat="39.20291514027959" lon="-6.119095480283999"><ele>1078</ele><speed>7.07</speed><time>2016-06-01T12:57:13Z</time><pdop>12.0</pdop><geoidheight>50.60</geoidheight><course>301.4382</course><type>1</type></trkpt>
      <trkpt lat="39.20306061353686" lon="-6.119404217246007"><ele>1089</ele><speed>6.25</speed><time>2016-06-01T12:57:17Z</time><pdop>16.0</pdop><geoidheight>50.60</geoidheight><course>303.72687</course><type>1</type></trkpt>
      <trkpt lat="39.2027436957913" lon="-6.119348544679649"><ele>1142</ele><speed>13.57</speed><time>2016-06-01T12:57:29Z</time><pdop>16.0</pdop><geoidheight>50.60</geoidheight><course>231.51248</course><type>1</type></trkpt>
      <trkpt lat="39.20266037609666" lon="-6.119778352671151"><ele>1143</ele><speed>10.25</speed><time>2016-06-01T12:57:31Z</time><pdop>8.0</pdop><geoidheight>50.60</geoidheight><course>262.66675</course><type>1</type></trkpt>
      <trkpt lat="39.20266057906744" lon="-6.120015229797243"><ele>1144</ele><speed>9.22</speed><time>2016-06-01T12:57:34Z</time><pdop>12.0</pdop><geoidheight>50.60</geoidheight><course>268.04675</course><type>1</type></trkpt>
      <trkpt lat="39.20268925219058" lon="-6.120330870460565"><ele>1145</ele><speed>7.68</speed><time>2016-06-01T12:57:37Z</time><pdop>12.0</pdop><geoidheight>50.60</geoidheight><course>272.6155</course><type>1</type></trkpt>
      <trkpt lat="39.202664352203584" lon="-6.120658060185852"><ele>1150</ele><speed>9.54</speed><time>2016-06-01T12:57:40Z</time><pdop>16.0</pdop><geoidheight>50.60</geoidheight><course>253.67331</course><type>1</type></trkpt>
      <trkpt lat="39.202683258303225" lon="-6.121023238614716"><ele>1153</ele><speed>7.84</speed><time>2016-06-01T12:57:44Z</time><pdop>12.0</pdop><geoidheight>50.60</geoidheight><course>313.06033</course><type>1</type></trkpt>
      <trkpt lat="39.20289916667192" lon="-6.120959122511202"><ele>1156</ele><speed>5.62</speed><time>2016-06-01T12:57:49Z</time><pdop>12.0</pdop><geoidheight>50.60</geoidheight><course>57.99187</course><type>1</type></trkpt>
      <trkpt lat="39.202824738653035" lon="-6.120719171624886"><ele>1162</ele><speed>10.90</speed><time>2016-06-01T12:57:52Z</time><pdop>8.0</pdop><geoidheight>50.60</geoidheight><course>129.86314</course><type>1</type></trkpt>
      <trkpt lat="39.20261486752565" lon="-6.120624311735214"><ele>1166</ele><speed>14.59</speed><time>2016-06-01T12:57:53Z</time><pdop>12.0</pdop><geoidheight>50.60</geoidheight><course>175.73724</course><type>1</type></trkpt>
      <trkpt lat="39.20241796404057" lon="-6.120647840808423"><ele>1169</ele><speed>11.63</speed><time>2016-06-01T12:57:56Z</time><pdop>8.0</pdop><geoidheight>50.60</geoidheight><course>181.3735</course><type>1</type></trkpt>
      <trkpt lat="39.20226032739845" lon="-6.120985201207169"><ele>1176</ele><speed>9.94</speed><time>2016-06-01T12:57:58Z</time><pdop>12.0</pdop><geoidheight>50.60</geoidheight><course>242.24754</course><type>1</type></trkpt>
      <trkpt lat="39.20230479447589" lon="-6.121262312578066"><ele>1182</ele><speed>7.35</speed><time>2016-06-01T12:58:02Z</time><pdop>8.0</pdop><geoidheight>50.60</geoidheight><course>319.9718</course><type>1</type></trkpt>
      <trkpt lat="39.202462716274376" lon="-6.121118988564371"><ele>1189</ele><speed>7.26</speed><time>2016-06-01T12:58:07Z</time><pdop>12.0</pdop><geoidheight>50.60</geoidheight><course>97.96093</course><type>1</type></trkpt>
      <trkpt lat="39.20232289105379" lon="-6.120859388833732"><ele>1193</ele><speed>11.67</speed><time>2016-06-01T12:58:10Z</time><pdop>12.0</pdop><geoidheight>50.60</geoidheight><course>131.09511</course><type>1</type></trkpt>
      <trkpt lat="39.202123624976274" lon="-6.120752005587112"><ele>1195</ele><speed>12.27</speed><time>2016-06-01T12:58:12Z</time><pdop>12.0</pdop><geoidheight>50.60</geoidheight><course>167.1478</course><type>1</type></trkpt>
      <trkpt lat="39.201822242660114" lon="-6.120809063219616"><ele>1199</ele><speed>11.94</speed><time>2016-06-01T12:58:14Z</time><pdop>12.0</pdop><geoidheight>50.60</geoidheight><course>196.26498</course><type>1</type></trkpt>
      <trkpt lat="39.20162217766313" lon="-6.1210390074592365"><ele>1203</ele><speed>9.56</speed><time>2016-06-01T12:58:18Z</time><pdop>12.0</pdop><geoidheight>50.60</geoidheight><course>236.30106</course><type>1</type></trkpt>
      <trkpt lat="39.201653360825674" lon="-6.121347749258792"><ele>1206</ele><speed>10.22</speed><time>2016-06-01T12:58:21Z</time><pdop>8.0</pdop><geoidheight>50.60</geoidheight><course>304.09186</course><type>1</type></trkpt>
      <trkpt lat="39.20180573885879" lon="-6.121505489089512"><ele>1207</ele><speed>5.65</speed><time>2016-06-01T12:58:24Z</time><pdop>12.0</pdop><geoidheight>50.60</geoidheight><course>341.78745</course><type>1</type></trkpt>
      <trkpt lat="39.202057169490125" lon="-6.121480129622856"><ele>1191</ele><speed>6.22</speed><time>2016-06-01T12:58:32Z</time><pdop>12.0</pdop><geoidheight>50.60</geoidheight><course>311.9614</course><type>1</type></trkpt>
      <trkpt lat="39.202059896828054" lon="-6.12107178659971"><ele>1172</ele><speed>13.19</speed><time>2016-06-01T12:58:38Z</time><pdop>16.0</pdop><geoidheight>50.60</geoidheight><course>134.13211</course><type>1</type></trkpt>
      <trkpt lat="39.20173984221485" lon="-6.120933239605113"><ele>1167</ele><speed>12.30</speed><time>2016-06-01T12:58:41Z</time><pdop>12.0</pdop><geoidheight>50.60</geoidheight><course>199.67033</course><type>1</type></trkpt>
      <trkpt lat="39.20147358410417" lon="-6.121037484212856"><ele>1165</ele><speed>9.49</speed><time>2016-06-01T12:58:44Z</time><pdop>12.0</pdop><geoidheight>50.60</geoidheight><course>202.71855</course><type>1</type></trkpt>
      <trkpt lat="39.20133665569465" lon="-6.121365202313597"><ele>1177</ele><speed>9.21</speed><time>2016-06-01T12:58:47Z</time><pdop>12.0</pdop><geoidheight>50.60</geoidheight><course>264.35828</course><type>1</type></trkpt>
      <trkpt lat="39.20144671890952" lon="-6.121612236064407"><ele>1203</ele><speed>5.38</speed><time>2016-06-01T12:58:49Z</time><pdop>12.0</pdop><geoidheight>50.60</geoidheight><course>339.881</course><type>1</type></trkpt>
      <trkpt lat="39.20164380423998" lon="-6.12175492569503"><ele>1232</ele><speed>5.19</speed><time>2016-06-01T12:58:54Z</time><pdop>8.0</pdop><geoidheight>50.60</geoidheight><course>36.24661</course><type>1</type></trkpt>
      <trkpt lat="39.20156826081738" lon="-6.121436219383011"><ele>1249</ele><speed>11.12</speed><time>2016-06-01T12:58:57Z</time><pdop>16.0</pdop><geoidheight>50.60</geoidheight><course>140.2662</course><type>1</type></trkpt>
      <trkpt lat="39.201244206371726" lon="-6.121415132122092"><ele>1255</ele><speed>14.82</speed><time>2016-06-01T12:59:01Z</time><pdop>16.0</pdop><geoidheight>50.60</geoidheight><course>195.66476</course><type>1</type></trkpt>
      <trkpt lat="39.20103702024714" lon="-6.12156509379239"><ele>1258</ele><speed>15.72</speed><time>2016-06-01T12:59:02Z</time><pdop>8.0</pdop><geoidheight>50.60</geoidheight><course>205.5753</course><type>1</type></trkpt>
      <trkpt lat="39.20094777471213" lon="-6.121744321704669"><ele>1263</ele><speed>8.34</speed><time>2016-06-01T12:59:05Z</time><pdop>8.0</pdop><geoidheight>50.60</geoidheight><course>240.54433</course><type>1</type></trkpt>
      <trkpt lat="39.20090812486207" lon="-6.121925226909881"><ele>1267</ele><speed>8.63</speed><time>2016-06-01T12:59:07Z</time><pdop>8.0</pdop><geoidheight>50.60</geoidheight><course>258.4435</course><type>1</type></trkpt>
      <trkpt lat="39.20093333266298" lon="-6.1221164266666905"><ele>1269</ele><speed>8.03</speed><time>2016-06-01T12:59:08Z</time><pdop>8.0</pdop><geoidheight>50.60</geoidheight><course>293.53076</course><type>1</type></trkpt>
      <trkpt lat="39.20098227995087" lon="-6.121885938813195"><ele>1278</ele><speed>11.75</speed><time>2016-06-01T12:59:15Z</time><pdop>12.0</pdop><geoidheight>50.60</geoidheight><course>128.57318</course><type>1</type></trkpt>
      <trkpt lat="39.20071583535602" lon="-6.121771434751586"><ele>1284</ele><speed>11.82</speed><time>2016-06-01T12:59:18Z</time><pdop>12.0</pdop><geoidheight>50.60</geoidheight><course>167.3971</course><type>1</type></trkpt>
      <trkpt lat="39.200486418537906" lon="-6.121791338137764"><ele>1286</ele><speed>13.97</speed><time>2016-06-01T12:59:20Z</time><pdop>12.0</pdop><geoidheight>50.60</geoidheight><course>184.55244</course><type>1</type></trkpt>
      <trkpt lat="39.200282317270116" lon="-6.121920844118757"><ele>1288</ele><speed>14.02</speed><time>2016-06-01T12:59:22Z</time><pdop>12.0</pdop><geoidheight>50.60</geoidheight><course>205.616</course><type>1</type></trkpt>
      <trkpt lat="39.20019073835173" lon="-6.122272169093875"><ele>1294</ele><speed>9.16</speed><time>2016-06-01T12:59:24Z</time><pdop>12.0</pdop><geoidheight>50.60</geoidheight><course>262.60532</course><type>1</type></trkpt>
      <trkpt lat="39.200240871226015" lon="-6.122588365192403"><ele>1300</ele><speed>6.31</speed><time>2016-06-01T12:59:29Z</time><pdop>12.0</pdop><geoidheight>50.60</geoidheight><course>283.50076</course><type>1</type></trkpt>
      <trkpt lat="39.20035206965533" lon="-6.122842781490205"><ele>1302</ele><speed>6.05</speed><time>2016-06-01T12:59:33Z</time><pdop>8.0</pdop><geoidheight>50.60</geoidheight><course>320.63947</course><type>1</type></trkpt>
      <trkpt lat="39.20053433049552" lon="-6.122715574803315"><ele>1311</ele><speed>8.79</speed><time>2016-06-01T12:59:38Z</time><pdop>12.0</pdop><geoidheight>50.60</geoidheight><course>87.21804</course><type>1</type></trkpt>
      <trkpt lat="39.20038890539781" lon="-6.1224343618120685"><ele>1313</ele><speed>15.46</speed><time>2016-06-01T12:59:40Z</time><pdop>12.0</pdop><geoidheight>50.60</geoidheight><course>151.48007</course><type>1</type></trkpt>
      <trkpt lat="39.20013260650121" lon="-6.122405231158659"><ele>1314</ele><speed>15.72</speed><time>2016-06-01T12:59:43Z</time><pdop>12.0</pdop><geoidheight>50.60</geoidheight><course>175.90103</course><type>1</type></trkpt>
      <trkpt lat="39.19992434013243" lon="-6.122545198112648"><ele>1316</ele><speed>12.97</speed><time>2016-06-01T12:59:44Z</time><pdop>12.0</pdop><geoidheight>50.60</geoidheight><course>209.55249</course><type>1</type></trkpt>
      <trkpt lat="39.19974234916594" lon="-6.12285787004607"><ele>1319</ele><speed>10.64</speed><time>2016-06-01T12:59:48Z</time><pdop>12.0</pdop><geoidheight>50.60</geoidheight><course>254.26917</course><type>1</type></trkpt>
      <trkpt lat="39.19982583800031" lon="-6.123225726872001"><ele>1323</ele><speed>7.86</speed><time>2016-06-01T12:59:52Z</time><pdop>16.0</pdop><geoidheight>50.60</geoidheight><course>319.91852</course><type>1</type></trkpt>
      <trkpt lat="39.2000543228649" lon="-6.123336975199702"><ele>1329</ele><speed>5.12</speed><time>2016-06-01T12:59:56Z</time><pdop>8.0</pdop><geoidheight>50.60</geoidheight><course>14.928297</course><type>1</type></trkpt>
      <trkpt lat="39.2002348500194" lon="-6.12323153382597"><ele>1325</ele><speed>6.50</speed><time>2016-06-01T12:59:59Z</time><pdop>12.0</pdop><geoidheight>50.60</geoidheight><course>17.447739</course><type>1</type></trkpt>
      <trkpt lat="39.20039361614163" lon="-6.123115152120973"><ele>1313</ele><speed>5.83</speed><time>2016-06-01T13:00:01Z</time><pdop>8.0</pdop><geoidheight>50.60</geoidheight><course>11.999098</course><type>1</type></trkpt>
      <trkpt lat="39.20061987369686" lon="-6.123005800645997"><ele>1293</ele><speed>7.09</speed><time>2016-06-01T13:00:07Z</time><pdop>12.0</pdop><geoidheight>50.60</geoidheight><course>4.061604</course><type>1</type></trkpt>
      <trkpt lat="39.20090035506295" lon="-6.122843103220613"><ele>1277</ele><speed>7.37</speed><time>2016-06-01T13:00:13Z</time><pdop>16.0</pdop><geoidheight>50.60</geoidheight><course>14.352679</course><type>1</type></trkpt>
      <trkpt lat="39.20120369910425" lon="-6.12281938142742"><ele>1272</ele><speed>4.15</speed><time>2016-06-01T13:00:20Z</time><pdop>12.0</pdop><geoidheight>50.60</geoidheight><course>345.24295</course><type>1</type></trkpt>
      <trkpt lat="39.201434402076785" lon="-6.123019993139513"><ele>1276</ele><speed>5.29</speed><time>2016-06-01T13:00:25Z</time><pdop>12.0</pdop><geoidheight>50.60</geoidheight><course>329.81866</course><type>1</type></trkpt>
      <trkpt lat="39.20165659791997" lon="-6.123023847105605"><ele>1281</ele><speed>7.08</speed><time>2016-06-01T13:00:28Z</time><pdop>12.0</pdop><geoidheight>50.60</geoidheight><course>6.569794</course><type>1</type></trkpt>
      <trkpt lat="39.20194699868258" lon="-6.122958464415518"><ele>1280</ele><speed>5.46</speed><time>2016-06-01T13:00:34Z</time><pdop>12.0</pdop><geoidheight>50.60</geoidheight><course>23.480055</course><type>1</type></trkpt>
      <trkpt lat="39.20213269551939" lon="-6.122862614238593"><ele>1281</ele><speed>4.47</speed><time>2016-06-01T13:00:38Z</time><pdop>8.0</pdop><geoidheight>50.60</geoidheight><course>25.266703</course><type>1</type></trkpt>
      <trkpt lat="39.2023772961574" lon="-6.122749522280305"><ele>1288</ele><speed>6.55</speed><time>2016-06-01T13:00:42Z</time><pdop>16.0</pdop><geoidheight>50.60</geoidheight><course>18.071856</course><type>1</type></trkpt>
      <trkpt lat="39.202652571368375" lon="-6.122697487556752"><ele>1304</ele><speed>6.60</speed><time>2016-06-01T13:00:47Z</time><pdop>12.0</pdop><geoidheight>50.60</geoidheight><course>4.6764703</course><type>1</type></trkpt>
      <trkpt lat="39.20297960068594" lon="-6.122752056899102"><ele>1326</ele><speed>7.73</speed><time>2016-06-01T13:00:51Z</time><pdop>16.0</pdop><geoidheight>50.60</geoidheight><course>359.60245</course><type>1</type></trkpt>
      <trkpt lat="39.20328654637551" lon="-6.1228363098146374"><ele>1344</ele><speed>7.09</speed><time>2016-06-01T13:00:55Z</time><pdop>16.0</pdop><geoidheight>50.60</geoidheight><course>0.55320764</course><type>1</type></trkpt>
      <trkpt lat="39.203584617829364" lon="-6.122916074328763"><ele>1355</ele><speed>5.40</speed><time>2016-06-01T13:01:00Z</time><pdop>16.0</pdop><geoidheight>50.60</geoidheight><course>356.34683</course><type>1</type></trkpt>
      <trkpt lat="39.20389340471832" lon="-6.122901926758943"><ele>1361</ele><speed>5.16</speed><time>2016-06-01T13:01:06Z</time><pdop>16.0</pdop><geoidheight>50.60</geoidheight><course>13.119631</course><type>1</type></trkpt>
      <trkpt lat="39.20428960226715" lon="-6.122925642351554"><ele>1358</ele><speed>7.31</speed><time>2016-06-01T13:01:14Z</time><pdop>16.0</pdop><geoidheight>50.60</geoidheight><course>342.63367</course><type>1</type></trkpt>
      <trkpt lat="39.20459975834939" lon="-6.123023254563059"><ele>1355</ele><speed>5.89</speed><time>2016-06-01T13:01:22Z</time><pdop>16.0</pdop><geoidheight>50.60</geoidheight><course>347.75568</course><type>1</type></trkpt>
      <trkpt lat="39.204694086097774" lon="-6.122690457538711"><ele>1363</ele><speed>10.78</speed><time>2016-06-01T13:01:30Z</time><pdop>12.0</pdop><geoidheight>50.60</geoidheight><course>132.84258</course><type>1</type></trkpt>
      <trkpt lat="39.20441342898113" lon="-6.122573992216504"><ele>1367</ele><speed>12.50</speed><time>2016-06-01T13:01:33Z</time><pdop>12.0</pdop><geoidheight>50.60</geoidheight><course>170.62935</course><type>1</type></trkpt>
      <trkpt lat="39.204108076630895" lon="-6.122672405870647"><ele>1372</ele><speed>12.58</speed><time>2016-06-01T13:01:36Z</time><pdop>16.0</pdop><geoidheight>50.60</geoidheight><course>211.65802</course><type>1</type></trkpt>
      <trkpt lat="39.20394373365935" lon="-6.1230319535535855"><ele>1378</ele><speed>12.18</speed><time>2016-06-01T13:01:38Z</time><pdop>12.0</pdop><geoidheight>50.60</geoidheight><course>258.81564</course><type>1</type></trkpt>
      <trkpt lat="39.20396177785445" lon="-6.123283354868033"><ele>1385</ele><speed>4.86</speed><time>2016-06-01T13:01:41Z</time><pdop>8.0</pdop><geoidheight>50.60</geoidheight><course>319.44928</course><type>1</type></trkpt>
      <trkpt lat="39.20394402570055" lon="-6.122941235917275"><ele>1395</ele><speed>12.44</speed><time>2016-06-01T13:01:48Z</time><pdop>12.0</pdop><geoidheight>50.60</geoidheight><course>133.01189</course><type>1</type></trkpt>
      <trkpt lat="39.20367416569636" lon="-6.122816977336918"><ele>1401</ele><speed>11.98</speed><time>2016-06-01T13:01:51Z</time><pdop>12.0</pdop><geoidheight>50.60</geoidheight><course>177.32777</course><type>1</type></trkpt>
      <trkpt lat="39.203460054410456" lon="-6.122812872195792"><ele>1405</ele><speed>12.67</speed><time>2016-06-01T13:01:53Z</time><pdop>8.0</pdop><geoidheight>50.60</geoidheight><course>182.04308</course><type>1</type></trkpt>
      <trkpt lat="39.20325410315487" lon="-6.12287663878169"><ele>1409</ele><speed>12.81</speed><time>2016-06-01T13:01:55Z</time><pdop>12.0</pdop><geoidheight>50.60</geoidheight><course>198.6878</course><type>1</type></trkpt>
      <trkpt lat="39.202993926447434" lon="-6.123057449956223"><ele>1416</ele><speed>10.17</speed><time>2016-06-01T13:01:58Z</time><pdop>16.0</pdop><geoidheight>50.60</geoidheight><course>219.15945</course><type>1</type></trkpt>
      <trkpt lat="39.202896873225114" lon="-6.123331963565774"><ele>1419</ele><speed>9.34</speed><time>2016-06-01T13:02:00Z</time><pdop>8.0</pdop><geoidheight>50.60</geoidheight><course>266.1335</course><type>1</type></trkpt>
      <trkpt lat="39.203079341906495" lon="-6.123337271474443"><ele>1422</ele><speed>2.80</speed><time>2016-06-01T13:02:07Z</time><pdop>12.0</pdop><geoidheight>50.60</geoidheight><course>35.74796</course><type>1</type></trkpt>
      <trkpt lat="39.20306888794517" lon="-6.122980888927876"><ele>1417</ele><speed>10.06</speed><time>2016-06-01T13:02:11Z</time><pdop>16.0</pdop><geoidheight>50.60</geoidheight><course>122.79314</course><type>1</type></trkpt>
      <trkpt lat="39.20275790006399" lon="-6.1227992845663035"><ele>1411</ele><speed>14.82</speed><time>2016-06-01T13:02:14Z</time><pdop>16.0</pdop><geoidheight>50.60</geoidheight><course>190.6947</course><type>1</type></trkpt>
      <trkpt lat="39.202504433522286" lon="-6.123142694893412"><ele>1421</ele><speed>11.26</speed><time>2016-06-01T13:02:17Z</time><pdop>16.0</pdop><geoidheight>50.60</geoidheight><course>227.20901</course><type>1</type></trkpt>
      <trkpt lat="39.20237016991295" lon="-6.123494308762372"><ele>1443</ele><speed>9.81</speed><time>2016-06-01T13:02:20Z</time><pdop>8.0</pdop><geoidheight>50.60</geoidheight><course>261.68787</course><type>1</type></trkpt>
      <trkpt lat="39.20246774654491" lon="-6.123715599224974"><ele>1459</ele><speed>7.26</speed><time>2016-06-01T13:02:23Z</time><pdop>12.0</pdop><geoidheight>50.60</geoidheight><course>330.5421</course><type>1</type></trkpt>
      <trkpt lat="39.20258038986522" lon="-6.12348410196876"><ele>1472</ele><speed>6.45</speed><time>2016-06-01T13:02:28Z</time><pdop>8.0</pdop><geoidheight>50.60</geoidheight><course>86.366394</course><type>1</type></trkpt>
      <trkpt lat="39.202419373542654" lon="-6.123253283335663"><ele>1479</ele><speed>13.63</speed><time>2016-06-01T13:02:31Z</time><pdop>16.0</pdop><geoidheight>50.60</geoidheight><course>155.28351</course><type>1</type></trkpt>
      <trkpt lat="39.20204902702538" lon="-6.123304488334048"><ele>1484</ele><speed>13.29</speed><time>2016-06-01T13:02:34Z</time><pdop>8.0</pdop><geoidheight>50.60</geoidheight><course>201.393</course><type>1</type></trkpt>
      <trkpt lat="39.20184049780746" lon="-6.1234295377191925"><ele>1489</ele><speed>12.68</speed><time>2016-06-01T13:02:36Z</time><pdop>16.0</pdop><geoidheight>50.60</geoidheight><course>216.29703</course><type>1</type></trkpt>
      <trkpt lat="39.20167804995355" lon="-6.123706275673409"><ele>1494</ele><speed>10.07</speed><time>2016-06-01T13:02:38Z</time><pdop>6.0</pdop><geoidheight>50.60</geoidheight><course>254.2292</course><type>1</type></trkpt>
      <trkpt lat="39.20171208484378" lon="-6.123944941498419"><ele>1498</ele><speed>6.57</speed><time>2016-06-01T13:02:42Z</time><pdop>12.0</pdop><geoidheight>50.60</geoidheight><course>311.96704</course><type>1</type></trkpt>
      <trkpt lat="39.20190036017774" lon="-6.123941489675205"><ele>1505</ele><speed>4.68</speed><time>2016-06-01T13:02:47Z</time><pdop>8.0</pdop><geoidheight>50.60</geoidheight><course>3.3732743</course><type>1</type></trkpt>
      <trkpt lat="39.20207040091922" lon="-6.123757893694265"><ele>1505</ele><speed>6.55</speed><time>2016-06-01T13:02:51Z</time><pdop>12.0</pdop><geoidheight>50.60</geoidheight><course>74.40152</course><type>1</type></trkpt>
      <trkpt lat="39.2019008460462" lon="-6.1234384269553095"><ele>1498</ele><speed>13.01</speed><time>2016-06-01T13:02:54Z</time><pdop>16.0</pdop><geoidheight>50.60</geoidheight><course>142.86699</course><type>1</type></trkpt>
      <trkpt lat="39.20157528400735" lon="-6.123412696077652"><ele>1493</ele><speed>13.33</speed><time>2016-06-01T13:02:57Z</time><pdop>16.0</pdop><geoidheight>50.60</geoidheight><course>206.13199</course><type>1</type></trkpt>
      <trkpt lat="39.20135666864765" lon="-6.123716066350859"><ele>1487</ele><speed>10.74</speed><time>2016-06-01T13:03:00Z</time><pdop>16.0</pdop><geoidheight>50.60</geoidheight><course>251.06786</course><type>1</type></trkpt>
      <trkpt lat="39.20151556191417" lon="-6.124017164491321"><ele>1487</ele><speed>3.98</speed><time>2016-06-01T13:03:06Z</time><pdop>12.0</pdop><geoidheight>50.60</geoidheight><course>356.3405</course><type>1</type></trkpt>
      <trkpt lat="39.20178263219144" lon="-6.124062334588755"><ele>1493</ele><speed>3.98</speed><time>2016-06-01T13:03:13Z</time><pdop>16.0</pdop><geoidheight>50.60</geoidheight><course>354.11505</course><type>1</type></trkpt>
      <trkpt lat="39.20185173223736" lon="-6.123742456518853"><ele>1500</ele><speed>7.36</speed><time>2016-06-01T13:03:19Z</time><pdop>12.0</pdop><geoidheight>50.60</geoidheight><course>81.47845</course><type>1</type></trkpt>
      <trkpt lat="39.20160058163852" lon="-6.123673359614399"><ele>1503</ele><speed>14.15</speed><time>2016-06-01T13:03:21Z</time><pdop>16.0</pdop><geoidheight>50.60</geoidheight><course>190.51514</course><type>1</type></trkpt>
      <trkpt lat="39.2013543301597" lon="-6.123961401951875"><ele>1509</ele><speed>9.84</speed><time>2016-06-01T13:03:24Z</time><pdop>16.0</pdop><geoidheight>50.60</geoidheight><course>254.71913</course><type>1</type></trkpt>
      <trkpt lat="39.2014463375295" lon="-6.124349428612996"><ele>1531</ele><speed>5.99</speed><time>2016-06-01T13:03:26Z</time><pdop>16.0</pdop><geoidheight>50.60</geoidheight><course>312.97452</course><type>1</type></trkpt>
      <trkpt lat="39.2017287686884" lon="-6.124466064323809"><ele>1562</ele><speed>5.30</speed><time>2016-06-01T13:03:32Z</time><pdop>16.0</pdop><geoidheight>50.60</geoidheight><course>23.601292</course><type>1</type></trkpt>
      <trkpt lat="39.20160963122812" lon="-6.12416755373984"><ele>1588</ele><speed>14.18</speed><time>2016-06-01T13:03:38Z</time><pdop>12.0</pdop><geoidheight>50.60</geoidheight><course>128.05109</course><type>1</type></trkpt>
      <trkpt lat="39.20128732647545" lon="-6.1243686897409955"><ele>1596</ele><speed>10.94</speed><time>2016-06-01T13:03:40Z</time><pdop>16.0</pdop><geoidheight>50.60</geoidheight><course>211.06664</course><type>1</type></trkpt>
      <trkpt lat="39.20111731829217" lon="-6.124658970127144"><ele>1605</ele><speed>11.39</speed><time>2016-06-01T13:03:44Z</time><pdop>12.0</pdop><geoidheight>50.60</geoidheight><course>255.58936</course><type>1</type></trkpt>
      <trkpt lat="39.201117687857696" lon="-6.124988077813172"><ele>1613</ele><speed>6.76</speed><time>2016-06-01T13:03:47Z</time><pdop>16.0</pdop><geoidheight>50.60</geoidheight><course>284.21442</course><type>1</type></trkpt>
      <trkpt lat="39.20128679847234" lon="-6.124667008012596"><ele>1619</ele><speed>9.51</speed><time>2016-06-01T13:03:53Z</time><pdop>16.0</pdop><geoidheight>50.60</geoidheight><course>109.033775</course><type>1</type></trkpt>
      <trkpt lat="39.20101896155222" lon="-6.124471906465908"><ele>1622</ele><speed>12.87</speed><time>2016-06-01T13:03:56Z</time><pdop>12.0</pdop><geoidheight>50.60</geoidheight><course>175.06104</course><type>1</type></trkpt>
      <trkpt lat="39.20080611441524" lon="-6.124538105570374"><ele>1625</ele><speed>11.90</speed><time>2016-06-01T13:03:57Z</time><pdop>12.0</pdop><geoidheight>50.60</geoidheight><course>215.09634</course><type>1</type></trkpt>
      <trkpt lat="39.20062365719309" lon="-6.124844643440275"><ele>1628</ele><speed>10.68</speed><time>2016-06-01T13:04:01Z</time><pdop>12.0</pdop><geoidheight>50.60</geoidheight><course>246.07094</course><type>1</type></trkpt>
      <trkpt lat="39.200579903605046" lon="-6.12515340425996"><ele>1632</ele><speed>8.40</speed><time>2016-06-01T13:04:04Z</time><pdop>8.0</pdop><geoidheight>50.60</geoidheight><course>277.66995</course><type>1</type></trkpt>
      <trkpt lat="39.20079147910355" lon="-6.125264063932823"><ele>1637</ele><speed>5.04</speed><time>2016-06-01T13:04:09Z</time><pdop>16.0</pdop><geoidheight>50.60</geoidheight><course>25.444756</course><type>1</type></trkpt>
      <trkpt lat="39.200815433007776" lon="-6.124892527866747"><ele>1640</ele><speed>9.43</speed><time>2016-06-01T13:04:14Z</time><pdop>8.0</pdop><geoidheight>50.60</geoidheight><course>122.149734</course><type>1</type></trkpt>
      <trkpt lat="39.200571332817574" lon="-6.1247074930997805"><ele>1643</ele><speed>12.31</speed><time>2016-06-01T13:04:16Z</time><pdop>16.0</pdop><geoidheight>50.60</geoidheight><course>167.15912</course><type>1</type></trkpt>
      <trkpt lat="39.20025802968679" lon="-6.124851346670822"><ele>1648</ele><speed>12.44</speed><time>2016-06-01T13:04:20Z</time><pdop>8.0</pdop><geoidheight>50.60</geoidheight><course>208.60843</course><type>1</type></trkpt>
      <trkpt lat="39.20017115078284" lon="-6.125064935895803"><ele>1650</ele><speed>9.97</speed><time>2016-06-01T13:04:21Z</time><pdop>12.0</pdop><geoidheight>50.60</geoidheight><course>243.28061</course><type>1</type></trkpt>
      <trkpt lat="39.20014460984292" lon="-6.125296946260408"><ele>1651</ele><speed>9.70</speed><time>2016-06-01T13:04:24Z</time><pdop>8.0</pdop><geoidheight>50.60</geoidheight><course>264.3305</course><type>1</type></trkpt>
      <trkpt lat="39.20024739935914" lon="-6.125532366845675"><ele>1655</ele><speed>6.44</speed><time>2016-06-01T13:04:26Z</time><pdop>12.0</pdop><geoidheight>50.60</geoidheight><course>324.12073</course><type>1</type></trkpt>
      <trkpt lat="39.20043016512261" lon="-6.12567908537274"><ele>1660</ele><speed>7.61</speed><time>2016-06-01T13:04:31Z</time><pdop>8.0</pdop><geoidheight>50.60</geoidheight><course>331.60663</course><type>1</type></trkpt>
      <trkpt lat="39.2006100572689" lon="-6.125726699551847"><ele>1661</ele><speed>6.15</speed><time>2016-06-01T13:04:33Z</time><pdop>8.0</pdop><geoidheight>50.60</geoidheight><course>352.5957</course><type>1</type></trkpt>
      <trkpt lat="39.20083805833891" lon="-6.125725013386887"><ele>1667</ele><speed>6.60</speed><time>2016-06-01T13:04:38Z</time><pdop>16.0</pdop><geoidheight>50.60</geoidheight><course>357.73422</course><type>1</type></trkpt>
      <trkpt lat="39.20113270026525" lon="-6.125690575857874"><ele>1677</ele><speed>4.24</speed><time>2016-06-01T13:04:43Z</time><pdop>8.0</pdop><geoidheight>50.60</geoidheight><course>22.741232</course><type>1</type></trkpt>
      <trkpt lat="39.201285458195464" lon="-6.125492992516863"><ele>1675</ele><speed>6.58</speed><time>2016-06-01T13:04:47Z</time><pdop>16.0</pdop><geoidheight>50.60</geoidheight><course>59.60112</course><type>1</type></trkpt>
      <trkpt lat="39.201163531874165" lon="-6.125196613941777"><ele>1675</ele><speed>10.66</speed><time>2016-06-01T13:04:51Z</time><pdop>12.0</pdop><geoidheight>50.60</geoidheight><course>146.06262</course><type>1</type></trkpt>
      <trkpt lat="39.200925479522226" lon="-6.125013295727848"><ele>1677</ele><speed>10.26</speed><time>2016-06-01T13:04:54Z</time><pdop>12.0</pdop><geoidheight>50.60</geoidheight><course>149.56487</course><type>1</type></trkpt>
      <trkpt lat="39.2007291995849" lon="-6.124872903978923"><ele>1678</ele><speed>12.92</speed><time>2016-06-01T13:04:56Z</time><pdop>12.0</pdop><geoidheight>50.60</geoidheight><course>151.81078</course><type>1</type></trkpt>
      <trkpt lat="39.200520219081106" lon="-6.124762066947279"><ele>1678</ele><speed>11.07</speed><time>2016-06-01T13:04:57Z</time><pdop>6.0</pdop><geoidheight>50.60</geoidheight><course>158.3187</course><type>1</type></trkpt>
      <trkpt lat="39.20031924242456" lon="-6.124714470346482"><ele>1680</ele><speed>10.93</speed><time>2016-06-01T13:05:00Z</time><pdop>8.0</pdop><geoidheight>50.60</geoidheight><course>176.5114</course><type>1</type></trkpt>
      <trkpt lat="39.200096189049546" lon="-6.124752087127833"><ele>1683</ele><speed>13.29</speed><time>2016-06-01T13:05:02Z</time><pdop>16.0</pdop><geoidheight>50.60</geoidheight><course>196.09314</course><type>1</type></trkpt>
      <trkpt lat="39.19991937710044" lon="-6.124929911215985"><ele>1683</ele><speed>12.83</speed><time>2016-06-01T13:05:04Z</time><pdop>8.0</pdop><geoidheight>50.60</geoidheight><course>227.3166</course><type>1</type></trkpt>
      <trkpt lat="39.199841902639534" lon="-6.125157551232782"><ele>1683</ele><speed>10.41</speed><time>2016-06-01T13:05:06Z</time><pdop>8.0</pdop><geoidheight>50.60</geoidheight><course>249.73064</course><type>1</type></trkpt>
      <trkpt lat="39.199793822290545" lon="-6.125375445332569"><ele>1683</ele><speed>9.18</speed><time>2016-06-01T13:05:08Z</time><pdop>8.0</pdop><geoidheight>50.60</geoidheight><course>255.61476</course><type>1</type></trkpt>
      <trkpt lat="39.19979762626637" lon="-6.125589940233568"><ele>1683</ele><speed>8.93</speed><time>2016-06-01T13:05:09Z</time><pdop>8.0</pdop><geoidheight>50.60</geoidheight><course>273.82178</course><type>1</type></trkpt>
      <trkpt lat="39.19986022907348" lon="-6.125787944540957"><ele>1684</ele><speed>9.06</speed><time>2016-06-01T13:05:12Z</time><pdop>8.0</pdop><geoidheight>50.60</geoidheight><course>294.40768</course><type>1</type></trkpt>
      <trkpt lat="39.19998484085598" lon="-6.125976933952281"><ele>1684</ele><speed>7.01</speed><time>2016-06-01T13:05:14Z</time><pdop>8.0</pdop><geoidheight>50.60</geoidheight><course>328.6782</course><type>1</type></trkpt>
      <trkpt lat="39.20019616622729" lon="-6.12584401744813"><ele>1687</ele><speed>6.68</speed><time>2016-06-01T13:05:20Z</time><pdop>16.0</pdop><geoidheight>50.60</geoidheight><course>87.04034</course><type>1</type></trkpt>
      <trkpt lat="39.19990749565336" lon="-6.125645035920018"><ele>1689</ele><speed>12.72</speed><time>2016-06-01T13:05:23Z</time><pdop>12.0</pdop><geoidheight>50.60</geoidheight><course>175.26456</course><type>1</type></trkpt>
      <trkpt lat="39.1995853766663" lon="-6.125778327874646"><ele>1693</ele><speed>11.66</speed><time>2016-06-01T13:05:26Z</time><pdop>8.0</pdop><geoidheight>50.60</geoidheight><course>192.87338</course><type>1</type></trkpt>
      <trkpt lat="39.19949998842072" lon="-6.126006589998149"><ele>1695</ele><speed>11.87</speed><time>2016-06-01T13:05:29Z</time><pdop>8.0</pdop><geoidheight>50.60</geoidheight><course>256.88437</course><type>1</type></trkpt>
      <trkpt lat="39.19946279413922" lon="-6.126259370573729"><ele>1696</ele><speed>10.49</speed><time>2016-06-01T13:05:31Z</time><pdop>8.0</pdop><geoidheight>50.60</geoidheight><course>258.48822</course><type>1</type></trkpt>
      <trkpt lat="39.19947826648341" lon="-6.1265685662784595"><ele>1698</ele><speed>9.00</speed><time>2016-06-01T13:05:34Z</time><pdop>8.0</pdop><geoidheight>50.60</geoidheight><course>289.23068</course><type>1</type></trkpt>
      <trkpt lat="39.19969028444997" lon="-6.12665590682478"><ele>1697</ele><speed>5.58</speed><time>2016-06-01T13:05:38Z</time><pdop>12.0</pdop><geoidheight>50.60</geoidheight><course>11.6248045</course><type>1</type></trkpt>
      <trkpt lat="39.199927212672584" lon="-6.126461137139293"><ele>1684</ele><speed>7.63</speed><time>2016-06-01T13:05:42Z</time><pdop>12.0</pdop><geoidheight>50.60</geoidheight><course>21.639212</course><type>1</type></trkpt>
      <trkpt lat="39.20012241819395" lon="-6.126279555439529"><ele>1673</ele><speed>6.31</speed><time>2016-06-01T13:05:44Z</time><pdop>12.0</pdop><geoidheight>50.60</geoidheight><course>30.23814</course><type>1</type></trkpt>
      <trkpt lat="39.20027608039363" lon="-6.126080556828946"><ele>1658</ele><speed>5.06</speed><time>2016-06-01T13:05:49Z</time><pdop>8.0</pdop><geoidheight>50.60</geoidheight><course>31.700907</course><type>1</type></trkpt>
      <trkpt lat="39.20046290044668" lon="-6.125982818838132"><ele>1651</ele><speed>6.83</speed><time>2016-06-01T13:05:54Z</time><pdop>12.0</pdop><geoidheight>50.60</geoidheight><course>29.09001</course><type>1</type></trkpt>
      <trkpt lat="39.200684870527134" lon="-6.125888902969103"><ele>1655</ele><speed>8.83</speed><time>2016-06-01T13:05:58Z</time><pdop>8.0</pdop><geoidheight>50.60</geoidheight><course>42.65147</course><type>1</type></trkpt>
      <trkpt lat="39.20085395589743" lon="-6.125721905220632"><ele>1656</ele><speed>7.47</speed><time>2016-06-01T13:06:01Z</time><pdop>12.0</pdop><geoidheight>50.60</geoidheight><course>40.340694</course><type>1</type></trkpt>
      <trkpt lat="39.201021669019134" lon="-6.125474403703445"><ele>1657</ele><speed>7.74</speed><time>2016-06-01T13:06:05Z</time><pdop>12.0</pdop><geoidheight>50.60</geoidheight><course>59.356785</course><type>1</type></trkpt>
      <trkpt lat="39.20117141443464" lon="-6.125180805226867"><ele>1661</ele><speed>6.25</speed><time>2016-06-01T13:06:09Z</time><pdop>16.0</pdop><geoidheight>50.60</geoidheight><course>59.753704</course><type>1</type></trkpt>
      <trkpt lat="39.20137692930044" lon="-6.124877798763379"><ele>1662</ele><speed>8.67</speed><time>2016-06-01T13:06:14Z</time><pdop>12.0</pdop><geoidheight>50.60</geoidheight><course>38.02775</course><type>1</type></trkpt>
      <trkpt lat="39.20154991055085" lon="-6.124725394256001"><ele>1657</ele><speed>6.70</speed><time>2016-06-01T13:06:17Z</time><pdop>8.0</pdop><geoidheight>50.60</geoidheight><course>33.308422</course><type>1</type></trkpt>
      <trkpt lat="39.20174930323354" lon="-6.124564140304329"><ele>1645</ele><speed>7.32</speed><time>2016-06-01T13:06:21Z</time><pdop>16.0</pdop><geoidheight>50.60</geoidheight><course>29.189596</course><type>1</type></trkpt>
      <trkpt lat="39.20206136384333" lon="-6.124416736712626"><ele>1633</ele><speed>8.96</speed><time>2016-06-01T13:06:26Z</time><pdop>16.0</pdop><geoidheight>50.60</geoidheight><course>19.915997</course><type>1</type></trkpt>
      <trkpt lat="39.20226681986532" lon="-6.12432128747646"><ele>1627</ele><speed>8.18</speed><time>2016-06-01T13:06:28Z</time><pdop>6.0</pdop><geoidheight>50.60</geoidheight><course>25.507164</course><type>1</type></trkpt>
      <trkpt lat="39.202447252137866" lon="-6.124166585038578"><ele>1620</ele><speed>9.39</speed><time>2016-06-01T13:06:32Z</time><pdop>16.0</pdop><geoidheight>50.60</geoidheight><course>30.511091</course><type>1</type></trkpt>
      <trkpt lat="39.20268440337904" lon="-6.123943298270134"><ele>1611</ele><speed>4.70</speed><time>2016-06-01T13:06:37Z</time><pdop>12.0</pdop><geoidheight>50.60</geoidheight><course>36.269783</course><type>1</type></trkpt>
      <trkpt lat="39.20288930594383" lon="-6.123718429177064"><ele>1605</ele><speed>5.64</speed><time>2016-06-01T13:06:42Z</time><pdop>16.0</pdop><geoidheight>50.60</geoidheight><course>46.634796</course><type>1</type></trkpt>
      <trkpt lat="39.20312793221571" lon="-6.1234565922853035"><ele>1599</ele><speed>6.93</speed><time>2016-06-01T13:06:48Z</time><pdop>6.0</pdop><geoidheight>50.60</geoidheight><course>44.608276</course><type>1</type></trkpt>
      <trkpt lat="39.20326554051229" lon="-6.1232805065776414"><ele>1596</ele><speed>7.39</speed><time>2016-06-01T13:06:51Z</time><pdop>8.0</pdop><geoidheight>50.60</geoidheight><course>44.49522</course><type>1</type></trkpt>
      <trkpt lat="39.20341733061094" lon="-6.123075717616955"><ele>1594</ele><speed>9.06</speed><time>2016-06-01T13:06:54Z</time><pdop>8.0</pdop><geoidheight>50.60</geoidheight><course>45.626556</course><type>1</type></trkpt>
      <trkpt lat="39.20357317552006" lon="-6.1228635196260734"><ele>1593</ele><speed>7.89</speed><time>2016-06-01T13:06:57Z</time><pdop>12.0</pdop><geoidheight>50.60</geoidheight><course>48.006134</course><type>1</type></trkpt>
      <trkpt lat="39.20368805302801" lon="-6.12264670646679"><ele>1593</ele><speed>6.94</speed><time>2016-06-01T13:07:00Z</time><pdop>8.0</pdop><geoidheight>50.60</geoidheight><course>54.221657</course><type>1</type></trkpt>
      <trkpt lat="39.2037938321393" lon="-6.122426087155696"><ele>1593</ele><speed>8.51</speed><time>2016-06-01T13:07:03Z</time><pdop>12.0</pdop><geoidheight>50.60</geoidheight><course>58.87718</course><type>1</type></trkpt>
      <trkpt lat="39.20385855900898" lon="-6.12217052765315"><ele>1591</ele><speed>7.18</speed><time>2016-06-01T13:07:06Z</time><pdop>6.0</pdop><geoidheight>50.60</geoidheight><course>79.07893</course><type>1</type></trkpt>
      <trkpt lat="39.203870563522244" lon="-6.1220004062636715"><ele>1591</ele><speed>7.17</speed><time>2016-06-01T13:07:08Z</time><pdop>6.0</pdop><geoidheight>50.60</geoidheight><course>84.3166</course><type>1</type></trkpt>
      <trkpt lat="39.20388976351574" lon="-6.121810779234203"><ele>1590</ele><speed>9.40</speed><time>2016-06-01T13:07:10Z</time><pdop>8.0</pdop><geoidheight>50.60</geoidheight><course>80.25062</course><type>1</type></trkpt>
      <trkpt lat="39.20392026968513" lon="-6.1216026637463425"><ele>1589</ele><speed>9.61</speed><time>2016-06-01T13:07:12Z</time><pdop>6.0</pdop><geoidheight>50.60</geoidheight><course>80.05146</course><type>1</type></trkpt>
      <trkpt lat="39.20393778850646" lon="-6.121387143003513"><ele>1588</ele><speed>9.64</speed><time>2016-06-01T13:07:14Z</time><pdop>6.0</pdop><geoidheight>50.60</geoidheight><course>82.08072</course><type>1</type></trkpt>
      <trkpt lat="39.20400269087151" lon="-6.121085518509974"><ele>1586</ele><speed>8.93</speed><time>2016-06-01T13:07:17Z</time><pdop>8.0</pdop><geoidheight>50.60</geoidheight><course>73.215675</course><type>1</type></trkpt>
      <trkpt lat="39.20409335193" lon="-6.1207951420752265"><ele>1587</ele><speed>8.23</speed><time>2016-06-01T13:07:20Z</time><pdop>12.0</pdop><geoidheight>50.60</geoidheight><course>69.291016</course><type>1</type></trkpt>
      <trkpt lat="39.20416756985395" lon="-6.1204054546192985"><ele>1587</ele><speed>7.71</speed><time>2016-06-01T13:07:24Z</time><pdop>12.0</pdop><geoidheight>50.60</geoidheight><course>90.90273</course><type>1</type></trkpt>
      <trkpt lat="39.20404649730077" lon="-6.120178751162365"><ele>1590</ele><speed>8.91</speed><time>2016-06-01T13:07:26Z</time><pdop>8.0</pdop><geoidheight>50.60</geoidheight><course>131.42047</course><type>1</type></trkpt>
      <trkpt lat="39.20389288195864" lon="-6.12006222264844"><ele>1593</ele><speed>10.27</speed><time>2016-06-01T13:07:29Z</time><pdop>8.0</pdop><geoidheight>50.60</geoidheight><course>150.4834</course><type>1</type></trkpt>
      <trkpt lat="39.20370557452149" lon="-6.119954253770648"><ele>1594</ele><speed>10.43</speed><time>2016-06-01T13:07:31Z</time><pdop>8.0</pdop><geoidheight>50.60</geoidheight><course>155.97388</course><type>1</type></trkpt>
      <trkpt lat="39.20352024150189" lon="-6.119860643214228"><ele>1596</ele><speed>10.78</speed><time>2016-06-01T13:07:32Z</time><pdop>8.0</pdop><geoidheight>50.60</geoidheight><course>155.93507</course><type>1</type></trkpt>
      <trkpt lat="39.203350490859705" lon="-6.119749222213269"><ele>1599</ele><speed>10.21</speed><time>2016-06-01T13:07:35Z</time><pdop>8.0</pdop><geoidheight>50.60</geoidheight><course>150.70015</course><type>1</type></trkpt>
      <trkpt lat="39.203187441462774" lon="-6.119654633459315"><ele>1601</ele><speed>10.05</speed><time>2016-06-01T13:07:37Z</time><pdop>8.0</pdop><geoidheight>50.60</geoidheight><course>164.74368</course><type>1</type></trkpt>
      <trkpt lat="39.2030161635485" lon="-6.119655830771068"><ele>1603</ele><speed>11.22</speed><time>2016-06-01T13:07:39Z</time><pdop>8.0</pdop><geoidheight>50.60</geoidheight><course>190.63202</course><type>1</type></trkpt>
      <trkpt lat="39.20285544899729" lon="-6.119788442882826"><ele>1602</ele><speed>11.30</speed><time>2016-06-01T13:07:41Z</time><pdop>8.0</pdop><geoidheight>50.60</geoidheight><course>221.88937</course><type>1</type></trkpt>
      <trkpt lat="39.20276993104607" lon="-6.1199979205658055"><ele>1601</ele><speed>9.67</speed><time>2016-06-01T13:07:43Z</time><pdop>8.0</pdop><geoidheight>50.60</geoidheight><course>252.31857</course><type>1</type></trkpt>
      <trkpt lat="39.202734251652984" lon="-6.1201830776455095"><ele>1601</ele><speed>8.27</speed><time>2016-06-01T13:07:45Z</time><pdop>8.0</pdop><geoidheight>50.60</geoidheight><course>259.6055</course><type>1</type></trkpt>
      <trkpt lat="39.202811928273995" lon="-6.120399319881575"><ele>1601</ele><speed>6.33</speed><time>2016-06-01T13:07:48Z</time><pdop>8.0</pdop><geoidheight>50.60</geoidheight><course>318.01056</course><type>1</type></trkpt>
      <trkpt lat="39.20296472335904" lon="-6.1204445723016905"><ele>1602</ele><speed>5.80</speed><time>2016-06-01T13:07:51Z</time><pdop>8.0</pdop><geoidheight>50.60</geoidheight><course>6.488413</course><type>1</type></trkpt>
      <trkpt lat="39.20319607571092" lon="-6.120371582630934"><ele>1601</ele><speed>7.22</speed><time>2016-06-01T13:07:55Z</time><pdop>16.0</pdop><geoidheight>50.60</geoidheight><course>17.501896</course><type>1</type></trkpt>
      <trkpt lat="39.20341394234943" lon="-6.1201913964130625"><ele>1605</ele><speed>4.81</speed><time>2016-06-01T13:08:00Z</time><pdop>8.0</pdop><geoidheight>50.60</geoidheight><course>36.19058</course><type>1</type></trkpt>
      <trkpt lat="39.2033305187419" lon="-6.119874064961363"><ele>1604</ele><speed>10.47</speed><time>2016-06-01T13:08:04Z</time><pdop>12.0</pdop><geoidheight>50.60</geoidheight><course>142.29044</course><type>1</type></trkpt>
      <trkpt lat="39.20307076888949" lon="-6.119841669730936"><ele>1604</ele><speed>10.94</speed><time>2016-06-01T13:08:07Z</time><pdop>8.0</pdop><geoidheight>50.60</geoidheight><course>185.64929</course><type>1</type></trkpt>
      <trkpt lat="39.20286462127552" lon="-6.119912498790013"><ele>1604</ele><speed>12.80</speed><time>2016-06-01T13:08:08Z</time><pdop>6.0</pdop><geoidheight>50.60</geoidheight><course>201.24577</course><type>1</type></trkpt>
      <trkpt lat="39.20269023977936" lon="-6.120072805223476"><ele>1604</ele><speed>12.65</speed><time>2016-06-01T13:08:10Z</time><pdop>8.0</pdop><geoidheight>50.60</geoidheight><course>226.39893</course><type>1</type></trkpt>
      <trkpt lat="39.202554410106885" lon="-6.1203728341603405"><ele>1606</ele><speed>8.46</speed><time>2016-06-01T13:08:14Z</time><pdop>8.0</pdop><geoidheight>50.60</geoidheight><course>242.74596</course><type>1</type></trkpt>
      <trkpt lat="39.20256514267755" lon="-6.120648519956748"><ele>1605</ele><speed>8.70</speed><time>2016-06-01T13:08:16Z</time><pdop>8.0</pdop><geoidheight>50.60</geoidheight><course>291.008</course><type>1</type></trkpt>
      <trkpt lat="39.202635529866114" lon="-6.120862344516437"><ele>1605</ele><speed>6.35</speed><time>2016-06-01T13:08:20Z</time><pdop>8.0</pdop><geoidheight>50.60</geoidheight><course>299.5886</course><type>1</type></trkpt>
      <trkpt lat="39.20275050301527" lon="-6.121042493056467"><ele>1604</ele><speed>8.54</speed><time>2016-06-01T13:08:23Z</time><pdop>8.0</pdop><geoidheight>50.60</geoidheight><course>320.809</course><type>1</type></trkpt>
      <trkpt lat="39.203004185688776" lon="-6.121158790924016"><ele>1599</ele><speed>7.03</speed><time>2016-06-01T13:08:27Z</time><pdop>8.0</pdop><geoidheight>50.60</geoidheight><course>353.99847</course><type>1</type></trkpt>
      <trkpt lat="39.20320009887608" lon="-6.121181376452223"><ele>1598</ele><speed>6.71</speed><time>2016-06-01T13:08:30Z</time><pdop>12.0</pdop><geoidheight>50.60</geoidheight><course>357.19397</course><type>1</type></trkpt>
      <trkpt lat="39.20341721362179" lon="-6.121161637384152"><ele>1600</ele><speed>6.70</speed><time>2016-06-01T13:08:33Z</time><pdop>12.0</pdop><geoidheight>50.60</geoidheight><course>1.7214737</course><type>1</type></trkpt>
      <trkpt lat="39.20364497424549" lon="-6.121022823229365"><ele>1604</ele><speed>5.92</speed><time>2016-06-01T13:08:37Z</time><pdop>8.0</pdop><geoidheight>50.60</geoidheight><course>62.183453</course><type>1</type></trkpt>
      <trkpt lat="39.203564670798215" lon="-6.120787581318231"><ele>1602</ele><speed>8.34</speed><time>2016-06-01T13:08:41Z</time><pdop>8.0</pdop><geoidheight>50.60</geoidheight><course>123.920456</course><type>1</type></trkpt>
      <trkpt lat="39.203416673220495" lon="-6.120635152545564"><ele>1600</ele><speed>9.54</speed><time>2016-06-01T13:08:43Z</time><pdop>8.0</pdop><geoidheight>50.60</geoidheight><course>140.04295</course><type>1</type></trkpt>
      <trkpt lat="39.203259376144956" lon="-6.1204773124852645"><ele>1598</ele><speed>10.28</speed><time>2016-06-01T13:08:44Z</time><pdop>6.0</pdop><geoidheight>50.60</geoidheight><course>138.78963</course><type>1</type></trkpt>
      <trkpt lat="39.20308895017184" lon="-6.120311913151187"><ele>1597</ele><speed>11.87</speed><time>2016-06-01T13:08:47Z</time><pdop>8.0</pdop><geoidheight>50.60</geoidheight><course>141.48323</course><type>1</type></trkpt>
      <trkpt lat="39.202909571549675" lon="-6.120174108370926"><ele>1597</ele><speed>10.03</speed><time>2016-06-01T13:08:49Z</time><pdop>8.0</pdop><geoidheight>50.60</geoidheight><course>147.65742</course><type>1</type></trkpt>
      <trkpt lat="39.20270445458537" lon="-6.120072687001594"><ele>1599</ele><speed>10.71</speed><time>2016-06-01T13:08:50Z</time><pdop>8.0</pdop><geoidheight>50.60</geoidheight><course>163.6929</course><type>1</type></trkpt>
      <trkpt lat="39.20248016946339" lon="-6.12005818390872"><ele>1600</ele><speed>12.97</speed><time>2016-06-01T13:08:53Z</time><pdop>8.0</pdop><geoidheight>50.60</geoidheight><course>187.3614</course><type>1</type></trkpt>
      <trkpt lat="39.20223588887437" lon="-6.120192295257135"><ele>1600</ele><speed>14.40</speed><time>2016-06-01T13:08:55Z</time><pdop>12.0</pdop><geoidheight>50.60</geoidheight><course>203.8532</course><type>1</type></trkpt>
      <trkpt lat="39.202066038205906" lon="-6.1204307314117985"><ele>1594</ele><speed>12.92</speed><time>2016-06-01T13:08:57Z</time><pdop>8.0</pdop><geoidheight>50.60</geoidheight><course>234.38557</course><type>1</type></trkpt>
      <trkpt lat="39.20194716603867" lon="-6.1206627909659845"><ele>1589</ele><speed>11.14</speed><time>2016-06-01T13:08:58Z</time><pdop>8.0</pdop><geoidheight>50.60</geoidheight><course>232.7541</course><type>1</type></trkpt>
      <trkpt lat="39.20180263225013" lon="-6.120852184996557"><ele>1585</ele><speed>12.96</speed><time>2016-06-01T13:09:00Z</time><pdop>8.0</pdop><geoidheight>50.60</geoidheight><course>220.90332</course><type>1</type></trkpt>
      <trkpt lat="39.20169231003106" lon="-6.121090081890014"><ele>1582</ele><speed>12.83</speed><time>2016-06-01T13:09:03Z</time><pdop>8.0</pdop><geoidheight>50.60</geoidheight><course>245.2664</course><type>1</type></trkpt>
      <trkpt lat="39.20168414873745" lon="-6.121329364156717"><ele>1580</ele><speed>9.50</speed><time>2016-06-01T13:09:05Z</time><pdop>8.0</pdop><geoidheight>50.60</geoidheight><course>274.80084</course><type>1</type></trkpt>
      <trkpt lat="39.2017933327907" lon="-6.121593392652839"><ele>1576</ele><speed>7.94</speed><time>2016-06-01T13:09:07Z</time><pdop>12.0</pdop><geoidheight>50.60</geoidheight><course>310.03027</course><type>1</type></trkpt>
      <trkpt lat="39.202054091068185" lon="-6.121646838740839"><ele>1569</ele><speed>6.01</speed><time>2016-06-01T13:09:11Z</time><pdop>16.0</pdop><geoidheight>50.60</geoidheight><course>3.4374926</course><type>1</type></trkpt>
      <trkpt lat="39.202309035839306" lon="-6.121531610939306"><ele>1563</ele><speed>8.29</speed><time>2016-06-01T13:09:15Z</time><pdop>12.0</pdop><geoidheight>50.60</geoidheight><course>20.01489</course><type>1</type></trkpt>
      <trkpt lat="39.20250488791894" lon="-6.1214340026539436"><ele>1558</ele><speed>7.04</speed><time>2016-06-01T13:09:18Z</time><pdop>8.0</pdop><geoidheight>50.60</geoidheight><course>22.855003</course><type>1</type></trkpt>
      <trkpt lat="39.20269672790982" lon="-6.1213399618575925"><ele>1554</ele><speed>8.32</speed><time>2016-06-01T13:09:21Z</time><pdop>8.0</pdop><geoidheight>50.60</geoidheight><course>20.39909</course><type>1</type></trkpt>
      <trkpt lat="39.20288946295922" lon="-6.121210385043214"><ele>1551</ele><speed>7.48</speed><time>2016-06-01T13:09:24Z</time><pdop>8.0</pdop><geoidheight>50.60</geoidheight><course>36.314407</course><type>1</type></trkpt>
      <trkpt lat="39.20302369066631" lon="-6.121094017636382"><ele>1549</ele><speed>8.67</speed><time>2016-06-01T13:09:26Z</time><pdop>8.0</pdop><geoidheight>50.60</geoidheight><course>34.2231</course><type>1</type></trkpt>
      <trkpt lat="39.20317235974602" lon="-6.1210241074099425"><ele>1548</ele><speed>7.80</speed><time>2016-06-01T13:09:28Z</time><pdop>8.0</pdop><geoidheight>50.60</geoidheight><course>13.60558</course><type>1</type></trkpt>
      <trkpt lat="39.20339236998025" lon="-6.12105515173983"><ele>1554</ele><speed>5.95</speed><time>2016-06-01T13:09:32Z</time><pdop>16.0</pdop><geoidheight>50.60</geoidheight><course>350.69226</course><type>1</type></trkpt>
      <trkpt lat="39.20354998678674" lon="-6.120789807574754"><ele>1564</ele><speed>5.88</speed><time>2016-06-01T13:09:38Z</time><pdop>12.0</pdop><geoidheight>50.60</geoidheight><course>83.13924</course><type>1</type></trkpt>
      <trkpt lat="39.20337855532064" lon="-6.120519883608166"><ele>1571</ele><speed>8.86</speed><time>2016-06-01T13:09:42Z</time><pdop>12.0</pdop><geoidheight>50.60</geoidheight><course>145.2768</course><type>1</type></trkpt>
      <trkpt lat="39.20316214070837" lon="-6.120569108474782"><ele>1573</ele><speed>11.36</speed><time>2016-06-01T13:09:44Z</time><pdop>12.0</pdop><geoidheight>50.60</geoidheight><course>204.24739</course><type>1</type></trkpt>
      <trkpt lat="39.2030268371949" lon="-6.120901738159355"><ele>1575</ele><speed>10.76</speed><time>2016-06-01T13:09:46Z</time><pdop>12.0</pdop><geoidheight>50.60</geoidheight><course>265.22134</course><type>1</type></trkpt>
      <trkpt lat="39.20311999311647" lon="-6.121147055397619"><ele>1577</ele><speed>7.12</speed><time>2016-06-01T13:09:49Z</time><pdop>8.0</pdop><geoidheight>50.60</geoidheight><course>331.54428</course><type>1</type></trkpt>
      <trkpt lat="39.203320689532724" lon="-6.121201653233912"><ele>1578</ele><speed>5.79</speed><time>2016-06-01T13:09:53Z</time><pdop>12.0</pdop><geoidheight>50.60</geoidheight><course>24.483767</course><type>1</type></trkpt>
      <trkpt lat="39.20351401174566" lon="-6.1209659931937646"><ele>1582</ele><speed>8.34</speed><time>2016-06-01T13:09:57Z</time><pdop>12.0</pdop><geoidheight>50.60</geoidheight><course>74.529175</course><type>1</type></trkpt>
      <trkpt lat="39.203544624878205" lon="-6.12061338059135"><ele>1583</ele><speed>7.71</speed><time>2016-06-01T13:10:03Z</time><pdop>8.0</pdop><geoidheight>50.60</geoidheight><course>112.369354</course><type>1</type></trkpt>
      <trkpt lat="39.20340068359121" lon="-6.1204338509660206"><ele>1582</ele><speed>11.87</speed><time>2016-06-01T13:10:04Z</time><pdop>8.0</pdop><geoidheight>50.60</geoidheight><course>146.32516</course><type>1</type></trkpt>
      <trkpt lat="39.20314858426696" lon="-6.12028254447721"><ele>1581</ele><speed>13.13</speed><time>2016-06-01T13:10:07Z</time><pdop>12.0</pdop><geoidheight>50.60</geoidheight><course>166.26666</course><type>1</type></trkpt>
      <trkpt lat="39.20290287363943" lon="-6.120234749563294"><ele>1582</ele><speed>10.11</speed><time>2016-06-01T13:10:08Z</time><pdop>12.0</pdop><geoidheight>50.60</geoidheight><course>183.13513</course><type>1</type></trkpt>
      <trkpt lat="39.20265197072041" lon="-6.120292633415997"><ele>1586</ele><speed>10.39</speed><time>2016-06-01T13:10:11Z</time><pdop>16.0</pdop><geoidheight>50.60</geoidheight><course>201.24397</course><type>1</type></trkpt>
      <trkpt lat="39.20248969963928" lon="-6.120619095193863"><ele>1585</ele><speed>14.50</speed><time>2016-06-01T13:10:14Z</time><pdop>16.0</pdop><geoidheight>50.60</geoidheight><course>253.94202</course><type>1</type></trkpt>
      <trkpt lat="39.202516551819095" lon="-6.121010551956508"><ele>1586</ele><speed>9.60</speed><time>2016-06-01T13:10:17Z</time><pdop>12.0</pdop><geoidheight>50.60</geoidheight><course>285.53168</course><type>1</type></trkpt>
      <trkpt lat="39.20264477307263" lon="-6.1212136297599"><ele>1590</ele><speed>9.41</speed><time>2016-06-01T13:10:20Z</time><pdop>8.0</pdop><geoidheight>50.60</geoidheight><course>324.73282</course><type>1</type></trkpt>
      <trkpt lat="39.20287082328183" lon="-6.121110209878396"><ele>1593</ele><speed>6.70</speed><time>2016-06-01T13:10:25Z</time><pdop>8.0</pdop><geoidheight>50.60</geoidheight><course>73.73337</course><type>1</type></trkpt>
      <trkpt lat="39.202835367563196" lon="-6.120871434446613"><ele>1597</ele><speed>9.52</speed><time>2016-06-01T13:10:28Z</time><pdop>12.0</pdop><geoidheight>50.60</geoidheight><course>130.4508</course><type>1</type></trkpt>
      <trkpt lat="39.20257568322676" lon="-6.120686270335466"><ele>1596</ele><speed>10.62</speed><time>2016-06-01T13:10:31Z</time><pdop>12.0</pdop><geoidheight>50.60</geoidheight><course>165.84767</course><type>1</type></trkpt>
      <trkpt lat="39.20238631773848" lon="-6.1206620103242075"><ele>1596</ele><speed>8.64</speed><time>2016-06-01T13:10:33Z</time><pdop>6.0</pdop><geoidheight>50.60</geoidheight><course>180.77411</course><type>1</type></trkpt>
      <trkpt lat="39.202176421843305" lon="-6.120681976817168"><ele>1596</ele><speed>12.50</speed><time>2016-06-01T13:10:35Z</time><pdop>12.0</pdop><geoidheight>50.60</geoidheight><course>185.40186</course><type>1</type></trkpt>
      <trkpt lat="39.20194088470981" lon="-6.120780450115603"><ele>1598</ele><speed>12.43</speed><time>2016-06-01T13:10:37Z</time><pdop>12.0</pdop><geoidheight>50.60</geoidheight><course>201.89198</course><type>1</type></trkpt>
      <trkpt lat="39.20168622747175" lon="-6.12099556652777"><ele>1601</ele><speed>11.13</speed><time>2016-06-01T13:10:40Z</time><pdop>12.0</pdop><geoidheight>50.60</geoidheight><course>220.45412</course><type>1</type></trkpt>
      <trkpt lat="39.20160643610715" lon="-6.121216132095363"><ele>1604</ele><speed>11.44</speed><time>2016-06-01T13:10:42Z</time><pdop>8.0</pdop><geoidheight>50.60</geoidheight><course>251.09747</course><type>1</type></trkpt>
      <trkpt lat="39.20162570719608" lon="-6.121452384643406"><ele>1604</ele><speed>10.67</speed><time>2016-06-01T13:10:45Z</time><pdop>8.0</pdop><geoidheight>50.60</geoidheight><course>279.10342</course><type>1</type></trkpt>
      <trkpt lat="39.201716667517246" lon="-6.1217415039588685"><ele>1606</ele><speed>7.43</speed><time>2016-06-01T13:10:47Z</time><pdop>8.0</pdop><geoidheight>50.60</geoidheight><course>305.94495</course><type>1</type></trkpt>
      <trkpt lat="39.20187396544592" lon="-6.121881308848293"><ele>1608</ele><speed>8.29</speed><time>2016-06-01T13:10:50Z</time><pdop>8.0</pdop><geoidheight>50.60</geoidheight><course>342.5613</course><type>1</type></trkpt>
      <trkpt lat="39.20215136230902" lon="-6.12189932274704"><ele>1609</ele><speed>5.59</speed><time>2016-06-01T13:10:54Z</time><pdop>16.0</pdop><geoidheight>50.60</geoidheight><course>3.6820364</course><type>1</type></trkpt>
      <trkpt lat="39.20220911530167" lon="-6.121524632630075"><ele>1613</ele><speed>8.84</speed><time>2016-06-01T13:11:00Z</time><pdop>12.0</pdop><geoidheight>50.60</geoidheight><course>116.17206</course><type>1</type></trkpt>
      <trkpt lat="39.202005920402186" lon="-6.121291969442611"><ele>1617</ele><speed>9.82</speed><time>2016-06-01T13:11:04Z</time><pdop>8.0</pdop><geoidheight>50.60</geoidheight><course>154.05399</course><type>1</type></trkpt>
      <trkpt lat="39.20181905968816" lon="-6.121279867496773"><ele>1619</ele><speed>10.94</speed><time>2016-06-01T13:11:05Z</time><pdop>8.0</pdop><geoidheight>50.60</geoidheight><course>190.57326</course><type>1</type></trkpt>
      <trkpt lat="39.2016071107462" lon="-6.121500632027264"><ele>1622</ele><speed>11.48</speed><time>2016-06-01T13:11:08Z</time><pdop>12.0</pdop><geoidheight>50.60</geoidheight><course>226.1659</course><type>1</type></trkpt>
      <trkpt lat="39.20155483057308" lon="-6.121816509396693"><ele>1625</ele><speed>9.96</speed><time>2016-06-01T13:11:11Z</time><pdop>12.0</pdop><geoidheight>50.60</geoidheight><course>272.6042</course><type>1</type></trkpt>
      <trkpt lat="39.20169439735796" lon="-6.122157122505249"><ele>1626</ele><speed>9.56</speed><time>2016-06-01T13:11:14Z</time><pdop>12.0</pdop><geoidheight>50.60</geoidheight><course>308.91153</course><type>1</type></trkpt>
      <trkpt lat="39.20188311231718" lon="-6.122310029997254"><ele>1627</ele><speed>6.69</speed><time>2016-06-01T13:11:17Z</time><pdop>12.0</pdop><geoidheight>50.60</geoidheight><course>350.66882</course><type>1</type></trkpt>
      <trkpt lat="39.20217935079203" lon="-6.122262671006122"><ele>1630</ele><speed>5.81</speed><time>2016-06-01T13:11:22Z</time><pdop>16.0</pdop><geoidheight>50.60</geoidheight><course>51.850304</course><type>1</type></trkpt>
      <trkpt lat="39.2020810878058" lon="-6.121792962621041"><ele>1627</ele><speed>11.88</speed><time>2016-06-01T13:11:27Z</time><pdop>12.0</pdop><geoidheight>50.60</geoidheight><course>130.45139</course><type>1</type></trkpt>
      <trkpt lat="39.20185251077857" lon="-6.121606006814964"><ele>1624</ele><speed>9.77</speed><time>2016-06-01T13:11:30Z</time><pdop>12.0</pdop><geoidheight>50.60</geoidheight><course>160.2731</course><type>1</type></trkpt>
      <trkpt lat="39.201630026279304" lon="-6.121510015392855"><ele>1622</ele><speed>10.60</speed><time>2016-06-01T13:11:31Z</time><pdop>8.0</pdop><geoidheight>50.60</geoidheight><course>165.70233</course><type>1</type></trkpt>
      <trkpt lat="39.201376383724934" lon="-6.121442021090036"><ele>1619</ele><speed>12.99</speed><time>2016-06-01T13:11:33Z</time><pdop>8.0</pdop><geoidheight>50.60</geoidheight><course>170.47618</course><type>1</type></trkpt>
      <trkpt lat="39.20116451696143" lon="-6.12148179883309"><ele>1617</ele><speed>11.99</speed><time>2016-06-01T13:11:35Z</time><pdop>8.0</pdop><geoidheight>50.60</geoidheight><course>190.26524</course><type>1</type></trkpt>
      <trkpt lat="39.20094264902152" lon="-6.121613216653435"><ele>1614</ele><speed>13.20</speed><time>2016-06-01T13:11:37Z</time><pdop>8.0</pdop><geoidheight>50.60</geoidheight><course>206.5198</course><type>1</type></trkpt>
      <trkpt lat="39.20076500493913" lon="-6.121816899311529"><ele>1610</ele><speed>13.61</speed><time>2016-06-01T13:11:39Z</time><pdop>8.0</pdop><geoidheight>50.60</geoidheight><course>226.83284</course><type>1</type></trkpt>
      <trkpt lat="39.20061883494102" lon="-6.122045681562457"><ele>1608</ele><speed>11.12</speed><time>2016-06-01T13:11:41Z</time><pdop>8.0</pdop><geoidheight>50.60</geoidheight><course>228.2544</course><type>1</type></trkpt>
      <trkpt lat="39.20049372744546" lon="-6.122222124671835"><ele>1608</ele><speed>8.93</speed><time>2016-06-01T13:11:43Z</time><pdop>8.0</pdop><geoidheight>50.60</geoidheight><course>225.05588</course><type>1</type></trkpt>
      <trkpt lat="39.20036699022547" lon="-6.122423507340456"><ele>1606</ele><speed>12.55</speed><time>2016-06-01T13:11:45Z</time><pdop>8.0</pdop><geoidheight>50.60</geoidheight><course>230.28271</course><type>1</type></trkpt>
      <trkpt lat="39.20027792987493" lon="-6.122623329800833"><ele>1604</ele><speed>10.63</speed><time>2016-06-01T13:11:48Z</time><pdop>8.0</pdop><geoidheight>50.60</geoidheight><course>237.06494</course><type>1</type></trkpt>
      <trkpt lat="39.2001813348428" lon="-6.122873195549453"><ele>1602</ele><speed>11.19</speed><time>2016-06-01T13:11:49Z</time><pdop>12.0</pdop><geoidheight>50.60</geoidheight><course>243.00638</course><type>1</type></trkpt>
      <trkpt lat="39.20010209694229" lon="-6.123141825013266"><ele>1600</ele><speed>13.27</speed><time>2016-06-01T13:11:51Z</time><pdop>8.0</pdop><geoidheight>50.60</geoidheight><course>248.2922</course><type>1</type></trkpt>
      <trkpt lat="39.20004420167494" lon="-6.1234042814014344"><ele>1599</ele><speed>11.54</speed><time>2016-06-01T13:11:54Z</time><pdop>8.0</pdop><geoidheight>50.60</geoidheight><course>253.06718</course><type>1</type></trkpt>
      <trkpt lat="39.200012227208106" lon="-6.123682420759515"><ele>1598</ele><speed>10.98</speed><time>2016-06-01T13:11:55Z</time><pdop>8.0</pdop><geoidheight>50.60</geoidheight><course>259.42044</course><type>1</type></trkpt>
      <trkpt lat="39.20000364182857" lon="-6.12394464443415"><ele>1596</ele><speed>11.52</speed><time>2016-06-01T13:11:57Z</time><pdop>6.0</pdop><geoidheight>50.60</geoidheight><course>264.26212</course><type>1</type></trkpt>
      <trkpt lat="39.20000294015373" lon="-6.124193111612754"><ele>1593</ele><speed>12.35</speed><time>2016-06-01T13:11:59Z</time><pdop>8.0</pdop><geoidheight>50.60</geoidheight><course>264.69983</course><type>1</type></trkpt>
      <trkpt lat="39.20001113376369" lon="-6.124544414698588"><ele>1589</ele><speed>9.56</speed><time>2016-06-01T13:12:02Z</time><pdop>12.0</pdop><geoidheight>50.60</geoidheight><course>267.0416</course><type>1</type></trkpt>
      <trkpt lat="39.200009841589484" lon="-6.124949051212713"><ele>1589</ele><speed>11.26</speed><time>2016-06-01T13:12:05Z</time><pdop>12.0</pdop><geoidheight>50.60</geoidheight><course>269.1707</course><type>1</type></trkpt>
      <trkpt lat="39.200013708348074" lon="-6.1252143441411535"><ele>1589</ele><speed>11.58</speed><time>2016-06-01T13:12:07Z</time><pdop>8.0</pdop><geoidheight>50.60</geoidheight><course>270.56577</course><type>1</type></trkpt>
      <trkpt lat="39.20002425281578" lon="-6.12549739520197"><ele>1588</ele><speed>12.09</speed><time>2016-06-01T13:12:09Z</time><pdop>8.0</pdop><geoidheight>50.60</geoidheight><course>271.452</course><type>1</type></trkpt>
      <trkpt lat="39.20001658387608" lon="-6.125767514072965"><ele>1586</ele><speed>11.11</speed><time>2016-06-01T13:12:11Z</time><pdop>8.0</pdop><geoidheight>50.60</geoidheight><course>268.6302</course><type>1</type></trkpt>
      <trkpt lat="39.20001197096214" lon="-6.125998805020773"><ele>1585</ele><speed>9.45</speed><time>2016-06-01T13:12:13Z</time><pdop>8.0</pdop><geoidheight>50.60</geoidheight><course>268.99045</course><type>1</type></trkpt>
      <trkpt lat="39.200015973357935" lon="-6.126226835119791"><ele>1584</ele><speed>9.97</speed><time>2016-06-01T13:12:15Z</time><pdop>8.0</pdop><geoidheight>50.60</geoidheight><course>271.56363</course><type>1</type></trkpt>
      <trkpt lat="39.20001436928669" lon="-6.126465965238147"><ele>1581</ele><speed>10.68</speed><time>2016-06-01T13:12:17Z</time><pdop>8.0</pdop><geoidheight>50.60</geoidheight><course>269.94562</course><type>1</type></trkpt>
      <trkpt lat="39.20000365797547" lon="-6.126675212908398"><ele>1578</ele><speed>9.13</speed><time>2016-06-01T13:12:19Z</time><pdop>6.0</pdop><geoidheight>50.60</geoidheight><course>267.72165</course><type>1</type></trkpt>
      <trkpt lat="39.1999818348923" lon="-6.126873332196235"><ele>1574</ele><speed>10.34</speed><time>2016-06-01T13:12:21Z</time><pdop>8.0</pdop><geoidheight>50.60</geoidheight><course>262.92587</course><type>1</type></trkpt>
      <trkpt lat="39.19993422443144" lon="-6.12722823202669"><ele>1567</ele><speed>11.08</speed><time>2016-06-01T13:12:24Z</time><pdop>8.0</pdop><geoidheight>50.60</geoidheight><course>262.47098</course><type>1</type></trkpt>
      <trkpt lat="39.19990059596577" lon="-6.127465036265946"><ele>1563</ele><speed>10.37</speed><time>2016-06-01T13:12:26Z</time><pdop>8.0</pdop><geoidheight>50.60</geoidheight><course>263.02582</course><type>1</type></trkpt>
      <trkpt lat="39.199859942712244" lon="-6.127801681428062"><ele>1557</ele><speed>10.15</speed><time>2016-06-01T13:12:30Z</time><pdop>12.0</pdop><geoidheight>50.60</geoidheight><course>260.97235</course><type>1</type></trkpt>
      <trkpt lat="39.19980669435142" lon="-6.128095853555005"><ele>1551</ele><speed>9.24</speed><time>2016-06-01T13:12:32Z</time><pdop>8.0</pdop><geoidheight>50.60</geoidheight><course>259.1328</course><type>1</type></trkpt>
      <trkpt lat="39.199749880009634" lon="-6.128391827128948"><ele>1547</ele><speed>8.90</speed><time>2016-06-01T13:12:35Z</time><pdop>12.0</pdop><geoidheight>50.60</geoidheight><course>256.97537</course><type>1</type></trkpt>
      <trkpt lat="39.199695917424975" lon="-6.128611802318568"><ele>1547</ele><speed>8.38</speed><time>2016-06-01T13:12:37Z</time><pdop>6.0</pdop><geoidheight>50.60</geoidheight><course>251.73053</course><type>1</type></trkpt>
      <trkpt lat="39.19963116324176" lon="-6.128804889445384"><ele>1548</ele><speed>10.61</speed><time>2016-06-01T13:12:39Z</time><pdop>12.0</pdop><geoidheight>50.60</geoidheight><course>246.92145</course><type>1</type></trkpt>
      <trkpt lat="39.19949153810671" lon="-6.129168881633958"><ele>1551</ele><speed>10.25</speed><time>2016-06-01T13:12:42Z</time><pdop>8.0</pdop><geoidheight>50.60</geoidheight><course>240.98369</course><type>1</type></trkpt>
      <trkpt lat="39.19936729650093" lon="-6.129352489806856"><ele>1554</ele><speed>8.60</speed><time>2016-06-01T13:12:44Z</time><pdop>8.0</pdop><geoidheight>50.60</geoidheight><course>226.14726</course><type>1</type></trkpt>
      <trkpt lat="39.199209473945395" lon="-6.129606849841286"><ele>1559</ele><speed>12.08</speed><time>2016-06-01T13:12:48Z</time><pdop>16.0</pdop><geoidheight>50.60</geoidheight><course>232.774</course><type>1</type></trkpt>
      <trkpt lat="39.19905390178825" lon="-6.129937304633009"><ele>1564</ele><speed>8.07</speed><time>2016-06-01T13:12:50Z</time><pdop>12.0</pdop><geoidheight>50.60</geoidheight><course>241.15948</course><type>1</type></trkpt>
      <trkpt lat="39.199024053797515" lon="-6.130240675694282"><ele>1570</ele><speed>10.68</speed><time>2016-06-01T13:12:54Z</time><pdop>12.0</pdop><geoidheight>50.60</geoidheight><course>274.65448</course><type>1</type></trkpt>
      <trkpt lat="39.1990924701224" lon="-6.1305310565254825"><ele>1572</ele><speed>6.58</speed><time>2016-06-01T13:12:56Z</time><pdop>12.0</pdop><geoidheight>50.60</geoidheight><course>311.4811</course><type>1</type></trkpt>
      <trkpt lat="39.19928344616146" lon="-6.130443365979709"><ele>1571</ele><speed>9.51</speed><time>2016-06-01T13:13:00Z</time><pdop>8.0</pdop><geoidheight>50.60</geoidheight><course>66.30061</course><type>1</type></trkpt>
      <trkpt lat="39.199239422996214" lon="-6.1302006771368"><ele>1569</ele><speed>10.77</speed><time>2016-06-01T13:13:03Z</time><pdop>8.0</pdop><geoidheight>50.60</geoidheight><course>119.05713</course><type>1</type></trkpt>
      <trkpt lat="39.19908284525893" lon="-6.130026211553775"><ele>1568</ele><speed>11.03</speed><time>2016-06-01T13:13:04Z</time><pdop>8.0</pdop><geoidheight>50.60</geoidheight><course>150.80121</course><type>1</type></trkpt>
      <trkpt lat="39.19890014028198" lon="-6.129947029144077"><ele>1566</ele><speed>10.58</speed><time>2016-06-01T13:13:07Z</time><pdop>8.0</pdop><geoidheight>50.60</geoidheight><course>173.95032</course><type>1</type></trkpt>
      <trkpt lat="39.19870406639084" lon="-6.1299565194555425"><ele>1564</ele><speed>10.69</speed><time>2016-06-01T13:13:08Z</time><pdop>8.0</pdop><geoidheight>50.60</geoidheight><course>190.35483</course><type>1</type></trkpt>
      <trkpt lat="39.1984483090138" lon="-6.130067032814818"><ele>1563</ele><speed>9.38</speed><time>2016-06-01T13:13:11Z</time><pdop>8.0</pdop><geoidheight>50.60</geoidheight><course>209.31863</course><type>1</type></trkpt>
      <trkpt lat="39.19830533476419" lon="-6.130171194193373"><ele>1564</ele><speed>8.73</speed><time>2016-06-01T13:13:14Z</time><pdop>8.0</pdop><geoidheight>50.60</geoidheight><course>212.62761</course><type>1</type></trkpt>
      <trkpt lat="39.198194111144446" lon="-6.130331822863381"><ele>1564</ele><speed>11.70</speed><time>2016-06-01T13:13:15Z</time><pdop>8.0</pdop><geoidheight>50.60</geoidheight><course>230.48473</course><type>1</type></trkpt>
      <trkpt lat="39.1980562467851" lon="-6.130546820814171"><ele>1564</ele><speed>11.06</speed><time>2016-06-01T13:13:17Z</time><pdop>12.0</pdop><geoidheight>50.60</geoidheight><course>228.6902</course><type>1</type></trkpt>
      <trkpt lat="39.197878869038455" lon="-6.130796389620438"><ele>1561</ele><speed>10.78</speed><time>2016-06-01T13:13:20Z</time><pdop>8.0</pdop><geoidheight>50.60</geoidheight><course>227.0627</course><type>1</type></trkpt>
      <trkpt lat="39.19775093825305" lon="-6.1310018899548195"><ele>1557</ele><speed>12.97</speed><time>2016-06-01T13:13:22Z</time><pdop>8.0</pdop><geoidheight>50.60</geoidheight><course>231.09082</course><type>1</type></trkpt>
      <trkpt lat="39.19761562200624" lon="-6.1312177689733165"><ele>1555</ele><speed>12.32</speed><time>2016-06-01T13:13:24Z</time><pdop>8.0</pdop><geoidheight>50.60</geoidheight><course>229.9326</course><type>1</type></trkpt>
      <trkpt lat="39.19749666983784" lon="-6.1314140901572065"><ele>1552</ele><speed>10.43</speed><time>2016-06-01T13:13:26Z</time><pdop>8.0</pdop><geoidheight>50.60</geoidheight><course>231.80916</course><type>1</type></trkpt>
      <trkpt lat="39.197390659991626" lon="-6.131617418717231"><ele>1550</ele><speed>10.05</speed><time>2016-06-01T13:13:28Z</time><pdop>6.0</pdop><geoidheight>50.60</geoidheight><course>234.95258</course><type>1</type></trkpt>
      <trkpt lat="39.197284293620655" lon="-6.131812493568917"><ele>1551</ele><speed>9.01</speed><time>2016-06-01T13:13:30Z</time><pdop>6.0</pdop><geoidheight>50.60</geoidheight><course>233.04648</course><type>1</type></trkpt>
      <trkpt lat="39.197179661655895" lon="-6.131991049215159"><ele>1553</ele><speed>9.07</speed><time>2016-06-01T13:13:32Z</time><pdop>12.0</pdop><geoidheight>50.60</geoidheight><course>231.7479</course><type>1</type></trkpt>
      <trkpt lat="39.197087955281425" lon="-6.132299073749546"><ele>1557</ele><speed>10.29</speed><time>2016-06-01T13:13:35Z</time><pdop>12.0</pdop><geoidheight>50.60</geoidheight><course>264.08252</course><type>1</type></trkpt>
      <trkpt lat="39.19720112039311" lon="-6.132654943940965"><ele>1563</ele><speed>6.72</speed><time>2016-06-01T13:13:39Z</time><pdop>8.0</pdop><geoidheight>50.60</geoidheight><course>306.96304</course><type>1</type></trkpt>
      <trkpt lat="39.1973795007964" lon="-6.132836676983003"><ele>1567</ele><speed>4.55</speed><time>2016-06-01T13:13:43Z</time><pdop>12.0</pdop><geoidheight>50.60</geoidheight><course>16.20856</course><type>1</type></trkpt>
      <trkpt lat="39.19748922017253" lon="-6.13255109151643"><ele>1564</ele><speed>5.89</speed><time>2016-06-01T13:13:47Z</time><pdop>12.0</pdop><geoidheight>50.60</geoidheight><course>97.8133</course><type>1</type></trkpt>
      <trkpt lat="39.19739761755814" lon="-6.132275113680231"><ele>1568</ele><speed>9.46</speed><time>2016-06-01T13:13:53Z</time><pdop>12.0</pdop><geoidheight>50.60</geoidheight><course>116.94003</course><type>1</type></trkpt>
      <trkpt lat="39.19718716224752" lon="-6.131942202071358"><ele>1575</ele><speed>11.48</speed><time>2016-06-01T13:13:55Z</time><pdop>12.0</pdop><geoidheight>50.60</geoidheight><course>140.93712</course><type>1</type></trkpt>
      <trkpt lat="39.19696979585684" lon="-6.131856220874993"><ele>1578</ele><speed>12.60</speed><time>2016-06-01T13:13:57Z</time><pdop>12.0</pdop><geoidheight>50.60</geoidheight><course>186.8777</course><type>1</type></trkpt>
      <trkpt lat="39.196751998966164" lon="-6.13194974431634"><ele>1580</ele><speed>10.81</speed><time>2016-06-01T13:13:59Z</time><pdop>12.0</pdop><geoidheight>50.60</geoidheight><course>213.53008</course><type>1</type></trkpt>
      <trkpt lat="39.1965026205606" lon="-6.132156150449999"><ele>1582</ele><speed>10.10</speed><time>2016-06-01T13:14:02Z</time><pdop>12.0</pdop><geoidheight>50.60</geoidheight><course>212.80798</course><type>1</type></trkpt>
      <trkpt lat="39.1963075746595" lon="-6.132376449663206"><ele>1585</ele><speed>10.93</speed><time>2016-06-01T13:14:05Z</time><pdop>12.0</pdop><geoidheight>50.60</geoidheight><course>236.36853</course><type>1</type></trkpt>
      <trkpt lat="39.196343596837345" lon="-6.132719832007482"><ele>1588</ele><speed>9.08</speed><time>2016-06-01T13:14:08Z</time><pdop>12.0</pdop><geoidheight>50.60</geoidheight><course>308.53885</course><type>1</type></trkpt>
      <trkpt lat="39.19658395257264" lon="-6.132741604857105"><ele>1590</ele><speed>6.99</speed><time>2016-06-01T13:14:12Z</time><pdop>12.0</pdop><geoidheight>50.60</geoidheight><course>31.875841</course><type>1</type></trkpt>
      <trkpt lat="39.19655914715116" lon="-6.132451137286426"><ele>1594</ele><speed>8.47</speed><time>2016-06-01T13:14:16Z</time><pdop>12.0</pdop><geoidheight>50.60</geoidheight><course>130.82703</course><type>1</type></trkpt>
      <trkpt lat="39.19636057652297" lon="-6.132248036624936"><ele>1602</ele><speed>10.16</speed><time>2016-06-01T13:14:19Z</time><pdop>6.0</pdop><geoidheight>50.60</geoidheight><course>151.61856</course><type>1</type></trkpt>
      <trkpt lat="39.196173707938215" lon="-6.132168406286427"><ele>1607</ele><speed>10.86</speed><time>2016-06-01T13:14:21Z</time><pdop>6.0</pdop><geoidheight>50.60</geoidheight><course>172.05806</course><type>1</type></trkpt>
      <trkpt lat="39.195965208379754" lon="-6.13223646387523"><ele>1610</ele><speed>13.11</speed><time>2016-06-01T13:14:23Z</time><pdop>8.0</pdop><geoidheight>50.60</geoidheight><course>200.51831</course><type>1</type></trkpt>
      <trkpt lat="39.19580064160172" lon="-6.132426390856977"><ele>1613</ele><speed>12.35</speed><time>2016-06-01T13:14:25Z</time><pdop>12.0</pdop><geoidheight>50.60</geoidheight><course>229.06387</course><type>1</type></trkpt>
      <trkpt lat="39.19567432809572" lon="-6.132660817696418"><ele>1616</ele><speed>7.40</speed><time>2016-06-01T13:14:28Z</time><pdop>12.0</pdop><geoidheight>50.60</geoidheight><course>236.83699</course><type>1</type></trkpt>
      <trkpt lat="39.19575233462039" lon="-6.132989481350496"><ele>1619</ele><speed>10.60</speed><time>2016-06-01T13:14:33Z</time><pdop>16.0</pdop><geoidheight>50.60</geoidheight><course>294.24054</course><type>1</type></trkpt>
      <trkpt lat="39.19594749385281" lon="-6.133204043145156"><ele>1618</ele><speed>7.23</speed><time>2016-06-01T13:14:35Z</time><pdop>12.0</pdop><geoidheight>50.60</geoidheight><course>345.6801</course><type>1</type></trkpt>
      <trkpt lat="39.19610474858366" lon="-6.13286292270211"><ele>1618</ele><speed>11.50</speed><time>2016-06-01T13:14:40Z</time><pdop>12.0</pdop><geoidheight>50.60</geoidheight><course>103.71896</course><type>1</type></trkpt>
      <trkpt lat="39.19593076143078" lon="-6.132697095880266"><ele>1617</ele><speed>12.56</speed><time>2016-06-01T13:14:42Z</time><pdop>12.0</pdop><geoidheight>50.60</geoidheight><course>166.14996</course><type>1</type></trkpt>
      <trkpt lat="39.19566916434946" lon="-6.13264294217295"><ele>1618</ele><speed>13.41</speed><time>2016-06-01T13:14:44Z</time><pdop>12.0</pdop><geoidheight>50.60</geoidheight><course>172.07071</course><type>1</type></trkpt>
      <trkpt lat="39.19545182257697" lon="-6.1326287129019255"><ele>1622</ele><speed>9.94</speed><time>2016-06-01T13:14:46Z</time><pdop>12.0</pdop><geoidheight>50.60</geoidheight><course>176.34784</course><type>1</type></trkpt>
      <trkpt lat="39.19515985849725" lon="-6.132770503199097"><ele>1628</ele><speed>12.30</speed><time>2016-06-01T13:14:50Z</time><pdop>16.0</pdop><geoidheight>50.60</geoidheight><course>201.35904</course><type>1</type></trkpt>
      <trkpt lat="39.19486105482965" lon="-6.132922616707974"><ele>1633</ele><speed>11.32</speed><time>2016-06-01T13:14:52Z</time><pdop>8.0</pdop><geoidheight>50.60</geoidheight><course>200.8689</course><type>1</type></trkpt>
      <trkpt lat="39.19471399025246" lon="-6.133046815573139"><ele>1639</ele><speed>9.70</speed><time>2016-06-01T13:14:54Z</time><pdop>8.0</pdop><geoidheight>50.60</geoidheight><course>220.60703</course><type>1</type></trkpt>
      <trkpt lat="39.1945510579908" lon="-6.133331909092273"><ele>1647</ele><speed>11.46</speed><time>2016-06-01T13:14:57Z</time><pdop>12.0</pdop><geoidheight>50.60</geoidheight><course>237.89948</course><type>1</type></trkpt>
      <trkpt lat="39.194403635651625" lon="-6.133693795306478"><ele>1646</ele><speed>13.48</speed><time>2016-06-01T13:15:00Z</time><pdop>12.0</pdop><geoidheight>50.60</geoidheight><course>241.87091</course><type>1</type></trkpt>
      <trkpt lat="39.19428656043758" lon="-6.1339781752160905"><ele>1645</ele><speed>11.82</speed><time>2016-06-01T13:15:02Z</time><pdop>12.0</pdop><geoidheight>50.60</geoidheight><course>242.74257</course><type>1</type></trkpt>
      <trkpt lat="39.19419744521204" lon="-6.13422685985963"><ele>1646</ele><speed>12.33</speed><time>2016-06-01T13:15:04Z</time><pdop>8.0</pdop><geoidheight>50.60</geoidheight><course>245.7365</course><type>1</type></trkpt>
      <trkpt lat="39.19411637114599" lon="-6.134480521352573"><ele>1648</ele><speed>12.23</speed><time>2016-06-01T13:15:06Z</time><pdop>8.0</pdop><geoidheight>50.60</geoidheight><course>245.80376</course><type>1</type></trkpt>
      <trkpt lat="39.19402738836067" lon="-6.134750029685804"><ele>1649</ele><speed>10.85</speed><time>2016-06-01T13:15:08Z</time><pdop>12.0</pdop><geoidheight>50.60</geoidheight><course>244.76085</course><type>1</type></trkpt>
      <trkpt lat="39.193886021426394" lon="-6.1350919822640915"><ele>1650</ele><speed>10.78</speed><time>2016-06-01T13:15:11Z</time><pdop>6.0</pdop><geoidheight>50.60</geoidheight><course>241.3888</course><type>1</type></trkpt>
      <trkpt lat="39.19382565473341" lon="-6.135208677474189"><ele>1651</ele><speed>10.67</speed><time>2016-06-01T13:15:12Z</time><pdop>6.0</pdop><geoidheight>50.60</geoidheight><course>239.36453</course><type>1</type></trkpt>
      <trkpt lat="39.19370553236464" lon="-6.135427656073825"><ele>1653</ele><speed>11.32</speed><time>2016-06-01T13:15:14Z</time><pdop>8.0</pdop><geoidheight>50.60</geoidheight><course>238.32367</course><type>1</type></trkpt>
      <trkpt lat="39.19368904830178" lon="-6.13574691568209"><ele>1656</ele><speed>8.97</speed><time>2016-06-01T13:15:18Z</time><pdop>8.0</pdop><geoidheight>50.60</geoidheight><course>291.96344</course><type>1</type></trkpt>
      <trkpt lat="39.19382093797498" lon="-6.1359529793344425"><ele>1661</ele><speed>7.20</speed><time>2016-06-01T13:15:20Z</time><pdop>8.0</pdop><geoidheight>50.60</geoidheight><course>298.02438</course><type>1</type></trkpt>
      <trkpt lat="39.19397966029235" lon="-6.135829273865474"><ele>1663</ele><speed>7.54</speed><time>2016-06-01T13:15:23Z</time><pdop>12.0</pdop><geoidheight>50.60</geoidheight><course>99.130196</course><type>1</type></trkpt>
      <trkpt lat="39.19374267387039" lon="-6.135561458970827"><ele>1664</ele><speed>9.98</speed><time>2016-06-01T13:15:26Z</time><pdop>12.0</pdop><geoidheight>50.60</geoidheight><course>148.42531</course><type>1</type></trkpt>
      <trkpt lat="39.19354849576593" lon="-6.135469267785782"><ele>1664</ele><speed>10.18</speed><time>2016-06-01T13:15:28Z</time><pdop>8.0</pdop><geoidheight>50.60</geoidheight><course>166.09</course><type>1</type></trkpt>
      <trkpt lat="39.19335107406633" lon="-6.1354129453330835"><ele>1666</ele><speed>11.57</speed><time>2016-06-01T13:15:30Z</time><pdop>12.0</pdop><geoidheight>50.60</geoidheight><course>169.99843</course><type>1</type></trkpt>
      <trkpt lat="39.19311801766231" lon="-6.135457324925274"><ele>1666</ele><speed>14.42</speed><time>2016-06-01T13:15:32Z</time><pdop>12.0</pdop><geoidheight>50.60</geoidheight><course>190.44212</course><type>1</type></trkpt>
      <trkpt lat="39.192863379406056" lon="-6.135741728314751"><ele>1671</ele><speed>7.81</speed><time>2016-06-01T13:15:35Z</time><pdop>12.0</pdop><geoidheight>50.60</geoidheight><course>229.9608</course><type>1</type></trkpt>
      <trkpt lat="39.19271024731627" lon="-6.13603206125996"><ele>1684</ele><speed>11.67</speed><time>2016-06-01T13:15:39Z</time><pdop>12.0</pdop><geoidheight>50.60</geoidheight><course>233.83453</course><type>1</type></trkpt>
      <trkpt lat="39.19259362378183" lon="-6.136268868894063"><ele>1691</ele><speed>7.42</speed><time>2016-06-01T13:15:42Z</time><pdop>12.0</pdop><geoidheight>50.60</geoidheight><course>236.13506</course><type>1</type></trkpt>
      <trkpt lat="39.19262553169161" lon="-6.136608398469023"><ele>1696</ele><speed>9.28</speed><time>2016-06-01T13:15:47Z</time><pdop>12.0</pdop><geoidheight>50.60</geoidheight><course>295.61475</course><type>1</type></trkpt>
      <trkpt lat="39.192835045719406" lon="-6.136681219663474"><ele>1703</ele><speed>7.50</speed><time>2016-06-01T13:15:49Z</time><pdop>12.0</pdop><geoidheight>50.60</geoidheight><course>20.44932</course><type>1</type></trkpt>
      <trkpt lat="39.19295371725994" lon="-6.136460529513574"><ele>1702</ele><speed>7.22</speed><time>2016-06-01T13:15:53Z</time><pdop>8.0</pdop><geoidheight>50.60</geoidheight><course>77.54548</course><type>1</type></trkpt>
      <trkpt lat="39.19281941763861" lon="-6.136299303263791"><ele>1701</ele><speed>12.43</speed><time>2016-06-01T13:15:54Z</time><pdop>8.0</pdop><geoidheight>50.60</geoidheight><course>153.63847</course><type>1</type></trkpt>
      <trkpt lat="39.19248894690073" lon="-6.136287850079328"><ele>1702</ele><speed>11.81</speed><time>2016-06-01T13:15:58Z</time><pdop>16.0</pdop><geoidheight>50.60</geoidheight><course>200.83884</course><type>1</type></trkpt>
      <trkpt lat="39.192236661762756" lon="-6.13649943603022"><ele>1708</ele><speed>8.74</speed><time>2016-06-01T13:16:01Z</time><pdop>12.0</pdop><geoidheight>50.60</geoidheight><course>248.2277</course><type>1</type></trkpt>
      <trkpt lat="39.192375542032785" lon="-6.136767522475202"><ele>1717</ele><speed>8.46</speed><time>2016-06-01T13:16:06Z</time><pdop>8.0</pdop><geoidheight>50.60</geoidheight><course>334.54626</course><type>1</type></trkpt>
      <trkpt lat="39.19240061951538" lon="-6.136526120108833"><ele>1725</ele><speed>9.04</speed><time>2016-06-01T13:16:10Z</time><pdop>8.0</pdop><geoidheight>50.60</geoidheight><course>108.21531</course><type>1</type></trkpt>
      <trkpt lat="39.192094859253025" lon="-6.136282173204653"><ele>1736</ele><speed>10.88</speed><time>2016-06-01T13:16:15Z</time><pdop>24.0</pdop><geoidheight>50.60</geoidheight><course>149.14215</course><type>1</type></trkpt>
      <trkpt lat="39.19182187253297" lon="-6.1367252215972"><ele>1760</ele><speed>10.51</speed><time>2016-06-01T13:16:17Z</time><pdop>12.0</pdop><geoidheight>50.60</geoidheight><course>223.89629</course><type>1</type></trkpt>
      <trkpt lat="39.19175805909812" lon="-6.137102997523405"><ele>1788</ele><speed>8.47</speed><time>2016-06-01T13:16:20Z</time><pdop>8.0</pdop><geoidheight>50.60</geoidheight><course>267.5932</course><type>1</type></trkpt>
      <trkpt lat="39.19182345309571" lon="-6.137302026296588"><ele>1802</ele><speed>8.46</speed><time>2016-06-01T13:16:23Z</time><pdop>8.0</pdop><geoidheight>50.60</geoidheight><course>318.78348</course><type>1</type></trkpt>
      <trkpt lat="39.192009911738225" lon="-6.137243572261649"><ele>1817</ele><speed>7.77</speed><time>2016-06-01T13:16:25Z</time><pdop>12.0</pdop><geoidheight>50.60</geoidheight><course>56.798737</course><type>1</type></trkpt>
      <trkpt lat="39.1919719453393" lon="-6.136881499979024"><ele>1831</ele><speed>9.53</speed><time>2016-06-01T13:16:29Z</time><pdop>8.0</pdop><geoidheight>50.60</geoidheight><course>123.96212</course><type>1</type></trkpt>
      <trkpt lat="39.19182227176124" lon="-6.136752108211025"><ele>1837</ele><speed>10.94</speed><time>2016-06-01T13:16:31Z</time><pdop>8.0</pdop><geoidheight>50.60</geoidheight><course>137.15904</course><type>1</type></trkpt>
      <trkpt lat="39.191598801819495" lon="-6.136807178085667"><ele>1842</ele><speed>14.13</speed><time>2016-06-01T13:16:33Z</time><pdop>12.0</pdop><geoidheight>50.60</geoidheight><course>208.40425</course><type>1</type></trkpt>
      <trkpt lat="39.191395576682964" lon="-6.136967630258173"><ele>1848</ele><speed>10.89</speed><time>2016-06-01T13:16:35Z</time><pdop>8.0</pdop><geoidheight>50.60</geoidheight><course>213.84885</course><type>1</type></trkpt>
      <trkpt lat="39.19125736264467" lon="-6.137139205752641"><ele>1854</ele><speed>7.74</speed><time>2016-06-01T13:16:37Z</time><pdop>8.0</pdop><geoidheight>50.60</geoidheight><course>234.34991</course><type>1</type></trkpt>
      <trkpt lat="39.19126139926924" lon="-6.137447899277674"><ele>1862</ele><speed>8.75</speed><time>2016-06-01T13:16:41Z</time><pdop>12.0</pdop><geoidheight>50.60</geoidheight><course>285.15967</course><type>1</type></trkpt>
      <trkpt lat="39.19143351610008" lon="-6.137666815599378"><ele>1868</ele><speed>6.09</speed><time>2016-06-01T13:16:45Z</time><pdop>12.0</pdop><geoidheight>50.60</geoidheight><course>351.17874</course><type>1</type></trkpt>
      <trkpt lat="39.19161193004596" lon="-6.137619073266821"><ele>1869</ele><speed>5.91</speed><time>2016-06-01T13:16:48Z</time><pdop>8.0</pdop><geoidheight>50.60</geoidheight><course>28.04064</course><type>1</type></trkpt>
      <trkpt lat="39.19172534543964" lon="-6.137379474073893"><ele>1864</ele><speed>7.82</speed><time>2016-06-01T13:16:51Z</time><pdop>16.0</pdop><geoidheight>50.60</geoidheight><course>75.264565</course><type>1</type></trkpt>
      <trkpt lat="39.191607107107124" lon="-6.137082133599824"><ele>1861</ele><speed>12.54</speed><time>2016-06-01T13:16:54Z</time><pdop>12.0</pdop><geoidheight>50.60</geoidheight><course>136.77722</course><type>1</type></trkpt>
      <trkpt lat="39.19128167864822" lon="-6.136979111272934"><ele>1868</ele><speed>13.33</speed><time>2016-06-01T13:16:57Z</time><pdop>12.0</pdop><geoidheight>50.60</geoidheight><course>180.8458</course><type>1</type></trkpt>
      <trkpt lat="39.191062275336336" lon="-6.137144970838556"><ele>1878</ele><speed>13.24</speed><time>2016-06-01T13:16:59Z</time><pdop>16.0</pdop><geoidheight>50.60</geoidheight><course>207.56012</course><type>1</type></trkpt>
      <trkpt lat="39.19085255870748" lon="-6.137429897459534"><ele>1895</ele><speed>10.67</speed><time>2016-06-01T13:17:02Z</time><pdop>16.0</pdop><geoidheight>50.60</geoidheight><course>225.78656</course><type>1</type></trkpt>
      <trkpt lat="39.19070705624067" lon="-6.13778046895899"><ele>1907</ele><speed>11.31</speed><time>2016-06-01T13:17:06Z</time><pdop>12.0</pdop><geoidheight>50.60</geoidheight><course>241.32002</course><type>1</type></trkpt>
      <trkpt lat="39.19070939552006" lon="-6.138111617094211"><ele>1918</ele><speed>7.83</speed><time>2016-06-01T13:17:08Z</time><pdop>12.0</pdop><geoidheight>50.60</geoidheight><course>303.2954</course><type>1</type></trkpt>
      <trkpt lat="39.1905433893373" lon="-6.137906470072856"><ele>1941</ele><speed>12.38</speed><time>2016-06-01T13:17:18Z</time><pdop>12.0</pdop><geoidheight>50.60</geoidheight><course>163.24426</course><type>1</type></trkpt>
      <trkpt lat="39.19039967861773" lon="-6.138174570738351"><ele>1947</ele><speed>12.34</speed><time>2016-06-01T13:17:20Z</time><pdop>8.0</pdop><geoidheight>50.60</geoidheight><course>243.51233</course><type>1</type></trkpt>
      <trkpt lat="39.190345751404934" lon="-6.1384717915994615"><ele>1957</ele><speed>8.05</speed><time>2016-06-01T13:17:23Z</time><pdop>16.0</pdop><geoidheight>50.60</geoidheight><course>289.1279</course><type>1</type></trkpt>
      <trkpt lat="39.19057119787589" lon="-6.138471882596187"><ele>1971</ele><speed>6.88</speed><time>2016-06-01T13:17:30Z</time><pdop>8.0</pdop><geoidheight>50.60</geoidheight><course>79.398445</course><type>1</type></trkpt>
      <trkpt lat="39.1904912490163" lon="-6.13823172467758"><ele>1980</ele><speed>8.45</speed><time>2016-06-01T13:17:32Z</time><pdop>8.0</pdop><geoidheight>50.60</geoidheight><course>136.50572</course><type>1</type></trkpt>
      <trkpt lat="39.19031483934617" lon="-6.138100686820525"><ele>1986</ele><speed>11.77</speed><time>2016-06-01T13:17:35Z</time><pdop>8.0</pdop><geoidheight>50.60</geoidheight><course>162.98544</course><type>1</type></trkpt>
      <trkpt lat="39.19011267459891" lon="-6.138163684150257"><ele>1991</ele><speed>12.97</speed><time>2016-06-01T13:17:36Z</time><pdop>8.0</pdop><geoidheight>50.60</geoidheight><course>201.35107</course><type>1</type></trkpt>
      <trkpt lat="39.18998824455823" lon="-6.138370480843397"><ele>1996</ele><speed>12.30</speed><time>2016-06-01T13:17:38Z</time><pdop>8.0</pdop><geoidheight>50.60</geoidheight><course>231.73033</course><type>1</type></trkpt>
      <trkpt lat="39.18990174974026" lon="-6.138600805760645"><ele>2001</ele><speed>9.69</speed><time>2016-06-01T13:17:41Z</time><pdop>8.0</pdop><geoidheight>50.60</geoidheight><course>251.92989</course><type>1</type></trkpt>
      <trkpt lat="39.189867191316985" lon="-6.138801638789712"><ele>2006</ele><speed>8.14</speed><time>2016-06-01T13:17:42Z</time><pdop>8.0</pdop><geoidheight>50.60</geoidheight><course>273.04752</course><type>1</type></trkpt>
      <trkpt lat="39.1899973535679" lon="-6.139010148349508"><ele>2012</ele><speed>8.47</speed><time>2016-06-01T13:17:45Z</time><pdop>8.0</pdop><geoidheight>50.60</geoidheight><course>341.41345</course><type>1</type></trkpt>
      <trkpt lat="39.1901060861348" lon="-6.138802919753381"><ele>2021</ele><speed>7.54</speed><time>2016-06-01T13:17:50Z</time><pdop>8.0</pdop><geoidheight>50.60</geoidheight><course>92.3593</course><type>1</type></trkpt>
      <trkpt lat="39.19007975649238" lon="-6.13852763161132"><ele>2025</ele><speed>8.69</speed><time>2016-06-01T13:17:53Z</time><pdop>8.0</pdop><geoidheight>50.60</geoidheight><course>120.078514</course><type>1</type></trkpt>
      <trkpt lat="39.189819212504496" lon="-6.1383619575861434"><ele>2028</ele><speed>11.81</speed><time>2016-06-01T13:17:55Z</time><pdop>12.0</pdop><geoidheight>50.60</geoidheight><course>165.51135</course><type>1</type></trkpt>
      <trkpt lat="39.18960331872738" lon="-6.138427847190631"><ele>2032</ele><speed>11.83</speed><time>2016-06-01T13:17:57Z</time><pdop>12.0</pdop><geoidheight>50.60</geoidheight><course>205.0654</course><type>1</type></trkpt>
      <trkpt lat="39.18945081867649" lon="-6.138733556873598"><ele>2037</ele><speed>10.70</speed><time>2016-06-01T13:18:01Z</time><pdop>8.0</pdop><geoidheight>50.60</geoidheight><course>249.93861</course><type>1</type></trkpt>
      <trkpt lat="39.1894647960169" lon="-6.138999465141554"><ele>2044</ele><speed>8.03</speed><time>2016-06-01T13:18:03Z</time><pdop>8.0</pdop><geoidheight>50.60</geoidheight><course>299.77512</course><type>1</type></trkpt>
      <trkpt lat="39.18961747462502" lon="-6.139090141868719"><ele>2050</ele><speed>9.15</speed><time>2016-06-01T13:18:06Z</time><pdop>6.0</pdop><geoidheight>50.60</geoidheight><course>3.350684</course><type>1</type></trkpt>
      <trkpt lat="39.18974710689676" lon="-6.139034286288467"><ele>2053</ele><speed>8.27</speed><time>2016-06-01T13:18:08Z</time><pdop>6.0</pdop><geoidheight>50.60</geoidheight><course>23.569614</course><type>1</type></trkpt>
      <trkpt lat="39.189883354915324" lon="-6.138921645111944"><ele>2053</ele><speed>6.91</speed><time>2016-06-01T13:18:10Z</time><pdop>8.0</pdop><geoidheight>50.60</geoidheight><course>38.43548</course><type>1</type></trkpt>
      <trkpt lat="39.19000868532522" lon="-6.138731423619664"><ele>2053</ele><speed>9.48</speed><time>2016-06-01T13:18:13Z</time><pdop>12.0</pdop><geoidheight>50.60</geoidheight><course>74.91118</course><type>1</type></trkpt>
      <trkpt lat="39.189910761578396" lon="-6.1383526652015385"><ele>2055</ele><speed>12.43</speed><time>2016-06-01T13:18:16Z</time><pdop>12.0</pdop><geoidheight>50.60</geoidheight><course>128.29276</course><type>1</type></trkpt>
      <trkpt lat="39.189729737015966" lon="-6.138200010176922"><ele>2057</ele><speed>12.81</speed><time>2016-06-01T13:18:19Z</time><pdop>8.0</pdop><geoidheight>50.60</geoidheight><course>150.87947</course><type>1</type></trkpt>
      <trkpt lat="39.18950602689628" lon="-6.138289003924893"><ele>2058</ele><speed>12.85</speed><time>2016-06-01T13:18:20Z</time><pdop>8.0</pdop><geoidheight>50.60</geoidheight><course>194.40324</course><type>1</type></trkpt>
      <trkpt lat="39.189335263026514" lon="-6.138409938655395"><ele>2058</ele><speed>11.72</speed><time>2016-06-01T13:18:23Z</time><pdop>12.0</pdop><geoidheight>50.60</geoidheight><course>212.37418</course><type>1</type></trkpt>
      <trkpt lat="39.189172409090446" lon="-6.138607316814427"><ele>2059</ele><speed>11.53</speed><time>2016-06-01T13:18:25Z</time><pdop>6.0</pdop><geoidheight>50.60</geoidheight><course>230.7393</course><type>1</type></trkpt>
      <trkpt lat="39.18904461119876" lon="-6.138799044663166"><ele>2062</ele><speed>9.02</speed><time>2016-06-01T13:18:26Z</time><pdop>6.0</pdop><geoidheight>50.60</geoidheight><course>232.94235</course><type>1</type></trkpt>
      <trkpt lat="39.18893964761572" lon="-6.13898562637267"><ele>2065</ele><speed>9.63</speed><time>2016-06-01T13:18:28Z</time><pdop>6.0</pdop><geoidheight>50.60</geoidheight><course>236.80324</course><type>1</type></trkpt>
      <trkpt lat="39.18884713421454" lon="-6.139180065255036"><ele>2066</ele><speed>10.49</speed><time>2016-06-01T13:18:30Z</time><pdop>6.0</pdop><geoidheight>50.60</geoidheight><course>240.58969</course><type>1</type></trkpt>
      <trkpt lat="39.18874951993685" lon="-6.139396764080553"><ele>2067</ele><speed>11.25</speed><time>2016-06-01T13:18:32Z</time><pdop>12.0</pdop><geoidheight>50.60</geoidheight><course>238.97232</course><type>1</type></trkpt>
      <trkpt lat="39.18865865614074" lon="-6.139601321505174"><ele>2069</ele><speed>9.69</speed><time>2016-06-01T13:18:34Z</time><pdop>6.0</pdop><geoidheight>50.60</geoidheight><course>238.67926</course><type>1</type></trkpt>
      <trkpt lat="39.18856720662806" lon="-6.139799430782559"><ele>2070</ele><speed>10.31</speed><time>2016-06-01T13:18:36Z</time><pdop>6.0</pdop><geoidheight>50.60</geoidheight><course>239.55884</course><type>1</type></trkpt>
      <trkpt lat="39.18846054153089" lon="-6.140034548188228"><ele>2069</ele><speed>13.02</speed><time>2016-06-01T13:18:38Z</time><pdop>6.0</pdop><geoidheight>50.60</geoidheight><course>241.17886</course><type>1</type></trkpt>
      <trkpt lat="39.18840882236861" lon="-6.140162725933534"><ele>2068</ele><speed>12.62</speed><time>2016-06-01T13:18:39Z</time><pdop>6.0</pdop><geoidheight>50.60</geoidheight><course>242.97214</course><type>1</type></trkpt>
      <trkpt lat="39.18831827209681" lon="-6.140386307771839"><ele>2065</ele><speed>10.18</speed><time>2016-06-01T13:18:41Z</time><pdop>6.0</pdop><geoidheight>50.60</geoidheight><course>242.91728</course><type>1</type></trkpt>
      <trkpt lat="39.18822474404199" lon="-6.140623082073706"><ele>2063</ele><speed>11.58</speed><time>2016-06-01T13:18:43Z</time><pdop>8.0</pdop><geoidheight>50.60</geoidheight><course>244.32277</course><type>1</type></trkpt>
      <trkpt lat="39.18812247657876" lon="-6.140895873587861"><ele>2061</ele><speed>13.81</speed><time>2016-06-01T13:18:45Z</time><pdop>8.0</pdop><geoidheight>50.60</geoidheight><course>243.70422</course><type>1</type></trkpt>
      <trkpt lat="39.18802114332857" lon="-6.141154069036223"><ele>2058</ele><speed>11.55</speed><time>2016-06-01T13:18:47Z</time><pdop>6.0</pdop><geoidheight>50.60</geoidheight><course>243.23708</course><type>1</type></trkpt>
      <trkpt lat="39.18793151089363" lon="-6.141390070773119"><ele>2056</ele><speed>11.88</speed><time>2016-06-01T13:18:50Z</time><pdop>8.0</pdop><geoidheight>50.60</geoidheight><course>245.3919</course><type>1</type></trkpt>
      <trkpt lat="39.18784358281098" lon="-6.141643481960387"><ele>2052</ele><speed>13.29</speed><time>2016-06-01T13:18:51Z</time><pdop>6.0</pdop><geoidheight>50.60</geoidheight><course>247.39487</course><type>1</type></trkpt>
      <trkpt lat="39.187796229243105" lon="-6.141791917277999"><ele>2050</ele><speed>13.85</speed><time>2016-06-01T13:18:52Z</time><pdop>6.0</pdop><geoidheight>50.60</geoidheight><course>248.12079</course><type>1</type></trkpt>
      <trkpt lat="39.187745137382805" lon="-6.141945417761538"><ele>2048</ele><speed>13.97</speed><time>2016-06-01T13:18:53Z</time><pdop>6.0</pdop><geoidheight>50.60</geoidheight><course>247.1316</course><type>1</type></trkpt>
      <trkpt lat="39.187692039250656" lon="-6.142089773168843"><ele>2045</ele><speed>14.39</speed><time>2016-06-01T13:18:54Z</time><pdop>6.0</pdop><geoidheight>50.60</geoidheight><course>246.67012</course><type>1</type></trkpt>
      <trkpt lat="39.18758498320851" lon="-6.14236535262217"><ele>2041</ele><speed>13.49</speed><time>2016-06-01T13:18:56Z</time><pdop>8.0</pdop><geoidheight>50.60</geoidheight><course>244.31052</course><type>1</type></trkpt>
      <trkpt lat="39.18748105722582" lon="-6.14260583338976"><ele>2036</ele><speed>12.59</speed><time>2016-06-01T13:18:58Z</time><pdop>8.0</pdop><geoidheight>50.60</geoidheight><course>244.5943</course><type>1</type></trkpt>
      <trkpt lat="39.187385038105695" lon="-6.142854683541255"><ele>2031</ele><speed>13.88</speed><time>2016-06-01T13:19:00Z</time><pdop>6.0</pdop><geoidheight>50.60</geoidheight><course>246.71318</course><type>1</type></trkpt>
      <trkpt lat="39.18727817106675" lon="-6.1431512909061174"><ele>2024</ele><speed>15.12</speed><time>2016-06-01T13:19:02Z</time><pdop>6.0</pdop><geoidheight>50.60</geoidheight><course>246.13417</course><type>1</type></trkpt>
      <trkpt lat="39.187224894210246" lon="-6.143298186746061"><ele>2021</ele><speed>13.54</speed><time>2016-06-01T13:19:03Z</time><pdop>6.0</pdop><geoidheight>50.60</geoidheight><course>245.45427</course><type>1</type></trkpt>
      <trkpt lat="39.187174297074655" lon="-6.143436406320612"><ele>2019</ele><speed>12.64</speed><time>2016-06-01T13:19:04Z</time><pdop>6.0</pdop><geoidheight>50.60</geoidheight><course>245.1571</course><type>1</type></trkpt>
      <trkpt lat="39.18712567997994" lon="-6.14357517716455"><ele>2017</ele><speed>12.55</speed><time>2016-06-01T13:19:05Z</time><pdop>6.0</pdop><geoidheight>50.60</geoidheight><course>246.0891</course><type>1</type></trkpt>
      <trkpt lat="39.18707788056073" lon="-6.1437126546006855"><ele>2016</ele><speed>12.76</speed><time>2016-06-01T13:19:06Z</time><pdop>6.0</pdop><geoidheight>50.60</geoidheight><course>246.77675</course><type>1</type></trkpt>
      <trkpt lat="39.187028202453284" lon="-6.1438543534726975"><ele>2015</ele><speed>13.66</speed><time>2016-06-01T13:19:07Z</time><pdop>6.0</pdop><geoidheight>50.60</geoidheight><course>246.00668</course><type>1</type></trkpt>
      <trkpt lat="39.18697390295195" lon="-6.1440008024172705"><ele>2015</ele><speed>14.25</speed><time>2016-06-01T13:19:08Z</time><pdop>6.0</pdop><geoidheight>50.60</geoidheight><course>244.69621</course><type>1</type></trkpt>
      <trkpt lat="39.18691854724017" lon="-6.144139224559071"><ele>2015</ele><speed>13.73</speed><time>2016-06-01T13:19:09Z</time><pdop>6.0</pdop><geoidheight>50.60</geoidheight><course>243.13838</course><type>1</type></trkpt>
      <trkpt lat="39.18680894325141" lon="-6.14439754191498"><ele>2016</ele><speed>11.65</speed><time>2016-06-01T13:19:11Z</time><pdop>6.0</pdop><geoidheight>50.60</geoidheight><course>240.36113</course><type>1</type></trkpt>
      <trkpt lat="39.18670257342013" lon="-6.1446258092963575"><ele>2018</ele><speed>11.20</speed><time>2016-06-01T13:19:13Z</time><pdop>6.0</pdop><geoidheight>50.60</geoidheight><course>238.49933</course><type>1</type></trkpt>
      <trkpt lat="39.1865882391789" lon="-6.144861663060508"><ele>2020</ele><speed>12.48</speed><time>2016-06-01T13:19:15Z</time><pdop>8.0</pdop><geoidheight>50.60</geoidheight><course>238.57098</course><type>1</type></trkpt>
      <trkpt lat="39.18652812911879" lon="-6.144986253655329"><ele>2022</ele><speed>12.20</speed><time>2016-06-01T13:19:16Z</time><pdop>4.0</pdop><geoidheight>50.60</geoidheight><course>239.13199</course><type>1</type></trkpt>
      <trkpt lat="39.18646836739959" lon="-6.1451100023047704"><ele>2023</ele><speed>11.48</speed><time>2016-06-01T13:19:17Z</time><pdop>8.0</pdop><geoidheight>50.60</geoidheight><course>237.91748</course><type>1</type></trkpt>
      <trkpt lat="39.18636245340485" lon="-6.145311747250638"><ele>2025</ele><speed>10.19</speed><time>2016-06-01T13:19:19Z</time><pdop>8.0</pdop><geoidheight>50.60</geoidheight><course>235.21588</course><type>1</type></trkpt>
      <trkpt lat="39.18626199326933" lon="-6.1455053306811624"><ele>2028</ele><speed>9.75</speed><time>2016-06-01T13:19:21Z</time><pdop>8.0</pdop><geoidheight>50.60</geoidheight><course>238.16069</course><type>1</type></trkpt>
      <trkpt lat="39.186258090407435" lon="-6.145733779969804"><ele>2030</ele><speed>9.56</speed><time>2016-06-01T13:19:23Z</time><pdop>8.0</pdop><geoidheight>50.60</geoidheight><course>280.70255</course><type>1</type></trkpt>
      <trkpt lat="39.1863380228309" lon="-6.1458881042514175"><ele>2032</ele><speed>6.14</speed><time>2016-06-01T13:19:26Z</time><pdop>8.0</pdop><geoidheight>50.60</geoidheight><course>328.1703</course><type>1</type></trkpt>
      <trkpt lat="39.18647174378976" lon="-6.145776293459323"><ele>2041</ele><speed>5.26</speed><time>2016-06-01T13:19:29Z</time><pdop>8.0</pdop><geoidheight>50.60</geoidheight><course>68.85808</course><type>1</type></trkpt>
      <trkpt lat="39.18643326739196" lon="-6.145485015455894"><ele>2046</ele><speed>10.87</speed><time>2016-06-01T13:19:32Z</time><pdop>12.0</pdop><geoidheight>50.60</geoidheight><course>114.77792</course><type>1</type></trkpt>
      <trkpt lat="39.18624735660197" lon="-6.145323142998269"><ele>2049</ele><speed>11.91</speed><time>2016-06-01T13:19:35Z</time><pdop>12.0</pdop><geoidheight>50.60</geoidheight><course>162.92574</course><type>1</type></trkpt>
      <trkpt lat="39.18600918818255" lon="-6.145343223676836"><ele>2051</ele><speed>13.17</speed><time>2016-06-01T13:19:37Z</time><pdop>12.0</pdop><geoidheight>50.60</geoidheight><course>193.65717</course><type>1</type></trkpt>
      <trkpt lat="39.18580281591157" lon="-6.145601100475497"><ele>2056</ele><speed>12.41</speed><time>2016-06-01T13:19:39Z</time><pdop>8.0</pdop><geoidheight>50.60</geoidheight><course>242.9967</course><type>1</type></trkpt>
      <trkpt lat="39.1857773047515" lon="-6.145830804124973"><ele>2060</ele><speed>9.46</speed><time>2016-06-01T13:19:42Z</time><pdop>8.0</pdop><geoidheight>50.60</geoidheight><course>285.46155</course><type>1</type></trkpt>
      <trkpt lat="39.18596042579991" lon="-6.1457213978622205"><ele>2070</ele><speed>7.29</speed><time>2016-06-01T13:19:48Z</time><pdop>12.0</pdop><geoidheight>50.60</geoidheight><course>79.93659</course><type>1</type></trkpt>
      <trkpt lat="39.18587581812646" lon="-6.145357937243687"><ele>2068</ele><speed>11.31</speed><time>2016-06-01T13:19:51Z</time><pdop>16.0</pdop><geoidheight>50.60</geoidheight><course>118.312225</course><type>1</type></trkpt>
      <trkpt lat="39.18533727910119" lon="-6.145207168715375"><ele>2065</ele><speed>12.76</speed><time>2016-06-01T13:19:56Z</time><pdop>12.0</pdop><geoidheight>50.60</geoidheight><course>195.22177</course><type>1</type></trkpt>
      <trkpt lat="39.185110230366945" lon="-6.145712126291887"><ele>2067</ele><speed>9.55</speed><time>2016-06-01T13:20:00Z</time><pdop>16.0</pdop><geoidheight>50.60</geoidheight><course>290.45102</course><type>1</type></trkpt>
      <trkpt lat="39.185378585775005" lon="-6.14569378571623"><ele>2082</ele><speed>8.92</speed><time>2016-06-01T13:20:09Z</time><pdop>12.0</pdop><geoidheight>50.60</geoidheight><course>75.919914</course><type>1</type></trkpt>
      <trkpt lat="39.18529574369973" lon="-6.14533502858427"><ele>2085</ele><speed>11.94</speed><time>2016-06-01T13:20:12Z</time><pdop>16.0</pdop><geoidheight>50.60</geoidheight><course>117.416824</course><type>1</type></trkpt>
      <trkpt lat="39.18494449222017" lon="-6.145061867209271"><ele>2090</ele><speed>14.59</speed><time>2016-06-01T13:20:15Z</time><pdop>16.0</pdop><geoidheight>50.60</geoidheight><course>168.82147</course><type>1</type></trkpt>
      <trkpt lat="39.18458896936414" lon="-6.1452217405991965"><ele>2105</ele><speed>12.66</speed><time>2016-06-01T13:20:18Z</time><pdop>16.0</pdop><geoidheight>50.60</geoidheight><course>213.9948</course><type>1</type></trkpt>
      <trkpt lat="39.18444730947711" lon="-6.145446780525287"><ele>2116</ele><speed>10.11</speed><time>2016-06-01T13:20:20Z</time><pdop>6.0</pdop><geoidheight>50.60</geoidheight><course>235.94019</course><type>1</type></trkpt>
      <trkpt lat="39.184350487482675" lon="-6.145669317094249"><ele>2125</ele><speed>10.26</speed><time>2016-06-01T13:20:22Z</time><pdop>12.0</pdop><geoidheight>50.60</geoidheight><course>241.55215</course><type>1</type></trkpt>
      <trkpt lat="39.184346137881995" lon="-6.145974882680242"><ele>2134</ele><speed>7.37</speed><time>2016-06-01T13:20:26Z</time><pdop>12.0</pdop><geoidheight>50.60</geoidheight><course>282.978</course><type>1</type></trkpt>
      <trkpt lat="39.184498059700125" lon="-6.145638201849853"><ele>2146</ele><speed>11.62</speed><time>2016-06-01T13:20:32Z</time><pdop>12.0</pdop><geoidheight>50.60</geoidheight><course>99.13213</course><type>1</type></trkpt>
      <trkpt lat="39.184292811717725" lon="-6.14532808540301"><ele>2149</ele><speed>14.37</speed><time>2016-06-01T13:20:35Z</time><pdop>12.0</pdop><geoidheight>50.60</geoidheight><course>158.58167</course><type>1</type></trkpt>
      <trkpt lat="39.18401999887911" lon="-6.1454014832316926"><ele>2152</ele><speed>11.42</speed><time>2016-06-01T13:20:38Z</time><pdop>16.0</pdop><geoidheight>50.60</geoidheight><course>203.17062</course><type>1</type></trkpt>
      <trkpt lat="39.18383426167649" lon="-6.145564875119769"><ele>2155</ele><speed>10.28</speed><time>2016-06-01T13:20:39Z</time><pdop>8.0</pdop><geoidheight>50.60</geoidheight><course>221.12918</course><type>1</type></trkpt>
      <trkpt lat="39.18372128809612" lon="-6.145750516170227"><ele>2159</ele><speed>10.32</speed><time>2016-06-01T13:20:41Z</time><pdop>8.0</pdop><geoidheight>50.60</geoidheight><course>247.90512</course><type>1</type></trkpt>
      <trkpt lat="39.183711192493504" lon="-6.145959063420255"><ele>2162</ele><speed>8.06</speed><time>2016-06-01T13:20:43Z</time><pdop>8.0</pdop><geoidheight>50.60</geoidheight><course>289.848</course><type>1</type></trkpt>
      <trkpt lat="39.18385689768425" lon="-6.14614495775189"><ele>2166</ele><speed>4.37</speed><time>2016-06-01T13:20:48Z</time><pdop>12.0</pdop><geoidheight>50.60</geoidheight><course>349.48376</course><type>1</type></trkpt>
      <trkpt lat="39.18404928224466" lon="-6.145932614074985"><ele>2166</ele><speed>10.30</speed><time>2016-06-01T13:20:55Z</time><pdop>8.0</pdop><geoidheight>50.60</geoidheight><course>92.790306</course><type>1</type></trkpt>
      <trkpt lat="39.183955140751536" lon="-6.145688657525099"><ele>2167</ele><speed>13.63</speed><time>2016-06-01T13:20:57Z</time><pdop>8.0</pdop><geoidheight>50.60</geoidheight><course>124.85368</course><type>1</type></trkpt>
      <trkpt lat="39.18373724518504" lon="-6.145477294173045"><ele>2168</ele><speed>14.26</speed><time>2016-06-01T13:21:00Z</time><pdop>12.0</pdop><geoidheight>50.60</geoidheight><course>153.01357</course><type>1</type></trkpt>
      <trkpt lat="39.1834794274192" lon="-6.145385160047753"><ele>2169</ele><speed>13.91</speed><time>2016-06-01T13:21:01Z</time><pdop>16.0</pdop><geoidheight>50.60</geoidheight><course>169.57384</course><type>1</type></trkpt>
      <trkpt lat="39.183214639468815" lon="-6.1455407083453135"><ele>2171</ele><speed>11.60</speed><time>2016-06-01T13:21:04Z</time><pdop>12.0</pdop><geoidheight>50.60</geoidheight><course>220.82039</course><type>1</type></trkpt>
      <trkpt lat="39.18310645473446" lon="-6.145836144994558"><ele>2177</ele><speed>10.05</speed><time>2016-06-01T13:21:07Z</time><pdop>8.0</pdop><geoidheight>50.60</geoidheight><course>253.19217</course><type>1</type></trkpt>
      <trkpt lat="39.18306118949664" lon="-6.146039747669938"><ele>2182</ele><speed>7.56</speed><time>2016-06-01T13:21:10Z</time><pdop>8.0</pdop><geoidheight>50.60</geoidheight><course>259.9346</course><type>1</type></trkpt>
      <trkpt lat="39.18313396608103" lon="-6.146207228694277"><ele>2186</ele><speed>4.64</speed><time>2016-06-01T13:21:12Z</time><pdop>8.0</pdop><geoidheight>50.60</geoidheight><course>338.61383</course><type>1</type></trkpt>
      <trkpt lat="39.18323381745596" lon="-6.145995561939361"><ele>2185</ele><speed>8.14</speed><time>2016-06-01T13:21:16Z</time><pdop>8.0</pdop><geoidheight>50.60</geoidheight><course>90.088425</course><type>1</type></trkpt>
      <trkpt lat="39.18324457971581" lon="-6.145720357354033"><ele>2186</ele><speed>10.34</speed><time>2016-06-01T13:21:19Z</time><pdop>12.0</pdop><geoidheight>50.60</geoidheight><course>98.3737</course><type>1</type></trkpt>
      <trkpt lat="39.18301245619493" lon="-6.145396833122892"><ele>2186</ele><speed>14.55</speed><time>2016-06-01T13:21:23Z</time><pdop>12.0</pdop><geoidheight>50.60</geoidheight><course>146.3789</course><type>1</type></trkpt>
      <trkpt lat="39.182739019015244" lon="-6.145296326712391"><ele>2186</ele><speed>12.96</speed><time>2016-06-01T13:21:25Z</time><pdop>12.0</pdop><geoidheight>50.60</geoidheight><course>177.78935</course><type>1</type></trkpt>
      <trkpt lat="39.182503576472854" lon="-6.145265786565397"><ele>2187</ele><speed>11.39</speed><time>2016-06-01T13:21:26Z</time><pdop>12.0</pdop><geoidheight>50.60</geoidheight><course>183.54071</course><type>1</type></trkpt>
      <trkpt lat="39.182229783606466" lon="-6.145378305004253"><ele>2189</ele><speed>12.40</speed><time>2016-06-01T13:21:29Z</time><pdop>16.0</pdop><geoidheight>50.60</geoidheight><course>213.32751</course><type>1</type></trkpt>
      <trkpt lat="39.18210914737982" lon="-6.14570246317924"><ele>2189</ele><speed>8.54</speed><time>2016-06-01T13:21:32Z</time><pdop>8.0</pdop><geoidheight>50.60</geoidheight><course>258.99792</course><type>1</type></trkpt>
      <trkpt lat="39.1821266281935" lon="-6.145896454557916"><ele>2190</ele><speed>3.93</speed><time>2016-06-01T13:21:35Z</time><pdop>8.0</pdop><geoidheight>50.60</geoidheight><course>285.9752</course><type>1</type></trkpt>
      <trkpt lat="39.18228318941358" lon="-6.145758403623772"><ele>2189</ele><speed>9.73</speed><time>2016-06-01T13:21:40Z</time><pdop>8.0</pdop><geoidheight>50.60</geoidheight><course>81.70132</course><type>1</type></trkpt>
      <trkpt lat="39.182301715797195" lon="-6.145469275265003"><ele>2190</ele><speed>9.87</speed><time>2016-06-01T13:21:44Z</time><pdop>12.0</pdop><geoidheight>50.60</geoidheight><course>92.798775</course><type>1</type></trkpt>
      <trkpt lat="39.18224677093159" lon="-6.145127435827759"><ele>2192</ele><speed>11.46</speed><time>2016-06-01T13:21:46Z</time><pdop>8.0</pdop><geoidheight>50.60</geoidheight><course>101.21017</course><type>1</type></trkpt>
      <trkpt lat="39.18216399661283" lon="-6.14490134652773"><ele>2193</ele><speed>8.44</speed><time>2016-06-01T13:21:49Z</time><pdop>8.0</pdop><geoidheight>50.60</geoidheight><course>113.27819</course><type>1</type></trkpt>
      <trkpt lat="39.182097043886536" lon="-6.144685368961847"><ele>2196</ele><speed>9.34</speed><time>2016-06-01T13:21:50Z</time><pdop>8.0</pdop><geoidheight>50.60</geoidheight><course>107.22906</course><type>1</type></trkpt>
      <trkpt lat="39.18203574609512" lon="-6.144443737873946"><ele>2197</ele><speed>10.84</speed><time>2016-06-01T13:21:52Z</time><pdop>8.0</pdop><geoidheight>50.60</geoidheight><course>105.090385</course><type>1</type></trkpt>
      <trkpt lat="39.18199593259014" lon="-6.14419654962453"><ele>2199</ele><speed>10.29</speed><time>2016-06-01T13:21:54Z</time><pdop>6.0</pdop><geoidheight>50.60</geoidheight><course>100.74186</course><type>1</type></trkpt>
      <trkpt lat="39.1819858569324" lon="-6.143943051392827"><ele>2200</ele><speed>10.80</speed><time>2016-06-01T13:21:56Z</time><pdop>12.0</pdop><geoidheight>50.60</geoidheight><course>98.60916</course><type>1</type></trkpt>
      <trkpt lat="39.181971875083555" lon="-6.14356682539614"><ele>2199</ele><speed>10.94</speed><time>2016-06-01T13:21:59Z</time><pdop>12.0</pdop><geoidheight>50.60</geoidheight><course>97.44177</course><type>1</type></trkpt>
      <trkpt lat="39.18202402845071" lon="-6.143211700496671"><ele>2197</ele><speed>9.85</speed><time>2016-06-01T13:22:02Z</time><pdop>8.0</pdop><geoidheight>50.60</geoidheight><course>71.3433</course><type>1</type></trkpt>
      <trkpt lat="39.18207855983361" lon="-6.143005392188567"><ele>2198</ele><speed>9.83</speed><time>2016-06-01T13:22:04Z</time><pdop>8.0</pdop><geoidheight>50.60</geoidheight><course>72.49592</course><type>1</type></trkpt>
      <trkpt lat="39.18203853808658" lon="-6.142701693457259"><ele>2199</ele><speed>15.19</speed><time>2016-06-01T13:22:06Z</time><pdop>12.0</pdop><geoidheight>50.60</geoidheight><course>101.859215</course><type>1</type></trkpt>
      <trkpt lat="39.18181212220065" lon="-6.142515454889897"><ele>2199</ele><speed>14.94</speed><time>2016-06-01T13:22:09Z</time><pdop>16.0</pdop><geoidheight>50.60</geoidheight><course>158.96515</course><type>1</type></trkpt>
      <trkpt lat="39.18155592076382" lon="-6.14255406841064"><ele>2200</ele><speed>8.50</speed><time>2016-06-01T13:22:11Z</time><pdop>12.0</pdop><geoidheight>50.60</geoidheight><course>196.92708</course><type>1</type></trkpt>
      <trkpt lat="39.1814575171016" lon="-6.142831507597289"><ele>2200</ele><speed>6.73</speed><time>2016-06-01T13:22:15Z</time><pdop>8.0</pdop><geoidheight>50.60</geoidheight><course>263.6555</course><type>1</type></trkpt>
      <trkpt lat="39.18146781568934" lon="-6.143057492827521"><ele>2200</ele><speed>7.07</speed><time>2016-06-01T13:22:18Z</time><pdop>6.0</pdop><geoidheight>50.60</geoidheight><course>285.90622</course><type>1</type></trkpt>
      <trkpt lat="39.18151976433366" lon="-6.143217853306977"><ele>2201</ele><speed>7.30</speed><time>2016-06-01T13:22:20Z</time><pdop>6.0</pdop><geoidheight>50.60</geoidheight><course>293.6253</course><type>1</type></trkpt>
      <trkpt lat="39.18158698222129" lon="-6.143356939990052"><ele>2203</ele><speed>6.75</speed><time>2016-06-01T13:22:22Z</time><pdop>6.0</pdop><geoidheight>50.60</geoidheight><course>301.09943</course><type>1</type></trkpt>
      <trkpt lat="39.18169802043642" lon="-6.143527256991815"><ele>2206</ele><speed>5.81</speed><time>2016-06-01T13:22:25Z</time><pdop>6.0</pdop><geoidheight>50.60</geoidheight><course>309.527</course><type>1</type></trkpt>
      <trkpt lat="39.18186058839927" lon="-6.1435495836003255"><ele>2209</ele><speed>6.19</speed><time>2016-06-01T13:22:28Z</time><pdop>6.0</pdop><geoidheight>50.60</geoidheight><course>20.592398</course><type>1</type></trkpt>
      <trkpt lat="39.18200700087356" lon="-6.1434516710218166"><ele>2210</ele><speed>6.68</speed><time>2016-06-01T13:22:31Z</time><pdop>4.0</pdop><geoidheight>50.60</geoidheight><course>52.661278</course><type>1</type></trkpt>
      <trkpt lat="39.18208072810942" lon="-6.143290632810746"><ele>2210</ele><speed>7.89</speed><time>2016-06-01T13:22:33Z</time><pdop>8.0</pdop><geoidheight>50.60</geoidheight><course>67.95584</course><type>1</type></trkpt>
      <trkpt lat="39.18209419825702" lon="-6.143111138590674"><ele>2211</ele><speed>8.47</speed><time>2016-06-01T13:22:35Z</time><pdop>6.0</pdop><geoidheight>50.60</geoidheight><course>85.803734</course><type>1</type></trkpt>
      <trkpt lat="39.18205527493956" lon="-6.142899738385603"><ele>2214</ele><speed>9.09</speed><time>2016-06-01T13:22:37Z</time><pdop>6.0</pdop><geoidheight>50.60</geoidheight><course>105.51895</course><type>1</type></trkpt>
      <trkpt lat="39.181992560232864" lon="-6.142677798808266"><ele>2216</ele><speed>10.13</speed><time>2016-06-01T13:22:39Z</time><pdop>8.0</pdop><geoidheight>50.60</geoidheight><course>107.92263</course><type>1</type></trkpt>
      <trkpt lat="39.18191843537594" lon="-6.142451099376362"><ele>2217</ele><speed>10.90</speed><time>2016-06-01T13:22:42Z</time><pdop>8.0</pdop><geoidheight>50.60</geoidheight><course>111.235176</course><type>1</type></trkpt>
      <trkpt lat="39.18183624131325" lon="-6.1422267662251775"><ele>2218</ele><speed>10.27</speed><time>2016-06-01T13:22:43Z</time><pdop>8.0</pdop><geoidheight>50.60</geoidheight><course>113.53147</course><type>1</type></trkpt>
      <trkpt lat="39.18175889191254" lon="-6.142017277171666"><ele>2220</ele><speed>9.63</speed><time>2016-06-01T13:22:45Z</time><pdop>8.0</pdop><geoidheight>50.60</geoidheight><course>112.906944</course><type>1</type></trkpt>
      <trkpt lat="39.18167827237622" lon="-6.141781177545911"><ele>2221</ele><speed>10.82</speed><time>2016-06-01T13:22:47Z</time><pdop>8.0</pdop><geoidheight>50.60</geoidheight><course>110.2627</course><type>1</type></trkpt>
      <trkpt lat="39.1816413620534" lon="-6.141537721257828"><ele>2222</ele><speed>9.90</speed><time>2016-06-01T13:22:49Z</time><pdop>8.0</pdop><geoidheight>50.60</geoidheight><course>90.92398</course><type>1</type></trkpt>
      <trkpt lat="39.18164043579307" lon="-6.141316957722465"><ele>2223</ele><speed>8.44</speed><time>2016-06-01T13:22:51Z</time><pdop>8.0</pdop><geoidheight>50.60</geoidheight><course>87.82719</course><type>1</type></trkpt>
      <trkpt lat="39.18168079457123" lon="-6.141118440476575"><ele>2225</ele><speed>8.58</speed><time>2016-06-01T13:22:53Z</time><pdop>8.0</pdop><geoidheight>50.60</geoidheight><course>64.968834</course><type>1</type></trkpt>
      <trkpt lat="39.18186207287372" lon="-6.140911092338744"><ele>2222</ele><speed>8.26</speed><time>2016-06-01T13:22:57Z</time><pdop>8.0</pdop><geoidheight>50.60</geoidheight><course>45.41513</course><type>1</type></trkpt>
      <trkpt lat="39.18203870983809" lon="-6.140737166790559"><ele>2217</ele><speed>7.39</speed><time>2016-06-01T13:22:59Z</time><pdop>16.0</pdop><geoidheight>50.60</geoidheight><course>47.173473</course><type>1</type></trkpt>
      <trkpt lat="39.18224998588545" lon="-6.140639030552174"><ele>2213</ele><speed>6.04</speed><time>2016-06-01T13:23:02Z</time><pdop>8.0</pdop><geoidheight>50.60</geoidheight><course>4.2442393</course><type>1</type></trkpt>
      <trkpt lat="39.182440373082024" lon="-6.140646759801779"><ele>2210</ele><speed>6.86</speed><time>2016-06-01T13:23:06Z</time><pdop>12.0</pdop><geoidheight>50.60</geoidheight><course>8.780147</course><type>1</type></trkpt>
      <trkpt lat="39.18266770708074" lon="-6.140566960216937"><ele>2211</ele><speed>4.47</speed><time>2016-06-01T13:23:11Z</time><pdop>12.0</pdop><geoidheight>50.60</geoidheight><course>355.4741</course><type>1</type></trkpt>
      <trkpt lat="39.1828940770887" lon="-6.140563762141014"><ele>2209</ele><speed>7.35</speed><time>2016-06-01T13:23:15Z</time><pdop>12.0</pdop><geoidheight>50.60</geoidheight><course>353.91473</course><type>1</type></trkpt>
      <trkpt lat="39.183168335939364" lon="-6.140463662253876"><ele>2204</ele><speed>7.25</speed><time>2016-06-01T13:23:19Z</time><pdop>12.0</pdop><geoidheight>50.60</geoidheight><course>14.706571</course><type>1</type></trkpt>
      <trkpt lat="39.18336725987366" lon="-6.140331633163297"><ele>2199</ele><speed>7.46</speed><time>2016-06-01T13:23:22Z</time><pdop>8.0</pdop><geoidheight>50.60</geoidheight><course>13.81549</course><type>1</type></trkpt>
      <trkpt lat="39.18353485996413" lon="-6.140217815866393"><ele>2194</ele><speed>7.35</speed><time>2016-06-01T13:23:25Z</time><pdop>8.0</pdop><geoidheight>50.60</geoidheight><course>16.789139</course><type>1</type></trkpt>
      <trkpt lat="39.18368982514919" lon="-6.1401401452009425"><ele>2189</ele><speed>8.75</speed><time>2016-06-01T13:23:28Z</time><pdop>8.0</pdop><geoidheight>50.60</geoidheight><course>14.987641</course><type>1</type></trkpt>
      <trkpt lat="39.183894118747254" lon="-6.140115891758673"><ele>2183</ele><speed>6.05</speed><time>2016-06-01T13:23:30Z</time><pdop>8.0</pdop><geoidheight>50.60</geoidheight><course>342.80988</course><type>1</type></trkpt>
      <trkpt lat="39.184072254092705" lon="-6.140447641318638"><ele>2180</ele><speed>6.30</speed><time>2016-06-01T13:23:37Z</time><pdop>16.0</pdop><geoidheight>50.60</geoidheight><course>309.975</course><type>1</type></trkpt>
      <trkpt lat="39.184234327222" lon="-6.140724667626141"><ele>2185</ele><speed>5.37</speed><time>2016-06-01T13:23:41Z</time><pdop>12.0</pdop><geoidheight>50.60</geoidheight><course>329.51517</course><type>1</type></trkpt>
      <trkpt lat="39.18429591073882" lon="-6.140984726076326"><ele>2189</ele><speed>7.12</speed><time>2016-06-01T13:23:45Z</time><pdop>8.0</pdop><geoidheight>50.60</geoidheight><course>253.71635</course><type>1</type></trkpt>
      <trkpt lat="39.18419621638824" lon="-6.141158971598877"><ele>2189</ele><speed>9.76</speed><time>2016-06-01T13:23:48Z</time><pdop>6.0</pdop><geoidheight>50.60</geoidheight><course>230.92955</course><type>1</type></trkpt>
      <trkpt lat="39.18404504490909" lon="-6.141291022571729"><ele>2187</ele><speed>10.07</speed><time>2016-06-01T13:23:49Z</time><pdop>8.0</pdop><geoidheight>50.60</geoidheight><course>215.33276</course><type>1</type></trkpt>
      <trkpt lat="39.183894904806" lon="-6.141417796408049"><ele>2186</ele><speed>9.84</speed><time>2016-06-01T13:23:51Z</time><pdop>8.0</pdop><geoidheight>50.60</geoidheight><course>214.70671</course><type>1</type></trkpt>
      <trkpt lat="39.18373827744118" lon="-6.141554974345773"><ele>2183</ele><speed>10.93</speed><time>2016-06-01T13:23:53Z</time><pdop>6.0</pdop><geoidheight>50.60</geoidheight><course>215.9027</course><type>1</type></trkpt>
      <trkpt lat="39.18357964816922" lon="-6.141699721018548"><ele>2179</ele><speed>10.86</speed><time>2016-06-01T13:23:55Z</time><pdop>12.0</pdop><geoidheight>50.60</geoidheight><course>215.55466</course><type>1</type></trkpt>
      <trkpt lat="39.1834362782157" lon="-6.141841511632725"><ele>2176</ele><speed>10.28</speed><time>2016-06-01T13:23:57Z</time><pdop>6.0</pdop><geoidheight>50.60</geoidheight><course>219.73203</course><type>1</type></trkpt>
      <trkpt lat="39.1832903978575" lon="-6.1420168679185165"><ele>2173</ele><speed>11.80</speed><time>2016-06-01T13:23:59Z</time><pdop>6.0</pdop><geoidheight>50.60</geoidheight><course>221.6106</course><type>1</type></trkpt>
      <trkpt lat="39.18312704043565" lon="-6.142176054873699"><ele>2170</ele><speed>11.74</speed><time>2016-06-01T13:24:01Z</time><pdop>6.0</pdop><geoidheight>50.60</geoidheight><course>215.56258</course><type>1</type></trkpt>
      <trkpt lat="39.182933291135775" lon="-6.142264317852845"><ele>2167</ele><speed>12.16</speed><time>2016-06-01T13:24:04Z</time><pdop>8.0</pdop><geoidheight>50.60</geoidheight><course>199.51009</course><type>1</type></trkpt>
      <trkpt lat="39.18270834500629" lon="-6.1422983982888235"><ele>2164</ele><speed>13.11</speed><time>2016-06-01T13:24:05Z</time><pdop>8.0</pdop><geoidheight>50.60</geoidheight><course>183.80962</course><type>1</type></trkpt>
      <trkpt lat="39.18246288220939" lon="-6.1422913283438705"><ele>2159</ele><speed>12.90</speed><time>2016-06-01T13:24:07Z</time><pdop>12.0</pdop><geoidheight>50.60</geoidheight><course>181.05687</course><type>1</type></trkpt>
      <trkpt lat="39.18221318665508" lon="-6.1422781936037145"><ele>2154</ele><speed>12.91</speed><time>2016-06-01T13:24:09Z</time><pdop>6.0</pdop><geoidheight>50.60</geoidheight><course>179.52129</course><type>1</type></trkpt>
      <trkpt lat="39.18196688454626" lon="-6.142257782103459"><ele>2150</ele><speed>12.88</speed><time>2016-06-01T13:24:11Z</time><pdop>8.0</pdop><geoidheight>50.60</geoidheight><course>176.84435</course><type>1</type></trkpt>
      <trkpt lat="39.181750601455555" lon="-6.142234695198635"><ele>2148</ele><speed>11.09</speed><time>2016-06-01T13:24:14Z</time><pdop>8.0</pdop><geoidheight>50.60</geoidheight><course>177.48578</course><type>1</type></trkpt>
      <trkpt lat="39.18153997535805" lon="-6.1422148400802"><ele>2146</ele><speed>12.39</speed><time>2016-06-01T13:24:15Z</time><pdop>12.0</pdop><geoidheight>50.60</geoidheight><course>175.45467</course><type>1</type></trkpt>
      <trkpt lat="39.181296233488766" lon="-6.1421640976001015"><ele>2144</ele><speed>14.69</speed><time>2016-06-01T13:24:17Z</time><pdop>12.0</pdop><geoidheight>50.60</geoidheight><course>170.86461</course><type>1</type></trkpt>
      <trkpt lat="39.180911403121826" lon="-6.14204865430138"><ele>2139</ele><speed>11.65</speed><time>2016-06-01T13:24:21Z</time><pdop>16.0</pdop><geoidheight>50.60</geoidheight><course>167.15671</course><type>1</type></trkpt>
      <trkpt lat="39.18055074551299" lon="-6.141961803712564"><ele>2139</ele><speed>14.04</speed><time>2016-06-01T13:24:24Z</time><pdop>16.0</pdop><geoidheight>50.60</geoidheight><course>171.28885</course><type>1</type></trkpt>
      <trkpt lat="39.18015914441102" lon="-6.141891120136609"><ele>2137</ele><speed>12.70</speed><time>2016-06-01T13:24:28Z</time><pdop>16.0</pdop><geoidheight>50.60</geoidheight><course>170.6851</course><type>1</type></trkpt>
      <trkpt lat="39.17978536077274" lon="-6.141773307288524"><ele>2132</ele><speed>13.94</speed><time>2016-06-01T13:24:30Z</time><pdop>16.0</pdop><geoidheight>50.60</geoidheight><course>166.22552</course><type>1</type></trkpt>
      <trkpt lat="39.17949498207849" lon="-6.141679874213402"><ele>2130</ele><speed>11.63</speed><time>2016-06-01T13:24:33Z</time><pdop>8.0</pdop><geoidheight>50.60</geoidheight><course>163.66277</course><type>1</type></trkpt>
      <trkpt lat="39.179265680782635" lon="-6.1415888954763975"><ele>2128</ele><speed>13.26</speed><time>2016-06-01T13:24:36Z</time><pdop>16.0</pdop><geoidheight>50.60</geoidheight><course>162.0046</course><type>1</type></trkpt>
      <trkpt lat="39.17894899824792" lon="-6.141430520909112"><ele>2124</ele><speed>12.76</speed><time>2016-06-01T13:24:38Z</time><pdop>12.0</pdop><geoidheight>50.60</geoidheight><course>160.2847</course><type>1</type></trkpt>
      <trkpt lat="39.17873879023679" lon="-6.141332352383447"><ele>2122</ele><speed>12.08</speed><time>2016-06-01T13:24:40Z</time><pdop>6.0</pdop><geoidheight>50.60</geoidheight><course>161.28119</course><type>1</type></trkpt>
      <trkpt lat="39.17852165677208" lon="-6.141234172199503"><ele>2120</ele><speed>12.99</speed><time>2016-06-01T13:24:42Z</time><pdop>8.0</pdop><geoidheight>50.60</geoidheight><course>159.22523</course><type>1</type></trkpt>
      <trkpt lat="39.17832256008002" lon="-6.141129728980749"><ele>2118</ele><speed>11.76</speed><time>2016-06-01T13:24:44Z</time><pdop>8.0</pdop><geoidheight>50.60</geoidheight><course>156.93086</course><type>1</type></trkpt>
      <trkpt lat="39.1781356171069" lon="-6.14101319320466"><ele>2118</ele><speed>10.90</speed><time>2016-06-01T13:24:47Z</time><pdop>6.0</pdop><geoidheight>50.60</geoidheight><course>155.48427</course><type>1</type></trkpt>
      <trkpt lat="39.17795926252308" lon="-6.140902027006406"><ele>2118</ele><speed>10.41</speed><time>2016-06-01T13:24:48Z</time><pdop>6.0</pdop><geoidheight>50.60</geoidheight><course>155.86674</course><type>1</type></trkpt>
      <trkpt lat="39.177780200604296" lon="-6.140789378168055"><ele>2119</ele><speed>11.71</speed><time>2016-06-01T13:24:50Z</time><pdop>8.0</pdop><geoidheight>50.60</geoidheight><course>154.50903</course><type>1</type></trkpt>
      <trkpt lat="39.17757577914179" lon="-6.140665004945797"><ele>2119</ele><speed>13.03</speed><time>2016-06-01T13:24:52Z</time><pdop>8.0</pdop><geoidheight>50.60</geoidheight><course>155.91914</course><type>1</type></trkpt>
      <trkpt lat="39.17738813100957" lon="-6.140563348995613"><ele>2117</ele><speed>11.73</speed><time>2016-06-01T13:24:54Z</time><pdop>12.0</pdop><geoidheight>50.60</geoidheight><course>157.27136</course><type>1</type></trkpt>
      <trkpt lat="39.177175533110095" lon="-6.140460910838297"><ele>2116</ele><speed>12.82</speed><time>2016-06-01T13:24:56Z</time><pdop>8.0</pdop><geoidheight>50.60</geoidheight><course>158.82294</course><type>1</type></trkpt>
      <trkpt lat="39.17693406137454" lon="-6.140355650158761"><ele>2114</ele><speed>14.12</speed><time>2016-06-01T13:24:58Z</time><pdop>8.0</pdop><geoidheight>50.60</geoidheight><course>162.03862</course><type>1</type></trkpt>
      <trkpt lat="39.1767049092465" lon="-6.140268997867432"><ele>2112</ele><speed>13.35</speed><time>2016-06-01T13:25:00Z</time><pdop>6.0</pdop><geoidheight>50.60</geoidheight><course>161.25703</course><type>1</type></trkpt>
      <trkpt lat="39.1765991993349" lon="-6.140220135520948"><ele>2112</ele><speed>12.37</speed><time>2016-06-01T13:25:01Z</time><pdop>6.0</pdop><geoidheight>50.60</geoidheight><course>159.24767</course><type>1</type></trkpt>
      <trkpt lat="39.176405851606994" lon="-6.1401210823377035"><ele>2110</ele><speed>11.71</speed><time>2016-06-01T13:25:03Z</time><pdop>12.0</pdop><geoidheight>50.60</geoidheight><course>158.30934</course><type>1</type></trkpt>
      <trkpt lat="39.17619286398331" lon="-6.140025827772813"><ele>2107</ele><speed>12.65</speed><time>2016-06-01T13:25:05Z</time><pdop>6.0</pdop><geoidheight>50.60</geoidheight><course>159.48448</course><type>1</type></trkpt>
      <trkpt lat="39.17599441735494" lon="-6.139924175377075"><ele>2104</ele><speed>12.14</speed><time>2016-06-01T13:25:07Z</time><pdop>8.0</pdop><geoidheight>50.60</geoidheight><course>154.86952</course><type>1</type></trkpt>
      <trkpt lat="39.17579370184501" lon="-6.139796131441738"><ele>2102</ele><speed>13.03</speed><time>2016-06-01T13:25:09Z</time><pdop>8.0</pdop><geoidheight>50.60</geoidheight><course>153.05646</course><type>1</type></trkpt>
      <trkpt lat="39.17557724291578" lon="-6.1396569597995345"><ele>2100</ele><speed>13.83</speed><time>2016-06-01T13:25:11Z</time><pdop>6.0</pdop><geoidheight>50.60</geoidheight><course>154.50925</course><type>1</type></trkpt>
      <trkpt lat="39.17537589077327" lon="-6.139531839297423"><ele>2097</ele><speed>13.71</speed><time>2016-06-01T13:25:13Z</time><pdop>12.0</pdop><geoidheight>50.60</geoidheight><course>153.0138</course><type>1</type></trkpt>
      <trkpt lat="39.17516813348765" lon="-6.139398067865123"><ele>2092</ele><speed>14.08</speed><time>2016-06-01T13:25:15Z</time><pdop>12.0</pdop><geoidheight>50.60</geoidheight><course>152.92137</course><type>1</type></trkpt>
      <trkpt lat="39.174887563325775" lon="-6.139215304830299"><ele>2086</ele><speed>16.65</speed><time>2016-06-01T13:25:17Z</time><pdop>12.0</pdop><geoidheight>50.60</geoidheight><course>154.65517</course><type>1</type></trkpt>
      <trkpt lat="39.1746349385088" lon="-6.139075658113039"><ele>2082</ele><speed>13.20</speed><time>2016-06-01T13:25:19Z</time><pdop>12.0</pdop><geoidheight>50.60</geoidheight><course>157.24417</course><type>1</type></trkpt>
      <trkpt lat="39.174343716106755" lon="-6.138922880110669"><ele>2076</ele><speed>11.20</speed><time>2016-06-01T13:25:22Z</time><pdop>12.0</pdop><geoidheight>50.60</geoidheight><course>153.93353</course><type>1</type></trkpt>
      <trkpt lat="39.17414273395952" lon="-6.1388181314917425"><ele>2069</ele><speed>12.71</speed><time>2016-06-01T13:25:25Z</time><pdop>12.0</pdop><geoidheight>50.60</geoidheight><course>154.30408</course><type>1</type></trkpt>
      <trkpt lat="39.1739108434064" lon="-6.138703600040315"><ele>2060</ele><speed>14.02</speed><time>2016-06-01T13:25:26Z</time><pdop>8.0</pdop><geoidheight>50.60</geoidheight><course>155.52127</course><type>1</type></trkpt>
      <trkpt lat="39.17366719057317" lon="-6.138577676249049"><ele>2052</ele><speed>13.51</speed><time>2016-06-01T13:25:28Z</time><pdop>16.0</pdop><geoidheight>50.60</geoidheight><course>155.51018</course><type>1</type></trkpt>
      <trkpt lat="39.17338745587965" lon="-6.138463704561733"><ele>2040</ele><speed>12.92</speed><time>2016-06-01T13:25:31Z</time><pdop>12.0</pdop><geoidheight>50.60</geoidheight><course>160.26881</course><type>1</type></trkpt>
      <trkpt lat="39.1731613785838" lon="-6.138373663916297"><ele>2033</ele><speed>14.10</speed><time>2016-06-01T13:25:33Z</time><pdop>8.0</pdop><geoidheight>50.60</geoidheight><course>159.69629</course><type>1</type></trkpt>
      <trkpt lat="39.17294462941877" lon="-6.138285258269294"><ele>2028</ele><speed>12.69</speed><time>2016-06-01T13:25:35Z</time><pdop>8.0</pdop><geoidheight>50.60</geoidheight><course>160.34827</course><type>1</type></trkpt>
      <trkpt lat="39.172684220716455" lon="-6.138207123457004"><ele>2023</ele><speed>13.71</speed><time>2016-06-01T13:25:38Z</time><pdop>8.0</pdop><geoidheight>50.60</geoidheight><course>164.10616</course><type>1</type></trkpt>
      <trkpt lat="39.17246041957845" lon="-6.138138055150165"><ele>2017</ele><speed>13.65</speed><time>2016-06-01T13:25:39Z</time><pdop>16.0</pdop><geoidheight>50.60</geoidheight><course>162.87573</course><type>1</type></trkpt>
      <trkpt lat="39.17214974787" lon="-6.1380449380418565"><ele>2009</ele><speed>12.54</speed><time>2016-06-01T13:25:42Z</time><pdop>8.0</pdop><geoidheight>50.60</geoidheight><course>166.23709</course><type>1</type></trkpt>
      <trkpt lat="39.171917145121775" lon="-6.137998694065488"><ele>2006</ele><speed>12.13</speed><time>2016-06-01T13:25:44Z</time><pdop>8.0</pdop><geoidheight>50.60</geoidheight><course>169.38953</course><type>1</type></trkpt>
      <trkpt lat="39.17168473254615" lon="-6.137937971360936"><ele>2003</ele><speed>12.61</speed><time>2016-06-01T13:25:46Z</time><pdop>8.0</pdop><geoidheight>50.60</geoidheight><course>166.01004</course><type>1</type></trkpt>
      <trkpt lat="39.17148010699946" lon="-6.137875185976676"><ele>1999</ele><speed>13.13</speed><time>2016-06-01T13:25:48Z</time><pdop>12.0</pdop><geoidheight>50.60</geoidheight><course>166.5154</course><type>1</type></trkpt>
      <trkpt lat="39.171258948475426" lon="-6.137805002291468"><ele>1994</ele><speed>12.42</speed><time>2016-06-01T13:25:50Z</time><pdop>12.0</pdop><geoidheight>50.60</geoidheight><course>165.37798</course><type>1</type></trkpt>
      <trkpt lat="39.17102347439563" lon="-6.1377080099305035"><ele>1990</ele><speed>12.33</speed><time>2016-06-01T13:25:52Z</time><pdop>12.0</pdop><geoidheight>50.60</geoidheight><course>160.4532</course><type>1</type></trkpt>
      <trkpt lat="39.170805959212714" lon="-6.137625715270939"><ele>1985</ele><speed>12.81</speed><time>2016-06-01T13:25:54Z</time><pdop>8.0</pdop><geoidheight>50.60</geoidheight><course>163.89894</course><type>1</type></trkpt>
      <trkpt lat="39.17050259378055" lon="-6.137552436876308"><ele>1976</ele><speed>11.93</speed><time>2016-06-01T13:25:57Z</time><pdop>16.0</pdop><geoidheight>50.60</geoidheight><course>167.99667</course><type>1</type></trkpt>
      <trkpt lat="39.170142511227304" lon="-6.1374859565835145"><ele>1971</ele><speed>12.20</speed><time>2016-06-01T13:26:00Z</time><pdop>12.0</pdop><geoidheight>50.60</geoidheight><course>169.50479</course><type>1</type></trkpt>
      <trkpt lat="39.16987044997885" lon="-6.137430759274842"><ele>1965</ele><speed>13.20</speed><time>2016-06-01T13:26:03Z</time><pdop>12.0</pdop><geoidheight>50.60</geoidheight><course>169.59634</course><type>1</type></trkpt>
      <trkpt lat="39.16951217033373" lon="-6.137392269488991"><ele>1960</ele><speed>11.57</speed><time>2016-06-01T13:26:06Z</time><pdop>16.0</pdop><geoidheight>50.60</geoidheight><course>171.7347</course><type>1</type></trkpt>
      <trkpt lat="39.169071602078255" lon="-6.137288135823429"><ele>1954</ele><speed>13.88</speed><time>2016-06-01T13:26:10Z</time><pdop>12.0</pdop><geoidheight>50.60</geoidheight><course>167.52261</course><type>1</type></trkpt>
      <trkpt lat="39.16876712776286" lon="-6.137212021321541"><ele>1945</ele><speed>12.80</speed><time>2016-06-01T13:26:13Z</time><pdop>16.0</pdop><geoidheight>50.60</geoidheight><course>165.86325</course><type>1</type></trkpt>
      <trkpt lat="39.168502719322525" lon="-6.137128717365821"><ele>1940</ele><speed>14.72</speed><time>2016-06-01T13:26:15Z</time><pdop>8.0</pdop><geoidheight>50.60</geoidheight><course>162.94827</course><type>1</type></trkpt>
      <trkpt lat="39.16821849131659" lon="-6.137040552544836"><ele>1936</ele><speed>12.49</speed><time>2016-06-01T13:26:17Z</time><pdop>24.0</pdop><geoidheight>50.60</geoidheight><course>165.73341</course><type>1</type></trkpt>
      <trkpt lat="39.16778573213572" lon="-6.136912095394508"><ele>1928</ele><speed>11.93</speed><time>2016-06-01T13:26:22Z</time><pdop>16.0</pdop><geoidheight>50.60</geoidheight><course>166.65941</course><type>1</type></trkpt>
      <trkpt lat="39.16756317288034" lon="-6.136849415675122"><ele>1925</ele><speed>12.51</speed><time>2016-06-01T13:26:23Z</time><pdop>8.0</pdop><geoidheight>50.60</geoidheight><course>168.82686</course><type>1</type></trkpt>
      <trkpt lat="39.16730057785233" lon="-6.136786749183486"><ele>1922</ele><speed>13.61</speed><time>2016-06-01T13:26:25Z</time><pdop>12.0</pdop><geoidheight>50.60</geoidheight><course>167.52667</course><type>1</type></trkpt>
      <trkpt lat="39.1669928158297" lon="-6.136693481138605"><ele>1915</ele><speed>13.07</speed><time>2016-06-01T13:26:29Z</time><pdop>12.0</pdop><geoidheight>50.60</geoidheight><course>169.2342</course><type>1</type></trkpt>
      <trkpt lat="39.16673473536582" lon="-6.136646809825041"><ele>1909</ele><speed>11.95</speed><time>2016-06-01T13:26:31Z</time><pdop>12.0</pdop><geoidheight>50.60</geoidheight><course>170.64851</course><type>1</type></trkpt>
      <trkpt lat="39.1663425276551" lon="-6.1365699303649395"><ele>1902</ele><speed>14.75</speed><time>2016-06-01T13:26:35Z</time><pdop>16.0</pdop><geoidheight>50.60</geoidheight><course>172.48676</course><type>1</type></trkpt>
      <trkpt lat="39.16597840519834" lon="-6.136562984759565"><ele>1898</ele><speed>12.09</speed><time>2016-06-01T13:26:37Z</time><pdop>12.0</pdop><geoidheight>50.60</geoidheight><course>176.31181</course><type>1</type></trkpt>
      <trkpt lat="39.16572581626551" lon="-6.136533180133804"><ele>1895</ele><speed>13.87</speed><time>2016-06-01T13:26:39Z</time><pdop>16.0</pdop><geoidheight>50.60</geoidheight><course>171.6349</course><type>1</type></trkpt>
      <trkpt lat="39.165351564069745" lon="-6.136503785838859"><ele>1889</ele><speed>11.46</speed><time>2016-06-01T13:26:43Z</time><pdop>12.0</pdop><geoidheight>50.60</geoidheight><course>178.71329</course><type>1</type></trkpt>
      <trkpt lat="39.16505462683449" lon="-6.1365175673104755"><ele>1888</ele><speed>8.97</speed><time>2016-06-01T13:26:46Z</time><pdop>12.0</pdop><geoidheight>50.60</geoidheight><course>176.36789</course><type>1</type></trkpt>
      <trkpt lat="39.1647810342111" lon="-6.136485651511432"><ele>1887</ele><speed>11.02</speed><time>2016-06-01T13:26:49Z</time><pdop>12.0</pdop><geoidheight>50.60</geoidheight><course>176.15846</course><type>1</type></trkpt>
      <trkpt lat="39.16446828936929" lon="-6.1364909275214465"><ele>1887</ele><speed>11.01</speed><time>2016-06-01T13:26:52Z</time><pdop>16.0</pdop><geoidheight>50.60</geoidheight><course>182.7166</course><type>1</type></trkpt>
      <trkpt lat="39.16408472065621" lon="-6.13655869944229"><ele>1887</ele><speed>10.41</speed><time>2016-06-01T13:26:56Z</time><pdop>12.0</pdop><geoidheight>50.60</geoidheight><course>186.56241</course><type>1</type></trkpt>
      <trkpt lat="39.163743273375395" lon="-6.136558898963112"><ele>1886</ele><speed>10.88</speed><time>2016-06-01T13:27:00Z</time><pdop>24.0</pdop><geoidheight>50.60</geoidheight><course>176.15735</course><type>1</type></trkpt>
      <trkpt lat="39.163380436976304" lon="-6.136516117542915"><ele>1884</ele><speed>11.18</speed><time>2016-06-01T13:27:04Z</time><pdop>8.0</pdop><geoidheight>50.60</geoidheight><course>186.75642</course><type>1</type></trkpt>
      <trkpt lat="39.16306968381589" lon="-6.136551538345489"><ele>1884</ele><speed>10.75</speed><time>2016-06-01T13:27:07Z</time><pdop>16.0</pdop><geoidheight>50.60</geoidheight><course>184.74306</course><type>1</type></trkpt>
      <trkpt lat="39.16275159324797" lon="-6.136655067572098"><ele>1883</ele><speed>9.99</speed><time>2016-06-01T13:27:11Z</time><pdop>16.0</pdop><geoidheight>50.60</geoidheight><course>213.90007</course><type>1</type></trkpt>
      <trkpt lat="39.16263447976191" lon="-6.137000088403669"><ele>1883</ele><speed>8.52</speed><time>2016-06-01T13:27:16Z</time><pdop>12.0</pdop><geoidheight>50.60</geoidheight><course>251.00098</course><type>1</type></trkpt>
      <trkpt lat="39.16268561325584" lon="-6.137224960718349"><ele>1880</ele><speed>8.58</speed><time>2016-06-01T13:27:18Z</time><pdop>8.0</pdop><geoidheight>50.60</geoidheight><course>293.91876</course><type>1</type></trkpt>
      <trkpt lat="39.16283583852085" lon="-6.137432212800033"><ele>1879</ele><speed>8.65</speed><time>2016-06-01T13:27:22Z</time><pdop>8.0</pdop><geoidheight>50.60</geoidheight><course>316.53943</course><type>1</type></trkpt>
      <trkpt lat="39.16302123666804" lon="-6.13753455349645"><ele>1878</ele><speed>5.68</speed><time>2016-06-01T13:27:24Z</time><pdop>8.0</pdop><geoidheight>50.60</geoidheight><course>353.68073</course><type>1</type></trkpt>
      <trkpt lat="39.16316506540744" lon="-6.137484566908977"><ele>1876</ele><speed>5.88</speed><time>2016-06-01T13:27:27Z</time><pdop>8.0</pdop><geoidheight>50.60</geoidheight><course>14.616602</course><type>1</type></trkpt>
      <trkpt lat="39.16336543003714" lon="-6.1372853647133345"><ele>1874</ele><speed>7.67</speed><time>2016-06-01T13:27:31Z</time><pdop>12.0</pdop><geoidheight>50.60</geoidheight><course>46.38447</course><type>1</type></trkpt>
      <trkpt lat="39.16344021068703" lon="-6.136957147179143"><ele>1867</ele><speed>9.64</speed><time>2016-06-01T13:27:34Z</time><pdop>8.0</pdop><geoidheight>50.60</geoidheight><course>96.1307</course><type>1</type></trkpt>
      <trkpt lat="39.16339260232315" lon="-6.136766763119842"><ele>1863</ele><speed>9.00</speed><time>2016-06-01T13:27:36Z</time><pdop>8.0</pdop><geoidheight>50.60</geoidheight><course>127.60733</course><type>1</type></trkpt>
      <trkpt lat="39.16326945125041" lon="-6.136625041660499"><ele>1860</ele><speed>9.97</speed><time>2016-06-01T13:27:38Z</time><pdop>8.0</pdop><geoidheight>50.60</geoidheight><course>152.74559</course><type>1</type></trkpt>
      <trkpt lat="39.16302996554554" lon="-6.136546593600184"><ele>1855</ele><speed>10.99</speed><time>2016-06-01T13:27:41Z</time><pdop>8.0</pdop><geoidheight>50.60</geoidheight><course>173.9266</course><type>1</type></trkpt>
      <trkpt lat="39.16274155808524" lon="-6.136490748075546"><ele>1853</ele><speed>11.36</speed><time>2016-06-01T13:27:44Z</time><pdop>8.0</pdop><geoidheight>50.60</geoidheight><course>171.68372</course><type>1</type></trkpt>
      <trkpt lat="39.1624050158854" lon="-6.136487994079024"><ele>1856</ele><speed>10.94</speed><time>2016-06-01T13:27:47Z</time><pdop>12.0</pdop><geoidheight>50.60</geoidheight><course>171.6941</course><type>1</type></trkpt>
      <trkpt lat="39.16209168109847" lon="-6.1364801013012205"><ele>1867</ele><speed>11.23</speed><time>2016-06-01T13:27:50Z</time><pdop>12.0</pdop><geoidheight>50.60</geoidheight><course>173.97217</course><type>1</type></trkpt>
      <trkpt lat="39.161866299274116" lon="-6.13648342304509"><ele>1872</ele><speed>12.31</speed><time>2016-06-01T13:27:52Z</time><pdop>12.0</pdop><geoidheight>50.60</geoidheight><course>178.14822</course><type>1</type></trkpt>
      <trkpt lat="39.16166421299513" lon="-6.136515103614586"><ele>1875</ele><speed>10.25</speed><time>2016-06-01T13:27:54Z</time><pdop>8.0</pdop><geoidheight>50.60</geoidheight><course>183.63103</course><type>1</type></trkpt>
      <trkpt lat="39.161383647444126" lon="-6.13655441867886"><ele>1878</ele><speed>10.17</speed><time>2016-06-01T13:27:57Z</time><pdop>16.0</pdop><geoidheight>50.60</geoidheight><course>181.05128</course><type>1</type></trkpt>
      <trkpt lat="39.16108088993972" lon="-6.136539455907283"><ele>1877</ele><speed>11.15</speed><time>2016-06-01T13:28:00Z</time><pdop>12.0</pdop><geoidheight>50.60</geoidheight><course>177.19359</course><type>1</type></trkpt>
      <trkpt lat="39.160796485711565" lon="-6.136523673492228"><ele>1876</ele><speed>9.95</speed><time>2016-06-01T13:28:03Z</time><pdop>16.0</pdop><geoidheight>50.60</geoidheight><course>175.04366</course><type>1</type></trkpt>
      <trkpt lat="39.16060111120668" lon="-6.136477209053828"><ele>1875</ele><speed>12.45</speed><time>2016-06-01T13:28:05Z</time><pdop>6.0</pdop><geoidheight>50.60</geoidheight><course>170.70683</course><type>1</type></trkpt>
      <trkpt lat="39.16047626580847" lon="-6.136443666066914"><ele>1874</ele><speed>13.67</speed><time>2016-06-01T13:28:06Z</time><pdop>8.0</pdop><geoidheight>50.60</geoidheight><course>171.4481</course><type>1</type></trkpt>
      <trkpt lat="39.16022328048949" lon="-6.136393475391404"><ele>1873</ele><speed>10.59</speed><time>2016-06-01T13:28:08Z</time><pdop>8.0</pdop><geoidheight>50.60</geoidheight><course>172.73477</course><type>1</type></trkpt>
      <trkpt lat="39.16001919746401" lon="-6.136356118021195"><ele>1872</ele><speed>8.51</speed><time>2016-06-01T13:28:10Z</time><pdop>8.0</pdop><geoidheight>50.60</geoidheight><course>170.13234</course><type>1</type></trkpt>
      <trkpt lat="39.159794363728295" lon="-6.136317216318333"><ele>1870</ele><speed>11.55</speed><time>2016-06-01T13:28:12Z</time><pdop>16.0</pdop><geoidheight>50.60</geoidheight><course>171.68925</course><type>1</type></trkpt>
      <trkpt lat="39.159488859537156" lon="-6.136276867392064"><ele>1863</ele><speed>11.14</speed><time>2016-06-01T13:28:16Z</time><pdop>12.0</pdop><geoidheight>50.60</geoidheight><course>172.64444</course><type>1</type></trkpt>
      <trkpt lat="39.15921678985716" lon="-6.1362493155628925"><ele>1859</ele><speed>10.56</speed><time>2016-06-01T13:28:18Z</time><pdop>12.0</pdop><geoidheight>50.60</geoidheight><course>172.8693</course><type>1</type></trkpt>
      <trkpt lat="39.15899314260676" lon="-6.13622191710234"><ele>1856</ele><speed>11.83</speed><time>2016-06-01T13:28:20Z</time><pdop>12.0</pdop><geoidheight>50.60</geoidheight><course>174.72485</course><type>1</type></trkpt>
      <trkpt lat="39.15870693099145" lon="-6.13621732900386"><ele>1854</ele><speed>9.74</speed><time>2016-06-01T13:28:23Z</time><pdop>16.0</pdop><geoidheight>50.60</geoidheight><course>179.46156</course><type>1</type></trkpt>
      <trkpt lat="39.15833150281188" lon="-6.136255642861811"><ele>1854</ele><speed>11.83</speed><time>2016-06-01T13:28:27Z</time><pdop>16.0</pdop><geoidheight>50.60</geoidheight><course>185.71925</course><type>1</type></trkpt>
      <trkpt lat="39.15795594901267" lon="-6.136307593620473"><ele>1852</ele><speed>10.88</speed><time>2016-06-01T13:28:31Z</time><pdop>16.0</pdop><geoidheight>50.60</geoidheight><course>183.87672</course><type>1</type></trkpt>
      <trkpt lat="39.157682918380814" lon="-6.13637370034107"><ele>1848</ele><speed>11.12</speed><time>2016-06-01T13:28:35Z</time><pdop>12.0</pdop><geoidheight>50.60</geoidheight><course>191.55809</course><type>1</type></trkpt>
      <trkpt lat="39.15746852347663" lon="-6.1364513627490975"><ele>1841</ele><speed>9.97</speed><time>2016-06-01T13:28:38Z</time><pdop>8.0</pdop><geoidheight>50.60</geoidheight><course>187.73639</course><type>1</type></trkpt>
      <trkpt lat="39.15727772396213" lon="-6.136482044024907"><ele>1837</ele><speed>10.97</speed><time>2016-06-01T13:28:40Z</time><pdop>8.0</pdop><geoidheight>50.60</geoidheight><course>185.9178</course><type>1</type></trkpt>
      <trkpt lat="39.15709770081581" lon="-6.136510545071518"><ele>1833</ele><speed>11.83</speed><time>2016-06-01T13:28:41Z</time><pdop>8.0</pdop><geoidheight>50.60</geoidheight><course>185.42029</course><type>1</type></trkpt>
      <trkpt lat="39.156902054019824" lon="-6.136555593445823"><ele>1829</ele><speed>10.61</speed><time>2016-06-01T13:28:43Z</time><pdop>6.0</pdop><geoidheight>50.60</geoidheight><course>187.82669</course><type>1</type></trkpt>
      <trkpt lat="39.15670953314338" lon="-6.136580201789399"><ele>1826</ele><speed>10.90</speed><time>2016-06-01T13:28:45Z</time><pdop>6.0</pdop><geoidheight>50.60</geoidheight><course>182.08472</course><type>1</type></trkpt>
      <trkpt lat="39.15650492263792" lon="-6.136581140091364"><ele>1825</ele><speed>11.87</speed><time>2016-06-01T13:28:47Z</time><pdop>8.0</pdop><geoidheight>50.60</geoidheight><course>179.79503</course><type>1</type></trkpt>
      <trkpt lat="39.15631141845437" lon="-6.136572069730616"><ele>1822</ele><speed>10.65</speed><time>2016-06-01T13:28:49Z</time><pdop>8.0</pdop><geoidheight>50.60</geoidheight><course>177.87032</course><type>1</type></trkpt>
      <trkpt lat="39.156126565043095" lon="-6.136553812283021"><ele>1822</ele><speed>10.33</speed><time>2016-06-01T13:28:52Z</time><pdop>8.0</pdop><geoidheight>50.60</geoidheight><course>176.07245</course><type>1</type></trkpt>
      <trkpt lat="39.155929845629586" lon="-6.136531403818285"><ele>1823</ele><speed>11.42</speed><time>2016-06-01T13:28:53Z</time><pdop>12.0</pdop><geoidheight>50.60</geoidheight><course>177.06456</course><type>1</type></trkpt>
      <trkpt lat="39.155728805592375" lon="-6.136518992210818"><ele>1821</ele><speed>10.96</speed><time>2016-06-01T13:28:55Z</time><pdop>8.0</pdop><geoidheight>50.60</geoidheight><course>178.48383</course><type>1</type></trkpt>
      <trkpt lat="39.155536463179736" lon="-6.136518296575137"><ele>1818</ele><speed>10.50</speed><time>2016-06-01T13:28:57Z</time><pdop>8.0</pdop><geoidheight>50.60</geoidheight><course>178.6896</course><type>1</type></trkpt>
      <trkpt lat="39.15533218779446" lon="-6.136508129849459"><ele>1814</ele><speed>12.53</speed><time>2016-06-01T13:28:59Z</time><pdop>8.0</pdop><geoidheight>50.60</geoidheight><course>176.69603</course><type>1</type></trkpt>
      <trkpt lat="39.1550678929535" lon="-6.136506922309263"><ele>1809</ele><speed>11.78</speed><time>2016-06-01T13:29:01Z</time><pdop>8.0</pdop><geoidheight>50.60</geoidheight><course>180.3906</course><type>1</type></trkpt>
      <trkpt lat="39.154836556630656" lon="-6.13651225238426"><ele>1804</ele><speed>10.97</speed><time>2016-06-01T13:29:03Z</time><pdop>12.0</pdop><geoidheight>50.60</geoidheight><course>179.29237</course><type>1</type></trkpt>
      <trkpt lat="39.15462366891971" lon="-6.136493054192873"><ele>1795</ele><speed>11.97</speed><time>2016-06-01T13:29:05Z</time><pdop>8.0</pdop><geoidheight>50.60</geoidheight><course>176.09236</course><type>1</type></trkpt>
      <trkpt lat="39.15441487839692" lon="-6.136477877631485"><ele>1787</ele><speed>11.74</speed><time>2016-06-01T13:29:07Z</time><pdop>12.0</pdop><geoidheight>50.60</geoidheight><course>175.93271</course><type>1</type></trkpt>
      <trkpt lat="39.154207276972386" lon="-6.136453509132235"><ele>1779</ele><speed>11.66</speed><time>2016-06-01T13:29:09Z</time><pdop>8.0</pdop><geoidheight>50.60</geoidheight><course>174.73973</course><type>1</type></trkpt>
      <trkpt lat="39.15400866324498" lon="-6.1364356105074815"><ele>1773</ele><speed>11.61</speed><time>2016-06-01T13:29:11Z</time><pdop>12.0</pdop><geoidheight>50.60</geoidheight><course>174.15236</course><type>1</type></trkpt>
      <trkpt lat="39.15379125508089" lon="-6.13639531018835"><ele>1768</ele><speed>12.86</speed><time>2016-06-01T13:29:13Z</time><pdop>12.0</pdop><geoidheight>50.60</geoidheight><course>170.43848</course><type>1</type></trkpt>
      <trkpt lat="39.153598645430975" lon="-6.136373425555496"><ele>1763</ele><speed>11.15</speed><time>2016-06-01T13:29:15Z</time><pdop>8.0</pdop><geoidheight>50.60</geoidheight><course>174.65346</course><type>1</type></trkpt>
      <trkpt lat="39.15341726026154" lon="-6.136360280002781"><ele>1757</ele><speed>11.87</speed><time>2016-06-01T13:29:17Z</time><pdop>12.0</pdop><geoidheight>50.60</geoidheight><course>173.40637</course><type>1</type></trkpt>
      <trkpt lat="39.15319851091288" lon="-6.136328256067623"><ele>1751</ele><speed>12.10</speed><time>2016-06-01T13:29:20Z</time><pdop>12.0</pdop><geoidheight>50.60</geoidheight><course>172.93477</course><type>1</type></trkpt>
      <trkpt lat="39.15298067937557" lon="-6.136296255620648"><ele>1742</ele><speed>10.15</speed><time>2016-06-01T13:29:22Z</time><pdop>12.0</pdop><geoidheight>50.60</geoidheight><course>173.2408</course><type>1</type></trkpt>
      <trkpt lat="39.15277218315911" lon="-6.136266064466883"><ele>1737</ele><speed>11.20</speed><time>2016-06-01T13:29:24Z</time><pdop>6.0</pdop><geoidheight>50.60</geoidheight><course>170.58035</course><type>1</type></trkpt>
      <trkpt lat="39.15255412826852" lon="-6.136190275622831"><ele>1733</ele><speed>9.41</speed><time>2016-06-01T13:29:26Z</time><pdop>8.0</pdop><geoidheight>50.60</geoidheight><course>153.49336</course><type>1</type></trkpt>
      <trkpt lat="39.152388280591715" lon="-6.1360863320279275"><ele>1730</ele><speed>8.06</speed><time>2016-06-01T13:29:29Z</time><pdop>8.0</pdop><geoidheight>50.60</geoidheight><course>148.64009</course><type>1</type></trkpt>
      <trkpt lat="39.15220513919716" lon="-6.136006503469298"><ele>1724</ele><speed>7.27</speed><time>2016-06-01T13:29:31Z</time><pdop>8.0</pdop><geoidheight>50.60</geoidheight><course>172.99533</course><type>1</type></trkpt>
      <trkpt lat="39.151960668200815" lon="-6.1359871113579025"><ele>1714</ele><speed>7.89</speed><time>2016-06-01T13:29:34Z</time><pdop>12.0</pdop><geoidheight>50.60</geoidheight><course>174.70969</course><type>1</type></trkpt>
      <trkpt lat="39.15172276352867" lon="-6.135899955598488"><ele>1700</ele><speed>8.71</speed><time>2016-06-01T13:29:38Z</time><pdop>12.0</pdop><geoidheight>50.60</geoidheight><course>155.4111</course><type>1</type></trkpt>
      <trkpt lat="39.15143373013273" lon="-6.135859823519804"><ele>1684</ele><speed>8.38</speed><time>2016-06-01T13:29:43Z</time><pdop>12.0</pdop><geoidheight>50.60</geoidheight><course>171.9524</course><type>1</type></trkpt>
      <trkpt lat="39.15119641061457" lon="-6.13582213044048"><ele>1681</ele><speed>6.86</speed><time>2016-06-01T13:29:46Z</time><pdop>6.0</pdop><geoidheight>50.60</geoidheight><course>174.94682</course><type>1</type></trkpt>
      <trkpt lat="39.15097538793793" lon="-6.135833314487493"><ele>1680</ele><speed>7.36</speed><time>2016-06-01T13:29:49Z</time><pdop>12.0</pdop><geoidheight>50.60</geoidheight><course>182.6757</course><type>1</type></trkpt>
      <trkpt lat="39.150756841287965" lon="-6.135828973686085"><ele>1671</ele><speed>6.81</speed><time>2016-06-01T13:29:53Z</time><pdop>8.0</pdop><geoidheight>50.60</geoidheight><course>163.60486</course><type>1</type></trkpt>
      <trkpt lat="39.150543360596046" lon="-6.135760067701745"><ele>1657</ele><speed>9.49</speed><time>2016-06-01T13:29:56Z</time><pdop>12.0</pdop><geoidheight>50.60</geoidheight><course>164.69489</course><type>1</type></trkpt>
      <trkpt lat="39.15030047859985" lon="-6.135648879718065"><ele>1648</ele><speed>6.43</speed><time>2016-06-01T13:30:00Z</time><pdop>16.0</pdop><geoidheight>50.60</geoidheight><course>160.66222</course><type>1</type></trkpt>
      <trkpt lat="39.150017669340514" lon="-6.135499449367755"><ele>1648</ele><speed>7.86</speed><time>2016-06-01T13:30:05Z</time><pdop>16.0</pdop><geoidheight>50.60</geoidheight><course>156.03056</course><type>1</type></trkpt>
      <trkpt lat="39.14979003253208" lon="-6.135333192743147"><ele>1648</ele><speed>6.12</speed><time>2016-06-01T13:30:09Z</time><pdop>12.0</pdop><geoidheight>50.60</geoidheight><course>154.7747</course><type>1</type></trkpt>
      <trkpt lat="39.149581289024376" lon="-6.135207354104507"><ele>1651</ele><speed>7.54</speed><time>2016-06-01T13:30:12Z</time><pdop>6.0</pdop><geoidheight>50.60</geoidheight><course>156.37527</course><type>1</type></trkpt>
      <trkpt lat="39.149437659262524" lon="-6.135124657342244"><ele>1656</ele><speed>6.87</speed><time>2016-06-01T13:30:14Z</time><pdop>8.0</pdop><geoidheight>50.60</geoidheight><course>157.7728</course><type>1</type></trkpt>
      <trkpt lat="39.14924034329005" lon="-6.135014850934514"><ele>1662</ele><speed>8.03</speed><time>2016-06-01T13:30:17Z</time><pdop>8.0</pdop><geoidheight>50.60</geoidheight><course>155.41666</course><type>1</type></trkpt>
      <trkpt lat="39.14911354572516" lon="-6.134926672834893"><ele>1665</ele><speed>8.04</speed><time>2016-06-01T13:30:19Z</time><pdop>6.0</pdop><geoidheight>50.60</geoidheight><course>152.23846</course><type>1</type></trkpt>
      <trkpt lat="39.148989727069576" lon="-6.134830893451428"><ele>1667</ele><speed>7.69</speed><time>2016-06-01T13:30:21Z</time><pdop>8.0</pdop><geoidheight>50.60</geoidheight><course>151.2285</course><type>1</type></trkpt>
      <trkpt lat="39.14879657120018" lon="-6.134705915583259"><ele>1671</ele><speed>8.03</speed><time>2016-06-01T13:30:24Z</time><pdop>12.0</pdop><geoidheight>50.60</geoidheight><course>157.09021</course><type>1</type></trkpt>
      <trkpt lat="39.14861836706085" lon="-6.134612832055126"><ele>1675</ele><speed>6.00</speed><time>2016-06-01T13:30:27Z</time><pdop>8.0</pdop><geoidheight>50.60</geoidheight><course>158.47243</course><type>1</type></trkpt>
      <trkpt lat="39.14845156757767" lon="-6.13452156090616"><ele>1677</ele><speed>7.30</speed><time>2016-06-01T13:30:30Z</time><pdop>8.0</pdop><geoidheight>50.60</geoidheight><course>158.44</course><type>1</type></trkpt>
      <trkpt lat="39.1483439908397" lon="-6.134426533359601"><ele>1677</ele><speed>7.11</speed><time>2016-06-01T13:30:32Z</time><pdop>6.0</pdop><geoidheight>50.60</geoidheight><course>134.67686</course><type>1</type></trkpt>
      <trkpt lat="39.14828155904525" lon="-6.134326210445092"><ele>1676</ele><speed>6.42</speed><time>2016-06-01T13:30:34Z</time><pdop>4.0</pdop><geoidheight>50.60</geoidheight><course>114.3478</course><type>1</type></trkpt>
      <trkpt lat="39.14822570227439" lon="-6.134152510484917"><ele>1673</ele><speed>5.72</speed><time>2016-06-01T13:30:37Z</time><pdop>8.0</pdop><geoidheight>50.60</geoidheight><course>109.593506</course><type>1</type></trkpt>
      <trkpt lat="39.14810941999466" lon="-6.133979530614052"><ele>1670</ele><speed>7.42</speed><time>2016-06-01T13:30:40Z</time><pdop>6.0</pdop><geoidheight>50.60</geoidheight><course>134.02615</course><type>1</type></trkpt>
      <trkpt lat="39.14799139472047" lon="-6.133890787492879"><ele>1669</ele><speed>8.15</speed><time>2016-06-01T13:30:42Z</time><pdop>6.0</pdop><geoidheight>50.60</geoidheight><course>151.11311</course><type>1</type></trkpt>
      <trkpt lat="39.147772395639976" lon="-6.133748968284071"><ele>1666</ele><speed>8.75</speed><time>2016-06-01T13:30:45Z</time><pdop>12.0</pdop><geoidheight>50.60</geoidheight><course>153.75739</course><type>1</type></trkpt>
      <trkpt lat="39.14754120176327" lon="-6.133624001834466"><ele>1663</ele><speed>7.29</speed><time>2016-06-01T13:30:48Z</time><pdop>8.0</pdop><geoidheight>50.60</geoidheight><course>156.06586</course><type>1</type></trkpt>
      <trkpt lat="39.14732996144752" lon="-6.1335392389185195"><ele>1659</ele><speed>7.99</speed><time>2016-06-01T13:30:51Z</time><pdop>8.0</pdop><geoidheight>50.60</geoidheight><course>160.4327</course><type>1</type></trkpt>
      <trkpt lat="39.14717436544083" lon="-6.133479900450191"><ele>1657</ele><speed>8.36</speed><time>2016-06-01T13:30:53Z</time><pdop>8.0</pdop><geoidheight>50.60</geoidheight><course>159.93143</course><type>1</type></trkpt>
      <trkpt lat="39.14702875669789" lon="-6.133425862577687"><ele>1656</ele><speed>7.30</speed><time>2016-06-01T13:30:55Z</time><pdop>8.0</pdop><geoidheight>50.60</geoidheight><course>159.12923</course><type>1</type></trkpt>
      <trkpt lat="39.1468807334461" lon="-6.1333940479107705"><ele>1655</ele><speed>8.50</speed><time>2016-06-01T13:30:57Z</time><pdop>8.0</pdop><geoidheight>50.60</geoidheight><course>175.28494</course><type>1</type></trkpt>
      <trkpt lat="39.14667486071151" lon="-6.133374642841385"><ele>1652</ele><speed>9.47</speed><time>2016-06-01T13:31:00Z</time><pdop>12.0</pdop><geoidheight>50.60</geoidheight><course>172.44318</course><type>1</type></trkpt>
      <trkpt lat="39.146382491654826" lon="-6.133384308941531"><ele>1650</ele><speed>9.71</speed><time>2016-06-01T13:31:04Z</time><pdop>16.0</pdop><geoidheight>50.60</geoidheight><course>179.54826</course><type>1</type></trkpt>
      <trkpt lat="39.14609065806504" lon="-6.133413712812061"><ele>1652</ele><speed>6.52</speed><time>2016-06-01T13:31:08Z</time><pdop>16.0</pdop><geoidheight>50.60</geoidheight><course>184.11552</course><type>1</type></trkpt>
      <trkpt lat="39.145722133078564" lon="-6.133499963446966"><ele>1656</ele><speed>7.88</speed><time>2016-06-01T13:31:12Z</time><pdop>16.0</pdop><geoidheight>50.60</geoidheight><course>190.8579</course><type>1</type></trkpt>
      <trkpt lat="39.14540966845798" lon="-6.133627436853505"><ele>1668</ele><speed>7.88</speed><time>2016-06-01T13:31:17Z</time><pdop>16.0</pdop><geoidheight>50.60</geoidheight><course>201.08363</course><type>1</type></trkpt>
      <trkpt lat="39.145386512978796" lon="-6.1340615980669435"><ele>1673</ele><speed>11.85</speed><time>2016-06-01T13:31:22Z</time><pdop>12.0</pdop><geoidheight>50.60</geoidheight><course>288.77286</course><type>1</type></trkpt>
      <trkpt lat="39.1455779053374" lon="-6.134309772018052"><ele>1684</ele><speed>6.82</speed><time>2016-06-01T13:31:24Z</time><pdop>8.0</pdop><geoidheight>50.60</geoidheight><course>331.62067</course><type>1</type></trkpt>
      <trkpt lat="39.14583548133932" lon="-6.134415029975613"><ele>1692</ele><speed>9.56</speed><time>2016-06-01T13:31:27Z</time><pdop>12.0</pdop><geoidheight>50.60</geoidheight><course>340.47446</course><type>1</type></trkpt>
      <trkpt lat="39.14592355334316" lon="-6.134104323529049"><ele>1701</ele><speed>5.53</speed><time>2016-06-01T13:31:32Z</time><pdop>12.0</pdop><geoidheight>50.60</geoidheight><course>95.306465</course><type>1</type></trkpt>
      <trkpt lat="39.14564970513747" lon="-6.133998481840433"><ele>1709</ele><speed>8.10</speed><time>2016-06-01T13:31:39Z</time><pdop>16.0</pdop><geoidheight>50.60</geoidheight><course>212.50168</course><type>1</type></trkpt>
      <trkpt lat="39.14533153710214" lon="-6.133979591388893"><ele>1712</ele><speed>5.91</speed><time>2016-06-01T13:31:44Z</time><pdop>12.0</pdop><geoidheight>50.60</geoidheight><course>167.35046</course><type>1</type></trkpt>
      <trkpt lat="39.14563450903534" lon="-6.1338806130902945"><ele>1711</ele><speed>9.94</speed><time>2016-06-01T13:31:49Z</time><pdop>16.0</pdop><geoidheight>50.60</geoidheight><course>338.71808</course><type>1</type></trkpt>
      <trkpt lat="39.14594811910134" lon="-6.133956822367361"><ele>1712</ele><speed>12.86</speed><time>2016-06-01T13:31:51Z</time><pdop>16.0</pdop><geoidheight>50.60</geoidheight><course>332.89484</course><type>1</type></trkpt>
      <trkpt lat="39.14617440538907" lon="-6.134294127922062"><ele>1723</ele><speed>13.13</speed><time>2016-06-01T13:31:54Z</time><pdop>12.0</pdop><geoidheight>50.60</geoidheight><course>284.1312</course><type>1</type></trkpt>
      <trkpt lat="39.146194807226244" lon="-6.134652450605805"><ele>1736</ele><speed>10.90</speed><time>2016-06-01T13:31:57Z</time><pdop>16.0</pdop><geoidheight>50.60</geoidheight><course>253.5171</course><type>1</type></trkpt>
      <trkpt lat="39.14595093280432" lon="-6.134978726154819"><ele>1751</ele><speed>8.21</speed><time>2016-06-01T13:32:01Z</time><pdop>8.0</pdop><geoidheight>50.60</geoidheight><course>207.15675</course><type>1</type></trkpt>
      <trkpt lat="39.14568965253247" lon="-6.135031856454929"><ele>1762</ele><speed>9.52</speed><time>2016-06-01T13:32:04Z</time><pdop>12.0</pdop><geoidheight>50.60</geoidheight><course>185.13206</course><type>1</type></trkpt>
      <trkpt lat="39.145503240195765" lon="-6.135031195509442"><ele>1769</ele><speed>10.30</speed><time>2016-06-01T13:32:06Z</time><pdop>8.0</pdop><geoidheight>50.60</geoidheight><course>181.60193</course><type>1</type></trkpt>
      <trkpt lat="39.14524074481371" lon="-6.1349783293862"><ele>1775</ele><speed>9.42</speed><time>2016-06-01T13:32:09Z</time><pdop>12.0</pdop><geoidheight>50.60</geoidheight><course>173.21748</course><type>1</type></trkpt>
      <trkpt lat="39.14495878759532" lon="-6.13489737394849"><ele>1781</ele><speed>9.97</speed><time>2016-06-01T13:32:12Z</time><pdop>12.0</pdop><geoidheight>50.60</geoidheight><course>172.05896</course><type>1</type></trkpt>
      <trkpt lat="39.14468344378259" lon="-6.134841724454533"><ele>1782</ele><speed>9.72</speed><time>2016-06-01T13:32:15Z</time><pdop>16.0</pdop><geoidheight>50.60</geoidheight><course>173.24059</course><type>1</type></trkpt>
      <trkpt lat="39.14430409157245" lon="-6.134841635474128"><ele>1782</ele><speed>10.87</speed><time>2016-06-01T13:32:19Z</time><pdop>16.0</pdop><geoidheight>50.60</geoidheight><course>181.97005</course><type>1</type></trkpt>
      <trkpt lat="39.14380095150863" lon="-6.1350333925020415"><ele>1790</ele><speed>9.95</speed><time>2016-06-01T13:32:24Z</time><pdop>12.0</pdop><geoidheight>50.60</geoidheight><course>193.48102</course><type>1</type></trkpt>
      <trkpt lat="39.14351727934586" lon="-6.1354183246634335"><ele>1800</ele><speed>11.96</speed><time>2016-06-01T13:32:29Z</time><pdop>8.0</pdop><geoidheight>50.60</geoidheight><course>242.89839</course><type>1</type></trkpt>
      <trkpt lat="39.143566393657714" lon="-6.135807557799933"><ele>1806</ele><speed>14.21</speed><time>2016-06-01T13:32:33Z</time><pdop>16.0</pdop><geoidheight>50.60</geoidheight><course>288.76245</course><type>1</type></trkpt>
      <trkpt lat="39.14366777761286" lon="-6.136083494113213"><ele>1810</ele><speed>10.74</speed><time>2016-06-01T13:32:34Z</time><pdop>8.0</pdop><geoidheight>50.60</geoidheight><course>296.6486</course><type>1</type></trkpt>
      <trkpt lat="39.14393563272072" lon="-6.136216816315369"><ele>1814</ele><speed>9.23</speed><time>2016-06-01T13:32:38Z</time><pdop>16.0</pdop><geoidheight>50.60</geoidheight><course>351.46335</course><type>1</type></trkpt>
      <trkpt lat="39.1442605636246" lon="-6.136136930496192"><ele>1813</ele><speed>8.20</speed><time>2016-06-01T13:32:42Z</time><pdop>12.0</pdop><geoidheight>50.60</geoidheight><course>35.504517</course><type>1</type></trkpt>
      <trkpt lat="39.14435923611786" lon="-6.135749871569633"><ele>1809</ele><speed>9.32</speed><time>2016-06-01T13:32:46Z</time><pdop>12.0</pdop><geoidheight>50.60</geoidheight><course>104.41024</course><type>1</type></trkpt>
      <trkpt lat="39.14415309766637" lon="-6.135388800439059"><ele>1805</ele><speed>9.22</speed><time>2016-06-01T13:32:51Z</time><pdop>24.0</pdop><geoidheight>50.60</geoidheight><course>146.18286</course><type>1</type></trkpt>
      <trkpt lat="39.14374372530733" lon="-6.135600459776793"><ele>1807</ele><speed>13.82</speed><time>2016-06-01T13:32:57Z</time><pdop>16.0</pdop><geoidheight>50.60</geoidheight><course>240.89731</course><type>1</type></trkpt>
      <trkpt lat="39.143752913138" lon="-6.136115813769598"><ele>1815</ele><speed>11.45</speed><time>2016-06-01T13:33:00Z</time><pdop>8.0</pdop><geoidheight>50.60</geoidheight><course>277.60287</course><type>1</type></trkpt>
      <trkpt lat="39.14380773061296" lon="-6.1363617181139105"><ele>1821</ele><speed>8.42</speed><time>2016-06-01T13:33:02Z</time><pdop>12.0</pdop><geoidheight>50.60</geoidheight><course>294.99326</course><type>1</type></trkpt>
      <trkpt lat="39.144059930561724" lon="-6.136630942384585"><ele>1834</ele><speed>10.32</speed><time>2016-06-01T13:33:06Z</time><pdop>16.0</pdop><geoidheight>50.60</geoidheight><course>331.9262</course><type>1</type></trkpt>
      <trkpt lat="39.14433128783302" lon="-6.136606364164665"><ele>1843</ele><speed>8.81</speed><time>2016-06-01T13:33:11Z</time><pdop>8.0</pdop><geoidheight>50.60</geoidheight><course>11.022699</course><type>1</type></trkpt>
      <trkpt lat="39.14450206891967" lon="-6.136389883010569"><ele>1845</ele><speed>10.06</speed><time>2016-06-01T13:33:13Z</time><pdop>16.0</pdop><geoidheight>50.60</geoidheight><course>69.838005</course><type>1</type></trkpt>
      <trkpt lat="39.144252386962194" lon="-6.136088221931625"><ele>1837</ele><speed>7.87</speed><time>2016-06-01T13:33:20Z</time><pdop>16.0</pdop><geoidheight>50.60</geoidheight><course>180.9303</course><type>1</type></trkpt>
      <trkpt lat="39.1440007539889" lon="-6.1360700901046545"><ele>1838</ele><speed>6.07</speed><time>2016-06-01T13:33:22Z</time><pdop>8.0</pdop><geoidheight>50.60</geoidheight><course>176.42958</course><type>1</type></trkpt>
      <trkpt lat="39.143881321471476" lon="-6.135974365665836"><ele>1840</ele><speed>6.32</speed><time>2016-06-01T13:33:25Z</time><pdop>6.0</pdop><geoidheight>50.60</geoidheight><course>119.88532</course><type>1</type></trkpt>
      <trkpt lat="39.14388758355626" lon="-6.135801947877228"><ele>1841</ele><speed>4.80</speed><time>2016-06-01T13:33:28Z</time><pdop>6.0</pdop><geoidheight>50.60</geoidheight><course>61.723434</course><type>1</type></trkpt>
      <trkpt lat="39.14397916542483" lon="-6.135637503230521"><ele>1842</ele><speed>7.10</speed><time>2016-06-01T13:33:31Z</time><pdop>8.0</pdop><geoidheight>50.60</geoidheight><course>44.46833</course><type>1</type></trkpt>
      <trkpt lat="39.14410683803891" lon="-6.135475837942826"><ele>1841</ele><speed>6.48</speed><time>2016-06-01T13:33:34Z</time><pdop>6.0</pdop><geoidheight>50.60</geoidheight><course>47.236614</course><type>1</type></trkpt>
      <trkpt lat="39.144203481253406" lon="-6.135333540659972"><ele>1840</ele><speed>9.47</speed><time>2016-06-01T13:33:36Z</time><pdop>8.0</pdop><geoidheight>50.60</geoidheight><course>51.49181</course><type>1</type></trkpt>
      <trkpt lat="39.14431638991689" lon="-6.135137584423568"><ele>1840</ele><speed>10.87</speed><time>2016-06-01T13:33:38Z</time><pdop>12.0</pdop><geoidheight>50.60</geoidheight><course>54.43703</course><type>1</type></trkpt>
      <trkpt lat="39.14449223787698" lon="-6.134839108448433"><ele>1839</ele><speed>4.92</speed><time>2016-06-01T13:33:42Z</time><pdop>16.0</pdop><geoidheight>50.60</geoidheight><course>53.8448</course><type>1</type></trkpt>
      <trkpt lat="39.14475803040323" lon="-6.134614097417358"><ele>1835</ele><speed>8.00</speed><time>2016-06-01T13:33:46Z</time><pdop>8.0</pdop><geoidheight>50.60</geoidheight><course>356.23593</course><type>1</type></trkpt>
      <trkpt lat="39.144986703212794" lon="-6.1345904464190415"><ele>1834</ele><speed>8.29</speed><time>2016-06-01T13:33:49Z</time><pdop>12.0</pdop><geoidheight>50.60</geoidheight><course>349.71567</course><type>1</type></trkpt>
      <trkpt lat="39.14526580000649" lon="-6.134670778061319"><ele>1836</ele><speed>7.07</speed><time>2016-06-01T13:33:53Z</time><pdop>16.0</pdop><geoidheight>50.60</geoidheight><course>358.0951</course><type>1</type></trkpt>
      <trkpt lat="39.14548564802981" lon="-6.134210391191696"><ele>1842</ele><speed>7.56</speed><time>2016-06-01T13:34:00Z</time><pdop>24.0</pdop><geoidheight>50.60</geoidheight><course>101.59039</course><type>1</type></trkpt>
      <trkpt lat="39.145125757443495" lon="-6.134481084476301"><ele>1860</ele><speed>9.81</speed><time>2016-06-01T13:34:08Z</time><pdop>12.0</pdop><geoidheight>50.60</geoidheight><course>260.73508</course><type>1</type></trkpt>
      <trkpt lat="39.145149335775585" lon="-6.134745199508701"><ele>1865</ele><speed>11.97</speed><time>2016-06-01T13:34:10Z</time><pdop>8.0</pdop><geoidheight>50.60</geoidheight><course>281.9427</course><type>1</type></trkpt>
      <trkpt lat="39.14525011707927" lon="-6.135009898936829"><ele>1871</ele><speed>12.06</speed><time>2016-06-01T13:34:12Z</time><pdop>8.0</pdop><geoidheight>50.60</geoidheight><course>313.41464</course><type>1</type></trkpt>
      <trkpt lat="39.14556245165788" lon="-6.135008080297716"><ele>1884</ele><speed>7.81</speed><time>2016-06-01T13:34:16Z</time><pdop>16.0</pdop><geoidheight>50.60</geoidheight><course>32.398415</course><type>1</type></trkpt>
      <trkpt lat="39.145701324585026" lon="-6.134636022551478"><ele>1890</ele><speed>9.03</speed><time>2016-06-01T13:34:21Z</time><pdop>8.0</pdop><geoidheight>50.60</geoidheight><course>96.74624</course><type>1</type></trkpt>
      <trkpt lat="39.145560339235004" lon="-6.13446810447745"><ele>1917</ele><speed>7.64</speed><time>2016-06-01T13:34:24Z</time><pdop>12.0</pdop><geoidheight>50.60</geoidheight><course>140.28596</course><type>1</type></trkpt>
      <trkpt lat="39.14522952182199" lon="-6.134542798161357"><ele>1935</ele><speed>11.51</speed><time>2016-06-01T13:34:28Z</time><pdop>16.0</pdop><geoidheight>50.60</geoidheight><course>223.88895</course><type>1</type></trkpt>
      <trkpt lat="39.145148590893484" lon="-6.134896791861162"><ele>1942</ele><speed>11.43</speed><time>2016-06-01T13:34:32Z</time><pdop>8.0</pdop><geoidheight>50.60</geoidheight><course>276.6737</course><type>1</type></trkpt>
      <trkpt lat="39.145251598767246" lon="-6.1352259286425435"><ele>1950</ele><speed>9.36</speed><time>2016-06-01T13:34:34Z</time><pdop>6.0</pdop><geoidheight>50.60</geoidheight><course>305.33966</course><type>1</type></trkpt>
      <trkpt lat="39.145365866309554" lon="-6.135374973355966"><ele>1958</ele><speed>9.89</speed><time>2016-06-01T13:34:36Z</time><pdop>6.0</pdop><geoidheight>50.60</geoidheight><course>321.05435</course><type>1</type></trkpt>
      <trkpt lat="39.145552920965514" lon="-6.1354950410226925"><ele>1969</ele><speed>7.95</speed><time>2016-06-01T13:34:39Z</time><pdop>8.0</pdop><geoidheight>50.60</geoidheight><course>359.35345</course><type>1</type></trkpt>
      <trkpt lat="39.14569364650676" lon="-6.135455632139135"><ele>1975</ele><speed>8.94</speed><time>2016-06-01T13:34:41Z</time><pdop>8.0</pdop><geoidheight>50.60</geoidheight><course>37.657036</course><type>1</type></trkpt>
      <trkpt lat="39.14582272717662" lon="-6.135234694875821"><ele>1985</ele><speed>8.45</speed><time>2016-06-01T13:34:44Z</time><pdop>8.0</pdop><geoidheight>50.60</geoidheight><course>80.79207</course><type>1</type></trkpt>
      <trkpt lat="39.145816860663466" lon="-6.135026017275823"><ele>1989</ele><speed>9.01</speed><time>2016-06-01T13:34:47Z</time><pdop>8.0</pdop><geoidheight>50.60</geoidheight><course>111.2159</course><type>1</type></trkpt>
      <trkpt lat="39.14569343881521" lon="-6.134848525308638"><ele>1994</ele><speed>7.90</speed><time>2016-06-01T13:34:49Z</time><pdop>12.0</pdop><geoidheight>50.60</geoidheight><course>162.80183</course><type>1</type></trkpt>
      <trkpt lat="39.145516178998044" lon="-6.134935464820625"><ele>2000</ele><speed>7.94</speed><time>2016-06-01T13:34:52Z</time><pdop>6.0</pdop><geoidheight>50.60</geoidheight><course>221.73595</course><type>1</type></trkpt>
      <trkpt lat="39.14543031285672" lon="-6.1351637683261355"><ele>2006</ele><speed>8.88</speed><time>2016-06-01T13:34:55Z</time><pdop>12.0</pdop><geoidheight>50.60</geoidheight><course>262.19586</course><type>1</type></trkpt>
      <trkpt lat="39.145581138524776" lon="-6.135439588593714"><ele>2011</ele><speed>9.61</speed><time>2016-06-01T13:34:58Z</time><pdop>6.0</pdop><geoidheight>50.60</geoidheight><course>313.39914</course><type>1</type></trkpt>
      <trkpt lat="39.14577871022352" lon="-6.135502178809903"><ele>2017</ele><speed>9.19</speed><time>2016-06-01T13:35:01Z</time><pdop>12.0</pdop><geoidheight>50.60</geoidheight><course>8.8721895</course><type>1</type></trkpt>
      <trkpt lat="39.14609273924214" lon="-6.135336242142076"><ele>2016</ele><speed>9.02</speed><time>2016-06-01T13:35:05Z</time><pdop>16.0</pdop><geoidheight>50.60</geoidheight><course>29.01034</course><type>1</type></trkpt>
      <trkpt lat="39.14620224584587" lon="-6.135021172189839"><ele>2015</ele><speed>9.72</speed><time>2016-06-01T13:35:08Z</time><pdop>8.0</pdop><geoidheight>50.60</geoidheight><course>98.22809</course><type>1</type></trkpt>
      <trkpt lat="39.146125265033746" lon="-6.134819543745569"><ele>2018</ele><speed>8.74</speed><time>2016-06-01T13:35:11Z</time><pdop>8.0</pdop><geoidheight>50.60</geoidheight><course>147.14761</course><type>1</type></trkpt>
      <trkpt lat="39.145936400852094" lon="-6.134802327875731"><ele>2020</ele><speed>8.48</speed><time>2016-06-01T13:35:14Z</time><pdop>12.0</pdop><geoidheight>50.60</geoidheight><course>202.86961</course><type>1</type></trkpt>
      <trkpt lat="39.14579033398776" lon="-6.134939542722015"><ele>2023</ele><speed>10.10</speed><time>2016-06-01T13:35:16Z</time><pdop>8.0</pdop><geoidheight>50.60</geoidheight><course>207.81682</course><type>1</type></trkpt>
      <trkpt lat="39.14570911202713" lon="-6.135233351592576"><ele>2032</ele><speed>7.95</speed><time>2016-06-01T13:35:21Z</time><pdop>12.0</pdop><geoidheight>50.60</geoidheight><course>302.44543</course><type>1</type></trkpt>
      <trkpt lat="39.14590883383519" lon="-6.135461894435371"><ele>2044</ele><speed>10.36</speed><time>2016-06-01T13:35:23Z</time><pdop>8.0</pdop><geoidheight>50.60</geoidheight><course>341.99335</course><type>1</type></trkpt>
      <trkpt lat="39.146092073628296" lon="-6.135445623407069"><ele>2051</ele><speed>11.14</speed><time>2016-06-01T13:35:25Z</time><pdop>8.0</pdop><geoidheight>50.60</geoidheight><course>19.16733</course><type>1</type></trkpt>
      <trkpt lat="39.14623996822362" lon="-6.135340970849122"><ele>2056</ele><speed>8.95</speed><time>2016-06-01T13:35:27Z</time><pdop>8.0</pdop><geoidheight>50.60</geoidheight><course>35.718426</course><type>1</type></trkpt>
      <trkpt lat="39.146308004838126" lon="-6.1351543383743135"><ele>2062</ele><speed>8.75</speed><time>2016-06-01T13:35:29Z</time><pdop>8.0</pdop><geoidheight>50.60</geoidheight><course>79.38939</course><type>1</type></trkpt>
      <trkpt lat="39.14630730394594" lon="-6.134967694358336"><ele>2067</ele><speed>9.81</speed><time>2016-06-01T13:35:32Z</time><pdop>8.0</pdop><geoidheight>50.60</geoidheight><course>104.3551</course><type>1</type></trkpt>
      <trkpt lat="39.146137884093164" lon="-6.134779157101783"><ele>2070</ele><speed>10.41</speed><time>2016-06-01T13:35:34Z</time><pdop>8.0</pdop><geoidheight>50.60</geoidheight><course>161.28964</course><type>1</type></trkpt>
      <trkpt lat="39.145959591678725" lon="-6.134787606298341"><ele>2071</ele><speed>8.95</speed><time>2016-06-01T13:35:36Z</time><pdop>8.0</pdop><geoidheight>50.60</geoidheight><course>199.25499</course><type>1</type></trkpt>
      <trkpt lat="39.14585853106796" lon="-6.13488813621482"><ele>2074</ele><speed>8.81</speed><time>2016-06-01T13:35:38Z</time><pdop>6.0</pdop><geoidheight>50.60</geoidheight><course>235.8422</course><type>1</type></trkpt>
      <trkpt lat="39.14579230847312" lon="-6.135045676155376"><ele>2077</ele><speed>7.37</speed><time>2016-06-01T13:35:40Z</time><pdop>6.0</pdop><geoidheight>50.60</geoidheight><course>254.28127</course><type>1</type></trkpt>
      <trkpt lat="39.14579005292025" lon="-6.135209135949536"><ele>2080</ele><speed>7.42</speed><time>2016-06-01T13:35:42Z</time><pdop>8.0</pdop><geoidheight>50.60</geoidheight><course>283.14706</course><type>1</type></trkpt>
      <trkpt lat="39.145863815995824" lon="-6.135379700023351"><ele>2083</ele><speed>9.54</speed><time>2016-06-01T13:35:44Z</time><pdop>6.0</pdop><geoidheight>50.60</geoidheight><course>311.71445</course><type>1</type></trkpt>
      <trkpt lat="39.146017414582936" lon="-6.135463055974272"><ele>2084</ele><speed>9.82</speed><time>2016-06-01T13:35:46Z</time><pdop>12.0</pdop><geoidheight>50.60</geoidheight><course>348.44403</course><type>1</type></trkpt>
      <trkpt lat="39.146218707910585" lon="-6.135395125878446"><ele>2084</ele><speed>8.68</speed><time>2016-06-01T13:35:49Z</time><pdop>8.0</pdop><geoidheight>50.60</geoidheight><course>41.074745</course><type>1</type></trkpt>
      <trkpt lat="39.14630833709906" lon="-6.135247349383473"><ele>2086</ele><speed>8.98</speed><time>2016-06-01T13:35:51Z</time><pdop>8.0</pdop><geoidheight>50.60</geoidheight><course>60.70884</course><type>1</type></trkpt>
      <trkpt lat="39.14634251729752" lon="-6.135048520859289"><ele>2088</ele><speed>9.17</speed><time>2016-06-01T13:35:53Z</time><pdop>6.0</pdop><geoidheight>50.60</geoidheight><course>94.297745</course><type>1</type></trkpt>
      <trkpt lat="39.14627898172468" lon="-6.134850942601651"><ele>2089</ele><speed>10.29</speed><time>2016-06-01T13:35:55Z</time><pdop>6.0</pdop><geoidheight>50.60</geoidheight><course>129.25014</course><type>1</type></trkpt>
      <trkpt lat="39.14611052224294" lon="-6.134744236914005"><ele>2088</ele><speed>10.87</speed><time>2016-06-01T13:35:57Z</time><pdop>8.0</pdop><geoidheight>50.60</geoidheight><course>166.59172</course><type>1</type></trkpt>
      <trkpt lat="39.145948904497125" lon="-6.134868551343248"><ele>2087</ele><speed>8.26</speed><time>2016-06-01T13:36:00Z</time><pdop>8.0</pdop><geoidheight>50.60</geoidheight><course>245.96974</course><type>1</type></trkpt>
      <trkpt lat="39.14592195643286" lon="-6.1351329357712885"><ele>2085</ele><speed>7.32</speed><time>2016-06-01T13:36:03Z</time><pdop>8.0</pdop><geoidheight>50.60</geoidheight><course>269.51175</course><type>1</type></trkpt>
      <trkpt lat="39.14598963499397" lon="-6.135329166039721"><ele>2085</ele><speed>8.45</speed><time>2016-06-01T13:36:06Z</time><pdop>8.0</pdop><geoidheight>50.60</geoidheight><course>299.95227</course><type>1</type></trkpt>
      <trkpt lat="39.14606501895508" lon="-6.135483194557164"><ele>2087</ele><speed>8.99</speed><time>2016-06-01T13:36:07Z</time><pdop>6.0</pdop><geoidheight>50.60</geoidheight><course>306.39325</course><type>1</type></trkpt>
      <trkpt lat="39.146148759414025" lon="-6.135628035828734"><ele>2089</ele><speed>8.06</speed><time>2016-06-01T13:36:09Z</time><pdop>6.0</pdop><geoidheight>50.60</geoidheight><course>308.8946</course><type>1</type></trkpt>
      <trkpt lat="39.146239255220664" lon="-6.1357719780804265"><ele>2091</ele><speed>8.58</speed><time>2016-06-01T13:36:11Z</time><pdop>6.0</pdop><geoidheight>50.60</geoidheight><course>308.57352</course><type>1</type></trkpt>
      <trkpt lat="39.1463355191798" lon="-6.135937486892403"><ele>2091</ele><speed>8.63</speed><time>2016-06-01T13:36:13Z</time><pdop>6.0</pdop><geoidheight>50.60</geoidheight><course>304.2621</course><type>1</type></trkpt>
      <trkpt lat="39.1464173743616" lon="-6.136103128130379"><ele>2093</ele><speed>7.00</speed><time>2016-06-01T13:36:15Z</time><pdop>4.0</pdop><geoidheight>50.60</geoidheight><course>303.01425</course><type>1</type></trkpt>
      <trkpt lat="39.14645944712284" lon="-6.136179303351688"><ele>2094</ele><speed>6.93</speed><time>2016-06-01T13:36:16Z</time><pdop>4.0</pdop><geoidheight>50.60</geoidheight><course>305.56696</course><type>1</type></trkpt>
      <trkpt lat="39.14650591603672" lon="-6.136252043780346"><ele>2095</ele><speed>7.63</speed><time>2016-06-01T13:36:17Z</time><pdop>4.0</pdop><geoidheight>50.60</geoidheight><course>308.72043</course><type>1</type></trkpt>
      <trkpt lat="39.14660342801496" lon="-6.136387086920516"><ele>2097</ele><speed>8.10</speed><time>2016-06-01T13:36:19Z</time><pdop>6.0</pdop><geoidheight>50.60</geoidheight><course>312.73352</course><type>1</type></trkpt>
      <trkpt lat="39.14671403218475" lon="-6.136519725484756"><ele>2098</ele><speed>8.94</speed><time>2016-06-01T13:36:21Z</time><pdop>6.0</pdop><geoidheight>50.60</geoidheight><course>316.06094</course><type>1</type></trkpt>
      <trkpt lat="39.146898140557795" lon="-6.13671769921406"><ele>2098</ele><speed>9.24</speed><time>2016-06-01T13:36:24Z</time><pdop>4.0</pdop><geoidheight>50.60</geoidheight><course>318.92905</course><type>1</type></trkpt>
      <trkpt lat="39.146970519856005" lon="-6.136785332130727"><ele>2097</ele><speed>10.45</speed><time>2016-06-01T13:36:25Z</time><pdop>4.0</pdop><geoidheight>50.60</geoidheight><course>321.67926</course><type>1</type></trkpt>
      <trkpt lat="39.14705075024545" lon="-6.136850603606155"><ele>2097</ele><speed>11.41</speed><time>2016-06-01T13:36:26Z</time><pdop>4.0</pdop><geoidheight>50.60</geoidheight><course>325.0038</course><type>1</type></trkpt>
      <trkpt lat="39.14713441313991" lon="-6.136911839075142"><ele>2096</ele><speed>10.93</speed><time>2016-06-01T13:36:27Z</time><pdop>6.0</pdop><geoidheight>50.60</geoidheight><course>326.97986</course><type>1</type></trkpt>
      <trkpt lat="39.14728070698598" lon="-6.137019965887605"><ele>2096</ele><speed>8.07</speed><time>2016-06-01T13:36:29Z</time><pdop>6.0</pdop><geoidheight>50.60</geoidheight><course>328.24423</course><type>1</type></trkpt>
      <trkpt lat="39.147544231382874" lon="-6.137060525327026"><ele>2093</ele><speed>10.73</speed><time>2016-06-01T13:36:33Z</time><pdop>12.0</pdop><geoidheight>50.60</geoidheight><course>346.88635</course><type>1</type></trkpt>
      <trkpt lat="39.14772394840636" lon="-6.136865798498766"><ele>2089</ele><speed>7.35</speed><time>2016-06-01T13:36:35Z</time><pdop>12.0</pdop><geoidheight>50.60</geoidheight><course>78.00256</course><type>1</type></trkpt>
      <trkpt lat="39.14765961783212" lon="-6.136602206372874"><ele>2086</ele><speed>9.73</speed><time>2016-06-01T13:36:38Z</time><pdop>8.0</pdop><geoidheight>50.60</geoidheight><course>129.39317</course><type>1</type></trkpt>
      <trkpt lat="39.14749015158368" lon="-6.136486262853172"><ele>2082</ele><speed>9.81</speed><time>2016-06-01T13:36:40Z</time><pdop>8.0</pdop><geoidheight>50.60</geoidheight><course>162.47723</course><type>1</type></trkpt>
      <trkpt lat="39.147316009815675" lon="-6.136495748406204"><ele>2078</ele><speed>9.98</speed><time>2016-06-01T13:36:43Z</time><pdop>6.0</pdop><geoidheight>50.60</geoidheight><course>195.85399</course><type>1</type></trkpt>
      <trkpt lat="39.14714816581153" lon="-6.1366319471633135"><ele>2073</ele><speed>7.20</speed><time>2016-06-01T13:36:45Z</time><pdop>16.0</pdop><geoidheight>50.60</geoidheight><course>237.0969</course><type>1</type></trkpt>
      <trkpt lat="39.14706991534521" lon="-6.136913690423322"><ele>2072</ele><speed>8.57</speed><time>2016-06-01T13:36:48Z</time><pdop>8.0</pdop><geoidheight>50.60</geoidheight><course>257.8688</course><type>1</type></trkpt>
      <trkpt lat="39.14704737501681" lon="-6.137148729370083"><ele>2073</ele><speed>6.96</speed><time>2016-06-01T13:36:51Z</time><pdop>8.0</pdop><geoidheight>50.60</geoidheight><course>265.18408</course><type>1</type></trkpt>
      <trkpt lat="39.14704619803687" lon="-6.137421034414964"><ele>2069</ele><speed>9.76</speed><time>2016-06-01T13:36:54Z</time><pdop>12.0</pdop><geoidheight>50.60</geoidheight><course>264.82465</course><type>1</type></trkpt>
      <trkpt lat="39.147077721489794" lon="-6.137739416321239"><ele>2064</ele><speed>9.34</speed><time>2016-06-01T13:36:57Z</time><pdop>12.0</pdop><geoidheight>50.60</geoidheight><course>275.00107</course><type>1</type></trkpt>
      <trkpt lat="39.147131529250586" lon="-6.1379957963239695"><ele>2061</ele><speed>10.64</speed><time>2016-06-01T13:36:59Z</time><pdop>8.0</pdop><geoidheight>50.60</geoidheight><course>280.19778</course><type>1</type></trkpt>
      <trkpt lat="39.147189757920245" lon="-6.1382266896437345"><ele>2059</ele><speed>9.58</speed><time>2016-06-01T13:37:01Z</time><pdop>12.0</pdop><geoidheight>50.60</geoidheight><course>286.28555</course><type>1</type></trkpt>
      <trkpt lat="39.14730503855542" lon="-6.138544812267795"><ele>2057</ele><speed>10.04</speed><time>2016-06-01T13:37:04Z</time><pdop>12.0</pdop><geoidheight>50.60</geoidheight><course>294.6838</course><type>1</type></trkpt>
      <trkpt lat="39.147449484939166" lon="-6.138830914558423"><ele>2056</ele><speed>10.23</speed><time>2016-06-01T13:37:08Z</time><pdop>12.0</pdop><geoidheight>50.60</geoidheight><course>303.89926</course><type>1</type></trkpt>
      <trkpt lat="39.147604006743954" lon="-6.139055985795748"><ele>2055</ele><speed>8.45</speed><time>2016-06-01T13:37:10Z</time><pdop>6.0</pdop><geoidheight>50.60</geoidheight><course>314.06927</course><type>1</type></trkpt>
      <trkpt lat="39.14780830214109" lon="-6.139252067168395"><ele>2052</ele><speed>10.23</speed><time>2016-06-01T13:37:13Z</time><pdop>16.0</pdop><geoidheight>50.60</geoidheight><course>323.02823</course><type>1</type></trkpt>
      <trkpt lat="39.148049269613246" lon="-6.139429506976066"><ele>2042</ele><speed>10.73</speed><time>2016-06-01T13:37:16Z</time><pdop>12.0</pdop><geoidheight>50.60</geoidheight><course>328.5271</course><type>1</type></trkpt>
      <trkpt lat="39.14826068644508" lon="-6.139536123674939"><ele>2035</ele><speed>9.95</speed><time>2016-06-01T13:37:19Z</time><pdop>6.0</pdop><geoidheight>50.60</geoidheight><course>353.16833</course><type>1</type></trkpt>
      <trkpt lat="39.14841278534629" lon="-6.139513248571862"><ele>2030</ele><speed>9.17</speed><time>2016-06-01T13:37:21Z</time><pdop>6.0</pdop><geoidheight>50.60</geoidheight><course>17.905111</course><type>1</type></trkpt>
      <trkpt lat="39.148555820302334" lon="-6.1392716358767885"><ele>2020</ele><speed>9.58</speed><time>2016-06-01T13:37:24Z</time><pdop>12.0</pdop><geoidheight>50.60</geoidheight><course>74.61001</course><type>1</type></trkpt>
      <trkpt lat="39.148463936521985" lon="-6.13894264884667"><ele>2012</ele><speed>11.30</speed><time>2016-06-01T13:37:28Z</time><pdop>12.0</pdop><geoidheight>50.60</geoidheight><course>127.97705</course><type>1</type></trkpt>
      <trkpt lat="39.148227023938205" lon="-6.138781761465706"><ele>2003</ele><speed>10.74</speed><time>2016-06-01T13:37:30Z</time><pdop>12.0</pdop><geoidheight>50.60</geoidheight><course>161.21942</course><type>1</type></trkpt>
      <trkpt lat="39.14804174463155" lon="-6.138748460488886"><ele>1999</ele><speed>10.66</speed><time>2016-06-01T13:37:32Z</time><pdop>8.0</pdop><geoidheight>50.60</geoidheight><course>175.29408</course><type>1</type></trkpt>
      <trkpt lat="39.147823850850784" lon="-6.138710310495258"><ele>1995</ele><speed>11.60</speed><time>2016-06-01T13:37:35Z</time><pdop>8.0</pdop><geoidheight>50.60</geoidheight><course>172.51027</course><type>1</type></trkpt>
      <trkpt lat="39.14762362642461" lon="-6.138671863075971"><ele>1987</ele><speed>11.44</speed><time>2016-06-01T13:37:36Z</time><pdop>6.0</pdop><geoidheight>50.60</geoidheight><course>169.9987</course><type>1</type></trkpt>
      <trkpt lat="39.14743495106873" lon="-6.138657807558244"><ele>1979</ele><speed>10.74</speed><time>2016-06-01T13:37:38Z</time><pdop>6.0</pdop><geoidheight>50.60</geoidheight><course>173.60413</course><type>1</type></trkpt>
      <trkpt lat="39.14727038755725" lon="-6.13863703999623"><ele>1973</ele><speed>9.90</speed><time>2016-06-01T13:37:40Z</time><pdop>12.0</pdop><geoidheight>50.60</geoidheight><course>170.94167</course><type>1</type></trkpt>
      <trkpt lat="39.147019737494745" lon="-6.138587988020212"><ele>1968</ele><speed>7.21</speed><time>2016-06-01T13:37:43Z</time><pdop>8.0</pdop><geoidheight>50.60</geoidheight><course>172.33882</course><type>1</type></trkpt>
      <trkpt lat="39.146860514433456" lon="-6.138579472236446"><ele>1964</ele><speed>7.98</speed><time>2016-06-01T13:37:45Z</time><pdop>8.0</pdop><geoidheight>50.60</geoidheight><course>178.16008</course><type>1</type></trkpt>
      <trkpt lat="39.1466778207548" lon="-6.138617214451215"><ele>1959</ele><speed>8.14</speed><time>2016-06-01T13:37:48Z</time><pdop>8.0</pdop><geoidheight>50.60</geoidheight><course>188.13927</course><type>1</type></trkpt>
      <trkpt lat="39.146534994347256" lon="-6.13867473786095"><ele>1956</ele><speed>8.66</speed><time>2016-06-01T13:37:50Z</time><pdop>4.0</pdop><geoidheight>50.60</geoidheight><course>191.61751</course><type>1</type></trkpt>
      <trkpt lat="39.146296228152785" lon="-6.138758261874637"><ele>1953</ele><speed>9.45</speed><time>2016-06-01T13:37:53Z</time><pdop>8.0</pdop><geoidheight>50.60</geoidheight><course>192.69563</course><type>1</type></trkpt>
      <trkpt lat="39.14613223131343" lon="-6.138804903997566"><ele>1952</ele><speed>8.62</speed><time>2016-06-01T13:37:55Z</time><pdop>8.0</pdop><geoidheight>50.60</geoidheight><course>192.86057</course><type>1</type></trkpt>
      <trkpt lat="39.14599112227534" lon="-6.13885596668435"><ele>1951</ele><speed>8.17</speed><time>2016-06-01T13:37:57Z</time><pdop>8.0</pdop><geoidheight>50.60</geoidheight><course>194.82314</course><type>1</type></trkpt>
      <trkpt lat="39.14583645809798" lon="-6.1389207501585945"><ele>1951</ele><speed>9.56</speed><time>2016-06-01T13:37:59Z</time><pdop>6.0</pdop><geoidheight>50.60</geoidheight><course>197.70918</course><type>1</type></trkpt>
      <trkpt lat="39.14566885066846" lon="-6.1390005581299345"><ele>1951</ele><speed>9.98</speed><time>2016-06-01T13:38:01Z</time><pdop>12.0</pdop><geoidheight>50.60</geoidheight><course>200.038</course><type>1</type></trkpt>
      <trkpt lat="39.145436893300115" lon="-6.139127580080116"><ele>1951</ele><speed>8.78</speed><time>2016-06-01T13:38:04Z</time><pdop>6.0</pdop><geoidheight>50.60</geoidheight><course>202.7063</course><type>1</type></trkpt>
      <trkpt lat="39.14529551260521" lon="-6.139206967668308"><ele>1949</ele><speed>8.16</speed><time>2016-06-01T13:38:06Z</time><pdop>4.0</pdop><geoidheight>50.60</geoidheight><course>201.3824</course><type>1</type></trkpt>
      <trkpt lat="39.145163402190725" lon="-6.139268275695603"><ele>1949</ele><speed>7.79</speed><time>2016-06-01T13:38:08Z</time><pdop>6.0</pdop><geoidheight>50.60</geoidheight><course>198.01999</course><type>1</type></trkpt>
      <trkpt lat="39.14502245955315" lon="-6.139314832742813"><ele>1949</ele><speed>8.66</speed><time>2016-06-01T13:38:10Z</time><pdop>6.0</pdop><geoidheight>50.60</geoidheight><course>194.35434</course><type>1</type></trkpt>
      <trkpt lat="39.1448681742845" lon="-6.1393716915778915"><ele>1948</ele><speed>8.85</speed><time>2016-06-01T13:38:12Z</time><pdop>6.0</pdop><geoidheight>50.60</geoidheight><course>197.24005</course><type>1</type></trkpt>
      <trkpt lat="39.14466860301578" lon="-6.139451986554136"><ele>1947</ele><speed>7.22</speed><time>2016-06-01T13:38:15Z</time><pdop>12.0</pdop><geoidheight>50.60</geoidheight><course>195.42174</course><type>1</type></trkpt>
      <trkpt lat="39.144481213373105" lon="-6.139566249941084"><ele>1948</ele><speed>9.06</speed><time>2016-06-01T13:38:18Z</time><pdop>6.0</pdop><geoidheight>50.60</geoidheight><course>213.22406</course><type>1</type></trkpt>
      <trkpt lat="39.14434827530223" lon="-6.139700741678872"><ele>1947</ele><speed>8.60</speed><time>2016-06-01T13:38:21Z</time><pdop>6.0</pdop><geoidheight>50.60</geoidheight><course>220.21294</course><type>1</type></trkpt>
      <trkpt lat="39.14419539647607" lon="-6.139896426204418"><ele>1948</ele><speed>9.25</speed><time>2016-06-01T13:38:23Z</time><pdop>12.0</pdop><geoidheight>50.60</geoidheight><course>224.31932</course><type>1</type></trkpt>
      <trkpt lat="39.1439878794769" lon="-6.140097428252072"><ele>1950</ele><speed>9.02</speed><time>2016-06-01T13:38:26Z</time><pdop>8.0</pdop><geoidheight>50.60</geoidheight><course>215.84323</course><type>1</type></trkpt>
      <trkpt lat="39.14375376176762" lon="-6.140230673321292"><ele>1949</ele><speed>10.04</speed><time>2016-06-01T13:38:30Z</time><pdop>6.0</pdop><geoidheight>50.60</geoidheight><course>194.25856</course><type>1</type></trkpt>
      <trkpt lat="39.14359896728602" lon="-6.140233070303122"><ele>1949</ele><speed>7.78</speed><time>2016-06-01T13:38:31Z</time><pdop>8.0</pdop><geoidheight>50.60</geoidheight><course>167.16182</course><type>1</type></trkpt>
      <trkpt lat="39.14346077720451" lon="-6.14030281238927"><ele>1950</ele><speed>7.69</speed><time>2016-06-01T13:38:34Z</time><pdop>8.0</pdop><geoidheight>50.60</geoidheight><course>202.58717</course><type>1</type></trkpt>
      <trkpt lat="39.143278760773775" lon="-6.140356275062003"><ele>1950</ele><speed>10.81</speed><time>2016-06-01T13:38:36Z</time><pdop>6.0</pdop><geoidheight>50.60</geoidheight><course>184.49643</course><type>1</type></trkpt>
      <trkpt lat="39.1430862522825" lon="-6.1403754923718035"><ele>1952</ele><speed>8.96</speed><time>2016-06-01T13:38:39Z</time><pdop>6.0</pdop><geoidheight>50.60</geoidheight><course>184.46677</course><type>1</type></trkpt>
      <trkpt lat="39.14292575063407" lon="-6.140394622259337"><ele>1956</ele><speed>8.45</speed><time>2016-06-01T13:38:40Z</time><pdop>6.0</pdop><geoidheight>50.60</geoidheight><course>188.59737</course><type>1</type></trkpt>
      <trkpt lat="39.142770734265625" lon="-6.140473210606762"><ele>1960</ele><speed>10.21</speed><time>2016-06-01T13:38:42Z</time><pdop>6.0</pdop><geoidheight>50.60</geoidheight><course>210.25221</course><type>1</type></trkpt>
      <trkpt lat="39.142654282848255" lon="-6.140651747201956"><ele>1964</ele><speed>10.20</speed><time>2016-06-01T13:38:44Z</time><pdop>8.0</pdop><geoidheight>50.60</geoidheight><course>232.22028</course><type>1</type></trkpt>
      <trkpt lat="39.142621344667134" lon="-6.140865386243454"><ele>1968</ele><speed>9.84</speed><time>2016-06-01T13:38:46Z</time><pdop>8.0</pdop><geoidheight>50.60</geoidheight><course>269.8143</course><type>1</type></trkpt>
      <trkpt lat="39.14269726200688" lon="-6.141035256161078"><ele>1972</ele><speed>9.51</speed><time>2016-06-01T13:38:49Z</time><pdop>8.0</pdop><geoidheight>50.60</geoidheight><course>312.47623</course><type>1</type></trkpt>
      <trkpt lat="39.142875983192425" lon="-6.141094074860394"><ele>1975</ele><speed>10.21</speed><time>2016-06-01T13:38:51Z</time><pdop>8.0</pdop><geoidheight>50.60</geoidheight><course>1.2209548</course><type>1</type></trkpt>
      <trkpt lat="39.143040194056354" lon="-6.141016536894001"><ele>1978</ele><speed>9.60</speed><time>2016-06-01T13:38:53Z</time><pdop>8.0</pdop><geoidheight>50.60</geoidheight><course>32.721077</course><type>1</type></trkpt>
      <trkpt lat="39.14317878347039" lon="-6.140773275736048"><ele>1979</ele><speed>8.38</speed><time>2016-06-01T13:38:56Z</time><pdop>12.0</pdop><geoidheight>50.60</geoidheight><course>83.11587</course><type>1</type></trkpt>
      <trkpt lat="39.14306288140269" lon="-6.14052937890237"><ele>1983</ele><speed>10.68</speed><time>2016-06-01T13:38:59Z</time><pdop>12.0</pdop><geoidheight>50.60</geoidheight><course>145.69421</course><type>1</type></trkpt>
      <trkpt lat="39.142830713196496" lon="-6.14053855771449"><ele>1989</ele><speed>9.96</speed><time>2016-06-01T13:39:01Z</time><pdop>6.0</pdop><geoidheight>50.60</geoidheight><course>207.97086</course><type>1</type></trkpt>
      <trkpt lat="39.14271439764662" lon="-6.140677519713344"><ele>1994</ele><speed>9.92</speed><time>2016-06-01T13:39:04Z</time><pdop>8.0</pdop><geoidheight>50.60</geoidheight><course>233.95358</course><type>1</type></trkpt>
      <trkpt lat="39.14266531720649" lon="-6.140867776403763"><ele>1996</ele><speed>9.47</speed><time>2016-06-01T13:39:06Z</time><pdop>8.0</pdop><geoidheight>50.60</geoidheight><course>271.78763</course><type>1</type></trkpt>
      <trkpt lat="39.14274411020544" lon="-6.141090243776148"><ele>2002</ele><speed>9.41</speed><time>2016-06-01T13:39:09Z</time><pdop>8.0</pdop><geoidheight>50.60</geoidheight><course>312.88562</course><type>1</type></trkpt>
      <trkpt lat="39.14297065703777" lon="-6.141228167778447"><ele>2007</ele><speed>11.94</speed><time>2016-06-01T13:39:12Z</time><pdop>12.0</pdop><geoidheight>50.60</geoidheight><course>334.47375</course><type>1</type></trkpt>
      <trkpt lat="39.14310858817563" lon="-6.141001040305167"><ele>2007</ele><speed>9.11</speed><time>2016-06-01T13:39:14Z</time><pdop>8.0</pdop><geoidheight>50.60</geoidheight><course>65.50557</course><type>1</type></trkpt>
      <trkpt lat="39.14311776223059" lon="-6.140797947086655"><ele>2009</ele><speed>7.77</speed><time>2016-06-01T13:39:16Z</time><pdop>8.0</pdop><geoidheight>50.60</geoidheight><course>85.78473</course><type>1</type></trkpt>
      <trkpt lat="39.143075204764315" lon="-6.14061096737334"><ele>2014</ele><speed>8.47</speed><time>2016-06-01T13:39:18Z</time><pdop>8.0</pdop><geoidheight>50.60</geoidheight><course>104.88303</course><type>1</type></trkpt>
      <trkpt lat="39.14298159757287" lon="-6.14045343444413"><ele>2017</ele><speed>9.23</speed><time>2016-06-01T13:39:20Z</time><pdop>8.0</pdop><geoidheight>50.60</geoidheight><course>140.59227</course><type>1</type></trkpt>
      <trkpt lat="39.142834788451" lon="-6.140393609841008"><ele>2020</ele><speed>10.69</speed><time>2016-06-01T13:39:22Z</time><pdop>6.0</pdop><geoidheight>50.60</geoidheight><course>171.91528</course><type>1</type></trkpt>
      <trkpt lat="39.142682215973096" lon="-6.140444068245586"><ele>2024</ele><speed>8.96</speed><time>2016-06-01T13:39:24Z</time><pdop>8.0</pdop><geoidheight>50.60</geoidheight><course>196.69113</course><type>1</type></trkpt>
      <trkpt lat="39.14252335513517" lon="-6.140734739941365"><ele>2030</ele><speed>9.98</speed><time>2016-06-01T13:39:28Z</time><pdop>16.0</pdop><geoidheight>50.60</geoidheight><course>256.67175</course><type>1</type></trkpt>
      <trkpt lat="39.14249190343203" lon="-6.14104248233623"><ele>2033</ele><speed>9.44</speed><time>2016-06-01T13:39:31Z</time><pdop>6.0</pdop><geoidheight>50.60</geoidheight><course>280.12067</course><type>1</type></trkpt>
      <trkpt lat="39.14254956412521" lon="-6.141206151300298"><ele>2036</ele><speed>8.39</speed><time>2016-06-01T13:39:32Z</time><pdop>8.0</pdop><geoidheight>50.60</geoidheight><course>309.98535</course><type>1</type></trkpt>
      <trkpt lat="39.142761796854664" lon="-6.141312845871453"><ele>2039</ele><speed>9.94</speed><time>2016-06-01T13:39:36Z</time><pdop>12.0</pdop><geoidheight>50.60</geoidheight><course>351.4835</course><type>1</type></trkpt>
      <trkpt lat="39.14296387065061" lon="-6.141195752923086"><ele>2041</ele><speed>8.59</speed><time>2016-06-01T13:39:39Z</time><pdop>8.0</pdop><geoidheight>50.60</geoidheight><course>53.701427</course><type>1</type></trkpt>
      <trkpt lat="39.14297683382035" lon="-6.140943027167959"><ele>2045</ele><speed>8.89</speed><time>2016-06-01T13:39:42Z</time><pdop>12.0</pdop><geoidheight>50.60</geoidheight><course>100.17086</course><type>1</type></trkpt>
      <trkpt lat="39.142757011078785" lon="-6.140768153523407"><ele>2053</ele><speed>9.49</speed><time>2016-06-01T13:39:46Z</time><pdop>6.0</pdop><geoidheight>50.60</geoidheight><course>181.86845</course><type>1</type></trkpt>
      <trkpt lat="39.14259427251216" lon="-6.14083460435397"><ele>2056</ele><speed>10.68</speed><time>2016-06-01T13:39:48Z</time><pdop>6.0</pdop><geoidheight>50.60</geoidheight><course>207.72362</course><type>1</type></trkpt>
      <trkpt lat="39.14246368922985" lon="-6.141016240945445"><ele>2058</ele><speed>11.70</speed><time>2016-06-01T13:39:50Z</time><pdop>8.0</pdop><geoidheight>50.60</geoidheight><course>236.91904</course><type>1</type></trkpt>
      <trkpt lat="39.142375552134816" lon="-6.141235735121399"><ele>2060</ele><speed>10.47</speed><time>2016-06-01T13:39:52Z</time><pdop>8.0</pdop><geoidheight>50.60</geoidheight><course>254.38145</course><type>1</type></trkpt>
      <trkpt lat="39.1423177847582" lon="-6.141451209206979"><ele>2062</ele><speed>10.61</speed><time>2016-06-01T13:39:54Z</time><pdop>8.0</pdop><geoidheight>50.60</geoidheight><course>257.801</course><type>1</type></trkpt>
      <trkpt lat="39.14227393556785" lon="-6.141655519370262"><ele>2064</ele><speed>10.34</speed><time>2016-06-01T13:39:56Z</time><pdop>8.0</pdop><geoidheight>50.60</geoidheight><course>257.63205</course><type>1</type></trkpt>
      <trkpt lat="39.14221279246072" lon="-6.141861646064026"><ele>2065</ele><speed>10.03</speed><time>2016-06-01T13:39:58Z</time><pdop>8.0</pdop><geoidheight>50.60</geoidheight><course>251.12975</course><type>1</type></trkpt>
      <trkpt lat="39.14215648559057" lon="-6.142062907202015"><ele>2065</ele><speed>10.93</speed><time>2016-06-01T13:40:00Z</time><pdop>6.0</pdop><geoidheight>50.60</geoidheight><course>255.23483</course><type>1</type></trkpt>
      <trkpt lat="39.14210914844728" lon="-6.142335692051461"><ele>2065</ele><speed>11.66</speed><time>2016-06-01T13:40:02Z</time><pdop>6.0</pdop><geoidheight>50.60</geoidheight><course>257.95538</course><type>1</type></trkpt>
      <trkpt lat="39.142078988869656" lon="-6.142476506002717"><ele>2065</ele><speed>11.78</speed><time>2016-06-01T13:40:03Z</time><pdop>6.0</pdop><geoidheight>50.60</geoidheight><course>255.71425</course><type>1</type></trkpt>
      <trkpt lat="39.142020709349225" lon="-6.142730328509301"><ele>2065</ele><speed>11.63</speed><time>2016-06-01T13:40:05Z</time><pdop>8.0</pdop><geoidheight>50.60</geoidheight><course>256.44235</course><type>1</type></trkpt>
      <trkpt lat="39.14198249544263" lon="-6.142983281998869"><ele>2066</ele><speed>11.72</speed><time>2016-06-01T13:40:07Z</time><pdop>8.0</pdop><geoidheight>50.60</geoidheight><course>260.00812</course><type>1</type></trkpt>
      <trkpt lat="39.141947415453814" lon="-6.14322237303663"><ele>2067</ele><speed>9.83</speed><time>2016-06-01T13:40:09Z</time><pdop>8.0</pdop><geoidheight>50.60</geoidheight><course>258.64966</course><type>1</type></trkpt>
      <trkpt lat="39.14189737643709" lon="-6.143466313581117"><ele>2069</ele><speed>10.86</speed><time>2016-06-01T13:40:11Z</time><pdop>12.0</pdop><geoidheight>50.60</geoidheight><course>255.25505</course><type>1</type></trkpt>
      <trkpt lat="39.14183028321362" lon="-6.143738529621937"><ele>2071</ele><speed>12.56</speed><time>2016-06-01T13:40:13Z</time><pdop>12.0</pdop><geoidheight>50.60</geoidheight><course>253.08452</course><type>1</type></trkpt>
      <trkpt lat="39.14176077252546" lon="-6.143987216065952"><ele>2073</ele><speed>8.92</speed><time>2016-06-01T13:40:14Z</time><pdop>8.0</pdop><geoidheight>50.60</geoidheight><course>250.86897</course><type>1</type></trkpt>
      <trkpt lat="39.14166937669494" lon="-6.14428357338143"><ele>2074</ele><speed>11.19</speed><time>2016-06-01T13:40:18Z</time><pdop>12.0</pdop><geoidheight>50.60</geoidheight><course>250.39407</course><type>1</type></trkpt>
      <trkpt lat="39.14159556443804" lon="-6.144676395821457"><ele>2073</ele><speed>11.62</speed><time>2016-06-01T13:40:21Z</time><pdop>12.0</pdop><geoidheight>50.60</geoidheight><course>258.1383</course><type>1</type></trkpt>
      <trkpt lat="39.141578178122955" lon="-6.1450135788493645"><ele>2072</ele><speed>10.00</speed><time>2016-06-01T13:40:24Z</time><pdop>12.0</pdop><geoidheight>50.60</geoidheight><course>263.815</course><type>1</type></trkpt>
      <trkpt lat="39.14155313639093" lon="-6.14540775146767"><ele>2076</ele><speed>10.63</speed><time>2016-06-01T13:40:27Z</time><pdop>12.0</pdop><geoidheight>50.60</geoidheight><course>262.49512</course><type>1</type></trkpt>
      <trkpt lat="39.141519297798816" lon="-6.1457364029040455"><ele>2078</ele><speed>10.83</speed><time>2016-06-01T13:40:30Z</time><pdop>12.0</pdop><geoidheight>50.60</geoidheight><course>263.6168</course><type>1</type></trkpt>
      <trkpt lat="39.14148050601469" lon="-6.146112468521737"><ele>2076</ele><speed>11.40</speed><time>2016-06-01T13:40:33Z</time><pdop>16.0</pdop><geoidheight>50.60</geoidheight><course>260.59006</course><type>1</type></trkpt>
      <trkpt lat="39.14142820920469" lon="-6.146533521066187"><ele>2072</ele><speed>11.00</speed><time>2016-06-01T13:40:36Z</time><pdop>16.0</pdop><geoidheight>50.60</geoidheight><course>257.9587</course><type>1</type></trkpt>
      <trkpt lat="39.14135491595171" lon="-6.146945620422582"><ele>2067</ele><speed>11.93</speed><time>2016-06-01T13:40:39Z</time><pdop>8.0</pdop><geoidheight>50.60</geoidheight><course>254.51021</course><type>1</type></trkpt>
      <trkpt lat="39.14129177080712" lon="-6.147207293702102"><ele>2064</ele><speed>10.33</speed><time>2016-06-01T13:40:41Z</time><pdop>8.0</pdop><geoidheight>50.60</geoidheight><course>250.11993</course><type>1</type></trkpt>
      <trkpt lat="39.14122483885492" lon="-6.147445699386476"><ele>2062</ele><speed>10.37</speed><time>2016-06-01T13:40:43Z</time><pdop>6.0</pdop><geoidheight>50.60</geoidheight><course>248.43184</course><type>1</type></trkpt>
      <trkpt lat="39.14114184252231" lon="-6.1476925694200775"><ele>2061</ele><speed>11.19</speed><time>2016-06-01T13:40:45Z</time><pdop>12.0</pdop><geoidheight>50.60</geoidheight><course>245.58882</course><type>1</type></trkpt>
      <trkpt lat="39.14103443191859" lon="-6.147931139074766"><ele>2061</ele><speed>11.69</speed><time>2016-06-01T13:40:47Z</time><pdop>8.0</pdop><geoidheight>50.60</geoidheight><course>239.80717</course><type>1</type></trkpt>
      <trkpt lat="39.140913029429015" lon="-6.148142845738346"><ele>2063</ele><speed>11.02</speed><time>2016-06-01T13:40:49Z</time><pdop>12.0</pdop><geoidheight>50.60</geoidheight><course>236.37804</course><type>1</type></trkpt>
      <trkpt lat="39.14082985089907" lon="-6.148485260302612"><ele>2066</ele><speed>11.67</speed><time>2016-06-01T13:40:52Z</time><pdop>8.0</pdop><geoidheight>50.60</geoidheight><course>261.79596</course><type>1</type></trkpt>
      <trkpt lat="39.140804950273" lon="-6.148743456080812"><ele>2066</ele><speed>10.96</speed><time>2016-06-01T13:40:54Z</time><pdop>8.0</pdop><geoidheight>50.60</geoidheight><course>262.5112</course><type>1</type></trkpt>
      <trkpt lat="39.14077999569852" lon="-6.14907354571441"><ele>2064</ele><speed>10.62</speed><time>2016-06-01T13:40:57Z</time><pdop>6.0</pdop><geoidheight>50.60</geoidheight><course>264.90265</course><type>1</type></trkpt>
      <trkpt lat="39.1407792865902" lon="-6.1493450589637435"><ele>2062</ele><speed>12.40</speed><time>2016-06-01T13:40:59Z</time><pdop>12.0</pdop><geoidheight>50.60</geoidheight><course>267.81982</course><type>1</type></trkpt>
      <trkpt lat="39.140779187759044" lon="-6.149631611062797"><ele>2060</ele><speed>12.43</speed><time>2016-06-01T13:41:00Z</time><pdop>12.0</pdop><geoidheight>50.60</geoidheight><course>266.58685</course><type>1</type></trkpt>
      <trkpt lat="39.140774309709094" lon="-6.1498902278141845"><ele>2059</ele><speed>10.75</speed><time>2016-06-01T13:41:02Z</time><pdop>8.0</pdop><geoidheight>50.60</geoidheight><course>266.86423</course><type>1</type></trkpt>
      <trkpt lat="39.14076801490241" lon="-6.15014788972601"><ele>2060</ele><speed>11.78</speed><time>2016-06-01T13:41:05Z</time><pdop>12.0</pdop><geoidheight>50.60</geoidheight><course>267.10773</course><type>1</type></trkpt>
      <trkpt lat="39.14076141782193" lon="-6.150441462394344"><ele>2062</ele><speed>13.50</speed><time>2016-06-01T13:41:07Z</time><pdop>8.0</pdop><geoidheight>50.60</geoidheight><course>266.3365</course><type>1</type></trkpt>
      <trkpt lat="39.14074652078734" lon="-6.150731069625704"><ele>2065</ele><speed>11.73</speed><time>2016-06-01T13:41:09Z</time><pdop>6.0</pdop><geoidheight>50.60</geoidheight><course>265.1288</course><type>1</type></trkpt>
      <trkpt lat="39.14072827313084" lon="-6.1509832920110465"><ele>2068</ele><speed>11.11</speed><time>2016-06-01T13:41:11Z</time><pdop>12.0</pdop><geoidheight>50.60</geoidheight><course>264.2549</course><type>1</type></trkpt>
      <trkpt lat="39.14070681198463" lon="-6.151260110104286"><ele>2071</ele><speed>13.04</speed><time>2016-06-01T13:41:13Z</time><pdop>8.0</pdop><geoidheight>50.60</geoidheight><course>263.8512</course><type>1</type></trkpt>
      <trkpt lat="39.14067061784139" lon="-6.151567107005264"><ele>2073</ele><speed>12.64</speed><time>2016-06-01T13:41:15Z</time><pdop>16.0</pdop><geoidheight>50.60</geoidheight><course>260.01288</course><type>1</type></trkpt>
      <trkpt lat="39.14063250099133" lon="-6.151842600212804"><ele>2075</ele><speed>11.37</speed><time>2016-06-01T13:41:17Z</time><pdop>8.0</pdop><geoidheight>50.60</geoidheight><course>259.97327</course><type>1</type></trkpt>
      <trkpt lat="39.14061354724637" lon="-6.152109784441746"><ele>2078</ele><speed>12.07</speed><time>2016-06-01T13:41:19Z</time><pdop>8.0</pdop><geoidheight>50.60</geoidheight><course>265.76688</course><type>1</type></trkpt>
      <trkpt lat="39.14060302609968" lon="-6.152402696938622"><ele>2081</ele><speed>13.40</speed><time>2016-06-01T13:41:21Z</time><pdop>8.0</pdop><geoidheight>50.60</geoidheight><course>266.51978</course><type>1</type></trkpt>
      <trkpt lat="39.14058231957761" lon="-6.152718355003584"><ele>2083</ele><speed>14.26</speed><time>2016-06-01T13:41:23Z</time><pdop>16.0</pdop><geoidheight>50.60</geoidheight><course>264.7559</course><type>1</type></trkpt>
      <trkpt lat="39.14056086534488" lon="-6.153208327593804"><ele>2086</ele><speed>13.46</speed><time>2016-06-01T13:41:26Z</time><pdop>12.0</pdop><geoidheight>50.60</geoidheight><course>268.70227</course><type>1</type></trkpt>
      <trkpt lat="39.1405545817401" lon="-6.153499637507857"><ele>2088</ele><speed>12.68</speed><time>2016-06-01T13:41:27Z</time><pdop>8.0</pdop><geoidheight>50.60</geoidheight><course>269.8937</course><type>1</type></trkpt>
      <trkpt lat="39.14055373945908" lon="-6.153759748973732"><ele>2090</ele><speed>11.03</speed><time>2016-06-01T13:41:30Z</time><pdop>8.0</pdop><geoidheight>50.60</geoidheight><course>271.31693</course><type>1</type></trkpt>
      <trkpt lat="39.140551220240226" lon="-6.154044148930226"><ele>2091</ele><speed>13.00</speed><time>2016-06-01T13:41:32Z</time><pdop>8.0</pdop><geoidheight>50.60</geoidheight><course>269.6337</course><type>1</type></trkpt>
      <trkpt lat="39.140533444873284" lon="-6.154377180107699"><ele>2089</ele><speed>14.18</speed><time>2016-06-01T13:41:34Z</time><pdop>8.0</pdop><geoidheight>50.60</geoidheight><course>265.19116</course><type>1</type></trkpt>
      <trkpt lat="39.140501404718044" lon="-6.154666642170852"><ele>2088</ele><speed>11.15</speed><time>2016-06-01T13:41:36Z</time><pdop>8.0</pdop><geoidheight>50.60</geoidheight><course>261.96942</course><type>1</type></trkpt>
      <trkpt lat="39.14046527433935" lon="-6.154915901208074"><ele>2090</ele><speed>12.87</speed><time>2016-06-01T13:41:38Z</time><pdop>8.0</pdop><geoidheight>50.60</geoidheight><course>261.5955</course><type>1</type></trkpt>
      <trkpt lat="39.140415933765524" lon="-6.1552190370701725"><ele>2091</ele><speed>15.04</speed><time>2016-06-01T13:41:40Z</time><pdop>12.0</pdop><geoidheight>50.60</geoidheight><course>260.33392</course><type>1</type></trkpt>
      <trkpt lat="39.14036530399662" lon="-6.1555340258575475"><ele>2091</ele><speed>13.41</speed><time>2016-06-01T13:41:42Z</time><pdop>12.0</pdop><geoidheight>50.60</geoidheight><course>260.50723</course><type>1</type></trkpt>
      <trkpt lat="39.140315963500534" lon="-6.155974538100547"><ele>2090</ele><speed>12.66</speed><time>2016-06-01T13:41:45Z</time><pdop>8.0</pdop><geoidheight>50.60</geoidheight><course>261.34958</course><type>1</type></trkpt>
      <trkpt lat="39.14028620811673" lon="-6.156301139502558"><ele>2089</ele><speed>13.56</speed><time>2016-06-01T13:41:47Z</time><pdop>8.0</pdop><geoidheight>50.60</geoidheight><course>261.8283</course><type>1</type></trkpt>
      <trkpt lat="39.14026026054288" lon="-6.156614969659909"><ele>2087</ele><speed>12.97</speed><time>2016-06-01T13:41:49Z</time><pdop>12.0</pdop><geoidheight>50.60</geoidheight><course>262.38834</course><type>1</type></trkpt>
      <trkpt lat="39.14014751484306" lon="-6.156997358533489"><ele>2083</ele><speed>12.15</speed><time>2016-06-01T13:41:52Z</time><pdop>8.0</pdop><geoidheight>50.60</geoidheight><course>249.32002</course><type>1</type></trkpt>
      <trkpt lat="39.140118002927494" lon="-6.157309835747966"><ele>2079</ele><speed>14.07</speed><time>2016-06-01T13:41:54Z</time><pdop>8.0</pdop><geoidheight>50.60</geoidheight><course>263.5994</course><type>1</type></trkpt>
      <trkpt lat="39.14010436394412" lon="-6.157610602619216"><ele>2074</ele><speed>13.68</speed><time>2016-06-01T13:41:56Z</time><pdop>16.0</pdop><geoidheight>50.60</geoidheight><course>265.8287</course><type>1</type></trkpt>
      <trkpt lat="39.14007024353717" lon="-6.158003555266484"><ele>2066</ele><speed>10.64</speed><time>2016-06-01T13:41:59Z</time><pdop>8.0</pdop><geoidheight>50.60</geoidheight><course>260.06882</course><type>1</type></trkpt>
      <trkpt lat="39.14001715622546" lon="-6.1582740762961485"><ele>2061</ele><speed>13.32</speed><time>2016-06-01T13:42:01Z</time><pdop>8.0</pdop><geoidheight>50.60</geoidheight><course>259.4924</course><type>1</type></trkpt>
      <trkpt lat="39.139982387942624" lon="-6.15857914985879"><ele>2055</ele><speed>15.62</speed><time>2016-06-01T13:42:02Z</time><pdop>12.0</pdop><geoidheight>50.60</geoidheight><course>263.03632</course><type>1</type></trkpt>
      <trkpt lat="39.13994722663635" lon="-6.158913445173838"><ele>2052</ele><speed>12.65</speed><time>2016-06-01T13:42:05Z</time><pdop>12.0</pdop><geoidheight>50.60</geoidheight><course>265.5738</course><type>1</type></trkpt>
      <trkpt lat="39.139914263139396" lon="-6.159151740966084"><ele>2051</ele><speed>10.22</speed><time>2016-06-01T13:42:07Z</time><pdop>8.0</pdop><geoidheight>50.60</geoidheight><course>260.59393</course><type>1</type></trkpt>
      <trkpt lat="39.1398538703555" lon="-6.159378217395936"><ele>2050</ele><speed>11.69</speed><time>2016-06-01T13:42:09Z</time><pdop>8.0</pdop><geoidheight>50.60</geoidheight><course>256.28976</course><type>1</type></trkpt>
      <trkpt lat="39.13979289280014" lon="-6.159636255055182"><ele>2045</ele><speed>13.84</speed><time>2016-06-01T13:42:11Z</time><pdop>6.0</pdop><geoidheight>50.60</geoidheight><course>256.69238</course><type>1</type></trkpt>
      <trkpt lat="39.13975512974906" lon="-6.159791031390859"><ele>2042</ele><speed>14.89</speed><time>2016-06-01T13:42:12Z</time><pdop>6.0</pdop><geoidheight>50.60</geoidheight><course>255.08241</course><type>1</type></trkpt>
      <trkpt lat="39.13971393499777" lon="-6.159948286003842"><ele>2041</ele><speed>14.03</speed><time>2016-06-01T13:42:13Z</time><pdop>6.0</pdop><geoidheight>50.60</geoidheight><course>253.87679</course><type>1</type></trkpt>
      <trkpt lat="39.13967462846244" lon="-6.1600996116475875"><ele>2039</ele><speed>13.21</speed><time>2016-06-01T13:42:14Z</time><pdop>6.0</pdop><geoidheight>50.60</geoidheight><course>253.24667</course><type>1</type></trkpt>
      <trkpt lat="39.13963722392351" lon="-6.160247654775539"><ele>2038</ele><speed>13.00</speed><time>2016-06-01T13:42:15Z</time><pdop>6.0</pdop><geoidheight>50.60</geoidheight><course>254.31152</course><type>1</type></trkpt>
      <trkpt lat="39.13958030897469" lon="-6.1605459317182"><ele>2035</ele><speed>13.18</speed><time>2016-06-01T13:42:17Z</time><pdop>4.0</pdop><geoidheight>50.60</geoidheight><course>258.13138</course><type>1</type></trkpt>
      <trkpt lat="39.139536965970734" lon="-6.160808852189806"><ele>2035</ele><speed>11.07</speed><time>2016-06-01T13:42:19Z</time><pdop>8.0</pdop><geoidheight>50.60</geoidheight><course>257.9102</course><type>1</type></trkpt>
      <trkpt lat="39.13949148143953" lon="-6.1610781286190335"><ele>2035</ele><speed>12.01</speed><time>2016-06-01T13:42:21Z</time><pdop>4.0</pdop><geoidheight>50.60</geoidheight><course>258.51987</course><type>1</type></trkpt>
      <trkpt lat="39.139455207107744" lon="-6.1613448547129765"><ele>2032</ele><speed>14.28</speed><time>2016-06-01T13:42:23Z</time><pdop>12.0</pdop><geoidheight>50.60</geoidheight><course>258.19412</course><type>1</type></trkpt>
      <trkpt lat="39.13940658849146" lon="-6.161647426100878"><ele>2029</ele><speed>12.94</speed><time>2016-06-01T13:42:25Z</time><pdop>12.0</pdop><geoidheight>50.60</geoidheight><course>255.60226</course><type>1</type></trkpt>
      <trkpt lat="39.139216834940584" lon="-6.162055463320899"><ele>2026</ele><speed>14.43</speed><time>2016-06-01T13:42:28Z</time><pdop>12.0</pdop><geoidheight>50.60</geoidheight><course>236.73462</course><type>1</type></trkpt>
      <trkpt lat="39.13909097807323" lon="-6.16232943203745"><ele>2025</ele><speed>13.56</speed><time>2016-06-01T13:42:30Z</time><pdop>12.0</pdop><geoidheight>50.60</geoidheight><course>241.45903</course><type>1</type></trkpt>
      <trkpt lat="39.13899674120378" lon="-6.162591632140907"><ele>2024</ele><speed>10.91</speed><time>2016-06-01T13:42:31Z</time><pdop>12.0</pdop><geoidheight>50.60</geoidheight><course>243.59477</course><type>1</type></trkpt>
      <trkpt lat="39.13887365564526" lon="-6.162795507409875"><ele>2024</ele><speed>11.14</speed><time>2016-06-01T13:42:34Z</time><pdop>8.0</pdop><geoidheight>50.60</geoidheight><course>230.65387</course><type>1</type></trkpt>
      <trkpt lat="39.138736220123214" lon="-6.163035203495731"><ele>2026</ele><speed>14.19</speed><time>2016-06-01T13:42:36Z</time><pdop>8.0</pdop><geoidheight>50.60</geoidheight><course>235.09013</course><type>1</type></trkpt>
      <trkpt lat="39.13863502102074" lon="-6.163261673415855"><ele>2024</ele><speed>12.73</speed><time>2016-06-01T13:42:38Z</time><pdop>8.0</pdop><geoidheight>50.60</geoidheight><course>239.04149</course><type>1</type></trkpt>
      <trkpt lat="39.1385445437744" lon="-6.163494611824085"><ele>2022</ele><speed>10.22</speed><time>2016-06-01T13:42:40Z</time><pdop>8.0</pdop><geoidheight>50.60</geoidheight><course>241.9847</course><type>1</type></trkpt>
      <trkpt lat="39.13846615816854" lon="-6.163717983914368"><ele>2022</ele><speed>10.97</speed><time>2016-06-01T13:42:42Z</time><pdop>12.0</pdop><geoidheight>50.60</geoidheight><course>244.11855</course><type>1</type></trkpt>
      <trkpt lat="39.13833469991325" lon="-6.164063050077995"><ele>2020</ele><speed>10.22</speed><time>2016-06-01T13:42:45Z</time><pdop>12.0</pdop><geoidheight>50.60</geoidheight><course>245.66075</course><type>1</type></trkpt>
      <trkpt lat="39.13824844415209" lon="-6.164372643362309"><ele>2021</ele><speed>10.18</speed><time>2016-06-01T13:42:48Z</time><pdop>16.0</pdop><geoidheight>50.60</geoidheight><course>249.31248</course><type>1</type></trkpt>
      <trkpt lat="39.138167706606076" lon="-6.164736920215982"><ele>2020</ele><speed>9.65</speed><time>2016-06-01T13:42:52Z</time><pdop>12.0</pdop><geoidheight>50.60</geoidheight><course>251.59857</course><type>1</type></trkpt>
      <trkpt lat="39.13808759510271" lon="-6.165094695408178"><ele>2020</ele><speed>10.01</speed><time>2016-06-01T13:42:54Z</time><pdop>8.0</pdop><geoidheight>50.60</geoidheight><course>252.01189</course><type>1</type></trkpt>
      <trkpt lat="39.13801772450575" lon="-6.165430252064226"><ele>2020</ele><speed>10.10</speed><time>2016-06-01T13:42:58Z</time><pdop>16.0</pdop><geoidheight>50.60</geoidheight><course>253.47076</course><type>1</type></trkpt>
      <trkpt lat="39.13787871746458" lon="-6.165906405888849"><ele>2012</ele><speed>10.01</speed><time>2016-06-01T13:43:02Z</time><pdop>12.0</pdop><geoidheight>50.60</geoidheight><course>247.8902</course><type>1</type></trkpt>
      <trkpt lat="39.13781402930046" lon="-6.166138352020165"><ele>2003</ele><speed>9.92</speed><time>2016-06-01T13:43:04Z</time><pdop>8.0</pdop><geoidheight>50.60</geoidheight><course>251.08769</course><type>1</type></trkpt>
      <trkpt lat="39.13776417769408" lon="-6.166345409526284"><ele>1995</ele><speed>9.02</speed><time>2016-06-01T13:43:06Z</time><pdop>8.0</pdop><geoidheight>50.60</geoidheight><course>249.27238</course><type>1</type></trkpt>
      <trkpt lat="39.137716080303605" lon="-6.1665229176356835"><ele>1988</ele><speed>8.62</speed><time>2016-06-01T13:43:07Z</time><pdop>8.0</pdop><geoidheight>50.60</geoidheight><course>248.88231</course><type>1</type></trkpt>
      <trkpt lat="39.13767433989747" lon="-6.166729603372015"><ele>1984</ele><speed>9.77</speed><time>2016-06-01T13:43:10Z</time><pdop>8.0</pdop><geoidheight>50.60</geoidheight><course>255.18512</course><type>1</type></trkpt>
      <trkpt lat="39.137651950875515" lon="-6.166942105904172"><ele>1981</ele><speed>9.58</speed><time>2016-06-01T13:43:12Z</time><pdop>8.0</pdop><geoidheight>50.60</geoidheight><course>259.64825</course><type>1</type></trkpt>
      <trkpt lat="39.137632607458634" lon="-6.1671717434063655"><ele>1978</ele><speed>9.05</speed><time>2016-06-01T13:43:14Z</time><pdop>6.0</pdop><geoidheight>50.60</geoidheight><course>261.04645</course><type>1</type></trkpt>
      <trkpt lat="39.13761634852497" lon="-6.167398139369671"><ele>1976</ele><speed>9.27</speed><time>2016-06-01T13:43:16Z</time><pdop>4.0</pdop><geoidheight>50.60</geoidheight><course>265.04947</course><type>1</type></trkpt>
      <trkpt lat="39.137614287646066" lon="-6.16750809706911"><ele>1975</ele><speed>9.29</speed><time>2016-06-01T13:43:17Z</time><pdop>4.0</pdop><geoidheight>50.60</geoidheight><course>267.364</course><type>1</type></trkpt>
      <trkpt lat="39.137615573474626" lon="-6.1676149718931725"><ele>1974</ele><speed>9.09</speed><time>2016-06-01T13:43:18Z</time><pdop>4.0</pdop><geoidheight>50.60</geoidheight><course>269.24704</course><type>1</type></trkpt>
      <trkpt lat="39.137620303767505" lon="-6.167717062429568"><ele>1973</ele><speed>8.77</speed><time>2016-06-01T13:43:19Z</time><pdop>4.0</pdop><geoidheight>50.60</geoidheight><course>271.3722</course><type>1</type></trkpt>
      <trkpt lat="39.137628433951825" lon="-6.1678156836745295"><ele>1972</ele><speed>8.48</speed><time>2016-06-01T13:43:20Z</time><pdop>4.0</pdop><geoidheight>50.60</geoidheight><course>273.78668</course><type>1</type></trkpt>
      <trkpt lat="39.137639165993235" lon="-6.167911756249623"><ele>1971</ele><speed>8.29</speed><time>2016-06-01T13:43:20Z</time><pdop>4.0</pdop><geoidheight>50.60</geoidheight><course>276.32733</course><type>1</type></trkpt>
      <trkpt lat="39.137726648450695" lon="-6.168155245956063"><ele>1964</ele><speed>7.75</speed><time>2016-06-01T13:43:24Z</time><pdop>6.0</pdop><geoidheight>50.60</geoidheight><course>304.269</course><type>1</type></trkpt>
      <trkpt lat="39.137856846427994" lon="-6.168239281605664"><ele>1960</ele><speed>7.86</speed><time>2016-06-01T13:43:25Z</time><pdop>8.0</pdop><geoidheight>50.60</geoidheight><course>342.7548</course><type>1</type></trkpt>
      <trkpt lat="39.137997902719704" lon="-6.168283875374643"><ele>1955</ele><speed>8.59</speed><time>2016-06-01T13:43:28Z</time><pdop>6.0</pdop><geoidheight>50.60</geoidheight><course>346.82892</course><type>1</type></trkpt>
      <trkpt lat="39.13813336854197" lon="-6.168341132770682"><ele>1950</ele><speed>8.73</speed><time>2016-06-01T13:43:30Z</time><pdop>6.0</pdop><geoidheight>50.60</geoidheight><course>340.0067</course><type>1</type></trkpt>
      <trkpt lat="39.13827046745451" lon="-6.168420318911475"><ele>1945</ele><speed>8.07</speed><time>2016-06-01T13:43:32Z</time><pdop>4.0</pdop><geoidheight>50.60</geoidheight><course>335.85272</course><type>1</type></trkpt>
      <trkpt lat="39.13840989566397" lon="-6.168513363676944"><ele>1939</ele><speed>9.09</speed><time>2016-06-01T13:43:34Z</time><pdop>6.0</pdop><geoidheight>50.60</geoidheight><course>329.69235</course><type>1</type></trkpt>
      <trkpt lat="39.13853294670428" lon="-6.168637120135253"><ele>1935</ele><speed>8.93</speed><time>2016-06-01T13:43:36Z</time><pdop>6.0</pdop><geoidheight>50.60</geoidheight><course>324.63364</course><type>1</type></trkpt>
      <trkpt lat="39.13865741854483" lon="-6.168744804249177"><ele>1930</ele><speed>8.11</speed><time>2016-06-01T13:43:38Z</time><pdop>4.0</pdop><geoidheight>50.60</geoidheight><course>328.9364</course><type>1</type></trkpt>
      <trkpt lat="39.13878614112606" lon="-6.168837427705278"><ele>1925</ele><speed>8.88</speed><time>2016-06-01T13:43:40Z</time><pdop>8.0</pdop><geoidheight>50.60</geoidheight><course>330.56122</course><type>1</type></trkpt>
      <trkpt lat="39.13892401320682" lon="-6.168935539096924"><ele>1920</ele><speed>8.64</speed><time>2016-06-01T13:43:41Z</time><pdop>8.0</pdop><geoidheight>50.60</geoidheight><course>329.9098</course><type>1</type></trkpt>
      <trkpt lat="39.139092863345624" lon="-6.169187833837418"><ele>1914</ele><speed>10.86</speed><time>2016-06-01T13:43:45Z</time><pdop>12.0</pdop><geoidheight>50.60</geoidheight><course>302.9145</course><type>1</type></trkpt>
      <trkpt lat="39.13924957697462" lon="-6.169446694025109"><ele>1910</ele><speed>8.44</speed><time>2016-06-01T13:43:48Z</time><pdop>16.0</pdop><geoidheight>50.60</geoidheight><course>308.51282</course><type>1</type></trkpt>
      <trkpt lat="39.13947409726127" lon="-6.169674353380023"><ele>1905</ele><speed>8.14</speed><time>2016-06-01T13:43:52Z</time><pdop>8.0</pdop><geoidheight>50.60</geoidheight><course>328.10294</course><type>1</type></trkpt>
      <trkpt lat="39.139619641760575" lon="-6.169756622087136"><ele>1902</ele><speed>8.73</speed><time>2016-06-01T13:43:53Z</time><pdop>8.0</pdop><geoidheight>50.60</geoidheight><course>333.24167</course><type>1</type></trkpt>
      <trkpt lat="39.13982698167951" lon="-6.169872234208727"><ele>1898</ele><speed>8.22</speed><time>2016-06-01T13:43:57Z</time><pdop>16.0</pdop><geoidheight>50.60</geoidheight><course>334.03378</course><type>1</type></trkpt>
      <trkpt lat="39.14012292904643" lon="-6.169992799667544"><ele>1889</ele><speed>7.69</speed><time>2016-06-01T13:44:01Z</time><pdop>16.0</pdop><geoidheight>50.60</geoidheight><course>343.72736</course><type>1</type></trkpt>
      <trkpt lat="39.14046703327495" lon="-6.170053627760086"><ele>1881</ele><speed>9.13</speed><time>2016-06-01T13:44:04Z</time><pdop>16.0</pdop><geoidheight>50.60</geoidheight><course>344.0979</course><type>1</type></trkpt>
      <trkpt lat="39.14070661694511" lon="-6.170265752997079"><ele>1880</ele><speed>8.33</speed><time>2016-06-01T13:44:09Z</time><pdop>12.0</pdop><geoidheight>50.60</geoidheight><course>310.63226</course><type>1</type></trkpt>
      <trkpt lat="39.140764985295256" lon="-6.170587092291468"><ele>1883</ele><speed>10.93</speed><time>2016-06-01T13:44:12Z</time><pdop>8.0</pdop><geoidheight>50.60</geoidheight><course>291.19412</course><type>1</type></trkpt>
      <trkpt lat="39.14080197639844" lon="-6.1708560882533545"><ele>1884</ele><speed>12.46</speed><time>2016-06-01T13:44:14Z</time><pdop>8.0</pdop><geoidheight>50.60</geoidheight><course>286.82758</course><type>1</type></trkpt>
      <trkpt lat="39.14083381409978" lon="-6.171135796070591"><ele>1885</ele><speed>11.93</speed><time>2016-06-01T13:44:16Z</time><pdop>4.0</pdop><geoidheight>50.60</geoidheight><course>284.651</course><type>1</type></trkpt>
      <trkpt lat="39.140870456857094" lon="-6.171391070595888"><ele>1885</ele><speed>11.31</speed><time>2016-06-01T13:44:18Z</time><pdop>8.0</pdop><geoidheight>50.60</geoidheight><course>284.13123</course><type>1</type></trkpt>
      <trkpt lat="39.14091227178194" lon="-6.171646446824865"><ele>1884</ele><speed>11.55</speed><time>2016-06-01T13:44:20Z</time><pdop>12.0</pdop><geoidheight>50.60</geoidheight><course>284.04398</course><type>1</type></trkpt>
      <trkpt lat="39.140955747017664" lon="-6.171916260404769"><ele>1884</ele><speed>11.60</speed><time>2016-06-01T13:44:22Z</time><pdop>6.0</pdop><geoidheight>50.60</geoidheight><course>284.98746</course><type>1</type></trkpt>
      <trkpt lat="39.140978450134824" lon="-6.1720402784768424"><ele>1885</ele><speed>11.02</speed><time>2016-06-01T13:44:23Z</time><pdop>4.0</pdop><geoidheight>50.60</geoidheight><course>286.65997</course><type>1</type></trkpt>
      <trkpt lat="39.14100406775284" lon="-6.172155960232676"><ele>1885</ele><speed>10.61</speed><time>2016-06-01T13:44:24Z</time><pdop>4.0</pdop><geoidheight>50.60</geoidheight><course>288.4096</course><type>1</type></trkpt>
      <trkpt lat="39.141030780047366" lon="-6.172267941852782"><ele>1886</ele><speed>9.95</speed><time>2016-06-01T13:44:25Z</time><pdop>4.0</pdop><geoidheight>50.60</geoidheight><course>289.21738</course><type>1</type></trkpt>
      <trkpt lat="39.141059727335325" lon="-6.172376058040784"><ele>1886</ele><speed>9.71</speed><time>2016-06-01T13:44:26Z</time><pdop>4.0</pdop><geoidheight>50.60</geoidheight><course>289.7837</course><type>1</type></trkpt>
      <trkpt lat="39.14112429562273" lon="-6.1725819343140484"><ele>1886</ele><speed>10.25</speed><time>2016-06-01T13:44:28Z</time><pdop>6.0</pdop><geoidheight>50.60</geoidheight><course>291.9619</course><type>1</type></trkpt>
      <trkpt lat="39.14119981791278" lon="-6.172799184883708"><ele>1884</ele><speed>10.65</speed><time>2016-06-01T13:44:30Z</time><pdop>6.0</pdop><geoidheight>50.60</geoidheight><course>294.21634</course><type>1</type></trkpt>
      <trkpt lat="39.141283262820224" lon="-6.173014353918215"><ele>1881</ele><speed>10.23</speed><time>2016-06-01T13:44:31Z</time><pdop>6.0</pdop><geoidheight>50.60</geoidheight><course>296.07535</course><type>1</type></trkpt>
      <trkpt lat="39.14137345060031" lon="-6.173215520988529"><ele>1878</ele><speed>9.89</speed><time>2016-06-01T13:44:34Z</time><pdop>6.0</pdop><geoidheight>50.60</geoidheight><course>298.32578</course><type>1</type></trkpt>
      <trkpt lat="39.14147484630917" lon="-6.173424303345385"><ele>1874</ele><speed>11.02</speed><time>2016-06-01T13:44:36Z</time><pdop>12.0</pdop><geoidheight>50.60</geoidheight><course>299.89938</course><type>1</type></trkpt>
      <trkpt lat="39.141578638507966" lon="-6.173651683874632"><ele>1867</ele><speed>11.00</speed><time>2016-06-01T13:44:38Z</time><pdop>6.0</pdop><geoidheight>50.60</geoidheight><course>297.4683</course><type>1</type></trkpt>
      <trkpt lat="39.14166748727073" lon="-6.173872669418908"><ele>1861</ele><speed>9.66</speed><time>2016-06-01T13:44:39Z</time><pdop>8.0</pdop><geoidheight>50.60</geoidheight><course>295.49188</course><type>1</type></trkpt>
      <trkpt lat="39.1417561608005" lon="-6.1740923171675455"><ele>1855</ele><speed>12.07</speed><time>2016-06-01T13:44:42Z</time><pdop>8.0</pdop><geoidheight>50.60</geoidheight><course>297.36383</course><type>1</type></trkpt>
      <trkpt lat="39.14185325357209" lon="-6.174328350376065"><ele>1849</ele><speed>11.70</speed><time>2016-06-01T13:44:44Z</time><pdop>12.0</pdop><geoidheight>50.60</geoidheight><course>296.52042</course><type>1</type></trkpt>
      <trkpt lat="39.14196843573549" lon="-6.174619548691582"><ele>1843</ele><speed>9.34</speed><time>2016-06-01T13:44:47Z</time><pdop>8.0</pdop><geoidheight>50.60</geoidheight><course>297.94174</course><type>1</type></trkpt>
      <trkpt lat="39.1420639020541" lon="-6.174840052048289"><ele>1839</ele><speed>11.79</speed><time>2016-06-01T13:44:49Z</time><pdop>8.0</pdop><geoidheight>50.60</geoidheight><course>299.9493</course><type>1</type></trkpt>
      <trkpt lat="39.142176888317344" lon="-6.175075935939164"><ele>1835</ele><speed>11.33</speed><time>2016-06-01T13:44:51Z</time><pdop>12.0</pdop><geoidheight>50.60</geoidheight><course>300.11624</course><type>1</type></trkpt>
      <trkpt lat="39.14232025812739" lon="-6.175388003095169"><ele>1831</ele><speed>9.92</speed><time>2016-06-01T13:44:54Z</time><pdop>12.0</pdop><geoidheight>50.60</geoidheight><course>300.79852</course><type>1</type></trkpt>
      <trkpt lat="39.14246068247872" lon="-6.175682153002285"><ele>1828</ele><speed>10.03</speed><time>2016-06-01T13:44:57Z</time><pdop>12.0</pdop><geoidheight>50.60</geoidheight><course>299.9193</course><type>1</type></trkpt>
      <trkpt lat="39.14259347655758" lon="-6.17597693726766"><ele>1826</ele><speed>10.27</speed><time>2016-06-01T13:45:00Z</time><pdop>6.0</pdop><geoidheight>50.60</geoidheight><course>305.19684</course><type>1</type></trkpt>
      <trkpt lat="39.142708716301094" lon="-6.176147035946137"><ele>1823</ele><speed>9.97</speed><time>2016-06-01T13:45:01Z</time><pdop>8.0</pdop><geoidheight>50.60</geoidheight><course>311.01175</course><type>1</type></trkpt>
      <trkpt lat="39.14281590530622" lon="-6.176308914644666"><ele>1821</ele><speed>8.94</speed><time>2016-06-01T13:45:04Z</time><pdop>8.0</pdop><geoidheight>50.60</geoidheight><course>307.78137</course><type>1</type></trkpt>
      <trkpt lat="39.142917048142536" lon="-6.176482301901371"><ele>1818</ele><speed>9.37</speed><time>2016-06-01T13:45:06Z</time><pdop>8.0</pdop><geoidheight>50.60</geoidheight><course>304.52182</course><type>1</type></trkpt>
      <trkpt lat="39.14300658344137" lon="-6.176643755293242"><ele>1815</ele><speed>9.18</speed><time>2016-06-01T13:45:08Z</time><pdop>8.0</pdop><geoidheight>50.60</geoidheight><course>306.5734</course><type>1</type></trkpt>
      <trkpt lat="39.14309630142866" lon="-6.176819011197626"><ele>1813</ele><speed>9.09</speed><time>2016-06-01T13:45:09Z</time><pdop>8.0</pdop><geoidheight>50.60</geoidheight><course>303.49902</course><type>1</type></trkpt>
      <trkpt lat="39.14317960487626" lon="-6.177003566151705"><ele>1812</ele><speed>9.39</speed><time>2016-06-01T13:45:12Z</time><pdop>8.0</pdop><geoidheight>50.60</geoidheight><course>301.4408</course><type>1</type></trkpt>
      <trkpt lat="39.14329830182489" lon="-6.177298751757247"><ele>1807</ele><speed>10.02</speed><time>2016-06-01T13:45:15Z</time><pdop>12.0</pdop><geoidheight>50.60</geoidheight><course>296.45255</course><type>1</type></trkpt>
      <trkpt lat="39.14341502419932" lon="-6.177608807025409"><ele>1800</ele><speed>10.11</speed><time>2016-06-01T13:45:18Z</time><pdop>12.0</pdop><geoidheight>50.60</geoidheight><course>296.31955</course><type>1</type></trkpt>
      <trkpt lat="39.143526386580284" lon="-6.177914698869132"><ele>1795</ele><speed>9.27</speed><time>2016-06-01T13:45:21Z</time><pdop>8.0</pdop><geoidheight>50.60</geoidheight><course>295.30606</course><type>1</type></trkpt>
      <trkpt lat="39.143625158691535" lon="-6.178210546620728"><ele>1790</ele><speed>9.82</speed><time>2016-06-01T13:45:24Z</time><pdop>12.0</pdop><geoidheight>50.60</geoidheight><course>292.2209</course><type>1</type></trkpt>
      <trkpt lat="39.143680234793166" lon="-6.17843650854322"><ele>1787</ele><speed>10.41</speed><time>2016-06-01T13:45:26Z</time><pdop>8.0</pdop><geoidheight>50.60</geoidheight><course>287.79858</course><type>1</type></trkpt>
      <trkpt lat="39.14372797459656" lon="-6.178672737340055"><ele>1784</ele><speed>10.85</speed><time>2016-06-01T13:45:28Z</time><pdop>8.0</pdop><geoidheight>50.60</geoidheight><course>285.95706</course><type>1</type></trkpt>
      <trkpt lat="39.143781258950135" lon="-6.178918091227753"><ele>1779</ele><speed>11.39</speed><time>2016-06-01T13:45:30Z</time><pdop>8.0</pdop><geoidheight>50.60</geoidheight><course>287.89304</course><type>1</type></trkpt>
      <trkpt lat="39.14384251327868" lon="-6.1791514305829605"><ele>1774</ele><speed>10.76</speed><time>2016-06-01T13:45:32Z</time><pdop>8.0</pdop><geoidheight>50.60</geoidheight><course>290.19568</course><type>1</type></trkpt>
      <trkpt lat="39.143903291811824" lon="-6.1793801948937706"><ele>1770</ele><speed>11.01</speed><time>2016-06-01T13:45:34Z</time><pdop>8.0</pdop><geoidheight>50.60</geoidheight><course>289.42075</course><type>1</type></trkpt>
      <trkpt lat="39.14396496705476" lon="-6.179627140981202"><ele>1766</ele><speed>11.38</speed><time>2016-06-01T13:45:36Z</time><pdop>6.0</pdop><geoidheight>50.60</geoidheight><course>289.0089</course><type>1</type></trkpt>
      <trkpt lat="39.14402771891618" lon="-6.179865988957352"><ele>1762</ele><speed>10.57</speed><time>2016-06-01T13:45:38Z</time><pdop>8.0</pdop><geoidheight>50.60</geoidheight><course>290.00436</course><type>1</type></trkpt>
      <trkpt lat="39.1440900113218" lon="-6.180097302412122"><ele>1758</ele><speed>10.70</speed><time>2016-06-01T13:45:40Z</time><pdop>6.0</pdop><geoidheight>50.60</geoidheight><course>290.0414</course><type>1</type></trkpt>
      <trkpt lat="39.14415412518391" lon="-6.1803348247378675"><ele>1754</ele><speed>11.00</speed><time>2016-06-01T13:45:42Z</time><pdop>6.0</pdop><geoidheight>50.60</geoidheight><course>288.93814</course><type>1</type></trkpt>
      <trkpt lat="39.144219024467354" lon="-6.180582682451564"><ele>1749</ele><speed>11.33</speed><time>2016-06-01T13:45:44Z</time><pdop>4.0</pdop><geoidheight>50.60</geoidheight><course>289.09418</course><type>1</type></trkpt>
      <trkpt lat="39.144286240492164" lon="-6.180834067183209"><ele>1745</ele><speed>11.38</speed><time>2016-06-01T13:45:45Z</time><pdop>8.0</pdop><geoidheight>50.60</geoidheight><course>289.128</course><type>1</type></trkpt>
      <trkpt lat="39.144355957434676" lon="-6.181108813085587"><ele>1740</ele><speed>11.68</speed><time>2016-06-01T13:45:48Z</time><pdop>8.0</pdop><geoidheight>50.60</geoidheight><course>286.89063</course><type>1</type></trkpt>
      <trkpt lat="39.14442141090571" lon="-6.181378416721134"><ele>1735</ele><speed>11.87</speed><time>2016-06-01T13:45:50Z</time><pdop>6.0</pdop><geoidheight>50.60</geoidheight><course>288.21042</course><type>1</type></trkpt>
      <trkpt lat="39.144482908798096" lon="-6.181635624484877"><ele>1730</ele><speed>12.02</speed><time>2016-06-01T13:45:52Z</time><pdop>6.0</pdop><geoidheight>50.60</geoidheight><course>287.84744</course><type>1</type></trkpt>
      <trkpt lat="39.14451472004107" lon="-6.18176834942556"><ele>1728</ele><speed>12.03</speed><time>2016-06-01T13:45:53Z</time><pdop>4.0</pdop><geoidheight>50.60</geoidheight><course>287.87668</course><type>1</type></trkpt>
      <trkpt lat="39.14457956106235" lon="-6.182026332381912"><ele>1723</ele><speed>12.04</speed><time>2016-06-01T13:45:55Z</time><pdop>6.0</pdop><geoidheight>50.60</geoidheight><course>288.58148</course><type>1</type></trkpt>
      <trkpt lat="39.14464399711239" lon="-6.182289095705683"><ele>1719</ele><speed>12.29</speed><time>2016-06-01T13:45:57Z</time><pdop>6.0</pdop><geoidheight>50.60</geoidheight><course>287.11188</course><type>1</type></trkpt>
      <trkpt lat="39.14467691365335" lon="-6.182422850824039"><ele>1717</ele><speed>11.98</speed><time>2016-06-01T13:45:58Z</time><pdop>6.0</pdop><geoidheight>50.60</geoidheight><course>288.09424</course><type>1</type></trkpt>
      <trkpt lat="39.14471367153026" lon="-6.1825476825413865"><ele>1715</ele><speed>11.38</speed><time>2016-06-01T13:45:59Z</time><pdop>4.0</pdop><geoidheight>50.60</geoidheight><course>290.52634</course><type>1</type></trkpt>
      <trkpt lat="39.1447519573262" lon="-6.182663825348132"><ele>1713</ele><speed>11.25</speed><time>2016-06-01T13:46:00Z</time><pdop>4.0</pdop><geoidheight>50.60</geoidheight><course>292.1826</course><type>1</type></trkpt>
      <trkpt lat="39.14479229653301" lon="-6.182785013379617"><ele>1710</ele><speed>11.45</speed><time>2016-06-01T13:46:01Z</time><pdop>6.0</pdop><geoidheight>50.60</geoidheight><course>292.82938</course><type>1</type></trkpt>
      <trkpt lat="39.144878637248915" lon="-6.183026245833264"><ele>1706</ele><speed>11.63</speed><time>2016-06-01T13:46:03Z</time><pdop>4.0</pdop><geoidheight>50.60</geoidheight><course>295.48062</course><type>1</type></trkpt>
      <trkpt lat="39.14500382763454" lon="-6.183236260032839"><ele>1701</ele><speed>11.14</speed><time>2016-06-01T13:46:05Z</time><pdop>6.0</pdop><geoidheight>50.60</geoidheight><course>313.4749</course><type>1</type></trkpt>
      <trkpt lat="39.14513796852899" lon="-6.183427176774638"><ele>1698</ele><speed>11.18</speed><time>2016-06-01T13:46:07Z</time><pdop>4.0</pdop><geoidheight>50.60</geoidheight><course>310.89233</course><type>1</type></trkpt>
      <trkpt lat="39.145195848718465" lon="-6.183527101937414"><ele>1696</ele><speed>11.32</speed><time>2016-06-01T13:46:08Z</time><pdop>4.0</pdop><geoidheight>50.60</geoidheight><course>308.13824</course><type>1</type></trkpt>
      <trkpt lat="39.1452546947774" lon="-6.183635706915308"><ele>1695</ele><speed>11.26</speed><time>2016-06-01T13:46:09Z</time><pdop>4.0</pdop><geoidheight>50.60</geoidheight><course>306.38068</course><type>1</type></trkpt>
      <trkpt lat="39.145312776130766" lon="-6.183743987191149"><ele>1693</ele><speed>11.41</speed><time>2016-06-01T13:46:09Z</time><pdop>4.0</pdop><geoidheight>50.60</geoidheight><course>305.74292</course><type>1</type></trkpt>
      <trkpt lat="39.14542383910588" lon="-6.183966240207941"><ele>1690</ele><speed>12.15</speed><time>2016-06-01T13:46:12Z</time><pdop>8.0</pdop><geoidheight>50.60</geoidheight><course>303.0696</course><type>1</type></trkpt>
      <trkpt lat="39.14552399168297" lon="-6.18418634682882"><ele>1687</ele><speed>11.91</speed><time>2016-06-01T13:46:14Z</time><pdop>6.0</pdop><geoidheight>50.60</geoidheight><course>301.5504</course><type>1</type></trkpt>
      <trkpt lat="39.14563537004499" lon="-6.184410653428186"><ele>1684</ele><speed>11.57</speed><time>2016-06-01T13:46:16Z</time><pdop>6.0</pdop><geoidheight>50.60</geoidheight><course>304.22595</course><type>1</type></trkpt>
      <trkpt lat="39.14569413388541" lon="-6.184519740542276"><ele>1683</ele><speed>11.66</speed><time>2016-06-01T13:46:17Z</time><pdop>4.0</pdop><geoidheight>50.60</geoidheight><course>304.78186</course><type>1</type></trkpt>
      <trkpt lat="39.14575269557796" lon="-6.184628646085323"><ele>1682</ele><speed>11.60</speed><time>2016-06-01T13:46:18Z</time><pdop>4.0</pdop><geoidheight>50.60</geoidheight><course>303.59637</course><type>1</type></trkpt>
      <trkpt lat="39.145864231400104" lon="-6.184852537838403"><ele>1679</ele><speed>11.29</speed><time>2016-06-01T13:46:20Z</time><pdop>8.0</pdop><geoidheight>50.60</geoidheight><course>301.9702</course><type>1</type></trkpt>
      <trkpt lat="39.14597312463777" lon="-6.185089836552874"><ele>1677</ele><speed>12.13</speed><time>2016-06-01T13:46:22Z</time><pdop>8.0</pdop><geoidheight>50.60</geoidheight><course>299.74335</course><type>1</type></trkpt>
      <trkpt lat="39.14607399879654" lon="-6.185350048834853"><ele>1675</ele><speed>13.02</speed><time>2016-06-01T13:46:24Z</time><pdop>4.0</pdop><geoidheight>50.60</geoidheight><course>297.63126</course><type>1</type></trkpt>
      <trkpt lat="39.1461257293516" lon="-6.185485688993289"><ele>1674</ele><speed>13.27</speed><time>2016-06-01T13:46:25Z</time><pdop>4.0</pdop><geoidheight>50.60</geoidheight><course>298.29572</course><type>1</type></trkpt>
      <trkpt lat="39.146240327987144" lon="-6.185739835994722"><ele>1673</ele><speed>12.10</speed><time>2016-06-01T13:46:27Z</time><pdop>6.0</pdop><geoidheight>50.60</geoidheight><course>301.2365</course><type>1</type></trkpt>
      <trkpt lat="39.146346377496144" lon="-6.185964257695471"><ele>1673</ele><speed>10.46</speed><time>2016-06-01T13:46:29Z</time><pdop>6.0</pdop><geoidheight>50.60</geoidheight><course>301.7687</course><type>1</type></trkpt>
      <trkpt lat="39.14644263114275" lon="-6.1861677691188435"><ele>1674</ele><speed>9.62</speed><time>2016-06-01T13:46:31Z</time><pdop>4.0</pdop><geoidheight>50.60</geoidheight><course>301.7203</course><type>1</type></trkpt>
      <trkpt lat="39.14648532139685" lon="-6.186258424589179"><ele>1675</ele><speed>8.82</speed><time>2016-06-01T13:46:32Z</time><pdop>4.0</pdop><geoidheight>50.60</geoidheight><course>301.2889</course><type>1</type></trkpt>
      <trkpt lat="39.14656302209797" lon="-6.186424821498422"><ele>1676</ele><speed>8.08</speed><time>2016-06-01T13:46:34Z</time><pdop>4.0</pdop><geoidheight>50.60</geoidheight><course>301.1475</course><type>1</type></trkpt>
      <trkpt lat="39.14660357379122" lon="-6.186505054946761"><ele>1677</ele><speed>8.95</speed><time>2016-06-01T13:46:35Z</time><pdop>4.0</pdop><geoidheight>50.60</geoidheight><course>302.83005</course><type>1</type></trkpt>
      <trkpt lat="39.14665115632451" lon="-6.186595983466614"><ele>1677</ele><speed>10.12</speed><time>2016-06-01T13:46:36Z</time><pdop>4.0</pdop><geoidheight>50.60</geoidheight><course>303.82785</course><type>1</type></trkpt>
      <trkpt lat="39.146704321136944" lon="-6.186691763601671"><ele>1677</ele><speed>10.67</speed><time>2016-06-01T13:46:37Z</time><pdop>4.0</pdop><geoidheight>50.60</geoidheight><course>304.6515</course><type>1</type></trkpt>
      <trkpt lat="39.14675894773849" lon="-6.186788152947431"><ele>1677</ele><speed>10.23</speed><time>2016-06-01T13:46:38Z</time><pdop>4.0</pdop><geoidheight>50.60</geoidheight><course>305.36322</course><type>1</type></trkpt>
      <trkpt lat="39.14681130585415" lon="-6.186875193714311"><ele>1678</ele><speed>8.95</speed><time>2016-06-01T13:46:39Z</time><pdop>4.0</pdop><geoidheight>50.60</geoidheight><course>305.96545</course><type>1</type></trkpt>
      <trkpt lat="39.14686125342735" lon="-6.1869579390512035"><ele>1678</ele><speed>8.16</speed><time>2016-06-01T13:46:40Z</time><pdop>4.0</pdop><geoidheight>50.60</geoidheight><course>305.91855</course><type>1</type></trkpt>
      <trkpt lat="39.146954923504175" lon="-6.187119963142737"><ele>1680</ele><speed>8.78</speed><time>2016-06-01T13:46:42Z</time><pdop>4.0</pdop><geoidheight>50.60</geoidheight><course>306.05225</course><type>1</type></trkpt>
      <trkpt lat="39.14700359152239" lon="-6.187204751843439"><ele>1681</ele><speed>9.13</speed><time>2016-06-01T13:46:43Z</time><pdop>4.0</pdop><geoidheight>50.60</geoidheight><course>306.4281</course><type>1</type></trkpt>
      <trkpt lat="39.14709760796732" lon="-6.187363742262331"><ele>1682</ele><speed>8.43</speed><time>2016-06-01T13:46:45Z</time><pdop>4.0</pdop><geoidheight>50.60</geoidheight><course>307.49554</course><type>1</type></trkpt>
      <trkpt lat="39.14718767660996" lon="-6.18749312390571"><ele>1682</ele><speed>7.34</speed><time>2016-06-01T13:46:47Z</time><pdop>8.0</pdop><geoidheight>50.60</geoidheight><course>308.51984</course><type>1</type></trkpt>
      <trkpt lat="39.14739384221513" lon="-6.1873755608323044"><ele>1682</ele><speed>7.03</speed><time>2016-06-01T13:46:50Z</time><pdop>12.0</pdop><geoidheight>50.60</geoidheight><course>55.28247</course><type>1</type></trkpt>
      <trkpt lat="39.14750598413127" lon="-6.187154113162736"><ele>1686</ele><speed>5.38</speed><time>2016-06-01T13:46:53Z</time><pdop>8.0</pdop><geoidheight>50.60</geoidheight><course>63.391285</course><type>1</type></trkpt>
      <trkpt lat="39.147499419961214" lon="-6.1868831294844275"><ele>1689</ele><speed>10.29</speed><time>2016-06-01T13:46:56Z</time><pdop>8.0</pdop><geoidheight>50.60</geoidheight><course>114.81989</course><type>1</type></trkpt>
      <trkpt lat="39.147358837049175" lon="-6.186736182069987"><ele>1689</ele><speed>11.48</speed><time>2016-06-01T13:46:58Z</time><pdop>8.0</pdop><geoidheight>50.60</geoidheight><course>154.54219</course><type>1</type></trkpt>
      <trkpt lat="39.147188179996455" lon="-6.186771525524785"><ele>1688</ele><speed>9.85</speed><time>2016-06-01T13:47:00Z</time><pdop>8.0</pdop><geoidheight>50.60</geoidheight><course>204.8274</course><type>1</type></trkpt>
      <trkpt lat="39.147046728532565" lon="-6.186873817744206"><ele>1689</ele><speed>9.05</speed><time>2016-06-01T13:47:02Z</time><pdop>8.0</pdop><geoidheight>50.60</geoidheight><course>209.61327</course><type>1</type></trkpt>
      <trkpt lat="39.14693310803989" lon="-6.187054140028229"><ele>1688</ele><speed>11.35</speed><time>2016-06-01T13:47:04Z</time><pdop>8.0</pdop><geoidheight>50.60</geoidheight><course>236.00911</course><type>1</type></trkpt>
      <trkpt lat="39.146864004341644" lon="-6.187288004241186"><ele>1687</ele><speed>11.52</speed><time>2016-06-01T13:47:06Z</time><pdop>8.0</pdop><geoidheight>50.60</geoidheight><course>251.752</course><type>1</type></trkpt>
      <trkpt lat="39.146841096805964" lon="-6.187540950887114"><ele>1687</ele><speed>9.64</speed><time>2016-06-01T13:47:08Z</time><pdop>6.0</pdop><geoidheight>50.60</geoidheight><course>267.2505</course><type>1</type></trkpt>
      <trkpt lat="39.14685873198478" lon="-6.187751528235779"><ele>1689</ele><speed>9.26</speed><time>2016-06-01T13:47:10Z</time><pdop>12.0</pdop><geoidheight>50.60</geoidheight><course>287.52438</course><type>1</type></trkpt>
      <trkpt lat="39.147032278926524" lon="-6.1879676005249005"><ele>1690</ele><speed>9.92</speed><time>2016-06-01T13:47:13Z</time><pdop>8.0</pdop><geoidheight>50.60</geoidheight><course>312.33374</course><type>1</type></trkpt>
      <trkpt lat="39.147174226412716" lon="-6.187879849226884"><ele>1688</ele><speed>7.18</speed><time>2016-06-01T13:47:15Z</time><pdop>8.0</pdop><geoidheight>50.60</geoidheight><course>44.40313</course><type>1</type></trkpt>
      <trkpt lat="39.147266361147246" lon="-6.18767282393769"><ele>1690</ele><speed>6.81</speed><time>2016-06-01T13:47:18Z</time><pdop>12.0</pdop><geoidheight>50.60</geoidheight><course>80.38232</course><type>1</type></trkpt>
      <trkpt lat="39.147077800352136" lon="-6.187356933424968"><ele>1688</ele><speed>12.11</speed><time>2016-06-01T13:47:22Z</time><pdop>8.0</pdop><geoidheight>50.60</geoidheight><course>152.12288</course><type>1</type></trkpt>
      <trkpt lat="39.14687181124235" lon="-6.187455803561861"><ele>1687</ele><speed>13.01</speed><time>2016-06-01T13:47:24Z</time><pdop>12.0</pdop><geoidheight>50.60</geoidheight><course>214.51035</course><type>1</type></trkpt>
      <trkpt lat="39.14673887857655" lon="-6.187684306084946"><ele>1685</ele><speed>11.47</speed><time>2016-06-01T13:47:26Z</time><pdop>8.0</pdop><geoidheight>50.60</geoidheight><course>236.07854</course><type>1</type></trkpt>
      <trkpt lat="39.14665747939823" lon="-6.18790014355607"><ele>1685</ele><speed>9.83</speed><time>2016-06-01T13:47:28Z</time><pdop>8.0</pdop><geoidheight>50.60</geoidheight><course>243.57547</course><type>1</type></trkpt>
      <trkpt lat="39.146646952678765" lon="-6.188160896175495"><ele>1685</ele><speed>11.53</speed><time>2016-06-01T13:47:30Z</time><pdop>6.0</pdop><geoidheight>50.60</geoidheight><course>274.06134</course><type>1</type></trkpt>
      <trkpt lat="39.14670020517585" lon="-6.18841102636218"><ele>1685</ele><speed>11.65</speed><time>2016-06-01T13:47:32Z</time><pdop>6.0</pdop><geoidheight>50.60</geoidheight><course>290.60382</course><type>1</type></trkpt>
      <trkpt lat="39.14680057199569" lon="-6.188603989800318"><ele>1686</ele><speed>8.91</speed><time>2016-06-01T13:47:34Z</time><pdop>6.0</pdop><geoidheight>50.60</geoidheight><course>308.96765</course><type>1</type></trkpt>
      <trkpt lat="39.14690378301848" lon="-6.188745332586715"><ele>1687</ele><speed>8.67</speed><time>2016-06-01T13:47:36Z</time><pdop>6.0</pdop><geoidheight>50.60</geoidheight><course>315.6826</course><type>1</type></trkpt>
      <trkpt lat="39.1471372759817" lon="-6.188787962063147"><ele>1688</ele><speed>9.19</speed><time>2016-06-01T13:47:39Z</time><pdop>12.0</pdop><geoidheight>50.60</geoidheight><course>13.707951</course><type>1</type></trkpt>
      <trkpt lat="39.147266781335" lon="-6.188590384687212"><ele>1688</ele><speed>6.73</speed><time>2016-06-01T13:47:42Z</time><pdop>8.0</pdop><geoidheight>50.60</geoidheight><course>73.67435</course><type>1</type></trkpt>
      <trkpt lat="39.147230371440465" lon="-6.188385300894409"><ele>1689</ele><speed>9.11</speed><time>2016-06-01T13:47:45Z</time><pdop>8.0</pdop><geoidheight>50.60</geoidheight><course>126.68662</course><type>1</type></trkpt>
      <trkpt lat="39.14699726516305" lon="-6.188222244321922"><ele>1689</ele><speed>12.44</speed><time>2016-06-01T13:47:48Z</time><pdop>12.0</pdop><geoidheight>50.60</geoidheight><course>175.59543</course><type>1</type></trkpt>
      <trkpt lat="39.146758043478314" lon="-6.188480717856032"><ele>1688</ele><speed>10.84</speed><time>2016-06-01T13:47:50Z</time><pdop>8.0</pdop><geoidheight>50.60</geoidheight><course>229.87053</course><type>1</type></trkpt>
      <trkpt lat="39.146666747627215" lon="-6.188709581071442"><ele>1688</ele><speed>10.23</speed><time>2016-06-01T13:47:53Z</time><pdop>8.0</pdop><geoidheight>50.60</geoidheight><course>251.0407</course><type>1</type></trkpt>
      <trkpt lat="39.146683782365585" lon="-6.1889793324357845"><ele>1688</ele><speed>12.45</speed><time>2016-06-01T13:47:55Z</time><pdop>8.0</pdop><geoidheight>50.60</geoidheight><course>284.99658</course><type>1</type></trkpt>
      <trkpt lat="39.14674794015828" lon="-6.189223163658912"><ele>1687</ele><speed>11.68</speed><time>2016-06-01T13:47:57Z</time><pdop>8.0</pdop><geoidheight>50.60</geoidheight><course>291.86423</course><type>1</type></trkpt>
      <trkpt lat="39.146822899582936" lon="-6.1894223259856505"><ele>1687</ele><speed>9.75</speed><time>2016-06-01T13:47:59Z</time><pdop>6.0</pdop><geoidheight>50.60</geoidheight><course>293.96075</course><type>1</type></trkpt>
      <trkpt lat="39.1469034213063" lon="-6.189643641839776"><ele>1687</ele><speed>10.71</speed><time>2016-06-01T13:48:01Z</time><pdop>8.0</pdop><geoidheight>50.60</geoidheight><course>295.15372</course><type>1</type></trkpt>
      <trkpt lat="39.14700351063568" lon="-6.189891423209888"><ele>1688</ele><speed>10.94</speed><time>2016-06-01T13:48:02Z</time><pdop>8.0</pdop><geoidheight>50.60</geoidheight><course>297.0401</course><type>1</type></trkpt>
      <trkpt lat="39.147090894588565" lon="-6.190118089283733"><ele>1690</ele><speed>9.68</speed><time>2016-06-01T13:48:05Z</time><pdop>6.0</pdop><geoidheight>50.60</geoidheight><course>295.04858</course><type>1</type></trkpt>
      <trkpt lat="39.147163770723154" lon="-6.19033390096147"><ele>1692</ele><speed>10.33</speed><time>2016-06-01T13:48:07Z</time><pdop>8.0</pdop><geoidheight>50.60</geoidheight><course>294.0625</course><type>1</type></trkpt>
      <trkpt lat="39.14723896426219" lon="-6.190572796355039"><ele>1694</ele><speed>11.42</speed><time>2016-06-01T13:48:09Z</time><pdop>8.0</pdop><geoidheight>50.60</geoidheight><course>292.02374</course><type>1</type></trkpt>
      <trkpt lat="39.14730406383832" lon="-6.190803364839864"><ele>1694</ele><speed>10.85</speed><time>2016-06-01T13:48:11Z</time><pdop>8.0</pdop><geoidheight>50.60</geoidheight><course>290.38962</course><type>1</type></trkpt>
      <trkpt lat="39.14737887195897" lon="-6.191032984484438"><ele>1695</ele><speed>11.06</speed><time>2016-06-01T13:48:13Z</time><pdop>8.0</pdop><geoidheight>50.60</geoidheight><course>294.66394</course><type>1</type></trkpt>
      <trkpt lat="39.14747553490836" lon="-6.191278979603336"><ele>1696</ele><speed>11.91</speed><time>2016-06-01T13:48:15Z</time><pdop>4.0</pdop><geoidheight>50.60</geoidheight><course>295.08252</course><type>1</type></trkpt>
      <trkpt lat="39.14752332128027" lon="-6.191399530775027"><ele>1696</ele><speed>11.52</speed><time>2016-06-01T13:48:16Z</time><pdop>4.0</pdop><geoidheight>50.60</geoidheight><course>295.88647</course><type>1</type></trkpt>
      <trkpt lat="39.147570656698335" lon="-6.191517578027164"><ele>1696</ele><speed>11.39</speed><time>2016-06-01T13:48:17Z</time><pdop>4.0</pdop><geoidheight>50.60</geoidheight><course>297.03043</course><type>1</type></trkpt>
      <trkpt lat="39.14761548060832" lon="-6.191628940093932"><ele>1697</ele><speed>10.70</speed><time>2016-06-01T13:48:18Z</time><pdop>4.0</pdop><geoidheight>50.60</geoidheight><course>296.62494</course><type>1</type></trkpt>
      <trkpt lat="39.14765914818646" lon="-6.1917440988384955"><ele>1698</ele><speed>10.78</speed><time>2016-06-01T13:48:19Z</time><pdop>4.0</pdop><geoidheight>50.60</geoidheight><course>294.97775</course><type>1</type></trkpt>
      <trkpt lat="39.14773782058655" lon="-6.191992930893782"><ele>1698</ele><speed>12.03</speed><time>2016-06-01T13:48:21Z</time><pdop>8.0</pdop><geoidheight>50.60</geoidheight><course>291.94818</course><type>1</type></trkpt>
      <trkpt lat="39.147801538254555" lon="-6.192234807009639"><ele>1700</ele><speed>9.62</speed><time>2016-06-01T13:48:23Z</time><pdop>4.0</pdop><geoidheight>50.60</geoidheight><course>288.5801</course><type>1</type></trkpt>
      <trkpt lat="39.147838764022694" lon="-6.192425478849848"><ele>1702</ele><speed>7.60</speed><time>2016-06-01T13:48:25Z</time><pdop>6.0</pdop><geoidheight>50.60</geoidheight><course>284.28748</course><type>1</type></trkpt>
      <trkpt lat="39.147895244081234" lon="-6.1925839737195485"><ele>1703</ele><speed>6.41</speed><time>2016-06-01T13:48:27Z</time><pdop>6.0</pdop><geoidheight>50.60</geoidheight><course>302.22202</course><type>1</type></trkpt>
      <trkpt lat="39.1480228459662" lon="-6.192640755193193"><ele>1702</ele><speed>7.59</speed><time>2016-06-01T13:48:29Z</time><pdop>8.0</pdop><geoidheight>50.60</geoidheight><course>354.15628</course><type>1</type></trkpt>
      <trkpt lat="39.148124931336596" lon="-6.192505742816085"><ele>1701</ele><speed>5.62</speed><time>2016-06-01T13:48:33Z</time><pdop>8.0</pdop><geoidheight>50.60</geoidheight><course>82.52396</course><type>1</type></trkpt>
      <trkpt lat="39.14803622364665" lon="-6.192303893741369"><ele>1698</ele><speed>9.54</speed><time>2016-06-01T13:48:36Z</time><pdop>8.0</pdop><geoidheight>50.60</geoidheight><course>140.34595</course><type>1</type></trkpt>
      <trkpt lat="39.14781161972733" lon="-6.192266217879645"><ele>1695</ele><speed>13.22</speed><time>2016-06-01T13:48:38Z</time><pdop>8.0</pdop><geoidheight>50.60</geoidheight><course>185.44075</course><type>1</type></trkpt>
      <trkpt lat="39.14759720534089" lon="-6.192398151980004"><ele>1692</ele><speed>15.73</speed><time>2016-06-01T13:48:40Z</time><pdop>8.0</pdop><geoidheight>50.60</geoidheight><course>205.97185</course><type>1</type></trkpt>
      <trkpt lat="39.14744628362987" lon="-6.192657243856385"><ele>1689</ele><speed>15.08</speed><time>2016-06-01T13:48:41Z</time><pdop>8.0</pdop><geoidheight>50.60</geoidheight><course>240.60173</course><type>1</type></trkpt>
      <trkpt lat="39.14737343276266" lon="-6.192965767898382"><ele>1687</ele><speed>13.09</speed><time>2016-06-01T13:48:44Z</time><pdop>8.0</pdop><geoidheight>50.60</geoidheight><course>266.48734</course><type>1</type></trkpt>
      <trkpt lat="39.14739774629354" lon="-6.193222384654703"><ele>1684</ele><speed>11.17</speed><time>2016-06-01T13:48:46Z</time><pdop>8.0</pdop><geoidheight>50.60</geoidheight><course>286.7146</course><type>1</type></trkpt>
      <trkpt lat="39.14745686760091" lon="-6.193458687900344"><ele>1682</ele><speed>11.86</speed><time>2016-06-01T13:48:48Z</time><pdop>4.0</pdop><geoidheight>50.60</geoidheight><course>290.62933</course><type>1</type></trkpt>
      <trkpt lat="39.14749581541936" lon="-6.193579404378935"><ele>1681</ele><speed>12.09</speed><time>2016-06-01T13:48:49Z</time><pdop>4.0</pdop><geoidheight>50.60</geoidheight><course>292.5666</course><type>1</type></trkpt>
      <trkpt lat="39.14753630364844" lon="-6.193693717737956"><ele>1680</ele><speed>11.31</speed><time>2016-06-01T13:48:50Z</time><pdop>6.0</pdop><geoidheight>50.60</geoidheight><course>293.7938</course><type>1</type></trkpt>
      <trkpt lat="39.1476157644801" lon="-6.1939004797149595"><ele>1678</ele><speed>9.60</speed><time>2016-06-01T13:48:52Z</time><pdop>4.0</pdop><geoidheight>50.60</geoidheight><course>295.85272</course><type>1</type></trkpt>
      <trkpt lat="39.14765296758413" lon="-6.193994674133798"><ele>1678</ele><speed>9.81</speed><time>2016-06-01T13:48:53Z</time><pdop>4.0</pdop><geoidheight>50.60</geoidheight><course>296.22464</course><type>1</type></trkpt>
      <trkpt lat="39.14769464119255" lon="-6.194099579266608"><ele>1677</ele><speed>10.74</speed><time>2016-06-01T13:48:54Z</time><pdop>6.0</pdop><geoidheight>50.60</geoidheight><course>295.84814</course><type>1</type></trkpt>
      <trkpt lat="39.147781786689926" lon="-6.194323814499199"><ele>1674</ele><speed>10.83</speed><time>2016-06-01T13:48:56Z</time><pdop>6.0</pdop><geoidheight>50.60</geoidheight><course>295.75998</course><type>1</type></trkpt>
      <trkpt lat="39.14786570215322" lon="-6.194525376109489"><ele>1672</ele><speed>9.18</speed><time>2016-06-01T13:48:58Z</time><pdop>4.0</pdop><geoidheight>50.60</geoidheight><course>297.69452</course><type>1</type></trkpt>
      <trkpt lat="39.14790695380883" lon="-6.1946212993781655"><ele>1671</ele><speed>9.25</speed><time>2016-06-01T13:48:59Z</time><pdop>4.0</pdop><geoidheight>50.60</geoidheight><course>298.24188</course><type>1</type></trkpt>
      <trkpt lat="39.14799406255276" lon="-6.194822854936965"><ele>1669</ele><speed>10.61</speed><time>2016-06-01T13:49:01Z</time><pdop>4.0</pdop><geoidheight>50.60</geoidheight><course>297.81424</course><type>1</type></trkpt>
      <trkpt lat="39.148087438447945" lon="-6.1950323769393245"><ele>1666</ele><speed>10.76</speed><time>2016-06-01T13:49:03Z</time><pdop>8.0</pdop><geoidheight>50.60</geoidheight><course>299.48157</course><type>1</type></trkpt>
      <trkpt lat="39.148177491134035" lon="-6.195245250823311"><ele>1665</ele><speed>9.96</speed><time>2016-06-01T13:49:05Z</time><pdop>8.0</pdop><geoidheight>50.60</geoidheight><course>297.0738</course><type>1</type></trkpt>
      <trkpt lat="39.14826079384566" lon="-6.195456572882736"><ele>1664</ele><speed>10.23</speed><time>2016-06-01T13:49:07Z</time><pdop>4.0</pdop><geoidheight>50.60</geoidheight><course>297.18036</course><type>1</type></trkpt>
      <trkpt lat="39.14830145096214" lon="-6.19555880535631"><ele>1663</ele><speed>10.26</speed><time>2016-06-01T13:49:08Z</time><pdop>4.0</pdop><geoidheight>50.60</geoidheight><course>297.94858</course><type>1</type></trkpt>
      <trkpt lat="39.14834462104686" lon="-6.1956646906355655"><ele>1662</ele><speed>9.93</speed><time>2016-06-01T13:49:09Z</time><pdop>4.0</pdop><geoidheight>50.60</geoidheight><course>298.03156</course><type>1</type></trkpt>
      <trkpt lat="39.14838670538621" lon="-6.195767674692062"><ele>1661</ele><speed>9.35</speed><time>2016-06-01T13:49:09Z</time><pdop>4.0</pdop><geoidheight>50.60</geoidheight><course>297.5972</course><type>1</type></trkpt>
      <trkpt lat="39.14842603548757" lon="-6.195865981663678"><ele>1660</ele><speed>9.09</speed><time>2016-06-01T13:49:10Z</time><pdop>4.0</pdop><geoidheight>50.60</geoidheight><course>296.9844</course><type>1</type></trkpt>
      <trkpt lat="39.1485023451257" lon="-6.196053989238826"><ele>1659</ele><speed>9.88</speed><time>2016-06-01T13:49:13Z</time><pdop>12.0</pdop><geoidheight>50.60</geoidheight><course>296.2264</course><type>1</type></trkpt>
      <trkpt lat="39.148609055136816" lon="-6.196341550895291"><ele>1658</ele><speed>8.69</speed><time>2016-06-01T13:49:16Z</time><pdop>4.0</pdop><geoidheight>50.60</geoidheight><course>295.4338</course><type>1</type></trkpt>
      <trkpt lat="39.14867833884591" lon="-6.1965321123859205"><ele>1657</ele><speed>9.33</speed><time>2016-06-01T13:49:18Z</time><pdop>6.0</pdop><geoidheight>50.60</geoidheight><course>295.30283</course><type>1</type></trkpt>
      <trkpt lat="39.14875172428662" lon="-6.196735452434593"><ele>1656</ele><speed>9.84</speed><time>2016-06-01T13:49:20Z</time><pdop>12.0</pdop><geoidheight>50.60</geoidheight><course>294.50122</course><type>1</type></trkpt>
      <trkpt lat="39.14885101916322" lon="-6.197037154301248"><ele>1654</ele><speed>8.78</speed><time>2016-06-01T13:49:23Z</time><pdop>4.0</pdop><geoidheight>50.60</geoidheight><course>292.93997</course><type>1</type></trkpt>
      <trkpt lat="39.14890558018719" lon="-6.19721273153592"><ele>1653</ele><speed>8.23</speed><time>2016-06-01T13:49:25Z</time><pdop>8.0</pdop><geoidheight>50.60</geoidheight><course>293.48633</course><type>1</type></trkpt>
      <trkpt lat="39.14896736230398" lon="-6.197394306143696"><ele>1652</ele><speed>9.30</speed><time>2016-06-01T13:49:27Z</time><pdop>6.0</pdop><geoidheight>50.60</geoidheight><course>294.00134</course><type>1</type></trkpt>
      <trkpt lat="39.14902590139051" lon="-6.19760088773243"><ele>1649</ele><speed>9.87</speed><time>2016-06-01T13:49:29Z</time><pdop>4.0</pdop><geoidheight>50.60</geoidheight><course>289.4232</course><type>1</type></trkpt>
      <trkpt lat="39.14906756712634" lon="-6.197811213585844"><ele>1647</ele><speed>9.21</speed><time>2016-06-01T13:49:31Z</time><pdop>8.0</pdop><geoidheight>50.60</geoidheight><course>285.9259</course><type>1</type></trkpt>
      <trkpt lat="39.149107017819205" lon="-6.198016574026612"><ele>1644</ele><speed>9.24</speed><time>2016-06-01T13:49:33Z</time><pdop>8.0</pdop><geoidheight>50.60</geoidheight><course>286.26428</course><type>1</type></trkpt>
      <trkpt lat="39.1491498660884" lon="-6.198226794834928"><ele>1642</ele><speed>9.18</speed><time>2016-06-01T13:49:35Z</time><pdop>8.0</pdop><geoidheight>50.60</geoidheight><course>285.41467</course><type>1</type></trkpt>
      <trkpt lat="39.14919675729713" lon="-6.198426060271755"><ele>1639</ele><speed>8.89</speed><time>2016-06-01T13:49:37Z</time><pdop>6.0</pdop><geoidheight>50.60</geoidheight><course>289.0935</course><type>1</type></trkpt>
      <trkpt lat="39.14928723011614" lon="-6.19870639415105"><ele>1635</ele><speed>8.71</speed><time>2016-06-01T13:49:40Z</time><pdop>6.0</pdop><geoidheight>50.60</geoidheight><course>291.43326</course><type>1</type></trkpt>
      <trkpt lat="39.1493439906121" lon="-6.198899521138965"><ele>1632</ele><speed>9.20</speed><time>2016-06-01T13:49:42Z</time><pdop>8.0</pdop><geoidheight>50.60</geoidheight><course>289.1851</course><type>1</type></trkpt>
      <trkpt lat="39.14940008350717" lon="-6.199115069920715"><ele>1630</ele><speed>10.16</speed><time>2016-06-01T13:49:44Z</time><pdop>8.0</pdop><geoidheight>50.60</geoidheight><course>288.94342</course><type>1</type></trkpt>
      <trkpt lat="39.14946539811172" lon="-6.199325632996407"><ele>1627</ele><speed>9.95</speed><time>2016-06-01T13:49:46Z</time><pdop>8.0</pdop><geoidheight>50.60</geoidheight><course>293.09738</course><type>1</type></trkpt>
      <trkpt lat="39.149545187826284" lon="-6.1995302581964244"><ele>1626</ele><speed>10.15</speed><time>2016-06-01T13:49:48Z</time><pdop>8.0</pdop><geoidheight>50.60</geoidheight><course>296.06415</course><type>1</type></trkpt>
      <trkpt lat="39.14962470330176" lon="-6.199717560731791"><ele>1625</ele><speed>7.74</speed><time>2016-06-01T13:49:50Z</time><pdop>8.0</pdop><geoidheight>50.60</geoidheight><course>297.51343</course><type>1</type></trkpt>
      <trkpt lat="39.149716955680866" lon="-6.199892719828226"><ele>1625</ele><speed>6.41</speed><time>2016-06-01T13:49:53Z</time><pdop>8.0</pdop><geoidheight>50.60</geoidheight><course>303.98227</course><type>1</type></trkpt>
      <trkpt lat="39.14982656921372" lon="-6.200082843224056"><ele>1623</ele><speed>7.12</speed><time>2016-06-01T13:49:56Z</time><pdop>8.0</pdop><geoidheight>50.60</geoidheight><course>302.71027</course><type>1</type></trkpt>
      <trkpt lat="39.14992907761959" lon="-6.200284717417353"><ele>1619</ele><speed>7.51</speed><time>2016-06-01T13:49:59Z</time><pdop>12.0</pdop><geoidheight>50.60</geoidheight><course>301.77213</course><type>1</type></trkpt>
      <trkpt lat="39.150048918418804" lon="-6.200539718148594"><ele>1616</ele><speed>8.33</speed><time>2016-06-01T13:50:02Z</time><pdop>8.0</pdop><geoidheight>50.60</geoidheight><course>298.61804</course><type>1</type></trkpt>
      <trkpt lat="39.1501428166507" lon="-6.200789713111364"><ele>1615</ele><speed>7.66</speed><time>2016-06-01T13:50:05Z</time><pdop>12.0</pdop><geoidheight>50.60</geoidheight><course>296.41656</course><type>1</type></trkpt>
      <trkpt lat="39.150226582233266" lon="-6.201056968284695"><ele>1614</ele><speed>8.37</speed><time>2016-06-01T13:50:08Z</time><pdop>8.0</pdop><geoidheight>50.60</geoidheight><course>292.24863</course><type>1</type></trkpt>
      <trkpt lat="39.150303512698606" lon="-6.201280781210822"><ele>1614</ele><speed>6.52</speed><time>2016-06-01T13:50:11Z</time><pdop>12.0</pdop><geoidheight>50.60</geoidheight><course>296.1033</course><type>1</type></trkpt>
      <trkpt lat="39.150403598460684" lon="-6.201508029484604"><ele>1615</ele><speed>8.34</speed><time>2016-06-01T13:50:13Z</time><pdop>8.0</pdop><geoidheight>50.60</geoidheight><course>300.69797</course><type>1</type></trkpt>
      <trkpt lat="39.15053303991985" lon="-6.20171843413693"><ele>1615</ele><speed>6.86</speed><time>2016-06-01T13:50:17Z</time><pdop>8.0</pdop><geoidheight>50.60</geoidheight><course>308.67422</course><type>1</type></trkpt>
      <trkpt lat="39.15065532105667" lon="-6.201891139415156"><ele>1617</ele><speed>7.11</speed><time>2016-06-01T13:50:20Z</time><pdop>12.0</pdop><geoidheight>50.60</geoidheight><course>311.88593</course><type>1</type></trkpt>
      <trkpt lat="39.15083160191313" lon="-6.202090366428627"><ele>1618</ele><speed>9.33</speed><time>2016-06-01T13:50:23Z</time><pdop>6.0</pdop><geoidheight>50.60</geoidheight><course>316.5381</course><type>1</type></trkpt>
      <trkpt lat="39.1509276050419" lon="-6.202247982017414"><ele>1617</ele><speed>8.46</speed><time>2016-06-01T13:50:25Z</time><pdop>6.0</pdop><geoidheight>50.60</geoidheight><course>297.91397</course><type>1</type></trkpt>
      <trkpt lat="39.151004580591604" lon="-6.2024108884779094"><ele>1616</ele><speed>8.34</speed><time>2016-06-01T13:50:27Z</time><pdop>6.0</pdop><geoidheight>50.60</geoidheight><course>298.60034</course><type>1</type></trkpt>
      <trkpt lat="39.151090458651666" lon="-6.2025876261768484"><ele>1614</ele><speed>9.98</speed><time>2016-06-01T13:50:29Z</time><pdop>12.0</pdop><geoidheight>50.60</geoidheight><course>299.58826</course><type>1</type></trkpt>
      <trkpt lat="39.15122525129904" lon="-6.202879667223167"><ele>1610</ele><speed>9.31</speed><time>2016-06-01T13:50:32Z</time><pdop>4.0</pdop><geoidheight>50.60</geoidheight><course>298.1709</course><type>1</type></trkpt>
      <trkpt lat="39.1512652088036" lon="-6.202973684199161"><ele>1609</ele><speed>9.06</speed><time>2016-06-01T13:50:33Z</time><pdop>4.0</pdop><geoidheight>50.60</geoidheight><course>297.70523</course><type>1</type></trkpt>
      <trkpt lat="39.15133573717844" lon="-6.203160580232162"><ele>1607</ele><speed>8.96</speed><time>2016-06-01T13:50:35Z</time><pdop>6.0</pdop><geoidheight>50.60</geoidheight><course>295.58444</course><type>1</type></trkpt>
      <trkpt lat="39.151396526919406" lon="-6.203356251744263"><ele>1605</ele><speed>9.32</speed><time>2016-06-01T13:50:37Z</time><pdop>6.0</pdop><geoidheight>50.60</geoidheight><course>292.13922</course><type>1</type></trkpt>
      <trkpt lat="39.15145858669662" lon="-6.203567976009505"><ele>1603</ele><speed>10.07</speed><time>2016-06-01T13:50:39Z</time><pdop>8.0</pdop><geoidheight>50.60</geoidheight><course>292.13556</course><type>1</type></trkpt>
      <trkpt lat="39.15152530132592" lon="-6.203780194718717"><ele>1600</ele><speed>9.81</speed><time>2016-06-01T13:50:41Z</time><pdop>8.0</pdop><geoidheight>50.60</geoidheight><course>292.8319</course><type>1</type></trkpt>
      <trkpt lat="39.15158797208309" lon="-6.203988152639161"><ele>1598</ele><speed>9.33</speed><time>2016-06-01T13:50:43Z</time><pdop>8.0</pdop><geoidheight>50.60</geoidheight><course>290.29144</course><type>1</type></trkpt>
      <trkpt lat="39.15164499290286" lon="-6.204192722198295"><ele>1598</ele><speed>10.00</speed><time>2016-06-01T13:50:45Z</time><pdop>6.0</pdop><geoidheight>50.60</geoidheight><course>290.02933</course><type>1</type></trkpt>
      <trkpt lat="39.15171733654164" lon="-6.204428246823022"><ele>1598</ele><speed>12.45</speed><time>2016-06-01T13:50:47Z</time><pdop>12.0</pdop><geoidheight>50.60</geoidheight><course>291.42102</course><type>1</type></trkpt>
      <trkpt lat="39.151798712233685" lon="-6.204687387023422"><ele>1599</ele><speed>10.96</speed><time>2016-06-01T13:50:49Z</time><pdop>8.0</pdop><geoidheight>50.60</geoidheight><course>290.58176</course><type>1</type></trkpt>
      <trkpt lat="39.151869766498336" lon="-6.204902445332511"><ele>1600</ele><speed>9.27</speed><time>2016-06-01T13:50:51Z</time><pdop>4.0</pdop><geoidheight>50.60</geoidheight><course>294.103</course><type>1</type></trkpt>
      <trkpt lat="39.15194550592391" lon="-6.205089745499816"><ele>1600</ele><speed>9.30</speed><time>2016-06-01T13:50:53Z</time><pdop>6.0</pdop><geoidheight>50.60</geoidheight><course>296.50848</course><type>1</type></trkpt>
      <trkpt lat="39.152038029219284" lon="-6.205260233543771"><ele>1598</ele><speed>8.64</speed><time>2016-06-01T13:50:55Z</time><pdop>8.0</pdop><geoidheight>50.60</geoidheight><course>311.53314</course><type>1</type></trkpt>
      <trkpt lat="39.1521912492057" lon="-6.205486891260493"><ele>1594</ele><speed>8.41</speed><time>2016-06-01T13:50:58Z</time><pdop>4.0</pdop><geoidheight>50.60</geoidheight><course>310.47495</course><type>1</type></trkpt>
      <trkpt lat="39.15230776891571" lon="-6.2056526910019505"><ele>1593</ele><speed>11.05</speed><time>2016-06-01T13:51:00Z</time><pdop>8.0</pdop><geoidheight>50.60</geoidheight><course>312.3532</course><type>1</type></trkpt>
      <trkpt lat="39.152434882831905" lon="-6.205851771051688"><ele>1593</ele><speed>10.91</speed><time>2016-06-01T13:51:02Z</time><pdop>8.0</pdop><geoidheight>50.60</geoidheight><course>308.99997</course><type>1</type></trkpt>
      <trkpt lat="39.15254415320477" lon="-6.206049809257416"><ele>1593</ele><speed>10.18</speed><time>2016-06-01T13:51:04Z</time><pdop>4.0</pdop><geoidheight>50.60</geoidheight><course>305.93018</course><type>1</type></trkpt>
      <trkpt lat="39.152595543192014" lon="-6.206150313817417"><ele>1592</ele><speed>10.79</speed><time>2016-06-01T13:51:05Z</time><pdop>6.0</pdop><geoidheight>50.60</geoidheight><course>304.79532</course><type>1</type></trkpt>
      <trkpt lat="39.15270927414374" lon="-6.206368329801773"><ele>1590</ele><speed>12.02</speed><time>2016-06-01T13:51:07Z</time><pdop>8.0</pdop><geoidheight>50.60</geoidheight><course>305.33237</course><type>1</type></trkpt>
      <trkpt lat="39.152832016901364" lon="-6.206585534929714"><ele>1588</ele><speed>11.30</speed><time>2016-06-01T13:51:09Z</time><pdop>6.0</pdop><geoidheight>50.60</geoidheight><course>305.27414</course><type>1</type></trkpt>
      <trkpt lat="39.15288818399671" lon="-6.206695803061982"><ele>1588</ele><speed>10.83</speed><time>2016-06-01T13:51:10Z</time><pdop>4.0</pdop><geoidheight>50.60</geoidheight><course>303.7688</course><type>1</type></trkpt>
      <trkpt lat="39.152937627465256" lon="-6.2068000592860555"><ele>1587</ele><speed>10.45</speed><time>2016-06-01T13:51:11Z</time><pdop>6.0</pdop><geoidheight>50.60</geoidheight><course>302.5089</course><type>1</type></trkpt>
      <trkpt lat="39.153042933452795" lon="-6.207007684805885"><ele>1587</ele><speed>11.11</speed><time>2016-06-01T13:51:13Z</time><pdop>6.0</pdop><geoidheight>50.60</geoidheight><course>305.0429</course><type>1</type></trkpt>
      <trkpt lat="39.153155897393276" lon="-6.207202137606069"><ele>1585</ele><speed>10.17</speed><time>2016-06-01T13:51:15Z</time><pdop>12.0</pdop><geoidheight>50.60</geoidheight><course>305.96625</course><type>1</type></trkpt>
      <trkpt lat="39.153288503715075" lon="-6.207450923021584"><ele>1581</ele><speed>9.37</speed><time>2016-06-01T13:51:18Z</time><pdop>8.0</pdop><geoidheight>50.60</geoidheight><course>305.1822</course><type>1</type></trkpt>
      <trkpt lat="39.15341252842565" lon="-6.207640688058174"><ele>1577</ele><speed>11.41</speed><time>2016-06-01T13:51:20Z</time><pdop>6.0</pdop><geoidheight>50.60</geoidheight><course>309.38565</course><type>1</type></trkpt>
      <trkpt lat="39.15352041719383" lon="-6.207784953124016"><ele>1572</ele><speed>7.80</speed><time>2016-06-01T13:51:22Z</time><pdop>8.0</pdop><geoidheight>50.60</geoidheight><course>308.371</course><type>1</type></trkpt>
      <trkpt lat="39.15365158061104" lon="-6.207996777932238"><ele>1566</ele><speed>9.18</speed><time>2016-06-01T13:51:25Z</time><pdop>12.0</pdop><geoidheight>50.60</geoidheight><course>305.5388</course><type>1</type></trkpt>
      <trkpt lat="39.15376532682116" lon="-6.208191913110884"><ele>1561</ele><speed>10.86</speed><time>2016-06-01T13:51:27Z</time><pdop>6.0</pdop><geoidheight>50.60</geoidheight><course>303.8865</course><type>1</type></trkpt>
      <trkpt lat="39.153862388619714" lon="-6.2083863867336"><ele>1556</ele><speed>9.46</speed><time>2016-06-01T13:51:29Z</time><pdop>8.0</pdop><geoidheight>50.60</geoidheight><course>300.8883</course><type>1</type></trkpt>
      <trkpt lat="39.153952078517655" lon="-6.208533367625796"><ele>1551</ele><speed>8.55</speed><time>2016-06-01T13:51:31Z</time><pdop>8.0</pdop><geoidheight>50.60</geoidheight><course>314.075</course><type>1</type></trkpt>
      <trkpt lat="39.15406335310176" lon="-6.208681764283618"><ele>1544</ele><speed>10.46</speed><time>2016-06-01T13:51:33Z</time><pdop>4.0</pdop><geoidheight>50.60</geoidheight><course>314.66098</course><type>1</type></trkpt>
      <trkpt lat="39.15412936067675" lon="-6.2087681230863705"><ele>1540</ele><speed>11.20</speed><time>2016-06-01T13:51:34Z</time><pdop>6.0</pdop><geoidheight>50.60</geoidheight><course>313.49374</course><type>1</type></trkpt>
      <trkpt lat="39.15425806038981" lon="-6.2089248934798915"><ele>1534</ele><speed>9.85</speed><time>2016-06-01T13:51:36Z</time><pdop>8.0</pdop><geoidheight>50.60</geoidheight><course>317.37308</course><type>1</type></trkpt>
      <trkpt lat="39.15440035006404" lon="-6.209023821303251"><ele>1526</ele><speed>9.14</speed><time>2016-06-01T13:51:38Z</time><pdop>6.0</pdop><geoidheight>50.60</geoidheight><course>329.62946</course><type>1</type></trkpt>
      <trkpt lat="39.15454183917902" lon="-6.209144544536533"><ele>1519</ele><speed>9.66</speed><time>2016-06-01T13:51:40Z</time><pdop>6.0</pdop><geoidheight>50.60</geoidheight><course>323.11017</course><type>1</type></trkpt>
      <trkpt lat="39.15467835320537" lon="-6.209286681436512"><ele>1513</ele><speed>9.89</speed><time>2016-06-01T13:51:42Z</time><pdop>8.0</pdop><geoidheight>50.60</geoidheight><course>320.9593</course><type>1</type></trkpt>
      <trkpt lat="39.15481362397427" lon="-6.209444146327949"><ele>1508</ele><speed>10.35</speed><time>2016-06-01T13:51:44Z</time><pdop>8.0</pdop><geoidheight>50.60</geoidheight><course>316.5055</course><type>1</type></trkpt>
      <trkpt lat="39.15491652498654" lon="-6.209640830391996"><ele>1503</ele><speed>10.54</speed><time>2016-06-01T13:51:46Z</time><pdop>6.0</pdop><geoidheight>50.60</geoidheight><course>301.84564</course><type>1</type></trkpt>
      <trkpt lat="39.155022284673386" lon="-6.209838548229639"><ele>1499</ele><speed>10.38</speed><time>2016-06-01T13:51:48Z</time><pdop>6.0</pdop><geoidheight>50.60</geoidheight><course>304.9923</course><type>1</type></trkpt>
      <trkpt lat="39.15514694989874" lon="-6.210038227807271"><ele>1495</ele><speed>10.83</speed><time>2016-06-01T13:51:50Z</time><pdop>8.0</pdop><geoidheight>50.60</geoidheight><course>307.77844</course><type>1</type></trkpt>
      <trkpt lat="39.15526390917185" lon="-6.210233478468369"><ele>1490</ele><speed>11.20</speed><time>2016-06-01T13:51:52Z</time><pdop>6.0</pdop><geoidheight>50.60</geoidheight><course>307.8306</course><type>1</type></trkpt>
      <trkpt lat="39.15538180655515" lon="-6.21039453814772"><ele>1486</ele><speed>9.81</speed><time>2016-06-01T13:51:54Z</time><pdop>6.0</pdop><geoidheight>50.60</geoidheight><course>312.02625</course><type>1</type></trkpt>
      <trkpt lat="39.155503057000736" lon="-6.21055323943403"><ele>1482</ele><speed>10.70</speed><time>2016-06-01T13:51:56Z</time><pdop>4.0</pdop><geoidheight>50.60</geoidheight><course>313.51248</course><type>1</type></trkpt>
      <trkpt lat="39.15557535156706" lon="-6.210644084111986"><ele>1479</ele><speed>11.15</speed><time>2016-06-01T13:51:57Z</time><pdop>4.0</pdop><geoidheight>50.60</geoidheight><course>314.92297</course><type>1</type></trkpt>
      <trkpt lat="39.15573158849841" lon="-6.210799256166338"><ele>1475</ele><speed>10.20</speed><time>2016-06-01T13:51:59Z</time><pdop>8.0</pdop><geoidheight>50.60</geoidheight><course>321.12808</course><type>1</type></trkpt>
      <trkpt lat="39.15587531881714" lon="-6.210917161888588"><ele>1471</ele><speed>9.16</speed><time>2016-06-01T13:52:01Z</time><pdop>8.0</pdop><geoidheight>50.60</geoidheight><course>323.7345</course><type>1</type></trkpt>
      <trkpt lat="39.156079024333394" lon="-6.211095078549492"><ele>1465</ele><speed>9.61</speed><time>2016-06-01T13:52:04Z</time><pdop>6.0</pdop><geoidheight>50.60</geoidheight><course>321.46988</course><type>1</type></trkpt>
      <trkpt lat="39.156229329016355" lon="-6.2112591694586"><ele>1461</ele><speed>11.35</speed><time>2016-06-01T13:52:06Z</time><pdop>6.0</pdop><geoidheight>50.60</geoidheight><course>318.27914</course><type>1</type></trkpt>
      <trkpt lat="39.15636322810402" lon="-6.211421749040694"><ele>1457</ele><speed>8.83</speed><time>2016-06-01T13:52:08Z</time><pdop>8.0</pdop><geoidheight>50.60</geoidheight><course>315.96384</course><type>1</type></trkpt>
      <trkpt lat="39.1564756427398" lon="-6.211569686980159"><ele>1454</ele><speed>9.01</speed><time>2016-06-01T13:52:10Z</time><pdop>8.0</pdop><geoidheight>50.60</geoidheight><course>314.04626</course><type>1</type></trkpt>
      <trkpt lat="39.1566053879462" lon="-6.211736495564297"><ele>1449</ele><speed>10.90</speed><time>2016-06-01T13:52:12Z</time><pdop>8.0</pdop><geoidheight>50.60</geoidheight><course>314.0217</course><type>1</type></trkpt>
      <trkpt lat="39.15675205925634" lon="-6.2119200793355756"><ele>1444</ele><speed>11.48</speed><time>2016-06-01T13:52:14Z</time><pdop>8.0</pdop><geoidheight>50.60</geoidheight><course>313.94617</course><type>1</type></trkpt>
      <trkpt lat="39.15688914231644" lon="-6.212094279689413"><ele>1440</ele><speed>9.64</speed><time>2016-06-01T13:52:16Z</time><pdop>8.0</pdop><geoidheight>50.60</geoidheight><course>314.741</course><type>1</type></trkpt>
      <trkpt lat="39.157007014265766" lon="-6.212243317638666"><ele>1437</ele><speed>8.74</speed><time>2016-06-01T13:52:18Z</time><pdop>8.0</pdop><geoidheight>50.60</geoidheight><course>315.1862</course><type>1</type></trkpt>
      <trkpt lat="39.1571352929223" lon="-6.212400082805927"><ele>1434</ele><speed>10.77</speed><time>2016-06-01T13:52:20Z</time><pdop>8.0</pdop><geoidheight>50.60</geoidheight><course>315.15247</course><type>1</type></trkpt>
      <trkpt lat="39.1572745961659" lon="-6.2125880072136495"><ele>1432</ele><speed>10.98</speed><time>2016-06-01T13:52:22Z</time><pdop>8.0</pdop><geoidheight>50.60</geoidheight><course>312.6001</course><type>1</type></trkpt>
      <trkpt lat="39.15739920332124" lon="-6.212760053185914"><ele>1429</ele><speed>8.71</speed><time>2016-06-01T13:52:24Z</time><pdop>12.0</pdop><geoidheight>50.60</geoidheight><course>311.90448</course><type>1</type></trkpt>
      <trkpt lat="39.157557685196586" lon="-6.21299736072459"><ele>1426</ele><speed>9.34</speed><time>2016-06-01T13:52:27Z</time><pdop>12.0</pdop><geoidheight>50.60</geoidheight><course>310.2593</course><type>1</type></trkpt>
      <trkpt lat="39.15773155344111" lon="-6.213267437922589"><ele>1423</ele><speed>10.71</speed><time>2016-06-01T13:52:30Z</time><pdop>4.0</pdop><geoidheight>50.60</geoidheight><course>312.3314</course><type>1</type></trkpt>
      <trkpt lat="39.1577978949667" lon="-6.213351087522907"><ele>1423</ele><speed>10.00</speed><time>2016-06-01T13:52:31Z</time><pdop>6.0</pdop><geoidheight>50.60</geoidheight><course>314.68863</course><type>1</type></trkpt>
      <trkpt lat="39.15791610898017" lon="-6.21350232240567"><ele>1424</ele><speed>8.60</speed><time>2016-06-01T13:52:33Z</time><pdop>8.0</pdop><geoidheight>50.60</geoidheight><course>313.80972</course><type>1</type></trkpt>
      <trkpt lat="39.158024253691025" lon="-6.213647833610644"><ele>1426</ele><speed>8.09</speed><time>2016-06-01T13:52:35Z</time><pdop>4.0</pdop><geoidheight>50.60</geoidheight><course>315.5035</course><type>1</type></trkpt>
      <trkpt lat="39.15807803793921" lon="-6.213710851384459"><ele>1427</ele><speed>8.04</speed><time>2016-06-01T13:52:36Z</time><pdop>4.0</pdop><geoidheight>50.60</geoidheight><course>317.70935</course><type>1</type></trkpt>
      <trkpt lat="39.158201529214175" lon="-6.213841918983442"><ele>1429</ele><speed>10.94</speed><time>2016-06-01T13:52:38Z</time><pdop>6.0</pdop><geoidheight>50.60</geoidheight><course>321.57608</course><type>1</type></trkpt>
      <trkpt lat="39.15840427688111" lon="-6.213954277986178"><ele>1429</ele><speed>12.87</speed><time>2016-06-01T13:52:39Z</time><pdop>12.0</pdop><geoidheight>50.60</geoidheight><course>336.2105</course><type>1</type></trkpt>
      <trkpt lat="39.158586281785915" lon="-6.214044457439757"><ele>1429</ele><speed>9.66</speed><time>2016-06-01T13:52:42Z</time><pdop>8.0</pdop><geoidheight>50.60</geoidheight><course>334.86053</course><type>1</type></trkpt>
      <trkpt lat="39.15873241800279" lon="-6.2141456115934135"><ele>1430</ele><speed>9.38</speed><time>2016-06-01T13:52:44Z</time><pdop>8.0</pdop><geoidheight>50.60</geoidheight><course>327.31848</course><type>1</type></trkpt>
      <trkpt lat="39.15887786747538" lon="-6.214293204295884"><ele>1430</ele><speed>11.14</speed><time>2016-06-01T13:52:45Z</time><pdop>6.0</pdop><geoidheight>50.60</geoidheight><course>322.10815</course><type>1</type></trkpt>
      <trkpt lat="39.15904051904315" lon="-6.214467561782309"><ele>1429</ele><speed>9.92</speed><time>2016-06-01T13:52:48Z</time><pdop>6.0</pdop><geoidheight>50.60</geoidheight><course>324.17932</course><type>1</type></trkpt>
      <trkpt lat="39.15919553795467" lon="-6.214511544433249"><ele>1427</ele><speed>8.58</speed><time>2016-06-01T13:52:50Z</time><pdop>8.0</pdop><geoidheight>50.60</geoidheight><course>4.0442863</course><type>1</type></trkpt>
      <trkpt lat="39.159355828595054" lon="-6.214485259988447"><ele>1426</ele><speed>10.06</speed><time>2016-06-01T13:52:52Z</time><pdop>8.0</pdop><geoidheight>50.60</geoidheight><course>11.1589575</course><type>1</type></trkpt>
      <trkpt lat="39.15947763266503" lon="-6.214224532518594"><ele>1423</ele><speed>8.27</speed><time>2016-06-01T13:52:55Z</time><pdop>8.0</pdop><geoidheight>50.60</geoidheight><course>86.522964</course><type>1</type></trkpt>
      <trkpt lat="39.15943291301599" lon="-6.2139954034480125"><ele>1421</ele><speed>7.12</speed><time>2016-06-01T13:52:58Z</time><pdop>12.0</pdop><geoidheight>50.60</geoidheight><course>129.6273</course><type>1</type></trkpt>
      <trkpt lat="39.15924232176364" lon="-6.213978322004024"><ele>1418</ele><speed>11.65</speed><time>2016-06-01T13:53:01Z</time><pdop>8.0</pdop><geoidheight>50.60</geoidheight><course>205.92696</course><type>1</type></trkpt>
      <trkpt lat="39.1590844465952" lon="-6.2141416817402915"><ele>1418</ele><speed>11.08</speed><time>2016-06-01T13:53:03Z</time><pdop>8.0</pdop><geoidheight>50.60</geoidheight><course>226.3903</course><type>1</type></trkpt>
      <trkpt lat="39.158961563558904" lon="-6.21433667010516"><ele>1419</ele><speed>10.19</speed><time>2016-06-01T13:53:04Z</time><pdop>8.0</pdop><geoidheight>50.60</geoidheight><course>231.76503</course><type>1</type></trkpt>
      <trkpt lat="39.158877569636495" lon="-6.214551114410459"><ele>1420</ele><speed>11.06</speed><time>2016-06-01T13:53:07Z</time><pdop>12.0</pdop><geoidheight>50.60</geoidheight><course>248.98738</course><type>1</type></trkpt>
      <trkpt lat="39.15885217349062" lon="-6.21479690464785"><ele>1419</ele><speed>10.69</speed><time>2016-06-01T13:53:09Z</time><pdop>8.0</pdop><geoidheight>50.60</geoidheight><course>273.75842</course><type>1</type></trkpt>
      <trkpt lat="39.158898308928556" lon="-6.215019044370477"><ele>1418</ele><speed>10.37</speed><time>2016-06-01T13:53:11Z</time><pdop>8.0</pdop><geoidheight>50.60</geoidheight><course>296.16696</course><type>1</type></trkpt>
      <trkpt lat="39.15902104763096" lon="-6.215208759115308"><ele>1417</ele><speed>10.37</speed><time>2016-06-01T13:53:13Z</time><pdop>8.0</pdop><geoidheight>50.60</geoidheight><course>320.49142</course><type>1</type></trkpt>
      <trkpt lat="39.15919232106883" lon="-6.215288012808413"><ele>1417</ele><speed>9.95</speed><time>2016-06-01T13:53:15Z</time><pdop>6.0</pdop><geoidheight>50.60</geoidheight><course>349.61865</course><type>1</type></trkpt>
      <trkpt lat="39.15931524329193" lon="-6.215289368905324"><ele>1416</ele><speed>7.10</speed><time>2016-06-01T13:53:17Z</time><pdop>6.0</pdop><geoidheight>50.60</geoidheight><course>14.586516</course><type>1</type></trkpt>
      <trkpt lat="39.159437071906126" lon="-6.215248330393277"><ele>1415</ele><speed>8.46</speed><time>2016-06-01T13:53:19Z</time><pdop>8.0</pdop><geoidheight>50.60</geoidheight><course>17.889135</course><type>1</type></trkpt>
      <trkpt lat="39.15961709617321" lon="-6.215195337181553"><ele>1411</ele><speed>12.06</speed><time>2016-06-01T13:53:21Z</time><pdop>12.0</pdop><geoidheight>50.60</geoidheight><course>12.517905</course><type>1</type></trkpt>
      <trkpt lat="39.15982864596434" lon="-6.215195067255755"><ele>1408</ele><speed>10.91</speed><time>2016-06-01T13:53:22Z</time><pdop>6.0</pdop><geoidheight>50.60</geoidheight><course>359.34772</course><type>1</type></trkpt>
      <trkpt lat="39.16000021113993" lon="-6.21520769680979"><ele>1406</ele><speed>8.50</speed><time>2016-06-01T13:53:25Z</time><pdop>8.0</pdop><geoidheight>50.60</geoidheight><course>357.0839</course><type>1</type></trkpt>
      <trkpt lat="39.1601847304585" lon="-6.215224960014862"><ele>1405</ele><speed>11.19</speed><time>2016-06-01T13:53:27Z</time><pdop>6.0</pdop><geoidheight>50.60</geoidheight><course>356.2196</course><type>1</type></trkpt>
      <trkpt lat="39.16040131395238" lon="-6.215263427103097"><ele>1403</ele><speed>12.43</speed><time>2016-06-01T13:53:29Z</time><pdop>12.0</pdop><geoidheight>50.60</geoidheight><course>350.83002</course><type>1</type></trkpt>
      <trkpt lat="39.16067651868249" lon="-6.215436913141176"><ele>1398</ele><speed>11.33</speed><time>2016-06-01T13:53:32Z</time><pdop>12.0</pdop><geoidheight>50.60</geoidheight><course>336.108</course><type>1</type></trkpt>
      <trkpt lat="39.160954091383324" lon="-6.215588185111737"><ele>1392</ele><speed>11.88</speed><time>2016-06-01T13:53:35Z</time><pdop>12.0</pdop><geoidheight>50.60</geoidheight><course>337.70813</course><type>1</type></trkpt>
      <trkpt lat="39.161137209687" lon="-6.215702529654232"><ele>1389</ele><speed>11.01</speed><time>2016-06-01T13:53:37Z</time><pdop>8.0</pdop><geoidheight>50.60</geoidheight><course>333.93698</course><type>1</type></trkpt>
      <trkpt lat="39.16131655776879" lon="-6.215820892090759"><ele>1385</ele><speed>11.73</speed><time>2016-06-01T13:53:39Z</time><pdop>12.0</pdop><geoidheight>50.60</geoidheight><course>334.76987</course><type>1</type></trkpt>
      <trkpt lat="39.16159766642762" lon="-6.2160031383587295"><ele>1380</ele><speed>11.33</speed><time>2016-06-01T13:53:42Z</time><pdop>4.0</pdop><geoidheight>50.60</geoidheight><course>332.14957</course><type>1</type></trkpt>
      <trkpt lat="39.16175880272983" lon="-6.2161152541995826"><ele>1378</ele><speed>9.02</speed><time>2016-06-01T13:53:44Z</time><pdop>12.0</pdop><geoidheight>50.60</geoidheight><course>332.87988</course><type>1</type></trkpt>
      <trkpt lat="39.16193589768798" lon="-6.216223202093858"><ele>1376</ele><speed>11.66</speed><time>2016-06-01T13:53:46Z</time><pdop>8.0</pdop><geoidheight>50.60</geoidheight><course>336.1943</course><type>1</type></trkpt>
      <trkpt lat="39.16213187686748" lon="-6.216335788730824"><ele>1372</ele><speed>12.26</speed><time>2016-06-01T13:53:48Z</time><pdop>6.0</pdop><geoidheight>50.60</geoidheight><course>335.63113</course><type>1</type></trkpt>
      <trkpt lat="39.162327055034645" lon="-6.216448377571078"><ele>1368</ele><speed>12.35</speed><time>2016-06-01T13:53:50Z</time><pdop>12.0</pdop><geoidheight>50.60</geoidheight><course>334.34116</course><type>1</type></trkpt>
      <trkpt lat="39.162516819319336" lon="-6.216586791690378"><ele>1365</ele><speed>11.74</speed><time>2016-06-01T13:53:52Z</time><pdop>6.0</pdop><geoidheight>50.60</geoidheight><course>328.9611</course><type>1</type></trkpt>
      <trkpt lat="39.16268504687707" lon="-6.216733525465696"><ele>1362</ele><speed>11.24</speed><time>2016-06-01T13:53:54Z</time><pdop>8.0</pdop><geoidheight>50.60</geoidheight><course>327.4044</course><type>1</type></trkpt>
      <trkpt lat="39.162855900505285" lon="-6.216872300288012"><ele>1357</ele><speed>12.71</speed><time>2016-06-01T13:53:56Z</time><pdop>8.0</pdop><geoidheight>50.60</geoidheight><course>328.11597</course><type>1</type></trkpt>
      <trkpt lat="39.16319923911438" lon="-6.217086389778483"><ele>1347</ele><speed>13.65</speed><time>2016-06-01T13:53:59Z</time><pdop>12.0</pdop><geoidheight>50.60</geoidheight><course>335.11752</course><type>1</type></trkpt>
      <trkpt lat="39.16337202889773" lon="-6.217189677156664"><ele>1343</ele><speed>9.18</speed><time>2016-06-01T13:54:01Z</time><pdop>8.0</pdop><geoidheight>50.60</geoidheight><course>333.15656</course><type>1</type></trkpt>
      <trkpt lat="39.16353812662806" lon="-6.2172915340066375"><ele>1342</ele><speed>10.51</speed><time>2016-06-01T13:54:02Z</time><pdop>12.0</pdop><geoidheight>50.60</geoidheight><course>334.28995</course><type>1</type></trkpt>
      <trkpt lat="39.163736189074044" lon="-6.2174146728853295"><ele>1341</ele><speed>13.62</speed><time>2016-06-01T13:54:05Z</time><pdop>12.0</pdop><geoidheight>50.60</geoidheight><course>332.55573</course><type>1</type></trkpt>
      <trkpt lat="39.16403922438273" lon="-6.2176211963347585"><ele>1339</ele><speed>10.93</speed><time>2016-06-01T13:54:08Z</time><pdop>16.0</pdop><geoidheight>50.60</geoidheight><course>330.6427</course><type>1</type></trkpt>
      <trkpt lat="39.16430050939459" lon="-6.217850706714675"><ele>1339</ele><speed>11.41</speed><time>2016-06-01T13:54:11Z</time><pdop>8.0</pdop><geoidheight>50.60</geoidheight><course>325.5058</course><type>1</type></trkpt>
      <trkpt lat="39.16455095854529" lon="-6.218076756339002"><ele>1336</ele><speed>11.55</speed><time>2016-06-01T13:54:14Z</time><pdop>16.0</pdop><geoidheight>50.60</geoidheight><course>326.95535</course><type>1</type></trkpt>
      <trkpt lat="39.16478278756789" lon="-6.21829137156602"><ele>1334</ele><speed>11.08</speed><time>2016-06-01T13:54:17Z</time><pdop>6.0</pdop><geoidheight>50.60</geoidheight><course>323.5199</course><type>1</type></trkpt>
      <trkpt lat="39.16493931231964" lon="-6.218443740191934"><ele>1330</ele><speed>11.03</speed><time>2016-06-01T13:54:19Z</time><pdop>8.0</pdop><geoidheight>50.60</geoidheight><course>323.42294</course><type>1</type></trkpt>
      <trkpt lat="39.16508128426782" lon="-6.218560825829083"><ele>1326</ele><speed>8.47</speed><time>2016-06-01T13:54:21Z</time><pdop>6.0</pdop><geoidheight>50.60</geoidheight><course>328.05453</course><type>1</type></trkpt>
      <trkpt lat="39.16520258512951" lon="-6.218664799171186"><ele>1324</ele><speed>8.33</speed><time>2016-06-01T13:54:23Z</time><pdop>8.0</pdop><geoidheight>50.60</geoidheight><course>325.49316</course><type>1</type></trkpt>
      <trkpt lat="39.1653379996795" lon="-6.218778926118881"><ele>1321</ele><speed>9.82</speed><time>2016-06-01T13:54:25Z</time><pdop>6.0</pdop><geoidheight>50.60</geoidheight><course>326.93677</course><type>1</type></trkpt>
      <trkpt lat="39.165480930730546" lon="-6.218875166415115"><ele>1318</ele><speed>7.84</speed><time>2016-06-01T13:54:27Z</time><pdop>6.0</pdop><geoidheight>50.60</geoidheight><course>331.47318</course><type>1</type></trkpt>
      <trkpt lat="39.16562109643206" lon="-6.21896940711679"><ele>1316</ele><speed>9.48</speed><time>2016-06-01T13:54:29Z</time><pdop>8.0</pdop><geoidheight>50.60</geoidheight><course>331.73605</course><type>1</type></trkpt>
      <trkpt lat="39.16579115428215" lon="-6.219086313625442"><ele>1314</ele><speed>11.35</speed><time>2016-06-01T13:54:31Z</time><pdop>6.0</pdop><geoidheight>50.60</geoidheight><course>331.55206</course><type>1</type></trkpt>
      <trkpt lat="39.1659499392177" lon="-6.2192171460630625"><ele>1311</ele><speed>9.68</speed><time>2016-06-01T13:54:33Z</time><pdop>6.0</pdop><geoidheight>50.60</geoidheight><course>326.25656</course><type>1</type></trkpt>
      <trkpt lat="39.16608152702038" lon="-6.219329766331276"><ele>1307</ele><speed>8.92</speed><time>2016-06-01T13:54:35Z</time><pdop>8.0</pdop><geoidheight>50.60</geoidheight><course>326.84744</course><type>1</type></trkpt>
      <trkpt lat="39.16623223329481" lon="-6.2194327554025435"><ele>1303</ele><speed>10.57</speed><time>2016-06-01T13:54:37Z</time><pdop>6.0</pdop><geoidheight>50.60</geoidheight><course>331.28598</course><type>1</type></trkpt>
      <trkpt lat="39.16641103572794" lon="-6.219541336353733"><ele>1299</ele><speed>11.08</speed><time>2016-06-01T13:54:39Z</time><pdop>8.0</pdop><geoidheight>50.60</geoidheight><course>333.66507</course><type>1</type></trkpt>
      <trkpt lat="39.16657037532203" lon="-6.219682007167741"><ele>1295</ele><speed>11.11</speed><time>2016-06-01T13:54:41Z</time><pdop>6.0</pdop><geoidheight>50.60</geoidheight><course>317.25403</course><type>1</type></trkpt>
      <trkpt lat="39.1667168071899" lon="-6.219847188534066"><ele>1294</ele><speed>11.01</speed><time>2016-06-01T13:54:43Z</time><pdop>8.0</pdop><geoidheight>50.60</geoidheight><course>318.02542</course><type>1</type></trkpt>
      <trkpt lat="39.16685506902198" lon="-6.220011289363282"><ele>1290</ele><speed>10.42</speed><time>2016-06-01T13:54:45Z</time><pdop>8.0</pdop><geoidheight>50.60</geoidheight><course>317.05737</course><type>1</type></trkpt>
      <trkpt lat="39.166987322826195" lon="-6.220183474470894"><ele>1286</ele><speed>11.14</speed><time>2016-06-01T13:54:47Z</time><pdop>6.0</pdop><geoidheight>50.60</geoidheight><course>313.6692</course><type>1</type></trkpt>
      <trkpt lat="39.16712114844672" lon="-6.22036437054042"><ele>1282</ele><speed>10.77</speed><time>2016-06-01T13:54:49Z</time><pdop>6.0</pdop><geoidheight>50.60</geoidheight><course>314.19595</course><type>1</type></trkpt>
      <trkpt lat="39.16726379146509" lon="-6.220535189329328"><ele>1277</ele><speed>11.01</speed><time>2016-06-01T13:54:51Z</time><pdop>6.0</pdop><geoidheight>50.60</geoidheight><course>316.1224</course><type>1</type></trkpt>
      <trkpt lat="39.16741928611453" lon="-6.220693865472033"><ele>1272</ele><speed>11.07</speed><time>2016-06-01T13:54:53Z</time><pdop>8.0</pdop><geoidheight>50.60</geoidheight><course>319.61038</course><type>1</type></trkpt>
      <trkpt lat="39.16757731765911" lon="-6.22084845676826"><ele>1268</ele><speed>11.13</speed><time>2016-06-01T13:54:55Z</time><pdop>6.0</pdop><geoidheight>50.60</geoidheight><course>319.32147</course><type>1</type></trkpt>
      <trkpt lat="39.16772862839477" lon="-6.221016309771811"><ele>1264</ele><speed>10.60</speed><time>2016-06-01T13:54:57Z</time><pdop>6.0</pdop><geoidheight>50.60</geoidheight><course>316.9908</course><type>1</type></trkpt>
      <trkpt lat="39.16779688127922" lon="-6.221098558921585"><ele>1263</ele><speed>10.37</speed><time>2016-06-01T13:54:58Z</time><pdop>4.0</pdop><geoidheight>50.60</geoidheight><course>315.86847</course><type>1</type></trkpt>
      <trkpt lat="39.16792811628791" lon="-6.221263810220917"><ele>1261</ele><speed>10.50</speed><time>2016-06-01T13:55:00Z</time><pdop>6.0</pdop><geoidheight>50.60</geoidheight><course>315.2609</course><type>1</type></trkpt>
      <trkpt lat="39.16807331771864" lon="-6.22143392571923"><ele>1260</ele><speed>10.80</speed><time>2016-06-01T13:55:02Z</time><pdop>8.0</pdop><geoidheight>50.60</geoidheight><course>318.66632</course><type>1</type></trkpt>
      <trkpt lat="39.16822024485227" lon="-6.221578334160015"><ele>1259</ele><speed>9.83</speed><time>2016-06-01T13:55:04Z</time><pdop>8.0</pdop><geoidheight>50.60</geoidheight><course>321.6679</course><type>1</type></trkpt>
      <trkpt lat="39.168367891392045" lon="-6.221712711149249"><ele>1258</ele><speed>10.10</speed><time>2016-06-01T13:55:06Z</time><pdop>12.0</pdop><geoidheight>50.60</geoidheight><course>323.59845</course><type>1</type></trkpt>
      <trkpt lat="39.168518205360215" lon="-6.221853559646122"><ele>1258</ele><speed>10.61</speed><time>2016-06-01T13:55:08Z</time><pdop>6.0</pdop><geoidheight>50.60</geoidheight><course>323.6041</course><type>1</type></trkpt>
      <trkpt lat="39.16866968274462" lon="-6.221993919364114"><ele>1257</ele><speed>10.25</speed><time>2016-06-01T13:55:10Z</time><pdop>12.0</pdop><geoidheight>50.60</geoidheight><course>324.24982</course><type>1</type></trkpt>
      <trkpt lat="39.16883540530794" lon="-6.2221211254380036"><ele>1256</ele><speed>11.94</speed><time>2016-06-01T13:55:12Z</time><pdop>8.0</pdop><geoidheight>50.60</geoidheight><course>328.602</course><type>1</type></trkpt>
      <trkpt lat="39.169015627064454" lon="-6.222259707758898"><ele>1254</ele><speed>11.00</speed><time>2016-06-01T13:55:14Z</time><pdop>4.0</pdop><geoidheight>50.60</geoidheight><course>327.34134</course><type>1</type></trkpt>
      <trkpt lat="39.16909602468778" lon="-6.222330020476802"><ele>1254</ele><speed>9.81</speed><time>2016-06-01T13:55:15Z</time><pdop>6.0</pdop><geoidheight>50.60</geoidheight><course>325.9129</course><type>1</type></trkpt>
      <trkpt lat="39.169237416072555" lon="-6.2224449355356874"><ele>1254</ele><speed>9.25</speed><time>2016-06-01T13:55:17Z</time><pdop>12.0</pdop><geoidheight>50.60</geoidheight><course>328.85175</course><type>1</type></trkpt>
      <trkpt lat="39.16945324214927" lon="-6.222611293642504"><ele>1253</ele><speed>9.19</speed><time>2016-06-01T13:55:20Z</time><pdop>4.0</pdop><geoidheight>50.60</geoidheight><course>324.53766</course><type>1</type></trkpt>
      <trkpt lat="39.169517176078266" lon="-6.222678982471944"><ele>1252</ele><speed>8.98</speed><time>2016-06-01T13:55:21Z</time><pdop>4.0</pdop><geoidheight>50.60</geoidheight><course>322.21768</course><type>1</type></trkpt>
      <trkpt lat="39.1696414372643" lon="-6.22279875852706"><ele>1253</ele><speed>8.51</speed><time>2016-06-01T13:55:23Z</time><pdop>8.0</pdop><geoidheight>50.60</geoidheight><course>326.86884</course><type>1</type></trkpt>
      <trkpt lat="39.16982141776055" lon="-6.22292438153824"><ele>1253</ele><speed>7.25</speed><time>2016-06-01T13:55:26Z</time><pdop>12.0</pdop><geoidheight>50.60</geoidheight><course>328.7108</course><type>1</type></trkpt>
      <trkpt lat="39.169983105183945" lon="-6.223120347511662"><ele>1253</ele><speed>9.79</speed><time>2016-06-01T13:55:29Z</time><pdop>6.0</pdop><geoidheight>50.60</geoidheight><course>311.43182</course><type>1</type></trkpt>
      <trkpt lat="39.17008134319074" lon="-6.223283729491317"><ele>1251</ele><speed>8.92</speed><time>2016-06-01T13:55:31Z</time><pdop>4.0</pdop><geoidheight>50.60</geoidheight><course>306.5153</course><type>1</type></trkpt>
      <trkpt lat="39.17017171354767" lon="-6.223447945035289"><ele>1252</ele><speed>9.46</speed><time>2016-06-01T13:55:33Z</time><pdop>8.0</pdop><geoidheight>50.60</geoidheight><course>306.60986</course><type>1</type></trkpt>
      <trkpt lat="39.170283071155616" lon="-6.223621038781698"><ele>1250</ele><speed>9.79</speed><time>2016-06-01T13:55:35Z</time><pdop>6.0</pdop><geoidheight>50.60</geoidheight><course>310.8731</course><type>1</type></trkpt>
      <trkpt lat="39.17039059363386" lon="-6.223790213557222"><ele>1248</ele><speed>8.56</speed><time>2016-06-01T13:55:37Z</time><pdop>6.0</pdop><geoidheight>50.60</geoidheight><course>307.56516</course><type>1</type></trkpt>
      <trkpt lat="39.1704870689471" lon="-6.224068057825029"><ele>1247</ele><speed>8.77</speed><time>2016-06-01T13:55:39Z</time><pdop>16.0</pdop><geoidheight>50.60</geoidheight><course>294.76346</course><type>1</type></trkpt>
      <trkpt lat="39.17061898372472" lon="-6.224368365616016"><ele>1244</ele><speed>8.86</speed><time>2016-06-01T13:55:43Z</time><pdop>12.0</pdop><geoidheight>50.60</geoidheight><course>299.09006</course><type>1</type></trkpt>
      <trkpt lat="39.17087170413387" lon="-6.224735683175551"><ele>1237</ele><speed>9.74</speed><time>2016-06-01T13:55:48Z</time><pdop>12.0</pdop><geoidheight>50.60</geoidheight><course>314.04443</course><type>1</type></trkpt>
      <trkpt lat="39.17110378258406" lon="-6.2250344285345"><ele>1230</ele><speed>9.60</speed><time>2016-06-01T13:55:52Z</time><pdop>8.0</pdop><geoidheight>50.60</geoidheight><course>315.38687</course><type>1</type></trkpt>
      <trkpt lat="39.17128493820131" lon="-6.225249242926183"><ele>1224</ele><speed>9.79</speed><time>2016-06-01T13:55:55Z</time><pdop>12.0</pdop><geoidheight>50.60</geoidheight><course>319.3506</course><type>1</type></trkpt>
      <trkpt lat="39.17146077676524" lon="-6.225459264024187"><ele>1218</ele><speed>9.36</speed><time>2016-06-01T13:55:58Z</time><pdop>8.0</pdop><geoidheight>50.60</geoidheight><course>319.0238</course><type>1</type></trkpt>
      <trkpt lat="39.17164733563686" lon="-6.225638894533813"><ele>1213</ele><speed>9.73</speed><time>2016-06-01T13:56:01Z</time><pdop>8.0</pdop><geoidheight>50.60</geoidheight><course>326.67322</course><type>1</type></trkpt>
      <trkpt lat="39.1717979057772" lon="-6.225754992516549"><ele>1208</ele><speed>11.08</speed><time>2016-06-01T13:56:03Z</time><pdop>8.0</pdop><geoidheight>50.60</geoidheight><course>328.93854</course><type>1</type></trkpt>
      <trkpt lat="39.17194767698923" lon="-6.225880917476775"><ele>1203</ele><speed>10.41</speed><time>2016-06-01T13:56:05Z</time><pdop>8.0</pdop><geoidheight>50.60</geoidheight><course>326.88727</course><type>1</type></trkpt>
      <trkpt lat="39.172065472308894" lon="-6.226000219029003"><ele>1198</ele><speed>10.13</speed><time>2016-06-01T13:56:07Z</time><pdop>8.0</pdop><geoidheight>50.60</geoidheight><course>326.45</course><type>1</type></trkpt>
      <trkpt lat="39.17220080363271" lon="-6.226127543068137"><ele>1192</ele><speed>10.44</speed><time>2016-06-01T13:56:09Z</time><pdop>6.0</pdop><geoidheight>50.60</geoidheight><course>325.70978</course><type>1</type></trkpt>
      <trkpt lat="39.17235470618029" lon="-6.226259320419163"><ele>1186</ele><speed>10.21</speed><time>2016-06-01T13:56:11Z</time><pdop>6.0</pdop><geoidheight>50.60</geoidheight><course>327.17746</course><type>1</type></trkpt>
      <trkpt lat="39.17250069856166" lon="-6.226384016655203"><ele>1180</ele><speed>9.61</speed><time>2016-06-01T13:56:13Z</time><pdop>8.0</pdop><geoidheight>50.60</geoidheight><course>326.40085</course><type>1</type></trkpt>
      <trkpt lat="39.172783162481906" lon="-6.2266005877711255"><ele>1174</ele><speed>9.23</speed><time>2016-06-01T13:56:17Z</time><pdop>8.0</pdop><geoidheight>50.60</geoidheight><course>329.15588</course><type>1</type></trkpt>
      <trkpt lat="39.172980398249564" lon="-6.226796049215373"><ele>1168</ele><speed>10.57</speed><time>2016-06-01T13:56:20Z</time><pdop>8.0</pdop><geoidheight>50.60</geoidheight><course>320.75018</course><type>1</type></trkpt>
      <trkpt lat="39.173113311629784" lon="-6.226953667467777"><ele>1163</ele><speed>10.39</speed><time>2016-06-01T13:56:21Z</time><pdop>12.0</pdop><geoidheight>50.60</geoidheight><course>320.6076</course><type>1</type></trkpt>
      <trkpt lat="39.173253511384665" lon="-6.22711195288144"><ele>1158</ele><speed>10.28</speed><time>2016-06-01T13:56:24Z</time><pdop>8.0</pdop><geoidheight>50.60</geoidheight><course>320.62582</course><type>1</type></trkpt>
      <trkpt lat="39.17338440133717" lon="-6.227258927840691"><ele>1153</ele><speed>10.45</speed><time>2016-06-01T13:56:26Z</time><pdop>8.0</pdop><geoidheight>50.60</geoidheight><course>322.8061</course><type>1</type></trkpt>
      <trkpt lat="39.17353110785447" lon="-6.227393756042229"><ele>1149</ele><speed>10.70</speed><time>2016-06-01T13:56:28Z</time><pdop>8.0</pdop><geoidheight>50.60</geoidheight><course>326.9543</course><type>1</type></trkpt>
      <trkpt lat="39.17368380610666" lon="-6.227514794487126"><ele>1144</ele><speed>10.75</speed><time>2016-06-01T13:56:30Z</time><pdop>8.0</pdop><geoidheight>50.60</geoidheight><course>329.39075</course><type>1</type></trkpt>
      <trkpt lat="39.173841605516365" lon="-6.227626431257766"><ele>1140</ele><speed>10.29</speed><time>2016-06-01T13:56:32Z</time><pdop>8.0</pdop><geoidheight>50.60</geoidheight><course>331.76813</course><type>1</type></trkpt>
      <trkpt lat="39.174075689046795" lon="-6.227800913834026"><ele>1135</ele><speed>9.01</speed><time>2016-06-01T13:56:35Z</time><pdop>8.0</pdop><geoidheight>50.60</geoidheight><course>326.44113</course><type>1</type></trkpt>
      <trkpt lat="39.174197014687905" lon="-6.227906608216555"><ele>1131</ele><speed>8.37</speed><time>2016-06-01T13:56:37Z</time><pdop>8.0</pdop><geoidheight>50.60</geoidheight><course>325.1697</course><type>1</type></trkpt>
      <trkpt lat="39.17433012045914" lon="-6.2280307322464035"><ele>1125</ele><speed>10.30</speed><time>2016-06-01T13:56:39Z</time><pdop>8.0</pdop><geoidheight>50.60</geoidheight><course>326.02768</course><type>1</type></trkpt>
      <trkpt lat="39.17446838069284" lon="-6.228156251308214"><ele>1119</ele><speed>9.11</speed><time>2016-06-01T13:56:41Z</time><pdop>8.0</pdop><geoidheight>50.60</geoidheight><course>323.32187</course><type>1</type></trkpt>
      <trkpt lat="39.174592781559085" lon="-6.2282745793436245"><ele>1113</ele><speed>8.86</speed><time>2016-06-01T13:56:43Z</time><pdop>8.0</pdop><geoidheight>50.60</geoidheight><course>321.46005</course><type>1</type></trkpt>
      <trkpt lat="39.17471136078465" lon="-6.228398768056141"><ele>1108</ele><speed>8.60</speed><time>2016-06-01T13:56:45Z</time><pdop>8.0</pdop><geoidheight>50.60</geoidheight><course>317.75058</course><type>1</type></trkpt>
      <trkpt lat="39.17485381139478" lon="-6.228597268506312"><ele>1103</ele><speed>8.42</speed><time>2016-06-01T13:56:48Z</time><pdop>8.0</pdop><geoidheight>50.60</geoidheight><course>310.13174</course><type>1</type></trkpt>
      <trkpt lat="39.17495500912096" lon="-6.228757931896418"><ele>1099</ele><speed>9.72</speed><time>2016-06-01T13:56:50Z</time><pdop>8.0</pdop><geoidheight>50.60</geoidheight><course>309.68878</course><type>1</type></trkpt>
      <trkpt lat="39.17511785287738" lon="-6.2289942987844515"><ele>1093</ele><speed>8.33</speed><time>2016-06-01T13:56:53Z</time><pdop>12.0</pdop><geoidheight>50.60</geoidheight><course>313.76273</course><type>1</type></trkpt>
      <trkpt lat="39.175316361850705" lon="-6.229258487396332"><ele>1084</ele><speed>8.77</speed><time>2016-06-01T13:56:57Z</time><pdop>12.0</pdop><geoidheight>50.60</geoidheight><course>317.45035</course><type>1</type></trkpt>
      <trkpt lat="39.17556655894832" lon="-6.229471592761253"><ele>1076</ele><speed>6.51</speed><time>2016-06-01T13:57:01Z</time><pdop>16.0</pdop><geoidheight>50.60</geoidheight><course>340.9195</course><type>1</type></trkpt>
      <trkpt lat="39.17587532212913" lon="-6.229611338111581"><ele>1070</ele><speed>10.43</speed><time>2016-06-01T13:57:05Z</time><pdop>12.0</pdop><geoidheight>50.60</geoidheight><course>336.35742</course><type>1</type></trkpt>
      <trkpt lat="39.17608611652052" lon="-6.229732849230374"><ele>1064</ele><speed>8.74</speed><time>2016-06-01T13:57:08Z</time><pdop>12.0</pdop><geoidheight>50.60</geoidheight><course>335.3934</course><type>1</type></trkpt>
      <trkpt lat="39.17632402040021" lon="-6.229905291250072"><ele>1060</ele><speed>10.74</speed><time>2016-06-01T13:57:11Z</time><pdop>12.0</pdop><geoidheight>50.60</geoidheight><course>331.49106</course><type>1</type></trkpt>
      <trkpt lat="39.17657635270342" lon="-6.230086404757621"><ele>1059</ele><speed>10.99</speed><time>2016-06-01T13:57:14Z</time><pdop>12.0</pdop><geoidheight>50.60</geoidheight><course>328.40817</course><type>1</type></trkpt>
      <trkpt lat="39.176822451453326" lon="-6.2302598339504796"><ele>1059</ele><speed>9.90</speed><time>2016-06-01T13:57:17Z</time><pdop>12.0</pdop><geoidheight>50.60</geoidheight><course>332.65448</course><type>1</type></trkpt>
      <trkpt lat="39.17707701195172" lon="-6.23040419011804"><ele>1055</ele><speed>11.85</speed><time>2016-06-01T13:57:20Z</time><pdop>16.0</pdop><geoidheight>50.60</geoidheight><course>333.47083</course><type>1</type></trkpt>
      <trkpt lat="39.17734309100351" lon="-6.230564442166007"><ele>1049</ele><speed>9.91</speed><time>2016-06-01T13:57:23Z</time><pdop>12.0</pdop><geoidheight>50.60</geoidheight><course>335.25323</course><type>1</type></trkpt>
      <trkpt lat="39.177574001382794" lon="-6.230699948564618"><ele>1042</ele><speed>10.94</speed><time>2016-06-01T13:57:26Z</time><pdop>12.0</pdop><geoidheight>50.60</geoidheight><course>333.47964</course><type>1</type></trkpt>
      <trkpt lat="39.177836313358654" lon="-6.2308766841522525"><ele>1036</ele><speed>9.39</speed><time>2016-06-01T13:57:28Z</time><pdop>12.0</pdop><geoidheight>50.60</geoidheight><course>332.27936</course><type>1</type></trkpt>
      <trkpt lat="39.17810425127841" lon="-6.231049308197307"><ele>1031</ele><speed>9.91</speed><time>2016-06-01T13:57:33Z</time><pdop>16.0</pdop><geoidheight>50.60</geoidheight><course>330.62305</course><type>1</type></trkpt>
      <trkpt lat="39.178312622878465" lon="-6.231189802300066"><ele>1028</ele><speed>9.26</speed><time>2016-06-01T13:57:36Z</time><pdop>8.0</pdop><geoidheight>50.60</geoidheight><course>327.0262</course><type>1</type></trkpt>
      <trkpt lat="39.17853124381162" lon="-6.231372789303855"><ele>1024</ele><speed>9.57</speed><time>2016-06-01T13:57:39Z</time><pdop>8.0</pdop><geoidheight>50.60</geoidheight><course>326.6264</course><type>1</type></trkpt>
      <trkpt lat="39.17872955110015" lon="-6.231553902174141"><ele>1021</ele><speed>10.11</speed><time>2016-06-01T13:57:42Z</time><pdop>4.0</pdop><geoidheight>50.60</geoidheight><course>323.49283</course><type>1</type></trkpt>
      <trkpt lat="39.178865428555504" lon="-6.231696704081897"><ele>1020</ele><speed>9.95</speed><time>2016-06-01T13:57:44Z</time><pdop>6.0</pdop><geoidheight>50.60</geoidheight><course>320.14566</course><type>1</type></trkpt>
      <trkpt lat="39.178991321698966" lon="-6.231830643666202"><ele>1019</ele><speed>8.43</speed><time>2016-06-01T13:57:45Z</time><pdop>8.0</pdop><geoidheight>50.60</geoidheight><course>318.2388</course><type>1</type></trkpt>
      <trkpt lat="39.17911015054712" lon="-6.231981748265522"><ele>1018</ele><speed>10.07</speed><time>2016-06-01T13:57:48Z</time><pdop>8.0</pdop><geoidheight>50.60</geoidheight><course>315.642</course><type>1</type></trkpt>
      <trkpt lat="39.179247300076156" lon="-6.23213726020859"><ele>1017</ele><speed>9.97</speed><time>2016-06-01T13:57:50Z</time><pdop>8.0</pdop><geoidheight>50.60</geoidheight><course>322.35556</course><type>1</type></trkpt>
      <trkpt lat="39.179409448398246" lon="-6.2323067605168445"><ele>1016</ele><speed>7.47</speed><time>2016-06-01T13:57:53Z</time><pdop>8.0</pdop><geoidheight>50.60</geoidheight><course>318.15848</course><type>1</type></trkpt>
      <trkpt lat="39.1795389476104" lon="-6.2324532991579975"><ele>1016</ele><speed>10.26</speed><time>2016-06-01T13:57:54Z</time><pdop>8.0</pdop><geoidheight>50.60</geoidheight><course>318.27988</course><type>1</type></trkpt>
      <trkpt lat="39.179675821842174" lon="-6.232607086364983"><ele>1015</ele><speed>8.81</speed><time>2016-06-01T13:57:57Z</time><pdop>8.0</pdop><geoidheight>50.60</geoidheight><course>319.36594</course><type>1</type></trkpt>
      <trkpt lat="39.1797960578604" lon="-6.232733639627677"><ele>1013</ele><speed>7.93</speed><time>2016-06-01T13:57:59Z</time><pdop>8.0</pdop><geoidheight>50.60</geoidheight><course>320.2286</course><type>1</type></trkpt>
      <trkpt lat="39.17995349244841" lon="-6.232850627991526"><ele>1011</ele><speed>10.69</speed><time>2016-06-01T13:58:01Z</time><pdop>8.0</pdop><geoidheight>50.60</geoidheight><course>336.82953</course><type>1</type></trkpt>
      <trkpt lat="39.18013732678416" lon="-6.23294181178736"><ele>1009</ele><speed>10.49</speed><time>2016-06-01T13:58:03Z</time><pdop>8.0</pdop><geoidheight>50.60</geoidheight><course>338.85156</course><type>1</type></trkpt>
      <trkpt lat="39.18029250507571" lon="-6.233018276684235"><ele>1007</ele><speed>8.53</speed><time>2016-06-01T13:58:05Z</time><pdop>8.0</pdop><geoidheight>50.60</geoidheight><course>333.75247</course><type>1</type></trkpt>
      <trkpt lat="39.18043619773482" lon="-6.233125724737304"><ele>1003</ele><speed>10.12</speed><time>2016-06-01T13:58:07Z</time><pdop>6.0</pdop><geoidheight>50.60</geoidheight><course>329.01855</course><type>1</type></trkpt>
      <trkpt lat="39.180598804146754" lon="-6.233238010757567"><ele>999</ele><speed>10.69</speed><time>2016-06-01T13:58:09Z</time><pdop>12.0</pdop><geoidheight>50.60</geoidheight><course>331.3122</course><type>1</type></trkpt>
      <trkpt lat="39.18085429722011" lon="-6.233375619845495"><ele>995</ele><speed>9.52</speed><time>2016-06-01T13:58:12Z</time><pdop>12.0</pdop><geoidheight>50.60</geoidheight><course>336.96445</course><type>1</type></trkpt>
      <trkpt lat="39.18101733468515" lon="-6.233446055209343"><ele>994</ele><speed>10.44</speed><time>2016-06-01T13:58:14Z</time><pdop>6.0</pdop><geoidheight>50.60</geoidheight><course>336.66003</course><type>1</type></trkpt>
      <trkpt lat="39.181271041809694" lon="-6.233575338949397"><ele>991</ele><speed>9.97</speed><time>2016-06-01T13:58:17Z</time><pdop>16.0</pdop><geoidheight>50.60</geoidheight><course>335.19058</course><type>1</type></trkpt>
      <trkpt lat="39.18144836777118" lon="-6.233693373215245"><ele>984</ele><speed>11.79</speed><time>2016-06-01T13:58:19Z</time><pdop>6.0</pdop><geoidheight>50.60</geoidheight><course>332.87408</course><type>1</type></trkpt>
      <trkpt lat="39.18154808886473" lon="-6.233766621047502"><ele>980</ele><speed>12.87</speed><time>2016-06-01T13:58:20Z</time><pdop>6.0</pdop><geoidheight>50.60</geoidheight><course>331.77158</course><type>1</type></trkpt>
      <trkpt lat="39.18173764456658" lon="-6.233912004517947"><ele>975</ele><speed>11.00</speed><time>2016-06-01T13:58:22Z</time><pdop>12.0</pdop><geoidheight>50.60</geoidheight><course>329.48505</course><type>1</type></trkpt>
      <trkpt lat="39.18200653504914" lon="-6.2341293964157884"><ele>970</ele><speed>13.48</speed><time>2016-06-01T13:58:24Z</time><pdop>6.0</pdop><geoidheight>50.60</geoidheight><course>328.34006</course><type>1</type></trkpt>
      <trkpt lat="39.182117475709674" lon="-6.234214556845784"><ele>968</ele><speed>13.60</speed><time>2016-06-01T13:58:25Z</time><pdop>6.0</pdop><geoidheight>50.60</geoidheight><course>329.49652</course><type>1</type></trkpt>
      <trkpt lat="39.182296107407005" lon="-6.234337497600915"><ele>966</ele><speed>10.14</speed><time>2016-06-01T13:58:28Z</time><pdop>8.0</pdop><geoidheight>50.60</geoidheight><course>332.1212</course><type>1</type></trkpt>
      <trkpt lat="39.18244441941576" lon="-6.234432892910547"><ele>966</ele><speed>8.94</speed><time>2016-06-01T13:58:30Z</time><pdop>8.0</pdop><geoidheight>50.60</geoidheight><course>331.5146</course><type>1</type></trkpt>
      <trkpt lat="39.18260081845824" lon="-6.234502366182678"><ele>968</ele><speed>10.20</speed><time>2016-06-01T13:58:32Z</time><pdop>6.0</pdop><geoidheight>50.60</geoidheight><course>345.77118</course><type>1</type></trkpt>
      <trkpt lat="39.182774727953934" lon="-6.234510819721243"><ele>968</ele><speed>9.81</speed><time>2016-06-01T13:58:33Z</time><pdop>12.0</pdop><geoidheight>50.60</geoidheight><course>7.6388245</course><type>1</type></trkpt>
      <trkpt lat="39.18296945748725" lon="-6.2343567276054745"><ele>970</ele><speed>10.03</speed><time>2016-06-01T13:58:37Z</time><pdop>8.0</pdop><geoidheight>50.60</geoidheight><course>50.187157</course><type>1</type></trkpt>
      <trkpt lat="39.183029705100644" lon="-6.234171304591803"><ele>970</ele><speed>9.16</speed><time>2016-06-01T13:58:38Z</time><pdop>8.0</pdop><geoidheight>50.60</geoidheight><course>79.58705</course><type>1</type></trkpt>
      <trkpt lat="39.18306493247244" lon="-6.2338523784473425"><ele>972</ele><speed>6.18</speed><time>2016-06-01T13:58:43Z</time><pdop>16.0</pdop><geoidheight>50.60</geoidheight><course>87.15863</course><type>1</type></trkpt>
      <trkpt lat="39.18286460814771" lon="-6.233642104528903"><ele>975</ele><speed>7.97</speed><time>2016-06-01T13:58:48Z</time><pdop>8.0</pdop><geoidheight>50.60</geoidheight><course>187.87064</course><type>1</type></trkpt>
      <trkpt lat="39.182711992968414" lon="-6.233737455697183"><ele>976</ele><speed>6.79</speed><time>2016-06-01T13:58:51Z</time><pdop>8.0</pdop><geoidheight>50.60</geoidheight><course>225.00946</course><type>1</type></trkpt>
      <trkpt lat="39.1825773784779" lon="-6.233960868296439"><ele>975</ele><speed>10.70</speed><time>2016-06-01T13:58:54Z</time><pdop>8.0</pdop><geoidheight>50.60</geoidheight><course>242.16368</course><type>1</type></trkpt>
      <trkpt lat="39.182570297194474" lon="-6.234318713376257"><ele>975</ele><speed>13.53</speed><time>2016-06-01T13:58:57Z</time><pdop>16.0</pdop><geoidheight>50.60</geoidheight><course>288.08456</course><type>1</type></trkpt>
      <trkpt lat="39.182882034878766" lon="-6.234571245461514"><ele>973</ele><speed>10.28</speed><time>2016-06-01T13:59:00Z</time><pdop>16.0</pdop><geoidheight>50.60</geoidheight><course>337.65576</course><type>1</type></trkpt>
      <trkpt lat="39.18316224269151" lon="-6.234550950393775"><ele>973</ele><speed>10.07</speed><time>2016-06-01T13:59:04Z</time><pdop>12.0</pdop><geoidheight>50.60</geoidheight><course>17.433414</course><type>1</type></trkpt>
      <trkpt lat="39.183360254198426" lon="-6.234460053640805"><ele>978</ele><speed>7.27</speed><time>2016-06-01T13:59:07Z</time><pdop>8.0</pdop><geoidheight>50.60</geoidheight><course>24.201468</course><type>1</type></trkpt>
      <trkpt lat="39.183495212550625" lon="-6.2342749935936395"><ele>986</ele><speed>7.30</speed><time>2016-06-01T13:59:10Z</time><pdop>8.0</pdop><geoidheight>50.60</geoidheight><course>69.3275</course><type>1</type></trkpt>
      <trkpt lat="39.18338353766346" lon="-6.234011375957653"><ele>991</ele><speed>5.62</speed><time>2016-06-01T13:59:14Z</time><pdop>12.0</pdop><geoidheight>50.60</geoidheight><course>170.40593</course><type>1</type></trkpt>
      <trkpt lat="39.18318550044997" lon="-6.234161654741562"><ele>996</ele><speed>9.13</speed><time>2016-06-01T13:59:19Z</time><pdop>8.0</pdop><geoidheight>50.60</geoidheight><course>237.01163</course><type>1</type></trkpt>
      <trkpt lat="39.18312667546755" lon="-6.234387377491102"><ele>998</ele><speed>10.83</speed><time>2016-06-01T13:59:20Z</time><pdop>12.0</pdop><geoidheight>50.60</geoidheight><course>257.18976</course><type>1</type></trkpt>
      <trkpt lat="39.183224079895844" lon="-6.234645437987922"><ele>1001</ele><speed>12.39</speed><time>2016-06-01T13:59:23Z</time><pdop>12.0</pdop><geoidheight>50.60</geoidheight><course>288.66803</course><type>1</type></trkpt>
      <trkpt lat="39.18344969924692" lon="-6.234675599888437"><ele>1006</ele><speed>8.70</speed><time>2016-06-01T13:59:26Z</time><pdop>12.0</pdop><geoidheight>50.60</geoidheight><course>11.242699</course><type>1</type></trkpt>
      <trkpt lat="39.18364749513045" lon="-6.2344388669891115"><ele>1017</ele><speed>6.25</speed><time>2016-06-01T13:59:30Z</time><pdop>12.0</pdop><geoidheight>50.60</geoidheight><course>76.3739</course><type>1</type></trkpt>
      <trkpt lat="39.18347347568434" lon="-6.234305704698467"><ele>1029</ele><speed>8.46</speed><time>2016-06-01T13:59:35Z</time><pdop>8.0</pdop><geoidheight>50.60</geoidheight><course>185.15762</course><type>1</type></trkpt>
      <trkpt lat="39.18334652479862" lon="-6.234448080507155"><ele>1036</ele><speed>8.04</speed><time>2016-06-01T13:59:38Z</time><pdop>8.0</pdop><geoidheight>50.60</geoidheight><course>248.41193</course><type>1</type></trkpt>
      <trkpt lat="39.1833438587545" lon="-6.234765732148985"><ele>1043</ele><speed>11.13</speed><time>2016-06-01T13:59:41Z</time><pdop>12.0</pdop><geoidheight>50.60</geoidheight><course>287.11664</course><type>1</type></trkpt>
      <trkpt lat="39.18349251722903" lon="-6.235058484014906"><ele>1049</ele><speed>9.18</speed><time>2016-06-01T13:59:44Z</time><pdop>12.0</pdop><geoidheight>50.60</geoidheight><course>345.7749</course><type>1</type></trkpt>
      <trkpt lat="39.18373967159532" lon="-6.235097989059587"><ele>1057</ele><speed>7.69</speed><time>2016-06-01T13:59:47Z</time><pdop>8.0</pdop><geoidheight>50.60</geoidheight><course>5.9313865</course><type>1</type></trkpt>
      <trkpt lat="39.18386847065044" lon="-6.2348710689046465"><ele>1070</ele><speed>5.46</speed><time>2016-06-01T13:59:51Z</time><pdop>8.0</pdop><geoidheight>50.60</geoidheight><course>100.035835</course><type>1</type></trkpt>
      <trkpt lat="39.18373015484362" lon="-6.234742532752842"><ele>1079</ele><speed>8.90</speed><time>2016-06-01T13:59:55Z</time><pdop>8.0</pdop><geoidheight>50.60</geoidheight><course>190.64804</course><type>1</type></trkpt>
      <trkpt lat="39.18362310819278" lon="-6.234942569995365"><ele>1081</ele><speed>11.70</speed><time>2016-06-01T13:59:57Z</time><pdop>8.0</pdop><geoidheight>50.60</geoidheight><course>261.00235</course><type>1</type></trkpt>
      <trkpt lat="39.18355001722494" lon="-6.235128282029274"><ele>1084</ele><speed>11.22</speed><time>2016-06-01T13:59:59Z</time><pdop>8.0</pdop><geoidheight>50.60</geoidheight><course>259.1345</course><type>1</type></trkpt>
      <trkpt lat="39.18361113752307" lon="-6.235426411118375"><ele>1091</ele><speed>10.54</speed><time>2016-06-01T14:00:02Z</time><pdop>8.0</pdop><geoidheight>50.60</geoidheight><course>283.05344</course><type>1</type></trkpt>
      <trkpt lat="39.18376364749305" lon="-6.2356118009496955"><ele>1098</ele><speed>12.62</speed><time>2016-06-01T14:00:04Z</time><pdop>12.0</pdop><geoidheight>50.60</geoidheight><course>306.89725</course><type>1</type></trkpt>
      <trkpt lat="39.18407382811091" lon="-6.235567328200739"><ele>1110</ele><speed>6.32</speed><time>2016-06-01T14:00:08Z</time><pdop>12.0</pdop><geoidheight>50.60</geoidheight><course>25.13794</course><type>1</type></trkpt>
      <trkpt lat="39.18405775088542" lon="-6.235244943141718"><ele>1129</ele><speed>6.49</speed><time>2016-06-01T14:00:14Z</time><pdop>12.0</pdop><geoidheight>50.60</geoidheight><course>169.27345</course><type>1</type></trkpt>
      <trkpt lat="39.18386114548328" lon="-6.235412443024182"><ele>1140</ele><speed>11.08</speed><time>2016-06-01T14:00:18Z</time><pdop>12.0</pdop><geoidheight>50.60</geoidheight><course>243.43245</course><type>1</type></trkpt>
      <trkpt lat="39.18388902242893" lon="-6.2357719001168705"><ele>1145</ele><speed>8.57</speed><time>2016-06-01T14:00:21Z</time><pdop>12.0</pdop><geoidheight>50.60</geoidheight><course>283.04584</course><type>1</type></trkpt>
      <trkpt lat="39.18412792604623" lon="-6.2359708955846695"><ele>1148</ele><speed>10.21</speed><time>2016-06-01T14:00:24Z</time><pdop>12.0</pdop><geoidheight>50.60</geoidheight><course>318.7772</course><type>1</type></trkpt>
      <trkpt lat="39.184302544873084" lon="-6.23569257204265"><ele>1164</ele><speed>5.99</speed><time>2016-06-01T14:00:30Z</time><pdop>16.0</pdop><geoidheight>50.60</geoidheight><course>50.243984</course><type>1</type></trkpt>
      <trkpt lat="39.184042182690625" lon="-6.235923687852935"><ele>1171</ele><speed>11.23</speed><time>2016-06-01T14:00:34Z</time><pdop>16.0</pdop><geoidheight>50.60</geoidheight><course>220.90111</course><type>1</type></trkpt>
      <trkpt lat="39.18413733618919" lon="-6.236307027116678"><ele>1175</ele><speed>12.02</speed><time>2016-06-01T14:00:37Z</time><pdop>16.0</pdop><geoidheight>50.60</geoidheight><course>274.32504</course><type>1</type></trkpt>
      <trkpt lat="39.18439411053216" lon="-6.2365040760869315"><ele>1177</ele><speed>7.84</speed><time>2016-06-01T14:00:40Z</time><pdop>16.0</pdop><geoidheight>50.60</geoidheight><course>337.38892</course><type>1</type></trkpt>
      <trkpt lat="39.18423687468704" lon="-6.236825952633475"><ele>1200</ele><speed>13.45</speed><time>2016-06-01T14:00:51Z</time><pdop>16.0</pdop><geoidheight>50.60</geoidheight><course>259.58795</course><type>1</type></trkpt>
      <trkpt lat="39.18437664831955" lon="-6.237118360984583"><ele>1230</ele><speed>9.06</speed><time>2016-06-01T14:00:55Z</time><pdop>12.0</pdop><geoidheight>50.60</geoidheight><course>349.935</course><type>1</type></trkpt>
      <trkpt lat="39.184486122013226" lon="-6.236833111260117"><ele>1269</ele><speed>6.59</speed><time>2016-06-01T14:01:00Z</time><pdop>12.0</pdop><geoidheight>50.60</geoidheight><course>67.53817</course><type>1</type></trkpt>
      <trkpt lat="39.18424853752655" lon="-6.236791691151623"><ele>1278</ele><speed>11.24</speed><time>2016-06-01T14:01:03Z</time><pdop>12.0</pdop><geoidheight>50.60</geoidheight><course>176.50276</course><type>1</type></trkpt>
      <trkpt lat="39.18410724379738" lon="-6.237154528904574"><ele>1284</ele><speed>11.15</speed><time>2016-06-01T14:01:06Z</time><pdop>16.0</pdop><geoidheight>50.60</geoidheight><course>265.51382</course><type>1</type></trkpt>
      <trkpt lat="39.184003539926756" lon="-6.23745250904931"><ele>1288</ele><speed>11.13</speed><time>2016-06-01T14:01:08Z</time><pdop>12.0</pdop><geoidheight>50.60</geoidheight><course>258.03467</course><type>1</type></trkpt>
      <trkpt lat="39.18431202829286" lon="-6.237691714357342"><ele>1309</ele><speed>10.90</speed><time>2016-06-01T14:01:14Z</time><pdop>12.0</pdop><geoidheight>50.60</geoidheight><course>21.234304</course><type>1</type></trkpt>
      <trkpt lat="39.184276931004746" lon="-6.237350302243504"><ele>1339</ele><speed>5.54</speed><time>2016-06-01T14:01:20Z</time><pdop>12.0</pdop><geoidheight>50.60</geoidheight><course>129.56888</course><type>1</type></trkpt>
      <trkpt lat="39.184008195852435" lon="-6.237372285629709"><ele>1350</ele><speed>10.73</speed><time>2016-06-01T14:01:23Z</time><pdop>12.0</pdop><geoidheight>50.60</geoidheight><course>210.01872</course><type>1</type></trkpt>
      <trkpt lat="39.1838589296284" lon="-6.23765414258125"><ele>1357</ele><speed>11.02</speed><time>2016-06-01T14:01:26Z</time><pdop>12.0</pdop><geoidheight>50.60</geoidheight><course>257.87473</course><type>1</type></trkpt>
      <trkpt lat="39.18402479719197" lon="-6.2379178543256915"><ele>1363</ele><speed>8.75</speed><time>2016-06-01T14:01:30Z</time><pdop>16.0</pdop><geoidheight>50.60</geoidheight><course>356.3706</course><type>1</type></trkpt>
      <trkpt lat="39.184287866289495" lon="-6.237832770417228"><ele>1378</ele><speed>6.44</speed><time>2016-06-01T14:01:35Z</time><pdop>12.0</pdop><geoidheight>50.60</geoidheight><course>72.51106</course><type>1</type></trkpt>
      <trkpt lat="39.184190671619255" lon="-6.237570501476757"><ele>1393</ele><speed>7.09</speed><time>2016-06-01T14:01:40Z</time><pdop>12.0</pdop><geoidheight>50.60</geoidheight><course>179.67322</course><type>1</type></trkpt>
      <trkpt lat="39.1839732000978" lon="-6.237745230625"><ele>1403</ele><speed>10.30</speed><time>2016-06-01T14:01:43Z</time><pdop>8.0</pdop><geoidheight>50.60</geoidheight><course>224.33777</course><type>1</type></trkpt>
      <trkpt lat="39.183839777226034" lon="-6.238034682658686"><ele>1414</ele><speed>11.04</speed><time>2016-06-01T14:01:45Z</time><pdop>12.0</pdop><geoidheight>50.60</geoidheight><course>242.51419</course><type>1</type></trkpt>
      <trkpt lat="39.18403092148945" lon="-6.238332259115366"><ele>1428</ele><speed>10.81</speed><time>2016-06-01T14:01:49Z</time><pdop>16.0</pdop><geoidheight>50.60</geoidheight><course>326.03052</course><type>1</type></trkpt>
      <trkpt lat="39.18432038462272" lon="-6.238261896340409"><ele>1445</ele><speed>7.58</speed><time>2016-06-01T14:01:52Z</time><pdop>16.0</pdop><geoidheight>50.60</geoidheight><course>29.76814</course><type>1</type></trkpt>
      <trkpt lat="39.18399461875962" lon="-6.2380409981542595"><ele>1461</ele><speed>12.06</speed><time>2016-06-01T14:01:56Z</time><pdop>16.0</pdop><geoidheight>50.60</geoidheight><course>126.46396</course><type>1</type></trkpt>
      <trkpt lat="39.183710775198115" lon="-6.238229208739119"><ele>1477</ele><speed>10.37</speed><time>2016-06-01T14:02:00Z</time><pdop>12.0</pdop><geoidheight>50.60</geoidheight><course>232.8325</course><type>1</type></trkpt>
      <trkpt lat="39.18367547850494" lon="-6.23850727784697"><ele>1485</ele><speed>9.61</speed><time>2016-06-01T14:02:02Z</time><pdop>12.0</pdop><geoidheight>50.60</geoidheight><course>256.69208</course><type>1</type></trkpt>
      <trkpt lat="39.1838378020684" lon="-6.2387114136177"><ele>1494</ele><speed>7.71</speed><time>2016-06-01T14:02:06Z</time><pdop>12.0</pdop><geoidheight>50.60</geoidheight><course>334.52094</course><type>1</type></trkpt>
      <trkpt lat="39.184014605764894" lon="-6.238460210574359"><ele>1520</ele><speed>7.87</speed><time>2016-06-01T14:02:13Z</time><pdop>16.0</pdop><geoidheight>50.60</geoidheight><course>87.61576</course><type>1</type></trkpt>
      <trkpt lat="39.183715662427645" lon="-6.238370823924525"><ele>1531</ele><speed>7.54</speed><time>2016-06-01T14:02:16Z</time><pdop>16.0</pdop><geoidheight>50.60</geoidheight><course>213.39317</course><type>1</type></trkpt>
      <trkpt lat="39.18358051388621" lon="-6.238778437888594"><ele>1542</ele><speed>9.96</speed><time>2016-06-01T14:02:21Z</time><pdop>12.0</pdop><geoidheight>50.60</geoidheight><course>246.69339</course><type>1</type></trkpt>
      <trkpt lat="39.18376572830046" lon="-6.239046517994639"><ele>1556</ele><speed>6.91</speed><time>2016-06-01T14:02:26Z</time><pdop>16.0</pdop><geoidheight>50.60</geoidheight><course>319.0046</course><type>1</type></trkpt>
      <trkpt lat="39.183500488671136" lon="-6.23876843866792"><ele>1591</ele><speed>10.00</speed><time>2016-06-01T14:02:34Z</time><pdop>12.0</pdop><geoidheight>50.60</geoidheight><course>129.41292</course><type>1</type></trkpt>
      <trkpt lat="39.183298673872976" lon="-6.239068899960396"><ele>1599</ele><speed>9.58</speed><time>2016-06-01T14:02:36Z</time><pdop>12.0</pdop><geoidheight>50.60</geoidheight><course>257.12863</course><type>1</type></trkpt>
      <trkpt lat="39.18341440881852" lon="-6.239446173735363"><ele>1606</ele><speed>10.08</speed><time>2016-06-01T14:02:40Z</time><pdop>16.0</pdop><geoidheight>50.60</geoidheight><course>311.6073</course><type>1</type></trkpt>
      <trkpt lat="39.183678730195346" lon="-6.23928221671355"><ele>1644</ele><speed>4.80</speed><time>2016-06-01T14:02:47Z</time><pdop>12.0</pdop><geoidheight>50.60</geoidheight><course>43.312157</course><type>1</type></trkpt>
      <trkpt lat="39.18332800839077" lon="-6.2396130456414305"><ele>1659</ele><speed>10.77</speed><time>2016-06-01T14:02:55Z</time><pdop>12.0</pdop><geoidheight>50.60</geoidheight><course>259.36526</course><type>1</type></trkpt>
      <trkpt lat="39.183325056796214" lon="-6.239999878034049"><ele>1675</ele><speed>9.01</speed><time>2016-06-01T14:02:59Z</time><pdop>16.0</pdop><geoidheight>50.60</geoidheight><course>325.8552</course><type>1</type></trkpt>
      <trkpt lat="39.18315614811337" lon="-6.239691941085215"><ele>1703</ele><speed>10.18</speed><time>2016-06-01T14:03:08Z</time><pdop>16.0</pdop><geoidheight>50.60</geoidheight><course>183.69896</course><type>1</type></trkpt>
      <trkpt lat="39.18305492464617" lon="-6.240099787283254"><ele>1712</ele><speed>11.44</speed><time>2016-06-01T14:03:12Z</time><pdop>16.0</pdop><geoidheight>50.60</geoidheight><course>263.65048</course><type>1</type></trkpt>
      <trkpt lat="39.1831719566456" lon="-6.240433048881885"><ele>1715</ele><speed>10.38</speed><time>2016-06-01T14:03:15Z</time><pdop>12.0</pdop><geoidheight>50.60</geoidheight><course>306.7438</course><type>1</type></trkpt>
      <trkpt lat="39.183368246762676" lon="-6.24059105054852"><ele>1727</ele><speed>2.75</speed><time>2016-06-01T14:03:19Z</time><pdop>12.0</pdop><geoidheight>50.60</geoidheight><course>340.2053</course><type>1</type></trkpt>
      <trkpt lat="39.18335658373837" lon="-6.24025395710484"><ele>1756</ele><speed>8.96</speed><time>2016-06-01T14:03:24Z</time><pdop>16.0</pdop><geoidheight>50.60</geoidheight><course>113.824715</course><type>1</type></trkpt>
      <trkpt lat="39.183115791716496" lon="-6.240074428804549"><ele>1772</ele><speed>10.77</speed><time>2016-06-01T14:03:27Z</time><pdop>12.0</pdop><geoidheight>50.60</geoidheight><course>201.436</course><type>1</type></trkpt>
      <trkpt lat="39.18298124666003" lon="-6.2403738090737475"><ele>1784</ele><speed>10.42</speed><time>2016-06-01T14:03:29Z</time><pdop>16.0</pdop><geoidheight>50.60</geoidheight><course>218.44814</course><type>1</type></trkpt>
      <trkpt lat="39.18301805977306" lon="-6.240757052188109"><ele>1792</ele><speed>10.36</speed><time>2016-06-01T14:03:32Z</time><pdop>16.0</pdop><geoidheight>50.60</geoidheight><course>290.58154</course><type>1</type></trkpt>
      <trkpt lat="39.18313780667338" lon="-6.240392292679359"><ele>1818</ele><speed>11.16</speed><time>2016-06-01T14:03:42Z</time><pdop>16.0</pdop><geoidheight>50.60</geoidheight><course>109.24122</course><type>1</type></trkpt>
      <trkpt lat="39.182779323029784" lon="-6.240306940477813"><ele>1826</ele><speed>12.68</speed><time>2016-06-01T14:03:44Z</time><pdop>16.0</pdop><geoidheight>50.60</geoidheight><course>199.7221</course><type>1</type></trkpt>
      <trkpt lat="39.18252731601352" lon="-6.2404866589792345"><ele>1839</ele><speed>7.46</speed><time>2016-06-01T14:03:48Z</time><pdop>16.0</pdop><geoidheight>50.60</geoidheight><course>215.6601</course><type>1</type></trkpt>
      <trkpt lat="39.18223862391149" lon="-6.240618796776527"><ele>1854</ele><speed>10.29</speed><time>2016-06-01T14:03:51Z</time><pdop>8.0</pdop><geoidheight>50.60</geoidheight><course>212.24504</course><type>1</type></trkpt>
      <trkpt lat="39.18205127463874" lon="-6.240699761759169"><ele>1863</ele><speed>9.43</speed><time>2016-06-01T14:03:53Z</time><pdop>12.0</pdop><geoidheight>50.60</geoidheight><course>213.19427</course><type>1</type></trkpt>
      <trkpt lat="39.18188800290256" lon="-6.240807538617298"><ele>1870</ele><speed>10.58</speed><time>2016-06-01T14:03:55Z</time><pdop>8.0</pdop><geoidheight>50.60</geoidheight><course>214.44292</course><type>1</type></trkpt>
      <trkpt lat="39.181730787582374" lon="-6.241060282845564"><ele>1875</ele><speed>8.99</speed><time>2016-06-01T14:03:58Z</time><pdop>12.0</pdop><geoidheight>50.60</geoidheight><course>241.4546</course><type>1</type></trkpt>
      <trkpt lat="39.18170070536194" lon="-6.241369278280905"><ele>1879</ele><speed>9.45</speed><time>2016-06-01T14:04:00Z</time><pdop>12.0</pdop><geoidheight>50.60</geoidheight><course>256.0438</course><type>1</type></trkpt>
      <trkpt lat="39.181911703049" lon="-6.241308792317905"><ele>1897</ele><speed>4.79</speed><time>2016-06-01T14:04:07Z</time><pdop>12.0</pdop><geoidheight>50.60</geoidheight><course>114.080505</course><type>1</type></trkpt>
      <trkpt lat="39.18171312990478" lon="-6.241192133893246"><ele>1910</ele><speed>10.75</speed><time>2016-06-01T14:04:13Z</time><pdop>12.0</pdop><geoidheight>50.60</geoidheight><course>193.91017</course><type>1</type></trkpt>
      <trkpt lat="39.18154781531807" lon="-6.241406895295048"><ele>1915</ele><speed>9.95</speed><time>2016-06-01T14:04:16Z</time><pdop>8.0</pdop><geoidheight>50.60</geoidheight><course>235.29243</course><type>1</type></trkpt>
      <trkpt lat="39.18147153088033" lon="-6.241690099030298"><ele>1916</ele><speed>11.50</speed><time>2016-06-01T14:04:19Z</time><pdop>12.0</pdop><geoidheight>50.60</geoidheight><course>265.03253</course><type>1</type></trkpt>
      <trkpt lat="39.181597461085616" lon="-6.241995568019372"><ele>1916</ele><speed>11.10</speed><time>2016-06-01T14:04:22Z</time><pdop>12.0</pdop><geoidheight>50.60</geoidheight><course>314.17896</course><type>1</type></trkpt>
      <trkpt lat="39.18176311380107" lon="-6.242214254177925"><ele>1922</ele><speed>9.01</speed><time>2016-06-01T14:04:25Z</time><pdop>12.0</pdop><geoidheight>50.60</geoidheight><course>317.36887</course><type>1</type></trkpt>
      <trkpt lat="39.18201935450801" lon="-6.242161143826319"><ele>1945</ele><speed>7.42</speed><time>2016-06-01T14:04:32Z</time><pdop>16.0</pdop><geoidheight>50.60</geoidheight><course>65.216896</course><type>1</type></trkpt>
      <trkpt lat="39.18181658018471" lon="-6.241915548251074"><ele>1955</ele><speed>7.86</speed><time>2016-06-01T14:04:36Z</time><pdop>8.0</pdop><geoidheight>50.60</geoidheight><course>124.876656</course><type>1</type></trkpt>
      <trkpt lat="39.1815243343486" lon="-6.242030326234229"><ele>1962</ele><speed>10.43</speed><time>2016-06-01T14:04:39Z</time><pdop>12.0</pdop><geoidheight>50.60</geoidheight><course>205.66946</course><type>1</type></trkpt>
      <trkpt lat="39.18131021796019" lon="-6.2423137896783585"><ele>1965</ele><speed>11.46</speed><time>2016-06-01T14:04:42Z</time><pdop>12.0</pdop><geoidheight>50.60</geoidheight><course>232.29643</course><type>1</type></trkpt>
      <trkpt lat="39.181235453993985" lon="-6.24270532119233"><ele>1968</ele><speed>13.44</speed><time>2016-06-01T14:04:45Z</time><pdop>12.0</pdop><geoidheight>50.60</geoidheight><course>273.8579</course><type>1</type></trkpt>
      <trkpt lat="39.18139123615766" lon="-6.242970967202992"><ele>1972</ele><speed>9.97</speed><time>2016-06-01T14:04:47Z</time><pdop>12.0</pdop><geoidheight>50.60</geoidheight><course>298.70847</course><type>1</type></trkpt>
      <trkpt lat="39.181518433344785" lon="-6.242689123397607"><ele>1983</ele><speed>7.41</speed><time>2016-06-01T14:04:56Z</time><pdop>16.0</pdop><geoidheight>50.60</geoidheight><course>101.97113</course><type>1</type></trkpt>
      <trkpt lat="39.18121872492456" lon="-6.242423624023893"><ele>1992</ele><speed>10.42</speed><time>2016-06-01T14:05:01Z</time><pdop>16.0</pdop><geoidheight>50.60</geoidheight><course>181.35083</course><type>1</type></trkpt>
      <trkpt lat="39.18096687660945" lon="-6.2425153402065785"><ele>1997</ele><speed>10.68</speed><time>2016-06-01T14:05:04Z</time><pdop>12.0</pdop><geoidheight>50.60</geoidheight><course>207.88731</course><type>1</type></trkpt>
      <trkpt lat="39.18078358911453" lon="-6.242787621686707"><ele>2000</ele><speed>11.98</speed><time>2016-06-01T14:05:07Z</time><pdop>16.0</pdop><geoidheight>50.60</geoidheight><course>240.89847</course><type>1</type></trkpt>
      <trkpt lat="39.180714078948576" lon="-6.243180729691791"><ele>2003</ele><speed>13.42</speed><time>2016-06-01T14:05:10Z</time><pdop>12.0</pdop><geoidheight>50.60</geoidheight><course>282.38202</course><type>1</type></trkpt>
      <trkpt lat="39.180834556221114" lon="-6.243454175483314"><ele>2003</ele><speed>13.06</speed><time>2016-06-01T14:05:12Z</time><pdop>12.0</pdop><geoidheight>50.60</geoidheight><course>302.13803</course><type>1</type></trkpt>
      <trkpt lat="39.18100436489148" lon="-6.243695495201068"><ele>2005</ele><speed>7.82</speed><time>2016-06-01T14:05:15Z</time><pdop>8.0</pdop><geoidheight>50.60</geoidheight><course>328.81195</course><type>1</type></trkpt>
      <trkpt lat="39.181150126806884" lon="-6.243770710347696"><ele>2006</ele><speed>8.85</speed><time>2016-06-01T14:05:16Z</time><pdop>8.0</pdop><geoidheight>50.60</geoidheight><course>348.12067</course><type>1</type></trkpt>
      <trkpt lat="39.181343595656266" lon="-6.243816751320209"><ele>2011</ele><speed>6.32</speed><time>2016-06-01T14:05:20Z</time><pdop>8.0</pdop><geoidheight>50.60</geoidheight><course>348.00916</course><type>1</type></trkpt>
      <trkpt lat="39.18160771781796" lon="-6.243942008481693"><ele>2021</ele><speed>8.14</speed><time>2016-06-01T14:05:24Z</time><pdop>8.0</pdop><geoidheight>50.60</geoidheight><course>336.08893</course><type>1</type></trkpt>
      <trkpt lat="39.18175074375322" lon="-6.244021805913738"><ele>2026</ele><speed>9.10</speed><time>2016-06-01T14:05:26Z</time><pdop>8.0</pdop><geoidheight>50.60</geoidheight><course>333.05518</course><type>1</type></trkpt>
      <trkpt lat="39.18189292618764" lon="-6.244133284533898"><ele>2031</ele><speed>8.44</speed><time>2016-06-01T14:05:28Z</time><pdop>8.0</pdop><geoidheight>50.60</geoidheight><course>326.14905</course><type>1</type></trkpt>
      <trkpt lat="39.18202201403044" lon="-6.244277564756154"><ele>2036</ele><speed>9.81</speed><time>2016-06-01T14:05:30Z</time><pdop>8.0</pdop><geoidheight>50.60</geoidheight><course>319.9169</course><type>1</type></trkpt>
      <trkpt lat="39.18215878261894" lon="-6.244439807046236"><ele>2041</ele><speed>10.40</speed><time>2016-06-01T14:05:32Z</time><pdop>8.0</pdop><geoidheight>50.60</geoidheight><course>315.5501</course><type>1</type></trkpt>
      <trkpt lat="39.18221352971008" lon="-6.244635309823333"><ele>2045</ele><speed>8.77</speed><time>2016-06-01T14:05:34Z</time><pdop>8.0</pdop><geoidheight>50.60</geoidheight><course>280.76468</course><type>1</type></trkpt>
      <trkpt lat="39.182247856273676" lon="-6.244927228913733"><ele>2050</ele><speed>10.01</speed><time>2016-06-01T14:05:37Z</time><pdop>8.0</pdop><geoidheight>50.60</geoidheight><course>274.25497</course><type>1</type></trkpt>
      <trkpt lat="39.18224437399087" lon="-6.245185305165958"><ele>2053</ele><speed>11.28</speed><time>2016-06-01T14:05:39Z</time><pdop>12.0</pdop><geoidheight>50.60</geoidheight><course>270.2321</course><type>1</type></trkpt>
      <trkpt lat="39.182093633351954" lon="-6.245444033293684"><ele>2054</ele><speed>8.89</speed><time>2016-06-01T14:05:41Z</time><pdop>12.0</pdop><geoidheight>50.60</geoidheight><course>223.09854</course><type>1</type></trkpt>
      <trkpt lat="39.18190933395368" lon="-6.245557405392445"><ele>2055</ele><speed>11.32</speed><time>2016-06-01T14:05:44Z</time><pdop>8.0</pdop><geoidheight>50.60</geoidheight><course>197.35469</course><type>1</type></trkpt>
      <trkpt lat="39.18170493214942" lon="-6.245586021633478"><ele>2056</ele><speed>10.80</speed><time>2016-06-01T14:05:46Z</time><pdop>12.0</pdop><geoidheight>50.60</geoidheight><course>181.41557</course><type>1</type></trkpt>
      <trkpt lat="39.18141637070007" lon="-6.245567975625127"><ele>2062</ele><speed>10.16</speed><time>2016-06-01T14:05:49Z</time><pdop>12.0</pdop><geoidheight>50.60</geoidheight><course>172.38046</course><type>1</type></trkpt>
      <trkpt lat="39.18117548315017" lon="-6.245457507575655"><ele>2068</ele><speed>10.08</speed><time>2016-06-01T14:05:52Z</time><pdop>8.0</pdop><geoidheight>50.60</geoidheight><course>153.94029</course><type>1</type></trkpt>
      <trkpt lat="39.181019503136156" lon="-6.245308197423499"><ele>2071</ele><speed>9.85</speed><time>2016-06-01T14:05:54Z</time><pdop>12.0</pdop><geoidheight>50.60</geoidheight><course>133.07814</course><type>1</type></trkpt>
      <trkpt lat="39.18089942970401" lon="-6.2450146002811"><ele>2078</ele><speed>6.09</speed><time>2016-06-01T14:05:59Z</time><pdop>16.0</pdop><geoidheight>50.60</geoidheight><course>79.14885</course><type>1</type></trkpt>
      <trkpt lat="39.18103102723208" lon="-6.244598025756099"><ele>2084</ele><speed>9.72</speed><time>2016-06-01T14:06:03Z</time><pdop>16.0</pdop><geoidheight>50.60</geoidheight><course>54.7503</course><type>1</type></trkpt>
      <trkpt lat="39.1813313879447" lon="-6.244555064500715"><ele>2090</ele><speed>8.83</speed><time>2016-06-01T14:06:07Z</time><pdop>12.0</pdop><geoidheight>50.60</geoidheight><course>340.49573</course><type>1</type></trkpt>
      <trkpt lat="39.181499314233236" lon="-6.244834491923919"><ele>2093</ele><speed>11.73</speed><time>2016-06-01T14:06:09Z</time><pdop>8.0</pdop><geoidheight>50.60</geoidheight><course>284.58063</course><type>1</type></trkpt>
      <trkpt lat="39.18154982263125" lon="-6.245100305171239"><ele>2096</ele><speed>12.31</speed><time>2016-06-01T14:06:12Z</time><pdop>12.0</pdop><geoidheight>50.60</geoidheight><course>285.1349</course><type>1</type></trkpt>
      <trkpt lat="39.181427675741176" lon="-6.24546775906832"><ele>2099</ele><speed>10.57</speed><time>2016-06-01T14:06:15Z</time><pdop>12.0</pdop><geoidheight>50.60</geoidheight><course>244.01645</course><type>1</type></trkpt>
      <trkpt lat="39.18123131680104" lon="-6.245799671584537"><ele>2101</ele><speed>12.89</speed><time>2016-06-01T14:06:18Z</time><pdop>12.0</pdop><geoidheight>50.60</geoidheight><course>222.51808</course><type>1</type></trkpt>
      <trkpt lat="39.18102954198584" lon="-6.2459653131905775"><ele>2103</ele><speed>12.53</speed><time>2016-06-01T14:06:20Z</time><pdop>12.0</pdop><geoidheight>50.60</geoidheight><course>205.39801</course><type>1</type></trkpt>
      <trkpt lat="39.18081512308718" lon="-6.246077027652167"><ele>2104</ele><speed>12.57</speed><time>2016-06-01T14:06:22Z</time><pdop>12.0</pdop><geoidheight>50.60</geoidheight><course>202.04233</course><type>1</type></trkpt>
      <trkpt lat="39.180510082549986" lon="-6.246207119698467"><ele>2105</ele><speed>9.90</speed><time>2016-06-01T14:06:25Z</time><pdop>12.0</pdop><geoidheight>50.60</geoidheight><course>199.237</course><type>1</type></trkpt>
      <trkpt lat="39.180328987638205" lon="-6.246240176787866"><ele>2112</ele><speed>9.00</speed><time>2016-06-01T14:06:27Z</time><pdop>8.0</pdop><geoidheight>50.60</geoidheight><course>178.04886</course><type>1</type></trkpt>
      <trkpt lat="39.18008162747698" lon="-6.2461372596251366"><ele>2122</ele><speed>9.06</speed><time>2016-06-01T14:06:30Z</time><pdop>8.0</pdop><geoidheight>50.60</geoidheight><course>166.16496</course><type>1</type></trkpt>
      <trkpt lat="39.1801332766452" lon="-6.245790524177"><ele>2139</ele><speed>6.06</speed><time>2016-06-01T14:06:37Z</time><pdop>8.0</pdop><geoidheight>50.60</geoidheight><course>21.423128</course><type>1</type></trkpt>
      <trkpt lat="39.18027081525898" lon="-6.2457192528697245"><ele>2140</ele><speed>6.00</speed><time>2016-06-01T14:06:39Z</time><pdop>8.0</pdop><geoidheight>50.60</geoidheight><course>15.615049</course><type>1</type></trkpt>
      <trkpt lat="39.18038376437721" lon="-6.245871605575222"><ele>2139</ele><speed>7.78</speed><time>2016-06-01T14:06:41Z</time><pdop>8.0</pdop><geoidheight>50.60</geoidheight><course>312.00345</course><type>1</type></trkpt>
      <trkpt lat="39.18049191845792" lon="-6.246109391551782"><ele>2142</ele><speed>6.94</speed><time>2016-06-01T14:06:43Z</time><pdop>8.0</pdop><geoidheight>50.60</geoidheight><course>295.71783</course><type>1</type></trkpt>
      <trkpt lat="39.180577083315775" lon="-6.246282874420693"><ele>2146</ele><speed>9.18</speed><time>2016-06-01T14:06:46Z</time><pdop>8.0</pdop><geoidheight>50.60</geoidheight><course>296.968</course><type>1</type></trkpt>
      <trkpt lat="39.180636477190795" lon="-6.24655651310581"><ele>2147</ele><speed>11.73</speed><time>2016-06-01T14:06:47Z</time><pdop>12.0</pdop><geoidheight>50.60</geoidheight><course>265.13846</course><type>1</type></trkpt>
      <trkpt lat="39.18053816521663" lon="-6.246827647454249"><ele>2154</ele><speed>8.26</speed><time>2016-06-01T14:06:50Z</time><pdop>12.0</pdop><geoidheight>50.60</geoidheight><course>229.44899</course><type>1</type></trkpt>
      <trkpt lat="39.18027920622753" lon="-6.246968819674935"><ele>2161</ele><speed>10.04</speed><time>2016-06-01T14:06:53Z</time><pdop>12.0</pdop><geoidheight>50.60</geoidheight><course>195.19656</course><type>1</type></trkpt>
      <trkpt lat="39.17993600151761" lon="-6.246838228261853"><ele>2184</ele><speed>6.34</speed><time>2016-06-01T14:06:58Z</time><pdop>12.0</pdop><geoidheight>50.60</geoidheight><course>103.55324</course><type>1</type></trkpt>
      <trkpt lat="39.18017718458538" lon="-6.2466677624044396"><ele>2205</ele><speed>9.49</speed><time>2016-06-01T14:07:04Z</time><pdop>16.0</pdop><geoidheight>50.60</geoidheight><course>339.03827</course><type>1</type></trkpt>
      <trkpt lat="39.180379826289254" lon="-6.246851672305483"><ele>2215</ele><speed>7.56</speed><time>2016-06-01T14:07:08Z</time><pdop>8.0</pdop><geoidheight>50.60</geoidheight><course>306.38406</course><type>1</type></trkpt>
      <trkpt lat="39.18048357742505" lon="-6.247149894244463"><ele>2222</ele><speed>11.75</speed><time>2016-06-01T14:07:11Z</time><pdop>12.0</pdop><geoidheight>50.60</geoidheight><course>285.7978</course><type>1</type></trkpt>
      <trkpt lat="39.18052717240718" lon="-6.247424040878603"><ele>2226</ele><speed>12.03</speed><time>2016-06-01T14:07:14Z</time><pdop>12.0</pdop><geoidheight>50.60</geoidheight><course>283.3663</course><type>1</type></trkpt>
      <trkpt lat="39.18035670448943" lon="-6.2477122065104185"><ele>2229</ele><speed>10.48</speed><time>2016-06-01T14:07:16Z</time><pdop>12.0</pdop><geoidheight>50.60</geoidheight><course>223.28334</course><type>1</type></trkpt>
      <trkpt lat="39.18008839417492" lon="-6.247825798171731"><ele>2232</ele><speed>10.55</speed><time>2016-06-01T14:07:20Z</time><pdop>12.0</pdop><geoidheight>50.60</geoidheight><course>190.47772</course><type>1</type></trkpt>
      <trkpt lat="39.17987450579119" lon="-6.247871300933026"><ele>2232</ele><speed>9.75</speed><time>2016-06-01T14:07:21Z</time><pdop>8.0</pdop><geoidheight>50.60</geoidheight><course>183.62398</course><type>1</type></trkpt>
      <trkpt lat="39.17965946646279" lon="-6.247746414325654"><ele>2234</ele><speed>7.61</speed><time>2016-06-01T14:07:25Z</time><pdop>12.0</pdop><geoidheight>50.60</geoidheight><course>135.06468</course><type>1</type></trkpt>
      <trkpt lat="39.17959110114806" lon="-6.247472873125131"><ele>2241</ele><speed>5.29</speed><time>2016-06-01T14:07:30Z</time><pdop>8.0</pdop><geoidheight>50.60</geoidheight><course>81.182655</course><type>1</type></trkpt>
      <trkpt lat="39.17994503611999" lon="-6.24728353422434"><ele>2252</ele><speed>5.50</speed><time>2016-06-01T14:07:37Z</time><pdop>16.0</pdop><geoidheight>50.60</geoidheight><course>334.93637</course><type>1</type></trkpt>
      <trkpt lat="39.18014831024139" lon="-6.247497017770594"><ele>2261</ele><speed>9.35</speed><time>2016-06-01T14:07:40Z</time><pdop>8.0</pdop><geoidheight>50.60</geoidheight><course>308.5747</course><type>1</type></trkpt>
      <trkpt lat="39.18022051066022" lon="-6.24772299445209"><ele>2265</ele><speed>10.18</speed><time>2016-06-01T14:07:42Z</time><pdop>8.0</pdop><geoidheight>50.60</geoidheight><course>301.2249</course><type>1</type></trkpt>
      <trkpt lat="39.18020887962627" lon="-6.248001686992308"><ele>2268</ele><speed>12.05</speed><time>2016-06-01T14:07:44Z</time><pdop>12.0</pdop><geoidheight>50.60</geoidheight><course>261.78687</course><type>1</type></trkpt>
      <trkpt lat="39.180143395121924" lon="-6.248273538963678"><ele>2268</ele><speed>11.44</speed><time>2016-06-01T14:07:46Z</time><pdop>12.0</pdop><geoidheight>50.60</geoidheight><course>240.90057</course><type>1</type></trkpt>
      <trkpt lat="39.17996098817106" lon="-6.248550285858151"><ele>2265</ele><speed>10.82</speed><time>2016-06-01T14:07:49Z</time><pdop>12.0</pdop><geoidheight>50.60</geoidheight><course>219.6073</course><type>1</type></trkpt>
      <trkpt lat="39.17971727071373" lon="-6.248701333713775"><ele>2264</ele><speed>10.18</speed><time>2016-06-01T14:07:52Z</time><pdop>8.0</pdop><geoidheight>50.60</geoidheight><course>201.30249</course><type>1</type></trkpt>
      <trkpt lat="39.17957406594094" lon="-6.248757773322032"><ele>2262</ele><speed>7.52</speed><time>2016-06-01T14:07:54Z</time><pdop>8.0</pdop><geoidheight>50.60</geoidheight><course>195.11719</course><type>1</type></trkpt>
      <trkpt lat="39.17938158643996" lon="-6.248702818804841"><ele>2253</ele><speed>9.47</speed><time>2016-06-01T14:07:57Z</time><pdop>8.0</pdop><geoidheight>50.60</geoidheight><course>160.64464</course><type>1</type></trkpt>
      <trkpt lat="39.179128902693584" lon="-6.248581532309359"><ele>2245</ele><speed>11.52</speed><time>2016-06-01T14:08:01Z</time><pdop>12.0</pdop><geoidheight>50.60</geoidheight><course>158.28757</course><type>1</type></trkpt>
      <trkpt lat="39.17890999334751" lon="-6.2485408899342785"><ele>2241</ele><speed>13.07</speed><time>2016-06-01T14:08:02Z</time><pdop>12.0</pdop><geoidheight>50.60</geoidheight><course>166.64088</course><type>1</type></trkpt>
      <trkpt lat="39.17869267834318" lon="-6.248656494857638"><ele>2239</ele><speed>13.27</speed><time>2016-06-01T14:08:04Z</time><pdop>12.0</pdop><geoidheight>50.60</geoidheight><course>204.56749</course><type>1</type></trkpt>
      <trkpt lat="39.17854535411914" lon="-6.2487959060624"><ele>2236</ele><speed>8.47</speed><time>2016-06-01T14:08:06Z</time><pdop>8.0</pdop><geoidheight>50.60</geoidheight><course>208.12683</course><type>1</type></trkpt>
      <trkpt lat="39.17839396218562" lon="-6.248945030465564"><ele>2233</ele><speed>12.61</speed><time>2016-06-01T14:08:09Z</time><pdop>8.0</pdop><geoidheight>50.60</geoidheight><course>213.31343</course><type>1</type></trkpt>
      <trkpt lat="39.1781945044914" lon="-6.249170493576764"><ele>2228</ele><speed>16.12</speed><time>2016-06-01T14:08:10Z</time><pdop>16.0</pdop><geoidheight>50.60</geoidheight><course>218.98625</course><type>1</type></trkpt>
      <trkpt lat="39.177967217875754" lon="-6.249518627220955"><ele>2221</ele><speed>9.87</speed><time>2016-06-01T14:08:13Z</time><pdop>16.0</pdop><geoidheight>50.60</geoidheight><course>214.8008</course><type>1</type></trkpt>
      <trkpt lat="39.177702261849845" lon="-6.249877901529873"><ele>2216</ele><speed>15.24</speed><time>2016-06-01T14:08:17Z</time><pdop>16.0</pdop><geoidheight>50.60</geoidheight><course>235.31915</course><type>1</type></trkpt>
      <trkpt lat="39.17750265915863" lon="-6.250157660705027"><ele>2209</ele><speed>8.93</speed><time>2016-06-01T14:08:20Z</time><pdop>12.0</pdop><geoidheight>50.60</geoidheight><course>229.61504</course><type>1</type></trkpt>
      <trkpt lat="39.17736989799392" lon="-6.2503304200091705"><ele>2206</ele><speed>11.29</speed><time>2016-06-01T14:08:22Z</time><pdop>8.0</pdop><geoidheight>50.60</geoidheight><course>226.55734</course><type>1</type></trkpt>
      <trkpt lat="39.177232107471134" lon="-6.250536307966808"><ele>2203</ele><speed>12.51</speed><time>2016-06-01T14:08:25Z</time><pdop>12.0</pdop><geoidheight>50.60</geoidheight><course>231.88391</course><type>1</type></trkpt>
      <trkpt lat="39.17712518207639" lon="-6.250859899996245"><ele>2196</ele><speed>10.42</speed><time>2016-06-01T14:08:27Z</time><pdop>12.0</pdop><geoidheight>50.60</geoidheight><course>247.93199</course><type>1</type></trkpt>
      <trkpt lat="39.17703121351147" lon="-6.251168056980362"><ele>2189</ele><speed>10.19</speed><time>2016-06-01T14:08:30Z</time><pdop>12.0</pdop><geoidheight>50.60</geoidheight><course>250.01962</course><type>1</type></trkpt>
      <trkpt lat="39.17693514264196" lon="-6.2514599941535085"><ele>2181</ele><speed>10.75</speed><time>2016-06-01T14:08:33Z</time><pdop>12.0</pdop><geoidheight>50.60</geoidheight><course>244.638</course><type>1</type></trkpt>
      <trkpt lat="39.176821567258884" lon="-6.251778224572001"><ele>2173</ele><speed>10.77</speed><time>2016-06-01T14:08:36Z</time><pdop>12.0</pdop><geoidheight>50.60</geoidheight><course>247.91742</course><type>1</type></trkpt>
      <trkpt lat="39.1766892222073" lon="-6.252058514125577"><ele>2167</ele><speed>10.68</speed><time>2016-06-01T14:08:39Z</time><pdop>8.0</pdop><geoidheight>50.60</geoidheight><course>230.80418</course><type>1</type></trkpt>
      <trkpt lat="39.176560955929766" lon="-6.252262650843275"><ele>2162</ele><speed>13.24</speed><time>2016-06-01T14:08:41Z</time><pdop>8.0</pdop><geoidheight>50.60</geoidheight><course>228.97867</course><type>1</type></trkpt>
      <trkpt lat="39.176416153643686" lon="-6.252470744620719"><ele>2158</ele><speed>12.61</speed><time>2016-06-01T14:08:43Z</time><pdop>8.0</pdop><geoidheight>50.60</geoidheight><course>228.31906</course><type>1</type></trkpt>
      <trkpt lat="39.176281218040465" lon="-6.252664021890412"><ele>2155</ele><speed>11.18</speed><time>2016-06-01T14:08:45Z</time><pdop>8.0</pdop><geoidheight>50.60</geoidheight><course>228.6857</course><type>1</type></trkpt>
      <trkpt lat="39.17614807693042" lon="-6.252845302058061"><ele>2152</ele><speed>11.76</speed><time>2016-06-01T14:08:47Z</time><pdop>8.0</pdop><geoidheight>50.60</geoidheight><course>226.9075</course><type>1</type></trkpt>
      <trkpt lat="39.175991077290576" lon="-6.253063462613964"><ele>2149</ele><speed>13.63</speed><time>2016-06-01T14:08:49Z</time><pdop>8.0</pdop><geoidheight>50.60</geoidheight><course>227.54189</course><type>1</type></trkpt>
      <trkpt lat="39.17583504661055" lon="-6.253302399920384"><ele>2146</ele><speed>13.90</speed><time>2016-06-01T14:08:51Z</time><pdop>8.0</pdop><geoidheight>50.60</geoidheight><course>230.6732</course><type>1</type></trkpt>
      <trkpt lat="39.175696845937196" lon="-6.25355770654079"><ele>2144</ele><speed>13.90</speed><time>2016-06-01T14:08:53Z</time><pdop>8.0</pdop><geoidheight>50.60</geoidheight><course>234.35344</course><type>1</type></trkpt>
      <trkpt lat="39.17555577134248" lon="-6.25382030805351"><ele>2142</ele><speed>14.14</speed><time>2016-06-01T14:08:55Z</time><pdop>8.0</pdop><geoidheight>50.60</geoidheight><course>234.50058</course><type>1</type></trkpt>
      <trkpt lat="39.17540113190012" lon="-6.254090390578549"><ele>2142</ele><speed>13.84</speed><time>2016-06-01T14:08:57Z</time><pdop>8.0</pdop><geoidheight>50.60</geoidheight><course>232.90497</course><type>1</type></trkpt>
      <trkpt lat="39.175249323886156" lon="-6.254324394040821"><ele>2142</ele><speed>12.06</speed><time>2016-06-01T14:08:59Z</time><pdop>16.0</pdop><geoidheight>50.60</geoidheight><course>230.4048</course><type>1</type></trkpt>
      <trkpt lat="39.17498522851696" lon="-6.254696651607835"><ele>2144</ele><speed>15.64</speed><time>2016-06-01T14:09:02Z</time><pdop>8.0</pdop><geoidheight>50.60</geoidheight><course>227.65381</course><type>1</type></trkpt>
      <trkpt lat="39.174804510242176" lon="-6.254946710158274"><ele>2146</ele><speed>13.95</speed><time>2016-06-01T14:09:04Z</time><pdop>6.0</pdop><geoidheight>50.60</geoidheight><course>228.80518</course><type>1</type></trkpt>
      <trkpt lat="39.174719432548244" lon="-6.25506839809493"><ele>2147</ele><speed>13.67</speed><time>2016-06-01T14:09:05Z</time><pdop>8.0</pdop><geoidheight>50.60</geoidheight><course>227.8022</course><type>1</type></trkpt>
      <trkpt lat="39.17455285536752" lon="-6.255291836866286"><ele>2149</ele><speed>13.40</speed><time>2016-06-01T14:09:08Z</time><pdop>8.0</pdop><geoidheight>50.60</geoidheight><course>224.66353</course><type>1</type></trkpt>
      <trkpt lat="39.17439539389842" lon="-6.255497137741447"><ele>2150</ele><speed>12.86</speed><time>2016-06-01T14:09:09Z</time><pdop>8.0</pdop><geoidheight>50.60</geoidheight><course>224.7566</course><type>1</type></trkpt>
      <trkpt lat="39.1742368511636" lon="-6.255696149868639"><ele>2150</ele><speed>12.77</speed><time>2016-06-01T14:09:11Z</time><pdop>8.0</pdop><geoidheight>50.60</geoidheight><course>224.76407</course><type>1</type></trkpt>
      <trkpt lat="39.174086303176225" lon="-6.255892901504199"><ele>2151</ele><speed>11.41</speed><time>2016-06-01T14:09:13Z</time><pdop>8.0</pdop><geoidheight>50.60</geoidheight><course>225.94833</course><type>1</type></trkpt>
      <trkpt lat="39.17394264970983" lon="-6.256091387154557"><ele>2151</ele><speed>11.78</speed><time>2016-06-01T14:09:15Z</time><pdop>8.0</pdop><geoidheight>50.60</geoidheight><course>227.02193</course><type>1</type></trkpt>
      <trkpt lat="39.17379780394261" lon="-6.256305461582345"><ele>2151</ele><speed>12.87</speed><time>2016-06-01T14:09:17Z</time><pdop>8.0</pdop><geoidheight>50.60</geoidheight><course>229.966</course><type>1</type></trkpt>
      <trkpt lat="39.17367630044555" lon="-6.256532813241923"><ele>2150</ele><speed>12.00</speed><time>2016-06-01T14:09:19Z</time><pdop>12.0</pdop><geoidheight>50.60</geoidheight><course>236.15938</course><type>1</type></trkpt>
      <trkpt lat="39.173552381438846" lon="-6.256762315948413"><ele>2149</ele><speed>12.89</speed><time>2016-06-01T14:09:21Z</time><pdop>8.0</pdop><geoidheight>50.60</geoidheight><course>233.6794</course><type>1</type></trkpt>
      <trkpt lat="39.17340330411504" lon="-6.257003993810924"><ele>2147</ele><speed>13.58</speed><time>2016-06-01T14:09:23Z</time><pdop>8.0</pdop><geoidheight>50.60</geoidheight><course>232.81863</course><type>1</type></trkpt>
      <trkpt lat="39.173259854199316" lon="-6.257288981669044"><ele>2145</ele><speed>14.77</speed><time>2016-06-01T14:09:25Z</time><pdop>12.0</pdop><geoidheight>50.60</geoidheight><course>238.30074</course><type>1</type></trkpt>
      <trkpt lat="39.17313941102543" lon="-6.257574594414867"><ele>2143</ele><speed>13.92</speed><time>2016-06-01T14:09:27Z</time><pdop>8.0</pdop><geoidheight>50.60</geoidheight><course>239.34488</course><type>1</type></trkpt>
      <trkpt lat="39.17301526560116" lon="-6.257845446801679"><ele>2140</ele><speed>13.71</speed><time>2016-06-01T14:09:29Z</time><pdop>8.0</pdop><geoidheight>50.60</geoidheight><course>238.72542</course><type>1</type></trkpt>
      <trkpt lat="39.172897724023734" lon="-6.258127285346961"><ele>2138</ele><speed>13.97</speed><time>2016-06-01T14:09:31Z</time><pdop>8.0</pdop><geoidheight>50.60</geoidheight><course>241.73508</course><type>1</type></trkpt>
      <trkpt lat="39.17279906986" lon="-6.258417839342859"><ele>2135</ele><speed>13.87</speed><time>2016-06-01T14:09:33Z</time><pdop>16.0</pdop><geoidheight>50.60</geoidheight><course>245.91116</course><type>1</type></trkpt>
      <trkpt lat="39.172693930842684" lon="-6.258848365237294"><ele>2130</ele><speed>12.41</speed><time>2016-06-01T14:09:36Z</time><pdop>8.0</pdop><geoidheight>50.60</geoidheight><course>251.20047</course><type>1</type></trkpt>
      <trkpt lat="39.17264234968967" lon="-6.259105602280793"><ele>2127</ele><speed>12.02</speed><time>2016-06-01T14:09:38Z</time><pdop>8.0</pdop><geoidheight>50.60</geoidheight><course>252.00299</course><type>1</type></trkpt>
      <trkpt lat="39.17257134687523" lon="-6.259385085345375"><ele>2125</ele><speed>13.86</speed><time>2016-06-01T14:09:40Z</time><pdop>8.0</pdop><geoidheight>50.60</geoidheight><course>249.37068</course><type>1</type></trkpt>
      <trkpt lat="39.17248336126799" lon="-6.2596640896091005"><ele>2122</ele><speed>12.90</speed><time>2016-06-01T14:09:42Z</time><pdop>8.0</pdop><geoidheight>50.60</geoidheight><course>247.20108</course><type>1</type></trkpt>
      <trkpt lat="39.17240165084989" lon="-6.259911818963406"><ele>2119</ele><speed>11.51</speed><time>2016-06-01T14:09:44Z</time><pdop>8.0</pdop><geoidheight>50.60</geoidheight><course>245.90286</course><type>1</type></trkpt>
      <trkpt lat="39.17231466368263" lon="-6.260156945892597"><ele>2115</ele><speed>12.68</speed><time>2016-06-01T14:09:46Z</time><pdop>8.0</pdop><geoidheight>50.60</geoidheight><course>244.10541</course><type>1</type></trkpt>
      <trkpt lat="39.172260041171526" lon="-6.260408361910786"><ele>2111</ele><speed>11.80</speed><time>2016-06-01T14:09:48Z</time><pdop>8.0</pdop><geoidheight>50.60</geoidheight><course>260.90753</course><type>1</type></trkpt>
      <trkpt lat="39.17222548378597" lon="-6.260662341324854"><ele>2108</ele><speed>12.01</speed><time>2016-06-01T14:09:50Z</time><pdop>8.0</pdop><geoidheight>50.60</geoidheight><course>259.3485</course><type>1</type></trkpt>
      <trkpt lat="39.1721607836638" lon="-6.2609439368746385"><ele>2105</ele><speed>13.93</speed><time>2016-06-01T14:09:52Z</time><pdop>8.0</pdop><geoidheight>50.60</geoidheight><course>253.68039</course><type>1</type></trkpt>
      <trkpt lat="39.17207905773468" lon="-6.261218876672428"><ele>2102</ele><speed>12.55</speed><time>2016-06-01T14:09:54Z</time><pdop>12.0</pdop><geoidheight>50.60</geoidheight><course>250.2432</course><type>1</type></trkpt>
      <trkpt lat="39.1719771459341" lon="-6.261486303007486"><ele>2100</ele><speed>12.66</speed><time>2016-06-01T14:09:56Z</time><pdop>6.0</pdop><geoidheight>50.60</geoidheight><course>246.28236</course><type>1</type></trkpt>
      <trkpt lat="39.17186036670604" lon="-6.261764042727176"><ele>2097</ele><speed>14.06</speed><time>2016-06-01T14:09:58Z</time><pdop>16.0</pdop><geoidheight>50.60</geoidheight><course>243.47769</course><type>1</type></trkpt>
      <trkpt lat="39.17173747763539" lon="-6.262053027430332"><ele>2093</ele><speed>14.88</speed><time>2016-06-01T14:10:00Z</time><pdop>6.0</pdop><geoidheight>50.60</geoidheight><course>242.46506</course><type>1</type></trkpt>
      <trkpt lat="39.17161542249083" lon="-6.262313096787782"><ele>2088</ele><speed>13.78</speed><time>2016-06-01T14:10:03Z</time><pdop>8.0</pdop><geoidheight>50.60</geoidheight><course>239.05972</course><type>1</type></trkpt>
      <trkpt lat="39.17148299363862" lon="-6.262557051577829"><ele>2084</ele><speed>14.10</speed><time>2016-06-01T14:10:04Z</time><pdop>6.0</pdop><geoidheight>50.60</geoidheight><course>235.71602</course><type>1</type></trkpt>
      <trkpt lat="39.17133162697032" lon="-6.262810288221324"><ele>2080</ele><speed>14.20</speed><time>2016-06-01T14:10:06Z</time><pdop>12.0</pdop><geoidheight>50.60</geoidheight><course>233.57013</course><type>1</type></trkpt>
      <trkpt lat="39.171176614797126" lon="-6.263045829518963"><ele>2073</ele><speed>13.51</speed><time>2016-06-01T14:10:08Z</time><pdop>12.0</pdop><geoidheight>50.60</geoidheight><course>229.92406</course><type>1</type></trkpt>
      <trkpt lat="39.17102490639766" lon="-6.2632589683672695"><ele>2068</ele><speed>13.34</speed><time>2016-06-01T14:10:10Z</time><pdop>12.0</pdop><geoidheight>50.60</geoidheight><course>228.03741</course><type>1</type></trkpt>
      <trkpt lat="39.17086450030347" lon="-6.263481146758798"><ele>2064</ele><speed>13.93</speed><time>2016-06-01T14:10:12Z</time><pdop>8.0</pdop><geoidheight>50.60</geoidheight><course>228.16324</course><type>1</type></trkpt>
      <trkpt lat="39.170716277105896" lon="-6.263683224928548"><ele>2058</ele><speed>13.45</speed><time>2016-06-01T14:10:15Z</time><pdop>16.0</pdop><geoidheight>50.60</geoidheight><course>226.82837</course><type>1</type></trkpt>
      <trkpt lat="39.17048459538179" lon="-6.263989976637147"><ele>2047</ele><speed>12.92</speed><time>2016-06-01T14:10:17Z</time><pdop>12.0</pdop><geoidheight>50.60</geoidheight><course>226.97084</course><type>1</type></trkpt>
      <trkpt lat="39.170251367147394" lon="-6.264316579000542"><ele>2040</ele><speed>13.05</speed><time>2016-06-01T14:10:20Z</time><pdop>8.0</pdop><geoidheight>50.60</geoidheight><course>228.17819</course><type>1</type></trkpt>
      <trkpt lat="39.17004967115879" lon="-6.264612503116461"><ele>2033</ele><speed>11.06</speed><time>2016-06-01T14:10:23Z</time><pdop>12.0</pdop><geoidheight>50.60</geoidheight><course>232.2768</course><type>1</type></trkpt>
      <trkpt lat="39.169931212039955" lon="-6.264795791138689"><ele>2032</ele><speed>11.44</speed><time>2016-06-01T14:10:25Z</time><pdop>8.0</pdop><geoidheight>50.60</geoidheight><course>228.78238</course><type>1</type></trkpt>
      <trkpt lat="39.169790262100356" lon="-6.2649894706635845"><ele>2030</ele><speed>12.00</speed><time>2016-06-01T14:10:27Z</time><pdop>8.0</pdop><geoidheight>50.60</geoidheight><course>225.84665</course><type>1</type></trkpt>
      <trkpt lat="39.169652480082114" lon="-6.265194348987403"><ele>2027</ele><speed>11.48</speed><time>2016-06-01T14:10:29Z</time><pdop>8.0</pdop><geoidheight>50.60</geoidheight><course>227.82872</course><type>1</type></trkpt>
      <trkpt lat="39.1695183603349" lon="-6.265379230835398"><ele>2024</ele><speed>10.91</speed><time>2016-06-01T14:10:31Z</time><pdop>12.0</pdop><geoidheight>50.60</geoidheight><course>224.92493</course><type>1</type></trkpt>
      <trkpt lat="39.16932131878127" lon="-6.265639233138703"><ele>2015</ele><speed>11.87</speed><time>2016-06-01T14:10:34Z</time><pdop>12.0</pdop><geoidheight>50.60</geoidheight><course>225.24246</course><type>1</type></trkpt>
      <trkpt lat="39.16913061622972" lon="-6.265894819338096"><ele>2005</ele><speed>11.24</speed><time>2016-06-01T14:10:37Z</time><pdop>12.0</pdop><geoidheight>50.60</geoidheight><course>222.6318</course><type>1</type></trkpt>
      <trkpt lat="39.1689849261358" lon="-6.266082189170713"><ele>1999</ele><speed>12.56</speed><time>2016-06-01T14:10:39Z</time><pdop>8.0</pdop><geoidheight>50.60</geoidheight><course>223.4248</course><type>1</type></trkpt>
      <trkpt lat="39.16876989829416" lon="-6.266345405776374"><ele>1991</ele><speed>10.35</speed><time>2016-06-01T14:10:42Z</time><pdop>8.0</pdop><geoidheight>50.60</geoidheight><course>220.42842</course><type>1</type></trkpt>
      <trkpt lat="39.168622772490146" lon="-6.266504247328776"><ele>1987</ele><speed>11.27</speed><time>2016-06-01T14:10:44Z</time><pdop>12.0</pdop><geoidheight>50.60</geoidheight><course>218.46494</course><type>1</type></trkpt>
      <trkpt lat="39.168427461778215" lon="-6.266690525265175"><ele>1979</ele><speed>13.52</speed><time>2016-06-01T14:10:46Z</time><pdop>12.0</pdop><geoidheight>50.60</geoidheight><course>217.69672</course><type>1</type></trkpt>
      <trkpt lat="39.16821533223905" lon="-6.266935424301913"><ele>1971</ele><speed>9.68</speed><time>2016-06-01T14:10:49Z</time><pdop>8.0</pdop><geoidheight>50.60</geoidheight><course>223.69492</course><type>1</type></trkpt>
      <trkpt lat="39.16808297977687" lon="-6.267109583987769"><ele>1966</ele><speed>11.35</speed><time>2016-06-01T14:10:51Z</time><pdop>8.0</pdop><geoidheight>50.60</geoidheight><course>225.60124</course><type>1</type></trkpt>
      <trkpt lat="39.167936599548185" lon="-6.2673213105915915"><ele>1960</ele><speed>12.51</speed><time>2016-06-01T14:10:53Z</time><pdop>8.0</pdop><geoidheight>50.60</geoidheight><course>227.5791</course><type>1</type></trkpt>
      <trkpt lat="39.167803455410194" lon="-6.267520239766499"><ele>1955</ele><speed>11.17</speed><time>2016-06-01T14:10:55Z</time><pdop>8.0</pdop><geoidheight>50.60</geoidheight><course>226.82396</course><type>1</type></trkpt>
      <trkpt lat="39.16765740530229" lon="-6.267696732126501"><ele>1951</ele><speed>11.73</speed><time>2016-06-01T14:10:57Z</time><pdop>8.0</pdop><geoidheight>50.60</geoidheight><course>222.31828</course><type>1</type></trkpt>
      <trkpt lat="39.16749859704959" lon="-6.267885154709469"><ele>1945</ele><speed>13.70</speed><time>2016-06-01T14:10:59Z</time><pdop>8.0</pdop><geoidheight>50.60</geoidheight><course>223.08849</course><type>1</type></trkpt>
      <trkpt lat="39.167274609802746" lon="-6.2681567376509255"><ele>1938</ele><speed>10.84</speed><time>2016-06-01T14:11:02Z</time><pdop>6.0</pdop><geoidheight>50.60</geoidheight><course>221.26692</course><type>1</type></trkpt>
      <trkpt lat="39.16713641989137" lon="-6.2683099348240745"><ele>1935</ele><speed>10.82</speed><time>2016-06-01T14:11:04Z</time><pdop>6.0</pdop><geoidheight>50.60</geoidheight><course>220.602</course><type>1</type></trkpt>
      <trkpt lat="39.16699060299457" lon="-6.268470389877547"><ele>1930</ele><speed>11.83</speed><time>2016-06-01T14:11:06Z</time><pdop>6.0</pdop><geoidheight>50.60</geoidheight><course>221.79453</course><type>1</type></trkpt>
      <trkpt lat="39.166841943864256" lon="-6.268638045205155"><ele>1927</ele><speed>10.91</speed><time>2016-06-01T14:11:08Z</time><pdop>6.0</pdop><geoidheight>50.60</geoidheight><course>221.17178</course><type>1</type></trkpt>
      <trkpt lat="39.16669157624619" lon="-6.268801637893646"><ele>1924</ele><speed>11.47</speed><time>2016-06-01T14:11:10Z</time><pdop>6.0</pdop><geoidheight>50.60</geoidheight><course>218.97707</course><type>1</type></trkpt>
      <trkpt lat="39.166542883350296" lon="-6.268954696928828"><ele>1920</ele><speed>11.29</speed><time>2016-06-01T14:11:12Z</time><pdop>12.0</pdop><geoidheight>50.60</geoidheight><course>220.1357</course><type>1</type></trkpt>
      <trkpt lat="39.1663961684885" lon="-6.269115456227058"><ele>1916</ele><speed>11.58</speed><time>2016-06-01T14:11:14Z</time><pdop>6.0</pdop><geoidheight>50.60</geoidheight><course>220.18979</course><type>1</type></trkpt>
      <trkpt lat="39.166253828756176" lon="-6.269269068348196"><ele>1911</ele><speed>11.78</speed><time>2016-06-01T14:11:16Z</time><pdop>12.0</pdop><geoidheight>50.60</geoidheight><course>220.13916</course><type>1</type></trkpt>
      <trkpt lat="39.166116200525344" lon="-6.269436639076786"><ele>1905</ele><speed>12.43</speed><time>2016-06-01T14:11:18Z</time><pdop>6.0</pdop><geoidheight>50.60</geoidheight><course>222.675</course><type>1</type></trkpt>
      <trkpt lat="39.1659051484573" lon="-6.2697440453916515"><ele>1896</ele><speed>12.06</speed><time>2016-06-01T14:11:21Z</time><pdop>6.0</pdop><geoidheight>50.60</geoidheight><course>228.17094</course><type>1</type></trkpt>
      <trkpt lat="39.16578320306737" lon="-6.269952419501527"><ele>1891</ele><speed>11.73</speed><time>2016-06-01T14:11:23Z</time><pdop>8.0</pdop><geoidheight>50.60</geoidheight><course>230.9339</course><type>1</type></trkpt>
      <trkpt lat="39.165656185909086" lon="-6.27016033619524"><ele>1886</ele><speed>11.95</speed><time>2016-06-01T14:11:25Z</time><pdop>8.0</pdop><geoidheight>50.60</geoidheight><course>227.7511</course><type>1</type></trkpt>
      <trkpt lat="39.16551720744854" lon="-6.270362255658165"><ele>1881</ele><speed>11.30</speed><time>2016-06-01T14:11:27Z</time><pdop>6.0</pdop><geoidheight>50.60</geoidheight><course>226.30305</course><type>1</type></trkpt>
      <trkpt lat="39.165402514578254" lon="-6.270524401426254"><ele>1879</ele><speed>8.95</speed><time>2016-06-01T14:11:29Z</time><pdop>6.0</pdop><geoidheight>50.60</geoidheight><course>226.41208</course><type>1</type></trkpt>
      <trkpt lat="39.16529121280302" lon="-6.270687795705737"><ele>1876</ele><speed>10.17</speed><time>2016-06-01T14:11:31Z</time><pdop>6.0</pdop><geoidheight>50.60</geoidheight><course>227.57051</course><type>1</type></trkpt>
      <trkpt lat="39.16516727159337" lon="-6.27087597177044"><ele>1872</ele><speed>12.00</speed><time>2016-06-01T14:11:33Z</time><pdop>6.0</pdop><geoidheight>50.60</geoidheight><course>228.80882</course><type>1</type></trkpt>
      <trkpt lat="39.16504423118099" lon="-6.27107401940226"><ele>1867</ele><speed>12.04</speed><time>2016-06-01T14:11:35Z</time><pdop>8.0</pdop><geoidheight>50.60</geoidheight><course>230.50928</course><type>1</type></trkpt>
      <trkpt lat="39.164935085735294" lon="-6.271287236712138"><ele>1862</ele><speed>11.43</speed><time>2016-06-01T14:11:37Z</time><pdop>8.0</pdop><geoidheight>50.60</geoidheight><course>234.88214</course><type>1</type></trkpt>
      <trkpt lat="39.164819464556814" lon="-6.271511683504704"><ele>1858</ele><speed>12.47</speed><time>2016-06-01T14:11:39Z</time><pdop>6.0</pdop><geoidheight>50.60</geoidheight><course>232.92546</course><type>1</type></trkpt>
      <trkpt lat="39.16475347525442" lon="-6.271623597723618"><ele>1856</ele><speed>12.56</speed><time>2016-06-01T14:11:40Z</time><pdop>6.0</pdop><geoidheight>50.60</geoidheight><course>231.2262</course><type>1</type></trkpt>
      <trkpt lat="39.16461919390162" lon="-6.271832791675614"><ele>1853</ele><speed>11.39</speed><time>2016-06-01T14:11:42Z</time><pdop>12.0</pdop><geoidheight>50.60</geoidheight><course>228.55978</course><type>1</type></trkpt>
      <trkpt lat="39.164481931362374" lon="-6.271999843714118"><ele>1850</ele><speed>10.96</speed><time>2016-06-01T14:11:44Z</time><pdop>6.0</pdop><geoidheight>50.60</geoidheight><course>221.36783</course><type>1</type></trkpt>
      <trkpt lat="39.16433509687306" lon="-6.272141581008641"><ele>1845</ele><speed>11.53</speed><time>2016-06-01T14:11:46Z</time><pdop>6.0</pdop><geoidheight>50.60</geoidheight><course>218.02716</course><type>1</type></trkpt>
      <trkpt lat="39.16418344627884" lon="-6.27230381504221"><ele>1840</ele><speed>12.67</speed><time>2016-06-01T14:11:48Z</time><pdop>6.0</pdop><geoidheight>50.60</geoidheight><course>221.70888</course><type>1</type></trkpt>
      <trkpt lat="39.164038970846306" lon="-6.272481406210437"><ele>1835</ele><speed>11.63</speed><time>2016-06-01T14:11:50Z</time><pdop>8.0</pdop><geoidheight>50.60</geoidheight><course>224.38177</course><type>1</type></trkpt>
      <trkpt lat="39.16390561070134" lon="-6.2726519049877885"><ele>1830</ele><speed>10.66</speed><time>2016-06-01T14:11:52Z</time><pdop>6.0</pdop><geoidheight>50.60</geoidheight><course>224.55998</course><type>1</type></trkpt>
      <trkpt lat="39.163785194010266" lon="-6.27282558980092"><ele>1824</ele><speed>10.31</speed><time>2016-06-01T14:11:54Z</time><pdop>6.0</pdop><geoidheight>50.60</geoidheight><course>226.76163</course><type>1</type></trkpt>
      <trkpt lat="39.16366335202944" lon="-6.273006019646053"><ele>1819</ele><speed>10.56</speed><time>2016-06-01T14:11:56Z</time><pdop>6.0</pdop><geoidheight>50.60</geoidheight><course>227.81529</course><type>1</type></trkpt>
      <trkpt lat="39.16356057896845" lon="-6.273178630276777"><ele>1814</ele><speed>9.36</speed><time>2016-06-01T14:11:58Z</time><pdop>8.0</pdop><geoidheight>50.60</geoidheight><course>231.11174</course><type>1</type></trkpt>
      <trkpt lat="39.16346755433184" lon="-6.273345131618869"><ele>1809</ele><speed>8.96</speed><time>2016-06-01T14:12:00Z</time><pdop>8.0</pdop><geoidheight>50.60</geoidheight><course>233.31107</course><type>1</type></trkpt>
      <trkpt lat="39.16336809207068" lon="-6.273517210428382"><ele>1805</ele><speed>10.29</speed><time>2016-06-01T14:12:02Z</time><pdop>6.0</pdop><geoidheight>50.60</geoidheight><course>229.07997</course><type>1</type></trkpt>
      <trkpt lat="39.16325581265768" lon="-6.273698379513958"><ele>1800</ele><speed>10.86</speed><time>2016-06-01T14:12:04Z</time><pdop>12.0</pdop><geoidheight>50.60</geoidheight><course>230.2507</course><type>1</type></trkpt>
      <trkpt lat="39.16312045741111" lon="-6.273974960029838"><ele>1794</ele><speed>9.09</speed><time>2016-06-01T14:12:08Z</time><pdop>8.0</pdop><geoidheight>50.60</geoidheight><course>233.5221</course><type>1</type></trkpt>
      <trkpt lat="39.163010410977385" lon="-6.274169055603058"><ele>1789</ele><speed>10.82</speed><time>2016-06-01T14:12:09Z</time><pdop>8.0</pdop><geoidheight>50.60</geoidheight><course>230.42834</course><type>1</type></trkpt>
      <trkpt lat="39.162907996277596" lon="-6.274355481665835"><ele>1785</ele><speed>10.06</speed><time>2016-06-01T14:12:11Z</time><pdop>8.0</pdop><geoidheight>50.60</geoidheight><course>232.48676</course><type>1</type></trkpt>
      <trkpt lat="39.16282757173623" lon="-6.274526242113362"><ele>1780</ele><speed>8.72</speed><time>2016-06-01T14:12:13Z</time><pdop>6.0</pdop><geoidheight>50.60</geoidheight><course>233.67921</course><type>1</type></trkpt>
      <trkpt lat="39.16274588435085" lon="-6.274699268452906"><ele>1775</ele><speed>9.56</speed><time>2016-06-01T14:12:15Z</time><pdop>8.0</pdop><geoidheight>50.60</geoidheight><course>235.3317</course><type>1</type></trkpt>
      <trkpt lat="39.16262261456455" lon="-6.274976020483333"><ele>1766</ele><speed>10.83</speed><time>2016-06-01T14:12:18Z</time><pdop>8.0</pdop><geoidheight>50.60</geoidheight><course>236.83934</course><type>1</type></trkpt>
      <trkpt lat="39.1625472659578" lon="-6.275184107557746"><ele>1760</ele><speed>10.40</speed><time>2016-06-01T14:12:21Z</time><pdop>8.0</pdop><geoidheight>50.60</geoidheight><course>241.41678</course><type>1</type></trkpt>
      <trkpt lat="39.16246323100456" lon="-6.275458540651048"><ele>1751</ele><speed>7.80</speed><time>2016-06-01T14:12:23Z</time><pdop>6.0</pdop><geoidheight>50.60</geoidheight><course>244.24107</course><type>1</type></trkpt>
      <trkpt lat="39.16240262974997" lon="-6.275646194441704"><ele>1744</ele><speed>10.36</speed><time>2016-06-01T14:12:25Z</time><pdop>6.0</pdop><geoidheight>50.60</geoidheight><course>242.93077</course><type>1</type></trkpt>
      <trkpt lat="39.16230214571832" lon="-6.275819290988881"><ele>1738</ele><speed>9.61</speed><time>2016-06-01T14:12:27Z</time><pdop>8.0</pdop><geoidheight>50.60</geoidheight><course>223.24876</course><type>1</type></trkpt>
      <trkpt lat="39.162194320827076" lon="-6.2759430911170915"><ele>1734</ele><speed>8.18</speed><time>2016-06-01T14:12:29Z</time><pdop>8.0</pdop><geoidheight>50.60</geoidheight><course>219.59966</course><type>1</type></trkpt>
      <trkpt lat="39.16205643346516" lon="-6.276101640796079"><ele>1725</ele><speed>8.55</speed><time>2016-06-01T14:12:32Z</time><pdop>6.0</pdop><geoidheight>50.60</geoidheight><course>220.05591</course><type>1</type></trkpt>
      <trkpt lat="39.16193412035686" lon="-6.276216500872985"><ele>1718</ele><speed>9.45</speed><time>2016-06-01T14:12:34Z</time><pdop>6.0</pdop><geoidheight>50.60</geoidheight><course>214.0479</course><type>1</type></trkpt>
      <trkpt lat="39.16178217186716" lon="-6.2763440426419566"><ele>1712</ele><speed>10.93</speed><time>2016-06-01T14:12:36Z</time><pdop>12.0</pdop><geoidheight>50.60</geoidheight><course>212.35484</course><type>1</type></trkpt>
      <trkpt lat="39.161563808043894" lon="-6.276497531838019"><ele>1703</ele><speed>9.02</speed><time>2016-06-01T14:12:39Z</time><pdop>8.0</pdop><geoidheight>50.60</geoidheight><course>208.42522</course><type>1</type></trkpt>
      <trkpt lat="39.16143100813669" lon="-6.276592845840236"><ele>1698</ele><speed>9.46</speed><time>2016-06-01T14:12:41Z</time><pdop>6.0</pdop><geoidheight>50.60</geoidheight><course>209.36725</course><type>1</type></trkpt>
      <trkpt lat="39.16124146103976" lon="-6.276668813313463"><ele>1693</ele><speed>12.26</speed><time>2016-06-01T14:12:43Z</time><pdop>8.0</pdop><geoidheight>50.60</geoidheight><course>188.06557</course><type>1</type></trkpt>
      <trkpt lat="39.16103998610385" lon="-6.276706117719763"><ele>1687</ele><speed>10.24</speed><time>2016-06-01T14:12:46Z</time><pdop>8.0</pdop><geoidheight>50.60</geoidheight><course>187.20761</course><type>1</type></trkpt>
      <trkpt lat="39.16087324776366" lon="-6.2767419749306415"><ele>1680</ele><speed>9.50</speed><time>2016-06-01T14:12:47Z</time><pdop>8.0</pdop><geoidheight>50.60</geoidheight><course>190.0203</course><type>1</type></trkpt>
      <trkpt lat="39.160704581743836" lon="-6.276884014751412"><ele>1674</ele><speed>11.97</speed><time>2016-06-01T14:12:49Z</time><pdop>8.0</pdop><geoidheight>50.60</geoidheight><course>220.49463</course><type>1</type></trkpt>
      <trkpt lat="39.160568810389734" lon="-6.27705754328626"><ele>1667</ele><speed>12.40</speed><time>2016-06-01T14:12:51Z</time><pdop>8.0</pdop><geoidheight>50.60</geoidheight><course>224.25418</course><type>1</type></trkpt>
      <trkpt lat="39.16040980677504" lon="-6.2773669477281135"><ele>1657</ele><speed>11.02</speed><time>2016-06-01T14:12:54Z</time><pdop>16.0</pdop><geoidheight>50.60</geoidheight><course>243.98227</course><type>1</type></trkpt>
      <trkpt lat="39.16031816539831" lon="-6.277694210640776"><ele>1648</ele><speed>10.85</speed><time>2016-06-01T14:12:57Z</time><pdop>8.0</pdop><geoidheight>50.60</geoidheight><course>246.01634</course><type>1</type></trkpt>
      <trkpt lat="39.16025404941405" lon="-6.277920324806571"><ele>1640</ele><speed>12.34</speed><time>2016-06-01T14:12:59Z</time><pdop>8.0</pdop><geoidheight>50.60</geoidheight><course>247.42772</course><type>1</type></trkpt>
      <trkpt lat="39.16019894718962" lon="-6.2781248769242595"><ele>1633</ele><speed>10.28</speed><time>2016-06-01T14:13:01Z</time><pdop>8.0</pdop><geoidheight>50.60</geoidheight><course>245.90913</course><type>1</type></trkpt>
      <trkpt lat="39.16014291275292" lon="-6.278304269689701"><ele>1626</ele><speed>9.07</speed><time>2016-06-01T14:13:03Z</time><pdop>6.0</pdop><geoidheight>50.60</geoidheight><course>241.88353</course><type>1</type></trkpt>
      <trkpt lat="39.16005412725576" lon="-6.278526738381643"><ele>1620</ele><speed>11.38</speed><time>2016-06-01T14:13:05Z</time><pdop>12.0</pdop><geoidheight>50.60</geoidheight><course>240.16664</course><type>1</type></trkpt>
      <trkpt lat="39.159961417775904" lon="-6.278739842202598"><ele>1614</ele><speed>11.25</speed><time>2016-06-01T14:13:07Z</time><pdop>8.0</pdop><geoidheight>50.60</geoidheight><course>238.28784</course><type>1</type></trkpt>
      <trkpt lat="39.15986580912728" lon="-6.278948669056851"><ele>1610</ele><speed>11.26</speed><time>2016-06-01T14:13:09Z</time><pdop>8.0</pdop><geoidheight>50.60</geoidheight><course>238.02287</course><type>1</type></trkpt>
      <trkpt lat="39.1597665321689" lon="-6.279156448037077"><ele>1604</ele><speed>11.87</speed><time>2016-06-01T14:13:11Z</time><pdop>6.0</pdop><geoidheight>50.60</geoidheight><course>236.46732</course><type>1</type></trkpt>
      <trkpt lat="39.159648619852526" lon="-6.279349357833445"><ele>1598</ele><speed>11.47</speed><time>2016-06-01T14:13:13Z</time><pdop>8.0</pdop><geoidheight>50.60</geoidheight><course>231.82997</course><type>1</type></trkpt>
      <trkpt lat="39.15951675729519" lon="-6.279523306402118"><ele>1591</ele><speed>11.40</speed><time>2016-06-01T14:13:15Z</time><pdop>8.0</pdop><geoidheight>50.60</geoidheight><course>226.61746</course><type>1</type></trkpt>
      <trkpt lat="39.15938470582021" lon="-6.279691592615092"><ele>1585</ele><speed>10.88</speed><time>2016-06-01T14:13:17Z</time><pdop>12.0</pdop><geoidheight>50.60</geoidheight><course>224.7858</course><type>1</type></trkpt>
      <trkpt lat="39.15916741861415" lon="-6.279943486845045"><ele>1575</ele><speed>11.28</speed><time>2016-06-01T14:13:20Z</time><pdop>8.0</pdop><geoidheight>50.60</geoidheight><course>221.81723</course><type>1</type></trkpt>
      <trkpt lat="39.15902272276508" lon="-6.280091603794282"><ele>1567</ele><speed>11.79</speed><time>2016-06-01T14:13:22Z</time><pdop>8.0</pdop><geoidheight>50.60</geoidheight><course>217.9115</course><type>1</type></trkpt>
      <trkpt lat="39.1588735518759" lon="-6.280236870180592"><ele>1558</ele><speed>11.22</speed><time>2016-06-01T14:13:24Z</time><pdop>8.0</pdop><geoidheight>50.60</geoidheight><course>217.64563</course><type>1</type></trkpt>
      <trkpt lat="39.158718950838484" lon="-6.28039615253385"><ele>1549</ele><speed>11.73</speed><time>2016-06-01T14:13:26Z</time><pdop>12.0</pdop><geoidheight>50.60</geoidheight><course>220.88586</course><type>1</type></trkpt>
      <trkpt lat="39.15856460575679" lon="-6.280560194249103"><ele>1541</ele><speed>11.43</speed><time>2016-06-01T14:13:29Z</time><pdop>8.0</pdop><geoidheight>50.60</geoidheight><course>219.66815</course><type>1</type></trkpt>
      <trkpt lat="39.15841441000197" lon="-6.280720892519376"><ele>1534</ele><speed>12.12</speed><time>2016-06-01T14:13:30Z</time><pdop>8.0</pdop><geoidheight>50.60</geoidheight><course>219.39389</course><type>1</type></trkpt>
      <trkpt lat="39.158258365914705" lon="-6.280890518100519"><ele>1526</ele><speed>13.02</speed><time>2016-06-01T14:13:32Z</time><pdop>12.0</pdop><geoidheight>50.60</geoidheight><course>218.16928</course><type>1</type></trkpt>
      <trkpt lat="39.158020221797194" lon="-6.281121093135681"><ele>1514</ele><speed>11.76</speed><time>2016-06-01T14:13:35Z</time><pdop>12.0</pdop><geoidheight>50.60</geoidheight><course>215.0998</course><type>1</type></trkpt>
      <trkpt lat="39.15786230744084" lon="-6.281276655165855"><ele>1506</ele><speed>12.22</speed><time>2016-06-01T14:13:37Z</time><pdop>8.0</pdop><geoidheight>50.60</geoidheight><course>216.85457</course><type>1</type></trkpt>
      <trkpt lat="39.157700715051824" lon="-6.281443250938971"><ele>1498</ele><speed>12.70</speed><time>2016-06-01T14:13:39Z</time><pdop>8.0</pdop><geoidheight>50.60</geoidheight><course>217.7481</course><type>1</type></trkpt>
      <trkpt lat="39.157540427619246" lon="-6.281640105549322"><ele>1489</ele><speed>12.47</speed><time>2016-06-01T14:13:41Z</time><pdop>6.0</pdop><geoidheight>50.60</geoidheight><course>221.75134</course><type>1</type></trkpt>
      <trkpt lat="39.15740077416826" lon="-6.281844271331764"><ele>1482</ele><speed>11.82</speed><time>2016-06-01T14:13:43Z</time><pdop>6.0</pdop><geoidheight>50.60</geoidheight><course>224.01118</course><type>1</type></trkpt>
      <trkpt lat="39.15726977260767" lon="-6.282036330028549"><ele>1475</ele><speed>11.43</speed><time>2016-06-01T14:13:45Z</time><pdop>8.0</pdop><geoidheight>50.60</geoidheight><course>222.92845</course><type>1</type></trkpt>
      <trkpt lat="39.157117391514156" lon="-6.282249744073828"><ele>1469</ele><speed>12.92</speed><time>2016-06-01T14:13:47Z</time><pdop>8.0</pdop><geoidheight>50.60</geoidheight><course>222.46516</course><type>1</type></trkpt>
      <trkpt lat="39.156960096206895" lon="-6.282452875523938"><ele>1463</ele><speed>12.26</speed><time>2016-06-01T14:13:49Z</time><pdop>6.0</pdop><geoidheight>50.60</geoidheight><course>222.08469</course><type>1</type></trkpt>
      <trkpt lat="39.15682029047808" lon="-6.282643671132794"><ele>1458</ele><speed>11.62</speed><time>2016-06-01T14:13:51Z</time><pdop>8.0</pdop><geoidheight>50.60</geoidheight><course>223.70624</course><type>1</type></trkpt>
      <trkpt lat="39.15668252175274" lon="-6.282829886230782"><ele>1454</ele><speed>11.10</speed><time>2016-06-01T14:13:53Z</time><pdop>6.0</pdop><geoidheight>50.60</geoidheight><course>221.90402</course><type>1</type></trkpt>
      <trkpt lat="39.156536811636606" lon="-6.282995574840874"><ele>1451</ele><speed>11.29</speed><time>2016-06-01T14:13:55Z</time><pdop>6.0</pdop><geoidheight>50.60</geoidheight><course>218.90692</course><type>1</type></trkpt>
      <trkpt lat="39.15638006660366" lon="-6.2831756268549395"><ele>1448</ele><speed>12.34</speed><time>2016-06-01T14:13:57Z</time><pdop>6.0</pdop><geoidheight>50.60</geoidheight><course>220.97498</course><type>1</type></trkpt>
      <trkpt lat="39.15622350480692" lon="-6.2833608442040765"><ele>1445</ele><speed>12.10</speed><time>2016-06-01T14:13:59Z</time><pdop>6.0</pdop><geoidheight>50.60</geoidheight><course>221.05746</course><type>1</type></trkpt>
      <trkpt lat="39.156072440181774" lon="-6.2835530238323525"><ele>1443</ele><speed>11.73</speed><time>2016-06-01T14:14:01Z</time><pdop>6.0</pdop><geoidheight>50.60</geoidheight><course>224.97066</course><type>1</type></trkpt>
      <trkpt lat="39.155961697570994" lon="-6.283792614245796"><ele>1440</ele><speed>12.01</speed><time>2016-06-01T14:14:03Z</time><pdop>6.0</pdop><geoidheight>50.60</geoidheight><course>236.93878</course><type>1</type></trkpt>
      <trkpt lat="39.15583974556579" lon="-6.28401460002355"><ele>1438</ele><speed>11.93</speed><time>2016-06-01T14:14:05Z</time><pdop>6.0</pdop><geoidheight>50.60</geoidheight><course>233.13158</course><type>1</type></trkpt>
      <trkpt lat="39.1557411407825" lon="-6.284260089392689"><ele>1436</ele><speed>13.42</speed><time>2016-06-01T14:14:07Z</time><pdop>6.0</pdop><geoidheight>50.60</geoidheight><course>253.60786</course><type>1</type></trkpt>
      <trkpt lat="39.155688172274694" lon="-6.284509926395519"><ele>1435</ele><speed>10.12</speed><time>2016-06-01T14:14:09Z</time><pdop>8.0</pdop><geoidheight>50.60</geoidheight><course>255.7308</course><type>1</type></trkpt>
      <trkpt lat="39.15563084982288" lon="-6.284731885574472"><ele>1433</ele><speed>10.69</speed><time>2016-06-01T14:14:11Z</time><pdop>8.0</pdop><geoidheight>50.60</geoidheight><course>249.85095</course><type>1</type></trkpt>
      <trkpt lat="39.155556009573" lon="-6.284994139495595"><ele>1431</ele><speed>12.76</speed><time>2016-06-01T14:14:13Z</time><pdop>8.0</pdop><geoidheight>50.60</geoidheight><course>251.4444</course><type>1</type></trkpt>
      <trkpt lat="39.1554917424017" lon="-6.285257091415649"><ele>1430</ele><speed>12.17</speed><time>2016-06-01T14:14:15Z</time><pdop>8.0</pdop><geoidheight>50.60</geoidheight><course>252.74013</course><type>1</type></trkpt>
      <trkpt lat="39.15541657729815" lon="-6.285510492298066"><ele>1430</ele><speed>11.40</speed><time>2016-06-01T14:14:17Z</time><pdop>6.0</pdop><geoidheight>50.60</geoidheight><course>250.16124</course><type>1</type></trkpt>
      <trkpt lat="39.155346259531235" lon="-6.285764121072089"><ele>1429</ele><speed>12.45</speed><time>2016-06-01T14:14:19Z</time><pdop>6.0</pdop><geoidheight>50.60</geoidheight><course>252.90523</course><type>1</type></trkpt>
      <trkpt lat="39.15529301019008" lon="-6.286025187023819"><ele>1428</ele><speed>11.96</speed><time>2016-06-01T14:14:21Z</time><pdop>8.0</pdop><geoidheight>50.60</geoidheight><course>254.53554</course><type>1</type></trkpt>
      <trkpt lat="39.15524338063808" lon="-6.286267371245129"><ele>1426</ele><speed>10.82</speed><time>2016-06-01T14:14:23Z</time><pdop>8.0</pdop><geoidheight>50.60</geoidheight><course>255.41844</course><type>1</type></trkpt>
      <trkpt lat="39.1552133868414" lon="-6.2865210350305"><ele>1424</ele><speed>11.52</speed><time>2016-06-01T14:14:25Z</time><pdop>6.0</pdop><geoidheight>50.60</geoidheight><course>262.57602</course><type>1</type></trkpt>
      <trkpt lat="39.15519988248717" lon="-6.286781861081947"><ele>1422</ele><speed>11.16</speed><time>2016-06-01T14:14:28Z</time><pdop>6.0</pdop><geoidheight>50.60</geoidheight><course>263.48422</course><type>1</type></trkpt>
      <trkpt lat="39.15518918876596" lon="-6.287008804687611"><ele>1421</ele><speed>9.59</speed><time>2016-06-01T14:14:30Z</time><pdop>8.0</pdop><geoidheight>50.60</geoidheight><course>265.68723</course><type>1</type></trkpt>
      <trkpt lat="39.15519392131122" lon="-6.287228089941896"><ele>1419</ele><speed>9.75</speed><time>2016-06-01T14:14:31Z</time><pdop>6.0</pdop><geoidheight>50.60</geoidheight><course>268.84872</course><type>1</type></trkpt>
      <trkpt lat="39.15517560227044" lon="-6.287428783737451"><ele>1418</ele><speed>9.09</speed><time>2016-06-01T14:14:33Z</time><pdop>6.0</pdop><geoidheight>50.60</geoidheight><course>248.59705</course><type>1</type></trkpt>
      <trkpt lat="39.155117579798734" lon="-6.287642261257841"><ele>1417</ele><speed>11.08</speed><time>2016-06-01T14:14:36Z</time><pdop>8.0</pdop><geoidheight>50.60</geoidheight><course>247.27592</course><type>1</type></trkpt>
      <trkpt lat="39.15507336081486" lon="-6.287903497586709"><ele>1414</ele><speed>11.68</speed><time>2016-06-01T14:14:37Z</time><pdop>8.0</pdop><geoidheight>50.60</geoidheight><course>263.76874</course><type>1</type></trkpt>
      <trkpt lat="39.15506955299582" lon="-6.288142095647328"><ele>1410</ele><speed>9.84</speed><time>2016-06-01T14:14:39Z</time><pdop>8.0</pdop><geoidheight>50.60</geoidheight><course>269.2037</course><type>1</type></trkpt>
      <trkpt lat="39.155073522714446" lon="-6.288364233914142"><ele>1407</ele><speed>10.23</speed><time>2016-06-01T14:14:41Z</time><pdop>8.0</pdop><geoidheight>50.60</geoidheight><course>266.91464</course><type>1</type></trkpt>
      <trkpt lat="39.155068427716316" lon="-6.288578167106107"><ele>1402</ele><speed>9.54</speed><time>2016-06-01T14:14:43Z</time><pdop>8.0</pdop><geoidheight>50.60</geoidheight><course>266.41962</course><type>1</type></trkpt>
      <trkpt lat="39.15512541695297" lon="-6.288799113217217"><ele>1396</ele><speed>10.64</speed><time>2016-06-01T14:14:45Z</time><pdop>6.0</pdop><geoidheight>50.60</geoidheight><course>288.24915</course><type>1</type></trkpt>
      <trkpt lat="39.155278250126734" lon="-6.288903275299974"><ele>1390</ele><speed>8.75</speed><time>2016-06-01T14:14:47Z</time><pdop>6.0</pdop><geoidheight>50.60</geoidheight><course>343.87576</course><type>1</type></trkpt>
      <trkpt lat="39.15543053377093" lon="-6.28891097680483"><ele>1384</ele><speed>8.12</speed><time>2016-06-01T14:14:49Z</time><pdop>8.0</pdop><geoidheight>50.60</geoidheight><course>8.329062</course><type>1</type></trkpt>
      <trkpt lat="39.15559640038388" lon="-6.288862022335548"><ele>1378</ele><speed>8.64</speed><time>2016-06-01T14:14:51Z</time><pdop>8.0</pdop><geoidheight>50.60</geoidheight><course>11.212885</course><type>1</type></trkpt>
      <trkpt lat="39.15576270024811" lon="-6.288777500542484"><ele>1370</ele><speed>8.64</speed><time>2016-06-01T14:14:53Z</time><pdop>6.0</pdop><geoidheight>50.60</geoidheight><course>16.178648</course><type>1</type></trkpt>
      <trkpt lat="39.155904552830016" lon="-6.288729839411258"><ele>1363</ele><speed>8.39</speed><time>2016-06-01T14:14:55Z</time><pdop>8.0</pdop><geoidheight>50.60</geoidheight><course>354.7279</course><type>1</type></trkpt>
      <trkpt lat="39.1560432884341" lon="-6.288894400846818"><ele>1356</ele><speed>9.36</speed><time>2016-06-01T14:14:58Z</time><pdop>8.0</pdop><geoidheight>50.60</geoidheight><course>292.76123</course><type>1</type></trkpt>
      <trkpt lat="39.15606462690373" lon="-6.289158747549598"><ele>1349</ele><speed>9.96</speed><time>2016-06-01T14:15:01Z</time><pdop>8.0</pdop><geoidheight>50.60</geoidheight><course>270.37112</course><type>1</type></trkpt>
      <trkpt lat="39.1560595681011" lon="-6.289376854747834"><ele>1344</ele><speed>10.36</speed><time>2016-06-01T14:15:03Z</time><pdop>8.0</pdop><geoidheight>50.60</geoidheight><course>268.30237</course><type>1</type></trkpt>
      <trkpt lat="39.1560659428109" lon="-6.289591218019656"><ele>1339</ele><speed>11.20</speed><time>2016-06-01T14:15:05Z</time><pdop>6.0</pdop><geoidheight>50.60</geoidheight><course>274.262</course><type>1</type></trkpt>
      <trkpt lat="39.15609528651475" lon="-6.289806155727583"><ele>1333</ele><speed>10.92</speed><time>2016-06-01T14:15:07Z</time><pdop>8.0</pdop><geoidheight>50.60</geoidheight><course>276.82315</course><type>1</type></trkpt>
      <trkpt lat="39.15612002602708" lon="-6.290060789064109"><ele>1328</ele><speed>12.33</speed><time>2016-06-01T14:15:09Z</time><pdop>8.0</pdop><geoidheight>50.60</geoidheight><course>274.72217</course><type>1</type></trkpt>
      <trkpt lat="39.156138303395885" lon="-6.290283225115054"><ele>1321</ele><speed>11.41</speed><time>2016-06-01T14:15:11Z</time><pdop>8.0</pdop><geoidheight>50.60</geoidheight><course>271.00293</course><type>1</type></trkpt>
      <trkpt lat="39.156108910398196" lon="-6.290468424839917"><ele>1315</ele><speed>10.33</speed><time>2016-06-01T14:15:13Z</time><pdop>6.0</pdop><geoidheight>50.60</geoidheight><course>255.21397</course><type>1</type></trkpt>
      <trkpt lat="39.15607614568961" lon="-6.290673108836173"><ele>1309</ele><speed>10.67</speed><time>2016-06-01T14:15:15Z</time><pdop>6.0</pdop><geoidheight>50.60</geoidheight><course>256.84454</course><type>1</type></trkpt>
      <trkpt lat="39.15603030850797" lon="-6.290905788967562"><ele>1303</ele><speed>13.03</speed><time>2016-06-01T14:15:17Z</time><pdop>8.0</pdop><geoidheight>50.60</geoidheight><course>252.39496</course><type>1</type></trkpt>
      <trkpt lat="39.15594648768897" lon="-6.291156833761338"><ele>1298</ele><speed>12.15</speed><time>2016-06-01T14:15:19Z</time><pdop>8.0</pdop><geoidheight>50.60</geoidheight><course>245.83873</course><type>1</type></trkpt>
      <trkpt lat="39.15585951964141" lon="-6.291389645998273"><ele>1293</ele><speed>11.43</speed><time>2016-06-01T14:15:21Z</time><pdop>6.0</pdop><geoidheight>50.60</geoidheight><course>245.8221</course><type>1</type></trkpt>
      <trkpt lat="39.1557759629977" lon="-6.291610018831394"><ele>1289</ele><speed>11.83</speed><time>2016-06-01T14:15:23Z</time><pdop>8.0</pdop><geoidheight>50.60</geoidheight><course>243.9356</course><type>1</type></trkpt>
      <trkpt lat="39.15567501749236" lon="-6.291862131606598"><ele>1285</ele><speed>12.79</speed><time>2016-06-01T14:15:25Z</time><pdop>8.0</pdop><geoidheight>50.60</geoidheight><course>244.46037</course><type>1</type></trkpt>
      <trkpt lat="39.155592084471614" lon="-6.2920949734267895"><ele>1281</ele><speed>12.19</speed><time>2016-06-01T14:15:27Z</time><pdop>8.0</pdop><geoidheight>50.60</geoidheight><course>248.14024</course><type>1</type></trkpt>
      <trkpt lat="39.155519636150366" lon="-6.292321719059445"><ele>1276</ele><speed>10.94</speed><time>2016-06-01T14:15:29Z</time><pdop>8.0</pdop><geoidheight>50.60</geoidheight><course>247.60739</course><type>1</type></trkpt>
      <trkpt lat="39.15545160585897" lon="-6.292537819147169"><ele>1270</ele><speed>10.69</speed><time>2016-06-01T14:15:31Z</time><pdop>6.0</pdop><geoidheight>50.60</geoidheight><course>246.78973</course><type>1</type></trkpt>
      <trkpt lat="39.155380498034276" lon="-6.29274558187123"><ele>1265</ele><speed>10.32</speed><time>2016-06-01T14:15:33Z</time><pdop>6.0</pdop><geoidheight>50.60</geoidheight><course>244.64012</course><type>1</type></trkpt>
      <trkpt lat="39.15528959854535" lon="-6.2929535137785"><ele>1261</ele><speed>11.26</speed><time>2016-06-01T14:15:35Z</time><pdop>6.0</pdop><geoidheight>50.60</geoidheight><course>239.72745</course><type>1</type></trkpt>
      <trkpt lat="39.15517613612864" lon="-6.293168773390363"><ele>1256</ele><speed>12.19</speed><time>2016-06-01T14:15:37Z</time><pdop>12.0</pdop><geoidheight>50.60</geoidheight><course>235.96024</course><type>1</type></trkpt>
      <trkpt lat="39.15508066559889" lon="-6.293368410879459"><ele>1251</ele><speed>10.00</speed><time>2016-06-01T14:15:39Z</time><pdop>6.0</pdop><geoidheight>50.60</geoidheight><course>239.71469</course><type>1</type></trkpt>
      <trkpt lat="39.15500171033036" lon="-6.293562110903841"><ele>1248</ele><speed>9.83</speed><time>2016-06-01T14:15:41Z</time><pdop>6.0</pdop><geoidheight>50.60</geoidheight><course>240.95996</course><type>1</type></trkpt>
      <trkpt lat="39.15492130221087" lon="-6.2937667279980225"><ele>1246</ele><speed>10.58</speed><time>2016-06-01T14:15:43Z</time><pdop>6.0</pdop><geoidheight>50.60</geoidheight><course>244.46802</course><type>1</type></trkpt>
      <trkpt lat="39.15485972564898" lon="-6.293976346410218"><ele>1244</ele><speed>9.45</speed><time>2016-06-01T14:15:45Z</time><pdop>6.0</pdop><geoidheight>50.60</geoidheight><course>248.67789</course><type>1</type></trkpt>
      <trkpt lat="39.15480260342553" lon="-6.29416899505119"><ele>1241</ele><speed>9.32</speed><time>2016-06-01T14:15:47Z</time><pdop>6.0</pdop><geoidheight>50.60</geoidheight><course>246.99881</course><type>1</type></trkpt>
      <trkpt lat="39.15474541630144" lon="-6.2943525358748555"><ele>1237</ele><speed>8.46</speed><time>2016-06-01T14:15:49Z</time><pdop>6.0</pdop><geoidheight>50.60</geoidheight><course>247.37865</course><type>1</type></trkpt>
      <trkpt lat="39.154684612131696" lon="-6.294544101535419"><ele>1233</ele><speed>10.67</speed><time>2016-06-01T14:15:51Z</time><pdop>6.0</pdop><geoidheight>50.60</geoidheight><course>246.08014</course><type>1</type></trkpt>
      <trkpt lat="39.15461439205202" lon="-6.294778961395862"><ele>1229</ele><speed>11.47</speed><time>2016-06-01T14:15:53Z</time><pdop>8.0</pdop><geoidheight>50.60</geoidheight><course>249.59808</course><type>1</type></trkpt>
      <trkpt lat="39.15456507255798" lon="-6.295006476442536"><ele>1225</ele><speed>9.35</speed><time>2016-06-01T14:15:55Z</time><pdop>6.0</pdop><geoidheight>50.60</geoidheight><course>254.15001</course><type>1</type></trkpt>
      <trkpt lat="39.154520712644576" lon="-6.295216092483686"><ele>1221</ele><speed>9.96</speed><time>2016-06-01T14:15:58Z</time><pdop>8.0</pdop><geoidheight>50.60</geoidheight><course>252.31528</course><type>1</type></trkpt>
      <trkpt lat="39.15445617807794" lon="-6.295490455907662"><ele>1217</ele><speed>13.62</speed><time>2016-06-01T14:15:59Z</time><pdop>8.0</pdop><geoidheight>50.60</geoidheight><course>254.20169</course><type>1</type></trkpt>
      <trkpt lat="39.15441054652586" lon="-6.295725968679982"><ele>1212</ele><speed>10.76</speed><time>2016-06-01T14:16:01Z</time><pdop>8.0</pdop><geoidheight>50.60</geoidheight><course>256.4713</course><type>1</type></trkpt>
      <trkpt lat="39.15437857535321" lon="-6.295917861636017"><ele>1208</ele><speed>9.12</speed><time>2016-06-01T14:16:03Z</time><pdop>8.0</pdop><geoidheight>50.60</geoidheight><course>255.06216</course><type>1</type></trkpt>
      <trkpt lat="39.15430921742361" lon="-6.296204485176106"><ele>1201</ele><speed>11.44</speed><time>2016-06-01T14:16:06Z</time><pdop>12.0</pdop><geoidheight>50.60</geoidheight><course>252.20805</course><type>1</type></trkpt>
      <trkpt lat="39.1542545858583" lon="-6.296543901447184"><ele>1195</ele><speed>9.63</speed><time>2016-06-01T14:16:09Z</time><pdop>8.0</pdop><geoidheight>50.60</geoidheight><course>255.20915</course><type>1</type></trkpt>
      <trkpt lat="39.154175889915535" lon="-6.296727736568846"><ele>1192</ele><speed>10.13</speed><time>2016-06-01T14:16:12Z</time><pdop>8.0</pdop><geoidheight>50.60</geoidheight><course>237.91753</course><type>1</type></trkpt>
      <trkpt lat="39.154136078527046" lon="-6.29694997221754"><ele>1189</ele><speed>10.23</speed><time>2016-06-01T14:16:14Z</time><pdop>8.0</pdop><geoidheight>50.60</geoidheight><course>259.4111</course><type>1</type></trkpt>
      <trkpt lat="39.154112841787565" lon="-6.297168758262357"><ele>1188</ele><speed>9.36</speed><time>2016-06-01T14:16:15Z</time><pdop>8.0</pdop><geoidheight>50.60</geoidheight><course>257.53223</course><type>1</type></trkpt>
      <trkpt lat="39.15405622871724" lon="-6.297490666131064"><ele>1190</ele><speed>10.13</speed><time>2016-06-01T14:16:18Z</time><pdop>6.0</pdop><geoidheight>50.60</geoidheight><course>258.86038</course><type>1</type></trkpt>
      <trkpt lat="39.15402200431783" lon="-6.297730260968656"><ele>1191</ele><speed>10.11</speed><time>2016-06-01T14:16:20Z</time><pdop>6.0</pdop><geoidheight>50.60</geoidheight><course>258.60538</course><type>1</type></trkpt>
      <trkpt lat="39.153988713288946" lon="-6.297937350692017"><ele>1192</ele><speed>8.10</speed><time>2016-06-01T14:16:22Z</time><pdop>8.0</pdop><geoidheight>50.60</geoidheight><course>259.6852</course><type>1</type></trkpt>
      <trkpt lat="39.15396475010998" lon="-6.298205685376167"><ele>1190</ele><speed>8.65</speed><time>2016-06-01T14:16:26Z</time><pdop>8.0</pdop><geoidheight>50.60</geoidheight><course>265.7884</course><type>1</type></trkpt>
      <trkpt lat="39.154024318258806" lon="-6.2984636144296156"><ele>1189</ele><speed>7.50</speed><time>2016-06-01T14:16:28Z</time><pdop>6.0</pdop><geoidheight>50.60</geoidheight><course>296.16833</course><type>1</type></trkpt>
      <trkpt lat="39.15412270354752" lon="-6.298658464891724"><ele>1191</ele><speed>5.80</speed><time>2016-06-01T14:16:31Z</time><pdop>12.0</pdop><geoidheight>50.60</geoidheight><course>314.83536</course><type>1</type></trkpt>
      <trkpt lat="39.154301209502464" lon="-6.2987666366420365"><ele>1191</ele><speed>8.30</speed><time>2016-06-01T14:16:34Z</time><pdop>6.0</pdop><geoidheight>50.60</geoidheight><course>352.08102</course><type>1</type></trkpt>
      <trkpt lat="39.154443247111665" lon="-6.2987294185113"><ele>1190</ele><speed>7.90</speed><time>2016-06-01T14:16:36Z</time><pdop>6.0</pdop><geoidheight>50.60</geoidheight><course>22.883207</course><type>1</type></trkpt>
      <trkpt lat="39.15455402734878" lon="-6.298662196182515"><ele>1191</ele><speed>6.93</speed><time>2016-06-01T14:16:38Z</time><pdop>6.0</pdop><geoidheight>50.60</geoidheight><course>28.988646</course><type>1</type></trkpt>
      <trkpt lat="39.15463957117782" lon="-6.298458546132783"><ele>1194</ele><speed>6.57</speed><time>2016-06-01T14:16:41Z</time><pdop>6.0</pdop><geoidheight>50.60</geoidheight><course>79.51073</course><type>1</type></trkpt>
      <trkpt lat="39.154567567181786" lon="-6.298258273946395"><ele>1199</ele><speed>9.58</speed><time>2016-06-01T14:16:44Z</time><pdop>8.0</pdop><geoidheight>50.60</geoidheight><course>132.99521</course><type>1</type></trkpt>
      <trkpt lat="39.154433251336734" lon="-6.298166089245987"><ele>1202</ele><speed>9.94</speed><time>2016-06-01T14:16:46Z</time><pdop>8.0</pdop><geoidheight>50.60</geoidheight><course>151.13931</course><type>1</type></trkpt>
      <trkpt lat="39.15427176968388" lon="-6.298255902572606"><ele>1202</ele><speed>11.69</speed><time>2016-06-01T14:16:48Z</time><pdop>8.0</pdop><geoidheight>50.60</geoidheight><course>219.03528</course><type>1</type></trkpt>
      <trkpt lat="39.154159335256544" lon="-6.298442107574013"><ele>1201</ele><speed>9.02</speed><time>2016-06-01T14:16:50Z</time><pdop>8.0</pdop><geoidheight>50.60</geoidheight><course>240.55795</course><type>1</type></trkpt>
      <trkpt lat="39.15406937007772" lon="-6.298676694381757"><ele>1199</ele><speed>9.13</speed><time>2016-06-01T14:16:54Z</time><pdop>8.0</pdop><geoidheight>50.60</geoidheight><course>248.80916</course><type>1</type></trkpt>
      <trkpt lat="39.154091687504234" lon="-6.298899899046769"><ele>1199</ele><speed>9.97</speed><time>2016-06-01T14:16:55Z</time><pdop>8.0</pdop><geoidheight>50.60</geoidheight><course>288.3489</course><type>1</type></trkpt>
      <trkpt lat="39.15416385988572" lon="-6.299088678023117"><ele>1200</ele><speed>8.60</speed><time>2016-06-01T14:16:57Z</time><pdop>6.0</pdop><geoidheight>50.60</geoidheight><course>312.44775</course><type>1</type></trkpt>
      <trkpt lat="39.15425929135364" lon="-6.299231459562585"><ele>1203</ele><speed>7.45</speed><time>2016-06-01T14:16:59Z</time><pdop>6.0</pdop><geoidheight>50.60</geoidheight><course>315.53302</course><type>1</type></trkpt>
      <trkpt lat="39.15439447654966" lon="-6.299385896690111"><ele>1206</ele><speed>6.00</speed><time>2016-06-01T14:17:02Z</time><pdop>12.0</pdop><geoidheight>50.60</geoidheight><course>334.34955</course><type>1</type></trkpt>
      <trkpt lat="39.154582699015705" lon="-6.299435181459128"><ele>1209</ele><speed>7.88</speed><time>2016-06-01T14:17:05Z</time><pdop>8.0</pdop><geoidheight>50.60</geoidheight><course>355.8597</course><type>1</type></trkpt>
      <trkpt lat="39.15473804547108" lon="-6.29944348562087"><ele>1210</ele><speed>8.82</speed><time>2016-06-01T14:17:08Z</time><pdop>8.0</pdop><geoidheight>50.60</geoidheight><course>356.23666</course><type>1</type></trkpt>
      <trkpt lat="39.15491288224125" lon="-6.299480127149872"><ele>1211</ele><speed>9.20</speed><time>2016-06-01T14:17:09Z</time><pdop>6.0</pdop><geoidheight>50.60</geoidheight><course>349.78296</course><type>1</type></trkpt>
      <trkpt lat="39.15506171945373" lon="-6.299516900807783"><ele>1214</ele><speed>7.58</speed><time>2016-06-01T14:17:11Z</time><pdop>8.0</pdop><geoidheight>50.60</geoidheight><course>352.23245</course><type>1</type></trkpt>
      <trkpt lat="39.15523698968916" lon="-6.299467357823104"><ele>1218</ele><speed>6.95</speed><time>2016-06-01T14:17:14Z</time><pdop>6.0</pdop><geoidheight>50.60</geoidheight><course>22.664251</course><type>1</type></trkpt>
      <trkpt lat="39.15535103672475" lon="-6.299318067949561"><ele>1223</ele><speed>6.87</speed><time>2016-06-01T14:17:17Z</time><pdop>6.0</pdop><geoidheight>50.60</geoidheight><course>58.081516</course><type>1</type></trkpt>
      <trkpt lat="39.155352346073" lon="-6.29917471540976"><ele>1227</ele><speed>6.87</speed><time>2016-06-01T14:17:19Z</time><pdop>6.0</pdop><geoidheight>50.60</geoidheight><course>105.43534</course><type>1</type></trkpt>
      <trkpt lat="39.15517293106154" lon="-6.299008771355053"><ele>1232</ele><speed>10.05</speed><time>2016-06-01T14:17:23Z</time><pdop>8.0</pdop><geoidheight>50.60</geoidheight><course>168.86404</course><type>1</type></trkpt>
      <trkpt lat="39.15497348026636" lon="-6.2991133046338055"><ele>1235</ele><speed>8.88</speed><time>2016-06-01T14:17:25Z</time><pdop>8.0</pdop><geoidheight>50.60</geoidheight><course>227.5532</course><type>1</type></trkpt>
      <trkpt lat="39.15488447810158" lon="-6.299275017946983"><ele>1237</ele><speed>9.51</speed><time>2016-06-01T14:17:27Z</time><pdop>8.0</pdop><geoidheight>50.60</geoidheight><course>242.51996</course><type>1</type></trkpt>
      <trkpt lat="39.15486393678266" lon="-6.29946388339049"><ele>1238</ele><speed>9.36</speed><time>2016-06-01T14:17:29Z</time><pdop>8.0</pdop><geoidheight>50.60</geoidheight><course>276.87</course><type>1</type></trkpt>
      <trkpt lat="39.15496540896092" lon="-6.29961021771259"><ele>1240</ele><speed>10.38</speed><time>2016-06-01T14:17:32Z</time><pdop>8.0</pdop><geoidheight>50.60</geoidheight><course>326.54578</course><type>1</type></trkpt>
      <trkpt lat="39.15511413822379" lon="-6.299687895190433"><ele>1245</ele><speed>8.49</speed><time>2016-06-01T14:17:33Z</time><pdop>8.0</pdop><geoidheight>50.60</geoidheight><course>344.9155</course><type>1</type></trkpt>
      <trkpt lat="39.15528366923918" lon="-6.299723018631089"><ele>1251</ele><speed>6.37</speed><time>2016-06-01T14:17:36Z</time><pdop>8.0</pdop><geoidheight>50.60</geoidheight><course>17.564884</course><type>1</type></trkpt>
      <trkpt lat="39.155371729667124" lon="-6.299579460591362"><ele>1257</ele><speed>7.74</speed><time>2016-06-01T14:17:39Z</time><pdop>6.0</pdop><geoidheight>50.60</geoidheight><course>80.986374</course><type>1</type></trkpt>
      <trkpt lat="39.155293366964365" lon="-6.299330599627074"><ele>1260</ele><speed>9.51</speed><time>2016-06-01T14:17:43Z</time><pdop>8.0</pdop><geoidheight>50.60</geoidheight><course>130.19203</course><type>1</type></trkpt>
      <trkpt lat="39.155129758752544" lon="-6.299195612295541"><ele>1261</ele><speed>10.86</speed><time>2016-06-01T14:17:44Z</time><pdop>8.0</pdop><geoidheight>50.60</geoidheight><course>157.48935</course><type>1</type></trkpt>
      <trkpt lat="39.154978872379786" lon="-6.299195684202683"><ele>1262</ele><speed>8.29</speed><time>2016-06-01T14:17:46Z</time><pdop>8.0</pdop><geoidheight>50.60</geoidheight><course>192.11943</course><type>1</type></trkpt>
      <trkpt lat="39.15480104593694" lon="-6.299353785603123"><ele>1264</ele><speed>9.04</speed><time>2016-06-01T14:17:49Z</time><pdop>8.0</pdop><geoidheight>50.60</geoidheight><course>228.48405</course><type>1</type></trkpt>
      <trkpt lat="39.154738252255804" lon="-6.299560926295333"><ele>1264</ele><speed>11.23</speed><time>2016-06-01T14:17:52Z</time><pdop>8.0</pdop><geoidheight>50.60</geoidheight><course>248.9611</course><type>1</type></trkpt>
      <trkpt lat="39.15473625840062" lon="-6.299797916882378"><ele>1265</ele><speed>9.46</speed><time>2016-06-01T14:17:53Z</time><pdop>8.0</pdop><geoidheight>50.60</geoidheight><course>278.723</course><type>1</type></trkpt>
      <trkpt lat="39.15480441198626" lon="-6.299963287237621"><ele>1267</ele><speed>8.51</speed><time>2016-06-01T14:17:56Z</time><pdop>8.0</pdop><geoidheight>50.60</geoidheight><course>303.64273</course><type>1</type></trkpt>
      <trkpt lat="39.154935951862626" lon="-6.300079263658434"><ele>1270</ele><speed>9.64</speed><time>2016-06-01T14:17:57Z</time><pdop>6.0</pdop><geoidheight>50.60</geoidheight><course>328.5659</course><type>1</type></trkpt>
      <trkpt lat="39.15510946294813" lon="-6.300104457895439"><ele>1273</ele><speed>9.22</speed><time>2016-06-01T14:17:59Z</time><pdop>6.0</pdop><geoidheight>50.60</geoidheight><course>3.2214952</course><type>1</type></trkpt>
      <trkpt lat="39.15524134030583" lon="-6.300078695555786"><ele>1277</ele><speed>7.26</speed><time>2016-06-01T14:18:01Z</time><pdop>8.0</pdop><geoidheight>50.60</geoidheight><course>20.601044</course><type>1</type></trkpt>
      <trkpt lat="39.155325095963946" lon="-6.299923156805262"><ele>1279</ele><speed>6.87</speed><time>2016-06-01T14:18:04Z</time><pdop>8.0</pdop><geoidheight>50.60</geoidheight><course>79.04612</course><type>1</type></trkpt>
      <trkpt lat="39.15537045602538" lon="-6.299708545231152"><ele>1281</ele><speed>6.20</speed><time>2016-06-01T14:18:07Z</time><pdop>6.0</pdop><geoidheight>50.60</geoidheight><course>80.964325</course><type>1</type></trkpt>
      <trkpt lat="39.15531879308506" lon="-6.299564937854618"><ele>1282</ele><speed>8.57</speed><time>2016-06-01T14:18:09Z</time><pdop>6.0</pdop><geoidheight>50.60</geoidheight><course>127.757256</course><type>1</type></trkpt>
      <trkpt lat="39.155210874712374" lon="-6.2994568529617965"><ele>1283</ele><speed>7.96</speed><time>2016-06-01T14:18:12Z</time><pdop>8.0</pdop><geoidheight>50.60</geoidheight><course>150.75343</course><type>1</type></trkpt>
      <trkpt lat="39.1550730031467" lon="-6.29942094481296"><ele>1284</ele><speed>8.13</speed><time>2016-06-01T14:18:13Z</time><pdop>6.0</pdop><geoidheight>50.60</geoidheight><course>178.11597</course><type>1</type></trkpt>
      <trkpt lat="39.1549154196311" lon="-6.299485752421478"><ele>1286</ele><speed>10.86</speed><time>2016-06-01T14:18:16Z</time><pdop>6.0</pdop><geoidheight>50.60</geoidheight><course>207.59758</course><type>1</type></trkpt>
      <trkpt lat="39.154760577680406" lon="-6.299587184229014"><ele>1289</ele><speed>9.07</speed><time>2016-06-01T14:18:17Z</time><pdop>6.0</pdop><geoidheight>50.60</geoidheight><course>210.84232</course><type>1</type></trkpt>
      <trkpt lat="39.15461705141913" lon="-6.299678758905257"><ele>1292</ele><speed>9.15</speed><time>2016-06-01T14:18:19Z</time><pdop>8.0</pdop><geoidheight>50.60</geoidheight><course>210.8264</course><type>1</type></trkpt>
      <trkpt lat="39.15452377890334" lon="-6.299851223783057"><ele>1293</ele><speed>10.10</speed><time>2016-06-01T14:18:21Z</time><pdop>8.0</pdop><geoidheight>50.60</geoidheight><course>251.01338</course><type>1</type></trkpt>
      <trkpt lat="39.154552926625165" lon="-6.300094463436014"><ele>1295</ele><speed>11.46</speed><time>2016-06-01T14:18:24Z</time><pdop>8.0</pdop><geoidheight>50.60</geoidheight><course>293.45178</course><type>1</type></trkpt>
      <trkpt lat="39.15467685436551" lon="-6.300217091088525"><ele>1296</ele><speed>9.06</speed><time>2016-06-01T14:18:26Z</time><pdop>8.0</pdop><geoidheight>50.60</geoidheight><course>325.83173</course><type>1</type></trkpt>
      <trkpt lat="39.15488380516013" lon="-6.300236635514986"><ele>1298</ele><speed>8.72</speed><time>2016-06-01T14:18:28Z</time><pdop>12.0</pdop><geoidheight>50.60</geoidheight><course>14.903413</course><type>1</type></trkpt>
      <trkpt lat="39.15498354934158" lon="-6.299983937170184"><ele>1298</ele><speed>6.84</speed><time>2016-06-01T14:18:32Z</time><pdop>8.0</pdop><geoidheight>50.60</geoidheight><course>107.80746</course><type>1</type></trkpt>
      <trkpt lat="39.154922718817865" lon="-6.299765152566705"><ele>1301</ele><speed>6.58</speed><time>2016-06-01T14:18:35Z</time><pdop>6.0</pdop><geoidheight>50.60</geoidheight><course>113.5235</course><type>1</type></trkpt>
      <trkpt lat="39.15478304526488" lon="-6.299675064051335"><ele>1303</ele><speed>9.38</speed><time>2016-06-01T14:18:37Z</time><pdop>6.0</pdop><geoidheight>50.60</geoidheight><course>169.34416</course><type>1</type></trkpt>
      <trkpt lat="39.15461356458279" lon="-6.299743498938746"><ele>1304</ele><speed>10.59</speed><time>2016-06-01T14:18:39Z</time><pdop>8.0</pdop><geoidheight>50.60</geoidheight><course>208.9122</course><type>1</type></trkpt>
      <trkpt lat="39.154454818604215" lon="-6.299850701017447"><ele>1305</ele><speed>8.89</speed><time>2016-06-01T14:18:41Z</time><pdop>6.0</pdop><geoidheight>50.60</geoidheight><course>216.3057</course><type>1</type></trkpt>
      <trkpt lat="39.15436747696262" lon="-6.300003608083443"><ele>1307</ele><speed>8.09</speed><time>2016-06-01T14:18:44Z</time><pdop>8.0</pdop><geoidheight>50.60</geoidheight><course>237.67918</course><type>1</type></trkpt>
      <trkpt lat="39.15436771530306" lon="-6.300209685783518"><ele>1308</ele><speed>9.69</speed><time>2016-06-01T14:18:45Z</time><pdop>8.0</pdop><geoidheight>50.60</geoidheight><course>279.49997</course><type>1</type></trkpt>
      <trkpt lat="39.15445484117307" lon="-6.300408234813028"><ele>1311</ele><speed>10.13</speed><time>2016-06-01T14:18:48Z</time><pdop>8.0</pdop><geoidheight>50.60</geoidheight><course>313.11136</course><type>1</type></trkpt>
      <trkpt lat="39.15459397245711" lon="-6.300538190533179"><ele>1313</ele><speed>9.75</speed><time>2016-06-01T14:18:49Z</time><pdop>6.0</pdop><geoidheight>50.60</geoidheight><course>331.12503</course><type>1</type></trkpt>
      <trkpt lat="39.154710156775536" lon="-6.300546806540949"><ele>1315</ele><speed>6.97</speed><time>2016-06-01T14:18:51Z</time><pdop>6.0</pdop><geoidheight>50.60</geoidheight><course>18.192059</course><type>1</type></trkpt>
      <trkpt lat="39.15484456885061" lon="-6.3003845391456155"><ele>1316</ele><speed>7.97</speed><time>2016-06-01T14:18:55Z</time><pdop>12.0</pdop><geoidheight>50.60</geoidheight><course>53.699226</course><type>1</type></trkpt>
      <trkpt lat="39.15497263606895" lon="-6.3000915098328445"><ele>1312</ele><speed>6.11</speed><time>2016-06-01T14:18:58Z</time><pdop>16.0</pdop><geoidheight>50.60</geoidheight><course>82.19875</course><type>1</type></trkpt>
      <trkpt lat="39.15477508646242" lon="-6.299908211498772"><ele>1311</ele><speed>10.58</speed><time>2016-06-01T14:19:03Z</time><pdop>8.0</pdop><geoidheight>50.60</geoidheight><course>176.8599</course><type>1</type></trkpt>
      <trkpt lat="39.15458822530323" lon="-6.299958170976214"><ele>1312</ele><speed>10.04</speed><time>2016-06-01T14:19:04Z</time><pdop>8.0</pdop><geoidheight>50.60</geoidheight><course>195.05461</course><type>1</type></trkpt>
      <trkpt lat="39.15443113277004" lon="-6.300052552534306"><ele>1314</ele><speed>9.13</speed><time>2016-06-01T14:19:06Z</time><pdop>6.0</pdop><geoidheight>50.60</geoidheight><course>215.2474</course><type>1</type></trkpt>
      <trkpt lat="39.15432816867202" lon="-6.300159767219125"><ele>1314</ele><speed>7.38</speed><time>2016-06-01T14:19:09Z</time><pdop>6.0</pdop><geoidheight>50.60</geoidheight><course>221.6275</course><type>1</type></trkpt>
      <trkpt lat="39.15423812002067" lon="-6.300338394479271"><ele>1316</ele><speed>9.59</speed><time>2016-06-01T14:19:11Z</time><pdop>8.0</pdop><geoidheight>50.60</geoidheight><course>238.31754</course><type>1</type></trkpt>
      <trkpt lat="39.154218544235746" lon="-6.30055616293765"><ele>1317</ele><speed>10.11</speed><time>2016-06-01T14:19:12Z</time><pdop>8.0</pdop><geoidheight>50.60</geoidheight><course>274.20105</course><type>1</type></trkpt>
      <trkpt lat="39.15428180625792" lon="-6.30071766587338"><ele>1318</ele><speed>9.07</speed><time>2016-06-01T14:19:14Z</time><pdop>6.0</pdop><geoidheight>50.60</geoidheight><course>311.42526</course><type>1</type></trkpt>
      <trkpt lat="39.15441648497742" lon="-6.300838781458627"><ele>1318</ele><speed>9.93</speed><time>2016-06-01T14:19:16Z</time><pdop>6.0</pdop><geoidheight>50.60</geoidheight><course>329.9632</course><type>1</type></trkpt>
      <trkpt lat="39.15455231658528" lon="-6.300935166634197"><ele>1317</ele><speed>6.78</speed><time>2016-06-01T14:19:18Z</time><pdop>6.0</pdop><geoidheight>50.60</geoidheight><course>331.84644</course><type>1</type></trkpt>
      <trkpt lat="39.154726147212564" lon="-6.300927743557886"><ele>1316</ele><speed>7.51</speed><time>2016-06-01T14:19:21Z</time><pdop>12.0</pdop><geoidheight>50.60</geoidheight><course>353.1047</course><type>1</type></trkpt>
      <trkpt lat="39.15492689196247" lon="-6.300636232233066"><ele>1313</ele><speed>5.35</speed><time>2016-06-01T14:19:25Z</time><pdop>8.0</pdop><geoidheight>50.60</geoidheight><course>76.19428</course><type>1</type></trkpt>
      <trkpt lat="39.15499474330034" lon="-6.30039064946066"><ele>1310</ele><speed>8.71</speed><time>2016-06-01T14:19:28Z</time><pdop>8.0</pdop><geoidheight>50.60</geoidheight><course>76.505684</course><type>1</type></trkpt>
      <trkpt lat="39.155030438353826" lon="-6.300209764836827"><ele>1308</ele><speed>7.92</speed><time>2016-06-01T14:19:30Z</time><pdop>8.0</pdop><geoidheight>50.60</geoidheight><course>77.40418</course><type>1</type></trkpt>
      <trkpt lat="39.1550622251937" lon="-6.299974477487905"><ele>1304</ele><speed>8.57</speed><time>2016-06-01T14:19:33Z</time><pdop>8.0</pdop><geoidheight>50.60</geoidheight><course>79.988144</course><type>1</type></trkpt>
      <trkpt lat="39.15508754261983" lon="-6.299772545023345"><ele>1301</ele><speed>9.47</speed><time>2016-06-01T14:19:35Z</time><pdop>8.0</pdop><geoidheight>50.60</geoidheight><course>80.47513</course><type>1</type></trkpt>
      <trkpt lat="39.15511857556174" lon="-6.299560268727708"><ele>1300</ele><speed>9.17</speed><time>2016-06-01T14:19:38Z</time><pdop>8.0</pdop><geoidheight>50.60</geoidheight><course>80.08235</course><type>1</type></trkpt>
      <trkpt lat="39.15516111492674" lon="-6.299367731316182"><ele>1299</ele><speed>8.84</speed><time>2016-06-01T14:19:39Z</time><pdop>8.0</pdop><geoidheight>50.60</geoidheight><course>76.538536</course><type>1</type></trkpt>
      <trkpt lat="39.15519777631449" lon="-6.29914958667832"><ele>1297</ele><speed>10.41</speed><time>2016-06-01T14:19:41Z</time><pdop>6.0</pdop><geoidheight>50.60</geoidheight><course>81.50699</course><type>1</type></trkpt>
      <trkpt lat="39.15523975205099" lon="-6.298849375856574"><ele>1295</ele><speed>7.82</speed><time>2016-06-01T14:19:44Z</time><pdop>16.0</pdop><geoidheight>50.60</geoidheight><course>79.114685</course><type>1</type></trkpt>
      <trkpt lat="39.155276382895686" lon="-6.2984724034885975"><ele>1293</ele><speed>9.05</speed><time>2016-06-01T14:19:48Z</time><pdop>16.0</pdop><geoidheight>50.60</geoidheight><course>83.547356</course><type>1</type></trkpt>
      <trkpt lat="39.15533593944838" lon="-6.2981466203974215"><ele>1289</ele><speed>10.50</speed><time>2016-06-01T14:19:51Z</time><pdop>8.0</pdop><geoidheight>50.60</geoidheight><course>65.2001</course><type>1</type></trkpt>
      <trkpt lat="39.15545001408971" lon="-6.297890126917332"><ele>1283</ele><speed>8.73</speed><time>2016-06-01T14:19:54Z</time><pdop>16.0</pdop><geoidheight>50.60</geoidheight><course>61.283485</course><type>1</type></trkpt>
      <trkpt lat="39.15558276112913" lon="-6.297490744363746"><ele>1274</ele><speed>9.89</speed><time>2016-06-01T14:19:58Z</time><pdop>16.0</pdop><geoidheight>50.60</geoidheight><course>69.20833</course><type>1</type></trkpt>
      <trkpt lat="39.155659023716346" lon="-6.297061462042319"><ele>1266</ele><speed>9.62</speed><time>2016-06-01T14:20:02Z</time><pdop>16.0</pdop><geoidheight>50.60</geoidheight><course>76.032936</course><type>1</type></trkpt>
      <trkpt lat="39.1557266360156" lon="-6.29665308563764"><ele>1258</ele><speed>11.16</speed><time>2016-06-01T14:20:06Z</time><pdop>16.0</pdop><geoidheight>50.60</geoidheight><course>74.550705</course><type>1</type></trkpt>
      <trkpt lat="39.155820503959454" lon="-6.296183036197831"><ele>1249</ele><speed>9.62</speed><time>2016-06-01T14:20:10Z</time><pdop>16.0</pdop><geoidheight>50.60</geoidheight><course>77.37631</course><type>1</type></trkpt>
      <trkpt lat="39.15589409579396" lon="-6.295734300213279"><ele>1243</ele><speed>12.54</speed><time>2016-06-01T14:20:14Z</time><pdop>16.0</pdop><geoidheight>50.60</geoidheight><course>76.66347</course><type>1</type></trkpt>
      <trkpt lat="39.15592812378957" lon="-6.29536907008855"><ele>1237</ele><speed>9.19</speed><time>2016-06-01T14:20:17Z</time><pdop>12.0</pdop><geoidheight>50.60</geoidheight><course>80.507225</course><type>1</type></trkpt>
      <trkpt lat="39.15596268401535" lon="-6.295031426592664"><ele>1234</ele><speed>10.23</speed><time>2016-06-01T14:20:20Z</time><pdop>8.0</pdop><geoidheight>50.60</geoidheight><course>76.825485</course><type>1</type></trkpt>
      <trkpt lat="39.155994463910396" lon="-6.2947963193611285"><ele>1231</ele><speed>10.23</speed><time>2016-06-01T14:20:22Z</time><pdop>8.0</pdop><geoidheight>50.60</geoidheight><course>74.602684</course><type>1</type></trkpt>
      <trkpt lat="39.15603922297047" lon="-6.294609491854986"><ele>1228</ele><speed>8.25</speed><time>2016-06-01T14:20:24Z</time><pdop>8.0</pdop><geoidheight>50.60</geoidheight><course>68.60282</course><type>1</type></trkpt>
      <trkpt lat="39.156129584903866" lon="-6.294348322044596"><ele>1218</ele><speed>9.75</speed><time>2016-06-01T14:20:27Z</time><pdop>12.0</pdop><geoidheight>50.60</geoidheight><course>70.21457</course><type>1</type></trkpt>
      <trkpt lat="39.156257866122075" lon="-6.294010174973987"><ele>1208</ele><speed>7.57</speed><time>2016-06-01T14:20:31Z</time><pdop>16.0</pdop><geoidheight>50.60</geoidheight><course>68.49776</course><type>1</type></trkpt>
      <trkpt lat="39.156342239818215" lon="-6.29369400963977"><ele>1203</ele><speed>11.49</speed><time>2016-06-01T14:20:34Z</time><pdop>8.0</pdop><geoidheight>50.60</geoidheight><course>71.52855</course><type>1</type></trkpt>
      <trkpt lat="39.15642001829988" lon="-6.293354152301653"><ele>1198</ele><speed>10.04</speed><time>2016-06-01T14:20:38Z</time><pdop>16.0</pdop><geoidheight>50.60</geoidheight><course>74.351204</course><type>1</type></trkpt>
      <trkpt lat="39.156485074117526" lon="-6.293035968804713"><ele>1196</ele><speed>9.09</speed><time>2016-06-01T14:20:40Z</time><pdop>12.0</pdop><geoidheight>50.60</geoidheight><course>71.35997</course><type>1</type></trkpt>
      <trkpt lat="39.15657604810945" lon="-6.292684433649309"><ele>1193</ele><speed>7.16</speed><time>2016-06-01T14:20:45Z</time><pdop>16.0</pdop><geoidheight>50.60</geoidheight><course>72.53042</course><type>1</type></trkpt>
      <trkpt lat="39.15662990881031" lon="-6.292353756460918"><ele>1192</ele><speed>7.86</speed><time>2016-06-01T14:20:48Z</time><pdop>8.0</pdop><geoidheight>50.60</geoidheight><course>78.95141</course><type>1</type></trkpt>
      <trkpt lat="39.15665936959473" lon="-6.292098754659377"><ele>1191</ele><speed>6.58</speed><time>2016-06-01T14:20:51Z</time><pdop>8.0</pdop><geoidheight>50.60</geoidheight><course>84.08356</course><type>1</type></trkpt>
      <trkpt lat="39.156718195197186" lon="-6.291852085198496"><ele>1192</ele><speed>7.92</speed><time>2016-06-01T14:20:54Z</time><pdop>8.0</pdop><geoidheight>50.60</geoidheight><course>68.39307</course><type>1</type></trkpt>
      <trkpt lat="39.15678414836481" lon="-6.291571483202845"><ele>1192</ele><speed>7.70</speed><time>2016-06-01T14:20:57Z</time><pdop>6.0</pdop><geoidheight>50.60</geoidheight><course>71.68966</course><type>1</type></trkpt>
      <trkpt lat="39.15685994724994" lon="-6.291409254293542"><ele>1193</ele><speed>8.40</speed><time>2016-06-01T14:20:59Z</time><pdop>8.0</pdop><geoidheight>50.60</geoidheight><course>54.98245</course><type>1</type></trkpt>
      <trkpt lat="39.156927127440596" lon="-6.291264571073187"><ele>1193</ele><speed>6.97</speed><time>2016-06-01T14:21:01Z</time><pdop>6.0</pdop><geoidheight>50.60</geoidheight><course>57.846092</course><type>1</type></trkpt>
      <trkpt lat="39.15701532836707" lon="-6.291031048432561"><ele>1194</ele><speed>8.34</speed><time>2016-06-01T14:21:04Z</time><pdop>12.0</pdop><geoidheight>50.60</geoidheight><course>52.340866</course><type>1</type></trkpt>
      <trkpt lat="39.15720244546128" lon="-6.2906662081849705"><ele>1194</ele><speed>5.67</speed><time>2016-06-01T14:21:09Z</time><pdop>16.0</pdop><geoidheight>50.60</geoidheight><course>65.85256</course><type>1</type></trkpt>
      <trkpt lat="39.157355593930696" lon="-6.290364219243518"><ele>1197</ele><speed>6.68</speed><time>2016-06-01T14:21:15Z</time><pdop>6.0</pdop><geoidheight>50.60</geoidheight><course>55.835224</course><type>1</type></trkpt>
      <trkpt lat="39.15743449597072" lon="-6.290135761925675"><ele>1198</ele><speed>7.95</speed><time>2016-06-01T14:21:18Z</time><pdop>8.0</pdop><geoidheight>50.60</geoidheight><course>86.29122</course><type>1</type></trkpt>
      <trkpt lat="39.157345391216246" lon="-6.289942252055863"><ele>1199</ele><speed>11.18</speed><time>2016-06-01T14:21:19Z</time><pdop>8.0</pdop><geoidheight>50.60</geoidheight><course>127.984085</course><type>1</type></trkpt>
      <trkpt lat="39.15715680528816" lon="-6.289829963217842"><ele>1202</ele><speed>11.89</speed><time>2016-06-01T14:21:21Z</time><pdop>8.0</pdop><geoidheight>50.60</geoidheight><course>175.06664</course><type>1</type></trkpt>
      <trkpt lat="39.15699419390988" lon="-6.2899178998670715"><ele>1206</ele><speed>10.38</speed><time>2016-06-01T14:21:23Z</time><pdop>8.0</pdop><geoidheight>50.60</geoidheight><course>217.40176</course><type>1</type></trkpt>
      <trkpt lat="39.15687619765302" lon="-6.290104666145758"><ele>1210</ele><speed>9.33</speed><time>2016-06-01T14:21:26Z</time><pdop>8.0</pdop><geoidheight>50.60</geoidheight><course>242.60217</course><type>1</type></trkpt>
      <trkpt lat="39.156851783177274" lon="-6.290307761623363"><ele>1214</ele><speed>9.20</speed><time>2016-06-01T14:21:27Z</time><pdop>6.0</pdop><geoidheight>50.60</geoidheight><course>278.86295</course><type>1</type></trkpt>
      <trkpt lat="39.15693110401568" lon="-6.290437208128535"><ele>1217</ele><speed>8.18</speed><time>2016-06-01T14:21:29Z</time><pdop>6.0</pdop><geoidheight>50.60</geoidheight><course>327.57208</course><type>1</type></trkpt>
      <trkpt lat="39.157066315709685" lon="-6.29042055492426"><ele>1220</ele><speed>8.14</speed><time>2016-06-01T14:21:31Z</time><pdop>8.0</pdop><geoidheight>50.60</geoidheight><course>20.510002</course><type>1</type></trkpt>
      <trkpt lat="39.15718708604566" lon="-6.29027296218918"><ele>1224</ele><speed>6.50</speed><time>2016-06-01T14:21:34Z</time><pdop>8.0</pdop><geoidheight>50.60</geoidheight><course>50.12355</course><type>1</type></trkpt>
      <trkpt lat="39.15723798551475" lon="-6.290119543186682"><ele>1227</ele><speed>7.70</speed><time>2016-06-01T14:21:36Z</time><pdop>6.0</pdop><geoidheight>50.60</geoidheight><course>86.109215</course><type>1</type></trkpt>
      <trkpt lat="39.15717463410206" lon="-6.289945459950292"><ele>1231</ele><speed>11.33</speed><time>2016-06-01T14:21:38Z</time><pdop>6.0</pdop><geoidheight>50.60</geoidheight><course>130.95566</course><type>1</type></trkpt>
      <trkpt lat="39.15702590704686" lon="-6.289814849062597"><ele>1237</ele><speed>9.41</speed><time>2016-06-01T14:21:40Z</time><pdop>8.0</pdop><geoidheight>50.60</geoidheight><course>152.78993</course><type>1</type></trkpt>
      <trkpt lat="39.15685058080785" lon="-6.289870977444083"><ele>1241</ele><speed>10.39</speed><time>2016-06-01T14:21:43Z</time><pdop>8.0</pdop><geoidheight>50.60</geoidheight><course>212.0129</course><type>1</type></trkpt>
      <trkpt lat="39.15676478052401" lon="-6.290081138149149"><ele>1243</ele><speed>9.86</speed><time>2016-06-01T14:21:44Z</time><pdop>8.0</pdop><geoidheight>50.60</geoidheight><course>255.14803</course><type>1</type></trkpt>
      <trkpt lat="39.15684258378088" lon="-6.2902735210850675"><ele>1247</ele><speed>9.15</speed><time>2016-06-01T14:21:47Z</time><pdop>8.0</pdop><geoidheight>50.60</geoidheight><course>351.02667</course><type>1</type></trkpt>
      <trkpt lat="39.15700836639886" lon="-6.290173199320338"><ele>1252</ele><speed>6.72</speed><time>2016-06-01T14:21:50Z</time><pdop>8.0</pdop><geoidheight>50.60</geoidheight><course>44.12614</course><type>1</type></trkpt>
      <trkpt lat="39.15717988656969" lon="-6.290078799632516"><ele>1261</ele><speed>6.13</speed><time>2016-06-01T14:21:54Z</time><pdop>12.0</pdop><geoidheight>50.60</geoidheight><course>2.3778834</course><type>1</type></trkpt>
      <trkpt lat="39.15692938214918" lon="-6.289896869006259"><ele>1268</ele><speed>11.23</speed><time>2016-06-01T14:22:01Z</time><pdop>12.0</pdop><geoidheight>50.60</geoidheight><course>175.28065</course><type>1</type></trkpt>
      <trkpt lat="39.156744101055075" lon="-6.289969629567312"><ele>1272</ele><speed>9.79</speed><time>2016-06-01T14:22:04Z</time><pdop>8.0</pdop><geoidheight>50.60</geoidheight><course>217.54291</course><type>1</type></trkpt>
      <trkpt lat="39.156617607731455" lon="-6.290225050260616"><ele>1279</ele><speed>10.15</speed><time>2016-06-01T14:22:06Z</time><pdop>6.0</pdop><geoidheight>50.60</geoidheight><course>264.82986</course><type>1</type></trkpt>
      <trkpt lat="39.156638781258366" lon="-6.290441479707648"><ele>1288</ele><speed>6.66</speed><time>2016-06-01T14:22:09Z</time><pdop>8.0</pdop><geoidheight>50.60</geoidheight><course>309.87805</course><type>1</type></trkpt>
      <trkpt lat="39.15678703067706" lon="-6.290402905363633"><ele>1300</ele><speed>6.78</speed><time>2016-06-01T14:22:14Z</time><pdop>8.0</pdop><geoidheight>50.60</geoidheight><course>84.964134</course><type>1</type></trkpt>
      <trkpt lat="39.15657501020896" lon="-6.290102494925663"><ele>1311</ele><speed>9.61</speed><time>2016-06-01T14:22:19Z</time><pdop>8.0</pdop><geoidheight>50.60</geoidheight><course>155.73059</course><type>1</type></trkpt>
      <trkpt lat="39.15642112357141" lon="-6.290022985964186"><ele>1319</ele><speed>9.98</speed><time>2016-06-01T14:22:20Z</time><pdop>6.0</pdop><geoidheight>50.60</geoidheight><course>161.07715</course><type>1</type></trkpt>
      <trkpt lat="39.156230869771534" lon="-6.290037076217589"><ele>1326</ele><speed>11.40</speed><time>2016-06-01T14:22:23Z</time><pdop>8.0</pdop><geoidheight>50.60</geoidheight><course>193.85135</course><type>1</type></trkpt>
      <trkpt lat="39.1560819183019" lon="-6.290169854014398"><ele>1330</ele><speed>10.82</speed><time>2016-06-01T14:22:24Z</time><pdop>8.0</pdop><geoidheight>50.60</geoidheight><course>232.20158</course><type>1</type></trkpt>
      <trkpt lat="39.15599537904545" lon="-6.290336336073445"><ele>1332</ele><speed>9.59</speed><time>2016-06-01T14:22:26Z</time><pdop>6.0</pdop><geoidheight>50.60</geoidheight><course>249.49875</course><type>1</type></trkpt>
      <trkpt lat="39.155961936710725" lon="-6.290525997403265"><ele>1334</ele><speed>8.43</speed><time>2016-06-01T14:22:28Z</time><pdop>8.0</pdop><geoidheight>50.60</geoidheight><course>271.25406</course><type>1</type></trkpt>
      <trkpt lat="39.15604239195341" lon="-6.290692791162001"><ele>1339</ele><speed>7.14</speed><time>2016-06-01T14:22:31Z</time><pdop>8.0</pdop><geoidheight>50.60</geoidheight><course>335.48492</course><type>1</type></trkpt>
      <trkpt lat="39.15616242496794" lon="-6.290790860616742"><ele>1346</ele><speed>4.49</speed><time>2016-06-01T14:22:34Z</time><pdop>6.0</pdop><geoidheight>50.60</geoidheight><course>350.1604</course><type>1</type></trkpt>
      <trkpt lat="39.156299459872635" lon="-6.290553872662004"><ele>1355</ele><speed>7.86</speed><time>2016-06-01T14:22:39Z</time><pdop>8.0</pdop><geoidheight>50.60</geoidheight><course>82.23945</course><type>1</type></trkpt>
      <trkpt lat="39.15629108948351" lon="-6.290286384872867"><ele>1360</ele><speed>8.67</speed><time>2016-06-01T14:22:42Z</time><pdop>6.0</pdop><geoidheight>50.60</geoidheight><course>100.95224</course><type>1</type></trkpt>
      <trkpt lat="39.15608844452794" lon="-6.2900552433100545"><ele>1367</ele><speed>10.90</speed><time>2016-06-01T14:22:45Z</time><pdop>12.0</pdop><geoidheight>50.60</geoidheight><course>154.69864</course><type>1</type></trkpt>
      <trkpt lat="39.155859150372855" lon="-6.289979078441729"><ele>1374</ele><speed>8.83</speed><time>2016-06-01T14:22:48Z</time><pdop>8.0</pdop><geoidheight>50.60</geoidheight><course>178.74492</course><type>1</type></trkpt>
      <trkpt lat="39.15573352584323" lon="-6.290088203309569"><ele>1376</ele><speed>10.77</speed><time>2016-06-01T14:22:51Z</time><pdop>8.0</pdop><geoidheight>50.60</geoidheight><course>227.81699</course><type>1</type></trkpt>
      <trkpt lat="39.15567687809476" lon="-6.290288990871271"><ele>1379</ele><speed>8.95</speed><time>2016-06-01T14:22:52Z</time><pdop>8.0</pdop><geoidheight>50.60</geoidheight><course>269.54547</course><type>1</type></trkpt>
      <trkpt lat="39.15581861989945" lon="-6.290445285767689"><ele>1389</ele><speed>5.88</speed><time>2016-06-01T14:22:56Z</time><pdop>6.0</pdop><geoidheight>50.60</geoidheight><course>355.45724</course><type>1</type></trkpt>
      <trkpt lat="39.15596174706338" lon="-6.290254504575861"><ele>1400</ele><speed>7.94</speed><time>2016-06-01T14:23:01Z</time><pdop>8.0</pdop><geoidheight>50.60</geoidheight><course>78.62578</course><type>1</type></trkpt>
      <trkpt lat="39.1558037897933" lon="-6.290019181927506"><ele>1406</ele><speed>14.01</speed><time>2016-06-01T14:23:05Z</time><pdop>12.0</pdop><geoidheight>50.60</geoidheight><course>152.23782</course><type>1</type></trkpt>
      <trkpt lat="39.15558317013541" lon="-6.289986843670464"><ele>1411</ele><speed>13.46</speed><time>2016-06-01T14:23:06Z</time><pdop>12.0</pdop><geoidheight>50.60</geoidheight><course>179.1091</course><type>1</type></trkpt>
      <trkpt lat="39.155425425771355" lon="-6.290249625464152"><ele>1414</ele><speed>8.87</speed><time>2016-06-01T14:23:09Z</time><pdop>12.0</pdop><geoidheight>50.60</geoidheight><course>252.1557</course><type>1</type></trkpt>
      <trkpt lat="39.15546281444133" lon="-6.29047908051214"><ele>1417</ele><speed>7.85</speed><time>2016-06-01T14:23:11Z</time><pdop>8.0</pdop><geoidheight>50.60</geoidheight><course>282.73767</course><type>1</type></trkpt>
      <trkpt lat="39.155548433813685" lon="-6.29060096141007"><ele>1423</ele><speed>7.35</speed><time>2016-06-01T14:23:13Z</time><pdop>6.0</pdop><geoidheight>50.60</geoidheight><course>327.72125</course><type>1</type></trkpt>
      <trkpt lat="39.15568455689467" lon="-6.290552919284663"><ele>1427</ele><speed>10.29</speed><time>2016-06-01T14:23:15Z</time><pdop>6.0</pdop><geoidheight>50.60</geoidheight><course>33.2941</course><type>1</type></trkpt>
      <trkpt lat="39.155734669512576" lon="-6.290326106651701"><ele>1431</ele><speed>10.66</speed><time>2016-06-01T14:23:18Z</time><pdop>12.0</pdop><geoidheight>50.60</geoidheight><course>91.53187</course><type>1</type></trkpt>
      <trkpt lat="39.155536513184025" lon="-6.290113049853699"><ele>1439</ele><speed>10.26</speed><time>2016-06-01T14:23:20Z</time><pdop>12.0</pdop><geoidheight>50.60</geoidheight><course>177.39456</course><type>1</type></trkpt>
      <trkpt lat="39.1553501943446" lon="-6.2901249462090325"><ele>1442</ele><speed>7.89</speed><time>2016-06-01T14:23:22Z</time><pdop>8.0</pdop><geoidheight>50.60</geoidheight><course>182.44662</course><type>1</type></trkpt>
      <trkpt lat="39.15523004222452" lon="-6.290277778973333"><ele>1447</ele><speed>9.20</speed><time>2016-06-01T14:23:25Z</time><pdop>8.0</pdop><geoidheight>50.60</geoidheight><course>240.87997</course><type>1</type></trkpt>
      <trkpt lat="39.15520118490465" lon="-6.290573167032984"><ele>1454</ele><speed>9.87</speed><time>2016-06-01T14:23:26Z</time><pdop>12.0</pdop><geoidheight>50.60</geoidheight><course>272.29605</course><type>1</type></trkpt>
      <trkpt lat="39.155264770833675" lon="-6.2908116154660965"><ele>1467</ele><speed>7.17</speed><time>2016-06-01T14:23:30Z</time><pdop>6.0</pdop><geoidheight>50.60</geoidheight><course>325.80667</course><type>1</type></trkpt>
      <trkpt lat="39.155389979586616" lon="-6.290848792380559"><ele>1478</ele><speed>5.51</speed><time>2016-06-01T14:23:32Z</time><pdop>8.0</pdop><geoidheight>50.60</geoidheight><course>9.680235</course><type>1</type></trkpt>
      <trkpt lat="39.15547232786032" lon="-6.290664820985733"><ele>1486</ele><speed>8.96</speed><time>2016-06-01T14:23:35Z</time><pdop>8.0</pdop><geoidheight>50.60</geoidheight><course>79.865074</course><type>1</type></trkpt>
      <trkpt lat="39.15544315460638" lon="-6.290446237633082"><ele>1490</ele><speed>9.64</speed><time>2016-06-01T14:23:38Z</time><pdop>8.0</pdop><geoidheight>50.60</geoidheight><course>116.8793</course><type>1</type></trkpt>
      <trkpt lat="39.155314223127846" lon="-6.290319392207265"><ele>1496</ele><speed>10.71</speed><time>2016-06-01T14:23:39Z</time><pdop>8.0</pdop><geoidheight>50.60</geoidheight><course>155.78508</course><type>1</type></trkpt>
      <trkpt lat="39.15514001095379" lon="-6.290302964190025"><ele>1501</ele><speed>8.96</speed><time>2016-06-01T14:23:42Z</time><pdop>8.0</pdop><geoidheight>50.60</geoidheight><course>196.27954</course><type>1</type></trkpt>
      <trkpt lat="39.1550463475983" lon="-6.290468173361398"><ele>1506</ele><speed>10.99</speed><time>2016-06-01T14:23:43Z</time><pdop>8.0</pdop><geoidheight>50.60</geoidheight><course>250.25092</course><type>1</type></trkpt>
      <trkpt lat="39.15500600397278" lon="-6.290683008579436"><ele>1511</ele><speed>8.77</speed><time>2016-06-01T14:23:45Z</time><pdop>6.0</pdop><geoidheight>50.60</geoidheight><course>281.19232</course><type>1</type></trkpt>
      <trkpt lat="39.15516498212274" lon="-6.290747664486432"><ele>1518</ele><speed>9.01</speed><time>2016-06-01T14:23:49Z</time><pdop>8.0</pdop><geoidheight>50.60</geoidheight><course>9.257914</course><type>1</type></trkpt>
      <trkpt lat="39.15529478962143" lon="-6.29060912773671"><ele>1524</ele><speed>7.66</speed><time>2016-06-01T14:23:51Z</time><pdop>8.0</pdop><geoidheight>50.60</geoidheight><course>75.74766</course><type>1</type></trkpt>
      <trkpt lat="39.155261017356295" lon="-6.290323628544398"><ele>1531</ele><speed>10.00</speed><time>2016-06-01T14:23:54Z</time><pdop>8.0</pdop><geoidheight>50.60</geoidheight><course>115.117836</course><type>1</type></trkpt>
      <trkpt lat="39.155153406823835" lon="-6.290112078467833"><ele>1536</ele><speed>11.20</speed><time>2016-06-01T14:23:56Z</time><pdop>8.0</pdop><geoidheight>50.60</geoidheight><course>128.44135</course><type>1</type></trkpt>
      <trkpt lat="39.15494111460575" lon="-6.290093923178404"><ele>1541</ele><speed>10.78</speed><time>2016-06-01T14:23:58Z</time><pdop>12.0</pdop><geoidheight>50.60</geoidheight><course>183.87292</course><type>1</type></trkpt>
      <trkpt lat="39.15477429517345" lon="-6.290183106430291"><ele>1544</ele><speed>9.01</speed><time>2016-06-01T14:24:00Z</time><pdop>8.0</pdop><geoidheight>50.60</geoidheight><course>218.41751</course><type>1</type></trkpt>
      <trkpt lat="39.1546590595974" lon="-6.29034630349873"><ele>1549</ele><speed>9.90</speed><time>2016-06-01T14:24:02Z</time><pdop>6.0</pdop><geoidheight>50.60</geoidheight><course>240.89331</course><type>1</type></trkpt>
      <trkpt lat="39.15461908864926" lon="-6.290555882779679"><ele>1556</ele><speed>9.02</speed><time>2016-06-01T14:24:04Z</time><pdop>6.0</pdop><geoidheight>50.60</geoidheight><course>275.5578</course><type>1</type></trkpt>
      <trkpt lat="39.15469839320246" lon="-6.290655714577681"><ele>1563</ele><speed>9.64</speed><time>2016-06-01T14:24:06Z</time><pdop>6.0</pdop><geoidheight>50.60</geoidheight><course>345.6914</course><type>1</type></trkpt>
      <trkpt lat="39.15482169597577" lon="-6.290630328180241"><ele>1570</ele><speed>8.38</speed><time>2016-06-01T14:24:08Z</time><pdop>6.0</pdop><geoidheight>50.60</geoidheight><course>24.683811</course><type>1</type></trkpt>
      <trkpt lat="39.15482879200833" lon="-6.290429194951471"><ele>1579</ele><speed>10.23</speed><time>2016-06-01T14:24:12Z</time><pdop>8.0</pdop><geoidheight>50.60</geoidheight><course>120.64222</course><type>1</type></trkpt>
      <trkpt lat="39.154645875817465" lon="-6.290312182101048"><ele>1584</ele><speed>13.45</speed><time>2016-06-01T14:24:13Z</time><pdop>8.0</pdop><geoidheight>50.60</geoidheight><course>160.56319</course><type>1</type></trkpt>
      <trkpt lat="39.15443631225597" lon="-6.29044647937841"><ele>1588</ele><speed>10.96</speed><time>2016-06-01T14:24:16Z</time><pdop>12.0</pdop><geoidheight>50.60</geoidheight><course>233.67429</course><type>1</type></trkpt>
      <trkpt lat="39.154412762755555" lon="-6.290748333137292"><ele>1594</ele><speed>7.85</speed><time>2016-06-01T14:24:19Z</time><pdop>12.0</pdop><geoidheight>50.60</geoidheight><course>274.772</course><type>1</type></trkpt>
      <trkpt lat="39.15458691109806" lon="-6.290894336224169"><ele>1604</ele><speed>7.39</speed><time>2016-06-01T14:24:24Z</time><pdop>8.0</pdop><geoidheight>50.60</geoidheight><course>347.8665</course><type>1</type></trkpt>
      <trkpt lat="39.15472255486379" lon="-6.2907794830781505"><ele>1613</ele><speed>8.93</speed><time>2016-06-01T14:24:27Z</time><pdop>8.0</pdop><geoidheight>50.60</geoidheight><course>70.598495</course><type>1</type></trkpt>
      <trkpt lat="39.15462141536201" lon="-6.290490151813845"><ele>1621</ele><speed>11.13</speed><time>2016-06-01T14:24:30Z</time><pdop>8.0</pdop><geoidheight>50.60</geoidheight><course>138.36292</course><type>1</type></trkpt>
      <trkpt lat="39.15444886382024" lon="-6.290426353968511"><ele>1626</ele><speed>10.19</speed><time>2016-06-01T14:24:31Z</time><pdop>8.0</pdop><geoidheight>50.60</geoidheight><course>178.45175</course><type>1</type></trkpt>
      <trkpt lat="39.154307280806584" lon="-6.29048276632513"><ele>1631</ele><speed>9.47</speed><time>2016-06-01T14:24:33Z</time><pdop>6.0</pdop><geoidheight>50.60</geoidheight><course>211.28998</course><type>1</type></trkpt>
      <trkpt lat="39.1542085320611" lon="-6.290673593698891"><ele>1635</ele><speed>9.89</speed><time>2016-06-01T14:24:35Z</time><pdop>12.0</pdop><geoidheight>50.60</geoidheight><course>252.06538</course><type>1</type></trkpt>
      <trkpt lat="39.154231300459315" lon="-6.29094652086714"><ele>1646</ele><speed>8.29</speed><time>2016-06-01T14:24:38Z</time><pdop>8.0</pdop><geoidheight>50.60</geoidheight><course>313.71603</course><type>1</type></trkpt>
      <trkpt lat="39.15444126045015" lon="-6.290936527219629"><ele>1659</ele><speed>8.17</speed><time>2016-06-01T14:24:43Z</time><pdop>8.0</pdop><geoidheight>50.60</geoidheight><course>33.89409</course><type>1</type></trkpt>
      <trkpt lat="39.15456063522826" lon="-6.290750995642119"><ele>1669</ele><speed>8.59</speed><time>2016-06-01T14:24:45Z</time><pdop>6.0</pdop><geoidheight>50.60</geoidheight><course>75.16474</course><type>1</type></trkpt>
      <trkpt lat="39.15450477208147" lon="-6.290570792524499"><ele>1674</ele><speed>10.79</speed><time>2016-06-01T14:24:48Z</time><pdop>8.0</pdop><geoidheight>50.60</geoidheight><course>123.56505</course><type>1</type></trkpt>
      <trkpt lat="39.15436148528287" lon="-6.290381790498015"><ele>1679</ele><speed>11.40</speed><time>2016-06-01T14:24:49Z</time><pdop>8.0</pdop><geoidheight>50.60</geoidheight><course>139.09196</course><type>1</type></trkpt>
      <trkpt lat="39.15420451902384" lon="-6.290329084315381"><ele>1683</ele><speed>10.50</speed><time>2016-06-01T14:24:51Z</time><pdop>8.0</pdop><geoidheight>50.60</geoidheight><course>172.35553</course><type>1</type></trkpt>
      <trkpt lat="39.15404929020666" lon="-6.290461577496321"><ele>1687</ele><speed>10.63</speed><time>2016-06-01T14:24:53Z</time><pdop>8.0</pdop><geoidheight>50.60</geoidheight><course>236.008</course><type>1</type></trkpt>
      <trkpt lat="39.15397904064615" lon="-6.290695036886293"><ele>1693</ele><speed>9.83</speed><time>2016-06-01T14:24:55Z</time><pdop>8.0</pdop><geoidheight>50.60</geoidheight><course>276.3013</course><type>1</type></trkpt>
      <trkpt lat="39.15411424892193" lon="-6.290874934423559"><ele>1701</ele><speed>9.00</speed><time>2016-06-01T14:24:59Z</time><pdop>8.0</pdop><geoidheight>50.60</geoidheight><course>352.70166</course><type>1</type></trkpt>
      <trkpt lat="39.15428782002343" lon="-6.290812918063863"><ele>1710</ele><speed>8.50</speed><time>2016-06-01T14:25:01Z</time><pdop>6.0</pdop><geoidheight>50.60</geoidheight><course>39.987476</course><type>1</type></trkpt>
      <trkpt lat="39.15436034544189" lon="-6.290660638025341"><ele>1716</ele><speed>9.22</speed><time>2016-06-01T14:25:03Z</time><pdop>6.0</pdop><geoidheight>50.60</geoidheight><course>79.18198</course><type>1</type></trkpt>
      <trkpt lat="39.154299262590044" lon="-6.290466858594193"><ele>1722</ele><speed>11.71</speed><time>2016-06-01T14:25:06Z</time><pdop>8.0</pdop><geoidheight>50.60</geoidheight><course>135.4093</course><type>1</type></trkpt>
      <trkpt lat="39.15408845201756" lon="-6.290376702178318"><ele>1727</ele><speed>11.99</speed><time>2016-06-01T14:25:07Z</time><pdop>12.0</pdop><geoidheight>50.60</geoidheight><course>177.74069</course><type>1</type></trkpt>
      <trkpt lat="39.153877557374834" lon="-6.290482694825709"><ele>1734</ele><speed>8.97</speed><time>2016-06-01T14:25:10Z</time><pdop>8.0</pdop><geoidheight>50.60</geoidheight><course>229.22829</course><type>1</type></trkpt>
      <trkpt lat="39.15379814707161" lon="-6.290640940242803"><ele>1739</ele><speed>8.04</speed><time>2016-06-01T14:25:12Z</time><pdop>6.0</pdop><geoidheight>50.60</geoidheight><course>249.87013</course><type>1</type></trkpt>
      <trkpt lat="39.153749510179814" lon="-6.29082926355664"><ele>1746</ele><speed>8.51</speed><time>2016-06-01T14:25:14Z</time><pdop>8.0</pdop><geoidheight>50.60</geoidheight><course>266.92227</course><type>1</type></trkpt>
      <trkpt lat="39.15383620751915" lon="-6.291012362026616"><ele>1757</ele><speed>8.13</speed><time>2016-06-01T14:25:17Z</time><pdop>6.0</pdop><geoidheight>50.60</geoidheight><course>338.8498</course><type>1</type></trkpt>
      <trkpt lat="39.153958963453086" lon="-6.291059711742897"><ele>1763</ele><speed>7.40</speed><time>2016-06-01T14:25:19Z</time><pdop>8.0</pdop><geoidheight>50.60</geoidheight><course>357.66736</course><type>1</type></trkpt>
      <trkpt lat="39.15410677685625" lon="-6.29103429158552"><ele>1768</ele><speed>9.24</speed><time>2016-06-01T14:25:21Z</time><pdop>6.0</pdop><geoidheight>50.60</geoidheight><course>14.842839</course><type>1</type></trkpt>
      <trkpt lat="39.15419309922073" lon="-6.290883971389525"><ele>1772</ele><speed>9.13</speed><time>2016-06-01T14:25:23Z</time><pdop>8.0</pdop><geoidheight>50.60</geoidheight><course>72.634346</course><type>1</type></trkpt>
      <trkpt lat="39.15408876828693" lon="-6.290611875403831"><ele>1779</ele><speed>9.76</speed><time>2016-06-01T14:25:26Z</time><pdop>16.0</pdop><geoidheight>50.60</geoidheight><course>139.13924</course><type>1</type></trkpt>
      <trkpt lat="39.153831979390134" lon="-6.290498662170092"><ele>1788</ele><speed>9.95</speed><time>2016-06-01T14:25:30Z</time><pdop>6.0</pdop><geoidheight>50.60</geoidheight><course>165.44025</course><type>1</type></trkpt>
      <trkpt lat="39.15368104541208" lon="-6.290537024693362"><ele>1794</ele><speed>9.89</speed><time>2016-06-01T14:25:31Z</time><pdop>6.0</pdop><geoidheight>50.60</geoidheight><course>208.37503</course><type>1</type></trkpt>
      <trkpt lat="39.15358954116265" lon="-6.290743909834598"><ele>1798</ele><speed>10.88</speed><time>2016-06-01T14:25:33Z</time><pdop>8.0</pdop><geoidheight>50.60</geoidheight><course>255.67085</course><type>1</type></trkpt>
      <trkpt lat="39.15355452215705" lon="-6.2909296009167015"><ele>1803</ele><speed>8.46</speed><time>2016-06-01T14:25:35Z</time><pdop>8.0</pdop><geoidheight>50.60</geoidheight><course>274.9752</course><type>1</type></trkpt>
      <trkpt lat="39.15360883021759" lon="-6.291113768127691"><ele>1811</ele><speed>8.21</speed><time>2016-06-01T14:25:38Z</time><pdop>8.0</pdop><geoidheight>50.60</geoidheight><course>321.1906</course><type>1</type></trkpt>
      <trkpt lat="39.15377262415935" lon="-6.29115382033929"><ele>1820</ele><speed>8.31</speed><time>2016-06-01T14:25:42Z</time><pdop>8.0</pdop><geoidheight>50.60</geoidheight><course>12.94344</course><type>1</type></trkpt>
      <trkpt lat="39.15393617259837" lon="-6.290948079775317"><ele>1826</ele><speed>9.74</speed><time>2016-06-01T14:25:44Z</time><pdop>12.0</pdop><geoidheight>50.60</geoidheight><course>73.14418</course><type>1</type></trkpt>
      <trkpt lat="39.1538615200933" lon="-6.290699203951191"><ele>1834</ele><speed>9.47</speed><time>2016-06-01T14:25:47Z</time><pdop>8.0</pdop><geoidheight>50.60</geoidheight><course>128.8267</course><type>1</type></trkpt>
      <trkpt lat="39.15362857103102" lon="-6.290566665868409"><ele>1844</ele><speed>11.55</speed><time>2016-06-01T14:25:50Z</time><pdop>8.0</pdop><geoidheight>50.60</geoidheight><course>179.36316</course><type>1</type></trkpt>
      <trkpt lat="39.153481092783025" lon="-6.290699487231274"><ele>1848</ele><speed>10.51</speed><time>2016-06-01T14:25:52Z</time><pdop>8.0</pdop><geoidheight>50.60</geoidheight><course>231.24573</course><type>1</type></trkpt>
      <trkpt lat="39.153395434481446" lon="-6.290890086530761"><ele>1852</ele><speed>8.06</speed><time>2016-06-01T14:25:54Z</time><pdop>8.0</pdop><geoidheight>50.60</geoidheight><course>252.57614</course><type>1</type></trkpt>
      <trkpt lat="39.15339475218037" lon="-6.291097188357294"><ele>1856</ele><speed>7.83</speed><time>2016-06-01T14:25:57Z</time><pdop>8.0</pdop><geoidheight>50.60</geoidheight><course>288.4464</course><type>1</type></trkpt>
      <trkpt lat="39.153538054573055" lon="-6.2912588480592575"><ele>1864</ele><speed>8.77</speed><time>2016-06-01T14:26:00Z</time><pdop>6.0</pdop><geoidheight>50.60</geoidheight><course>344.42725</course><type>1</type></trkpt>
      <trkpt lat="39.15366768711263" lon="-6.291274594397378"><ele>1870</ele><speed>9.21</speed><time>2016-06-01T14:26:02Z</time><pdop>6.0</pdop><geoidheight>50.60</geoidheight><course>6.5932302</course><type>1</type></trkpt>
      <trkpt lat="39.153808858830956" lon="-6.291167856102638"><ele>1876</ele><speed>9.22</speed><time>2016-06-01T14:26:05Z</time><pdop>8.0</pdop><geoidheight>50.60</geoidheight><course>42.2858</course><type>1</type></trkpt>
      <trkpt lat="39.15389467555795" lon="-6.29101541142351"><ele>1881</ele><speed>9.71</speed><time>2016-06-01T14:26:06Z</time><pdop>6.0</pdop><geoidheight>50.60</geoidheight><course>70.995316</course><type>1</type></trkpt>
      <trkpt lat="39.15389232817648" lon="-6.290814894108772"><ele>1885</ele><speed>9.60</speed><time>2016-06-01T14:26:08Z</time><pdop>6.0</pdop><geoidheight>50.60</geoidheight><course>107.946304</course><type>1</type></trkpt>
      <trkpt lat="39.153755424245425" lon="-6.29063686595339"><ele>1889</ele><speed>11.11</speed><time>2016-06-01T14:26:10Z</time><pdop>8.0</pdop><geoidheight>50.60</geoidheight><course>153.24115</course><type>1</type></trkpt>
      <trkpt lat="39.153572164114465" lon="-6.290624347615207"><ele>1891</ele><speed>11.22</speed><time>2016-06-01T14:26:13Z</time><pdop>8.0</pdop><geoidheight>50.60</geoidheight><course>189.38391</course><type>1</type></trkpt>
      <trkpt lat="39.15345897876037" lon="-6.290798598734262"><ele>1891</ele><speed>7.89</speed><time>2016-06-01T14:26:15Z</time><pdop>8.0</pdop><geoidheight>50.60</geoidheight><course>257.2531</course><type>1</type></trkpt>
      <trkpt lat="39.153431925157776" lon="-6.291046743931764"><ele>1893</ele><speed>7.89</speed><time>2016-06-01T14:26:18Z</time><pdop>8.0</pdop><geoidheight>50.60</geoidheight><course>278.17896</course><type>1</type></trkpt>
      <trkpt lat="39.153603072379916" lon="-6.291194174770701"><ele>1902</ele><speed>9.63</speed><time>2016-06-01T14:26:22Z</time><pdop>8.0</pdop><geoidheight>50.60</geoidheight><course>349.2573</course><type>1</type></trkpt>
      <trkpt lat="39.15376544508125" lon="-6.29121130664084"><ele>1906</ele><speed>8.51</speed><time>2016-06-01T14:26:24Z</time><pdop>6.0</pdop><geoidheight>50.60</geoidheight><course>7.2523127</course><type>1</type></trkpt>
      <trkpt lat="39.15390969747245" lon="-6.291148723418301"><ele>1909</ele><speed>9.15</speed><time>2016-06-01T14:26:26Z</time><pdop>6.0</pdop><geoidheight>50.60</geoidheight><course>23.881758</course><type>1</type></trkpt>
      <trkpt lat="39.154042944980326" lon="-6.291014422674075"><ele>1912</ele><speed>9.26</speed><time>2016-06-01T14:26:28Z</time><pdop>8.0</pdop><geoidheight>50.60</geoidheight><course>42.341034</course><type>1</type></trkpt>
      <trkpt lat="39.15406517404433" lon="-6.290828257491947"><ele>1914</ele><speed>10.48</speed><time>2016-06-01T14:26:30Z</time><pdop>8.0</pdop><geoidheight>50.60</geoidheight><course>95.35489</course><type>1</type></trkpt>
      <trkpt lat="39.15397240543763" lon="-6.290633836164797"><ele>1915</ele><speed>12.08</speed><time>2016-06-01T14:26:32Z</time><pdop>8.0</pdop><geoidheight>50.60</geoidheight><course>128.13474</course><type>1</type></trkpt>
      <trkpt lat="39.153798607348676" lon="-6.290517097625213"><ele>1916</ele><speed>12.77</speed><time>2016-06-01T14:26:34Z</time><pdop>8.0</pdop><geoidheight>50.60</geoidheight><course>170.28983</course><type>1</type></trkpt>
      <trkpt lat="39.15362434446578" lon="-6.290567235956283"><ele>1915</ele><speed>11.37</speed><time>2016-06-01T14:26:36Z</time><pdop>8.0</pdop><geoidheight>50.60</geoidheight><course>205.73106</course><type>1</type></trkpt>
      <trkpt lat="39.15348004541582" lon="-6.2906995770697245"><ele>1914</ele><speed>11.20</speed><time>2016-06-01T14:26:38Z</time><pdop>6.0</pdop><geoidheight>50.60</geoidheight><course>222.51575</course><type>1</type></trkpt>
      <trkpt lat="39.1533333307515" lon="-6.290849717459114"><ele>1912</ele><speed>11.38</speed><time>2016-06-01T14:26:40Z</time><pdop>6.0</pdop><geoidheight>50.60</geoidheight><course>223.37892</course><type>1</type></trkpt>
      <trkpt lat="39.15322311016274" lon="-6.291000775519025"><ele>1910</ele><speed>8.58</speed><time>2016-06-01T14:26:42Z</time><pdop>8.0</pdop><geoidheight>50.60</geoidheight><course>236.83153</course><type>1</type></trkpt>
      <trkpt lat="39.15318040102565" lon="-6.291178001403308"><ele>1911</ele><speed>7.95</speed><time>2016-06-01T14:26:44Z</time><pdop>8.0</pdop><geoidheight>50.60</geoidheight><course>265.4895</course><type>1</type></trkpt>
      <trkpt lat="39.15318428438609" lon="-6.291378539478829"><ele>1914</ele><speed>8.60</speed><time>2016-06-01T14:26:46Z</time><pdop>6.0</pdop><geoidheight>50.60</geoidheight><course>291.70557</course><type>1</type></trkpt>
      <trkpt lat="39.15328146955398" lon="-6.291544114436071"><ele>1918</ele><speed>10.39</speed><time>2016-06-01T14:26:48Z</time><pdop>6.0</pdop><geoidheight>50.60</geoidheight><course>330.38974</course><type>1</type></trkpt>
      <trkpt lat="39.15347818054686" lon="-6.291532111812855"><ele>1921</ele><speed>10.84</speed><time>2016-06-01T14:26:50Z</time><pdop>8.0</pdop><geoidheight>50.60</geoidheight><course>20.109777</course><type>1</type></trkpt>
      <trkpt lat="39.15357204817094" lon="-6.2913813409580355"><ele>1924</ele><speed>10.57</speed><time>2016-06-01T14:26:52Z</time><pdop>8.0</pdop><geoidheight>50.60</geoidheight><course>64.30497</course><type>1</type></trkpt>
      <trkpt lat="39.153557493056724" lon="-6.291196118366952"><ele>1927</ele><speed>11.47</speed><time>2016-06-01T14:26:54Z</time><pdop>8.0</pdop><geoidheight>50.60</geoidheight><course>116.22111</course><type>1</type></trkpt>
      <trkpt lat="39.153424115969834" lon="-6.291033232720961"><ele>1932</ele><speed>9.61</speed><time>2016-06-01T14:26:56Z</time><pdop>12.0</pdop><geoidheight>50.60</geoidheight><course>136.85638</course><type>1</type></trkpt>
      <trkpt lat="39.15323333495239" lon="-6.291001605947592"><ele>1936</ele><speed>11.16</speed><time>2016-06-01T14:26:58Z</time><pdop>8.0</pdop><geoidheight>50.60</geoidheight><course>183.13283</course><type>1</type></trkpt>
      <trkpt lat="39.1530666372425" lon="-6.291138939812987"><ele>1938</ele><speed>11.04</speed><time>2016-06-01T14:27:00Z</time><pdop>8.0</pdop><geoidheight>50.60</geoidheight><course>230.20451</course><type>1</type></trkpt>
      <trkpt lat="39.152970926046756" lon="-6.29131294532345"><ele>1939</ele><speed>8.99</speed><time>2016-06-01T14:27:02Z</time><pdop>8.0</pdop><geoidheight>50.60</geoidheight><course>245.75237</course><type>1</type></trkpt>
      <trkpt lat="39.153025236884666" lon="-6.291531166413511"><ele>1946</ele><speed>7.46</speed><time>2016-06-01T14:27:05Z</time><pdop>8.0</pdop><geoidheight>50.60</geoidheight><course>308.15848</course><type>1</type></trkpt>
      <trkpt lat="39.15329659640053" lon="-6.29166931767441"><ele>1957</ele><speed>10.69</speed><time>2016-06-01T14:27:09Z</time><pdop>8.0</pdop><geoidheight>50.60</geoidheight><course>4.434504</course><type>1</type></trkpt>
      <trkpt lat="39.15345887798267" lon="-6.291565057156751"><ele>1962</ele><speed>9.99</speed><time>2016-06-01T14:27:12Z</time><pdop>12.0</pdop><geoidheight>50.60</geoidheight><course>39.939964</course><type>1</type></trkpt>
      <trkpt lat="39.15348496586223" lon="-6.291296741333956"><ele>1966</ele><speed>11.68</speed><time>2016-06-01T14:27:14Z</time><pdop>8.0</pdop><geoidheight>50.60</geoidheight><course>120.19914</course><type>1</type></trkpt>
      <trkpt lat="39.153252340120105" lon="-6.291192693884102"><ele>1968</ele><speed>9.59</speed><time>2016-06-01T14:27:17Z</time><pdop>12.0</pdop><geoidheight>50.60</geoidheight><course>188.0076</course><type>1</type></trkpt>
      <trkpt lat="39.153139813230474" lon="-6.291467535203515"><ele>1969</ele><speed>9.80</speed><time>2016-06-01T14:27:20Z</time><pdop>8.0</pdop><geoidheight>50.60</geoidheight><course>255.50772</course><type>1</type></trkpt>
      <trkpt lat="39.1531963995712" lon="-6.291640934687324"><ele>1973</ele><speed>7.63</speed><time>2016-06-01T14:27:22Z</time><pdop>8.0</pdop><geoidheight>50.60</geoidheight><course>305.80035</course><type>1</type></trkpt>
      <trkpt lat="39.15332076556327" lon="-6.29178357738341"><ele>1980</ele><speed>8.84</speed><time>2016-06-01T14:27:25Z</time><pdop>8.0</pdop><geoidheight>50.60</geoidheight><course>330.9293</course><type>1</type></trkpt>
      <trkpt lat="39.153487956755335" lon="-6.291768925136373"><ele>1984</ele><speed>11.42</speed><time>2016-06-01T14:27:27Z</time><pdop>8.0</pdop><geoidheight>50.60</geoidheight><course>16.710663</course><type>1</type></trkpt>
      <trkpt lat="39.15363920827501" lon="-6.291619677939969"><ele>1986</ele><speed>11.22</speed><time>2016-06-01T14:27:29Z</time><pdop>8.0</pdop><geoidheight>50.60</geoidheight><course>46.732166</course><type>1</type></trkpt>
      <trkpt lat="39.153587914247" lon="-6.291368882428369"><ele>1990</ele><speed>9.64</speed><time>2016-06-01T14:27:32Z</time><pdop>8.0</pdop><geoidheight>50.60</geoidheight><course>123.1943</course><type>1</type></trkpt>
      <trkpt lat="39.15345252295274" lon="-6.2912147111356616"><ele>1992</ele><speed>10.16</speed><time>2016-06-01T14:27:34Z</time><pdop>6.0</pdop><geoidheight>50.60</geoidheight><course>150.94447</course><type>1</type></trkpt>
      <trkpt lat="39.1532624798911" lon="-6.291182108995015"><ele>1994</ele><speed>11.48</speed><time>2016-06-01T14:27:36Z</time><pdop>8.0</pdop><geoidheight>50.60</geoidheight><course>174.93071</course><type>1</type></trkpt>
      <trkpt lat="39.153111970147954" lon="-6.291344850709692"><ele>1995</ele><speed>9.78</speed><time>2016-06-01T14:27:38Z</time><pdop>8.0</pdop><geoidheight>50.60</geoidheight><course>234.48178</course><type>1</type></trkpt>
      <trkpt lat="39.1530631276014" lon="-6.291529138561429"><ele>1997</ele><speed>6.68</speed><time>2016-06-01T14:27:40Z</time><pdop>6.0</pdop><geoidheight>50.60</geoidheight><course>249.52464</course><type>1</type></trkpt>
      <trkpt lat="39.15299954513935" lon="-6.291655036804387"><ele>2000</ele><speed>6.34</speed><time>2016-06-01T14:27:42Z</time><pdop>6.0</pdop><geoidheight>50.60</geoidheight><course>233.60463</course><type>1</type></trkpt>
      <trkpt lat="39.152923642656894" lon="-6.291771706657887"><ele>2004</ele><speed>6.10</speed><time>2016-06-01T14:27:44Z</time><pdop>6.0</pdop><geoidheight>50.60</geoidheight><course>230.22551</course><type>1</type></trkpt>
      <trkpt lat="39.15291717868865" lon="-6.292035389325195"><ele>2010</ele><speed>10.07</speed><time>2016-06-01T14:27:48Z</time><pdop>8.0</pdop><geoidheight>50.60</geoidheight><course>312.71924</course><type>1</type></trkpt>
      <trkpt lat="39.15304474480204" lon="-6.2921348167688835"><ele>2012</ele><speed>10.09</speed><time>2016-06-01T14:27:50Z</time><pdop>8.0</pdop><geoidheight>50.60</geoidheight><course>345.27148</course><type>1</type></trkpt>
      <trkpt lat="39.15318240502317" lon="-6.29220019320622"><ele>2014</ele><speed>8.02</speed><time>2016-06-01T14:27:53Z</time><pdop>6.0</pdop><geoidheight>50.60</geoidheight><course>345.4856</course><type>1</type></trkpt>
      <trkpt lat="39.15334291092707" lon="-6.292277409260293"><ele>2016</ele><speed>10.47</speed><time>2016-06-01T14:27:54Z</time><pdop>6.0</pdop><geoidheight>50.60</geoidheight><course>339.90942</course><type>1</type></trkpt>
      <trkpt lat="39.15352180019976" lon="-6.2923957889135895"><ele>2015</ele><speed>11.90</speed><time>2016-06-01T14:27:56Z</time><pdop>8.0</pdop><geoidheight>50.60</geoidheight><course>334.1876</course><type>1</type></trkpt>
      <trkpt lat="39.15368698434833" lon="-6.292519410168648"><ele>2014</ele><speed>9.11</speed><time>2016-06-01T14:27:58Z</time><pdop>6.0</pdop><geoidheight>50.60</geoidheight><course>333.85632</course><type>1</type></trkpt>
      <trkpt lat="39.153836167468086" lon="-6.292608796888816"><ele>2014</ele><speed>9.76</speed><time>2016-06-01T14:28:00Z</time><pdop>6.0</pdop><geoidheight>50.60</geoidheight><course>338.10034</course><type>1</type></trkpt>
      <trkpt lat="39.154016150517684" lon="-6.29270080809503"><ele>2013</ele><speed>11.72</speed><time>2016-06-01T14:28:02Z</time><pdop>8.0</pdop><geoidheight>50.60</geoidheight><course>337.36197</course><type>1</type></trkpt>
      <trkpt lat="39.1541833642108" lon="-6.292803580291169"><ele>2012</ele><speed>10.51</speed><time>2016-06-01T14:28:04Z</time><pdop>8.0</pdop><geoidheight>50.60</geoidheight><course>332.8865</course><type>1</type></trkpt>
      <trkpt lat="39.15443674529258" lon="-6.293113183670267"><ele>2012</ele><speed>10.35</speed><time>2016-06-01T14:28:09Z</time><pdop>16.0</pdop><geoidheight>50.60</geoidheight><course>313.00134</course><type>1</type></trkpt>
      <trkpt lat="39.15456636653198" lon="-6.293583605270803"><ele>2013</ele><speed>11.40</speed><time>2016-06-01T14:28:12Z</time><pdop>8.0</pdop><geoidheight>50.60</geoidheight><course>281.15317</course><type>1</type></trkpt>
      <trkpt lat="39.15459703722062" lon="-6.29381354823862"><ele>2014</ele><speed>10.91</speed><time>2016-06-01T14:28:14Z</time><pdop>8.0</pdop><geoidheight>50.60</geoidheight><course>279.2587</course><type>1</type></trkpt>
      <trkpt lat="39.154655670377785" lon="-6.294138726182936"><ele>2010</ele><speed>10.74</speed><time>2016-06-01T14:28:17Z</time><pdop>12.0</pdop><geoidheight>50.60</geoidheight><course>279.68546</course><type>1</type></trkpt>
      <trkpt lat="39.15471208360993" lon="-6.294485637821073"><ele>2003</ele><speed>11.49</speed><time>2016-06-01T14:28:20Z</time><pdop>8.0</pdop><geoidheight>50.60</geoidheight><course>276.28323</course><type>1</type></trkpt>
      <trkpt lat="39.15472747376194" lon="-6.294811193476282"><ele>1997</ele><speed>9.55</speed><time>2016-06-01T14:28:23Z</time><pdop>12.0</pdop><geoidheight>50.60</geoidheight><course>270.13208</course><type>1</type></trkpt>
      <trkpt lat="39.154737012733364" lon="-6.2951316788218525"><ele>1990</ele><speed>9.81</speed><time>2016-06-01T14:28:26Z</time><pdop>8.0</pdop><geoidheight>50.60</geoidheight><course>269.31137</course><type>1</type></trkpt>
      <trkpt lat="39.154741237303284" lon="-6.295353789953932"><ele>1986</ele><speed>10.19</speed><time>2016-06-01T14:28:28Z</time><pdop>8.0</pdop><geoidheight>50.60</geoidheight><course>269.1256</course><type>1</type></trkpt>
      <trkpt lat="39.15475016816471" lon="-6.295575649469823"><ele>1983</ele><speed>10.66</speed><time>2016-06-01T14:28:30Z</time><pdop>8.0</pdop><geoidheight>50.60</geoidheight><course>272.0243</course><type>1</type></trkpt>
      <trkpt lat="39.15477445273723" lon="-6.295793497606975"><ele>1980</ele><speed>9.95</speed><time>2016-06-01T14:28:32Z</time><pdop>8.0</pdop><geoidheight>50.60</geoidheight><course>278.47003</course><type>1</type></trkpt>
      <trkpt lat="39.15483744042561" lon="-6.296138827072309"><ele>1976</ele><speed>11.22</speed><time>2016-06-01T14:28:35Z</time><pdop>12.0</pdop><geoidheight>50.60</geoidheight><course>281.51953</course><type>1</type></trkpt>
      <trkpt lat="39.1549082251054" lon="-6.296500569377667"><ele>1970</ele><speed>10.66</speed><time>2016-06-01T14:28:38Z</time><pdop>8.0</pdop><geoidheight>50.60</geoidheight><course>282.35922</course><type>1</type></trkpt>
      <trkpt lat="39.154957157454994" lon="-6.296738804146562"><ele>1966</ele><speed>11.93</speed><time>2016-06-01T14:28:40Z</time><pdop>8.0</pdop><geoidheight>50.60</geoidheight><course>282.0667</course><type>1</type></trkpt>
      <trkpt lat="39.15500075631712" lon="-6.296997108784498"><ele>1962</ele><speed>11.48</speed><time>2016-06-01T14:28:42Z</time><pdop>8.0</pdop><geoidheight>50.60</geoidheight><course>280.34357</course><type>1</type></trkpt>
      <trkpt lat="39.15503309982171" lon="-6.297231369821798"><ele>1957</ele><speed>10.86</speed><time>2016-06-01T14:28:44Z</time><pdop>12.0</pdop><geoidheight>50.60</geoidheight><course>280.8053</course><type>1</type></trkpt>
      <trkpt lat="39.155096668597494" lon="-6.297578809290797"><ele>1952</ele><speed>11.78</speed><time>2016-06-01T14:28:47Z</time><pdop>12.0</pdop><geoidheight>50.60</geoidheight><course>279.72357</course><type>1</type></trkpt>
      <trkpt lat="39.155126246158154" lon="-6.297832637444584"><ele>1948</ele><speed>11.50</speed><time>2016-06-01T14:28:49Z</time><pdop>8.0</pdop><geoidheight>50.60</geoidheight><course>275.66708</course><type>1</type></trkpt>
      <trkpt lat="39.15514655461814" lon="-6.298138090901117"><ele>1942</ele><speed>9.41</speed><time>2016-06-01T14:28:52Z</time><pdop>12.0</pdop><geoidheight>50.60</geoidheight><course>270.57382</course><type>1</type></trkpt>
      <trkpt lat="39.155082309920815" lon="-6.298460335575985"><ele>1937</ele><speed>11.24</speed><time>2016-06-01T14:28:55Z</time><pdop>8.0</pdop><geoidheight>50.60</geoidheight><course>255.85268</course><type>1</type></trkpt>
      <trkpt lat="39.15505645821981" lon="-6.298699251232652"><ele>1935</ele><speed>10.89</speed><time>2016-06-01T14:28:57Z</time><pdop>8.0</pdop><geoidheight>50.60</geoidheight><course>262.0602</course><type>1</type></trkpt>
      <trkpt lat="39.155040427635804" lon="-6.298916381643965"><ele>1935</ele><speed>8.31</speed><time>2016-06-01T14:28:59Z</time><pdop>8.0</pdop><geoidheight>50.60</geoidheight><course>261.11722</course><type>1</type></trkpt>
      <trkpt lat="39.15502313650742" lon="-6.299108672586596"><ele>1936</ele><speed>9.07</speed><time>2016-06-01T14:29:01Z</time><pdop>8.0</pdop><geoidheight>50.60</geoidheight><course>263.39987</course><type>1</type></trkpt>
      <trkpt lat="39.15500971712056" lon="-6.299367585295626"><ele>1937</ele><speed>12.69</speed><time>2016-06-01T14:29:03Z</time><pdop>12.0</pdop><geoidheight>50.60</geoidheight><course>265.30368</course><type>1</type></trkpt>
      <trkpt lat="39.15499280158944" lon="-6.299751531153656"><ele>1935</ele><speed>9.44</speed><time>2016-06-01T14:29:06Z</time><pdop>12.0</pdop><geoidheight>50.60</geoidheight><course>263.7465</course><type>1</type></trkpt>
      <trkpt lat="39.154985599441645" lon="-6.300102513997201"><ele>1936</ele><speed>10.72</speed><time>2016-06-01T14:29:09Z</time><pdop>8.0</pdop><geoidheight>50.60</geoidheight><course>267.12415</course><type>1</type></trkpt>
      <trkpt lat="39.15497779810101" lon="-6.300347592503587"><ele>1935</ele><speed>11.41</speed><time>2016-06-01T14:29:11Z</time><pdop>12.0</pdop><geoidheight>50.60</geoidheight><course>266.0237</course><type>1</type></trkpt>
      <trkpt lat="39.15496595713052" lon="-6.300696600964905"><ele>1934</ele><speed>10.33</speed><time>2016-06-01T14:29:14Z</time><pdop>12.0</pdop><geoidheight>50.60</geoidheight><course>265.87646</course><type>1</type></trkpt>
      <trkpt lat="39.15494846803515" lon="-6.3010299288729295"><ele>1932</ele><speed>10.77</speed><time>2016-06-01T14:29:17Z</time><pdop>12.0</pdop><geoidheight>50.60</geoidheight><course>262.8244</course><type>1</type></trkpt>
      <trkpt lat="39.154935725229926" lon="-6.301266586205778"><ele>1930</ele><speed>11.20</speed><time>2016-06-01T14:29:19Z</time><pdop>8.0</pdop><geoidheight>50.60</geoidheight><course>267.11566</course><type>1</type></trkpt>
      <trkpt lat="39.1549409607619" lon="-6.3015148884135606"><ele>1928</ele><speed>10.52</speed><time>2016-06-01T14:29:21Z</time><pdop>8.0</pdop><geoidheight>50.60</geoidheight><course>274.12158</course><type>1</type></trkpt>
      <trkpt lat="39.154967926472175" lon="-6.30177417151413"><ele>1927</ele><speed>12.15</speed><time>2016-06-01T14:29:23Z</time><pdop>8.0</pdop><geoidheight>50.60</geoidheight><course>279.24377</course><type>1</type></trkpt>
      <trkpt lat="39.15501107634084" lon="-6.302026945602137"><ele>1927</ele><speed>11.19</speed><time>2016-06-01T14:29:25Z</time><pdop>8.0</pdop><geoidheight>50.60</geoidheight><course>284.85913</course><type>1</type></trkpt>
      <trkpt lat="39.15506101677638" lon="-6.3022902730047266"><ele>1928</ele><speed>11.24</speed><time>2016-06-01T14:29:27Z</time><pdop>8.0</pdop><geoidheight>50.60</geoidheight><course>283.95618</course><type>1</type></trkpt>
      <trkpt lat="39.15508921034598" lon="-6.302537862041623"><ele>1927</ele><speed>11.45</speed><time>2016-06-01T14:29:29Z</time><pdop>6.0</pdop><geoidheight>50.60</geoidheight><course>277.3442</course><type>1</type></trkpt>
      <trkpt lat="39.155118477142494" lon="-6.3027691460057635"><ele>1924</ele><speed>10.07</speed><time>2016-06-01T14:29:31Z</time><pdop>6.0</pdop><geoidheight>50.60</geoidheight><course>280.7191</course><type>1</type></trkpt>
      <trkpt lat="39.1551645606121" lon="-6.3030078230488655"><ele>1922</ele><speed>10.80</speed><time>2016-06-01T14:29:33Z</time><pdop>6.0</pdop><geoidheight>50.60</geoidheight><course>282.56815</course><type>1</type></trkpt>
      <trkpt lat="39.15519539347975" lon="-6.303257028149645"><ele>1920</ele><speed>11.18</speed><time>2016-06-01T14:29:35Z</time><pdop>6.0</pdop><geoidheight>50.60</geoidheight><course>277.1103</course><type>1</type></trkpt>
      <trkpt lat="39.15522166830319" lon="-6.3034912859077"><ele>1919</ele><speed>10.55</speed><time>2016-06-01T14:29:38Z</time><pdop>6.0</pdop><geoidheight>50.60</geoidheight><course>278.58197</course><type>1</type></trkpt>
      <trkpt lat="39.155260860544786" lon="-6.303723896913895"><ele>1917</ele><speed>10.86</speed><time>2016-06-01T14:29:39Z</time><pdop>8.0</pdop><geoidheight>50.60</geoidheight><course>281.3877</course><type>1</type></trkpt>
      <trkpt lat="39.15529320122414" lon="-6.3039492977896945"><ele>1916</ele><speed>9.65</speed><time>2016-06-01T14:29:41Z</time><pdop>8.0</pdop><geoidheight>50.60</geoidheight><course>277.76944</course><type>1</type></trkpt>
      <trkpt lat="39.155308139768046" lon="-6.3041571332991815"><ele>1915</ele><speed>8.54</speed><time>2016-06-01T14:29:43Z</time><pdop>8.0</pdop><geoidheight>50.60</geoidheight><course>274.13232</course><type>1</type></trkpt>
      <trkpt lat="39.15531436287097" lon="-6.304373180861877"><ele>1912</ele><speed>9.13</speed><time>2016-06-01T14:29:45Z</time><pdop>8.0</pdop><geoidheight>50.60</geoidheight><course>270.6244</course><type>1</type></trkpt>
      <trkpt lat="39.155302206558" lon="-6.304569440046414"><ele>1910</ele><speed>8.38</speed><time>2016-06-01T14:29:47Z</time><pdop>6.0</pdop><geoidheight>50.60</geoidheight><course>264.04404</course><type>1</type></trkpt>
      <trkpt lat="39.155274708227026" lon="-6.304760289461465"><ele>1909</ele><speed>9.41</speed><time>2016-06-01T14:29:49Z</time><pdop>6.0</pdop><geoidheight>50.60</geoidheight><course>260.47372</course><type>1</type></trkpt>
      <trkpt lat="39.155234275827716" lon="-6.30497437064841"><ele>1907</ele><speed>10.86</speed><time>2016-06-01T14:29:51Z</time><pdop>8.0</pdop><geoidheight>50.60</geoidheight><course>256.46133</course><type>1</type></trkpt>
      <trkpt lat="39.15518329843505" lon="-6.305188725581849"><ele>1904</ele><speed>10.54</speed><time>2016-06-01T14:29:53Z</time><pdop>6.0</pdop><geoidheight>50.60</geoidheight><course>255.61699</course><type>1</type></trkpt>
      <trkpt lat="39.15513519147387" lon="-6.305421128014838"><ele>1900</ele><speed>10.81</speed><time>2016-06-01T14:29:55Z</time><pdop>6.0</pdop><geoidheight>50.60</geoidheight><course>256.43036</course><type>1</type></trkpt>
      <trkpt lat="39.15507364795226" lon="-6.30564076127379"><ele>1897</ele><speed>10.38</speed><time>2016-06-01T14:29:57Z</time><pdop>6.0</pdop><geoidheight>50.60</geoidheight><course>250.27544</course><type>1</type></trkpt>
      <trkpt lat="39.154999979876955" lon="-6.305843358030629"><ele>1894</ele><speed>9.91</speed><time>2016-06-01T14:29:59Z</time><pdop>6.0</pdop><geoidheight>50.60</geoidheight><course>247.87529</course><type>1</type></trkpt>
      <trkpt lat="39.15493046382917" lon="-6.306044210871124"><ele>1891</ele><speed>10.37</speed><time>2016-06-01T14:30:01Z</time><pdop>6.0</pdop><geoidheight>50.60</geoidheight><course>248.18153</course><type>1</type></trkpt>
      <trkpt lat="39.15485975116363" lon="-6.306240042669985"><ele>1888</ele><speed>9.80</speed><time>2016-06-01T14:30:03Z</time><pdop>8.0</pdop><geoidheight>50.60</geoidheight><course>245.77704</course><type>1</type></trkpt>
      <trkpt lat="39.154748758529436" lon="-6.306552312985215"><ele>1883</ele><speed>10.21</speed><time>2016-06-01T14:30:06Z</time><pdop>12.0</pdop><geoidheight>50.60</geoidheight><course>245.53023</course><type>1</type></trkpt>
      <trkpt lat="39.154644254794775" lon="-6.306852524150968"><ele>1878</ele><speed>10.89</speed><time>2016-06-01T14:30:09Z</time><pdop>12.0</pdop><geoidheight>50.60</geoidheight><course>246.67609</course><type>1</type></trkpt>
      <trkpt lat="39.15456469349413" lon="-6.307125790199503"><ele>1874</ele><speed>8.37</speed><time>2016-06-01T14:30:12Z</time><pdop>8.0</pdop><geoidheight>50.60</geoidheight><course>248.59181</course><type>1</type></trkpt>
      <trkpt lat="39.15450281371201" lon="-6.307370466010941"><ele>1870</ele><speed>8.05</speed><time>2016-06-01T14:30:15Z</time><pdop>8.0</pdop><geoidheight>50.60</geoidheight><course>253.5261</course><type>1</type></trkpt>
      <trkpt lat="39.154490900170565" lon="-6.3076178240639"><ele>1866</ele><speed>7.19</speed><time>2016-06-01T14:30:18Z</time><pdop>8.0</pdop><geoidheight>50.60</geoidheight><course>276.37708</course><type>1</type></trkpt>
      <trkpt lat="39.154528129869725" lon="-6.3078785648283136"><ele>1864</ele><speed>8.65</speed><time>2016-06-01T14:30:21Z</time><pdop>8.0</pdop><geoidheight>50.60</geoidheight><course>284.38358</course><type>1</type></trkpt>
      <trkpt lat="39.15454422268205" lon="-6.3082156403649225"><ele>1860</ele><speed>11.46</speed><time>2016-06-01T14:30:24Z</time><pdop>12.0</pdop><geoidheight>50.60</geoidheight><course>269.9935</course><type>1</type></trkpt>
      <trkpt lat="39.1545948085466" lon="-6.30854580434381"><ele>1858</ele><speed>9.04</speed><time>2016-06-01T14:30:27Z</time><pdop>8.0</pdop><geoidheight>50.60</geoidheight><course>286.41315</course><type>1</type></trkpt>
      <trkpt lat="39.15464216069836" lon="-6.308821291736252"><ele>1857</ele><speed>8.54</speed><time>2016-06-01T14:30:30Z</time><pdop>8.0</pdop><geoidheight>50.60</geoidheight><course>279.08032</course><type>1</type></trkpt>
      <trkpt lat="39.154661012692245" lon="-6.309037040548095"><ele>1855</ele><speed>11.00</speed><time>2016-06-01T14:30:32Z</time><pdop>8.0</pdop><geoidheight>50.60</geoidheight><course>275.94614</course><type>1</type></trkpt>
      <trkpt lat="39.1546782534907" lon="-6.309264537822556"><ele>1854</ele><speed>10.21</speed><time>2016-06-01T14:30:34Z</time><pdop>8.0</pdop><geoidheight>50.60</geoidheight><course>276.04184</course><type>1</type></trkpt>
      <trkpt lat="39.1547098453246" lon="-6.309602113902745"><ele>1854</ele><speed>10.64</speed><time>2016-06-01T14:30:37Z</time><pdop>6.0</pdop><geoidheight>50.60</geoidheight><course>279.12628</course><type>1</type></trkpt>
      <trkpt lat="39.15474595039399" lon="-6.309838909509385"><ele>1853</ele><speed>9.71</speed><time>2016-06-01T14:30:40Z</time><pdop>8.0</pdop><geoidheight>50.60</geoidheight><course>281.82657</course><type>1</type></trkpt>
      <trkpt lat="39.15478552275271" lon="-6.310154195723229"><ele>1854</ele><speed>8.02</speed><time>2016-06-01T14:30:42Z</time><pdop>8.0</pdop><geoidheight>50.60</geoidheight><course>279.36035</course><type>1</type></trkpt>
      <trkpt lat="39.15479185756708" lon="-6.310362483786982"><ele>1857</ele><speed>8.11</speed><time>2016-06-01T14:30:44Z</time><pdop>8.0</pdop><geoidheight>50.60</geoidheight><course>278.11853</course><type>1</type></trkpt>
      <trkpt lat="39.15479388546614" lon="-6.310565837862572"><ele>1859</ele><speed>7.74</speed><time>2016-06-01T14:30:46Z</time><pdop>6.0</pdop><geoidheight>50.60</geoidheight><course>273.71667</course><type>1</type></trkpt>
      <trkpt lat="39.15477802296236" lon="-6.310798490760013"><ele>1862</ele><speed>6.88</speed><time>2016-06-01T14:30:49Z</time><pdop>8.0</pdop><geoidheight>50.60</geoidheight><course>266.4025</course><type>1</type></trkpt>
      <trkpt lat="39.15478672460434" lon="-6.310974291711759"><ele>1865</ele><speed>7.82</speed><time>2016-06-01T14:30:51Z</time><pdop>6.0</pdop><geoidheight>50.60</geoidheight><course>285.0749</course><type>1</type></trkpt>
      <trkpt lat="39.154957788470895" lon="-6.311046693314139"><ele>1871</ele><speed>9.51</speed><time>2016-06-01T14:30:54Z</time><pdop>8.0</pdop><geoidheight>50.60</geoidheight><course>15.535211</course><type>1</type></trkpt>
      <trkpt lat="39.1551004925082" lon="-6.310869415314093"><ele>1877</ele><speed>9.20</speed><time>2016-06-01T14:30:57Z</time><pdop>8.0</pdop><geoidheight>50.60</geoidheight><course>66.66009</course><type>1</type></trkpt>
      <trkpt lat="39.15512685557185" lon="-6.310675181439094"><ele>1881</ele><speed>8.87</speed><time>2016-06-01T14:30:59Z</time><pdop>8.0</pdop><geoidheight>50.60</geoidheight><course>95.938576</course><type>1</type></trkpt>
      <trkpt lat="39.15505727523046" lon="-6.31050530234475"><ele>1884</ele><speed>10.39</speed><time>2016-06-01T14:31:01Z</time><pdop>8.0</pdop><geoidheight>50.60</geoidheight><course>133.62532</course><type>1</type></trkpt>
      <trkpt lat="39.15484730671487" lon="-6.310404792519704"><ele>1886</ele><speed>10.84</speed><time>2016-06-01T14:31:04Z</time><pdop>12.0</pdop><geoidheight>50.60</geoidheight><course>146.43512</course><type>1</type></trkpt>
      <trkpt lat="39.15469489193123" lon="-6.31062152556222"><ele>1886</ele><speed>8.32</speed><time>2016-06-01T14:31:08Z</time><pdop>12.0</pdop><geoidheight>50.60</geoidheight><course>256.48773</course><type>1</type></trkpt>
      <trkpt lat="39.15464688681677" lon="-6.3108977306388"><ele>1894</ele><speed>6.10</speed><time>2016-06-01T14:31:10Z</time><pdop>6.0</pdop><geoidheight>50.60</geoidheight><course>264.1857</course><type>1</type></trkpt>
      <trkpt lat="39.15460525269728" lon="-6.311041826079673"><ele>1900</ele><speed>6.57</speed><time>2016-06-01T14:31:12Z</time><pdop>6.0</pdop><geoidheight>50.60</geoidheight><course>245.55641</course><type>1</type></trkpt>
      <trkpt lat="39.154570909876" lon="-6.311202350945456"><ele>1905</ele><speed>7.37</speed><time>2016-06-01T14:31:14Z</time><pdop>6.0</pdop><geoidheight>50.60</geoidheight><course>265.8941</course><type>1</type></trkpt>
      <trkpt lat="39.15462501092832" lon="-6.311373187147963"><ele>1911</ele><speed>8.79</speed><time>2016-06-01T14:31:16Z</time><pdop>6.0</pdop><geoidheight>50.60</geoidheight><course>311.02994</course><type>1</type></trkpt>
      <trkpt lat="39.15479045177221" lon="-6.311415528215994"><ele>1915</ele><speed>10.47</speed><time>2016-06-01T14:31:18Z</time><pdop>8.0</pdop><geoidheight>50.60</geoidheight><course>9.655843</course><type>1</type></trkpt>
      <trkpt lat="39.15490034588863" lon="-6.31128206620485"><ele>1918</ele><speed>10.66</speed><time>2016-06-01T14:31:20Z</time><pdop>8.0</pdop><geoidheight>50.60</geoidheight><course>67.33147</course><type>1</type></trkpt>
      <trkpt lat="39.15488164386597" lon="-6.311081007010472"><ele>1921</ele><speed>9.38</speed><time>2016-06-01T14:31:23Z</time><pdop>6.0</pdop><geoidheight>50.60</geoidheight><course>114.40678</course><type>1</type></trkpt>
      <trkpt lat="39.15479035132772" lon="-6.310910202637596"><ele>1924</ele><speed>9.13</speed><time>2016-06-01T14:31:24Z</time><pdop>6.0</pdop><geoidheight>50.60</geoidheight><course>130.08524</course><type>1</type></trkpt>
      <trkpt lat="39.1545874896346" lon="-6.31085682341104"><ele>1929</ele><speed>8.27</speed><time>2016-06-01T14:31:27Z</time><pdop>12.0</pdop><geoidheight>50.60</geoidheight><course>202.4196</course><type>1</type></trkpt>
      <trkpt lat="39.154527031510064" lon="-6.311088081653903"><ele>1938</ele><speed>8.24</speed><time>2016-06-01T14:31:31Z</time><pdop>8.0</pdop><geoidheight>50.60</geoidheight><course>305.88766</course><type>1</type></trkpt>
      <trkpt lat="39.1547128175383" lon="-6.311146541352543"><ele>1946</ele><speed>11.30</speed><time>2016-06-01T14:31:34Z</time><pdop>6.0</pdop><geoidheight>50.60</geoidheight><course>14.573958</course><type>1</type></trkpt>
      <trkpt lat="39.15486255998137" lon="-6.311033700219613"><ele>1951</ele><speed>9.64</speed><time>2016-06-01T14:31:37Z</time><pdop>8.0</pdop><geoidheight>50.60</geoidheight><course>52.31595</course><type>1</type></trkpt>
      <trkpt lat="39.154898456998495" lon="-6.310754863629526"><ele>1956</ele><speed>10.18</speed><time>2016-06-01T14:31:39Z</time><pdop>16.0</pdop><geoidheight>50.60</geoidheight><course>88.71087</course><type>1</type></trkpt>
      <trkpt lat="39.15473536526258" lon="-6.310465905015529"><ele>1960</ele><speed>9.57</speed><time>2016-06-01T14:31:42Z</time><pdop>8.0</pdop><geoidheight>50.60</geoidheight><course>147.44142</course><type>1</type></trkpt>
      <trkpt lat="39.1545899768073" lon="-6.310440947531183"><ele>1961</ele><speed>9.00</speed><time>2016-06-01T14:31:45Z</time><pdop>8.0</pdop><geoidheight>50.60</geoidheight><course>188.79552</course><type>1</type></trkpt>
      <trkpt lat="39.15446311654223" lon="-6.310538693529054"><ele>1965</ele><speed>7.74</speed><time>2016-06-01T14:31:46Z</time><pdop>8.0</pdop><geoidheight>50.60</geoidheight><course>223.53983</course><type>1</type></trkpt>
      <trkpt lat="39.15437185688271" lon="-6.310791541850556"><ele>1972</ele><speed>9.83</speed><time>2016-06-01T14:31:49Z</time><pdop>6.0</pdop><geoidheight>50.60</geoidheight><course>272.13654</course><type>1</type></trkpt>
      <trkpt lat="39.154464519597354" lon="-6.310960387849798"><ele>1974</ele><speed>11.20</speed><time>2016-06-01T14:31:51Z</time><pdop>8.0</pdop><geoidheight>50.60</geoidheight><course>328.16986</course><type>1</type></trkpt>
      <trkpt lat="39.154644040108934" lon="-6.31099670387935"><ele>1975</ele><speed>7.67</speed><time>2016-06-01T14:31:53Z</time><pdop>8.0</pdop><geoidheight>50.60</geoidheight><course>359.2122</course><type>1</type></trkpt>
      <trkpt lat="39.15483163178137" lon="-6.310972722026455"><ele>1980</ele><speed>8.81</speed><time>2016-06-01T14:31:57Z</time><pdop>12.0</pdop><geoidheight>50.60</geoidheight><course>25.18229</course><type>1</type></trkpt>
      <trkpt lat="39.1549612178082" lon="-6.310688770154055"><ele>1984</ele><speed>11.27</speed><time>2016-06-01T14:32:00Z</time><pdop>12.0</pdop><geoidheight>50.60</geoidheight><course>89.74548</course><type>1</type></trkpt>
      <trkpt lat="39.15480031261397" lon="-6.31040757497094"><ele>1988</ele><speed>9.36</speed><time>2016-06-01T14:32:02Z</time><pdop>8.0</pdop><geoidheight>50.60</geoidheight><course>141.11324</course><type>1</type></trkpt>
      <trkpt lat="39.15456817210192" lon="-6.310405172051465"><ele>1994</ele><speed>8.63</speed><time>2016-06-01T14:32:06Z</time><pdop>12.0</pdop><geoidheight>50.60</geoidheight><course>217.3133</course><type>1</type></trkpt>
      <trkpt lat="39.15449046428558" lon="-6.310709968165608"><ele>1998</ele><speed>10.62</speed><time>2016-06-01T14:32:09Z</time><pdop>12.0</pdop><geoidheight>50.60</geoidheight><course>270.76456</course><type>1</type></trkpt>
      <trkpt lat="39.15461968431736" lon="-6.310910417167159"><ele>2004</ele><speed>7.19</speed><time>2016-06-01T14:32:12Z</time><pdop>8.0</pdop><geoidheight>50.60</geoidheight><course>346.20645</course><type>1</type></trkpt>
      <trkpt lat="39.15482930367222" lon="-6.310832726026856"><ele>2008</ele><speed>8.56</speed><time>2016-06-01T14:32:16Z</time><pdop>8.0</pdop><geoidheight>50.60</geoidheight><course>27.672028</course><type>1</type></trkpt>
      <trkpt lat="39.154936524611344" lon="-6.310650308348714"><ele>2011</ele><speed>8.40</speed><time>2016-06-01T14:32:18Z</time><pdop>6.0</pdop><geoidheight>50.60</geoidheight><course>68.60413</course><type>1</type></trkpt>
      <trkpt lat="39.15495426690779" lon="-6.310434742861693"><ele>2012</ele><speed>10.04</speed><time>2016-06-01T14:32:20Z</time><pdop>8.0</pdop><geoidheight>50.60</geoidheight><course>98.464096</course><type>1</type></trkpt>
      <trkpt lat="39.154881749996875" lon="-6.31019597085029"><ele>2014</ele><speed>11.68</speed><time>2016-06-01T14:32:21Z</time><pdop>12.0</pdop><geoidheight>50.60</geoidheight><course>118.30008</course><type>1</type></trkpt>
      <trkpt lat="39.15473109069797" lon="-6.310039849177459"><ele>2016</ele><speed>10.77</speed><time>2016-06-01T14:32:23Z</time><pdop>6.0</pdop><geoidheight>50.60</geoidheight><course>159.80125</course><type>1</type></trkpt>
      <trkpt lat="39.15457765542061" lon="-6.310027900296558"><ele>2015</ele><speed>7.89</speed><time>2016-06-01T14:32:25Z</time><pdop>8.0</pdop><geoidheight>50.60</geoidheight><course>189.63972</course><type>1</type></trkpt>
      <trkpt lat="39.154381460494925" lon="-6.310181883673057"><ele>2013</ele><speed>8.88</speed><time>2016-06-01T14:32:28Z</time><pdop>16.0</pdop><geoidheight>50.60</geoidheight><course>226.82727</course><type>1</type></trkpt>
      <trkpt lat="39.15419703459556" lon="-6.310504228607327"><ele>2013</ele><speed>8.85</speed><time>2016-06-01T14:32:32Z</time><pdop>12.0</pdop><geoidheight>50.60</geoidheight><course>237.43297</course><type>1</type></trkpt>
      <trkpt lat="39.15408252154613" lon="-6.31077131366214"><ele>2014</ele><speed>7.19</speed><time>2016-06-01T14:32:35Z</time><pdop>8.0</pdop><geoidheight>50.60</geoidheight><course>240.66774</course><type>1</type></trkpt>
      <trkpt lat="39.15401191139241" lon="-6.310995402427958"><ele>2017</ele><speed>6.71</speed><time>2016-06-01T14:32:38Z</time><pdop>12.0</pdop><geoidheight>50.60</geoidheight><course>265.77704</course><type>1</type></trkpt>
      <trkpt lat="39.15417494260155" lon="-6.311170550169666"><ele>2018</ele><speed>9.59</speed><time>2016-06-01T14:32:41Z</time><pdop>8.0</pdop><geoidheight>50.60</geoidheight><course>346.9358</course><type>1</type></trkpt>
      <trkpt lat="39.154332900637286" lon="-6.3110719390225825"><ele>2017</ele><speed>8.84</speed><time>2016-06-01T14:32:43Z</time><pdop>8.0</pdop><geoidheight>50.60</geoidheight><course>43.971703</course><type>1</type></trkpt>
      <trkpt lat="39.1545092860005" lon="-6.310827838524224"><ele>2009</ele><speed>8.51</speed><time>2016-06-01T14:32:47Z</time><pdop>16.0</pdop><geoidheight>50.60</geoidheight><course>68.77036</course><type>1</type></trkpt>
      <trkpt lat="39.15445377671" lon="-6.3104775648226745"><ele>2003</ele><speed>13.40</speed><time>2016-06-01T14:32:51Z</time><pdop>12.0</pdop><geoidheight>50.60</geoidheight><course>127.09793</course><type>1</type></trkpt>
      <trkpt lat="39.15417455541316" lon="-6.310369728459503"><ele>1997</ele><speed>9.92</speed><time>2016-06-01T14:32:53Z</time><pdop>16.0</pdop><geoidheight>50.60</geoidheight><course>188.71233</course><type>1</type></trkpt>
      <trkpt lat="39.15392640261578" lon="-6.3104418609172415"><ele>1998</ele><speed>9.01</speed><time>2016-06-01T14:32:56Z</time><pdop>8.0</pdop><geoidheight>50.60</geoidheight><course>201.60043</course><type>1</type></trkpt>
      <trkpt lat="39.153767469704206" lon="-6.310508892571783"><ele>2001</ele><speed>8.48</speed><time>2016-06-01T14:32:58Z</time><pdop>6.0</pdop><geoidheight>50.60</geoidheight><course>203.50787</course><type>1</type></trkpt>
      <trkpt lat="39.15364990550051" lon="-6.310660108505383"><ele>2004</ele><speed>8.58</speed><time>2016-06-01T14:33:00Z</time><pdop>8.0</pdop><geoidheight>50.60</geoidheight><course>238.95087</course><type>1</type></trkpt>
      <trkpt lat="39.15354181033693" lon="-6.310864848433866"><ele>2008</ele><speed>6.93</speed><time>2016-06-01T14:33:03Z</time><pdop>12.0</pdop><geoidheight>50.60</geoidheight><course>242.82416</course><type>1</type></trkpt>
      <trkpt lat="39.15345642721236" lon="-6.311118419825494"><ele>2009</ele><speed>9.57</speed><time>2016-06-01T14:33:06Z</time><pdop>8.0</pdop><geoidheight>50.60</geoidheight><course>249.18405</course><type>1</type></trkpt>
      <trkpt lat="39.15339035647415" lon="-6.311413098571437"><ele>2010</ele><speed>8.53</speed><time>2016-06-01T14:33:09Z</time><pdop>12.0</pdop><geoidheight>50.60</geoidheight><course>255.85577</course><type>1</type></trkpt>
      <trkpt lat="39.15333104207292" lon="-6.311716844356324"><ele>2011</ele><speed>8.69</speed><time>2016-06-01T14:33:12Z</time><pdop>6.0</pdop><geoidheight>50.60</geoidheight><course>255.85376</course><type>1</type></trkpt>
      <trkpt lat="39.15329323359229" lon="-6.311919400331484"><ele>2012</ele><speed>8.60</speed><time>2016-06-01T14:33:14Z</time><pdop>6.0</pdop><geoidheight>50.60</geoidheight><course>253.10031</course><type>1</type></trkpt>
      <trkpt lat="39.15323762684004" lon="-6.312125418403545"><ele>2012</ele><speed>10.24</speed><time>2016-06-01T14:33:16Z</time><pdop>8.0</pdop><geoidheight>50.60</geoidheight><course>248.40092</course><type>1</type></trkpt>
      <trkpt lat="39.153170870098315" lon="-6.312344825876813"><ele>2012</ele><speed>10.96</speed><time>2016-06-01T14:33:18Z</time><pdop>6.0</pdop><geoidheight>50.60</geoidheight><course>248.0881</course><type>1</type></trkpt>
      <trkpt lat="39.153100191598725" lon="-6.312558787384329"><ele>2012</ele><speed>10.11</speed><time>2016-06-01T14:33:20Z</time><pdop>6.0</pdop><geoidheight>50.60</geoidheight><course>248.11963</course><type>1</type></trkpt>
      <trkpt lat="39.1530225649829" lon="-6.31277244565291"><ele>2012</ele><speed>10.18</speed><time>2016-06-01T14:33:22Z</time><pdop>6.0</pdop><geoidheight>50.60</geoidheight><course>245.43958</course><type>1</type></trkpt>
      <trkpt lat="39.152908398189076" lon="-6.312962556628504"><ele>2012</ele><speed>10.02</speed><time>2016-06-01T14:33:25Z</time><pdop>6.0</pdop><geoidheight>50.60</geoidheight><course>229.58096</course><type>1</type></trkpt>
      <trkpt lat="39.152800082358716" lon="-6.313105311079864"><ele>2012</ele><speed>8.80</speed><time>2016-06-01T14:33:26Z</time><pdop>6.0</pdop><geoidheight>50.60</geoidheight><course>223.99263</course><type>1</type></trkpt>
      <trkpt lat="39.15268107493414" lon="-6.313243483586148"><ele>2013</ele><speed>8.66</speed><time>2016-06-01T14:33:28Z</time><pdop>6.0</pdop><geoidheight>50.60</geoidheight><course>219.52872</course><type>1</type></trkpt>
      <trkpt lat="39.152492444542666" lon="-6.3132814502207575"><ele>2014</ele><speed>11.24</speed><time>2016-06-01T14:33:30Z</time><pdop>8.0</pdop><geoidheight>50.60</geoidheight><course>178.12273</course><type>1</type></trkpt>
      <trkpt lat="39.15222537594731" lon="-6.313175499855079"><ele>2017</ele><speed>9.45</speed><time>2016-06-01T14:33:33Z</time><pdop>6.0</pdop><geoidheight>50.60</geoidheight><course>147.56844</course><type>1</type></trkpt>
      <trkpt lat="39.152124163784386" lon="-6.31304625684988"><ele>2019</ele><speed>7.61</speed><time>2016-06-01T14:33:35Z</time><pdop>6.0</pdop><geoidheight>50.60</geoidheight><course>127.258675</course><type>1</type></trkpt>
      <trkpt lat="39.15208413643198" lon="-6.312876847763623"><ele>2021</ele><speed>7.23</speed><time>2016-06-01T14:33:37Z</time><pdop>8.0</pdop><geoidheight>50.60</geoidheight><course>93.61025</course><type>1</type></trkpt>
      <trkpt lat="39.15208880124347" lon="-6.312711574641597"><ele>2024</ele><speed>6.92</speed><time>2016-06-01T14:33:39Z</time><pdop>6.0</pdop><geoidheight>50.60</geoidheight><course>74.572914</course><type>1</type></trkpt>
      <trkpt lat="39.15214307003279" lon="-6.312567125786921"><ele>2027</ele><speed>7.30</speed><time>2016-06-01T14:33:41Z</time><pdop>6.0</pdop><geoidheight>50.60</geoidheight><course>47.999702</course><type>1</type></trkpt>
      <trkpt lat="39.152307035901806" lon="-6.312431413492173"><ele>2031</ele><speed>5.97</speed><time>2016-06-01T14:33:44Z</time><pdop>12.0</pdop><geoidheight>50.60</geoidheight><course>18.542143</course><type>1</type></trkpt>
      <trkpt lat="39.15256554649208" lon="-6.312556025400181"><ele>2037</ele><speed>10.58</speed><time>2016-06-01T14:33:49Z</time><pdop>16.0</pdop><geoidheight>50.60</geoidheight><course>308.31168</course><type>1</type></trkpt>
      <trkpt lat="39.15269938788668" lon="-6.312903673970291"><ele>2039</ele><speed>7.96</speed><time>2016-06-01T14:33:54Z</time><pdop>12.0</pdop><geoidheight>50.60</geoidheight><course>290.6611</course><type>1</type></trkpt>
      <trkpt lat="39.15269904292674" lon="-6.313196714472014"><ele>2043</ele><speed>9.50</speed><time>2016-06-01T14:33:56Z</time><pdop>8.0</pdop><geoidheight>50.60</geoidheight><course>259.5648</course><type>1</type></trkpt>
      <trkpt lat="39.15256958577044" lon="-6.313424675937455"><ele>2046</ele><speed>8.28</speed><time>2016-06-01T14:33:59Z</time><pdop>6.0</pdop><geoidheight>50.60</geoidheight><course>209.34471</course><type>1</type></trkpt>
      <trkpt lat="39.15241933636885" lon="-6.3134882552923886"><ele>2048</ele><speed>10.48</speed><time>2016-06-01T14:34:01Z</time><pdop>6.0</pdop><geoidheight>50.60</geoidheight><course>191.03075</course><type>1</type></trkpt>
      <trkpt lat="39.15224064080357" lon="-6.313455820123422"><ele>2048</ele><speed>10.27</speed><time>2016-06-01T14:34:03Z</time><pdop>6.0</pdop><geoidheight>50.60</geoidheight><course>165.57246</course><type>1</type></trkpt>
      <trkpt lat="39.15210531056977" lon="-6.313295150835497"><ele>2047</ele><speed>11.07</speed><time>2016-06-01T14:34:05Z</time><pdop>6.0</pdop><geoidheight>50.60</geoidheight><course>125.344444</course><type>1</type></trkpt>
      <trkpt lat="39.15204587410795" lon="-6.313116864331223"><ele>2047</ele><speed>8.16</speed><time>2016-06-01T14:34:08Z</time><pdop>6.0</pdop><geoidheight>50.60</geoidheight><course>98.33422</course><type>1</type></trkpt>
      <trkpt lat="39.15206600419853" lon="-6.312878061191777"><ele>2048</ele><speed>6.76</speed><time>2016-06-01T14:34:10Z</time><pdop>12.0</pdop><geoidheight>50.60</geoidheight><course>73.612686</course><type>1</type></trkpt>
      <trkpt lat="39.152299986678045" lon="-6.312719581733009"><ele>2050</ele><speed>7.18</speed><time>2016-06-01T14:34:14Z</time><pdop>12.0</pdop><geoidheight>50.60</geoidheight><course>1.5938386</course><type>1</type></trkpt>
      <trkpt lat="39.152450059536704" lon="-6.312909827069718"><ele>2055</ele><speed>9.17</speed><time>2016-06-01T14:34:18Z</time><pdop>8.0</pdop><geoidheight>50.60</geoidheight><course>299.33337</course><type>1</type></trkpt>
      <trkpt lat="39.15242589029089" lon="-6.313237616151308"><ele>2060</ele><speed>11.51</speed><time>2016-06-01T14:34:21Z</time><pdop>8.0</pdop><geoidheight>50.60</geoidheight><course>236.23347</course><type>1</type></trkpt>
      <trkpt lat="39.152199191003696" lon="-6.3134073144907905"><ele>2063</ele><speed>9.41</speed><time>2016-06-01T14:34:24Z</time><pdop>6.0</pdop><geoidheight>50.60</geoidheight><course>197.58278</course><type>1</type></trkpt>
      <trkpt lat="39.152033429874415" lon="-6.3134492516122975"><ele>2064</ele><speed>9.52</speed><time>2016-06-01T14:34:26Z</time><pdop>6.0</pdop><geoidheight>50.60</geoidheight><course>178.98521</course><type>1</type></trkpt>
      <trkpt lat="39.15187069683676" lon="-6.313336712371442"><ele>2064</ele><speed>12.06</speed><time>2016-06-01T14:34:28Z</time><pdop>8.0</pdop><geoidheight>50.60</geoidheight><course>133.76823</course><type>1</type></trkpt>
      <trkpt lat="39.15181860148157" lon="-6.313101300668768"><ele>2062</ele><speed>11.80</speed><time>2016-06-01T14:34:31Z</time><pdop>8.0</pdop><geoidheight>50.60</geoidheight><course>95.08327</course><type>1</type></trkpt>
      <trkpt lat="39.151808367909155" lon="-6.312902639395314"><ele>2062</ele><speed>9.07</speed><time>2016-06-01T14:34:32Z</time><pdop>8.0</pdop><geoidheight>50.60</geoidheight><course>89.19455</course><type>1</type></trkpt>
      <trkpt lat="39.15182366755051" lon="-6.312704627053822"><ele>2062</ele><speed>7.94</speed><time>2016-06-01T14:34:34Z</time><pdop>8.0</pdop><geoidheight>50.60</geoidheight><course>74.42135</course><type>1</type></trkpt>
      <trkpt lat="39.1519554262095" lon="-6.31247584833591"><ele>2063</ele><speed>6.76</speed><time>2016-06-01T14:34:38Z</time><pdop>6.0</pdop><geoidheight>50.60</geoidheight><course>28.273592</course><type>1</type></trkpt>
      <trkpt lat="39.152127719140466" lon="-6.312456247190814"><ele>2068</ele><speed>7.05</speed><time>2016-06-01T14:34:40Z</time><pdop>12.0</pdop><geoidheight>50.60</geoidheight><course>337.13123</course><type>1</type></trkpt>
      <trkpt lat="39.15222509564102" lon="-6.312694241555232"><ele>2074</ele><speed>9.77</speed><time>2016-06-01T14:34:43Z</time><pdop>8.0</pdop><geoidheight>50.60</geoidheight><course>279.2807</course><type>1</type></trkpt>
      <trkpt lat="39.152213597010814" lon="-6.312904735870534"><ele>2078</ele><speed>8.59</speed><time>2016-06-01T14:34:45Z</time><pdop>6.0</pdop><geoidheight>50.60</geoidheight><course>251.87207</course><type>1</type></trkpt>
      <trkpt lat="39.15211253953887" lon="-6.313032680659361"><ele>2080</ele><speed>7.57</speed><time>2016-06-01T14:34:47Z</time><pdop>6.0</pdop><geoidheight>50.60</geoidheight><course>212.68217</course><type>1</type></trkpt>
      <trkpt lat="39.151977624006705" lon="-6.313157585822294"><ele>2081</ele><speed>9.30</speed><time>2016-06-01T14:34:49Z</time><pdop>8.0</pdop><geoidheight>50.60</geoidheight><course>214.38342</course><type>1</type></trkpt>
      <trkpt lat="39.15183380001611" lon="-6.31327689033006"><ele>2081</ele><speed>11.32</speed><time>2016-06-01T14:34:51Z</time><pdop>8.0</pdop><geoidheight>50.60</geoidheight><course>209.54195</course><type>1</type></trkpt>
      <trkpt lat="39.15164730614242" lon="-6.313280925879274"><ele>2081</ele><speed>11.04</speed><time>2016-06-01T14:34:53Z</time><pdop>8.0</pdop><geoidheight>50.60</geoidheight><course>171.92203</course><type>1</type></trkpt>
      <trkpt lat="39.151504129411904" lon="-6.313157549588221"><ele>2082</ele><speed>10.05</speed><time>2016-06-01T14:34:55Z</time><pdop>6.0</pdop><geoidheight>50.60</geoidheight><course>135.27724</course><type>1</type></trkpt>
      <trkpt lat="39.1513837367241" lon="-6.312992243217479"><ele>2083</ele><speed>9.89</speed><time>2016-06-01T14:34:57Z</time><pdop>8.0</pdop><geoidheight>50.60</geoidheight><course>128.63556</course><type>1</type></trkpt>
      <trkpt lat="39.151318711525654" lon="-6.312770973696636"><ele>2084</ele><speed>10.26</speed><time>2016-06-01T14:34:59Z</time><pdop>8.0</pdop><geoidheight>50.60</geoidheight><course>107.80003</course><type>1</type></trkpt>
      <trkpt lat="39.15134990431287" lon="-6.312537958718457"><ele>2087</ele><speed>8.89</speed><time>2016-06-01T14:35:01Z</time><pdop>12.0</pdop><geoidheight>50.60</geoidheight><course>75.57533</course><type>1</type></trkpt>
      <trkpt lat="39.151484158984935" lon="-6.312337139386465"><ele>2089</ele><speed>7.11</speed><time>2016-06-01T14:35:05Z</time><pdop>8.0</pdop><geoidheight>50.60</geoidheight><course>31.606018</course><type>1</type></trkpt>
      <trkpt lat="39.15163722857356" lon="-6.312361719433973"><ele>2091</ele><speed>8.99</speed><time>2016-06-01T14:35:06Z</time><pdop>8.0</pdop><geoidheight>50.60</geoidheight><course>341.20245</course><type>1</type></trkpt>
      <trkpt lat="39.15174338933484" lon="-6.3124935976601915"><ele>2093</ele><speed>9.72</speed><time>2016-06-01T14:35:08Z</time><pdop>8.0</pdop><geoidheight>50.60</geoidheight><course>311.4502</course><type>1</type></trkpt>
      <trkpt lat="39.15180337906857" lon="-6.312708747758554"><ele>2095</ele><speed>9.58</speed><time>2016-06-01T14:35:10Z</time><pdop>8.0</pdop><geoidheight>50.60</geoidheight><course>290.04678</course><type>1</type></trkpt>
      <trkpt lat="39.15185854516913" lon="-6.312887229928173"><ele>2098</ele><speed>6.46</speed><time>2016-06-01T14:35:12Z</time><pdop>8.0</pdop><geoidheight>50.60</geoidheight><course>294.5078</course><type>1</type></trkpt>
      <trkpt lat="39.15197606174901" lon="-6.313085981970111"><ele>2101</ele><speed>9.46</speed><time>2016-06-01T14:35:15Z</time><pdop>8.0</pdop><geoidheight>50.60</geoidheight><course>308.30826</course><type>1</type></trkpt>
      <trkpt lat="39.15210175155132" lon="-6.313390058337796"><ele>2100</ele><speed>7.91</speed><time>2016-06-01T14:35:18Z</time><pdop>16.0</pdop><geoidheight>50.60</geoidheight><course>292.10416</course><type>1</type></trkpt>
      <trkpt lat="39.152196988056374" lon="-6.313734339402077"><ele>2100</ele><speed>9.99</speed><time>2016-06-01T14:35:22Z</time><pdop>12.0</pdop><geoidheight>50.60</geoidheight><course>286.1815</course><type>1</type></trkpt>
      <trkpt lat="39.15226462978778" lon="-6.314003064248876"><ele>2101</ele><speed>8.21</speed><time>2016-06-01T14:35:25Z</time><pdop>12.0</pdop><geoidheight>50.60</geoidheight><course>286.71515</course><type>1</type></trkpt>
      <trkpt lat="39.152337127985156" lon="-6.314278149213978"><ele>2098</ele><speed>9.59</speed><time>2016-06-01T14:35:28Z</time><pdop>12.0</pdop><geoidheight>50.60</geoidheight><course>290.02603</course><type>1</type></trkpt>
      <trkpt lat="39.15248022288938" lon="-6.3145972784946585"><ele>2093</ele><speed>9.78</speed><time>2016-06-01T14:35:31Z</time><pdop>12.0</pdop><geoidheight>50.60</geoidheight><course>313.72824</course><type>1</type></trkpt>
      <trkpt lat="39.15264394728655" lon="-6.314820473832886"><ele>2088</ele><speed>9.41</speed><time>2016-06-01T14:35:34Z</time><pdop>12.0</pdop><geoidheight>50.60</geoidheight><course>295.4726</course><type>1</type></trkpt>
      <trkpt lat="39.15270769782403" lon="-6.3150925025688185"><ele>2082</ele><speed>9.29</speed><time>2016-06-01T14:35:37Z</time><pdop>12.0</pdop><geoidheight>50.60</geoidheight><course>276.44412</course><type>1</type></trkpt>
      <trkpt lat="39.152725681566054" lon="-6.315328251782446"><ele>2077</ele><speed>8.70</speed><time>2016-06-01T14:35:40Z</time><pdop>8.0</pdop><geoidheight>50.60</geoidheight><course>271.22455</course><type>1</type></trkpt>
      <trkpt lat="39.15273616584315" lon="-6.315624604944389"><ele>2071</ele><speed>9.12</speed><time>2016-06-01T14:35:43Z</time><pdop>6.0</pdop><geoidheight>50.60</geoidheight><course>270.6675</course><type>1</type></trkpt>
      <trkpt lat="39.15272600615954" lon="-6.315829394913265"><ele>2068</ele><speed>9.23</speed><time>2016-06-01T14:35:45Z</time><pdop>8.0</pdop><geoidheight>50.60</geoidheight><course>264.6074</course><type>1</type></trkpt>
      <trkpt lat="39.15271457575644" lon="-6.316044892834355"><ele>2064</ele><speed>10.26</speed><time>2016-06-01T14:35:47Z</time><pdop>6.0</pdop><geoidheight>50.60</geoidheight><course>266.8979</course><type>1</type></trkpt>
      <trkpt lat="39.152712881318074" lon="-6.316233986897615"><ele>2061</ele><speed>8.82</speed><time>2016-06-01T14:35:49Z</time><pdop>8.0</pdop><geoidheight>50.60</geoidheight><course>268.8232</course><type>1</type></trkpt>
      <trkpt lat="39.152718326836855" lon="-6.3165599360025215"><ele>2057</ele><speed>11.28</speed><time>2016-06-01T14:35:52Z</time><pdop>8.0</pdop><geoidheight>50.60</geoidheight><course>272.42072</course><type>1</type></trkpt>
      <trkpt lat="39.152761979028185" lon="-6.316851119937632"><ele>2051</ele><speed>7.72</speed><time>2016-06-01T14:35:55Z</time><pdop>12.0</pdop><geoidheight>50.60</geoidheight><course>277.56396</course><type>1</type></trkpt>
      <trkpt lat="39.15279117934" lon="-6.317139487618189"><ele>2046</ele><speed>10.15</speed><time>2016-06-01T14:35:58Z</time><pdop>12.0</pdop><geoidheight>50.60</geoidheight><course>276.07315</course><type>1</type></trkpt>
      <trkpt lat="39.152818483021655" lon="-6.317455656538093"><ele>2041</ele><speed>8.41</speed><time>2016-06-01T14:36:01Z</time><pdop>8.0</pdop><geoidheight>50.60</geoidheight><course>273.1358</course><type>1</type></trkpt>
      <trkpt lat="39.15280825237627" lon="-6.317740026635226"><ele>2037</ele><speed>8.92</speed><time>2016-06-01T14:36:04Z</time><pdop>12.0</pdop><geoidheight>50.60</geoidheight><course>263.50983</course><type>1</type></trkpt>
      <trkpt lat="39.15279199676123" lon="-6.318066030136185"><ele>2033</ele><speed>10.50</speed><time>2016-06-01T14:36:07Z</time><pdop>8.0</pdop><geoidheight>50.60</geoidheight><course>264.02676</course><type>1</type></trkpt>
      <trkpt lat="39.15275711249482" lon="-6.3183851407450184"><ele>2030</ele><speed>9.04</speed><time>2016-06-01T14:36:10Z</time><pdop>16.0</pdop><geoidheight>50.60</geoidheight><course>263.24973</course><type>1</type></trkpt>
      <trkpt lat="39.15275285173756" lon="-6.3188054673538065"><ele>2028</ele><speed>10.31</speed><time>2016-06-01T14:36:15Z</time><pdop>12.0</pdop><geoidheight>50.60</geoidheight><course>269.74673</course><type>1</type></trkpt>
      <trkpt lat="39.15279564470791" lon="-6.319103651742131"><ele>2029</ele><speed>9.06</speed><time>2016-06-01T14:36:17Z</time><pdop>8.0</pdop><geoidheight>50.60</geoidheight><course>286.79413</course><type>1</type></trkpt>
      <trkpt lat="39.15285250808742" lon="-6.319321728772421"><ele>2028</ele><speed>10.05</speed><time>2016-06-01T14:36:19Z</time><pdop>8.0</pdop><geoidheight>50.60</geoidheight><course>287.48236</course><type>1</type></trkpt>
      <trkpt lat="39.15291938162901" lon="-6.3197180278123275"><ele>2030</ele><speed>8.75</speed><time>2016-06-01T14:36:23Z</time><pdop>16.0</pdop><geoidheight>50.60</geoidheight><course>283.829</course><type>1</type></trkpt>
      <trkpt lat="39.152973919755794" lon="-6.320043034597494"><ele>2032</ele><speed>10.08</speed><time>2016-06-01T14:36:26Z</time><pdop>12.0</pdop><geoidheight>50.60</geoidheight><course>282.32138</course><type>1</type></trkpt>
      <trkpt lat="39.153007173293524" lon="-6.320308506304257"><ele>2034</ele><speed>9.92</speed><time>2016-06-01T14:36:28Z</time><pdop>8.0</pdop><geoidheight>50.60</geoidheight><course>277.7576</course><type>1</type></trkpt>
      <trkpt lat="39.15301878763375" lon="-6.320555167273069"><ele>2037</ele><speed>9.29</speed><time>2016-06-01T14:36:30Z</time><pdop>8.0</pdop><geoidheight>50.60</geoidheight><course>272.42844</course><type>1</type></trkpt>
      <trkpt lat="39.15301644572536" lon="-6.3208056845438465"><ele>2039</ele><speed>11.62</speed><time>2016-06-01T14:36:32Z</time><pdop>8.0</pdop><geoidheight>50.60</geoidheight><course>271.20337</course><type>1</type></trkpt>
      <trkpt lat="39.15301585554099" lon="-6.3210875304243785"><ele>2040</ele><speed>11.68</speed><time>2016-06-01T14:36:34Z</time><pdop>8.0</pdop><geoidheight>50.60</geoidheight><course>270.99243</course><type>1</type></trkpt>
      <trkpt lat="39.15301559252272" lon="-6.32134339816038"><ele>2041</ele><speed>10.69</speed><time>2016-06-01T14:36:36Z</time><pdop>8.0</pdop><geoidheight>50.60</geoidheight><course>269.3066</course><type>1</type></trkpt>
      <trkpt lat="39.15299461711926" lon="-6.321594498904192"><ele>2042</ele><speed>10.64</speed><time>2016-06-01T14:36:38Z</time><pdop>8.0</pdop><geoidheight>50.60</geoidheight><course>264.66116</course><type>1</type></trkpt>
      <trkpt lat="39.152951179907824" lon="-6.321853004961799"><ele>2042</ele><speed>11.27</speed><time>2016-06-01T14:36:40Z</time><pdop>6.0</pdop><geoidheight>50.60</geoidheight><course>260.18658</course><type>1</type></trkpt>
      <trkpt lat="39.15289344948495" lon="-6.322167613824978"><ele>2041</ele><speed>13.99</speed><time>2016-06-01T14:36:42Z</time><pdop>8.0</pdop><geoidheight>50.60</geoidheight><course>258.42203</course><type>1</type></trkpt>
      <trkpt lat="39.15286269916952" lon="-6.322424182916824"><ele>2040</ele><speed>11.36</speed><time>2016-06-01T14:36:44Z</time><pdop>8.0</pdop><geoidheight>50.60</geoidheight><course>260.7835</course><type>1</type></trkpt>
      <trkpt lat="39.15282839845815" lon="-6.322640058721368"><ele>2038</ele><speed>9.59</speed><time>2016-06-01T14:36:46Z</time><pdop>8.0</pdop><geoidheight>50.60</geoidheight><course>256.54898</course><type>1</type></trkpt>
      <trkpt lat="39.15278078439315" lon="-6.322885628645624"><ele>2036</ele><speed>12.43</speed><time>2016-06-01T14:36:48Z</time><pdop>12.0</pdop><geoidheight>50.60</geoidheight><course>256.2498</course><type>1</type></trkpt>
      <trkpt lat="39.15273875654373" lon="-6.323204869055371"><ele>2032</ele><speed>15.32</speed><time>2016-06-01T14:36:50Z</time><pdop>12.0</pdop><geoidheight>50.60</geoidheight><course>259.21735</course><type>1</type></trkpt>
      <trkpt lat="39.15269519527126" lon="-6.323532261644889"><ele>2029</ele><speed>12.92</speed><time>2016-06-01T14:36:52Z</time><pdop>8.0</pdop><geoidheight>50.60</geoidheight><course>257.5238</course><type>1</type></trkpt>
      <trkpt lat="39.152633657121775" lon="-6.323952928061236"><ele>2026</ele><speed>14.34</speed><time>2016-06-01T14:36:55Z</time><pdop>8.0</pdop><geoidheight>50.60</geoidheight><course>257.59775</course><type>1</type></trkpt>
      <trkpt lat="39.15258374844229" lon="-6.324239078987571"><ele>2023</ele><speed>13.45</speed><time>2016-06-01T14:36:57Z</time><pdop>8.0</pdop><geoidheight>50.60</geoidheight><course>256.1625</course><type>1</type></trkpt>
      <trkpt lat="39.152524064997365" lon="-6.324535734649553"><ele>2022</ele><speed>13.88</speed><time>2016-06-01T14:36:59Z</time><pdop>12.0</pdop><geoidheight>50.60</geoidheight><course>254.59857</course><type>1</type></trkpt>
      <trkpt lat="39.15245796813705" lon="-6.324826456311198"><ele>2020</ele><speed>13.40</speed><time>2016-06-01T14:37:01Z</time><pdop>8.0</pdop><geoidheight>50.60</geoidheight><course>252.59863</course><type>1</type></trkpt>
      <trkpt lat="39.15238254506882" lon="-6.325109999063306"><ele>2019</ele><speed>13.11</speed><time>2016-06-01T14:37:03Z</time><pdop>8.0</pdop><geoidheight>50.60</geoidheight><course>250.02866</course><type>1</type></trkpt>
      <trkpt lat="39.15230159150573" lon="-6.3254237580148"><ele>2018</ele><speed>14.26</speed><time>2016-06-01T14:37:06Z</time><pdop>8.0</pdop><geoidheight>50.60</geoidheight><course>251.81708</course><type>1</type></trkpt>
      <trkpt lat="39.15223512522416" lon="-6.325739972148789"><ele>2017</ele><speed>14.51</speed><time>2016-06-01T14:37:08Z</time><pdop>8.0</pdop><geoidheight>50.60</geoidheight><course>255.01088</course><type>1</type></trkpt>
      <trkpt lat="39.15217374378819" lon="-6.32604284051656"><ele>2017</ele><speed>13.91</speed><time>2016-06-01T14:37:09Z</time><pdop>8.0</pdop><geoidheight>50.60</geoidheight><course>257.04944</course><type>1</type></trkpt>
      <trkpt lat="39.15212762161877" lon="-6.326340369156991"><ele>2016</ele><speed>13.72</speed><time>2016-06-01T14:37:12Z</time><pdop>8.0</pdop><geoidheight>50.60</geoidheight><course>259.61176</course><type>1</type></trkpt>
      <trkpt lat="39.15209874172238" lon="-6.326637746758941"><ele>2014</ele><speed>13.82</speed><time>2016-06-01T14:37:14Z</time><pdop>8.0</pdop><geoidheight>50.60</geoidheight><course>260.02515</course><type>1</type></trkpt>
      <trkpt lat="39.152073450523645" lon="-6.326930040741322"><ele>2011</ele><speed>13.11</speed><time>2016-06-01T14:37:16Z</time><pdop>12.0</pdop><geoidheight>50.60</geoidheight><course>259.8576</course><type>1</type></trkpt>
      <trkpt lat="39.15204304796849" lon="-6.327213556716077"><ele>2009</ele><speed>12.93</speed><time>2016-06-01T14:37:18Z</time><pdop>8.0</pdop><geoidheight>50.60</geoidheight><course>259.9995</course><type>1</type></trkpt>
      <trkpt lat="39.15200871917554" lon="-6.327486762774416"><ele>2007</ele><speed>12.12</speed><time>2016-06-01T14:37:20Z</time><pdop>6.0</pdop><geoidheight>50.60</geoidheight><course>261.07596</course><type>1</type></trkpt>
      <trkpt lat="39.15201531838237" lon="-6.3277445069586475"><ele>2005</ele><speed>11.44</speed><time>2016-06-01T14:37:22Z</time><pdop>6.0</pdop><geoidheight>50.60</geoidheight><course>278.85712</course><type>1</type></trkpt>
      <trkpt lat="39.152051717175425" lon="-6.328004133346038"><ele>2002</ele><speed>11.84</speed><time>2016-06-01T14:37:24Z</time><pdop>8.0</pdop><geoidheight>50.60</geoidheight><course>277.67413</course><type>1</type></trkpt>
      <trkpt lat="39.152064805672744" lon="-6.32828184561147"><ele>1999</ele><speed>12.67</speed><time>2016-06-01T14:37:26Z</time><pdop>8.0</pdop><geoidheight>50.60</geoidheight><course>271.79727</course><type>1</type></trkpt>
      <trkpt lat="39.15206650631557" lon="-6.3285941167005095"><ele>1995</ele><speed>14.10</speed><time>2016-06-01T14:37:28Z</time><pdop>8.0</pdop><geoidheight>50.60</geoidheight><course>269.62677</course><type>1</type></trkpt>
      <trkpt lat="39.15205164153679" lon="-6.3288934182009635"><ele>1992</ele><speed>13.14</speed><time>2016-06-01T14:37:30Z</time><pdop>8.0</pdop><geoidheight>50.60</geoidheight><course>266.69916</course><type>1</type></trkpt>
      <trkpt lat="39.152025216142455" lon="-6.3291662143114555"><ele>1989</ele><speed>11.73</speed><time>2016-06-01T14:37:31Z</time><pdop>8.0</pdop><geoidheight>50.60</geoidheight><course>263.95154</course><type>1</type></trkpt>
      <trkpt lat="39.15201354824947" lon="-6.329446768947532"><ele>1985</ele><speed>12.42</speed><time>2016-06-01T14:37:34Z</time><pdop>8.0</pdop><geoidheight>50.60</geoidheight><course>270.14178</course><type>1</type></trkpt>
      <trkpt lat="39.15201653399415" lon="-6.329754246650479"><ele>1981</ele><speed>13.41</speed><time>2016-06-01T14:37:36Z</time><pdop>6.0</pdop><geoidheight>50.60</geoidheight><course>270.48145</course><type>1</type></trkpt>
      <trkpt lat="39.15201597690316" lon="-6.329894440885428"><ele>1979</ele><speed>12.58</speed><time>2016-06-01T14:37:37Z</time><pdop>6.0</pdop><geoidheight>50.60</geoidheight><course>269.29526</course><type>1</type></trkpt>
      <trkpt lat="39.152063774614376" lon="-6.330246672630823"><ele>1974</ele><speed>10.85</speed><time>2016-06-01T14:37:39Z</time><pdop>16.0</pdop><geoidheight>50.60</geoidheight><course>285.13712</course><type>1</type></trkpt>
      <trkpt lat="39.15210728843694" lon="-6.330497393491969"><ele>1972</ele><speed>11.07</speed><time>2016-06-01T14:37:42Z</time><pdop>6.0</pdop><geoidheight>50.60</geoidheight><course>281.62003</course><type>1</type></trkpt>
      <trkpt lat="39.15212927056957" lon="-6.330781311174496"><ele>1968</ele><speed>11.90</speed><time>2016-06-01T14:37:44Z</time><pdop>6.0</pdop><geoidheight>50.60</geoidheight><course>275.83246</course><type>1</type></trkpt>
      <trkpt lat="39.15213192691894" lon="-6.330923590521853"><ele>1967</ele><speed>12.59</speed><time>2016-06-01T14:37:45Z</time><pdop>6.0</pdop><geoidheight>50.60</geoidheight><course>273.44684</course><type>1</type></trkpt>
      <trkpt lat="39.15213255499729" lon="-6.331069464745829"><ele>1964</ele><speed>13.33</speed><time>2016-06-01T14:37:46Z</time><pdop>6.0</pdop><geoidheight>50.60</geoidheight><course>271.96292</course><type>1</type></trkpt>
      <trkpt lat="39.152132409690076" lon="-6.331216029070031"><ele>1962</ele><speed>13.29</speed><time>2016-06-01T14:37:47Z</time><pdop>6.0</pdop><geoidheight>50.60</geoidheight><course>271.23834</course><type>1</type></trkpt>
      <trkpt lat="39.15213836510162" lon="-6.331478168594765"><ele>1957</ele><speed>11.49</speed><time>2016-06-01T14:37:49Z</time><pdop>6.0</pdop><geoidheight>50.60</geoidheight><course>272.56592</course><type>1</type></trkpt>
      <trkpt lat="39.152141202827224" lon="-6.331737079376593"><ele>1952</ele><speed>12.24</speed><time>2016-06-01T14:37:51Z</time><pdop>6.0</pdop><geoidheight>50.60</geoidheight><course>270.75946</course><type>1</type></trkpt>
      <trkpt lat="39.152137362092525" lon="-6.331994104711389"><ele>1947</ele><speed>11.10</speed><time>2016-06-01T14:37:53Z</time><pdop>8.0</pdop><geoidheight>50.60</geoidheight><course>269.3045</course><type>1</type></trkpt>
      <trkpt lat="39.152127976945266" lon="-6.332226044495326"><ele>1942</ele><speed>9.68</speed><time>2016-06-01T14:37:55Z</time><pdop>8.0</pdop><geoidheight>50.60</geoidheight><course>267.63058</course><type>1</type></trkpt>
      <trkpt lat="39.152130102987954" lon="-6.332443826741435"><ele>1939</ele><speed>10.02</speed><time>2016-06-01T14:37:57Z</time><pdop>6.0</pdop><geoidheight>50.60</geoidheight><course>272.3332</course><type>1</type></trkpt>
      <trkpt lat="39.1521512279013" lon="-6.332673441999388"><ele>1936</ele><speed>10.58</speed><time>2016-06-01T14:37:59Z</time><pdop>6.0</pdop><geoidheight>50.60</geoidheight><course>273.6212</course><type>1</type></trkpt>
      <trkpt lat="39.15216456241941" lon="-6.332900444495379"><ele>1933</ele><speed>11.00</speed><time>2016-06-01T14:38:01Z</time><pdop>6.0</pdop><geoidheight>50.60</geoidheight><course>270.05716</course><type>1</type></trkpt>
      <trkpt lat="39.152201750436674" lon="-6.333115386765521"><ele>1930</ele><speed>10.61</speed><time>2016-06-01T14:38:03Z</time><pdop>6.0</pdop><geoidheight>50.60</geoidheight><course>289.93567</course><type>1</type></trkpt>
      <trkpt lat="39.152304886891955" lon="-6.333301205920593"><ele>1927</ele><speed>10.38</speed><time>2016-06-01T14:38:05Z</time><pdop>8.0</pdop><geoidheight>50.60</geoidheight><course>309.83612</course><type>1</type></trkpt>
      <trkpt lat="39.152419426229635" lon="-6.333470457475039"><ele>1923</ele><speed>10.15</speed><time>2016-06-01T14:38:06Z</time><pdop>6.0</pdop><geoidheight>50.60</geoidheight><course>314.49612</course><type>1</type></trkpt>
      <trkpt lat="39.152574391824736" lon="-6.33363841186897"><ele>1919</ele><speed>10.87</speed><time>2016-06-01T14:38:09Z</time><pdop>16.0</pdop><geoidheight>50.60</geoidheight><course>321.08948</course><type>1</type></trkpt>
      <trkpt lat="39.15281813215531" lon="-6.333830593621148"><ele>1911</ele><speed>10.63</speed><time>2016-06-01T14:38:12Z</time><pdop>8.0</pdop><geoidheight>50.60</geoidheight><course>326.47836</course><type>1</type></trkpt>
      <trkpt lat="39.15298501938728" lon="-6.333946462751287"><ele>1906</ele><speed>10.56</speed><time>2016-06-01T14:38:14Z</time><pdop>8.0</pdop><geoidheight>50.60</geoidheight><course>328.23132</course><type>1</type></trkpt>
      <trkpt lat="39.153144368882614" lon="-6.334069777477847"><ele>1900</ele><speed>11.47</speed><time>2016-06-01T14:38:16Z</time><pdop>8.0</pdop><geoidheight>50.60</geoidheight><course>324.10953</course><type>1</type></trkpt>
      <trkpt lat="39.15329464854065" lon="-6.3342304671355585"><ele>1896</ele><speed>11.12</speed><time>2016-06-01T14:38:18Z</time><pdop>8.0</pdop><geoidheight>50.60</geoidheight><course>318.78754</course><type>1</type></trkpt>
      <trkpt lat="39.15343820689312" lon="-6.334398358474416"><ele>1893</ele><speed>10.90</speed><time>2016-06-01T14:38:20Z</time><pdop>8.0</pdop><geoidheight>50.60</geoidheight><course>317.40308</course><type>1</type></trkpt>
      <trkpt lat="39.153576912073696" lon="-6.334581421862701"><ele>1890</ele><speed>11.10</speed><time>2016-06-01T14:38:22Z</time><pdop>6.0</pdop><geoidheight>50.60</geoidheight><course>314.01477</course><type>1</type></trkpt>
      <trkpt lat="39.153718721901896" lon="-6.334756307927938"><ele>1888</ele><speed>10.50</speed><time>2016-06-01T14:38:24Z</time><pdop>8.0</pdop><geoidheight>50.60</geoidheight><course>317.69586</course><type>1</type></trkpt>
      <trkpt lat="39.15392104214562" lon="-6.335010004593006"><ele>1884</ele><speed>10.99</speed><time>2016-06-01T14:38:27Z</time><pdop>12.0</pdop><geoidheight>50.60</geoidheight><course>311.93912</course><type>1</type></trkpt>
      <trkpt lat="39.15412620376281" lon="-6.335262005486168"><ele>1878</ele><speed>10.56</speed><time>2016-06-01T14:38:30Z</time><pdop>8.0</pdop><geoidheight>50.60</geoidheight><course>331.42126</course><type>1</type></trkpt>
      <trkpt lat="39.154381302368364" lon="-6.335448598409623"><ele>1873</ele><speed>10.51</speed><time>2016-06-01T14:38:32Z</time><pdop>8.0</pdop><geoidheight>50.60</geoidheight><course>328.88004</course><type>1</type></trkpt>
      <trkpt lat="39.15455402091896" lon="-6.33559167380955"><ele>1870</ele><speed>11.25</speed><time>2016-06-01T14:38:35Z</time><pdop>8.0</pdop><geoidheight>50.60</geoidheight><course>328.73682</course><type>1</type></trkpt>
      <trkpt lat="39.154697642435714" lon="-6.335687623049034"><ele>1867</ele><speed>9.07</speed><time>2016-06-01T14:38:37Z</time><pdop>6.0</pdop><geoidheight>50.60</geoidheight><course>332.18726</course><type>1</type></trkpt>
      <trkpt lat="39.154847026563885" lon="-6.3357873193387055"><ele>1863</ele><speed>10.22</speed><time>2016-06-01T14:38:38Z</time><pdop>8.0</pdop><geoidheight>50.60</geoidheight><course>328.3339</course><type>1</type></trkpt>
      <trkpt lat="39.1550185420839" lon="-6.335916902677207"><ele>1858</ele><speed>12.10</speed><time>2016-06-01T14:38:41Z</time><pdop>8.0</pdop><geoidheight>50.60</geoidheight><course>329.25598</course><type>1</type></trkpt>
      <trkpt lat="39.155186672093514" lon="-6.336014095746109"><ele>1854</ele><speed>10.37</speed><time>2016-06-01T14:38:43Z</time><pdop>6.0</pdop><geoidheight>50.60</geoidheight><course>334.70853</course><type>1</type></trkpt>
      <trkpt lat="39.15536095283793" lon="-6.33610579695836"><ele>1851</ele><speed>10.13</speed><time>2016-06-01T14:38:45Z</time><pdop>6.0</pdop><geoidheight>50.60</geoidheight><course>335.61307</course><type>1</type></trkpt>
      <trkpt lat="39.15553942835209" lon="-6.33618820518162"><ele>1846</ele><speed>10.73</speed><time>2016-06-01T14:38:47Z</time><pdop>6.0</pdop><geoidheight>50.60</geoidheight><course>336.31766</course><type>1</type></trkpt>
      <trkpt lat="39.15572327114454" lon="-6.336273941568771"><ele>1841</ele><speed>10.15</speed><time>2016-06-01T14:38:49Z</time><pdop>6.0</pdop><geoidheight>50.60</geoidheight><course>337.0618</course><type>1</type></trkpt>
      <trkpt lat="39.15589854179079" lon="-6.336356173703101"><ele>1836</ele><speed>10.85</speed><time>2016-06-01T14:38:51Z</time><pdop>6.0</pdop><geoidheight>50.60</geoidheight><course>335.87042</course><type>1</type></trkpt>
      <trkpt lat="39.15607987792303" lon="-6.336451197109185"><ele>1830</ele><speed>10.92</speed><time>2016-06-01T14:38:53Z</time><pdop>6.0</pdop><geoidheight>50.60</geoidheight><course>335.0334</course><type>1</type></trkpt>
      <trkpt lat="39.1562619632817" lon="-6.336551833994791"><ele>1824</ele><speed>10.33</speed><time>2016-06-01T14:38:55Z</time><pdop>8.0</pdop><geoidheight>50.60</geoidheight><course>333.68268</course><type>1</type></trkpt>
      <trkpt lat="39.156415264499415" lon="-6.336651718132459"><ele>1819</ele><speed>9.06</speed><time>2016-06-01T14:38:57Z</time><pdop>6.0</pdop><geoidheight>50.60</geoidheight><course>330.48846</course><type>1</type></trkpt>
      <trkpt lat="39.156558462212224" lon="-6.336768369600958"><ele>1813</ele><speed>10.33</speed><time>2016-06-01T14:38:59Z</time><pdop>12.0</pdop><geoidheight>50.60</geoidheight><course>327.33395</course><type>1</type></trkpt>
      <trkpt lat="39.156790700114904" lon="-6.3369526782437156"><ele>1803</ele><speed>9.66</speed><time>2016-06-01T14:39:02Z</time><pdop>8.0</pdop><geoidheight>50.60</geoidheight><course>325.9393</course><type>1</type></trkpt>
      <trkpt lat="39.156916830531785" lon="-6.337089939896574"><ele>1798</ele><speed>10.64</speed><time>2016-06-01T14:39:04Z</time><pdop>8.0</pdop><geoidheight>50.60</geoidheight><course>311.6225</course><type>1</type></trkpt>
      <trkpt lat="39.157074943834054" lon="-6.337250253763355"><ele>1792</ele><speed>11.17</speed><time>2016-06-01T14:39:06Z</time><pdop>8.0</pdop><geoidheight>50.60</geoidheight><course>329.05542</course><type>1</type></trkpt>
      <trkpt lat="39.157323016693795" lon="-6.337310758235737"><ele>1786</ele><speed>8.13</speed><time>2016-06-01T14:39:09Z</time><pdop>12.0</pdop><geoidheight>50.60</geoidheight><course>354.85883</course><type>1</type></trkpt>
      <trkpt lat="39.1575811280277" lon="-6.337343902759794"><ele>1779</ele><speed>10.30</speed><time>2016-06-01T14:39:11Z</time><pdop>8.0</pdop><geoidheight>50.60</geoidheight><course>348.02878</course><type>1</type></trkpt>
      <trkpt lat="39.15793126199016" lon="-6.337376791024774"><ele>1772</ele><speed>9.01</speed><time>2016-06-01T14:39:16Z</time><pdop>12.0</pdop><geoidheight>50.60</geoidheight><course>353.33527</course><type>1</type></trkpt>
      <trkpt lat="39.15822808017179" lon="-6.337382369905407"><ele>1768</ele><speed>10.73</speed><time>2016-06-01T14:39:19Z</time><pdop>12.0</pdop><geoidheight>50.60</geoidheight><course>353.17017</course><type>1</type></trkpt>
      <trkpt lat="39.15848213914453" lon="-6.3374206625468"><ele>1764</ele><speed>9.27</speed><time>2016-06-01T14:39:22Z</time><pdop>8.0</pdop><geoidheight>50.60</geoidheight><course>348.09558</course><type>1</type></trkpt>
      <trkpt lat="39.15864264151702" lon="-6.337454383943944"><ele>1761</ele><speed>10.30</speed><time>2016-06-01T14:39:24Z</time><pdop>8.0</pdop><geoidheight>50.60</geoidheight><course>345.58572</course><type>1</type></trkpt>
      <trkpt lat="39.15880741035244" lon="-6.337502794332979"><ele>1757</ele><speed>10.48</speed><time>2016-06-01T14:39:26Z</time><pdop>8.0</pdop><geoidheight>50.60</geoidheight><course>341.7786</course><type>1</type></trkpt>
      <trkpt lat="39.15897573158922" lon="-6.337557930851648"><ele>1754</ele><speed>9.01</speed><time>2016-06-01T14:39:28Z</time><pdop>8.0</pdop><geoidheight>50.60</geoidheight><course>340.39432</course><type>1</type></trkpt>
      <trkpt lat="39.15914491059662" lon="-6.33762936058429"><ele>1751</ele><speed>10.25</speed><time>2016-06-01T14:39:30Z</time><pdop>8.0</pdop><geoidheight>50.60</geoidheight><course>336.62427</course><type>1</type></trkpt>
      <trkpt lat="39.15931444740251" lon="-6.337726801467857"><ele>1747</ele><speed>9.74</speed><time>2016-06-01T14:39:32Z</time><pdop>12.0</pdop><geoidheight>50.60</geoidheight><course>332.18823</course><type>1</type></trkpt>
      <trkpt lat="39.159514585427" lon="-6.337860374663967"><ele>1743</ele><speed>8.14</speed><time>2016-06-01T14:39:35Z</time><pdop>6.0</pdop><geoidheight>50.60</geoidheight><course>327.67432</course><type>1</type></trkpt>
      <trkpt lat="39.159734082107214" lon="-6.338012872847452"><ele>1736</ele><speed>10.31</speed><time>2016-06-01T14:39:37Z</time><pdop>12.0</pdop><geoidheight>50.60</geoidheight><course>329.4482</course><type>1</type></trkpt>
      <trkpt lat="39.15997658674572" lon="-6.3381437669294005"><ele>1728</ele><speed>8.96</speed><time>2016-06-01T14:39:41Z</time><pdop>12.0</pdop><geoidheight>50.60</geoidheight><course>333.09143</course><type>1</type></trkpt>
      <trkpt lat="39.16014186437245" lon="-6.338220076256543"><ele>1722</ele><speed>10.41</speed><time>2016-06-01T14:39:43Z</time><pdop>6.0</pdop><geoidheight>50.60</geoidheight><course>330.80014</course><type>1</type></trkpt>
      <trkpt lat="39.16031217321841" lon="-6.338312060841415"><ele>1717</ele><speed>10.72</speed><time>2016-06-01T14:39:45Z</time><pdop>6.0</pdop><geoidheight>50.60</geoidheight><course>328.76724</course><type>1</type></trkpt>
      <trkpt lat="39.16047842555031" lon="-6.338388800549315"><ele>1712</ele><speed>9.49</speed><time>2016-06-01T14:39:47Z</time><pdop>6.0</pdop><geoidheight>50.60</geoidheight><course>332.2182</course><type>1</type></trkpt>
      <trkpt lat="39.16064453518245" lon="-6.338458497122815"><ele>1708</ele><speed>8.92</speed><time>2016-06-01T14:39:49Z</time><pdop>12.0</pdop><geoidheight>50.60</geoidheight><course>336.07846</course><type>1</type></trkpt>
      <trkpt lat="39.16086951132264" lon="-6.338615169081317"><ele>1703</ele><speed>10.71</speed><time>2016-06-01T14:39:52Z</time><pdop>8.0</pdop><geoidheight>50.60</geoidheight><course>318.65915</course><type>1</type></trkpt>
      <trkpt lat="39.16101368883425" lon="-6.338761479416911"><ele>1700</ele><speed>11.19</speed><time>2016-06-01T14:39:54Z</time><pdop>8.0</pdop><geoidheight>50.60</geoidheight><course>320.63553</course><type>1</type></trkpt>
      <trkpt lat="39.161179741631514" lon="-6.338858818977115"><ele>1698</ele><speed>9.82</speed><time>2016-06-01T14:39:55Z</time><pdop>12.0</pdop><geoidheight>50.60</geoidheight><course>335.29623</course><type>1</type></trkpt>
      <trkpt lat="39.16156144579601" lon="-6.339167445163454"><ele>1692</ele><speed>9.87</speed><time>2016-06-01T14:40:01Z</time><pdop>32.0</pdop><geoidheight>50.60</geoidheight><course>335.09064</course><type>1</type></trkpt>
      <trkpt lat="39.161969924251316" lon="-6.339291673878205"><ele>1679</ele><speed>10.75</speed><time>2016-06-01T14:40:06Z</time><pdop>12.0</pdop><geoidheight>50.60</geoidheight><course>336.9574</course><type>1</type></trkpt>
      <trkpt lat="39.162235115370116" lon="-6.339371029744537"><ele>1673</ele><speed>9.56</speed><time>2016-06-01T14:40:09Z</time><pdop>12.0</pdop><geoidheight>50.60</geoidheight><course>339.0796</course><type>1</type></trkpt>
      <trkpt lat="39.16251888253557" lon="-6.339355988639684"><ele>1664</ele><speed>9.57</speed><time>2016-06-01T14:40:12Z</time><pdop>8.0</pdop><geoidheight>50.60</geoidheight><course>340.82132</course><type>1</type></trkpt>
      <trkpt lat="39.16269010805145" lon="-6.33931586747166"><ele>1657</ele><speed>9.75</speed><time>2016-06-01T14:40:14Z</time><pdop>8.0</pdop><geoidheight>50.60</geoidheight><course>341.07358</course><type>1</type></trkpt>
      <trkpt lat="39.162847076107006" lon="-6.3393088438576175"><ele>1652</ele><speed>8.09</speed><time>2016-06-01T14:40:16Z</time><pdop>6.0</pdop><geoidheight>50.60</geoidheight><course>343.32004</course><type>1</type></trkpt>
      <trkpt lat="39.16300316812823" lon="-6.3393133130292085"><ele>1647</ele><speed>8.64</speed><time>2016-06-01T14:40:18Z</time><pdop>6.0</pdop><geoidheight>50.60</geoidheight><course>347.87152</course><type>1</type></trkpt>
      <trkpt lat="39.16318718271409" lon="-6.339321604886042"><ele>1642</ele><speed>10.39</speed><time>2016-06-01T14:40:20Z</time><pdop>6.0</pdop><geoidheight>50.60</geoidheight><course>349.3297</course><type>1</type></trkpt>
      <trkpt lat="39.16336672180024" lon="-6.33933252564518"><ele>1637</ele><speed>9.11</speed><time>2016-06-01T14:40:22Z</time><pdop>6.0</pdop><geoidheight>50.60</geoidheight><course>350.68317</course><type>1</type></trkpt>
      <trkpt lat="39.163539353768826" lon="-6.339344025397188"><ele>1633</ele><speed>9.32</speed><time>2016-06-01T14:40:24Z</time><pdop>8.0</pdop><geoidheight>50.60</geoidheight><course>350.84915</course><type>1</type></trkpt>
      <trkpt lat="39.163709811247855" lon="-6.339367348491558"><ele>1629</ele><speed>9.37</speed><time>2016-06-01T14:40:26Z</time><pdop>8.0</pdop><geoidheight>50.60</geoidheight><course>348.54074</course><type>1</type></trkpt>
      <trkpt lat="39.16386920973181" lon="-6.339408732630343"><ele>1625</ele><speed>8.73</speed><time>2016-06-01T14:40:28Z</time><pdop>6.0</pdop><geoidheight>50.60</geoidheight><course>344.91116</course><type>1</type></trkpt>
      <trkpt lat="39.16401978251567" lon="-6.339466126423187"><ele>1620</ele><speed>8.72</speed><time>2016-06-01T14:40:30Z</time><pdop>6.0</pdop><geoidheight>50.60</geoidheight><course>340.9812</course><type>1</type></trkpt>
      <trkpt lat="39.164170351755935" lon="-6.339542888547752"><ele>1615</ele><speed>9.11</speed><time>2016-06-01T14:40:32Z</time><pdop>6.0</pdop><geoidheight>50.60</geoidheight><course>336.05444</course><type>1</type></trkpt>
      <trkpt lat="39.16432035581832" lon="-6.339633247822906"><ele>1610</ele><speed>9.15</speed><time>2016-06-01T14:40:34Z</time><pdop>6.0</pdop><geoidheight>50.60</geoidheight><course>333.66537</course><type>1</type></trkpt>
      <trkpt lat="39.164468027918495" lon="-6.339730189666703"><ele>1605</ele><speed>9.63</speed><time>2016-06-01T14:40:36Z</time><pdop>6.0</pdop><geoidheight>50.60</geoidheight><course>331.55887</course><type>1</type></trkpt>
      <trkpt lat="39.16461776261346" lon="-6.339812261540484"><ele>1600</ele><speed>8.48</speed><time>2016-06-01T14:40:38Z</time><pdop>6.0</pdop><geoidheight>50.60</geoidheight><course>336.10898</course><type>1</type></trkpt>
      <trkpt lat="39.16477494321307" lon="-6.339870882048318"><ele>1594</ele><speed>9.22</speed><time>2016-06-01T14:40:40Z</time><pdop>6.0</pdop><geoidheight>50.60</geoidheight><course>340.516</course><type>1</type></trkpt>
      <trkpt lat="39.16493901753114" lon="-6.339924003987189"><ele>1588</ele><speed>8.94</speed><time>2016-06-01T14:40:42Z</time><pdop>6.0</pdop><geoidheight>50.60</geoidheight><course>341.87976</course><type>1</type></trkpt>
      <trkpt lat="39.1650928697819" lon="-6.339962666254123"><ele>1583</ele><speed>8.12</speed><time>2016-06-01T14:40:44Z</time><pdop>6.0</pdop><geoidheight>50.60</geoidheight><course>345.95343</course><type>1</type></trkpt>
      <trkpt lat="39.16524700215219" lon="-6.339991559272891"><ele>1578</ele><speed>8.70</speed><time>2016-06-01T14:40:46Z</time><pdop>6.0</pdop><geoidheight>50.60</geoidheight><course>348.49573</course><type>1</type></trkpt>
      <trkpt lat="39.165409993149986" lon="-6.34003535571782"><ele>1571</ele><speed>9.40</speed><time>2016-06-01T14:40:48Z</time><pdop>6.0</pdop><geoidheight>50.60</geoidheight><course>344.1152</course><type>1</type></trkpt>
      <trkpt lat="39.16556568528966" lon="-6.340091720048112"><ele>1565</ele><speed>8.30</speed><time>2016-06-01T14:40:50Z</time><pdop>6.0</pdop><geoidheight>50.60</geoidheight><course>343.33932</course><type>1</type></trkpt>
      <trkpt lat="39.165719182255586" lon="-6.340137968890643"><ele>1559</ele><speed>8.75</speed><time>2016-06-01T14:40:52Z</time><pdop>6.0</pdop><geoidheight>50.60</geoidheight><course>345.7721</course><type>1</type></trkpt>
      <trkpt lat="39.16587796318436" lon="-6.340176604571967"><ele>1552</ele><speed>8.95</speed><time>2016-06-01T14:40:54Z</time><pdop>6.0</pdop><geoidheight>50.60</geoidheight><course>347.78763</course><type>1</type></trkpt>
      <trkpt lat="39.16603202725439" lon="-6.340181543946763"><ele>1546</ele><speed>7.77</speed><time>2016-06-01T14:40:56Z</time><pdop>6.0</pdop><geoidheight>50.60</geoidheight><course>2.7201903</course><type>1</type></trkpt>
      <trkpt lat="39.16618208670736" lon="-6.340131025791117"><ele>1541</ele><speed>8.11</speed><time>2016-06-01T14:40:58Z</time><pdop>6.0</pdop><geoidheight>50.60</geoidheight><course>20.772697</course><type>1</type></trkpt>
      <trkpt lat="39.166340909339354" lon="-6.340057037533285"><ele>1536</ele><speed>9.23</speed><time>2016-06-01T14:41:00Z</time><pdop>6.0</pdop><geoidheight>50.60</geoidheight><course>17.980246</course><type>1</type></trkpt>
      <trkpt lat="39.16648712460599" lon="-6.340005363460231"><ele>1532</ele><speed>8.28</speed><time>2016-06-01T14:41:02Z</time><pdop>8.0</pdop><geoidheight>50.60</geoidheight><course>15.04958</course><type>1</type></trkpt>
      <trkpt lat="39.16663155834198" lon="-6.339932963436622"><ele>1527</ele><speed>9.21</speed><time>2016-06-01T14:41:04Z</time><pdop>8.0</pdop><geoidheight>50.60</geoidheight><course>22.134102</course><type>1</type></trkpt>
      <trkpt lat="39.16685486805835" lon="-6.33980121569419"><ele>1521</ele><speed>9.73</speed><time>2016-06-01T14:41:06Z</time><pdop>12.0</pdop><geoidheight>50.60</geoidheight><course>21.229563</course><type>1</type></trkpt>
      <trkpt lat="39.16708909098002" lon="-6.339671947596741"><ele>1516</ele><speed>10.18</speed><time>2016-06-01T14:41:10Z</time><pdop>8.0</pdop><geoidheight>50.60</geoidheight><course>23.577282</course><type>1</type></trkpt>
      <trkpt lat="39.16731687020128" lon="-6.339534965640034"><ele>1512</ele><speed>10.04</speed><time>2016-06-01T14:41:13Z</time><pdop>12.0</pdop><geoidheight>50.60</geoidheight><course>20.975838</course><type>1</type></trkpt>
      <trkpt lat="39.16758799440126" lon="-6.339390754031937"><ele>1505</ele><speed>12.36</speed><time>2016-06-01T14:41:16Z</time><pdop>12.0</pdop><geoidheight>50.60</geoidheight><course>23.271715</course><type>1</type></trkpt>
      <trkpt lat="39.167772237446776" lon="-6.339285467568251"><ele>1500</ele><speed>11.00</speed><time>2016-06-01T14:41:18Z</time><pdop>6.0</pdop><geoidheight>50.60</geoidheight><course>21.697836</course><type>1</type></trkpt>
      <trkpt lat="39.16795156779183" lon="-6.339197628395289"><ele>1495</ele><speed>10.78</speed><time>2016-06-01T14:41:20Z</time><pdop>6.0</pdop><geoidheight>50.60</geoidheight><course>19.347368</course><type>1</type></trkpt>
      <trkpt lat="39.16821697467559" lon="-6.339050358065366"><ele>1487</ele><speed>11.38</speed><time>2016-06-01T14:41:23Z</time><pdop>12.0</pdop><geoidheight>50.60</geoidheight><course>23.100578</course><type>1</type></trkpt>
      <trkpt lat="39.16846636291864" lon="-6.338895208408906"><ele>1481</ele><speed>11.29</speed><time>2016-06-01T14:41:26Z</time><pdop>12.0</pdop><geoidheight>50.60</geoidheight><course>22.433754</course><type>1</type></trkpt>
      <trkpt lat="39.168751071903934" lon="-6.338750227137608"><ele>1477</ele><speed>11.21</speed><time>2016-06-01T14:41:28Z</time><pdop>8.0</pdop><geoidheight>50.60</geoidheight><course>21.717495</course><type>1</type></trkpt>
      <trkpt lat="39.16892005355513" lon="-6.338665114493021"><ele>1474</ele><speed>10.49</speed><time>2016-06-01T14:41:31Z</time><pdop>12.0</pdop><geoidheight>50.60</geoidheight><course>22.80062</course><type>1</type></trkpt>
      <trkpt lat="39.169204659506185" lon="-6.338512605936128"><ele>1467</ele><speed>11.28</speed><time>2016-06-01T14:41:33Z</time><pdop>12.0</pdop><geoidheight>50.60</geoidheight><course>21.545399</course><type>1</type></trkpt>
      <trkpt lat="39.169454425091814" lon="-6.33836105301021"><ele>1462</ele><speed>10.50</speed><time>2016-06-01T14:41:37Z</time><pdop>12.0</pdop><geoidheight>50.60</geoidheight><course>23.094368</course><type>1</type></trkpt>
      <trkpt lat="39.16965670461916" lon="-6.3382015190120224"><ele>1457</ele><speed>10.04</speed><time>2016-06-01T14:41:40Z</time><pdop>12.0</pdop><geoidheight>50.60</geoidheight><course>26.25046</course><type>1</type></trkpt>
      <trkpt lat="39.16984664816061" lon="-6.338054323285633"><ele>1452</ele><speed>9.07</speed><time>2016-06-01T14:41:43Z</time><pdop>12.0</pdop><geoidheight>50.60</geoidheight><course>25.559875</course><type>1</type></trkpt>
      <trkpt lat="39.170044249010836" lon="-6.337912702565826"><ele>1447</ele><speed>9.75</speed><time>2016-06-01T14:41:45Z</time><pdop>8.0</pdop><geoidheight>50.60</geoidheight><course>24.090256</course><type>1</type></trkpt>
      <trkpt lat="39.17025465754601" lon="-6.337795222186931"><ele>1444</ele><speed>8.20</speed><time>2016-06-01T14:41:49Z</time><pdop>16.0</pdop><geoidheight>50.60</geoidheight><course>21.572435</course><type>1</type></trkpt>
      <trkpt lat="39.17049826919801" lon="-6.337672018433557"><ele>1442</ele><speed>10.02</speed><time>2016-06-01T14:41:52Z</time><pdop>8.0</pdop><geoidheight>50.60</geoidheight><course>22.6204</course><type>1</type></trkpt>
      <trkpt lat="39.170616897731456" lon="-6.337561084901553"><ele>1440</ele><speed>8.81</speed><time>2016-06-01T14:41:54Z</time><pdop>8.0</pdop><geoidheight>50.60</geoidheight><course>44.88902</course><type>1</type></trkpt>
      <trkpt lat="39.170718232004866" lon="-6.337415417137776"><ele>1439</ele><speed>8.37</speed><time>2016-06-01T14:41:56Z</time><pdop>8.0</pdop><geoidheight>50.60</geoidheight><course>45.431675</course><type>1</type></trkpt>
      <trkpt lat="39.170860400344345" lon="-6.337309667591889"><ele>1437</ele><speed>4.95</speed><time>2016-06-01T14:41:59Z</time><pdop>8.0</pdop><geoidheight>50.60</geoidheight><course>28.524462</course><type>1</type></trkpt>
      <trkpt lat="39.171012396774444" lon="-6.337174956325256"><ele>1434</ele><speed>7.69</speed><time>2016-06-01T14:42:01Z</time><pdop>8.0</pdop><geoidheight>50.60</geoidheight><course>31.638494</course><type>1</type></trkpt>
      <trkpt lat="39.171208558817874" lon="-6.3370299191479535"><ele>1430</ele><speed>5.75</speed><time>2016-06-01T14:42:06Z</time><pdop>16.0</pdop><geoidheight>50.60</geoidheight><course>28.499332</course><type>1</type></trkpt>
      <trkpt lat="39.17149229707926" lon="-6.336873169471632"><ele>1422</ele><speed>8.05</speed><time>2016-06-01T14:42:11Z</time><pdop>12.0</pdop><geoidheight>50.60</geoidheight><course>18.215796</course><type>1</type></trkpt>
      <trkpt lat="39.17177541385737" lon="-6.3367452297608535"><ele>1412</ele><speed>9.40</speed><time>2016-06-01T14:42:15Z</time><pdop>12.0</pdop><geoidheight>50.60</geoidheight><course>20.784477</course><type>1</type></trkpt>
      <trkpt lat="39.17204404734455" lon="-6.336587401078717"><ele>1404</ele><speed>8.30</speed><time>2016-06-01T14:42:19Z</time><pdop>12.0</pdop><geoidheight>50.60</geoidheight><course>25.851223</course><type>1</type></trkpt>
      <trkpt lat="39.172238452225784" lon="-6.33645878050291"><ele>1396</ele><speed>8.91</speed><time>2016-06-01T14:42:22Z</time><pdop>12.0</pdop><geoidheight>50.60</geoidheight><course>21.039581</course><type>1</type></trkpt>
      <trkpt lat="39.17253553872911" lon="-6.336302105351656"><ele>1390</ele><speed>9.99</speed><time>2016-06-01T14:42:26Z</time><pdop>16.0</pdop><geoidheight>50.60</geoidheight><course>20.244253</course><type>1</type></trkpt>
      <trkpt lat="39.17275869322605" lon="-6.336176211100593"><ele>1384</ele><speed>10.36</speed><time>2016-06-01T14:42:29Z</time><pdop>8.0</pdop><geoidheight>50.60</geoidheight><course>16.530928</course><type>1</type></trkpt>
      <trkpt lat="39.172911049121126" lon="-6.336096474946252"><ele>1378</ele><speed>10.39</speed><time>2016-06-01T14:42:31Z</time><pdop>8.0</pdop><geoidheight>50.60</geoidheight><course>19.960232</course><type>1</type></trkpt>
      <trkpt lat="39.173054066631764" lon="-6.3360093514585545"><ele>1370</ele><speed>9.96</speed><time>2016-06-01T14:42:33Z</time><pdop>8.0</pdop><geoidheight>50.60</geoidheight><course>22.491322</course><type>1</type></trkpt>
      <trkpt lat="39.17326265407099" lon="-6.335871419680474"><ele>1362</ele><speed>9.37</speed><time>2016-06-01T14:42:36Z</time><pdop>12.0</pdop><geoidheight>50.60</geoidheight><course>26.435564</course><type>1</type></trkpt>
      <trkpt lat="39.173493152770305" lon="-6.335694910250129"><ele>1356</ele><speed>6.61</speed><time>2016-06-01T14:42:40Z</time><pdop>12.0</pdop><geoidheight>50.60</geoidheight><course>27.789063</course><type>1</type></trkpt>
      <trkpt lat="39.17369280452974" lon="-6.335591521954823"><ele>1355</ele><speed>5.59</speed><time>2016-06-01T14:42:45Z</time><pdop>8.0</pdop><geoidheight>50.60</geoidheight><course>11.734926</course><type>1</type></trkpt>
      <trkpt lat="39.17390341595466" lon="-6.335519646043787"><ele>1354</ele><speed>5.64</speed><time>2016-06-01T14:42:49Z</time><pdop>16.0</pdop><geoidheight>50.60</geoidheight><course>13.444497</course><type>1</type></trkpt>
      <trkpt lat="39.174164722882" lon="-6.335364988402073"><ele>1352</ele><speed>11.25</speed><time>2016-06-01T14:42:53Z</time><pdop>12.0</pdop><geoidheight>50.60</geoidheight><course>39.422836</course><type>1</type></trkpt>
      <trkpt lat="39.17432385658448" lon="-6.33517610659377"><ele>1350</ele><speed>8.20</speed><time>2016-06-01T14:42:56Z</time><pdop>8.0</pdop><geoidheight>50.60</geoidheight><course>42.17094</course><type>1</type></trkpt>
      <trkpt lat="39.17451972139924" lon="-6.334981179373614"><ele>1352</ele><speed>8.20</speed><time>2016-06-01T14:43:00Z</time><pdop>12.0</pdop><geoidheight>50.60</geoidheight><course>40.680553</course><type>1</type></trkpt>
      <trkpt lat="39.17475321608587" lon="-6.334847350936062"><ele>1358</ele><speed>4.44</speed><time>2016-06-01T14:43:05Z</time><pdop>16.0</pdop><geoidheight>50.60</geoidheight><course>18.95328</course><type>1</type></trkpt>
      <trkpt lat="39.17497929288696" lon="-6.3346329596627164"><ele>1363</ele><speed>5.41</speed><time>2016-06-01T14:43:10Z</time><pdop>12.0</pdop><geoidheight>50.60</geoidheight><course>14.679599</course><type>1</type></trkpt>
      <trkpt lat="39.17517562391429" lon="-6.334587918761634"><ele>1367</ele><speed>6.50</speed><time>2016-06-01T14:43:14Z</time><pdop>8.0</pdop><geoidheight>50.60</geoidheight><course>22.594011</course><type>1</type></trkpt>
      <trkpt lat="39.17529598874387" lon="-6.3344396395641285"><ele>1371</ele><speed>6.92</speed><time>2016-06-01T14:43:17Z</time><pdop>8.0</pdop><geoidheight>50.60</geoidheight><course>62.08483</course><type>1</type></trkpt>
      <trkpt lat="39.17540789799094" lon="-6.334187231088377"><ele>1376</ele><speed>5.87</speed><time>2016-06-01T14:43:21Z</time><pdop>12.0</pdop><geoidheight>50.60</geoidheight><course>60.104427</course><type>1</type></trkpt>
      <trkpt lat="39.17545896286208" lon="-6.33395563690105"><ele>1378</ele><speed>8.29</speed><time>2016-06-01T14:43:24Z</time><pdop>8.0</pdop><geoidheight>50.60</geoidheight><course>95.48937</course><type>1</type></trkpt>
      <trkpt lat="39.17538585543418" lon="-6.333753782588085"><ele>1380</ele><speed>10.76</speed><time>2016-06-01T14:43:26Z</time><pdop>8.0</pdop><geoidheight>50.60</geoidheight><course>126.15321</course><type>1</type></trkpt>
      <trkpt lat="39.17520101920495" lon="-6.33362286042921"><ele>1382</ele><speed>12.96</speed><time>2016-06-01T14:43:28Z</time><pdop>12.0</pdop><geoidheight>50.60</geoidheight><course>160.1969</course><type>1</type></trkpt>
      <trkpt lat="39.17480284273386" lon="-6.333669741742644"><ele>1388</ele><speed>12.27</speed><time>2016-06-01T14:43:32Z</time><pdop>12.0</pdop><geoidheight>50.60</geoidheight><course>191.67194</course><type>1</type></trkpt>
      <trkpt lat="39.174767539428466" lon="-6.334044195849586"><ele>1390</ele><speed>8.08</speed><time>2016-06-01T14:43:34Z</time><pdop>8.0</pdop><geoidheight>50.60</geoidheight><course>267.1009</course><type>1</type></trkpt>
      <trkpt lat="39.174847183695206" lon="-6.334279102651331"><ele>1392</ele><speed>7.39</speed><time>2016-06-01T14:43:38Z</time><pdop>12.0</pdop><geoidheight>50.60</geoidheight><course>309.52054</course><type>1</type></trkpt>
      <trkpt lat="39.17497456813318" lon="-6.334473818680986"><ele>1398</ele><speed>6.37</speed><time>2016-06-01T14:43:40Z</time><pdop>6.0</pdop><geoidheight>50.60</geoidheight><course>314.15335</course><type>1</type></trkpt>
      <trkpt lat="39.175119034916804" lon="-6.334478729744838"><ele>1402</ele><speed>6.82</speed><time>2016-06-01T14:43:44Z</time><pdop>8.0</pdop><geoidheight>50.60</geoidheight><course>28.047039</course><type>1</type></trkpt>
      <trkpt lat="39.1752107843873" lon="-6.33426294707806"><ele>1405</ele><speed>8.22</speed><time>2016-06-01T14:43:47Z</time><pdop>12.0</pdop><geoidheight>50.60</geoidheight><course>86.99928</course><type>1</type></trkpt>
      <trkpt lat="39.17499845211844" lon="-6.333923259160619"><ele>1410</ele><speed>12.43</speed><time>2016-06-01T14:43:51Z</time><pdop>12.0</pdop><geoidheight>50.60</geoidheight><course>143.74677</course><type>1</type></trkpt>
      <trkpt lat="39.17468887504396" lon="-6.333803012394462"><ele>1414</ele><speed>12.82</speed><time>2016-06-01T14:43:53Z</time><pdop>8.0</pdop><geoidheight>50.60</geoidheight><course>168.45168</course><type>1</type></trkpt>
      <trkpt lat="39.17447827446479" lon="-6.333777762350609"><ele>1415</ele><speed>11.53</speed><time>2016-06-01T14:43:56Z</time><pdop>8.0</pdop><geoidheight>50.60</geoidheight><course>175.46378</course><type>1</type></trkpt>
      <trkpt lat="39.174322633177724" lon="-6.3338822692228405"><ele>1417</ele><speed>9.91</speed><time>2016-06-01T14:43:57Z</time><pdop>8.0</pdop><geoidheight>50.60</geoidheight><course>208.86794</course><type>1</type></trkpt>
      <trkpt lat="39.17420100253418" lon="-6.33403929367819"><ele>1418</ele><speed>9.61</speed><time>2016-06-01T14:44:00Z</time><pdop>8.0</pdop><geoidheight>50.60</geoidheight><course>234.03645</course><type>1</type></trkpt>
      <trkpt lat="39.174141065198526" lon="-6.334258829022113"><ele>1419</ele><speed>9.29</speed><time>2016-06-01T14:44:02Z</time><pdop>8.0</pdop><geoidheight>50.60</geoidheight><course>262.4672</course><type>1</type></trkpt>
      <trkpt lat="39.17414492186845" lon="-6.334463632710997"><ele>1421</ele><speed>8.68</speed><time>2016-06-01T14:44:04Z</time><pdop>8.0</pdop><geoidheight>50.60</geoidheight><course>290.47974</course><type>1</type></trkpt>
      <trkpt lat="39.17431112246459" lon="-6.334595814324335"><ele>1426</ele><speed>6.93</speed><time>2016-06-01T14:44:07Z</time><pdop>8.0</pdop><geoidheight>50.60</geoidheight><course>355.5398</course><type>1</type></trkpt>
      <trkpt lat="39.174474463723755" lon="-6.334429270692922"><ele>1433</ele><speed>7.60</speed><time>2016-06-01T14:44:11Z</time><pdop>12.0</pdop><geoidheight>50.60</geoidheight><course>66.60771</course><type>1</type></trkpt>
      <trkpt lat="39.17446080220243" lon="-6.334142381590574"><ele>1438</ele><speed>10.52</speed><time>2016-06-01T14:44:14Z</time><pdop>12.0</pdop><geoidheight>50.60</geoidheight><course>93.58816</course><type>1</type></trkpt>
      <trkpt lat="39.17415313504018" lon="-6.334068358775602"><ele>1442</ele><speed>11.05</speed><time>2016-06-01T14:44:16Z</time><pdop>12.0</pdop><geoidheight>50.60</geoidheight><course>186.72015</course><type>1</type></trkpt>
      <trkpt lat="39.1739429768379" lon="-6.334255673622421"><ele>1446</ele><speed>10.07</speed><time>2016-06-01T14:44:20Z</time><pdop>8.0</pdop><geoidheight>50.60</geoidheight><course>240.34222</course><type>1</type></trkpt>
      <trkpt lat="39.17390645073471" lon="-6.334478863677054"><ele>1448</ele><speed>8.36</speed><time>2016-06-01T14:44:21Z</time><pdop>8.0</pdop><geoidheight>50.60</geoidheight><course>271.7885</course><type>1</type></trkpt>
      <trkpt lat="39.174027484833715" lon="-6.334682596085974"><ele>1454</ele><speed>7.66</speed><time>2016-06-01T14:44:25Z</time><pdop>8.0</pdop><geoidheight>50.60</geoidheight><course>335.3684</course><type>1</type></trkpt>
      <trkpt lat="39.17422791588791" lon="-6.334618661607614"><ele>1460</ele><speed>6.80</speed><time>2016-06-01T14:44:29Z</time><pdop>12.0</pdop><geoidheight>50.60</geoidheight><course>47.074257</course><type>1</type></trkpt>
      <trkpt lat="39.1742367881474" lon="-6.334282728512739"><ele>1463</ele><speed>10.67</speed><time>2016-06-01T14:44:32Z</time><pdop>12.0</pdop><geoidheight>50.60</geoidheight><course>111.26803</course><type>1</type></trkpt>
      <trkpt lat="39.17403358696135" lon="-6.334041607647144"><ele>1468</ele><speed>10.82</speed><time>2016-06-01T14:44:36Z</time><pdop>8.0</pdop><geoidheight>50.60</geoidheight><course>148.37791</course><type>1</type></trkpt>
      <trkpt lat="39.17384854913524" lon="-6.333941217404577"><ele>1471</ele><speed>12.46</speed><time>2016-06-01T14:44:38Z</time><pdop>8.0</pdop><geoidheight>50.60</geoidheight><course>164.32011</course><type>1</type></trkpt>
      <trkpt lat="39.173630981961004" lon="-6.33389120701247"><ele>1473</ele><speed>13.06</speed><time>2016-06-01T14:44:39Z</time><pdop>8.0</pdop><geoidheight>50.60</geoidheight><course>162.4093</course><type>1</type></trkpt>
      <trkpt lat="39.17343489799708" lon="-6.3341095236268785"><ele>1474</ele><speed>13.36</speed><time>2016-06-01T14:44:42Z</time><pdop>8.0</pdop><geoidheight>50.60</geoidheight><course>237.32434</course><type>1</type></trkpt>
      <trkpt lat="39.17336004839667" lon="-6.33437545184646"><ele>1473</ele><speed>10.44</speed><time>2016-06-01T14:44:44Z</time><pdop>6.0</pdop><geoidheight>50.60</geoidheight><course>272.67474</course><type>1</type></trkpt>
      <trkpt lat="39.17341459597756" lon="-6.334552620955641"><ele>1474</ele><speed>6.60</speed><time>2016-06-01T14:44:46Z</time><pdop>6.0</pdop><geoidheight>50.60</geoidheight><course>293.82736</course><type>1</type></trkpt>
      <trkpt lat="39.17354408995867" lon="-6.334730337838949"><ele>1478</ele><speed>7.92</speed><time>2016-06-01T14:44:49Z</time><pdop>6.0</pdop><geoidheight>50.60</geoidheight><course>315.11005</course><type>1</type></trkpt>
      <trkpt lat="39.17365432848149" lon="-6.334808393494652"><ele>1482</ele><speed>7.79</speed><time>2016-06-01T14:44:51Z</time><pdop>6.0</pdop><geoidheight>50.60</geoidheight><course>331.39175</course><type>1</type></trkpt>
      <trkpt lat="39.173774293767565" lon="-6.334875517240276"><ele>1485</ele><speed>6.95</speed><time>2016-06-01T14:44:53Z</time><pdop>8.0</pdop><geoidheight>50.60</geoidheight><course>336.78656</course><type>1</type></trkpt>
      <trkpt lat="39.17399035772315" lon="-6.3347811486535175"><ele>1489</ele><speed>6.58</speed><time>2016-06-01T14:44:57Z</time><pdop>8.0</pdop><geoidheight>50.60</geoidheight><course>49.172894</course><type>1</type></trkpt>
      <trkpt lat="39.17401213584489" lon="-6.334544105350816"><ele>1491</ele><speed>8.99</speed><time>2016-06-01T14:45:00Z</time><pdop>8.0</pdop><geoidheight>50.60</geoidheight><course>104.687294</course><type>1</type></trkpt>
      <trkpt lat="39.1739033890367" lon="-6.3343770415870475"><ele>1493</ele><speed>10.64</speed><time>2016-06-01T14:45:02Z</time><pdop>8.0</pdop><geoidheight>50.60</geoidheight><course>142.18378</course><type>1</type></trkpt>
      <trkpt lat="39.17371634989558" lon="-6.334276629807657"><ele>1494</ele><speed>12.88</speed><time>2016-06-01T14:45:04Z</time><pdop>8.0</pdop><geoidheight>50.60</geoidheight><course>160.59665</course><type>1</type></trkpt>
      <trkpt lat="39.17346455890805" lon="-6.334295813016645"><ele>1494</ele><speed>12.78</speed><time>2016-06-01T14:45:06Z</time><pdop>16.0</pdop><geoidheight>50.60</geoidheight><course>195.34</course><type>1</type></trkpt>
      <trkpt lat="39.17323762403815" lon="-6.334550632491153"><ele>1491</ele><speed>9.83</speed><time>2016-06-01T14:45:08Z</time><pdop>12.0</pdop><geoidheight>50.60</geoidheight><course>227.44002</course><type>1</type></trkpt>
      <trkpt lat="39.173206422409514" lon="-6.33481182085972"><ele>1493</ele><speed>8.49</speed><time>2016-06-01T14:45:12Z</time><pdop>8.0</pdop><geoidheight>50.60</geoidheight><course>275.50082</course><type>1</type></trkpt>
      <trkpt lat="39.17330930408123" lon="-6.335011516879129"><ele>1500</ele><speed>7.80</speed><time>2016-06-01T14:45:15Z</time><pdop>6.0</pdop><geoidheight>50.60</geoidheight><course>318.88303</course><type>1</type></trkpt>
      <trkpt lat="39.17345511853391" lon="-6.3350301375318345"><ele>1504</ele><speed>9.04</speed><time>2016-06-01T14:45:17Z</time><pdop>6.0</pdop><geoidheight>50.60</geoidheight><course>358.19208</course><type>1</type></trkpt>
      <trkpt lat="39.173519280042555" lon="-6.3348788754090934"><ele>1507</ele><speed>6.05</speed><time>2016-06-01T14:45:20Z</time><pdop>8.0</pdop><geoidheight>50.60</geoidheight><course>69.02486</course><type>1</type></trkpt>
      <trkpt lat="39.17363058777452" lon="-6.3347014058871745"><ele>1507</ele><speed>6.95</speed><time>2016-06-01T14:45:23Z</time><pdop>8.0</pdop><geoidheight>50.60</geoidheight><course>52.118908</course><type>1</type></trkpt>
      <trkpt lat="39.17373271379662" lon="-6.3345340023036885"><ele>1507</ele><speed>5.71</speed><time>2016-06-01T14:45:26Z</time><pdop>8.0</pdop><geoidheight>50.60</geoidheight><course>66.28705</course><type>1</type></trkpt>
      <trkpt lat="39.1737461011429" lon="-6.334275724117997"><ele>1507</ele><speed>10.05</speed><time>2016-06-01T14:45:29Z</time><pdop>8.0</pdop><geoidheight>50.60</geoidheight><course>101.98083</course><type>1</type></trkpt>
      <trkpt lat="39.173628547746695" lon="-6.334088074962674"><ele>1507</ele><speed>11.54</speed><time>2016-06-01T14:45:31Z</time><pdop>8.0</pdop><geoidheight>50.60</geoidheight><course>141.34113</course><type>1</type></trkpt>
      <trkpt lat="39.17342106283511" lon="-6.334015572462418"><ele>1508</ele><speed>12.62</speed><time>2016-06-01T14:45:32Z</time><pdop>8.0</pdop><geoidheight>50.60</geoidheight><course>175.66515</course><type>1</type></trkpt>
      <trkpt lat="39.17322317516017" lon="-6.334072868669581"><ele>1509</ele><speed>12.10</speed><time>2016-06-01T14:45:34Z</time><pdop>8.0</pdop><geoidheight>50.60</geoidheight><course>206.79276</course><type>1</type></trkpt>
      <trkpt lat="39.173078955456795" lon="-6.334229715786137"><ele>1510</ele><speed>12.39</speed><time>2016-06-01T14:45:37Z</time><pdop>8.0</pdop><geoidheight>50.60</geoidheight><course>234.03754</course><type>1</type></trkpt>
      <trkpt lat="39.173058251066905" lon="-6.334511545588079"><ele>1509</ele><speed>11.48</speed><time>2016-06-01T14:45:39Z</time><pdop>12.0</pdop><geoidheight>50.60</geoidheight><course>280.2718</course><type>1</type></trkpt>
      <trkpt lat="39.173164880499186" lon="-6.334731562913172"><ele>1508</ele><speed>5.99</speed><time>2016-06-01T14:45:41Z</time><pdop>8.0</pdop><geoidheight>50.60</geoidheight><course>320.2999</course><type>1</type></trkpt>
      <trkpt lat="39.17329868249137" lon="-6.334869034761175"><ele>1509</ele><speed>7.12</speed><time>2016-06-01T14:45:45Z</time><pdop>6.0</pdop><geoidheight>50.60</geoidheight><course>318.2005</course><type>1</type></trkpt>
      <trkpt lat="39.17341087424085" lon="-6.33494342268184"><ele>1509</ele><speed>6.84</speed><time>2016-06-01T14:45:47Z</time><pdop>8.0</pdop><geoidheight>50.60</geoidheight><course>334.68307</course><type>1</type></trkpt>
      <trkpt lat="39.17353667069854" lon="-6.3350067549335"><ele>1510</ele><speed>7.86</speed><time>2016-06-01T14:45:49Z</time><pdop>6.0</pdop><geoidheight>50.60</geoidheight><course>338.5002</course><type>1</type></trkpt>
      <trkpt lat="39.173679810722376" lon="-6.335063550008403"><ele>1510</ele><speed>8.10</speed><time>2016-06-01T14:45:51Z</time><pdop>6.0</pdop><geoidheight>50.60</geoidheight><course>342.1797</course><type>1</type></trkpt>
      <trkpt lat="39.17383000700234" lon="-6.335083612056238"><ele>1509</ele><speed>8.06</speed><time>2016-06-01T14:45:53Z</time><pdop>6.0</pdop><geoidheight>50.60</geoidheight><course>359.19016</course><type>1</type></trkpt>
      <trkpt lat="39.17397151612932" lon="-6.335069838518635"><ele>1509</ele><speed>7.68</speed><time>2016-06-01T14:45:55Z</time><pdop>6.0</pdop><geoidheight>50.60</geoidheight><course>4.9911404</course><type>1</type></trkpt>
      <trkpt lat="39.17411137896989" lon="-6.3350316577377255"><ele>1508</ele><speed>7.48</speed><time>2016-06-01T14:45:57Z</time><pdop>8.0</pdop><geoidheight>50.60</geoidheight><course>12.685893</course><type>1</type></trkpt>
      <trkpt lat="39.17429463805535" lon="-6.334902381885988"><ele>1506</ele><speed>8.23</speed><time>2016-06-01T14:46:00Z</time><pdop>8.0</pdop><geoidheight>50.60</geoidheight><course>29.712515</course><type>1</type></trkpt>
      <trkpt lat="39.1744140555542" lon="-6.334805311630615"><ele>1504</ele><speed>7.82</speed><time>2016-06-01T14:46:02Z</time><pdop>6.0</pdop><geoidheight>50.60</geoidheight><course>32.605953</course><type>1</type></trkpt>
      <trkpt lat="39.17451565393162" lon="-6.334703832677506"><ele>1502</ele><speed>7.04</speed><time>2016-06-01T14:46:04Z</time><pdop>8.0</pdop><geoidheight>50.60</geoidheight><course>38.115868</course><type>1</type></trkpt>
      <trkpt lat="39.17466814827124" lon="-6.334508767591781"><ele>1501</ele><speed>8.49</speed><time>2016-06-01T14:46:07Z</time><pdop>8.0</pdop><geoidheight>50.60</geoidheight><course>43.616325</course><type>1</type></trkpt>
      <trkpt lat="39.17480752270034" lon="-6.334328457570394"><ele>1498</ele><speed>6.25</speed><time>2016-06-01T14:46:10Z</time><pdop>12.0</pdop><geoidheight>50.60</geoidheight><course>43.295815</course><type>1</type></trkpt>
      <trkpt lat="39.17496481125317" lon="-6.3340716753505815"><ele>1492</ele><speed>6.50</speed><time>2016-06-01T14:46:14Z</time><pdop>8.0</pdop><geoidheight>50.60</geoidheight><course>48.038654</course><type>1</type></trkpt>
      <trkpt lat="39.175047436782435" lon="-6.3338975223127125"><ele>1489</ele><speed>5.68</speed><time>2016-06-01T14:46:18Z</time><pdop>8.0</pdop><geoidheight>50.60</geoidheight><course>55.763958</course><type>1</type></trkpt>
      <trkpt lat="39.17515693942709" lon="-6.3337000074981535"><ele>1487</ele><speed>6.74</speed><time>2016-06-01T14:46:20Z</time><pdop>12.0</pdop><geoidheight>50.60</geoidheight><course>48.491623</course><type>1</type></trkpt>
      <trkpt lat="39.17532535272993" lon="-6.333416846473797"><ele>1481</ele><speed>6.82</speed><time>2016-06-01T14:46:26Z</time><pdop>12.0</pdop><geoidheight>50.60</geoidheight><course>50.21125</course><type>1</type></trkpt>
      <trkpt lat="39.17550122170172" lon="-6.333144950131481"><ele>1476</ele><speed>8.14</speed><time>2016-06-01T14:46:30Z</time><pdop>12.0</pdop><geoidheight>50.60</geoidheight><course>52.691696</course><type>1</type></trkpt>
      <trkpt lat="39.17563224738214" lon="-6.33292215098005"><ele>1468</ele><speed>7.81</speed><time>2016-06-01T14:46:34Z</time><pdop>12.0</pdop><geoidheight>50.60</geoidheight><course>54.374947</course><type>1</type></trkpt>
      <trkpt lat="39.17576121095241" lon="-6.332698434704473"><ele>1465</ele><speed>9.04</speed><time>2016-06-01T14:46:37Z</time><pdop>8.0</pdop><geoidheight>50.60</geoidheight><course>52.51889</course><type>1</type></trkpt>
      <trkpt lat="39.17586780292079" lon="-6.332469245998556"><ele>1462</ele><speed>5.86</speed><time>2016-06-01T14:46:40Z</time><pdop>12.0</pdop><geoidheight>50.60</geoidheight><course>66.227356</course><type>1</type></trkpt>
      <trkpt lat="39.17600125549188" lon="-6.332272824788872"><ele>1462</ele><speed>7.57</speed><time>2016-06-01T14:46:44Z</time><pdop>8.0</pdop><geoidheight>50.60</geoidheight><course>45.739384</course><type>1</type></trkpt>
      <trkpt lat="39.17616457571259" lon="-6.33208064775162"><ele>1462</ele><speed>7.36</speed><time>2016-06-01T14:46:46Z</time><pdop>12.0</pdop><geoidheight>50.60</geoidheight><course>44.457516</course><type>1</type></trkpt>
      <trkpt lat="39.176384085928014" lon="-6.331853316267409"><ele>1466</ele><speed>8.76</speed><time>2016-06-01T14:46:51Z</time><pdop>8.0</pdop><geoidheight>50.60</geoidheight><course>33.276264</course><type>1</type></trkpt>
      <trkpt lat="39.176536761404215" lon="-6.331663196615695"><ele>1469</ele><speed>8.09</speed><time>2016-06-01T14:46:54Z</time><pdop>8.0</pdop><geoidheight>50.60</geoidheight><course>62.272686</course><type>1</type></trkpt>
      <trkpt lat="39.17661314530691" lon="-6.331495903743096"><ele>1471</ele><speed>8.68</speed><time>2016-06-01T14:46:56Z</time><pdop>8.0</pdop><geoidheight>50.60</geoidheight><course>62.16005</course><type>1</type></trkpt>
      <trkpt lat="39.17674643075148" lon="-6.331304232512194"><ele>1476</ele><speed>6.90</speed><time>2016-06-01T14:46:59Z</time><pdop>8.0</pdop><geoidheight>50.60</geoidheight><course>37.38815</course><type>1</type></trkpt>
      <trkpt lat="39.17688351268352" lon="-6.331245857405377"><ele>1478</ele><speed>7.86</speed><time>2016-06-01T14:47:01Z</time><pdop>8.0</pdop><geoidheight>50.60</geoidheight><course>31.446238</course><type>1</type></trkpt>
      <trkpt lat="39.1770272366369" lon="-6.331305133997458"><ele>1481</ele><speed>7.74</speed><time>2016-06-01T14:47:03Z</time><pdop>8.0</pdop><geoidheight>50.60</geoidheight><course>327.53003</course><type>1</type></trkpt>
      <trkpt lat="39.17716483572883" lon="-6.331510480405149"><ele>1486</ele><speed>7.06</speed><time>2016-06-01T14:47:05Z</time><pdop>12.0</pdop><geoidheight>50.60</geoidheight><course>289.80618</course><type>1</type></trkpt>
      <trkpt lat="39.17711856582108" lon="-6.331830695653651"><ele>1490</ele><speed>10.43</speed><time>2016-06-01T14:47:09Z</time><pdop>16.0</pdop><geoidheight>50.60</geoidheight><course>236.4235</course><type>1</type></trkpt>
      <trkpt lat="39.176861441763656" lon="-6.331895930805465"><ele>1494</ele><speed>10.31</speed><time>2016-06-01T14:47:12Z</time><pdop>12.0</pdop><geoidheight>50.60</geoidheight><course>175.45992</course><type>1</type></trkpt>
      <trkpt lat="39.17669782756747" lon="-6.331658660854059"><ele>1500</ele><speed>7.77</speed><time>2016-06-01T14:47:15Z</time><pdop>12.0</pdop><geoidheight>50.60</geoidheight><course>110.07602</course><type>1</type></trkpt>
      <trkpt lat="39.17683293618254" lon="-6.331317301228027"><ele>1510</ele><speed>6.25</speed><time>2016-06-01T14:47:21Z</time><pdop>16.0</pdop><geoidheight>50.60</geoidheight><course>2.8805287</course><type>1</type></trkpt>
      <trkpt lat="39.17696335391203" lon="-6.3315534986429896"><ele>1522</ele><speed>8.88</speed><time>2016-06-01T14:47:25Z</time><pdop>8.0</pdop><geoidheight>50.60</geoidheight><course>265.79312</course><type>1</type></trkpt>
      <trkpt lat="39.1769883980768" lon="-6.331790226466929"><ele>1530</ele><speed>10.34</speed><time>2016-06-01T14:47:27Z</time><pdop>12.0</pdop><geoidheight>50.60</geoidheight><course>272.22955</course><type>1</type></trkpt>
      <trkpt lat="39.17670197550611" lon="-6.331935921274995"><ele>1542</ele><speed>10.42</speed><time>2016-06-01T14:47:30Z</time><pdop>8.0</pdop><geoidheight>50.60</geoidheight><course>170.73857</course><type>1</type></trkpt>
      <trkpt lat="39.17654498067272" lon="-6.3318229535662045"><ele>1545</ele><speed>8.24</speed><time>2016-06-01T14:47:32Z</time><pdop>12.0</pdop><geoidheight>50.60</geoidheight><course>151.75914</course><type>1</type></trkpt>
      <trkpt lat="39.17640719964774" lon="-6.331641438344388"><ele>1550</ele><speed>6.93</speed><time>2016-06-01T14:47:36Z</time><pdop>8.0</pdop><geoidheight>50.60</geoidheight><course>118.14639</course><type>1</type></trkpt>
      <trkpt lat="39.176391488046995" lon="-6.331445462775738"><ele>1553</ele><speed>9.40</speed><time>2016-06-01T14:47:38Z</time><pdop>8.0</pdop><geoidheight>50.60</geoidheight><course>83.244514</course><type>1</type></trkpt>
      <trkpt lat="39.17650062960778" lon="-6.331188087944963"><ele>1562</ele><speed>8.67</speed><time>2016-06-01T14:47:41Z</time><pdop>16.0</pdop><geoidheight>50.60</geoidheight><course>23.594088</course><type>1</type></trkpt>
      <trkpt lat="39.17678877158711" lon="-6.331175599554706"><ele>1580</ele><speed>8.20</speed><time>2016-06-01T14:47:45Z</time><pdop>16.0</pdop><geoidheight>50.60</geoidheight><course>323.96558</course><type>1</type></trkpt>
      <trkpt lat="39.176840543013064" lon="-6.331578879108775"><ele>1588</ele><speed>11.75</speed><time>2016-06-01T14:47:50Z</time><pdop>12.0</pdop><geoidheight>50.60</geoidheight><course>253.4885</course><type>1</type></trkpt>
      <trkpt lat="39.17661518173131" lon="-6.3317513423816605"><ele>1592</ele><speed>10.26</speed><time>2016-06-01T14:47:52Z</time><pdop>12.0</pdop><geoidheight>50.60</geoidheight><course>197.32504</course><type>1</type></trkpt>
      <trkpt lat="39.17635162965504" lon="-6.331658303475002"><ele>1595</ele><speed>7.53</speed><time>2016-06-01T14:47:56Z</time><pdop>12.0</pdop><geoidheight>50.60</geoidheight><course>146.73192</course><type>1</type></trkpt>
      <trkpt lat="39.17622389750283" lon="-6.331425039550595"><ele>1597</ele><speed>8.00</speed><time>2016-06-01T14:47:59Z</time><pdop>12.0</pdop><geoidheight>50.60</geoidheight><course>95.87855</course><type>1</type></trkpt>
      <trkpt lat="39.176362115428496" lon="-6.331142807546449"><ele>1605</ele><speed>6.16</speed><time>2016-06-01T14:48:02Z</time><pdop>16.0</pdop><geoidheight>50.60</geoidheight><course>21.397223</course><type>1</type></trkpt>
      <trkpt lat="39.1765175305024" lon="-6.3314554268071195"><ele>1611</ele><speed>7.90</speed><time>2016-06-01T14:48:08Z</time><pdop>12.0</pdop><geoidheight>50.60</geoidheight><course>257.21625</course><type>1</type></trkpt>
      <trkpt lat="39.17632762654786" lon="-6.331709612351758"><ele>1616</ele><speed>9.21</speed><time>2016-06-01T14:48:12Z</time><pdop>8.0</pdop><geoidheight>50.60</geoidheight><course>206.06657</course><type>1</type></trkpt>
      <trkpt lat="39.17606683149603" lon="-6.331718860454933"><ele>1621</ele><speed>11.44</speed><time>2016-06-01T14:48:15Z</time><pdop>12.0</pdop><geoidheight>50.60</geoidheight><course>160.20032</course><type>1</type></trkpt>
      <trkpt lat="39.17582806994012" lon="-6.331576028252343"><ele>1626</ele><speed>9.19</speed><time>2016-06-01T14:48:18Z</time><pdop>12.0</pdop><geoidheight>50.60</geoidheight><course>136.06664</course><type>1</type></trkpt>
      <trkpt lat="39.17571251384636" lon="-6.3313264000244045"><ele>1631</ele><speed>9.20</speed><time>2016-06-01T14:48:21Z</time><pdop>12.0</pdop><geoidheight>50.60</geoidheight><course>104.76561</course><type>1</type></trkpt>
      <trkpt lat="39.17570885445554" lon="-6.331060379223371"><ele>1635</ele><speed>7.78</speed><time>2016-06-01T14:48:24Z</time><pdop>8.0</pdop><geoidheight>50.60</geoidheight><course>82.06398</course><type>1</type></trkpt>
      <trkpt lat="39.17577654096434" lon="-6.330887689252401"><ele>1639</ele><speed>7.47</speed><time>2016-06-01T14:48:25Z</time><pdop>8.0</pdop><geoidheight>50.60</geoidheight><course>58.943256</course><type>1</type></trkpt>
      <trkpt lat="39.17598725045887" lon="-6.330684756379762"><ele>1645</ele><speed>9.84</speed><time>2016-06-01T14:48:29Z</time><pdop>12.0</pdop><geoidheight>50.60</geoidheight><course>23.133392</course><type>1</type></trkpt>
      <trkpt lat="39.17632508281176" lon="-6.330684571956897"><ele>1662</ele><speed>8.08</speed><time>2016-06-01T14:48:33Z</time><pdop>12.0</pdop><geoidheight>50.60</geoidheight><course>314.23288</course><type>1</type></trkpt>
      <trkpt lat="39.17635017251309" lon="-6.331029854573183"><ele>1673</ele><speed>9.54</speed><time>2016-06-01T14:48:38Z</time><pdop>8.0</pdop><geoidheight>50.60</geoidheight><course>241.74867</course><type>1</type></trkpt>
      <trkpt lat="39.176197417445856" lon="-6.331190773183619"><ele>1677</ele><speed>9.58</speed><time>2016-06-01T14:48:41Z</time><pdop>12.0</pdop><geoidheight>50.60</geoidheight><course>208.71593</course><type>1</type></trkpt>
      <trkpt lat="39.175900369549886" lon="-6.331193764546908"><ele>1681</ele><speed>10.18</speed><time>2016-06-01T14:48:44Z</time><pdop>12.0</pdop><geoidheight>50.60</geoidheight><course>156.92763</course><type>1</type></trkpt>
      <trkpt lat="39.17574490512583" lon="-6.3309363896622886"><ele>1687</ele><speed>8.37</speed><time>2016-06-01T14:48:47Z</time><pdop>8.0</pdop><geoidheight>50.60</geoidheight><course>102.4722</course><type>1</type></trkpt>
      <trkpt lat="39.17581989478113" lon="-6.330696395155195"><ele>1695</ele><speed>8.60</speed><time>2016-06-01T14:48:51Z</time><pdop>8.0</pdop><geoidheight>50.60</geoidheight><course>57.376305</course><type>1</type></trkpt>
      <trkpt lat="39.17596925753413" lon="-6.330520770624104"><ele>1703</ele><speed>7.25</speed><time>2016-06-01T14:48:54Z</time><pdop>12.0</pdop><geoidheight>50.60</geoidheight><course>38.274364</course><type>1</type></trkpt>
      <trkpt lat="39.176156373818685" lon="-6.330388932771831"><ele>1709</ele><speed>7.43</speed><time>2016-06-01T14:48:57Z</time><pdop>8.0</pdop><geoidheight>50.60</geoidheight><course>15.274926</course><type>1</type></trkpt>
      <trkpt lat="39.176335630301146" lon="-6.330399447206694"><ele>1716</ele><speed>4.75</speed><time>2016-06-01T14:49:00Z</time><pdop>8.0</pdop><geoidheight>50.60</geoidheight><course>323.2127</course><type>1</type></trkpt>
      <trkpt lat="39.17636115464565" lon="-6.330625609654197"><ele>1724</ele><speed>9.15</speed><time>2016-06-01T14:49:03Z</time><pdop>8.0</pdop><geoidheight>50.60</geoidheight><course>265.3475</course><type>1</type></trkpt>
      <trkpt lat="39.17627924680726" lon="-6.330819339335429"><ele>1727</ele><speed>8.11</speed><time>2016-06-01T14:49:05Z</time><pdop>8.0</pdop><geoidheight>50.60</geoidheight><course>226.69408</course><type>1</type></trkpt>
      <trkpt lat="39.176148833859195" lon="-6.330899016392882"><ele>1729</ele><speed>9.23</speed><time>2016-06-01T14:49:07Z</time><pdop>8.0</pdop><geoidheight>50.60</geoidheight><course>193.90678</course><type>1</type></trkpt>
      <trkpt lat="39.17598750681486" lon="-6.330874135168814"><ele>1732</ele><speed>10.32</speed><time>2016-06-01T14:49:08Z</time><pdop>8.0</pdop><geoidheight>50.60</geoidheight><course>165.74728</course><type>1</type></trkpt>
      <trkpt lat="39.175770452548555" lon="-6.330722011458472"><ele>1735</ele><speed>8.31</speed><time>2016-06-01T14:49:12Z</time><pdop>6.0</pdop><geoidheight>50.60</geoidheight><course>135.23683</course><type>1</type></trkpt>
      <trkpt lat="39.17567979638376" lon="-6.330579876049958"><ele>1740</ele><speed>8.42</speed><time>2016-06-01T14:49:14Z</time><pdop>8.0</pdop><geoidheight>50.60</geoidheight><course>127.798004</course><type>1</type></trkpt>
      <trkpt lat="39.17563068799612" lon="-6.330394345939862"><ele>1743</ele><speed>8.11</speed><time>2016-06-01T14:49:16Z</time><pdop>8.0</pdop><geoidheight>50.60</geoidheight><course>98.14252</course><type>1</type></trkpt>
      <trkpt lat="39.175641735892874" lon="-6.330139833903726"><ele>1749</ele><speed>6.47</speed><time>2016-06-01T14:49:19Z</time><pdop>8.0</pdop><geoidheight>50.60</geoidheight><course>76.07734</course><type>1</type></trkpt>
      <trkpt lat="39.17572434818022" lon="-6.329977219359388"><ele>1753</ele><speed>7.63</speed><time>2016-06-01T14:49:21Z</time><pdop>8.0</pdop><geoidheight>50.60</geoidheight><course>41.159706</course><type>1</type></trkpt>
      <trkpt lat="39.175869016451514" lon="-6.329914540658188"><ele>1757</ele><speed>7.39</speed><time>2016-06-01T14:49:23Z</time><pdop>8.0</pdop><geoidheight>50.60</geoidheight><course>3.929908</course><type>1</type></trkpt>
      <trkpt lat="39.17596435541812" lon="-6.330135406390406"><ele>1765</ele><speed>8.41</speed><time>2016-06-01T14:49:28Z</time><pdop>12.0</pdop><geoidheight>50.60</geoidheight><course>269.83224</course><type>1</type></trkpt>
      <trkpt lat="39.175832986841044" lon="-6.330379320418414"><ele>1773</ele><speed>7.58</speed><time>2016-06-01T14:49:32Z</time><pdop>6.0</pdop><geoidheight>50.60</geoidheight><course>195.4296</course><type>1</type></trkpt>
      <trkpt lat="39.17563115389665" lon="-6.330351313381408"><ele>1781</ele><speed>10.26</speed><time>2016-06-01T14:49:35Z</time><pdop>8.0</pdop><geoidheight>50.60</geoidheight><course>160.33124</course><type>1</type></trkpt>
      <trkpt lat="39.17546897518889" lon="-6.330216762724209"><ele>1784</ele><speed>10.87</speed><time>2016-06-01T14:49:37Z</time><pdop>8.0</pdop><geoidheight>50.60</geoidheight><course>137.11812</course><type>1</type></trkpt>
      <trkpt lat="39.175360160566655" lon="-6.330039966236643"><ele>1788</ele><speed>8.74</speed><time>2016-06-01T14:49:39Z</time><pdop>8.0</pdop><geoidheight>50.60</geoidheight><course>115.75057</course><type>1</type></trkpt>
      <trkpt lat="39.17535076997263" lon="-6.3297814957580725"><ele>1794</ele><speed>7.58</speed><time>2016-06-01T14:49:42Z</time><pdop>8.0</pdop><geoidheight>50.60</geoidheight><course>79.987656</course><type>1</type></trkpt>
      <trkpt lat="39.17540088413548" lon="-6.329570284713731"><ele>1798</ele><speed>8.60</speed><time>2016-06-01T14:49:44Z</time><pdop>8.0</pdop><geoidheight>50.60</geoidheight><course>63.168755</course><type>1</type></trkpt>
      <trkpt lat="39.17556015056592" lon="-6.329434459886653"><ele>1804</ele><speed>6.17</speed><time>2016-06-01T14:49:47Z</time><pdop>8.0</pdop><geoidheight>50.60</geoidheight><course>13.595515</course><type>1</type></trkpt>
      <trkpt lat="39.17572925518371" lon="-6.329423230587674"><ele>1810</ele><speed>5.99</speed><time>2016-06-01T14:49:50Z</time><pdop>6.0</pdop><geoidheight>50.60</geoidheight><course>354.19696</course><type>1</type></trkpt>
      <trkpt lat="39.175839352879905" lon="-6.329448769407698"><ele>1815</ele><speed>5.99</speed><time>2016-06-01T14:49:51Z</time><pdop>6.0</pdop><geoidheight>50.60</geoidheight><course>347.64267</course><type>1</type></trkpt>
      <trkpt lat="39.175962879394234" lon="-6.3296394309757344"><ele>1823</ele><speed>5.09</speed><time>2016-06-01T14:49:56Z</time><pdop>6.0</pdop><geoidheight>50.60</geoidheight><course>266.89404</course><type>1</type></trkpt>
      <trkpt lat="39.17582984256953" lon="-6.3297583960171995"><ele>1826</ele><speed>9.66</speed><time>2016-06-01T14:49:58Z</time><pdop>8.0</pdop><geoidheight>50.60</geoidheight><course>192.05891</course><type>1</type></trkpt>
      <trkpt lat="39.17560334246728" lon="-6.329810324893315"><ele>1826</ele><speed>8.59</speed><time>2016-06-01T14:50:02Z</time><pdop>12.0</pdop><geoidheight>50.60</geoidheight><course>187.74344</course><type>1</type></trkpt>
      <trkpt lat="39.175372620096475" lon="-6.329770936178538"><ele>1827</ele><speed>8.11</speed><time>2016-06-01T14:50:05Z</time><pdop>8.0</pdop><geoidheight>50.60</geoidheight><course>171.31688</course><type>1</type></trkpt>
      <trkpt lat="39.17522014559619" lon="-6.329776381822603"><ele>1830</ele><speed>8.28</speed><time>2016-06-01T14:50:07Z</time><pdop>8.0</pdop><geoidheight>50.60</geoidheight><course>190.4525</course><type>1</type></trkpt>
      <trkpt lat="39.17504971309333" lon="-6.329771537907414"><ele>1834</ele><speed>9.44</speed><time>2016-06-01T14:50:09Z</time><pdop>8.0</pdop><geoidheight>50.60</geoidheight><course>167.2759</course><type>1</type></trkpt>
      <trkpt lat="39.174876499920934" lon="-6.329692951133415"><ele>1837</ele><speed>9.17</speed><time>2016-06-01T14:50:11Z</time><pdop>6.0</pdop><geoidheight>50.60</geoidheight><course>139.36786</course><type>1</type></trkpt>
      <trkpt lat="39.1747458519273" lon="-6.329570172281358"><ele>1841</ele><speed>8.53</speed><time>2016-06-01T14:50:13Z</time><pdop>6.0</pdop><geoidheight>50.60</geoidheight><course>134.65643</course><type>1</type></trkpt>
      <trkpt lat="39.17465976818164" lon="-6.329411036801026"><ele>1845</ele><speed>9.19</speed><time>2016-06-01T14:50:15Z</time><pdop>8.0</pdop><geoidheight>50.60</geoidheight><course>110.73578</course><type>1</type></trkpt>
      <trkpt lat="39.174640699283636" lon="-6.329197494309022"><ele>1848</ele><speed>9.50</speed><time>2016-06-01T14:50:17Z</time><pdop>8.0</pdop><geoidheight>50.60</geoidheight><course>92.04857</course><type>1</type></trkpt>
      <trkpt lat="39.174690438580576" lon="-6.328986507728549"><ele>1852</ele><speed>7.84</speed><time>2016-06-01T14:50:19Z</time><pdop>8.0</pdop><geoidheight>50.60</geoidheight><course>65.89685</course><type>1</type></trkpt>
      <trkpt lat="39.17483270197665" lon="-6.328811951014223"><ele>1858</ele><speed>7.66</speed><time>2016-06-01T14:50:22Z</time><pdop>8.0</pdop><geoidheight>50.60</geoidheight><course>28.728914</course><type>1</type></trkpt>
      <trkpt lat="39.174970276179515" lon="-6.328751568143306"><ele>1863</ele><speed>8.69</speed><time>2016-06-01T14:50:24Z</time><pdop>8.0</pdop><geoidheight>50.60</geoidheight><course>5.721855</course><type>1</type></trkpt>
      <trkpt lat="39.17509743898262" lon="-6.328881269316407"><ele>1875</ele><speed>4.94</speed><time>2016-06-01T14:50:28Z</time><pdop>8.0</pdop><geoidheight>50.60</geoidheight><course>268.82593</course><type>1</type></trkpt>
      <trkpt lat="39.17497867604245" lon="-6.329036752361525"><ele>1887</ele><speed>7.92</speed><time>2016-06-01T14:50:32Z</time><pdop>8.0</pdop><geoidheight>50.60</geoidheight><course>197.49074</course><type>1</type></trkpt>
      <trkpt lat="39.174823584974845" lon="-6.329040503721655"><ele>1892</ele><speed>9.79</speed><time>2016-06-01T14:50:33Z</time><pdop>8.0</pdop><geoidheight>50.60</geoidheight><course>170.59933</course><type>1</type></trkpt>
      <trkpt lat="39.17466257104718" lon="-6.328998261846884"><ele>1897</ele><speed>8.74</speed><time>2016-06-01T14:50:36Z</time><pdop>8.0</pdop><geoidheight>50.60</geoidheight><course>149.46507</course><type>1</type></trkpt>
      <trkpt lat="39.174555603582476" lon="-6.328891319292736"><ele>1901</ele><speed>9.09</speed><time>2016-06-01T14:50:38Z</time><pdop>6.0</pdop><geoidheight>50.60</geoidheight><course>130.0499</course><type>1</type></trkpt>
      <trkpt lat="39.174470639600074" lon="-6.328635260714748"><ele>1904</ele><speed>9.07</speed><time>2016-06-01T14:50:40Z</time><pdop>12.0</pdop><geoidheight>50.60</geoidheight><course>94.43371</course><type>1</type></trkpt>
      <trkpt lat="39.174529680930846" lon="-6.3283184955579905"><ele>1907</ele><speed>8.71</speed><time>2016-06-01T14:50:44Z</time><pdop>8.0</pdop><geoidheight>50.60</geoidheight><course>61.29739</course><type>1</type></trkpt>
      <trkpt lat="39.174647172594504" lon="-6.328145474560881"><ele>1910</ele><speed>8.14</speed><time>2016-06-01T14:50:46Z</time><pdop>8.0</pdop><geoidheight>50.60</geoidheight><course>28.524035</course><type>1</type></trkpt>
      <trkpt lat="39.17480519004595" lon="-6.328029998727239"><ele>1915</ele><speed>6.73</speed><time>2016-06-01T14:50:49Z</time><pdop>8.0</pdop><geoidheight>50.60</geoidheight><course>8.151453</course><type>1</type></trkpt>
      <trkpt lat="39.17493643685359" lon="-6.3282425971046"><ele>1934</ele><speed>5.98</speed><time>2016-06-01T14:50:54Z</time><pdop>6.0</pdop><geoidheight>50.60</geoidheight><course>265.2954</course><type>1</type></trkpt>
      <trkpt lat="39.17480244628894" lon="-6.328455004133999"><ele>1946</ele><speed>9.33</speed><time>2016-06-01T14:50:58Z</time><pdop>12.0</pdop><geoidheight>50.60</geoidheight><course>194.81158</course><type>1</type></trkpt>
      <trkpt lat="39.1745676891346" lon="-6.328484590770288"><ele>1950</ele><speed>7.13</speed><time>2016-06-01T14:51:01Z</time><pdop>8.0</pdop><geoidheight>50.60</geoidheight><course>165.28824</course><type>1</type></trkpt>
      <trkpt lat="39.17441632082654" lon="-6.328342958412184"><ele>1954</ele><speed>8.81</speed><time>2016-06-01T14:51:03Z</time><pdop>12.0</pdop><geoidheight>50.60</geoidheight><course>130.07002</course><type>1</type></trkpt>
      <trkpt lat="39.174351004425596" lon="-6.32800342213606"><ele>1956</ele><speed>12.05</speed><time>2016-06-01T14:51:07Z</time><pdop>12.0</pdop><geoidheight>50.60</geoidheight><course>93.91707</course><type>1</type></trkpt>
      <trkpt lat="39.1744362673862" lon="-6.327715014231056"><ele>1964</ele><speed>7.52</speed><time>2016-06-01T14:51:09Z</time><pdop>8.0</pdop><geoidheight>50.60</geoidheight><course>61.039116</course><type>1</type></trkpt>
      <trkpt lat="39.17466909876478" lon="-6.327560764727572"><ele>1976</ele><speed>8.34</speed><time>2016-06-01T14:51:14Z</time><pdop>12.0</pdop><geoidheight>50.60</geoidheight><course>347.58612</course><type>1</type></trkpt>
      <trkpt lat="39.17472084611989" lon="-6.327801028990557"><ele>1989</ele><speed>7.99</speed><time>2016-06-01T14:51:18Z</time><pdop>8.0</pdop><geoidheight>50.60</geoidheight><course>237.53635</course><type>1</type></trkpt>
      <trkpt lat="39.17453134996566" lon="-6.327867453790269"><ele>1995</ele><speed>9.08</speed><time>2016-06-01T14:51:20Z</time><pdop>8.0</pdop><geoidheight>50.60</geoidheight><course>170.70436</course><type>1</type></trkpt>
      <trkpt lat="39.17438943023106" lon="-6.327758041899841"><ele>1999</ele><speed>8.91</speed><time>2016-06-01T14:51:23Z</time><pdop>8.0</pdop><geoidheight>50.60</geoidheight><course>132.6025</course><type>1</type></trkpt>
      <trkpt lat="39.174295591811365" lon="-6.327592660364852"><ele>2003</ele><speed>9.73</speed><time>2016-06-01T14:51:25Z</time><pdop>8.0</pdop><geoidheight>50.60</geoidheight><course>114.68817</course><type>1</type></trkpt>
      <trkpt lat="39.174235492940845" lon="-6.327393782035248"><ele>2007</ele><speed>10.04</speed><time>2016-06-01T14:51:26Z</time><pdop>6.0</pdop><geoidheight>50.60</geoidheight><course>108.398705</course><type>1</type></trkpt>
      <trkpt lat="39.174249546896526" lon="-6.32715188711397"><ele>2009</ele><speed>10.25</speed><time>2016-06-01T14:51:29Z</time><pdop>8.0</pdop><geoidheight>50.60</geoidheight><course>83.51662</course><type>1</type></trkpt>
      <trkpt lat="39.17431980847087" lon="-6.326937245545597"><ele>2013</ele><speed>8.11</speed><time>2016-06-01T14:51:31Z</time><pdop>8.0</pdop><geoidheight>50.60</geoidheight><course>56.230072</course><type>1</type></trkpt>
      <trkpt lat="39.17452621126416" lon="-6.326761542595669"><ele>2017</ele><speed>10.08</speed><time>2016-06-01T14:51:34Z</time><pdop>8.0</pdop><geoidheight>50.60</geoidheight><course>14.657714</course><type>1</type></trkpt>
      <trkpt lat="39.17471428067143" lon="-6.3268121760051805"><ele>2021</ele><speed>6.81</speed><time>2016-06-01T14:51:37Z</time><pdop>12.0</pdop><geoidheight>50.60</geoidheight><course>327.60562</course><type>1</type></trkpt>
      <trkpt lat="39.174754592727595" lon="-6.327081922848565"><ele>2034</ele><speed>8.50</speed><time>2016-06-01T14:51:40Z</time><pdop>8.0</pdop><geoidheight>50.60</geoidheight><course>241.4927</course><type>1</type></trkpt>
      <trkpt lat="39.17464741427795" lon="-6.3272417271537105"><ele>2041</ele><speed>7.37</speed><time>2016-06-01T14:51:44Z</time><pdop>6.0</pdop><geoidheight>50.60</geoidheight><course>217.96585</course><type>1</type></trkpt>
      <trkpt lat="39.174543562787704" lon="-6.327318633740471"><ele>2045</ele><speed>7.88</speed><time>2016-06-01T14:51:45Z</time><pdop>6.0</pdop><geoidheight>50.60</geoidheight><course>202.72415</course><type>1</type></trkpt>
      <trkpt lat="39.174399962543255" lon="-6.327349587972186"><ele>2049</ele><speed>8.08</speed><time>2016-06-01T14:51:48Z</time><pdop>8.0</pdop><geoidheight>50.60</geoidheight><course>187.83719</course><type>1</type></trkpt>
      <trkpt lat="39.17419679180678" lon="-6.327258335029389"><ele>2052</ele><speed>10.30</speed><time>2016-06-01T14:51:50Z</time><pdop>8.0</pdop><geoidheight>50.60</geoidheight><course>152.34758</course><type>1</type></trkpt>
      <trkpt lat="39.174030560458725" lon="-6.327117141555369"><ele>2053</ele><speed>9.84</speed><time>2016-06-01T14:51:52Z</time><pdop>6.0</pdop><geoidheight>50.60</geoidheight><course>136.54868</course><type>1</type></trkpt>
      <trkpt lat="39.17389462175471" lon="-6.326941524690758"><ele>2055</ele><speed>10.58</speed><time>2016-06-01T14:51:54Z</time><pdop>6.0</pdop><geoidheight>50.60</geoidheight><course>131.67558</course><type>1</type></trkpt>
      <trkpt lat="39.173800704179264" lon="-6.326733727298085"><ele>2058</ele><speed>11.13</speed><time>2016-06-01T14:51:56Z</time><pdop>8.0</pdop><geoidheight>50.60</geoidheight><course>113.04824</course><type>1</type></trkpt>
      <trkpt lat="39.17377699167373" lon="-6.32647854208042"><ele>2061</ele><speed>10.66</speed><time>2016-06-01T14:51:58Z</time><pdop>8.0</pdop><geoidheight>50.60</geoidheight><course>93.45186</course><type>1</type></trkpt>
      <trkpt lat="39.17380932255284" lon="-6.3262211701883615"><ele>2066</ele><speed>9.75</speed><time>2016-06-01T14:52:00Z</time><pdop>8.0</pdop><geoidheight>50.60</geoidheight><course>75.04523</course><type>1</type></trkpt>
      <trkpt lat="39.17391308401035" lon="-6.326047726468725"><ele>2070</ele><speed>8.73</speed><time>2016-06-01T14:52:02Z</time><pdop>8.0</pdop><geoidheight>50.60</geoidheight><course>38.421055</course><type>1</type></trkpt>
      <trkpt lat="39.17405835899201" lon="-6.325963941120017"><ele>2075</ele><speed>8.91</speed><time>2016-06-01T14:52:04Z</time><pdop>8.0</pdop><geoidheight>50.60</geoidheight><course>2.5712144</course><type>1</type></trkpt>
      <trkpt lat="39.1742333416608" lon="-6.326027810679072"><ele>2082</ele><speed>6.42</speed><time>2016-06-01T14:52:07Z</time><pdop>8.0</pdop><geoidheight>50.60</geoidheight><course>310.6962</course><type>1</type></trkpt>
      <trkpt lat="39.174307404174755" lon="-6.326214626103965"><ele>2086</ele><speed>7.05</speed><time>2016-06-01T14:52:09Z</time><pdop>8.0</pdop><geoidheight>50.60</geoidheight><course>294.44284</course><type>1</type></trkpt>
      <trkpt lat="39.174296227786336" lon="-6.326382677955752"><ele>2088</ele><speed>7.45</speed><time>2016-06-01T14:52:12Z</time><pdop>6.0</pdop><geoidheight>50.60</geoidheight><course>229.54651</course><type>1</type></trkpt>
      <trkpt lat="39.17419461214957" lon="-6.326490350259667"><ele>2089</ele><speed>8.09</speed><time>2016-06-01T14:52:14Z</time><pdop>8.0</pdop><geoidheight>50.60</geoidheight><course>206.53027</course><type>1</type></trkpt>
      <trkpt lat="39.17402822933681" lon="-6.326498607014659"><ele>2090</ele><speed>8.64</speed><time>2016-06-01T14:52:16Z</time><pdop>8.0</pdop><geoidheight>50.60</geoidheight><course>178.95345</course><type>1</type></trkpt>
      <trkpt lat="39.17384732848643" lon="-6.326464780428969"><ele>2092</ele><speed>10.21</speed><time>2016-06-01T14:52:18Z</time><pdop>8.0</pdop><geoidheight>50.60</geoidheight><course>172.66673</course><type>1</type></trkpt>
      <trkpt lat="39.17365782426433" lon="-6.326388885832191"><ele>2094</ele><speed>10.43</speed><time>2016-06-01T14:52:20Z</time><pdop>8.0</pdop><geoidheight>50.60</geoidheight><course>153.88673</course><type>1</type></trkpt>
      <trkpt lat="39.17350829527912" lon="-6.326304418761491"><ele>2095</ele><speed>7.73</speed><time>2016-06-01T14:52:21Z</time><pdop>8.0</pdop><geoidheight>50.60</geoidheight><course>148.92346</course><type>1</type></trkpt>
      <trkpt lat="39.17337083207931" lon="-6.326129549327283"><ele>2098</ele><speed>9.21</speed><time>2016-06-01T14:52:25Z</time><pdop>8.0</pdop><geoidheight>50.60</geoidheight><course>129.8003</course><type>1</type></trkpt>
      <trkpt lat="39.1732924731374" lon="-6.325890410315688"><ele>2100</ele><speed>11.24</speed><time>2016-06-01T14:52:27Z</time><pdop>8.0</pdop><geoidheight>50.60</geoidheight><course>111.23832</course><type>1</type></trkpt>
      <trkpt lat="39.173319788720654" lon="-6.3256461467299445"><ele>2102</ele><speed>8.87</speed><time>2016-06-01T14:52:29Z</time><pdop>8.0</pdop><geoidheight>50.60</geoidheight><course>65.118576</course><type>1</type></trkpt>
      <trkpt lat="39.17342594768575" lon="-6.325490440519453"><ele>2105</ele><speed>8.41</speed><time>2016-06-01T14:52:31Z</time><pdop>8.0</pdop><geoidheight>50.60</geoidheight><course>28.814035</course><type>1</type></trkpt>
      <trkpt lat="39.173596488855104" lon="-6.325314637985877"><ele>2110</ele><speed>10.25</speed><time>2016-06-01T14:52:34Z</time><pdop>8.0</pdop><geoidheight>50.60</geoidheight><course>51.816948</course><type>1</type></trkpt>
      <trkpt lat="39.173708189331336" lon="-6.325114183680274"><ele>2113</ele><speed>10.21</speed><time>2016-06-01T14:52:36Z</time><pdop>8.0</pdop><geoidheight>50.60</geoidheight><course>55.30232</course><type>1</type></trkpt>
      <trkpt lat="39.173840950376466" lon="-6.324984069370705"><ele>2115</ele><speed>9.90</speed><time>2016-06-01T14:52:38Z</time><pdop>8.0</pdop><geoidheight>50.60</geoidheight><course>17.22467</course><type>1</type></trkpt>
      <trkpt lat="39.17399403387409" lon="-6.324961484773257"><ele>2115</ele><speed>9.27</speed><time>2016-06-01T14:52:39Z</time><pdop>8.0</pdop><geoidheight>50.60</geoidheight><course>1.0755739</course><type>1</type></trkpt>
      <trkpt lat="39.174189816081395" lon="-6.325040412503678"><ele>2116</ele><speed>7.01</speed><time>2016-06-01T14:52:43Z</time><pdop>12.0</pdop><geoidheight>50.60</geoidheight><course>323.53427</course><type>1</type></trkpt>
      <trkpt lat="39.17427501903716" lon="-6.32529936472703"><ele>2119</ele><speed>6.43</speed><time>2016-06-01T14:52:47Z</time><pdop>8.0</pdop><geoidheight>50.60</geoidheight><course>262.0277</course><type>1</type></trkpt>
      <trkpt lat="39.17416961696023" lon="-6.325507732740556"><ele>2123</ele><speed>8.26</speed><time>2016-06-01T14:52:50Z</time><pdop>8.0</pdop><geoidheight>50.60</geoidheight><course>214.97337</course><type>1</type></trkpt>
      <trkpt lat="39.17395257897043" lon="-6.325578108037221"><ele>2124</ele><speed>8.13</speed><time>2016-06-01T14:52:54Z</time><pdop>12.0</pdop><geoidheight>50.60</geoidheight><course>181.06274</course><type>1</type></trkpt>
      <trkpt lat="39.17376944287124" lon="-6.325574214574576"><ele>2123</ele><speed>6.81</speed><time>2016-06-01T14:52:57Z</time><pdop>8.0</pdop><geoidheight>50.60</geoidheight><course>177.55107</course><type>1</type></trkpt>
      <trkpt lat="39.17361987997856" lon="-6.325557663731246"><ele>2124</ele><speed>8.70</speed><time>2016-06-01T14:52:59Z</time><pdop>8.0</pdop><geoidheight>50.60</geoidheight><course>173.80301</course><type>1</type></trkpt>
      <trkpt lat="39.17342935582101" lon="-6.325525244601003"><ele>2126</ele><speed>5.35</speed><time>2016-06-01T14:53:02Z</time><pdop>8.0</pdop><geoidheight>50.60</geoidheight><course>174.98602</course><type>1</type></trkpt>
      <trkpt lat="39.17324339198634" lon="-6.325500946948899"><ele>2128</ele><speed>6.63</speed><time>2016-06-01T14:53:05Z</time><pdop>12.0</pdop><geoidheight>50.60</geoidheight><course>160.17288</course><type>1</type></trkpt>
      <trkpt lat="39.17307156147317" lon="-6.325239948747261"><ele>2127</ele><speed>11.49</speed><time>2016-06-01T14:53:08Z</time><pdop>8.0</pdop><geoidheight>50.60</geoidheight><course>99.85563</course><type>1</type></trkpt>
      <trkpt lat="39.17303952959159" lon="-6.324938362868337"><ele>2125</ele><speed>9.51</speed><time>2016-06-01T14:53:11Z</time><pdop>8.0</pdop><geoidheight>50.60</geoidheight><course>96.191925</course><type>1</type></trkpt>
      <trkpt lat="39.17302424852932" lon="-6.324753110248344"><ele>2124</ele><speed>9.25</speed><time>2016-06-01T14:53:13Z</time><pdop>8.0</pdop><geoidheight>50.60</geoidheight><course>99.35618</course><type>1</type></trkpt>
      <trkpt lat="39.17300749585401" lon="-6.3245400556367075"><ele>2124</ele><speed>10.32</speed><time>2016-06-01T14:53:14Z</time><pdop>8.0</pdop><geoidheight>50.60</geoidheight><course>94.845985</course><type>1</type></trkpt>
      <trkpt lat="39.1730416377588" lon="-6.324290045439085"><ele>2125</ele><speed>12.09</speed><time>2016-06-01T14:53:17Z</time><pdop>8.0</pdop><geoidheight>50.60</geoidheight><course>79.76159</course><type>1</type></trkpt>
      <trkpt lat="39.173081448530894" lon="-6.324023605595335"><ele>2128</ele><speed>11.09</speed><time>2016-06-01T14:53:19Z</time><pdop>6.0</pdop><geoidheight>50.60</geoidheight><course>78.48212</course><type>1</type></trkpt>
      <trkpt lat="39.17311298777843" lon="-6.3237817419867195"><ele>2130</ele><speed>10.27</speed><time>2016-06-01T14:53:20Z</time><pdop>6.0</pdop><geoidheight>50.60</geoidheight><course>81.15328</course><type>1</type></trkpt>
      <trkpt lat="39.1731324459375" lon="-6.323541449973058"><ele>2131</ele><speed>11.63</speed><time>2016-06-01T14:53:23Z</time><pdop>8.0</pdop><geoidheight>50.60</geoidheight><course>83.43763</course><type>1</type></trkpt>
      <trkpt lat="39.17315957417726" lon="-6.323262445293735"><ele>2130</ele><speed>12.37</speed><time>2016-06-01T14:53:25Z</time><pdop>8.0</pdop><geoidheight>50.60</geoidheight><course>81.42315</course><type>1</type></trkpt>
      <trkpt lat="39.17319608943238" lon="-6.3229685513774285"><ele>2130</ele><speed>12.92</speed><time>2016-06-01T14:53:27Z</time><pdop>6.0</pdop><geoidheight>50.60</geoidheight><course>80.20524</course><type>1</type></trkpt>
      <trkpt lat="39.173217109620076" lon="-6.3228205778038875"><ele>2129</ele><speed>12.91</speed><time>2016-06-01T14:53:28Z</time><pdop>6.0</pdop><geoidheight>50.60</geoidheight><course>79.59178</course><type>1</type></trkpt>
      <trkpt lat="39.17324093358923" lon="-6.322679214569291"><ele>2129</ele><speed>11.95</speed><time>2016-06-01T14:53:29Z</time><pdop>6.0</pdop><geoidheight>50.60</geoidheight><course>78.320854</course><type>1</type></trkpt>
      <trkpt lat="39.17329552601142" lon="-6.32242706262292"><ele>2128</ele><speed>10.03</speed><time>2016-06-01T14:53:31Z</time><pdop>8.0</pdop><geoidheight>50.60</geoidheight><course>73.45547</course><type>1</type></trkpt>
      <trkpt lat="39.17339438714286" lon="-6.322229081099819"><ele>2128</ele><speed>9.96</speed><time>2016-06-01T14:53:33Z</time><pdop>8.0</pdop><geoidheight>50.60</geoidheight><course>56.99784</course><type>1</type></trkpt>
      <trkpt lat="39.173507251590195" lon="-6.322051452969595"><ele>2128</ele><speed>10.55</speed><time>2016-06-01T14:53:35Z</time><pdop>8.0</pdop><geoidheight>50.60</geoidheight><course>52.475674</course><type>1</type></trkpt>
      <trkpt lat="39.173637164473845" lon="-6.321866097128989"><ele>2128</ele><speed>11.29</speed><time>2016-06-01T14:53:37Z</time><pdop>8.0</pdop><geoidheight>50.60</geoidheight><course>49.566162</course><type>1</type></trkpt>
      <trkpt lat="39.17375633090939" lon="-6.321679616449639"><ele>2128</ele><speed>10.19</speed><time>2016-06-01T14:53:39Z</time><pdop>8.0</pdop><geoidheight>50.60</geoidheight><course>53.814087</course><type>1</type></trkpt>
      <trkpt lat="39.17391900547485" lon="-6.321405689661905"><ele>2129</ele><speed>10.68</speed><time>2016-06-01T14:53:42Z</time><pdop>6.0</pdop><geoidheight>50.60</geoidheight><course>49.618145</course><type>1</type></trkpt>
      <trkpt lat="39.17411846007096" lon="-6.321156462282726"><ele>2130</ele><speed>9.06</speed><time>2016-06-01T14:53:44Z</time><pdop>8.0</pdop><geoidheight>50.60</geoidheight><course>44.60597</course><type>1</type></trkpt>
      <trkpt lat="39.1743608033624" lon="-6.321088550826529"><ele>2130</ele><speed>9.72</speed><time>2016-06-01T14:53:48Z</time><pdop>12.0</pdop><geoidheight>50.60</geoidheight><course>1.939313</course><type>1</type></trkpt>
      <trkpt lat="39.174608348490466" lon="-6.3210908288493854"><ele>2131</ele><speed>8.94</speed><time>2016-06-01T14:53:51Z</time><pdop>8.0</pdop><geoidheight>50.60</geoidheight><course>0.94726557</course><type>1</type></trkpt>
      <trkpt lat="39.17486216992836" lon="-6.32112153128014"><ele>2132</ele><speed>9.52</speed><time>2016-06-01T14:53:54Z</time><pdop>8.0</pdop><geoidheight>50.60</geoidheight><course>353.28427</course><type>1</type></trkpt>
      <trkpt lat="39.17502888966095" lon="-6.32116335481292"><ele>2131</ele><speed>9.96</speed><time>2016-06-01T14:53:56Z</time><pdop>8.0</pdop><geoidheight>50.60</geoidheight><course>349.65848</course><type>1</type></trkpt>
      <trkpt lat="39.17520956487389" lon="-6.321222907011299"><ele>2129</ele><speed>11.48</speed><time>2016-06-01T14:53:57Z</time><pdop>6.0</pdop><geoidheight>50.60</geoidheight><course>347.88455</course><type>1</type></trkpt>
      <trkpt lat="39.1753997904628" lon="-6.321267451417047"><ele>2127</ele><speed>9.39</speed><time>2016-06-01T14:54:00Z</time><pdop>8.0</pdop><geoidheight>50.60</geoidheight><course>352.8352</course><type>1</type></trkpt>
      <trkpt lat="39.17558380104709" lon="-6.321307577647029"><ele>2126</ele><speed>9.24</speed><time>2016-06-01T14:54:02Z</time><pdop>6.0</pdop><geoidheight>50.60</geoidheight><course>351.25482</course><type>1</type></trkpt>
      <trkpt lat="39.1757588998869" lon="-6.321359979148351"><ele>2126</ele><speed>10.55</speed><time>2016-06-01T14:54:04Z</time><pdop>6.0</pdop><geoidheight>50.60</geoidheight><course>348.0715</course><type>1</type></trkpt>
      <trkpt lat="39.1759341991485" lon="-6.321420188737155"><ele>2126</ele><speed>10.63</speed><time>2016-06-01T14:54:06Z</time><pdop>6.0</pdop><geoidheight>50.60</geoidheight><course>345.4583</course><type>1</type></trkpt>
      <trkpt lat="39.176109673868964" lon="-6.32148007527234"><ele>2126</ele><speed>10.16</speed><time>2016-06-01T14:54:08Z</time><pdop>6.0</pdop><geoidheight>50.60</geoidheight><course>344.8736</course><type>1</type></trkpt>
      <trkpt lat="39.176286902466295" lon="-6.321542520150992"><ele>2126</ele><speed>9.34</speed><time>2016-06-01T14:54:09Z</time><pdop>6.0</pdop><geoidheight>50.60</geoidheight><course>346.11502</course><type>1</type></trkpt>
      <trkpt lat="39.17644423267382" lon="-6.321589370536642"><ele>2125</ele><speed>8.92</speed><time>2016-06-01T14:54:12Z</time><pdop>6.0</pdop><geoidheight>50.60</geoidheight><course>348.31985</course><type>1</type></trkpt>
      <trkpt lat="39.1766442196433" lon="-6.321653855897121"><ele>2125</ele><speed>8.70</speed><time>2016-06-01T14:54:15Z</time><pdop>12.0</pdop><geoidheight>50.60</geoidheight><course>341.2991</course><type>1</type></trkpt>
      <trkpt lat="39.176796687699074" lon="-6.321743866627526"><ele>2124</ele><speed>9.55</speed><time>2016-06-01T14:54:16Z</time><pdop>6.0</pdop><geoidheight>50.60</geoidheight><course>336.21198</course><type>1</type></trkpt>
      <trkpt lat="39.176950351110655" lon="-6.321807712302901"><ele>2123</ele><speed>8.84</speed><time>2016-06-01T14:54:19Z</time><pdop>6.0</pdop><geoidheight>50.60</geoidheight><course>352.43906</course><type>1</type></trkpt>
      <trkpt lat="39.177108681275186" lon="-6.321826310677719"><ele>2122</ele><speed>9.57</speed><time>2016-06-01T14:54:21Z</time><pdop>6.0</pdop><geoidheight>50.60</geoidheight><course>359.10233</course><type>1</type></trkpt>
      <trkpt lat="39.17730683779102" lon="-6.32186689809034"><ele>2120</ele><speed>7.76</speed><time>2016-06-01T14:54:24Z</time><pdop>8.0</pdop><geoidheight>50.60</geoidheight><course>331.60535</course><type>1</type></trkpt>
      <trkpt lat="39.17746999195514" lon="-6.322083685263812"><ele>2117</ele><speed>9.39</speed><time>2016-06-01T14:54:27Z</time><pdop>8.0</pdop><geoidheight>50.60</geoidheight><course>298.0162</course><type>1</type></trkpt>
      <trkpt lat="39.177536748614685" lon="-6.322289820939406"><ele>2112</ele><speed>6.31</speed><time>2016-06-01T14:54:30Z</time><pdop>8.0</pdop><geoidheight>50.60</geoidheight><course>292.18158</course><type>1</type></trkpt>
      <trkpt lat="39.177650058338955" lon="-6.322498186891352"><ele>2107</ele><speed>10.13</speed><time>2016-06-01T14:54:33Z</time><pdop>6.0</pdop><geoidheight>50.60</geoidheight><course>310.66855</course><type>1</type></trkpt>
      <trkpt lat="39.17781388663495" lon="-6.322631756346643"><ele>2102</ele><speed>10.93</speed><time>2016-06-01T14:54:35Z</time><pdop>8.0</pdop><geoidheight>50.60</geoidheight><course>327.0788</course><type>1</type></trkpt>
      <trkpt lat="39.17797650653407" lon="-6.32273095617234"><ele>2098</ele><speed>9.14</speed><time>2016-06-01T14:54:37Z</time><pdop>8.0</pdop><geoidheight>50.60</geoidheight><course>333.32123</course><type>1</type></trkpt>
      <trkpt lat="39.178120722967115" lon="-6.322812772318085"><ele>2094</ele><speed>9.42</speed><time>2016-06-01T14:54:39Z</time><pdop>6.0</pdop><geoidheight>50.60</geoidheight><course>333.7544</course><type>1</type></trkpt>
      <trkpt lat="39.17829000336106" lon="-6.32292718709086"><ele>2091</ele><speed>13.51</speed><time>2016-06-01T14:54:40Z</time><pdop>12.0</pdop><geoidheight>50.60</geoidheight><course>329.29495</course><type>1</type></trkpt>
      <trkpt lat="39.178529121751" lon="-6.323088092292725"><ele>2086</ele><speed>8.83</speed><time>2016-06-01T14:54:44Z</time><pdop>8.0</pdop><geoidheight>50.60</geoidheight><course>331.43735</course><type>1</type></trkpt>
      <trkpt lat="39.17876184014643" lon="-6.323266038363436"><ele>2076</ele><speed>12.47</speed><time>2016-06-01T14:54:46Z</time><pdop>16.0</pdop><geoidheight>50.60</geoidheight><course>326.87625</course><type>1</type></trkpt>
      <trkpt lat="39.17899196826246" lon="-6.323460936811386"><ele>2069</ele><speed>7.81</speed><time>2016-06-01T14:54:50Z</time><pdop>8.0</pdop><geoidheight>50.60</geoidheight><course>325.25967</course><type>1</type></trkpt>
      <trkpt lat="39.179107870628194" lon="-6.323576899292282"><ele>2065</ele><speed>8.72</speed><time>2016-06-01T14:54:52Z</time><pdop>8.0</pdop><geoidheight>50.60</geoidheight><course>322.47623</course><type>1</type></trkpt>
      <trkpt lat="39.17926471825555" lon="-6.323726758280264"><ele>2059</ele><speed>12.42</speed><time>2016-06-01T14:54:54Z</time><pdop>8.0</pdop><geoidheight>50.60</geoidheight><course>322.33694</course><type>1</type></trkpt>
      <trkpt lat="39.17940775725844" lon="-6.323885299999195"><ele>2053</ele><speed>9.93</speed><time>2016-06-01T14:54:56Z</time><pdop>8.0</pdop><geoidheight>50.60</geoidheight><course>318.15244</course><type>1</type></trkpt>
      <trkpt lat="39.17952727039398" lon="-6.324013056912127"><ele>2050</ele><speed>4.94</speed><time>2016-06-01T14:54:59Z</time><pdop>8.0</pdop><geoidheight>50.60</geoidheight><course>324.49973</course><type>1</type></trkpt>
      <trkpt lat="39.179684500384035" lon="-6.3241848075229905"><ele>2049</ele><speed>8.50</speed><time>2016-06-01T14:55:01Z</time><pdop>8.0</pdop><geoidheight>50.60</geoidheight><course>316.24197</course><type>1</type></trkpt>
      <trkpt lat="39.179819192391186" lon="-6.324330652068339"><ele>2044</ele><speed>6.42</speed><time>2016-06-01T14:55:05Z</time><pdop>8.0</pdop><geoidheight>50.60</geoidheight><course>341.8163</course><type>1</type></trkpt>
      <trkpt lat="39.17996974582647" lon="-6.324311478101485"><ele>2036</ele><speed>8.63</speed><time>2016-06-01T14:55:08Z</time><pdop>8.0</pdop><geoidheight>50.60</geoidheight><course>16.573584</course><type>1</type></trkpt>
      <trkpt lat="39.18012661734625" lon="-6.324228637063466"><ele>2029</ele><speed>10.57</speed><time>2016-06-01T14:55:09Z</time><pdop>8.0</pdop><geoidheight>50.60</geoidheight><course>21.970085</course><type>1</type></trkpt>
      <trkpt lat="39.18029049442179" lon="-6.324110941506142"><ele>2024</ele><speed>10.93</speed><time>2016-06-01T14:55:12Z</time><pdop>12.0</pdop><geoidheight>50.60</geoidheight><course>28.426785</course><type>1</type></trkpt>
      <trkpt lat="39.18045191448466" lon="-6.323973882651148"><ele>2018</ele><speed>10.70</speed><time>2016-06-01T14:55:14Z</time><pdop>8.0</pdop><geoidheight>50.60</geoidheight><course>30.72661</course><type>1</type></trkpt>
      <trkpt lat="39.18060360796739" lon="-6.323819932747029"><ele>2015</ele><speed>11.08</speed><time>2016-06-01T14:55:16Z</time><pdop>8.0</pdop><geoidheight>50.60</geoidheight><course>36.51731</course><type>1</type></trkpt>
      <trkpt lat="39.18073363919025" lon="-6.323612152005918"><ele>2013</ele><speed>10.92</speed><time>2016-06-01T14:55:18Z</time><pdop>8.0</pdop><geoidheight>50.60</geoidheight><course>51.297523</course><type>1</type></trkpt>
      <trkpt lat="39.180867326427816" lon="-6.323425375523138"><ele>2009</ele><speed>11.15</speed><time>2016-06-01T14:55:20Z</time><pdop>8.0</pdop><geoidheight>50.60</geoidheight><course>46.29874</course><type>1</type></trkpt>
      <trkpt lat="39.18100648128855" lon="-6.323248600837985"><ele>2006</ele><speed>11.78</speed><time>2016-06-01T14:55:22Z</time><pdop>8.0</pdop><geoidheight>50.60</geoidheight><course>45.32557</course><type>1</type></trkpt>
      <trkpt lat="39.18118082269336" lon="-6.3230853063648365"><ele>2001</ele><speed>12.63</speed><time>2016-06-01T14:55:24Z</time><pdop>8.0</pdop><geoidheight>50.60</geoidheight><course>27.47582</course><type>1</type></trkpt>
      <trkpt lat="39.18136534198902" lon="-6.322965872846759"><ele>1997</ele><speed>11.09</speed><time>2016-06-01T14:55:26Z</time><pdop>6.0</pdop><geoidheight>50.60</geoidheight><course>25.074057</course><type>1</type></trkpt>
      <trkpt lat="39.181536097758084" lon="-6.322857749609132"><ele>1992</ele><speed>11.42</speed><time>2016-06-01T14:55:27Z</time><pdop>6.0</pdop><geoidheight>50.60</geoidheight><course>25.892284</course><type>1</type></trkpt>
      <trkpt lat="39.18173256370476" lon="-6.322745112725569"><ele>1986</ele><speed>12.89</speed><time>2016-06-01T14:55:30Z</time><pdop>8.0</pdop><geoidheight>50.60</geoidheight><course>22.791658</course><type>1</type></trkpt>
      <trkpt lat="39.18194696357236" lon="-6.322637785254847"><ele>1980</ele><speed>13.00</speed><time>2016-06-01T14:55:32Z</time><pdop>6.0</pdop><geoidheight>50.60</geoidheight><course>21.634413</course><type>1</type></trkpt>
      <trkpt lat="39.18205646058731" lon="-6.32258983143386"><ele>1979</ele><speed>12.08</speed><time>2016-06-01T14:55:33Z</time><pdop>6.0</pdop><geoidheight>50.60</geoidheight><course>19.936476</course><type>1</type></trkpt>
      <trkpt lat="39.182238284813764" lon="-6.322504328820961"><ele>1975</ele><speed>9.36</speed><time>2016-06-01T14:55:35Z</time><pdop>8.0</pdop><geoidheight>50.60</geoidheight><course>23.75313</course><type>1</type></trkpt>
      <trkpt lat="39.182389493289534" lon="-6.322407333793786"><ele>1972</ele><speed>8.96</speed><time>2016-06-01T14:55:37Z</time><pdop>8.0</pdop><geoidheight>50.60</geoidheight><course>25.599936</course><type>1</type></trkpt>
      <trkpt lat="39.18257431718433" lon="-6.322313401265421"><ele>1969</ele><speed>12.11</speed><time>2016-06-01T14:55:39Z</time><pdop>6.0</pdop><geoidheight>50.60</geoidheight><course>21.091045</course><type>1</type></trkpt>
      <trkpt lat="39.1827650046236" lon="-6.322235826819416"><ele>1966</ele><speed>10.49</speed><time>2016-06-01T14:55:41Z</time><pdop>6.0</pdop><geoidheight>50.60</geoidheight><course>17.7359</course><type>1</type></trkpt>
      <trkpt lat="39.18294303634184" lon="-6.322181684368186"><ele>1965</ele><speed>8.79</speed><time>2016-06-01T14:55:43Z</time><pdop>6.0</pdop><geoidheight>50.60</geoidheight><course>13.560873</course><type>1</type></trkpt>
      <trkpt lat="39.1831329767242" lon="-6.3221359495342755"><ele>1962</ele><speed>10.88</speed><time>2016-06-01T14:55:45Z</time><pdop>8.0</pdop><geoidheight>50.60</geoidheight><course>11.2059555</course><type>1</type></trkpt>
      <trkpt lat="39.18333600966221" lon="-6.322093604866214"><ele>1959</ele><speed>11.76</speed><time>2016-06-01T14:55:46Z</time><pdop>8.0</pdop><geoidheight>50.60</geoidheight><course>10.966094</course><type>1</type></trkpt>
      <trkpt lat="39.18352054157389" lon="-6.322042716330633"><ele>1955</ele><speed>10.32</speed><time>2016-06-01T14:55:49Z</time><pdop>8.0</pdop><geoidheight>50.60</geoidheight><course>12.03077</course><type>1</type></trkpt>
      <trkpt lat="39.18368477694246" lon="-6.321988061938761"><ele>1951</ele><speed>9.88</speed><time>2016-06-01T14:55:51Z</time><pdop>6.0</pdop><geoidheight>50.60</geoidheight><course>13.878467</course><type>1</type></trkpt>
      <trkpt lat="39.18385833949872" lon="-6.321926067572733"><ele>1946</ele><speed>10.86</speed><time>2016-06-01T14:55:53Z</time><pdop>6.0</pdop><geoidheight>50.60</geoidheight><course>13.477929</course><type>1</type></trkpt>
      <trkpt lat="39.184039091117405" lon="-6.321863732792496"><ele>1941</ele><speed>10.07</speed><time>2016-06-01T14:55:55Z</time><pdop>6.0</pdop><geoidheight>50.60</geoidheight><course>14.649197</course><type>1</type></trkpt>
      <trkpt lat="39.1842149561701" lon="-6.321802458994301"><ele>1936</ele><speed>10.04</speed><time>2016-06-01T14:55:57Z</time><pdop>6.0</pdop><geoidheight>50.60</geoidheight><course>14.311212</course><type>1</type></trkpt>
      <trkpt lat="39.18441420290226" lon="-6.321743512994316"><ele>1930</ele><speed>11.73</speed><time>2016-06-01T14:55:59Z</time><pdop>6.0</pdop><geoidheight>50.60</geoidheight><course>12.251232</course><type>1</type></trkpt>
      <trkpt lat="39.184616047921246" lon="-6.321674642764274"><ele>1925</ele><speed>11.00</speed><time>2016-06-01T14:56:01Z</time><pdop>6.0</pdop><geoidheight>50.60</geoidheight><course>16.027699</course><type>1</type></trkpt>
      <trkpt lat="39.18479805336835" lon="-6.32159607427339"><ele>1920</ele><speed>10.18</speed><time>2016-06-01T14:56:02Z</time><pdop>6.0</pdop><geoidheight>50.60</geoidheight><course>17.329378</course><type>1</type></trkpt>
      <trkpt lat="39.18498032119399" lon="-6.321533968004128"><ele>1915</ele><speed>10.29</speed><time>2016-06-01T14:56:05Z</time><pdop>8.0</pdop><geoidheight>50.60</geoidheight><course>12.941777</course><type>1</type></trkpt>
      <trkpt lat="39.185173715827524" lon="-6.321497691631059"><ele>1912</ele><speed>10.90</speed><time>2016-06-01T14:56:07Z</time><pdop>6.0</pdop><geoidheight>50.60</geoidheight><course>8.022214</course><type>1</type></trkpt>
      <trkpt lat="39.185383607958705" lon="-6.321480344098985"><ele>1907</ele><speed>11.03</speed><time>2016-06-01T14:56:09Z</time><pdop>6.0</pdop><geoidheight>50.60</geoidheight><course>5.291001</course><type>1</type></trkpt>
      <trkpt lat="39.18557500475899" lon="-6.321469165469692"><ele>1904</ele><speed>9.75</speed><time>2016-06-01T14:56:11Z</time><pdop>6.0</pdop><geoidheight>50.60</geoidheight><course>4.26904</course><type>1</type></trkpt>
      <trkpt lat="39.18574590465432" lon="-6.321447549807489"><ele>1901</ele><speed>9.83</speed><time>2016-06-01T14:56:13Z</time><pdop>6.0</pdop><geoidheight>50.60</geoidheight><course>8.160832</course><type>1</type></trkpt>
      <trkpt lat="39.18592231231832" lon="-6.321396943704165"><ele>1898</ele><speed>10.80</speed><time>2016-06-01T14:56:15Z</time><pdop>4.0</pdop><geoidheight>50.60</geoidheight><course>11.8601675</course><type>1</type></trkpt>
      <trkpt lat="39.186019630997315" lon="-6.321366855828106"><ele>1896</ele><speed>11.07</speed><time>2016-06-01T14:56:16Z</time><pdop>4.0</pdop><geoidheight>50.60</geoidheight><course>12.718985</course><type>1</type></trkpt>
      <trkpt lat="39.18611532040289" lon="-6.321333712354423"><ele>1894</ele><speed>10.63</speed><time>2016-06-01T14:56:17Z</time><pdop>4.0</pdop><geoidheight>50.60</geoidheight><course>13.682125</course><type>1</type></trkpt>
      <trkpt lat="39.18620609577153" lon="-6.321302150747591"><ele>1892</ele><speed>10.06</speed><time>2016-06-01T14:56:18Z</time><pdop>4.0</pdop><geoidheight>50.60</geoidheight><course>14.556312</course><type>1</type></trkpt>
      <trkpt lat="39.18629242413128" lon="-6.321266723996494"><ele>1890</ele><speed>9.97</speed><time>2016-06-01T14:56:19Z</time><pdop>6.0</pdop><geoidheight>50.60</geoidheight><course>15.591324</course><type>1</type></trkpt>
      <trkpt lat="39.18647240939589" lon="-6.321194062189689"><ele>1886</ele><speed>10.83</speed><time>2016-06-01T14:56:21Z</time><pdop>6.0</pdop><geoidheight>50.60</geoidheight><course>15.402774</course><type>1</type></trkpt>
      <trkpt lat="39.18667314084836" lon="-6.321116998580786"><ele>1882</ele><speed>11.06</speed><time>2016-06-01T14:56:23Z</time><pdop>6.0</pdop><geoidheight>50.60</geoidheight><course>16.67896</course><type>1</type></trkpt>
      <trkpt lat="39.18684703804398" lon="-6.321048893306769"><ele>1878</ele><speed>9.60</speed><time>2016-06-01T14:56:25Z</time><pdop>6.0</pdop><geoidheight>50.60</geoidheight><course>17.16018</course><type>1</type></trkpt>
      <trkpt lat="39.187012443353815" lon="-6.320984045006754"><ele>1875</ele><speed>9.92</speed><time>2016-06-01T14:56:27Z</time><pdop>6.0</pdop><geoidheight>50.60</geoidheight><course>15.930471</course><type>1</type></trkpt>
      <trkpt lat="39.1871905871426" lon="-6.320922471359355"><ele>1871</ele><speed>10.44</speed><time>2016-06-01T14:56:29Z</time><pdop>6.0</pdop><geoidheight>50.60</geoidheight><course>15.9033985</course><type>1</type></trkpt>
      <trkpt lat="39.18736586638461" lon="-6.32085654124435"><ele>1868</ele><speed>9.56</speed><time>2016-06-01T14:56:31Z</time><pdop>6.0</pdop><geoidheight>50.60</geoidheight><course>15.260659</course><type>1</type></trkpt>
      <trkpt lat="39.18753455848332" lon="-6.320811320962418"><ele>1865</ele><speed>9.77</speed><time>2016-06-01T14:56:33Z</time><pdop>6.0</pdop><geoidheight>50.60</geoidheight><course>11.072576</course><type>1</type></trkpt>
      <trkpt lat="39.187692246261335" lon="-6.320780711247145"><ele>1862</ele><speed>10.16</speed><time>2016-06-01T14:56:35Z</time><pdop>6.0</pdop><geoidheight>50.60</geoidheight><course>9.326158</course><type>1</type></trkpt>
      <trkpt lat="39.187864218021126" lon="-6.320746642295707"><ele>1859</ele><speed>10.15</speed><time>2016-06-01T14:56:37Z</time><pdop>6.0</pdop><geoidheight>50.60</geoidheight><course>10.442633</course><type>1</type></trkpt>
      <trkpt lat="39.1880520673679" lon="-6.320694797081312"><ele>1856</ele><speed>11.28</speed><time>2016-06-01T14:56:38Z</time><pdop>6.0</pdop><geoidheight>50.60</geoidheight><course>12.89345</course><type>1</type></trkpt>
      <trkpt lat="39.18815760411083" lon="-6.3206635137971805"><ele>1853</ele><speed>11.45</speed><time>2016-06-01T14:56:40Z</time><pdop>6.0</pdop><geoidheight>50.60</geoidheight><course>14.0204</course><type>1</type></trkpt>
      <trkpt lat="39.18835332108677" lon="-6.320600849403173"><ele>1848</ele><speed>9.93</speed><time>2016-06-01T14:56:42Z</time><pdop>6.0</pdop><geoidheight>50.60</geoidheight><course>15.504453</course><type>1</type></trkpt>
      <trkpt lat="39.18852499240487" lon="-6.320547013288558"><ele>1843</ele><speed>9.55</speed><time>2016-06-01T14:56:44Z</time><pdop>6.0</pdop><geoidheight>50.60</geoidheight><course>15.4562025</course><type>1</type></trkpt>
      <trkpt lat="39.188692874884715" lon="-6.320494826580644"><ele>1838</ele><speed>10.69</speed><time>2016-06-01T14:56:46Z</time><pdop>4.0</pdop><geoidheight>50.60</geoidheight><course>14.47415</course><type>1</type></trkpt>
      <trkpt lat="39.18878666408873" lon="-6.32046394511936"><ele>1835</ele><speed>11.23</speed><time>2016-06-01T14:56:47Z</time><pdop>4.0</pdop><geoidheight>50.60</geoidheight><course>14.122466</course><type>1</type></trkpt>
      <trkpt lat="39.18888571526068" lon="-6.32043107994074"><ele>1833</ele><speed>11.28</speed><time>2016-06-01T14:56:48Z</time><pdop>4.0</pdop><geoidheight>50.60</geoidheight><course>15.350097</course><type>1</type></trkpt>
      <trkpt lat="39.18897762467969" lon="-6.3203918771010175"><ele>1830</ele><speed>10.84</speed><time>2016-06-01T14:56:49Z</time><pdop>4.0</pdop><geoidheight>50.60</geoidheight><course>17.349562</course><type>1</type></trkpt>
      <trkpt lat="39.1890672070581" lon="-6.320348402790058"><ele>1828</ele><speed>10.49</speed><time>2016-06-01T14:56:50Z</time><pdop>4.0</pdop><geoidheight>50.60</geoidheight><course>19.234856</course><type>1</type></trkpt>
      <trkpt lat="39.189155073235675" lon="-6.32030467650603"><ele>1826</ele><speed>10.30</speed><time>2016-06-01T14:56:51Z</time><pdop>4.0</pdop><geoidheight>50.60</geoidheight><course>20.141571</course><type>1</type></trkpt>
      <trkpt lat="39.18924471956586" lon="-6.320256135408819"><ele>1824</ele><speed>10.68</speed><time>2016-06-01T14:56:52Z</time><pdop>6.0</pdop><geoidheight>50.60</geoidheight><course>20.968925</course><type>1</type></trkpt>
      <trkpt lat="39.18942124185322" lon="-6.3201495147659"><ele>1820</ele><speed>11.47</speed><time>2016-06-01T14:56:54Z</time><pdop>6.0</pdop><geoidheight>50.60</geoidheight><course>24.387152</course><type>1</type></trkpt>
      <trkpt lat="39.18959311820233" lon="-6.320014532424494"><ele>1817</ele><speed>10.80</speed><time>2016-06-01T14:56:56Z</time><pdop>6.0</pdop><geoidheight>50.60</geoidheight><course>30.100878</course><type>1</type></trkpt>
      <trkpt lat="39.189740083423104" lon="-6.319879513700161"><ele>1815</ele><speed>8.74</speed><time>2016-06-01T14:56:58Z</time><pdop>6.0</pdop><geoidheight>50.60</geoidheight><course>31.461187</course><type>1</type></trkpt>
      <trkpt lat="39.18987443353783" lon="-6.319773005359181"><ele>1812</ele><speed>8.82</speed><time>2016-06-01T14:57:00Z</time><pdop>4.0</pdop><geoidheight>50.60</geoidheight><course>28.978476</course><type>1</type></trkpt>
      <trkpt lat="39.19001752555747" lon="-6.319674716920228"><ele>1808</ele><speed>10.01</speed><time>2016-06-01T14:57:02Z</time><pdop>6.0</pdop><geoidheight>50.60</geoidheight><course>27.311903</course><type>1</type></trkpt>
      <trkpt lat="39.190175474405194" lon="-6.319582703121252"><ele>1804</ele><speed>9.24</speed><time>2016-06-01T14:57:04Z</time><pdop>6.0</pdop><geoidheight>50.60</geoidheight><course>23.791798</course><type>1</type></trkpt>
      <trkpt lat="39.19032096944822" lon="-6.319507906745521"><ele>1802</ele><speed>8.44</speed><time>2016-06-01T14:57:06Z</time><pdop>6.0</pdop><geoidheight>50.60</geoidheight><course>21.149405</course><type>1</type></trkpt>
      <trkpt lat="39.1904850592735" lon="-6.319443422549544"><ele>1799</ele><speed>9.51</speed><time>2016-06-01T14:57:08Z</time><pdop>6.0</pdop><geoidheight>50.60</geoidheight><course>18.24743</course><type>1</type></trkpt>
      <trkpt lat="39.190660293848026" lon="-6.319380667872957"><ele>1797</ele><speed>10.00</speed><time>2016-06-01T14:57:10Z</time><pdop>6.0</pdop><geoidheight>50.60</geoidheight><course>18.497627</course><type>1</type></trkpt>
      <trkpt lat="39.19082915593828" lon="-6.319309013477172"><ele>1794</ele><speed>9.94</speed><time>2016-06-01T14:57:12Z</time><pdop>6.0</pdop><geoidheight>50.60</geoidheight><course>18.848734</course><type>1</type></trkpt>
      <trkpt lat="39.191013582434366" lon="-6.319245340063341"><ele>1791</ele><speed>11.14</speed><time>2016-06-01T14:57:14Z</time><pdop>6.0</pdop><geoidheight>50.60</geoidheight><course>14.728201</course><type>1</type></trkpt>
      <trkpt lat="39.19119847029532" lon="-6.319191184083047"><ele>1787</ele><speed>10.17</speed><time>2016-06-01T14:57:16Z</time><pdop>6.0</pdop><geoidheight>50.60</geoidheight><course>14.977335</course><type>1</type></trkpt>
      <trkpt lat="39.19136287797976" lon="-6.31913586753207"><ele>1784</ele><speed>9.50</speed><time>2016-06-01T14:57:18Z</time><pdop>6.0</pdop><geoidheight>50.60</geoidheight><course>15.552016</course><type>1</type></trkpt>
      <trkpt lat="39.19154351644314" lon="-6.319087030285823"><ele>1781</ele><speed>10.58</speed><time>2016-06-01T14:57:20Z</time><pdop>6.0</pdop><geoidheight>50.60</geoidheight><course>12.509923</course><type>1</type></trkpt>
      <trkpt lat="39.191727505956244" lon="-6.319048561041006"><ele>1777</ele><speed>10.51</speed><time>2016-06-01T14:57:22Z</time><pdop>6.0</pdop><geoidheight>50.60</geoidheight><course>10.960289</course><type>1</type></trkpt>
      <trkpt lat="39.191908400477786" lon="-6.319009592196581"><ele>1773</ele><speed>10.85</speed><time>2016-06-01T14:57:24Z</time><pdop>6.0</pdop><geoidheight>50.60</geoidheight><course>12.072315</course><type>1</type></trkpt>
      <trkpt lat="39.19209509709027" lon="-6.31896839723402"><ele>1768</ele><speed>11.27</speed><time>2016-06-01T14:57:26Z</time><pdop>6.0</pdop><geoidheight>50.60</geoidheight><course>10.768702</course><type>1</type></trkpt>
      <trkpt lat="39.19228341856138" lon="-6.318929343119322"><ele>1763</ele><speed>10.51</speed><time>2016-06-01T14:57:27Z</time><pdop>6.0</pdop><geoidheight>50.60</geoidheight><course>12.265284</course><type>1</type></trkpt>
      <trkpt lat="39.192440620467764" lon="-6.318886739161118"><ele>1760</ele><speed>7.96</speed><time>2016-06-01T14:57:30Z</time><pdop>6.0</pdop><geoidheight>50.60</geoidheight><course>14.229515</course><type>1</type></trkpt>
      <trkpt lat="39.192564151497415" lon="-6.318854917918578"><ele>1758</ele><speed>7.25</speed><time>2016-06-01T14:57:32Z</time><pdop>6.0</pdop><geoidheight>50.60</geoidheight><course>12.284369</course><type>1</type></trkpt>
      <trkpt lat="39.19270502857408" lon="-6.318828705697885"><ele>1755</ele><speed>8.70</speed><time>2016-06-01T14:57:34Z</time><pdop>4.0</pdop><geoidheight>50.60</geoidheight><course>9.04286</course><type>1</type></trkpt>
      <trkpt lat="39.19278726680424" lon="-6.318817412344497"><ele>1754</ele><speed>9.71</speed><time>2016-06-01T14:57:35Z</time><pdop>4.0</pdop><geoidheight>50.60</geoidheight><course>7.8449073</course><type>1</type></trkpt>
      <trkpt lat="39.1929533326076" lon="-6.318802811441559"><ele>1749</ele><speed>8.86</speed><time>2016-06-01T14:57:37Z</time><pdop>6.0</pdop><geoidheight>50.60</geoidheight><course>4.8027062</course><type>1</type></trkpt>
      <trkpt lat="39.193108383481416" lon="-6.3188007408054405"><ele>1746</ele><speed>8.23</speed><time>2016-06-01T14:57:39Z</time><pdop>4.0</pdop><geoidheight>50.60</geoidheight><course>2.4318473</course><type>1</type></trkpt>
      <trkpt lat="39.193250982278244" lon="-6.318809937187717"><ele>1742</ele><speed>8.68</speed><time>2016-06-01T14:57:41Z</time><pdop>4.0</pdop><geoidheight>50.60</geoidheight><course>359.6257</course><type>1</type></trkpt>
      <trkpt lat="39.19332913059889" lon="-6.318813666716142"><ele>1739</ele><speed>9.32</speed><time>2016-06-01T14:57:42Z</time><pdop>4.0</pdop><geoidheight>50.60</geoidheight><course>0.09647951</course><type>1</type></trkpt>
      <trkpt lat="39.19341128585783" lon="-6.318811840864334"><ele>1737</ele><speed>9.34</speed><time>2016-06-01T14:57:43Z</time><pdop>4.0</pdop><geoidheight>50.60</geoidheight><course>1.6877836</course><type>1</type></trkpt>
      <trkpt lat="39.193491468994004" lon="-6.318804543806609"><ele>1735</ele><speed>8.82</speed><time>2016-06-01T14:57:44Z</time><pdop>4.0</pdop><geoidheight>50.60</geoidheight><course>3.583839</course><type>1</type></trkpt>
      <trkpt lat="39.193567153436994" lon="-6.318793746161537"><ele>1733</ele><speed>8.20</speed><time>2016-06-01T14:57:45Z</time><pdop>4.0</pdop><geoidheight>50.60</geoidheight><course>4.8266525</course><type>1</type></trkpt>
      <trkpt lat="39.19364232900509" lon="-6.3187823772948795"><ele>1730</ele><speed>8.25</speed><time>2016-06-01T14:57:46Z</time><pdop>4.0</pdop><geoidheight>50.60</geoidheight><course>5.436038</course><type>1</type></trkpt>
      <trkpt lat="39.1937192336362" lon="-6.318770382871295"><ele>1728</ele><speed>8.58</speed><time>2016-06-01T14:57:47Z</time><pdop>4.0</pdop><geoidheight>50.60</geoidheight><course>5.5655255</course><type>1</type></trkpt>
      <trkpt lat="39.193797421014125" lon="-6.318756653156633"><ele>1726</ele><speed>8.95</speed><time>2016-06-01T14:57:48Z</time><pdop>4.0</pdop><geoidheight>50.60</geoidheight><course>6.014255</course><type>1</type></trkpt>
      <trkpt lat="39.19387828183556" lon="-6.31874350751738"><ele>1723</ele><speed>9.27</speed><time>2016-06-01T14:57:49Z</time><pdop>4.0</pdop><geoidheight>50.60</geoidheight><course>5.3635426</course><type>1</type></trkpt>
      <trkpt lat="39.19395950038222" lon="-6.318733025670863"><ele>1721</ele><speed>9.12</speed><time>2016-06-01T14:57:50Z</time><pdop>4.0</pdop><geoidheight>50.60</geoidheight><course>4.7791047</course><type>1</type></trkpt>
      <trkpt lat="39.194039486175484" lon="-6.318722884158371"><ele>1718</ele><speed>9.01</speed><time>2016-06-01T14:57:51Z</time><pdop>4.0</pdop><geoidheight>50.60</geoidheight><course>5.487092</course><type>1</type></trkpt>
      <trkpt lat="39.194115345352365" lon="-6.31870933547575"><ele>1716</ele><speed>8.47</speed><time>2016-06-01T14:57:52Z</time><pdop>4.0</pdop><geoidheight>50.60</geoidheight><course>6.747485</course><type>1</type></trkpt>
      <trkpt lat="39.194188795460164" lon="-6.318694985968608"><ele>1714</ele><speed>8.30</speed><time>2016-06-01T14:57:53Z</time><pdop>4.0</pdop><geoidheight>50.60</geoidheight><course>7.450983</course><type>1</type></trkpt>
      <trkpt lat="39.19433758466857" lon="-6.318668899871392"><ele>1709</ele><speed>8.69</speed><time>2016-06-01T14:57:55Z</time><pdop>4.0</pdop><geoidheight>50.60</geoidheight><course>5.7180758</course><type>1</type></trkpt>
      <trkpt lat="39.19441445699686" lon="-6.318657776928585"><ele>1707</ele><speed>8.75</speed><time>2016-06-01T14:57:56Z</time><pdop>4.0</pdop><geoidheight>50.60</geoidheight><course>5.200049</course><type>1</type></trkpt>
      <trkpt lat="39.19449174623653" lon="-6.318644272056758"><ele>1705</ele><speed>8.70</speed><time>2016-06-01T14:57:57Z</time><pdop>4.0</pdop><geoidheight>50.60</geoidheight><course>6.8669105</course><type>1</type></trkpt>
      <trkpt lat="39.19456724547364" lon="-6.318626442496151"><ele>1702</ele><speed>8.56</speed><time>2016-06-01T14:57:58Z</time><pdop>4.0</pdop><geoidheight>50.60</geoidheight><course>9.025254</course><type>1</type></trkpt>
      <trkpt lat="39.19464173683342" lon="-6.318605248010732"><ele>1700</ele><speed>8.56</speed><time>2016-06-01T14:57:59Z</time><pdop>4.0</pdop><geoidheight>50.60</geoidheight><course>10.564018</course><type>1</type></trkpt>
      <trkpt lat="39.194717196994915" lon="-6.318583337463179"><ele>1698</ele><speed>8.68</speed><time>2016-06-01T14:58:00Z</time><pdop>4.0</pdop><geoidheight>50.60</geoidheight><course>10.922371</course><type>1</type></trkpt>
      <trkpt lat="39.19479843808096" lon="-6.318562211499374"><ele>1696</ele><speed>8.87</speed><time>2016-06-01T14:58:00Z</time><pdop>4.0</pdop><geoidheight>50.60</geoidheight><course>11.209724</course><type>1</type></trkpt>
      <trkpt lat="39.194961079341155" lon="-6.318515408311034"><ele>1691</ele><speed>8.90</speed><time>2016-06-01T14:58:03Z</time><pdop>6.0</pdop><geoidheight>50.60</geoidheight><course>12.670256</course><type>1</type></trkpt>
      <trkpt lat="39.19511387653466" lon="-6.318461446420346"><ele>1687</ele><speed>8.55</speed><time>2016-06-01T14:58:05Z</time><pdop>6.0</pdop><geoidheight>50.60</geoidheight><course>13.648322</course><type>1</type></trkpt>
      <trkpt lat="39.19525466673443" lon="-6.318403689353984"><ele>1682</ele><speed>9.01</speed><time>2016-06-01T14:58:07Z</time><pdop>4.0</pdop><geoidheight>50.60</geoidheight><course>14.821661</course><type>1</type></trkpt>
      <trkpt lat="39.19533001691081" lon="-6.318372814186906"><ele>1680</ele><speed>9.45</speed><time>2016-06-01T14:58:08Z</time><pdop>4.0</pdop><geoidheight>50.60</geoidheight><course>13.867547</course><type>1</type></trkpt>
      <trkpt lat="39.19541100550646" lon="-6.318344643916154"><ele>1678</ele><speed>9.14</speed><time>2016-06-01T14:58:09Z</time><pdop>4.0</pdop><geoidheight>50.60</geoidheight><course>13.26155</course><type>1</type></trkpt>
      <trkpt lat="39.19555650249271" lon="-6.318296624597704"><ele>1674</ele><speed>7.87</speed><time>2016-06-01T14:58:10Z</time><pdop>6.0</pdop><geoidheight>50.60</geoidheight><course>13.300315</course><type>1</type></trkpt>
      <trkpt lat="39.19568310143562" lon="-6.318264911732643"><ele>1671</ele><speed>9.10</speed><time>2016-06-01T14:58:13Z</time><pdop>6.0</pdop><geoidheight>50.60</geoidheight><course>11.643365</course><type>1</type></trkpt>
      <trkpt lat="39.19583162283478" lon="-6.318233370539499"><ele>1667</ele><speed>9.11</speed><time>2016-06-01T14:58:15Z</time><pdop>6.0</pdop><geoidheight>50.60</geoidheight><course>9.294344</course><type>1</type></trkpt>
      <trkpt lat="39.19598590015068" lon="-6.318201601156218"><ele>1664</ele><speed>8.23</speed><time>2016-06-01T14:58:17Z</time><pdop>6.0</pdop><geoidheight>50.60</geoidheight><course>10.435936</course><type>1</type></trkpt>
      <trkpt lat="39.196141956579396" lon="-6.318168296354046"><ele>1660</ele><speed>9.10</speed><time>2016-06-01T14:58:19Z</time><pdop>6.0</pdop><geoidheight>50.60</geoidheight><course>9.829189</course><type>1</type></trkpt>
      <trkpt lat="39.1963105518822" lon="-6.318130925085624"><ele>1655</ele><speed>9.48</speed><time>2016-06-01T14:58:21Z</time><pdop>6.0</pdop><geoidheight>50.60</geoidheight><course>9.863305</course><type>1</type></trkpt>
      <trkpt lat="39.19645473216462" lon="-6.318107368736888"><ele>1651</ele><speed>7.98</speed><time>2016-06-01T14:58:23Z</time><pdop>8.0</pdop><geoidheight>50.60</geoidheight><course>7.0264378</course><type>1</type></trkpt>
      <trkpt lat="39.196672073138004" lon="-6.318095307006735"><ele>1644</ele><speed>9.05</speed><time>2016-06-01T14:58:26Z</time><pdop>8.0</pdop><geoidheight>50.60</geoidheight><course>4.6694574</course><type>1</type></trkpt>
      <trkpt lat="39.19682938757445" lon="-6.318083141611502"><ele>1639</ele><speed>8.25</speed><time>2016-06-01T14:58:28Z</time><pdop>6.0</pdop><geoidheight>50.60</geoidheight><course>4.1603174</course><type>1</type></trkpt>
      <trkpt lat="39.19696527703061" lon="-6.3180808546160945"><ele>1634</ele><speed>7.60</speed><time>2016-06-01T14:58:30Z</time><pdop>6.0</pdop><geoidheight>50.60</geoidheight><course>1.5733362</course><type>1</type></trkpt>
      <trkpt lat="39.19709651754822" lon="-6.318072818258452"><ele>1630</ele><speed>9.02</speed><time>2016-06-01T14:58:32Z</time><pdop>6.0</pdop><geoidheight>50.60</geoidheight><course>5.4220386</course><type>1</type></trkpt>
      <trkpt lat="39.19725653835604" lon="-6.318042626309731"><ele>1626</ele><speed>9.27</speed><time>2016-06-01T14:58:34Z</time><pdop>6.0</pdop><geoidheight>50.60</geoidheight><course>8.222109</course><type>1</type></trkpt>
      <trkpt lat="39.197407760198125" lon="-6.318005289181905"><ele>1622</ele><speed>7.82</speed><time>2016-06-01T14:58:36Z</time><pdop>8.0</pdop><geoidheight>50.60</geoidheight><course>9.676234</course><type>1</type></trkpt>
      <trkpt lat="39.19755910218908" lon="-6.317953153973546"><ele>1619</ele><speed>8.90</speed><time>2016-06-01T14:58:38Z</time><pdop>8.0</pdop><geoidheight>50.60</geoidheight><course>13.364157</course><type>1</type></trkpt>
      <trkpt lat="39.19772625191425" lon="-6.317899636827543"><ele>1614</ele><speed>10.35</speed><time>2016-06-01T14:58:39Z</time><pdop>6.0</pdop><geoidheight>50.60</geoidheight><course>12.007934</course><type>1</type></trkpt>
      <trkpt lat="39.19789593491115" lon="-6.317856742556722"><ele>1610</ele><speed>8.65</speed><time>2016-06-01T14:58:42Z</time><pdop>8.0</pdop><geoidheight>50.60</geoidheight><course>11.601735</course><type>1</type></trkpt>
      <trkpt lat="39.19804686994146" lon="-6.317819010772095"><ele>1607</ele><speed>7.88</speed><time>2016-06-01T14:58:44Z</time><pdop>8.0</pdop><geoidheight>50.60</geoidheight><course>9.224875</course><type>1</type></trkpt>
      <trkpt lat="39.198208711628034" lon="-6.317796975338504"><ele>1603</ele><speed>9.67</speed><time>2016-06-01T14:58:46Z</time><pdop>6.0</pdop><geoidheight>50.60</geoidheight><course>5.682346</course><type>1</type></trkpt>
      <trkpt lat="39.19838630349506" lon="-6.3177864966633654"><ele>1597</ele><speed>10.52</speed><time>2016-06-01T14:58:48Z</time><pdop>6.0</pdop><geoidheight>50.60</geoidheight><course>3.2423556</course><type>1</type></trkpt>
      <trkpt lat="39.19855936440937" lon="-6.317789031697635"><ele>1592</ele><speed>9.44</speed><time>2016-06-01T14:58:50Z</time><pdop>6.0</pdop><geoidheight>50.60</geoidheight><course>0.78574497</course><type>1</type></trkpt>
      <trkpt lat="39.19872393542828" lon="-6.317789453659036"><ele>1587</ele><speed>9.60</speed><time>2016-06-01T14:58:52Z</time><pdop>6.0</pdop><geoidheight>50.60</geoidheight><course>2.0822098</course><type>1</type></trkpt>
      <trkpt lat="39.19889413983983" lon="-6.317780757507087"><ele>1582</ele><speed>9.98</speed><time>2016-06-01T14:58:54Z</time><pdop>4.0</pdop><geoidheight>50.60</geoidheight><course>2.177501</course><type>1</type></trkpt>
      <trkpt lat="39.19897838152007" lon="-6.317776360834303"><ele>1579</ele><speed>9.61</speed><time>2016-06-01T14:58:55Z</time><pdop>4.0</pdop><geoidheight>50.60</geoidheight><course>2.5895963</course><type>1</type></trkpt>
      <trkpt lat="39.19905762928017" lon="-6.317771824519977"><ele>1577</ele><speed>9.06</speed><time>2016-06-01T14:58:56Z</time><pdop>4.0</pdop><geoidheight>50.60</geoidheight><course>3.4794695</course><type>1</type></trkpt>
      <trkpt lat="39.199136133205585" lon="-6.317763874268688"><ele>1575</ele><speed>9.03</speed><time>2016-06-01T14:58:57Z</time><pdop>4.0</pdop><geoidheight>50.60</geoidheight><course>4.2518263</course><type>1</type></trkpt>
      <trkpt lat="39.19921639428482" lon="-6.317755409912775"><ele>1572</ele><speed>9.19</speed><time>2016-06-01T14:58:58Z</time><pdop>4.0</pdop><geoidheight>50.60</geoidheight><course>3.8511152</course><type>1</type></trkpt>
      <trkpt lat="39.19929801156361" lon="-6.31774765760483"><ele>1570</ele><speed>9.21</speed><time>2016-06-01T14:58:59Z</time><pdop>4.0</pdop><geoidheight>50.60</geoidheight><course>3.295131</course><type>1</type></trkpt>
      <trkpt lat="39.19944951795969" lon="-6.317728379402631"><ele>1566</ele><speed>8.09</speed><time>2016-06-01T14:59:01Z</time><pdop>6.0</pdop><geoidheight>50.60</geoidheight><course>6.2491875</course><type>1</type></trkpt>
      <trkpt lat="39.199582962935295" lon="-6.317704317276453"><ele>1563</ele><speed>8.02</speed><time>2016-06-01T14:59:03Z</time><pdop>4.0</pdop><geoidheight>50.60</geoidheight><course>6.963084</course><type>1</type></trkpt>
      <trkpt lat="39.19965414190096" lon="-6.31768921955956"><ele>1561</ele><speed>8.31</speed><time>2016-06-01T14:59:04Z</time><pdop>4.0</pdop><geoidheight>50.60</geoidheight><course>7.367569</course><type>1</type></trkpt>
      <trkpt lat="39.19979347272472" lon="-6.317656404153543"><ele>1557</ele><speed>7.54</speed><time>2016-06-01T14:59:06Z</time><pdop>6.0</pdop><geoidheight>50.60</geoidheight><course>9.251766</course><type>1</type></trkpt>
      <trkpt lat="39.19991939259516" lon="-6.3176298393290775"><ele>1553</ele><speed>6.91</speed><time>2016-06-01T14:59:08Z</time><pdop>6.0</pdop><geoidheight>50.60</geoidheight><course>7.300587</course><type>1</type></trkpt>
      <trkpt lat="39.200052713374774" lon="-6.3176059637157715"><ele>1549</ele><speed>8.07</speed><time>2016-06-01T14:59:10Z</time><pdop>6.0</pdop><geoidheight>50.60</geoidheight><course>7.6072183</course><type>1</type></trkpt>
      <trkpt lat="39.20017826994902" lon="-6.317578369321731"><ele>1546</ele><speed>6.61</speed><time>2016-06-01T14:59:12Z</time><pdop>6.0</pdop><geoidheight>50.60</geoidheight><course>7.338337</course><type>1</type></trkpt>
      <trkpt lat="39.20029290537547" lon="-6.31755841096616"><ele>1543</ele><speed>6.54</speed><time>2016-06-01T14:59:14Z</time><pdop>6.0</pdop><geoidheight>50.60</geoidheight><course>4.452821</course><type>1</type></trkpt>
      <trkpt lat="39.20042571000733" lon="-6.317537234871398"><ele>1538</ele><speed>8.19</speed><time>2016-06-01T14:59:16Z</time><pdop>4.0</pdop><geoidheight>50.60</geoidheight><course>5.0433235</course><type>1</type></trkpt>
      <trkpt lat="39.20056479934293" lon="-6.317529196510563"><ele>1533</ele><speed>7.61</speed><time>2016-06-01T14:59:18Z</time><pdop>4.0</pdop><geoidheight>50.60</geoidheight><course>1.1167753</course><type>1</type></trkpt>
      <trkpt lat="39.20069450942516" lon="-6.317535459167396"><ele>1528</ele><speed>6.74</speed><time>2016-06-01T14:59:20Z</time><pdop>6.0</pdop><geoidheight>50.60</geoidheight><course>358.44894</course><type>1</type></trkpt>
      <trkpt lat="39.2008244641254" lon="-6.317541405241326"><ele>1524</ele><speed>7.38</speed><time>2016-06-01T14:59:21Z</time><pdop>4.0</pdop><geoidheight>50.60</geoidheight><course>358.1851</course><type>1</type></trkpt>
      <trkpt lat="39.200951008307285" lon="-6.3175597190821176"><ele>1520</ele><speed>7.54</speed><time>2016-06-01T14:59:24Z</time><pdop>6.0</pdop><geoidheight>50.60</geoidheight><course>355.36115</course><type>1</type></trkpt>
      <trkpt lat="39.201073010184125" lon="-6.317571029449855"><ele>1516</ele><speed>7.04</speed><time>2016-06-01T14:59:26Z</time><pdop>6.0</pdop><geoidheight>50.60</geoidheight><course>359.92294</course><type>1</type></trkpt>
      <trkpt lat="39.20120468676497" lon="-6.31755996670571"><ele>1510</ele><speed>7.35</speed><time>2016-06-01T14:59:28Z</time><pdop>6.0</pdop><geoidheight>50.60</geoidheight><course>3.0483642</course><type>1</type></trkpt>
      <trkpt lat="39.201343660706804" lon="-6.317546149557875"><ele>1505</ele><speed>7.51</speed><time>2016-06-01T14:59:30Z</time><pdop>6.0</pdop><geoidheight>50.60</geoidheight><course>2.230261</course><type>1</type></trkpt>
      <trkpt lat="39.20148119414015" lon="-6.317518493481151"><ele>1500</ele><speed>7.82</speed><time>2016-06-01T14:59:32Z</time><pdop>6.0</pdop><geoidheight>50.60</geoidheight><course>7.3992534</course><type>1</type></trkpt>
      <trkpt lat="39.20161020246932" lon="-6.317478361586784"><ele>1495</ele><speed>7.47</speed><time>2016-06-01T14:59:34Z</time><pdop>6.0</pdop><geoidheight>50.60</geoidheight><course>9.487668</course><type>1</type></trkpt>
      <trkpt lat="39.201736802337884" lon="-6.317437020936565"><ele>1490</ele><speed>7.04</speed><time>2016-06-01T14:59:36Z</time><pdop>6.0</pdop><geoidheight>50.60</geoidheight><course>11.040287</course><type>1</type></trkpt>
      <trkpt lat="39.201852435206696" lon="-6.317394689154761"><ele>1484</ele><speed>7.11</speed><time>2016-06-01T14:59:38Z</time><pdop>6.0</pdop><geoidheight>50.60</geoidheight><course>13.678618</course><type>1</type></trkpt>
      <trkpt lat="39.20196566087615" lon="-6.317350735674118"><ele>1479</ele><speed>7.61</speed><time>2016-06-01T14:59:40Z</time><pdop>6.0</pdop><geoidheight>50.60</geoidheight><course>15.48589</course><type>1</type></trkpt>
      <trkpt lat="39.20208929651222" lon="-6.3172905041839265"><ele>1474</ele><speed>7.87</speed><time>2016-06-01T14:59:42Z</time><pdop>4.0</pdop><geoidheight>50.60</geoidheight><course>18.157995</course><type>1</type></trkpt>
      <trkpt lat="39.202217866212806" lon="-6.3172271059639415"><ele>1469</ele><speed>7.30</speed><time>2016-06-01T14:59:44Z</time><pdop>4.0</pdop><geoidheight>50.60</geoidheight><course>17.184301</course><type>1</type></trkpt>
      <trkpt lat="39.20234681744806" lon="-6.31716483130068"><ele>1464</ele><speed>7.81</speed><time>2016-06-01T14:59:46Z</time><pdop>6.0</pdop><geoidheight>50.60</geoidheight><course>19.695673</course><type>1</type></trkpt>
      <trkpt lat="39.20248024317438" lon="-6.317087445114663"><ele>1458</ele><speed>8.29</speed><time>2016-06-01T14:59:48Z</time><pdop>6.0</pdop><geoidheight>50.60</geoidheight><course>22.778194</course><type>1</type></trkpt>
      <trkpt lat="39.20260591298402" lon="-6.317003165768712"><ele>1453</ele><speed>7.62</speed><time>2016-06-01T14:59:50Z</time><pdop>4.0</pdop><geoidheight>50.60</geoidheight><course>26.20526</course><type>1</type></trkpt>
      <trkpt lat="39.202725015388694" lon="-6.31690601884725"><ele>1447</ele><speed>7.85</speed><time>2016-06-01T14:59:52Z</time><pdop>4.0</pdop><geoidheight>50.60</geoidheight><course>30.39488</course><type>1</type></trkpt>
      <trkpt lat="39.20284394741531" lon="-6.316795851845353"><ele>1442</ele><speed>8.33</speed><time>2016-06-01T14:59:54Z</time><pdop>6.0</pdop><geoidheight>50.60</geoidheight><course>32.79605</course><type>1</type></trkpt>
      <trkpt lat="39.20295968465935" lon="-6.316692948852996"><ele>1436</ele><speed>7.44</speed><time>2016-06-01T14:59:56Z</time><pdop>6.0</pdop><geoidheight>50.60</geoidheight><course>30.806498</course><type>1</type></trkpt>
      <trkpt lat="39.20307644558419" lon="-6.31660974404912"><ele>1431</ele><speed>7.39</speed><time>2016-06-01T14:59:58Z</time><pdop>6.0</pdop><geoidheight>50.60</geoidheight><course>27.054907</course><type>1</type></trkpt>
      <trkpt lat="39.203207025106074" lon="-6.316534758330401"><ele>1425</ele><speed>8.30</speed><time>2016-06-01T15:00:00Z</time><pdop>6.0</pdop><geoidheight>50.60</geoidheight><course>23.116058</course><type>1</type></trkpt>
      <trkpt lat="39.203340545597726" lon="-6.316465703145047"><ele>1418</ele><speed>7.89</speed><time>2016-06-01T15:00:02Z</time><pdop>6.0</pdop><geoidheight>50.60</geoidheight><course>21.447653</course><type>1</type></trkpt>
      <trkpt lat="39.20347114276254" lon="-6.316416182655486"><ele>1413</ele><speed>7.49</speed><time>2016-06-01T15:00:04Z</time><pdop>6.0</pdop><geoidheight>50.60</geoidheight><course>15.001503</course><type>1</type></trkpt>
      <trkpt lat="39.203614796839304" lon="-6.316394355316151"><ele>1407</ele><speed>8.81</speed><time>2016-06-01T15:00:06Z</time><pdop>6.0</pdop><geoidheight>50.60</geoidheight><course>8.066226</course><type>1</type></trkpt>
      <trkpt lat="39.203765117933216" lon="-6.316384100407697"><ele>1401</ele><speed>8.28</speed><time>2016-06-01T15:00:08Z</time><pdop>6.0</pdop><geoidheight>50.60</geoidheight><course>7.4955697</course><type>1</type></trkpt>
      <trkpt lat="39.203898994839655" lon="-6.316374756130739"><ele>1396</ele><speed>7.03</speed><time>2016-06-01T15:00:09Z</time><pdop>8.0</pdop><geoidheight>50.60</geoidheight><course>7.515725</course><type>1</type></trkpt>
      <trkpt lat="39.20409421571191" lon="-6.316355286345233"><ele>1387</ele><speed>8.44</speed><time>2016-06-01T15:00:13Z</time><pdop>6.0</pdop><geoidheight>50.60</geoidheight><course>5.196823</course><type>1</type></trkpt>
      <trkpt lat="39.20422272695879" lon="-6.316342986065785"><ele>1381</ele><speed>8.28</speed><time>2016-06-01T15:00:15Z</time><pdop>6.0</pdop><geoidheight>50.60</geoidheight><course>6.74958</course><type>1</type></trkpt>
      <trkpt lat="39.204418148567996" lon="-6.316323513086034"><ele>1373</ele><speed>8.19</speed><time>2016-06-01T15:00:18Z</time><pdop>6.0</pdop><geoidheight>50.60</geoidheight><course>5.313269</course><type>1</type></trkpt>
      <trkpt lat="39.20455427320007" lon="-6.3163217774213685"><ele>1368</ele><speed>8.10</speed><time>2016-06-01T15:00:20Z</time><pdop>6.0</pdop><geoidheight>50.60</geoidheight><course>1.3414127</course><type>1</type></trkpt>
      <trkpt lat="39.20470596809708" lon="-6.31636992948618"><ele>1363</ele><speed>9.32</speed><time>2016-06-01T15:00:22Z</time><pdop>8.0</pdop><geoidheight>50.60</geoidheight><course>346.37027</course><type>1</type></trkpt>
      <trkpt lat="39.20486290287095" lon="-6.316415182322171"><ele>1358</ele><speed>8.09</speed><time>2016-06-01T15:00:24Z</time><pdop>4.0</pdop><geoidheight>50.60</geoidheight><course>346.59973</course><type>1</type></trkpt>
      <trkpt lat="39.2049925120671" lon="-6.316467093494355"><ele>1353</ele><speed>7.42</speed><time>2016-06-01T15:00:26Z</time><pdop>4.0</pdop><geoidheight>50.60</geoidheight><course>341.45465</course><type>1</type></trkpt>
      <trkpt lat="39.2051242992525" lon="-6.31652892683273"><ele>1348</ele><speed>8.26</speed><time>2016-06-01T15:00:28Z</time><pdop>6.0</pdop><geoidheight>50.60</geoidheight><course>339.77982</course><type>1</type></trkpt>
      <trkpt lat="39.20525846248251" lon="-6.316598761501192"><ele>1343</ele><speed>8.43</speed><time>2016-06-01T15:00:30Z</time><pdop>4.0</pdop><geoidheight>50.60</geoidheight><course>337.54904</course><type>1</type></trkpt>
      <trkpt lat="39.20532731256882" lon="-6.316636008206354"><ele>1340</ele><speed>8.41</speed><time>2016-06-01T15:00:31Z</time><pdop>4.0</pdop><geoidheight>50.60</geoidheight><course>337.60352</course><type>1</type></trkpt>
      <trkpt lat="39.20539538388232" lon="-6.31666819458878"><ele>1337</ele><speed>8.30</speed><time>2016-06-01T15:00:32Z</time><pdop>4.0</pdop><geoidheight>50.60</geoidheight><course>339.36252</course><type>1</type></trkpt>
      <trkpt lat="39.20552801807702" lon="-6.316719721700636"><ele>1332</ele><speed>8.02</speed><time>2016-06-01T15:00:34Z</time><pdop>4.0</pdop><geoidheight>50.60</geoidheight><course>341.8557</course><type>1</type></trkpt>
      <trkpt lat="39.205596994693494" lon="-6.316746108915589"><ele>1329</ele><speed>8.24</speed><time>2016-06-01T15:00:35Z</time><pdop>4.0</pdop><geoidheight>50.60</geoidheight><course>340.62012</course><type>1</type></trkpt>
      <trkpt lat="39.205668732211045" lon="-6.316777729731557"><ele>1326</ele><speed>8.80</speed><time>2016-06-01T15:00:36Z</time><pdop>4.0</pdop><geoidheight>50.60</geoidheight><course>339.55197</course><type>1</type></trkpt>
      <trkpt lat="39.20580477354263" lon="-6.316843467493119"><ele>1321</ele><speed>7.90</speed><time>2016-06-01T15:00:38Z</time><pdop>4.0</pdop><geoidheight>50.60</geoidheight><course>337.75293</course><type>1</type></trkpt>
      <trkpt lat="39.20593133794612" lon="-6.316911261051027"><ele>1316</ele><speed>7.75</speed><time>2016-06-01T15:00:40Z</time><pdop>4.0</pdop><geoidheight>50.60</geoidheight><course>336.49805</course><type>1</type></trkpt>
      <trkpt lat="39.20605867795574" lon="-6.31698021346514"><ele>1310</ele><speed>8.65</speed><time>2016-06-01T15:00:42Z</time><pdop>6.0</pdop><geoidheight>50.60</geoidheight><course>338.67783</course><type>1</type></trkpt>
      <trkpt lat="39.20620201147071" lon="-6.31704086745961"><ele>1305</ele><speed>9.09</speed><time>2016-06-01T15:00:44Z</time><pdop>4.0</pdop><geoidheight>50.60</geoidheight><course>341.14804</course><type>1</type></trkpt>
      <trkpt lat="39.206275278641755" lon="-6.317070653655471"><ele>1303</ele><speed>8.51</speed><time>2016-06-01T15:00:45Z</time><pdop>4.0</pdop><geoidheight>50.60</geoidheight><course>340.04752</course><type>1</type></trkpt>
      <trkpt lat="39.20634588838798" lon="-6.317104023167346"><ele>1300</ele><speed>8.15</speed><time>2016-06-01T15:00:46Z</time><pdop>4.0</pdop><geoidheight>50.60</geoidheight><course>338.16504</course><type>1</type></trkpt>
      <trkpt lat="39.20641494515429" lon="-6.3171380704864015"><ele>1298</ele><speed>8.11</speed><time>2016-06-01T15:00:47Z</time><pdop>4.0</pdop><geoidheight>50.60</geoidheight><course>337.57874</course><type>1</type></trkpt>
      <trkpt lat="39.20648422851023" lon="-6.317172276802275"><ele>1296</ele><speed>8.34</speed><time>2016-06-01T15:00:48Z</time><pdop>4.0</pdop><geoidheight>50.60</geoidheight><course>338.39636</course><type>1</type></trkpt>
      <trkpt lat="39.20662592177999" lon="-6.317240187020096"><ele>1291</ele><speed>8.66</speed><time>2016-06-01T15:00:50Z</time><pdop>4.0</pdop><geoidheight>50.60</geoidheight><course>338.36172</course><type>1</type></trkpt>
      <trkpt lat="39.20669732897076" lon="-6.317276939419995"><ele>1289</ele><speed>8.60</speed><time>2016-06-01T15:00:51Z</time><pdop>4.0</pdop><geoidheight>50.60</geoidheight><course>336.8397</course><type>1</type></trkpt>
      <trkpt lat="39.20676748153303" lon="-6.317316756202107"><ele>1286</ele><speed>8.39</speed><time>2016-06-01T15:00:52Z</time><pdop>4.0</pdop><geoidheight>50.60</geoidheight><course>335.31128</course><type>1</type></trkpt>
      <trkpt lat="39.20683605835102" lon="-6.3173563662018255"><ele>1284</ele><speed>8.19</speed><time>2016-06-01T15:00:53Z</time><pdop>4.0</pdop><geoidheight>50.60</geoidheight><course>334.3176</course><type>1</type></trkpt>
      <trkpt lat="39.20696463472628" lon="-6.317439991728712"><ele>1279</ele><speed>8.39</speed><time>2016-06-01T15:00:55Z</time><pdop>4.0</pdop><geoidheight>50.60</geoidheight><course>333.2624</course><type>1</type></trkpt>
      <trkpt lat="39.20703028371071" lon="-6.317484299084879"><ele>1277</ele><speed>8.27</speed><time>2016-06-01T15:00:56Z</time><pdop>4.0</pdop><geoidheight>50.60</geoidheight><course>331.96158</course><type>1</type></trkpt>
      <trkpt lat="39.20709453672723" lon="-6.317530049090095"><ele>1275</ele><speed>8.03</speed><time>2016-06-01T15:00:57Z</time><pdop>4.0</pdop><geoidheight>50.60</geoidheight><course>330.5197</course><type>1</type></trkpt>
      <trkpt lat="39.207215879126885" lon="-6.317617185038835"><ele>1271</ele><speed>7.67</speed><time>2016-06-01T15:00:59Z</time><pdop>4.0</pdop><geoidheight>50.60</geoidheight><course>330.18018</course><type>1</type></trkpt>
      <trkpt lat="39.20733668733464" lon="-6.317695628000825"><ele>1267</ele><speed>7.75</speed><time>2016-06-01T15:01:01Z</time><pdop>4.0</pdop><geoidheight>50.60</geoidheight><course>332.21423</course><type>1</type></trkpt>
      <trkpt lat="39.207459252184" lon="-6.317780372859347"><ele>1263</ele><speed>7.92</speed><time>2016-06-01T15:01:03Z</time><pdop>4.0</pdop><geoidheight>50.60</geoidheight><course>329.08545</course><type>1</type></trkpt>
      <trkpt lat="39.207579912249585" lon="-6.317874938664046"><ele>1258</ele><speed>8.03</speed><time>2016-06-01T15:01:05Z</time><pdop>4.0</pdop><geoidheight>50.60</geoidheight><course>328.31354</course><type>1</type></trkpt>
      <trkpt lat="39.20770201704372" lon="-6.317965720251819"><ele>1254</ele><speed>8.17</speed><time>2016-06-01T15:01:07Z</time><pdop>4.0</pdop><geoidheight>50.60</geoidheight><course>329.37704</course><type>1</type></trkpt>
      <trkpt lat="39.20782584135544" lon="-6.31805786738761"><ele>1249</ele><speed>8.13</speed><time>2016-06-01T15:01:09Z</time><pdop>4.0</pdop><geoidheight>50.60</geoidheight><course>327.61752</course><type>1</type></trkpt>
      <trkpt lat="39.20794746993118" lon="-6.318153608864759"><ele>1245</ele><speed>7.99</speed><time>2016-06-01T15:01:11Z</time><pdop>4.0</pdop><geoidheight>50.60</geoidheight><course>327.02457</course><type>1</type></trkpt>
      <trkpt lat="39.20807025084063" lon="-6.318250721952241"><ele>1240</ele><speed>8.47</speed><time>2016-06-01T15:01:13Z</time><pdop>4.0</pdop><geoidheight>50.60</geoidheight><course>326.71408</course><type>1</type></trkpt>
      <trkpt lat="39.20818996650207" lon="-6.318357357838396"><ele>1235</ele><speed>8.18</speed><time>2016-06-01T15:01:15Z</time><pdop>6.0</pdop><geoidheight>50.60</geoidheight><course>324.264</course><type>1</type></trkpt>
      <trkpt lat="39.208306989625996" lon="-6.318465621643129"><ele>1230</ele><speed>8.55</speed><time>2016-06-01T15:01:17Z</time><pdop>4.0</pdop><geoidheight>50.60</geoidheight><course>325.53125</course><type>1</type></trkpt>
      <trkpt lat="39.20836941145296" lon="-6.318516546529356"><ele>1227</ele><speed>8.78</speed><time>2016-06-01T15:01:18Z</time><pdop>4.0</pdop><geoidheight>50.60</geoidheight><course>327.29218</course><type>1</type></trkpt>
      <trkpt lat="39.20843450265957" lon="-6.3185643521599495"><ele>1224</ele><speed>8.73</speed><time>2016-06-01T15:01:19Z</time><pdop>4.0</pdop><geoidheight>50.60</geoidheight><course>329.01782</course><type>1</type></trkpt>
      <trkpt lat="39.20850542909877" lon="-6.3186134037297865"><ele>1222</ele><speed>8.44</speed><time>2016-06-01T15:01:20Z</time><pdop>4.0</pdop><geoidheight>50.60</geoidheight><course>330.37903</course><type>1</type></trkpt>
      <trkpt lat="39.20857385829265" lon="-6.318658383711571"><ele>1220</ele><speed>8.23</speed><time>2016-06-01T15:01:21Z</time><pdop>4.0</pdop><geoidheight>50.60</geoidheight><course>331.4103</course><type>1</type></trkpt>
      <trkpt lat="39.20863862063222" lon="-6.318701015361974"><ele>1218</ele><speed>8.04</speed><time>2016-06-01T15:01:22Z</time><pdop>4.0</pdop><geoidheight>50.60</geoidheight><course>331.7923</course><type>1</type></trkpt>
      <trkpt lat="39.20876363665189" lon="-6.318775754289691"><ele>1214</ele><speed>7.57</speed><time>2016-06-01T15:01:24Z</time><pdop>4.0</pdop><geoidheight>50.60</geoidheight><course>333.68286</course><type>1</type></trkpt>
      <trkpt lat="39.208887612853864" lon="-6.3188437373239665"><ele>1210</ele><speed>7.02</speed><time>2016-06-01T15:01:26Z</time><pdop>4.0</pdop><geoidheight>50.60</geoidheight><course>333.98386</course><type>1</type></trkpt>
      <trkpt lat="39.20899580365863" lon="-6.318951297642375"><ele>1206</ele><speed>8.49</speed><time>2016-06-01T15:01:27Z</time><pdop>4.0</pdop><geoidheight>50.60</geoidheight><course>319.21027</course><type>1</type></trkpt>
      <trkpt lat="39.20911238450964" lon="-6.319073176944581"><ele>1202</ele><speed>7.79</speed><time>2016-06-01T15:01:30Z</time><pdop>8.0</pdop><geoidheight>50.60</geoidheight><course>320.23654</course><type>1</type></trkpt>
      <trkpt lat="39.2092252683956" lon="-6.319176090929872"><ele>1199</ele><speed>7.46</speed><time>2016-06-01T15:01:32Z</time><pdop>6.0</pdop><geoidheight>50.60</geoidheight><course>322.16925</course><type>1</type></trkpt>
      <trkpt lat="39.20933929253932" lon="-6.319274463484846"><ele>1196</ele><speed>7.50</speed><time>2016-06-01T15:01:34Z</time><pdop>6.0</pdop><geoidheight>50.60</geoidheight><course>322.21872</course><type>1</type></trkpt>
      <trkpt lat="39.209456297460356" lon="-6.319366664595912"><ele>1192</ele><speed>7.78</speed><time>2016-06-01T15:01:36Z</time><pdop>6.0</pdop><geoidheight>50.60</geoidheight><course>327.24606</course><type>1</type></trkpt>
      <trkpt lat="39.20957136032229" lon="-6.319441459101964"><ele>1188</ele><speed>7.01</speed><time>2016-06-01T15:01:38Z</time><pdop>8.0</pdop><geoidheight>50.60</geoidheight><course>328.0846</course><type>1</type></trkpt>
      <trkpt lat="39.20967898824587" lon="-6.319530040173225"><ele>1185</ele><speed>6.83</speed><time>2016-06-01T15:01:39Z</time><pdop>6.0</pdop><geoidheight>50.60</geoidheight><course>324.63788</course><type>1</type></trkpt>
      <trkpt lat="39.209793909549305" lon="-6.31958708007078"><ele>1181</ele><speed>7.76</speed><time>2016-06-01T15:01:42Z</time><pdop>6.0</pdop><geoidheight>50.60</geoidheight><course>347.49466</course><type>1</type></trkpt>
      <trkpt lat="39.20990897014967" lon="-6.319624110329601"><ele>1176</ele><speed>7.43</speed><time>2016-06-01T15:01:44Z</time><pdop>6.0</pdop><geoidheight>50.60</geoidheight><course>344.73538</course><type>1</type></trkpt>
      <trkpt lat="39.210031535364784" lon="-6.319666640738091"><ele>1170</ele><speed>7.98</speed><time>2016-06-01T15:01:46Z</time><pdop>6.0</pdop><geoidheight>50.60</geoidheight><course>345.2729</course><type>1</type></trkpt>
      <trkpt lat="39.21016807370452" lon="-6.319700819316409"><ele>1163</ele><speed>8.10</speed><time>2016-06-01T15:01:48Z</time><pdop>4.0</pdop><geoidheight>50.60</geoidheight><course>348.8829</course><type>1</type></trkpt>
      <trkpt lat="39.21028781461262" lon="-6.319756551766008"><ele>1157</ele><speed>7.15</speed><time>2016-06-01T15:01:50Z</time><pdop>4.0</pdop><geoidheight>50.60</geoidheight><course>331.0777</course><type>1</type></trkpt>
      <trkpt lat="39.21040457586433" lon="-6.3198255535863685"><ele>1150</ele><speed>7.23</speed><time>2016-06-01T15:01:51Z</time><pdop>6.0</pdop><geoidheight>50.60</geoidheight><course>335.7894</course><type>1</type></trkpt>
      <trkpt lat="39.21059755864872" lon="-6.319857469967876"><ele>1144</ele><speed>10.22</speed><time>2016-06-01T15:01:54Z</time><pdop>8.0</pdop><geoidheight>50.60</geoidheight><course>345.60043</course><type>1</type></trkpt>
      <trkpt lat="39.21075094873903" lon="-6.319922582493353"><ele>1140</ele><speed>7.38</speed><time>2016-06-01T15:01:56Z</time><pdop>8.0</pdop><geoidheight>50.60</geoidheight><course>338.98114</course><type>1</type></trkpt>
      <trkpt lat="39.21091315364355" lon="-6.319964715556846"><ele>1137</ele><speed>5.40</speed><time>2016-06-01T15:01:58Z</time><pdop>8.0</pdop><geoidheight>50.60</geoidheight><course>358.53583</course><type>1</type></trkpt>
      <trkpt lat="39.21107299478889" lon="-6.319982113927658"><ele>1135</ele><speed>7.48</speed><time>2016-06-01T15:02:02Z</time><pdop>8.0</pdop><geoidheight>50.60</geoidheight><course>352.0876</course><type>1</type></trkpt>
      <trkpt lat="39.2112184557283" lon="-6.320021413106629"><ele>1134</ele><speed>9.16</speed><time>2016-06-01T15:02:04Z</time><pdop>8.0</pdop><geoidheight>50.60</geoidheight><course>349.08752</course><type>1</type></trkpt>
      <trkpt lat="39.21137961220972" lon="-6.320076534523742"><ele>1132</ele><speed>9.08</speed><time>2016-06-01T15:02:06Z</time><pdop>8.0</pdop><geoidheight>50.60</geoidheight><course>346.39554</course><type>1</type></trkpt>
      <trkpt lat="39.211522689900676" lon="-6.3201255237343155"><ele>1130</ele><speed>8.32</speed><time>2016-06-01T15:02:08Z</time><pdop>8.0</pdop><geoidheight>50.60</geoidheight><course>345.86603</course><type>1</type></trkpt>
      <trkpt lat="39.21167971788387" lon="-6.3201804528012495"><ele>1127</ele><speed>9.94</speed><time>2016-06-01T15:02:09Z</time><pdop>8.0</pdop><geoidheight>50.60</geoidheight><course>345.93958</course><type>1</type></trkpt>
      <trkpt lat="39.211834113638425" lon="-6.3202387461039296"><ele>1123</ele><speed>8.68</speed><time>2016-06-01T15:02:12Z</time><pdop>8.0</pdop><geoidheight>50.60</geoidheight><course>344.42334</course><type>1</type></trkpt>
      <trkpt lat="39.21202702368362" lon="-6.320339584099295"><ele>1116</ele><speed>7.66</speed><time>2016-06-01T15:02:15Z</time><pdop>8.0</pdop><geoidheight>50.60</geoidheight><course>340.1678</course><type>1</type></trkpt>
      <trkpt lat="39.212163668892686" lon="-6.320417823468674"><ele>1111</ele><speed>8.94</speed><time>2016-06-01T15:02:17Z</time><pdop>8.0</pdop><geoidheight>50.60</geoidheight><course>340.5569</course><type>1</type></trkpt>
      <trkpt lat="39.212330830919434" lon="-6.320524920847515"><ele>1104</ele><speed>5.93</speed><time>2016-06-01T15:02:20Z</time><pdop>8.0</pdop><geoidheight>50.60</geoidheight><course>335.1616</course><type>1</type></trkpt>
      <trkpt lat="39.21249434783086" lon="-6.320613383173845"><ele>1098</ele><speed>8.37</speed><time>2016-06-01T15:02:23Z</time><pdop>8.0</pdop><geoidheight>50.60</geoidheight><course>341.92804</course><type>1</type></trkpt>
      <trkpt lat="39.212628621046136" lon="-6.320684198285199"><ele>1092</ele><speed>8.16</speed><time>2016-06-01T15:02:25Z</time><pdop>8.0</pdop><geoidheight>50.60</geoidheight><course>339.25195</course><type>1</type></trkpt>
      <trkpt lat="39.212810650878254" lon="-6.320795225122003"><ele>1084</ele><speed>7.74</speed><time>2016-06-01T15:02:28Z</time><pdop>4.0</pdop><geoidheight>50.60</geoidheight><course>338.47073</course><type>1</type></trkpt>
      <trkpt lat="39.21294084849984" lon="-6.3208671582407305"><ele>1079</ele><speed>8.29</speed><time>2016-06-01T15:02:30Z</time><pdop>8.0</pdop><geoidheight>50.60</geoidheight><course>339.6301</course><type>1</type></trkpt>
      <trkpt lat="39.21313831998088" lon="-6.320971443758845"><ele>1071</ele><speed>8.17</speed><time>2016-06-01T15:02:33Z</time><pdop>8.0</pdop><geoidheight>50.60</geoidheight><course>341.14853</course><type>1</type></trkpt>
      <trkpt lat="39.21327679288182" lon="-6.321036711333153"><ele>1067</ele><speed>8.64</speed><time>2016-06-01T15:02:35Z</time><pdop>8.0</pdop><geoidheight>50.60</geoidheight><course>340.39963</course><type>1</type></trkpt>
      <trkpt lat="39.21341460407002" lon="-6.321125315301218"><ele>1062</ele><speed>8.52</speed><time>2016-06-01T15:02:37Z</time><pdop>8.0</pdop><geoidheight>50.60</geoidheight><course>334.31232</course><type>1</type></trkpt>
      <trkpt lat="39.213538047416634" lon="-6.321219000697334"><ele>1058</ele><speed>8.38</speed><time>2016-06-01T15:02:39Z</time><pdop>6.0</pdop><geoidheight>50.60</geoidheight><course>332.78162</course><type>1</type></trkpt>
      <trkpt lat="39.213661776626324" lon="-6.321324202225803"><ele>1055</ele><speed>8.51</speed><time>2016-06-01T15:02:41Z</time><pdop>6.0</pdop><geoidheight>50.60</geoidheight><course>329.7848</course><type>1</type></trkpt>
      <trkpt lat="39.21378292816346" lon="-6.321442555682645"><ele>1051</ele><speed>8.48</speed><time>2016-06-01T15:02:43Z</time><pdop>6.0</pdop><geoidheight>50.60</geoidheight><course>326.50314</course><type>1</type></trkpt>
      <trkpt lat="39.21391693442338" lon="-6.321568535778637"><ele>1048</ele><speed>9.37</speed><time>2016-06-01T15:02:45Z</time><pdop>6.0</pdop><geoidheight>50.60</geoidheight><course>328.5224</course><type>1</type></trkpt>
      <trkpt lat="39.21404935910202" lon="-6.321675180597003"><ele>1045</ele><speed>8.64</speed><time>2016-06-01T15:02:47Z</time><pdop>8.0</pdop><geoidheight>50.60</geoidheight><course>331.6867</course><type>1</type></trkpt>
      <trkpt lat="39.21417339417904" lon="-6.32175819028888"><ele>1042</ele><speed>7.33</speed><time>2016-06-01T15:02:49Z</time><pdop>6.0</pdop><geoidheight>50.60</geoidheight><course>334.9035</course><type>1</type></trkpt>
      <trkpt lat="39.21430222081556" lon="-6.321834448212925"><ele>1039</ele><speed>8.93</speed><time>2016-06-01T15:02:51Z</time><pdop>6.0</pdop><geoidheight>50.60</geoidheight><course>336.9012</course><type>1</type></trkpt>
      <trkpt lat="39.21445799974969" lon="-6.321925785098626"><ele>1036</ele><speed>9.19</speed><time>2016-06-01T15:02:53Z</time><pdop>8.0</pdop><geoidheight>50.60</geoidheight><course>335.69757</course><type>1</type></trkpt>
      <trkpt lat="39.21459014577822" lon="-6.321997956512824"><ele>1034</ele><speed>7.88</speed><time>2016-06-01T15:02:55Z</time><pdop>6.0</pdop><geoidheight>50.60</geoidheight><course>338.81332</course><type>1</type></trkpt>
      <trkpt lat="39.214724563216826" lon="-6.322071738078889"><ele>1032</ele><speed>8.48</speed><time>2016-06-01T15:02:57Z</time><pdop>6.0</pdop><geoidheight>50.60</geoidheight><course>335.8152</course><type>1</type></trkpt>
      <trkpt lat="39.21485443869778" lon="-6.322165039763425"><ele>1031</ele><speed>7.64</speed><time>2016-06-01T15:02:59Z</time><pdop>6.0</pdop><geoidheight>50.60</geoidheight><course>332.16425</course><type>1</type></trkpt>
      <trkpt lat="39.214973055176465" lon="-6.3222501482317375"><ele>1028</ele><speed>7.59</speed><time>2016-06-01T15:03:01Z</time><pdop>6.0</pdop><geoidheight>50.60</geoidheight><course>332.59964</course><type>1</type></trkpt>
      <trkpt lat="39.215111265665556" lon="-6.322354724448722"><ele>1025</ele><speed>9.59</speed><time>2016-06-01T15:03:03Z</time><pdop>6.0</pdop><geoidheight>50.60</geoidheight><course>332.5859</course><type>1</type></trkpt>
      <trkpt lat="39.21526708337241" lon="-6.322453532473361"><ele>1020</ele><speed>9.70</speed><time>2016-06-01T15:03:05Z</time><pdop>8.0</pdop><geoidheight>50.60</geoidheight><course>338.03467</course><type>1</type></trkpt>
      <trkpt lat="39.21546379040103" lon="-6.322543445369776"><ele>1015</ele><speed>7.71</speed><time>2016-06-01T15:03:08Z</time><pdop>8.0</pdop><geoidheight>50.60</geoidheight><course>341.9202</course><type>1</type></trkpt>
      <trkpt lat="39.21561801881411" lon="-6.322582758386637"><ele>1011</ele><speed>9.52</speed><time>2016-06-01T15:03:10Z</time><pdop>8.0</pdop><geoidheight>50.60</geoidheight><course>356.35138</course><type>1</type></trkpt>
      <trkpt lat="39.215778305588444" lon="-6.322606465236926"><ele>1008</ele><speed>8.52</speed><time>2016-06-01T15:03:12Z</time><pdop>8.0</pdop><geoidheight>50.60</geoidheight><course>353.24173</course><type>1</type></trkpt>
      <trkpt lat="39.215925980664856" lon="-6.322676238281579"><ele>1004</ele><speed>8.87</speed><time>2016-06-01T15:03:14Z</time><pdop>8.0</pdop><geoidheight>50.60</geoidheight><course>341.1035</course><type>1</type></trkpt>
      <trkpt lat="39.21608245519494" lon="-6.322736543205178"><ele>1001</ele><speed>9.64</speed><time>2016-06-01T15:03:16Z</time><pdop>8.0</pdop><geoidheight>50.60</geoidheight><course>344.34775</course><type>1</type></trkpt>
      <trkpt lat="39.216237666196356" lon="-6.322797477959038"><ele>999</ele><speed>9.08</speed><time>2016-06-01T15:03:18Z</time><pdop>8.0</pdop><geoidheight>50.60</geoidheight><course>341.50516</course><type>1</type></trkpt>
      <trkpt lat="39.21639270387202" lon="-6.322859547617637"><ele>998</ele><speed>8.74</speed><time>2016-06-01T15:03:20Z</time><pdop>8.0</pdop><geoidheight>50.60</geoidheight><course>342.61545</course><type>1</type></trkpt>
      <trkpt lat="39.216558904726064" lon="-6.3229085260358735"><ele>996</ele><speed>10.26</speed><time>2016-06-01T15:03:22Z</time><pdop>8.0</pdop><geoidheight>50.60</geoidheight><course>347.7411</course><type>1</type></trkpt>
      <trkpt lat="39.216734153095885" lon="-6.322959213118724"><ele>993</ele><speed>9.64</speed><time>2016-06-01T15:03:24Z</time><pdop>6.0</pdop><geoidheight>50.60</geoidheight><course>347.98755</course><type>1</type></trkpt>
      <trkpt lat="39.216903776932185" lon="-6.323003993742391"><ele>989</ele><speed>9.89</speed><time>2016-06-01T15:03:26Z</time><pdop>6.0</pdop><geoidheight>50.60</geoidheight><course>349.73663</course><type>1</type></trkpt>
      <trkpt lat="39.21706994188663" lon="-6.323037216822534"><ele>985</ele><speed>9.89</speed><time>2016-06-01T15:03:28Z</time><pdop>8.0</pdop><geoidheight>50.60</geoidheight><course>351.99316</course><type>1</type></trkpt>
      <trkpt lat="39.21723439991955" lon="-6.323075169268164"><ele>981</ele><speed>9.56</speed><time>2016-06-01T15:03:30Z</time><pdop>8.0</pdop><geoidheight>50.60</geoidheight><course>349.62903</course><type>1</type></trkpt>
      <trkpt lat="39.21739454346007" lon="-6.323121081967507"><ele>978</ele><speed>8.70</speed><time>2016-06-01T15:03:32Z</time><pdop>8.0</pdop><geoidheight>50.60</geoidheight><course>349.80145</course><type>1</type></trkpt>
      <trkpt lat="39.21755028933247" lon="-6.323159484619213"><ele>974</ele><speed>9.65</speed><time>2016-06-01T15:03:34Z</time><pdop>8.0</pdop><geoidheight>50.60</geoidheight><course>352.11136</course><type>1</type></trkpt>
      <trkpt lat="39.21771681945328" lon="-6.323199606691837"><ele>971</ele><speed>9.29</speed><time>2016-06-01T15:03:36Z</time><pdop>8.0</pdop><geoidheight>50.60</geoidheight><course>351.0707</course><type>1</type></trkpt>
      <trkpt lat="39.21786619952661" lon="-6.32324921063949"><ele>967</ele><speed>7.96</speed><time>2016-06-01T15:03:38Z</time><pdop>8.0</pdop><geoidheight>50.60</geoidheight><course>346.9024</course><type>1</type></trkpt>
      <trkpt lat="39.218009870898165" lon="-6.3233068738857545"><ele>963</ele><speed>8.88</speed><time>2016-06-01T15:03:40Z</time><pdop>8.0</pdop><geoidheight>50.60</geoidheight><course>346.63867</course><type>1</type></trkpt>
      <trkpt lat="39.21816232474964" lon="-6.3233732031271"><ele>960</ele><speed>9.53</speed><time>2016-06-01T15:03:42Z</time><pdop>8.0</pdop><geoidheight>50.60</geoidheight><course>342.95004</course><type>1</type></trkpt>
      <trkpt lat="39.21831104900208" lon="-6.323451343931356"><ele>957</ele><speed>8.13</speed><time>2016-06-01T15:03:44Z</time><pdop>8.0</pdop><geoidheight>50.60</geoidheight><course>341.18182</course><type>1</type></trkpt>
      <trkpt lat="39.21846940723601" lon="-6.323358369826704"><ele>953</ele><speed>8.34</speed><time>2016-06-01T15:03:47Z</time><pdop>6.0</pdop><geoidheight>50.60</geoidheight><course>43.891617</course><type>1</type></trkpt>
      <trkpt lat="39.21854556832335" lon="-6.3232090137837895"><ele>949</ele><speed>7.82</speed><time>2016-06-01T15:03:49Z</time><pdop>8.0</pdop><geoidheight>50.60</geoidheight><course>59.33785</course><type>1</type></trkpt>
      <trkpt lat="39.21862248459784" lon="-6.3230297191029585"><ele>946</ele><speed>9.78</speed><time>2016-06-01T15:03:51Z</time><pdop>8.0</pdop><geoidheight>50.60</geoidheight><course>61.30548</course><type>1</type></trkpt>
      <trkpt lat="39.2187029983341" lon="-6.322834064906311"><ele>941</ele><speed>9.69</speed><time>2016-06-01T15:03:53Z</time><pdop>8.0</pdop><geoidheight>50.60</geoidheight><course>61.090454</course><type>1</type></trkpt>
      <trkpt lat="39.21877217268354" lon="-6.322625654578484"><ele>936</ele><speed>10.00</speed><time>2016-06-01T15:03:54Z</time><pdop>8.0</pdop><geoidheight>50.60</geoidheight><course>64.24177</course><type>1</type></trkpt>
      <trkpt lat="39.21883942268859" lon="-6.322417813608359"><ele>930</ele><speed>9.55</speed><time>2016-06-01T15:03:57Z</time><pdop>8.0</pdop><geoidheight>50.60</geoidheight><course>65.93286</course><type>1</type></trkpt>
      <trkpt lat="39.21890641037017" lon="-6.322192000467877"><ele>928</ele><speed>9.58</speed><time>2016-06-01T15:03:59Z</time><pdop>8.0</pdop><geoidheight>50.60</geoidheight><course>67.2879</course><type>1</type></trkpt>
      <trkpt lat="39.21896976626941" lon="-6.321978769384136"><ele>926</ele><speed>8.87</speed><time>2016-06-01T15:04:01Z</time><pdop>8.0</pdop><geoidheight>50.60</geoidheight><course>68.75787</course><type>1</type></trkpt>
      <trkpt lat="39.219026109497044" lon="-6.321789637836493"><ele>925</ele><speed>9.26</speed><time>2016-06-01T15:04:03Z</time><pdop>8.0</pdop><geoidheight>50.60</geoidheight><course>70.13823</course><type>1</type></trkpt>
      <trkpt lat="39.21908553688379" lon="-6.321580334998006"><ele>922</ele><speed>9.86</speed><time>2016-06-01T15:04:05Z</time><pdop>6.0</pdop><geoidheight>50.60</geoidheight><course>70.82981</course><type>1</type></trkpt>
      <trkpt lat="39.219145892778634" lon="-6.321380140526127"><ele>919</ele><speed>9.43</speed><time>2016-06-01T15:04:07Z</time><pdop>12.0</pdop><geoidheight>50.60</geoidheight><course>72.069016</course><type>1</type></trkpt>
      <trkpt lat="39.21923953685245" lon="-6.321086106237471"><ele>912</ele><speed>10.00</speed><time>2016-06-01T15:04:09Z</time><pdop>8.0</pdop><geoidheight>50.60</geoidheight><course>70.80713</course><type>1</type></trkpt>
      <trkpt lat="39.219314477715294" lon="-6.3208478877641445"><ele>908</ele><speed>10.68</speed><time>2016-06-01T15:04:12Z</time><pdop>12.0</pdop><geoidheight>50.60</geoidheight><course>70.68454</course><type>1</type></trkpt>
      <trkpt lat="39.21938471430862" lon="-6.320541929965693"><ele>901</ele><speed>9.94</speed><time>2016-06-01T15:04:15Z</time><pdop>8.0</pdop><geoidheight>50.60</geoidheight><course>72.626045</course><type>1</type></trkpt>
      <trkpt lat="39.2194281122804" lon="-6.32033226757782"><ele>894</ele><speed>11.14</speed><time>2016-06-01T15:04:17Z</time><pdop>8.0</pdop><geoidheight>50.60</geoidheight><course>73.349236</course><type>1</type></trkpt>
      <trkpt lat="39.21945941719576" lon="-6.320131371106398"><ele>886</ele><speed>9.38</speed><time>2016-06-01T15:04:19Z</time><pdop>8.0</pdop><geoidheight>50.60</geoidheight><course>74.76491</course><type>1</type></trkpt>
      <trkpt lat="39.21951929083358" lon="-6.319859877559956"><ele>876</ele><speed>8.79</speed><time>2016-06-01T15:04:22Z</time><pdop>8.0</pdop><geoidheight>50.60</geoidheight><course>73.57228</course><type>1</type></trkpt>
      <trkpt lat="39.21954758607862" lon="-6.319670018549778"><ele>867</ele><speed>9.27</speed><time>2016-06-01T15:04:23Z</time><pdop>8.0</pdop><geoidheight>50.60</geoidheight><course>77.23372</course><type>1</type></trkpt>
      <trkpt lat="39.21955949023057" lon="-6.319482881720647"><ele>861</ele><speed>6.83</speed><time>2016-06-01T15:04:26Z</time><pdop>8.0</pdop><geoidheight>50.60</geoidheight><course>82.010635</course><type>1</type></trkpt>
      <trkpt lat="39.219573694753954" lon="-6.319265496118777"><ele>855</ele><speed>6.58</speed><time>2016-06-01T15:04:29Z</time><pdop>8.0</pdop><geoidheight>50.60</geoidheight><course>82.57074</course><type>1</type></trkpt>
      <trkpt lat="39.21958712667393" lon="-6.31908665563486"><ele>850</ele><speed>9.85</speed><time>2016-06-01T15:04:31Z</time><pdop>6.0</pdop><geoidheight>50.60</geoidheight><course>82.46131</course><type>1</type></trkpt>
      <trkpt lat="39.21960143282471" lon="-6.318857293144245"><ele>841</ele><speed>7.07</speed><time>2016-06-01T15:04:34Z</time><pdop>8.0</pdop><geoidheight>50.60</geoidheight><course>82.12778</course><type>1</type></trkpt>
      <trkpt lat="39.21960246336562" lon="-6.318590007558026"><ele>832</ele><speed>8.91</speed><time>2016-06-01T15:04:37Z</time><pdop>12.0</pdop><geoidheight>50.60</geoidheight><course>87.835045</course><type>1</type></trkpt>
      <trkpt lat="39.219583942827796" lon="-6.318316486297558"><ele>824</ele><speed>8.42</speed><time>2016-06-01T15:04:39Z</time><pdop>8.0</pdop><geoidheight>50.60</geoidheight><course>93.04257</course><type>1</type></trkpt>
      <trkpt lat="39.219574981735285" lon="-6.318090879890105"><ele>822</ele><speed>10.00</speed><time>2016-06-01T15:04:42Z</time><pdop>8.0</pdop><geoidheight>50.60</geoidheight><course>90.88032</course><type>1</type></trkpt>
      <trkpt lat="39.219570955901" lon="-6.317853680611907"><ele>822</ele><speed>8.70</speed><time>2016-06-01T15:04:44Z</time><pdop>8.0</pdop><geoidheight>50.60</geoidheight><course>89.05801</course><type>1</type></trkpt>
      <trkpt lat="39.21957979343212" lon="-6.317646849888304"><ele>825</ele><speed>8.65</speed><time>2016-06-01T15:04:45Z</time><pdop>8.0</pdop><geoidheight>50.60</geoidheight><course>86.47095</course><type>1</type></trkpt>
      <trkpt lat="39.21959333843403" lon="-6.317458751749616"><ele>827</ele><speed>7.79</speed><time>2016-06-01T15:04:48Z</time><pdop>8.0</pdop><geoidheight>50.60</geoidheight><course>82.00006</course><type>1</type></trkpt>
      <trkpt lat="39.21963941744175" lon="-6.317196356103646"><ele>828</ele><speed>8.14</speed><time>2016-06-01T15:04:51Z</time><pdop>8.0</pdop><geoidheight>50.60</geoidheight><course>76.66837</course><type>1</type></trkpt>
      <trkpt lat="39.21968560935042" lon="-6.317014857643339"><ele>829</ele><speed>7.86</speed><time>2016-06-01T15:04:53Z</time><pdop>8.0</pdop><geoidheight>50.60</geoidheight><course>75.2156</course><type>1</type></trkpt>
      <trkpt lat="39.219709469197596" lon="-6.316739901578683"><ele>831</ele><speed>8.28</speed><time>2016-06-01T15:04:56Z</time><pdop>8.0</pdop><geoidheight>50.60</geoidheight><course>94.87103</course><type>1</type></trkpt>
      <trkpt lat="39.21971564216006" lon="-6.316482419559697"><ele>831</ele><speed>5.87</speed><time>2016-06-01T15:04:58Z</time><pdop>8.0</pdop><geoidheight>50.60</geoidheight><course>78.68471</course><type>1</type></trkpt>
      <trkpt lat="39.21977087581745" lon="-6.31628762190153"><ele>831</ele><speed>7.88</speed><time>2016-06-01T15:05:02Z</time><pdop>8.0</pdop><geoidheight>50.60</geoidheight><course>71.48125</course><type>1</type></trkpt>
      <trkpt lat="39.21977485135775" lon="-6.316100067643979"><ele>828</ele><speed>8.80</speed><time>2016-06-01T15:05:04Z</time><pdop>8.0</pdop><geoidheight>50.60</geoidheight><course>87.906944</course><type>1</type></trkpt>
      <trkpt lat="39.219750215021634" lon="-6.315843529183829"><ele>829</ele><speed>6.20</speed><time>2016-06-01T15:05:07Z</time><pdop>6.0</pdop><geoidheight>50.60</geoidheight><course>95.86315</course><type>1</type></trkpt>
      <trkpt lat="39.21976470851169" lon="-6.315687694472919"><ele>833</ele><speed>6.95</speed><time>2016-06-01T15:05:08Z</time><pdop>6.0</pdop><geoidheight>50.60</geoidheight><course>79.08831</course><type>1</type></trkpt>
      <trkpt lat="39.21983151555223" lon="-6.315531387080731"><ele>836</ele><speed>8.28</speed><time>2016-06-01T15:05:11Z</time><pdop>8.0</pdop><geoidheight>50.60</geoidheight><course>51.7148</course><type>1</type></trkpt>
      <trkpt lat="39.22001610882579" lon="-6.315440818125206"><ele>842</ele><speed>6.43</speed><time>2016-06-01T15:05:14Z</time><pdop>8.0</pdop><geoidheight>50.60</geoidheight><course>356.17795</course><type>1</type></trkpt>
      <trkpt lat="39.220173806975886" lon="-6.31554265587685"><ele>849</ele><speed>7.65</speed><time>2016-06-01T15:05:17Z</time><pdop>8.0</pdop><geoidheight>50.60</geoidheight><course>305.3401</course><type>1</type></trkpt>
      <trkpt lat="39.22021932218212" lon="-6.3157718027008665"><ele>855</ele><speed>7.31</speed><time>2016-06-01T15:05:20Z</time><pdop>8.0</pdop><geoidheight>50.60</geoidheight><course>283.58823</course><type>1</type></trkpt>
      <trkpt lat="39.220007001906204" lon="-6.315885323224653"><ele>856</ele><speed>6.94</speed><time>2016-06-01T15:05:23Z</time><pdop>8.0</pdop><geoidheight>50.60</geoidheight><course>189.97203</course><type>1</type></trkpt>
      <trkpt lat="39.219831394708585" lon="-6.315825534853925"><ele>860</ele><speed>6.47</speed><time>2016-06-01T15:05:26Z</time><pdop>6.0</pdop><geoidheight>50.60</geoidheight><course>148.73514</course><type>1</type></trkpt>
      <trkpt lat="39.219717531388824" lon="-6.315690822943041"><ele>868</ele><speed>4.82</speed><time>2016-06-01T15:05:29Z</time><pdop>8.0</pdop><geoidheight>50.60</geoidheight><course>128.22395</course><type>1</type></trkpt>
      <trkpt lat="39.219636867675035" lon="-6.315519625683231"><ele>876</ele><speed>7.13</speed><time>2016-06-01T15:05:32Z</time><pdop>8.0</pdop><geoidheight>50.60</geoidheight><course>121.26079</course><type>1</type></trkpt>
      <trkpt lat="39.21967427094008" lon="-6.315276340337333"><ele>878</ele><speed>7.25</speed><time>2016-06-01T15:05:35Z</time><pdop>8.0</pdop><geoidheight>50.60</geoidheight><course>58.71477</course><type>1</type></trkpt>
      <trkpt lat="39.219817878277865" lon="-6.31504552724192"><ele>882</ele><speed>5.86</speed><time>2016-06-01T15:05:38Z</time><pdop>12.0</pdop><geoidheight>50.60</geoidheight><course>37.82366</course><type>1</type></trkpt>
      <trkpt lat="39.22000231787756" lon="-6.315054131057464"><ele>884</ele><speed>7.37</speed><time>2016-06-01T15:05:42Z</time><pdop>8.0</pdop><geoidheight>50.60</geoidheight><course>342.2901</course><type>1</type></trkpt>
      <trkpt lat="39.22017834819" lon="-6.315150806490889"><ele>888</ele><speed>7.08</speed><time>2016-06-01T15:05:45Z</time><pdop>8.0</pdop><geoidheight>50.60</geoidheight><course>336.44684</course><type>1</type></trkpt>
      <trkpt lat="39.22028471931963" lon="-6.315278858321834"><ele>890</ele><speed>8.72</speed><time>2016-06-01T15:05:47Z</time><pdop>8.0</pdop><geoidheight>50.60</geoidheight><course>308.08423</course><type>1</type></trkpt>
      <trkpt lat="39.22035212161368" lon="-6.315444411325582"><ele>892</ele><speed>8.02</speed><time>2016-06-01T15:05:49Z</time><pdop>8.0</pdop><geoidheight>50.60</geoidheight><course>284.1361</course><type>1</type></trkpt>
      <trkpt lat="39.22036312188069" lon="-6.315708352876783"><ele>894</ele><speed>7.65</speed><time>2016-06-01T15:05:52Z</time><pdop>8.0</pdop><geoidheight>50.60</geoidheight><course>264.62338</course><type>1</type></trkpt>
      <trkpt lat="39.22029151785512" lon="-6.315873249200825"><ele>897</ele><speed>8.16</speed><time>2016-06-01T15:05:54Z</time><pdop>8.0</pdop><geoidheight>50.60</geoidheight><course>229.36606</course><type>1</type></trkpt>
      <trkpt lat="39.22017078156412" lon="-6.316006351146779"><ele>897</ele><speed>8.82</speed><time>2016-06-01T15:05:56Z</time><pdop>8.0</pdop><geoidheight>50.60</geoidheight><course>212.71138</course><type>1</type></trkpt>
      <trkpt lat="39.22002517441828" lon="-6.316094696016077"><ele>896</ele><speed>7.31</speed><time>2016-06-01T15:05:58Z</time><pdop>8.0</pdop><geoidheight>50.60</geoidheight><course>197.31822</course><type>1</type></trkpt>
      <trkpt lat="39.21989389415546" lon="-6.316116428352982"><ele>896</ele><speed>6.13</speed><time>2016-06-01T15:06:00Z</time><pdop>6.0</pdop><geoidheight>50.60</geoidheight><course>169.33539</course><type>1</type></trkpt>
      <trkpt lat="39.21979100056129" lon="-6.31595501226702"><ele>896</ele><speed>6.29</speed><time>2016-06-01T15:06:04Z</time><pdop>8.0</pdop><geoidheight>50.60</geoidheight><course>85.2448</course><type>1</type></trkpt>
      <trkpt lat="39.219889259967324" lon="-6.315757431860693"><ele>894</ele><speed>6.79</speed><time>2016-06-01T15:06:07Z</time><pdop>8.0</pdop><geoidheight>50.60</geoidheight><course>44.706356</course><type>1</type></trkpt>
      <trkpt lat="39.220076798662774" lon="-6.315702051554156"><ele>894</ele><speed>7.67</speed><time>2016-06-01T15:06:11Z</time><pdop>8.0</pdop><geoidheight>50.60</geoidheight><course>345.52353</course><type>1</type></trkpt>
      <trkpt lat="39.220264913776035" lon="-6.315829861224344"><ele>903</ele><speed>8.18</speed><time>2016-06-01T15:06:14Z</time><pdop>6.0</pdop><geoidheight>50.60</geoidheight><course>321.26312</course><type>1</type></trkpt>
      <trkpt lat="39.220381161246934" lon="-6.315940645021012"><ele>910</ele><speed>7.82</speed><time>2016-06-01T15:06:15Z</time><pdop>8.0</pdop><geoidheight>50.60</geoidheight><course>315.55707</course><type>1</type></trkpt>
      <trkpt lat="39.22051879120113" lon="-6.316031708157775"><ele>915</ele><speed>8.93</speed><time>2016-06-01T15:06:17Z</time><pdop>6.0</pdop><geoidheight>50.60</geoidheight><course>341.48587</course><type>1</type></trkpt>
      <trkpt lat="39.22066754184963" lon="-6.316088058567064"><ele>918</ele><speed>7.46</speed><time>2016-06-01T15:06:19Z</time><pdop>8.0</pdop><geoidheight>50.60</geoidheight><course>345.61298</course><type>1</type></trkpt>
      <trkpt lat="39.220849637153314" lon="-6.316217151181411"><ele>923</ele><speed>8.49</speed><time>2016-06-01T15:06:23Z</time><pdop>8.0</pdop><geoidheight>50.60</geoidheight><course>316.7791</course><type>1</type></trkpt>
      <trkpt lat="39.220945730245155" lon="-6.316379991555854"><ele>925</ele><speed>9.31</speed><time>2016-06-01T15:06:24Z</time><pdop>6.0</pdop><geoidheight>50.60</geoidheight><course>296.83838</course><type>1</type></trkpt>
      <trkpt lat="39.22094692195805" lon="-6.316583195434932"><ele>927</ele><speed>8.87</speed><time>2016-06-01T15:06:26Z</time><pdop>8.0</pdop><geoidheight>50.60</geoidheight><course>257.30322</course><type>1</type></trkpt>
      <trkpt lat="39.220883011796005" lon="-6.316771693334666"><ele>926</ele><speed>8.60</speed><time>2016-06-01T15:06:28Z</time><pdop>6.0</pdop><geoidheight>50.60</geoidheight><course>234.6095</course><type>1</type></trkpt>
      <trkpt lat="39.220771112618536" lon="-6.316915755381959"><ele>928</ele><speed>8.78</speed><time>2016-06-01T15:06:30Z</time><pdop>8.0</pdop><geoidheight>50.60</geoidheight><course>215.32661</course><type>1</type></trkpt>
      <trkpt lat="39.22063684013169" lon="-6.316981969344073"><ele>930</ele><speed>7.37</speed><time>2016-06-01T15:06:32Z</time><pdop>6.0</pdop><geoidheight>50.60</geoidheight><course>185.70459</course><type>1</type></trkpt>
      <trkpt lat="39.22052612187057" lon="-6.316975509415108"><ele>931</ele><speed>6.98</speed><time>2016-06-01T15:06:34Z</time><pdop>6.0</pdop><geoidheight>50.60</geoidheight><course>156.06973</course><type>1</type></trkpt>
      <trkpt lat="39.22044889685685" lon="-6.316769995747748"><ele>933</ele><speed>7.44</speed><time>2016-06-01T15:06:37Z</time><pdop>8.0</pdop><geoidheight>50.60</geoidheight><course>93.317184</course><type>1</type></trkpt>
      <trkpt lat="39.22055666773148" lon="-6.316550449629145"><ele>939</ele><speed>6.90</speed><time>2016-06-01T15:06:40Z</time><pdop>6.0</pdop><geoidheight>50.60</geoidheight><course>34.377747</course><type>1</type></trkpt>
      <trkpt lat="39.22067415429412" lon="-6.316470144185809"><ele>941</ele><speed>8.02</speed><time>2016-06-01T15:06:42Z</time><pdop>8.0</pdop><geoidheight>50.60</geoidheight><course>12.675956</course><type>1</type></trkpt>
      <trkpt lat="39.22085632806852" lon="-6.316550410186006"><ele>944</ele><speed>8.25</speed><time>2016-06-01T15:06:45Z</time><pdop>8.0</pdop><geoidheight>50.60</geoidheight><course>330.20514</course><type>1</type></trkpt>
      <trkpt lat="39.22099475324198" lon="-6.316744038099081"><ele>947</ele><speed>8.25</speed><time>2016-06-01T15:06:49Z</time><pdop>8.0</pdop><geoidheight>50.60</geoidheight><course>297.0705</course><type>1</type></trkpt>
      <trkpt lat="39.221028963773044" lon="-6.316982869684287"><ele>950</ele><speed>10.59</speed><time>2016-06-01T15:06:50Z</time><pdop>8.0</pdop><geoidheight>50.60</geoidheight><course>292.14508</course><type>1</type></trkpt>
      <trkpt lat="39.22092765628717" lon="-6.317213948447535"><ele>951</ele><speed>9.92</speed><time>2016-06-01T15:06:52Z</time><pdop>12.0</pdop><geoidheight>50.60</geoidheight><course>222.70103</course><type>1</type></trkpt>
      <trkpt lat="39.220707880005044" lon="-6.317293622677713"><ele>952</ele><speed>9.03</speed><time>2016-06-01T15:06:56Z</time><pdop>8.0</pdop><geoidheight>50.60</geoidheight><course>185.96306</course><type>1</type></trkpt>
      <trkpt lat="39.22054691259589" lon="-6.317175196453945"><ele>954</ele><speed>7.39</speed><time>2016-06-01T15:06:58Z</time><pdop>6.0</pdop><geoidheight>50.60</geoidheight><course>132.73178</course><type>1</type></trkpt>
      <trkpt lat="39.220474519740854" lon="-6.316992068625479"><ele>957</ele><speed>6.90</speed><time>2016-06-01T15:07:01Z</time><pdop>8.0</pdop><geoidheight>50.60</geoidheight><course>113.197</course><type>1</type></trkpt>
      <trkpt lat="39.22039309621324" lon="-6.316740898528921"><ele>961</ele><speed>7.26</speed><time>2016-06-01T15:07:05Z</time><pdop>6.0</pdop><geoidheight>50.60</geoidheight><course>111.078735</course><type>1</type></trkpt>
      <trkpt lat="39.220352180342665" lon="-6.316554831281986"><ele>964</ele><speed>7.27</speed><time>2016-06-01T15:07:07Z</time><pdop>6.0</pdop><geoidheight>50.60</geoidheight><course>106.45365</course><type>1</type></trkpt>
      <trkpt lat="39.22032378239007" lon="-6.316364731018341"><ele>968</ele><speed>7.63</speed><time>2016-06-01T15:07:08Z</time><pdop>6.0</pdop><geoidheight>50.60</geoidheight><course>103.73393</course><type>1</type></trkpt>
      <trkpt lat="39.22031330666252" lon="-6.31618160575545"><ele>972</ele><speed>7.97</speed><time>2016-06-01T15:07:10Z</time><pdop>8.0</pdop><geoidheight>50.60</geoidheight><course>98.083664</course><type>1</type></trkpt>
      <trkpt lat="39.22030813974455" lon="-6.3159965262867"><ele>975</ele><speed>7.45</speed><time>2016-06-01T15:07:12Z</time><pdop>6.0</pdop><geoidheight>50.60</geoidheight><course>97.29689</course><type>1</type></trkpt>
      <trkpt lat="39.220300945828804" lon="-6.31579626774258"><ele>976</ele><speed>8.71</speed><time>2016-06-01T15:07:14Z</time><pdop>8.0</pdop><geoidheight>50.60</geoidheight><course>94.43467</course><type>1</type></trkpt>
      <trkpt lat="39.220301770612956" lon="-6.31558072965998"><ele>979</ele><speed>9.24</speed><time>2016-06-01T15:07:16Z</time><pdop>6.0</pdop><geoidheight>50.60</geoidheight><course>93.08356</course><type>1</type></trkpt>
      <trkpt lat="39.22029651682387" lon="-6.315376771195194"><ele>982</ele><speed>7.72</speed><time>2016-06-01T15:07:18Z</time><pdop>6.0</pdop><geoidheight>50.60</geoidheight><course>97.68029</course><type>1</type></trkpt>
      <trkpt lat="39.22027495780382" lon="-6.315197780535631"><ele>985</ele><speed>8.85</speed><time>2016-06-01T15:07:20Z</time><pdop>8.0</pdop><geoidheight>50.60</geoidheight><course>101.55568</course><type>1</type></trkpt>
      <trkpt lat="39.220247977930846" lon="-6.314971100458666"><ele>987</ele><speed>8.59</speed><time>2016-06-01T15:07:22Z</time><pdop>8.0</pdop><geoidheight>50.60</geoidheight><course>99.55758</course><type>1</type></trkpt>
      <trkpt lat="39.220236939365925" lon="-6.314784154678362"><ele>991</ele><speed>6.88</speed><time>2016-06-01T15:07:24Z</time><pdop>8.0</pdop><geoidheight>50.60</geoidheight><course>95.285255</course><type>1</type></trkpt>
      <trkpt lat="39.22033414427561" lon="-6.3144492399832055"><ele>998</ele><speed>6.79</speed><time>2016-06-01T15:07:28Z</time><pdop>8.0</pdop><geoidheight>50.60</geoidheight><course>54.802094</course><type>1</type></trkpt>
      <trkpt lat="39.22044775344808" lon="-6.314316552421023"><ele>1004</ele><speed>5.08</speed><time>2016-06-01T15:07:31Z</time><pdop>6.0</pdop><geoidheight>50.60</geoidheight><course>32.24462</course><type>1</type></trkpt>
      <trkpt lat="39.22055752301253" lon="-6.314187411221182"><ele>1008</ele><speed>6.89</speed><time>2016-06-01T15:07:34Z</time><pdop>6.0</pdop><geoidheight>50.60</geoidheight><course>59.226864</course><type>1</type></trkpt>
      <trkpt lat="39.22054476093767" lon="-6.3140070031400475"><ele>1009</ele><speed>8.84</speed><time>2016-06-01T15:07:36Z</time><pdop>8.0</pdop><geoidheight>50.60</geoidheight><course>105.22623</course><type>1</type></trkpt>
      <trkpt lat="39.2204221406086" lon="-6.313877294459947"><ele>1009</ele><speed>10.86</speed><time>2016-06-01T15:07:38Z</time><pdop>8.0</pdop><geoidheight>50.60</geoidheight><course>153.03365</course><type>1</type></trkpt>
      <trkpt lat="39.220226765521275" lon="-6.313830311246128"><ele>1009</ele><speed>11.08</speed><time>2016-06-01T15:07:40Z</time><pdop>8.0</pdop><geoidheight>50.60</geoidheight><course>173.53534</course><type>1</type></trkpt>
      <trkpt lat="39.22002420606714" lon="-6.313894957322422"><ele>1009</ele><speed>10.79</speed><time>2016-06-01T15:07:42Z</time><pdop>8.0</pdop><geoidheight>50.60</geoidheight><course>195.29718</course><type>1</type></trkpt>
      <trkpt lat="39.219842379808966" lon="-6.314054417697349"><ele>1010</ele><speed>10.60</speed><time>2016-06-01T15:07:44Z</time><pdop>8.0</pdop><geoidheight>50.60</geoidheight><course>216.89252</course><type>1</type></trkpt>
      <trkpt lat="39.2197581214405" lon="-6.314218772442249"><ele>1012</ele><speed>8.48</speed><time>2016-06-01T15:07:47Z</time><pdop>8.0</pdop><geoidheight>50.60</geoidheight><course>244.30928</course><type>1</type></trkpt>
      <trkpt lat="39.2197981128341" lon="-6.314398007061436"><ele>1016</ele><speed>7.08</speed><time>2016-06-01T15:07:50Z</time><pdop>8.0</pdop><geoidheight>50.60</geoidheight><course>306.4872</course><type>1</type></trkpt>
      <trkpt lat="39.21999090603415" lon="-6.314458563637729"><ele>1022</ele><speed>7.02</speed><time>2016-06-01T15:07:52Z</time><pdop>8.0</pdop><geoidheight>50.60</geoidheight><course>17.954208</course><type>1</type></trkpt>
      <trkpt lat="39.22005997571924" lon="-6.314273329813624"><ele>1028</ele><speed>6.43</speed><time>2016-06-01T15:07:56Z</time><pdop>8.0</pdop><geoidheight>50.60</geoidheight><course>105.54217</course><type>1</type></trkpt>
      <trkpt lat="39.219971642335075" lon="-6.314037476341757"><ele>1031</ele><speed>10.84</speed><time>2016-06-01T15:08:00Z</time><pdop>8.0</pdop><geoidheight>50.60</geoidheight><course>126.71807</course><type>1</type></trkpt>
      <trkpt lat="39.21981212685633" lon="-6.313921495235342"><ele>1034</ele><speed>9.98</speed><time>2016-06-01T15:08:01Z</time><pdop>8.0</pdop><geoidheight>50.60</geoidheight><course>152.0483</course><type>1</type></trkpt>
      <trkpt lat="39.219595459235684" lon="-6.3139008275732795"><ele>1036</ele><speed>12.83</speed><time>2016-06-01T15:08:03Z</time><pdop>8.0</pdop><geoidheight>50.60</geoidheight><course>177.44925</course><type>1</type></trkpt>
      <trkpt lat="39.21938702259858" lon="-6.313938337495555"><ele>1037</ele><speed>10.84</speed><time>2016-06-01T15:08:05Z</time><pdop>12.0</pdop><geoidheight>50.60</geoidheight><course>196.17583</course><type>1</type></trkpt>
      <trkpt lat="39.21922510019594" lon="-6.314065137278927"><ele>1038</ele><speed>9.85</speed><time>2016-06-01T15:08:08Z</time><pdop>8.0</pdop><geoidheight>50.60</geoidheight><course>216.03552</course><type>1</type></trkpt>
      <trkpt lat="39.219129221141436" lon="-6.314233460619269"><ele>1040</ele><speed>8.87</speed><time>2016-06-01T15:08:09Z</time><pdop>8.0</pdop><geoidheight>50.60</geoidheight><course>238.08821</course><type>1</type></trkpt>
      <trkpt lat="39.21919773494817" lon="-6.3144699759722105"><ele>1045</ele><speed>6.57</speed><time>2016-06-01T15:08:13Z</time><pdop>12.0</pdop><geoidheight>50.60</geoidheight><course>337.5197</course><type>1</type></trkpt>
      <trkpt lat="39.219381869240365" lon="-6.3144168805098895"><ele>1054</ele><speed>6.65</speed><time>2016-06-01T15:08:18Z</time><pdop>8.0</pdop><geoidheight>50.60</geoidheight><course>72.4331</course><type>1</type></trkpt>
      <trkpt lat="39.219322826217095" lon="-6.314186197274712"><ele>1057</ele><speed>9.86</speed><time>2016-06-01T15:08:21Z</time><pdop>8.0</pdop><geoidheight>50.60</geoidheight><course>125.765076</course><type>1</type></trkpt>
      <trkpt lat="39.21913315818281" lon="-6.314082578492338"><ele>1063</ele><speed>11.41</speed><time>2016-06-01T15:08:24Z</time><pdop>8.0</pdop><geoidheight>50.60</geoidheight><course>165.10767</course><type>1</type></trkpt>
      <trkpt lat="39.218928875140286" lon="-6.3140471471350175"><ele>1068</ele><speed>12.18</speed><time>2016-06-01T15:08:26Z</time><pdop>8.0</pdop><geoidheight>50.60</geoidheight><course>187.19675</course><type>1</type></trkpt>
      <trkpt lat="39.21868452533448" lon="-6.314118783031296"><ele>1070</ele><speed>11.60</speed><time>2016-06-01T15:08:28Z</time><pdop>8.0</pdop><geoidheight>50.60</geoidheight><course>203.70726</course><type>1</type></trkpt>
      <trkpt lat="39.21850861927694" lon="-6.3142327580474955"><ele>1072</ele><speed>9.46</speed><time>2016-06-01T15:08:30Z</time><pdop>8.0</pdop><geoidheight>50.60</geoidheight><course>217.73412</course><type>1</type></trkpt>
      <trkpt lat="39.21839854859561" lon="-6.314397080714474"><ele>1074</ele><speed>9.41</speed><time>2016-06-01T15:08:32Z</time><pdop>8.0</pdop><geoidheight>50.60</geoidheight><course>234.64893</course><type>1</type></trkpt>
      <trkpt lat="39.2184108666259" lon="-6.31463233287766"><ele>1074</ele><speed>5.11</speed><time>2016-06-01T15:08:35Z</time><pdop>12.0</pdop><geoidheight>50.60</geoidheight><course>305.23328</course><type>1</type></trkpt>
      <trkpt lat="39.21849654117298" lon="-6.314322223520776"><ele>1079</ele><speed>9.54</speed><time>2016-06-01T15:08:40Z</time><pdop>12.0</pdop><geoidheight>50.60</geoidheight><course>126.214264</course><type>1</type></trkpt>
      <trkpt lat="39.218301186891885" lon="-6.3141181243594575"><ele>1083</ele><speed>10.88</speed><time>2016-06-01T15:08:43Z</time><pdop>8.0</pdop><geoidheight>50.60</geoidheight><course>147.48892</course><type>1</type></trkpt>
      <trkpt lat="39.21811964614734" lon="-6.314061219799137"><ele>1091</ele><speed>11.35</speed><time>2016-06-01T15:08:45Z</time><pdop>8.0</pdop><geoidheight>50.60</geoidheight><course>152.68513</course><type>1</type></trkpt>
      <trkpt lat="39.21792471159682" lon="-6.3141754003598765"><ele>1103</ele><speed>10.83</speed><time>2016-06-01T15:08:48Z</time><pdop>12.0</pdop><geoidheight>50.60</geoidheight><course>224.71468</course><type>1</type></trkpt>
      <trkpt lat="39.21782568401908" lon="-6.314516220526029"><ele>1134</ele><speed>6.92</speed><time>2016-06-01T15:08:52Z</time><pdop>8.0</pdop><geoidheight>50.60</geoidheight><course>279.6098</course><type>1</type></trkpt>
      <trkpt lat="39.217963857033574" lon="-6.314709933347576"><ele>1148</ele><speed>5.58</speed><time>2016-06-01T15:08:56Z</time><pdop>12.0</pdop><geoidheight>50.60</geoidheight><course>350.57617</course><type>1</type></trkpt>
      <trkpt lat="39.217876071948766" lon="-6.314453958675052"><ele>1163</ele><speed>12.84</speed><time>2016-06-01T15:09:02Z</time><pdop>12.0</pdop><geoidheight>50.60</geoidheight><course>158.10457</course><type>1</type></trkpt>
      <trkpt lat="39.21758480208198" lon="-6.314396973794786"><ele>1169</ele><speed>12.48</speed><time>2016-06-01T15:09:05Z</time><pdop>12.0</pdop><geoidheight>50.60</geoidheight><course>184.82597</course><type>1</type></trkpt>
      <trkpt lat="39.21731064243957" lon="-6.314692961548256"><ele>1178</ele><speed>11.93</speed><time>2016-06-01T15:09:10Z</time><pdop>8.0</pdop><geoidheight>50.60</geoidheight><course>229.13396</course><type>1</type></trkpt>
      <trkpt lat="39.21732031259085" lon="-6.314893755705067"><ele>1183</ele><speed>7.60</speed><time>2016-06-01T15:09:11Z</time><pdop>8.0</pdop><geoidheight>50.60</geoidheight><course>288.43127</course><type>1</type></trkpt>
      <trkpt lat="39.21743540334436" lon="-6.315113620847552"><ele>1190</ele><speed>5.23</speed><time>2016-06-01T15:09:15Z</time><pdop>8.0</pdop><geoidheight>50.60</geoidheight><course>330.8316</course><type>1</type></trkpt>
      <trkpt lat="39.21757181078866" lon="-6.31504376019742"><ele>1197</ele><speed>7.29</speed><time>2016-06-01T15:09:19Z</time><pdop>8.0</pdop><geoidheight>50.60</geoidheight><course>92.40027</course><type>1</type></trkpt>
      <trkpt lat="39.2174266617257" lon="-6.314849528520092"><ele>1198</ele><speed>11.49</speed><time>2016-06-01T15:09:22Z</time><pdop>12.0</pdop><geoidheight>50.60</geoidheight><course>150.5704</course><type>1</type></trkpt>
      <trkpt lat="39.217211206396755" lon="-6.314787404217603"><ele>1199</ele><speed>13.87</speed><time>2016-06-01T15:09:24Z</time><pdop>12.0</pdop><geoidheight>50.60</geoidheight><course>183.58418</course><type>1</type></trkpt>
      <trkpt lat="39.21698080074975" lon="-6.314856327467643"><ele>1202</ele><speed>12.16</speed><time>2016-06-01T15:09:26Z</time><pdop>12.0</pdop><geoidheight>50.60</geoidheight><course>206.16481</course><type>1</type></trkpt>
      <trkpt lat="39.21675152847151" lon="-6.315085182633271"><ele>1209</ele><speed>10.27</speed><time>2016-06-01T15:09:30Z</time><pdop>12.0</pdop><geoidheight>50.60</geoidheight><course>230.81024</course><type>1</type></trkpt>
      <trkpt lat="39.216754845366715" lon="-6.31534037335703"><ele>1219</ele><speed>7.47</speed><time>2016-06-01T15:09:32Z</time><pdop>8.0</pdop><geoidheight>50.60</geoidheight><course>290.34308</course><type>1</type></trkpt>
      <trkpt lat="39.21691633249233" lon="-6.315403690350605"><ele>1226</ele><speed>6.21</speed><time>2016-06-01T15:09:36Z</time><pdop>8.0</pdop><geoidheight>50.60</geoidheight><course>21.407131</course><type>1</type></trkpt>
      <trkpt lat="39.21693994616724" lon="-6.315177405617027"><ele>1231</ele><speed>10.51</speed><time>2016-06-01T15:09:39Z</time><pdop>8.0</pdop><geoidheight>50.60</geoidheight><course>120.62507</course><type>1</type></trkpt>
      <trkpt lat="39.21675744600943" lon="-6.315015096987842"><ele>1234</ele><speed>15.20</speed><time>2016-06-01T15:09:42Z</time><pdop>8.0</pdop><geoidheight>50.60</geoidheight><course>155.0827</course><type>1</type></trkpt>
      <trkpt lat="39.216528072307284" lon="-6.314928731533513"><ele>1237</ele><speed>13.17</speed><time>2016-06-01T15:09:44Z</time><pdop>8.0</pdop><geoidheight>50.60</geoidheight><course>174.9354</course><type>1</type></trkpt>
      <trkpt lat="39.21629805452671" lon="-6.314905769017042"><ele>1241</ele><speed>13.20</speed><time>2016-06-01T15:09:45Z</time><pdop>8.0</pdop><geoidheight>50.60</geoidheight><course>178.75145</course><type>1</type></trkpt>
      <trkpt lat="39.21607387860773" lon="-6.314960688247742"><ele>1244</ele><speed>13.26</speed><time>2016-06-01T15:09:47Z</time><pdop>8.0</pdop><geoidheight>50.60</geoidheight><course>201.69992</course><type>1</type></trkpt>
      <trkpt lat="39.215880437591125" lon="-6.315101488810998"><ele>1246</ele><speed>11.62</speed><time>2016-06-01T15:09:49Z</time><pdop>8.0</pdop><geoidheight>50.60</geoidheight><course>219.70065</course><type>1</type></trkpt>
      <trkpt lat="39.2157769479156" lon="-6.315303652295038"><ele>1249</ele><speed>11.06</speed><time>2016-06-01T15:09:51Z</time><pdop>8.0</pdop><geoidheight>50.60</geoidheight><course>250.34302</course><type>1</type></trkpt>
      <trkpt lat="39.21578819067504" lon="-6.315500573456752"><ele>1251</ele><speed>9.97</speed><time>2016-06-01T15:09:53Z</time><pdop>8.0</pdop><geoidheight>50.60</geoidheight><course>290.45923</course><type>1</type></trkpt>
      <trkpt lat="39.21596014874008" lon="-6.315602396080391"><ele>1256</ele><speed>6.72</speed><time>2016-06-01T15:09:56Z</time><pdop>8.0</pdop><geoidheight>50.60</geoidheight><course>355.32968</course><type>1</type></trkpt>
      <trkpt lat="39.21591902727921" lon="-6.315395184383096"><ele>1262</ele><speed>8.88</speed><time>2016-06-01T15:10:00Z</time><pdop>8.0</pdop><geoidheight>50.60</geoidheight><course>130.83734</course><type>1</type></trkpt>
      <trkpt lat="39.21575741555086" lon="-6.315259802171493"><ele>1266</ele><speed>11.69</speed><time>2016-06-01T15:10:02Z</time><pdop>8.0</pdop><geoidheight>50.60</geoidheight><course>154.58472</course><type>1</type></trkpt>
      <trkpt lat="39.21557663876709" lon="-6.315165291399413"><ele>1271</ele><speed>9.40</speed><time>2016-06-01T15:10:04Z</time><pdop>8.0</pdop><geoidheight>50.60</geoidheight><course>160.05562</course><type>1</type></trkpt>
      <trkpt lat="39.21542684727971" lon="-6.31506377523437"><ele>1279</ele><speed>8.85</speed><time>2016-06-01T15:10:06Z</time><pdop>6.0</pdop><geoidheight>50.60</geoidheight><course>157.33728</course><type>1</type></trkpt>
      <trkpt lat="39.21523837500296" lon="-6.314981915163093"><ele>1285</ele><speed>13.09</speed><time>2016-06-01T15:10:09Z</time><pdop>6.0</pdop><geoidheight>50.60</geoidheight><course>174.34445</course><type>1</type></trkpt>
      <trkpt lat="39.21510887526891" lon="-6.315007597777274"><ele>1287</ele><speed>15.35</speed><time>2016-06-01T15:10:09Z</time><pdop>8.0</pdop><geoidheight>50.60</geoidheight><course>194.82272</course><type>1</type></trkpt>
      <trkpt lat="39.21490308209024" lon="-6.315115922728571"><ele>1290</ele><speed>13.35</speed><time>2016-06-01T15:10:11Z</time><pdop>8.0</pdop><geoidheight>50.60</geoidheight><course>213.25258</course><type>1</type></trkpt>
      <trkpt lat="39.21483060658437" lon="-6.31530919105669"><ele>1292</ele><speed>10.39</speed><time>2016-06-01T15:10:13Z</time><pdop>8.0</pdop><geoidheight>50.60</geoidheight><course>255.10315</course><type>1</type></trkpt>
      <trkpt lat="39.21481545138657" lon="-6.31550876508422"><ele>1295</ele><speed>9.09</speed><time>2016-06-01T15:10:16Z</time><pdop>8.0</pdop><geoidheight>50.60</geoidheight><course>279.70877</course><type>1</type></trkpt>
      <trkpt lat="39.21494853428911" lon="-6.315664938783106"><ele>1298</ele><speed>6.65</speed><time>2016-06-01T15:10:18Z</time><pdop>8.0</pdop><geoidheight>50.60</geoidheight><course>7.7181044</course><type>1</type></trkpt>
      <trkpt lat="39.21502423558333" lon="-6.315486098252504"><ele>1300</ele><speed>7.89</speed><time>2016-06-01T15:10:24Z</time><pdop>8.0</pdop><geoidheight>50.60</geoidheight><course>101.285645</course><type>1</type></trkpt>
      <trkpt lat="39.214827352482445" lon="-6.315295319045787"><ele>1301</ele><speed>11.44</speed><time>2016-06-01T15:10:26Z</time><pdop>12.0</pdop><geoidheight>50.60</geoidheight><course>155.34483</course><type>1</type></trkpt>
      <trkpt lat="39.21462981276303" lon="-6.315264525798323"><ele>1304</ele><speed>12.10</speed><time>2016-06-01T15:10:28Z</time><pdop>8.0</pdop><geoidheight>50.60</geoidheight><course>176.92561</course><type>1</type></trkpt>
      <trkpt lat="39.21442347409595" lon="-6.315289764319714"><ele>1308</ele><speed>12.29</speed><time>2016-06-01T15:10:30Z</time><pdop>8.0</pdop><geoidheight>50.60</geoidheight><course>196.3598</course><type>1</type></trkpt>
      <trkpt lat="39.21424466002605" lon="-6.315412627705994"><ele>1311</ele><speed>11.95</speed><time>2016-06-01T15:10:32Z</time><pdop>8.0</pdop><geoidheight>50.60</geoidheight><course>217.47122</course><type>1</type></trkpt>
      <trkpt lat="39.21411373804469" lon="-6.315640874432101"><ele>1314</ele><speed>12.99</speed><time>2016-06-01T15:10:35Z</time><pdop>8.0</pdop><geoidheight>50.60</geoidheight><course>235.9308</course><type>1</type></trkpt>
      <trkpt lat="39.21404491239311" lon="-6.31594740228809"><ele>1318</ele><speed>9.01</speed><time>2016-06-01T15:10:37Z</time><pdop>16.0</pdop><geoidheight>50.60</geoidheight><course>269.7683</course><type>1</type></trkpt>
      <trkpt lat="39.21411085624723" lon="-6.316262838881332"><ele>1321</ele><speed>9.00</speed><time>2016-06-01T15:10:40Z</time><pdop>8.0</pdop><geoidheight>50.60</geoidheight><course>292.09207</course><type>1</type></trkpt>
      <trkpt lat="39.21421259012859" lon="-6.316408230848451"><ele>1322</ele><speed>6.90</speed><time>2016-06-01T15:10:42Z</time><pdop>6.0</pdop><geoidheight>50.60</geoidheight><course>322.69733</course><type>1</type></trkpt>
      <trkpt lat="39.21437412639007" lon="-6.31649008598289"><ele>1324</ele><speed>5.88</speed><time>2016-06-01T15:10:45Z</time><pdop>8.0</pdop><geoidheight>50.60</geoidheight><course>347.02002</course><type>1</type></trkpt>
      <trkpt lat="39.21452308281747" lon="-6.316492519990554"><ele>1327</ele><speed>4.53</speed><time>2016-06-01T15:10:49Z</time><pdop>6.0</pdop><geoidheight>50.60</geoidheight><course>35.118565</course><type>1</type></trkpt>
      <trkpt lat="39.21458387501174" lon="-6.316302781224886"><ele>1328</ele><speed>6.15</speed><time>2016-06-01T15:10:54Z</time><pdop>8.0</pdop><geoidheight>50.60</geoidheight><course>98.13486</course><type>1</type></trkpt>
      <trkpt lat="39.214569410592816" lon="-6.316124249194455"><ele>1327</ele><speed>6.47</speed><time>2016-06-01T15:10:56Z</time><pdop>6.0</pdop><geoidheight>50.60</geoidheight><course>100.94546</course><type>1</type></trkpt>
      <trkpt lat="39.214543141489976" lon="-6.315941429469031"><ele>1326</ele><speed>8.21</speed><time>2016-06-01T15:10:59Z</time><pdop>8.0</pdop><geoidheight>50.60</geoidheight><course>101.15236</course><type>1</type></trkpt>
      <trkpt lat="39.21445749330119" lon="-6.315723831361693"><ele>1326</ele><speed>8.01</speed><time>2016-06-01T15:11:01Z</time><pdop>8.0</pdop><geoidheight>50.60</geoidheight><course>135.51231</course><type>1</type></trkpt>
      <trkpt lat="39.21422578096706" lon="-6.315581668858982"><ele>1330</ele><speed>14.06</speed><time>2016-06-01T15:11:04Z</time><pdop>12.0</pdop><geoidheight>50.60</geoidheight><course>158.11618</course><type>1</type></trkpt>
      <trkpt lat="39.21398641874006" lon="-6.315574415168206"><ele>1336</ele><speed>13.73</speed><time>2016-06-01T15:11:06Z</time><pdop>8.0</pdop><geoidheight>50.60</geoidheight><course>183.13106</course><type>1</type></trkpt>
      <trkpt lat="39.21377374539077" lon="-6.3155990782806555"><ele>1342</ele><speed>12.84</speed><time>2016-06-01T15:11:09Z</time><pdop>8.0</pdop><geoidheight>50.60</geoidheight><course>189.81836</course><type>1</type></trkpt>
      <trkpt lat="39.2135589781419" lon="-6.315698660005399"><ele>1347</ele><speed>13.89</speed><time>2016-06-01T15:11:10Z</time><pdop>6.0</pdop><geoidheight>50.60</geoidheight><course>207.86913</course><type>1</type></trkpt>
      <trkpt lat="39.21336010910994" lon="-6.315839422221639"><ele>1353</ele><speed>12.84</speed><time>2016-06-01T15:11:13Z</time><pdop>8.0</pdop><geoidheight>50.60</geoidheight><course>212.49457</course><type>1</type></trkpt>
      <trkpt lat="39.21320635699836" lon="-6.316014534832305"><ele>1357</ele><speed>11.50</speed><time>2016-06-01T15:11:14Z</time><pdop>8.0</pdop><geoidheight>50.60</geoidheight><course>232.71129</course><type>1</type></trkpt>
      <trkpt lat="39.21315931988346" lon="-6.316242796222295"><ele>1360</ele><speed>11.45</speed><time>2016-06-01T15:11:16Z</time><pdop>12.0</pdop><geoidheight>50.60</geoidheight><course>266.95117</course><type>1</type></trkpt>
      <trkpt lat="39.213226562289904" lon="-6.316522723205973"><ele>1361</ele><speed>6.42</speed><time>2016-06-01T15:11:19Z</time><pdop>8.0</pdop><geoidheight>50.60</geoidheight><course>316.58194</course><type>1</type></trkpt>
      <trkpt lat="39.21331353818632" lon="-6.316729980509208"><ele>1363</ele><speed>3.83</speed><time>2016-06-01T15:11:22Z</time><pdop>8.0</pdop><geoidheight>50.60</geoidheight><course>295.51505</course><type>1</type></trkpt>
      <trkpt lat="39.21346265891526" lon="-6.316789321587308"><ele>1366</ele><speed>3.22</speed><time>2016-06-01T15:11:27Z</time><pdop>8.0</pdop><geoidheight>50.60</geoidheight><course>22.953087</course><type>1</type></trkpt>
      <trkpt lat="39.213396407110054" lon="-6.3166009512897245"><ele>1365</ele><speed>7.76</speed><time>2016-06-01T15:11:30Z</time><pdop>8.0</pdop><geoidheight>50.60</geoidheight><course>116.56512</course><type>1</type></trkpt>
      <trkpt lat="39.2132806929135" lon="-6.316442486375135"><ele>1362</ele><speed>11.20</speed><time>2016-06-01T15:11:32Z</time><pdop>8.0</pdop><geoidheight>50.60</geoidheight><course>138.885</course><type>1</type></trkpt>
      <trkpt lat="39.21309368810157" lon="-6.316353669985089"><ele>1362</ele><speed>14.18</speed><time>2016-06-01T15:11:34Z</time><pdop>8.0</pdop><geoidheight>50.60</geoidheight><course>166.65936</course><type>1</type></trkpt>
      <trkpt lat="39.21286399118817" lon="-6.316310511764283"><ele>1366</ele><speed>13.36</speed><time>2016-06-01T15:11:36Z</time><pdop>8.0</pdop><geoidheight>50.60</geoidheight><course>173.50395</course><type>1</type></trkpt>
      <trkpt lat="39.21264442622739" lon="-6.316303757028974"><ele>1369</ele><speed>11.51</speed><time>2016-06-01T15:11:39Z</time><pdop>16.0</pdop><geoidheight>50.60</geoidheight><course>180.00255</course><type>1</type></trkpt>
      <trkpt lat="39.212429821503974" lon="-6.316378058070106"><ele>1372</ele><speed>11.63</speed><time>2016-06-01T15:11:40Z</time><pdop>8.0</pdop><geoidheight>50.60</geoidheight><course>196.83395</course><type>1</type></trkpt>
      <trkpt lat="39.212234467918705" lon="-6.31655287154928"><ele>1373</ele><speed>14.04</speed><time>2016-06-01T15:11:43Z</time><pdop>8.0</pdop><geoidheight>50.60</geoidheight><course>216.06255</course><type>1</type></trkpt>
      <trkpt lat="39.21209416945062" lon="-6.31680665126223"><ele>1373</ele><speed>11.39</speed><time>2016-06-01T15:11:44Z</time><pdop>12.0</pdop><geoidheight>50.60</geoidheight><course>237.23639</course><type>1</type></trkpt>
      <trkpt lat="39.21204109846224" lon="-6.317083847320165"><ele>1379</ele><speed>7.13</speed><time>2016-06-01T15:11:47Z</time><pdop>8.0</pdop><geoidheight>50.60</geoidheight><course>259.37888</course><type>1</type></trkpt>
      <trkpt lat="39.21211087895168" lon="-6.31730787413693"><ele>1388</ele><speed>4.73</speed><time>2016-06-01T15:11:50Z</time><pdop>8.0</pdop><geoidheight>50.60</geoidheight><course>307.48904</course><type>1</type></trkpt>
      <trkpt lat="39.21226705700979" lon="-6.3173623019364555"><ele>1392</ele><speed>4.17</speed><time>2016-06-01T15:11:54Z</time><pdop>6.0</pdop><geoidheight>50.60</geoidheight><course>15.295849</course><type>1</type></trkpt>
      <trkpt lat="39.21228107445355" lon="-6.317191810028787"><ele>1392</ele><speed>5.85</speed><time>2016-06-01T15:11:58Z</time><pdop>8.0</pdop><geoidheight>50.60</geoidheight><course>106.999</course><type>1</type></trkpt>
      <trkpt lat="39.2122024931543" lon="-6.316998376813288"><ele>1389</ele><speed>8.76</speed><time>2016-06-01T15:12:01Z</time><pdop>8.0</pdop><geoidheight>50.60</geoidheight><course>124.670395</course><type>1</type></trkpt>
      <trkpt lat="39.21206619762702" lon="-6.316850016817368"><ele>1389</ele><speed>12.03</speed><time>2016-06-01T15:12:03Z</time><pdop>8.0</pdop><geoidheight>50.60</geoidheight><course>149.38449</course><type>1</type></trkpt>
      <trkpt lat="39.211819619171365" lon="-6.316817893263897"><ele>1388</ele><speed>13.09</speed><time>2016-06-01T15:12:05Z</time><pdop>12.0</pdop><geoidheight>50.60</geoidheight><course>186.99031</course><type>1</type></trkpt>
      <trkpt lat="39.21159430578067" lon="-6.316950709734727"><ele>1388</ele><speed>12.75</speed><time>2016-06-01T15:12:07Z</time><pdop>8.0</pdop><geoidheight>50.60</geoidheight><course>218.6431</course><type>1</type></trkpt>
      <trkpt lat="39.21144349348598" lon="-6.317205178394534"><ele>1390</ele><speed>10.03</speed><time>2016-06-01T15:12:11Z</time><pdop>8.0</pdop><geoidheight>50.60</geoidheight><course>245.24355</course><type>1</type></trkpt>
      <trkpt lat="39.21144064451521" lon="-6.31747378647319"><ele>1392</ele><speed>9.15</speed><time>2016-06-01T15:12:13Z</time><pdop>8.0</pdop><geoidheight>50.60</geoidheight><course>286.31848</course><type>1</type></trkpt>
      <trkpt lat="39.21157879907093" lon="-6.317625026833289"><ele>1395</ele><speed>5.41</speed><time>2016-06-01T15:12:16Z</time><pdop>8.0</pdop><geoidheight>50.60</geoidheight><course>345.51846</course><type>1</type></trkpt>
      <trkpt lat="39.211716774585106" lon="-6.317695024660398"><ele>1396</ele><speed>2.72</speed><time>2016-06-01T15:12:20Z</time><pdop>8.0</pdop><geoidheight>50.60</geoidheight><course>355.96732</course><type>1</type></trkpt>
      <trkpt lat="39.211867905580554" lon="-6.317635369042189"><ele>1397</ele><speed>4.05</speed><time>2016-06-01T15:12:25Z</time><pdop>6.0</pdop><geoidheight>50.60</geoidheight><course>13.772462</course><type>1</type></trkpt>
      <trkpt lat="39.21198408984791" lon="-6.317642395613497"><ele>1398</ele><speed>4.84</speed><time>2016-06-01T15:12:28Z</time><pdop>6.0</pdop><geoidheight>50.60</geoidheight><course>349.23758</course><type>1</type></trkpt>
      <trkpt lat="39.212093492668195" lon="-6.31762788083034"><ele>1398</ele><speed>3.69</speed><time>2016-06-01T15:12:31Z</time><pdop>6.0</pdop><geoidheight>50.60</geoidheight><course>357.1026</course><type>1</type></trkpt>
      <trkpt lat="39.21220243454949" lon="-6.317678142270582"><ele>1397</ele><speed>4.17</speed><time>2016-06-01T15:12:34Z</time><pdop>6.0</pdop><geoidheight>50.60</geoidheight><course>339.24335</course><type>1</type></trkpt>
      <trkpt lat="39.21231552927831" lon="-6.317696814384519"><ele>1396</ele><speed>4.33</speed><time>2016-06-01T15:12:39Z</time><pdop>6.0</pdop><geoidheight>50.60</geoidheight><course>41.33791</course><type>1</type></trkpt>
      <trkpt lat="39.212436481356036" lon="-6.317613313193959"><ele>1395</ele><speed>3.04</speed><time>2016-06-01T15:12:43Z</time><pdop>6.0</pdop><geoidheight>50.60</geoidheight><course>357.47025</course><type>1</type></trkpt>
      <trkpt lat="39.21253524104332" lon="-6.317621738786651"><ele>1395</ele><speed>4.24</speed><time>2016-06-01T15:12:46Z</time><pdop>4.0</pdop><geoidheight>50.60</geoidheight><course>351.4988</course><type>1</type></trkpt>
      <trkpt lat="39.212646390127226" lon="-6.317733343474504"><ele>1394</ele><speed>6.22</speed><time>2016-06-01T15:12:49Z</time><pdop>6.0</pdop><geoidheight>50.60</geoidheight><course>323.69553</course><type>1</type></trkpt>
      <trkpt lat="39.21277800029729" lon="-6.317813488577373"><ele>1393</ele><speed>5.21</speed><time>2016-06-01T15:12:52Z</time><pdop>6.0</pdop><geoidheight>50.60</geoidheight><course>340.54517</course><type>1</type></trkpt>
      <trkpt lat="39.21290659295846" lon="-6.317871614087564"><ele>1392</ele><speed>5.39</speed><time>2016-06-01T15:12:55Z</time><pdop>6.0</pdop><geoidheight>50.60</geoidheight><course>339.88367</course><type>1</type></trkpt>
      <trkpt lat="39.213013411231486" lon="-6.317903796307612"><ele>1390</ele><speed>6.70</speed><time>2016-06-01T15:12:57Z</time><pdop>6.0</pdop><geoidheight>50.60</geoidheight><course>341.181</course><type>1</type></trkpt>
      <trkpt lat="39.213126841171544" lon="-6.317894795886184"><ele>1388</ele><speed>5.77</speed><time>2016-06-01T15:12:59Z</time><pdop>6.0</pdop><geoidheight>50.60</geoidheight><course>22.745811</course><type>1</type></trkpt>
      <trkpt lat="39.21318812241102" lon="-6.317713666112445"><ele>1385</ele><speed>7.51</speed><time>2016-06-01T15:13:02Z</time><pdop>8.0</pdop><geoidheight>50.60</geoidheight><course>87.57148</course><type>1</type></trkpt>
      <trkpt lat="39.21312597560883" lon="-6.3175272486164555"><ele>1383</ele><speed>10.29</speed><time>2016-06-01T15:13:04Z</time><pdop>8.0</pdop><geoidheight>50.60</geoidheight><course>120.83022</course><type>1</type></trkpt>
      <trkpt lat="39.21294594561503" lon="-6.3173520635586735"><ele>1381</ele><speed>13.35</speed><time>2016-06-01T15:13:06Z</time><pdop>8.0</pdop><geoidheight>50.60</geoidheight><course>151.7472</course><type>1</type></trkpt>
      <trkpt lat="39.21275434613634" lon="-6.317210217024082"><ele>1380</ele><speed>11.60</speed><time>2016-06-01T15:13:08Z</time><pdop>12.0</pdop><geoidheight>50.60</geoidheight><course>151.42642</course><type>1</type></trkpt>
      <trkpt lat="39.21249531913416" lon="-6.31701604045524"><ele>1377</ele><speed>11.12</speed><time>2016-06-01T15:13:11Z</time><pdop>12.0</pdop><geoidheight>50.60</geoidheight><course>150.89268</course><type>1</type></trkpt>
      <trkpt lat="39.212312261999195" lon="-6.316902347362288"><ele>1376</ele><speed>11.80</speed><time>2016-06-01T15:13:13Z</time><pdop>8.0</pdop><geoidheight>50.60</geoidheight><course>153.12605</course><type>1</type></trkpt>
      <trkpt lat="39.21213553865488" lon="-6.316808617195225"><ele>1374</ele><speed>10.85</speed><time>2016-06-01T15:13:15Z</time><pdop>6.0</pdop><geoidheight>50.60</geoidheight><course>155.08249</course><type>1</type></trkpt>
      <trkpt lat="39.21195555824603" lon="-6.316717579340352"><ele>1374</ele><speed>11.19</speed><time>2016-06-01T15:13:17Z</time><pdop>6.0</pdop><geoidheight>50.60</geoidheight><course>156.48367</course><type>1</type></trkpt>
      <trkpt lat="39.21185340045238" lon="-6.316667869767835"><ele>1374</ele><speed>11.82</speed><time>2016-06-01T15:13:18Z</time><pdop>6.0</pdop><geoidheight>50.60</geoidheight><course>157.17276</course><type>1</type></trkpt>
      <trkpt lat="39.211747800677095" lon="-6.316625670765036"><ele>1373</ele><speed>11.81</speed><time>2016-06-01T15:13:19Z</time><pdop>6.0</pdop><geoidheight>50.60</geoidheight><course>159.66357</course><type>1</type></trkpt>
      <trkpt lat="39.211636946109486" lon="-6.316594510552635"><ele>1372</ele><speed>12.38</speed><time>2016-06-01T15:13:20Z</time><pdop>6.0</pdop><geoidheight>50.60</geoidheight><course>163.69023</course><type>1</type></trkpt>
      <trkpt lat="39.211396582533126" lon="-6.31658791130716"><ele>1370</ele><speed>12.64</speed><time>2016-06-01T15:13:22Z</time><pdop>8.0</pdop><geoidheight>50.60</geoidheight><course>178.03561</course><type>1</type></trkpt>
      <trkpt lat="39.21126878386556" lon="-6.316590967151265"><ele>1368</ele><speed>13.56</speed><time>2016-06-01T15:13:24Z</time><pdop>6.0</pdop><geoidheight>50.60</geoidheight><course>179.7882</course><type>1</type></trkpt>
      <trkpt lat="39.21113924491428" lon="-6.3166027344998215"><ele>1367</ele><speed>13.90</speed><time>2016-06-01T15:13:25Z</time><pdop>6.0</pdop><geoidheight>50.60</geoidheight><course>182.41101</course><type>1</type></trkpt>
      <trkpt lat="39.21101305763898" lon="-6.316625791956531"><ele>1366</ele><speed>13.87</speed><time>2016-06-01T15:13:25Z</time><pdop>6.0</pdop><geoidheight>50.60</geoidheight><course>185.5147</course><type>1</type></trkpt>
      <trkpt lat="39.2108866827746" lon="-6.316660340664503"><ele>1364</ele><speed>14.26</speed><time>2016-06-01T15:13:26Z</time><pdop>8.0</pdop><geoidheight>50.60</geoidheight><course>188.66731</course><type>1</type></trkpt>
      <trkpt lat="39.21062157651899" lon="-6.316752192264599"><ele>1361</ele><speed>15.41</speed><time>2016-06-01T15:13:28Z</time><pdop>8.0</pdop><geoidheight>50.60</geoidheight><course>193.64232</course><type>1</type></trkpt>
      <trkpt lat="39.210480018190005" lon="-6.316806966008048"><ele>1359</ele><speed>15.48</speed><time>2016-06-01T15:13:29Z</time><pdop>8.0</pdop><geoidheight>50.60</geoidheight><course>194.42542</course><type>1</type></trkpt>
      <trkpt lat="39.2102169179601" lon="-6.316914547331338"><ele>1354</ele><speed>14.09</speed><time>2016-06-01T15:13:31Z</time><pdop>8.0</pdop><geoidheight>50.60</geoidheight><course>195.574</course><type>1</type></trkpt>
      <trkpt lat="39.20997454054433" lon="-6.317018429697038"><ele>1350</ele><speed>13.61</speed><time>2016-06-01T15:13:33Z</time><pdop>8.0</pdop><geoidheight>50.60</geoidheight><course>196.91846</course><type>1</type></trkpt>
      <trkpt lat="39.20975957350922" lon="-6.317111178883755"><ele>1348</ele><speed>13.35</speed><time>2016-06-01T15:13:35Z</time><pdop>8.0</pdop><geoidheight>50.60</geoidheight><course>197.99614</course><type>1</type></trkpt>
      <trkpt lat="39.20954514840669" lon="-6.317202103424199"><ele>1345</ele><speed>13.57</speed><time>2016-06-01T15:13:37Z</time><pdop>8.0</pdop><geoidheight>50.60</geoidheight><course>196.7532</course><type>1</type></trkpt>
      <trkpt lat="39.20930868997508" lon="-6.317285032360578"><ele>1343</ele><speed>13.70</speed><time>2016-06-01T15:13:39Z</time><pdop>6.0</pdop><geoidheight>50.60</geoidheight><course>196.03459</course><type>1</type></trkpt>
      <trkpt lat="39.20919421677642" lon="-6.317322713505444"><ele>1342</ele><speed>13.43</speed><time>2016-06-01T15:13:40Z</time><pdop>6.0</pdop><geoidheight>50.60</geoidheight><course>195.52861</course><type>1</type></trkpt>
      <trkpt lat="39.209072004328625" lon="-6.3173614179315685"><ele>1341</ele><speed>13.70</speed><time>2016-06-01T15:13:41Z</time><pdop>6.0</pdop><geoidheight>50.60</geoidheight><course>193.8289</course><type>1</type></trkpt>
      <trkpt lat="39.20894792450167" lon="-6.31739292071695"><ele>1340</ele><speed>13.86</speed><time>2016-06-01T15:13:42Z</time><pdop>6.0</pdop><geoidheight>50.60</geoidheight><course>190.9326</course><type>1</type></trkpt>
      <trkpt lat="39.20882342145433" lon="-6.317411388157736"><ele>1339</ele><speed>13.89</speed><time>2016-06-01T15:13:44Z</time><pdop>6.0</pdop><geoidheight>50.60</geoidheight><course>188.03404</course><type>1</type></trkpt>
      <trkpt lat="39.20870215342557" lon="-6.317421264405482"><ele>1338</ele><speed>13.62</speed><time>2016-06-01T15:13:45Z</time><pdop>6.0</pdop><geoidheight>50.60</geoidheight><course>186.0411</course><type>1</type></trkpt>
      <trkpt lat="39.20858570149735" lon="-6.317429205745822"><ele>1338</ele><speed>13.41</speed><time>2016-06-01T15:13:45Z</time><pdop>6.0</pdop><geoidheight>50.60</geoidheight><course>185.32684</course><type>1</type></trkpt>
      <trkpt lat="39.20846689963027" lon="-6.3174393407141025"><ele>1337</ele><speed>13.16</speed><time>2016-06-01T15:13:46Z</time><pdop>6.0</pdop><geoidheight>50.60</geoidheight><course>185.84232</course><type>1</type></trkpt>
      <trkpt lat="39.2083513820172" lon="-6.317450841901984"><ele>1337</ele><speed>12.01</speed><time>2016-06-01T15:13:47Z</time><pdop>6.0</pdop><geoidheight>50.60</geoidheight><course>186.56573</course><type>1</type></trkpt>
      <trkpt lat="39.20816233957454" lon="-6.317486880002364"><ele>1336</ele><speed>10.42</speed><time>2016-06-01T15:13:49Z</time><pdop>6.0</pdop><geoidheight>50.60</geoidheight><course>189.42924</course><type>1</type></trkpt>
      <trkpt lat="39.20797369986265" lon="-6.317551120205482"><ele>1335</ele><speed>12.26</speed><time>2016-06-01T15:13:51Z</time><pdop>12.0</pdop><geoidheight>50.60</geoidheight><course>195.2912</course><type>1</type></trkpt>
      <trkpt lat="39.207812620218746" lon="-6.317728753968347"><ele>1332</ele><speed>12.55</speed><time>2016-06-01T15:13:53Z</time><pdop>8.0</pdop><geoidheight>50.60</geoidheight><course>228.22507</course><type>1</type></trkpt>
      <trkpt lat="39.20771626028509" lon="-6.3179530880847175"><ele>1330</ele><speed>11.74</speed><time>2016-06-01T15:13:55Z</time><pdop>6.0</pdop><geoidheight>50.60</geoidheight><course>252.81415</course><type>1</type></trkpt>
      <trkpt lat="39.20768397998373" lon="-6.3182093609272405"><ele>1327</ele><speed>10.98</speed><time>2016-06-01T15:13:57Z</time><pdop>8.0</pdop><geoidheight>50.60</geoidheight><course>271.3126</course><type>1</type></trkpt>
      <trkpt lat="39.207716905961625" lon="-6.318434697250331"><ele>1324</ele><speed>9.51</speed><time>2016-06-01T15:14:00Z</time><pdop>8.0</pdop><geoidheight>50.60</geoidheight><course>293.93103</course><type>1</type></trkpt>
      <trkpt lat="39.20785609680473" lon="-6.318569943606114"><ele>1318</ele><speed>6.20</speed><time>2016-06-01T15:14:02Z</time><pdop>8.0</pdop><geoidheight>50.60</geoidheight><course>345.63986</course><type>1</type></trkpt>
      <trkpt lat="39.20799991401457" lon="-6.318576797385041"><ele>1313</ele><speed>5.41</speed><time>2016-06-01T15:14:06Z</time><pdop>6.0</pdop><geoidheight>50.60</geoidheight><course>10.565616</course><type>1</type></trkpt>
      <trkpt lat="39.208151374266" lon="-6.318530247064879"><ele>1312</ele><speed>5.57</speed><time>2016-06-01T15:14:09Z</time><pdop>6.0</pdop><geoidheight>50.60</geoidheight><course>13.074909</course><type>1</type></trkpt>
      <trkpt lat="39.20829022493887" lon="-6.318470797097343"><ele>1308</ele><speed>6.00</speed><time>2016-06-01T15:14:14Z</time><pdop>8.0</pdop><geoidheight>50.60</geoidheight><course>10.9744835</course><type>1</type></trkpt>
      <trkpt lat="39.2084721352181" lon="-6.318499187003957"><ele>1297</ele><speed>5.27</speed><time>2016-06-01T15:14:17Z</time><pdop>6.0</pdop><geoidheight>50.60</geoidheight><course>353.09537</course><type>1</type></trkpt>
      <trkpt lat="39.20858146950325" lon="-6.318521377850775"><ele>1292</ele><speed>6.31</speed><time>2016-06-01T15:14:20Z</time><pdop>6.0</pdop><geoidheight>50.60</geoidheight><course>350.47025</course><type>1</type></trkpt>
      <trkpt lat="39.20869945682118" lon="-6.318549664987194"><ele>1288</ele><speed>6.28</speed><time>2016-06-01T15:14:21Z</time><pdop>6.0</pdop><geoidheight>50.60</geoidheight><course>349.20837</course><type>1</type></trkpt>
      <trkpt lat="39.20880839308244" lon="-6.318681070900412"><ele>1282</ele><speed>6.35</speed><time>2016-06-01T15:14:25Z</time><pdop>6.0</pdop><geoidheight>50.60</geoidheight><course>305.8277</course><type>1</type></trkpt>
      <trkpt lat="39.208887718820314" lon="-6.3187953603393545"><ele>1278</ele><speed>6.92</speed><time>2016-06-01T15:14:26Z</time><pdop>6.0</pdop><geoidheight>50.60</geoidheight><course>329.34036</course><type>1</type></trkpt>
      <trkpt lat="39.20902663915789" lon="-6.3188230582696745"><ele>1270</ele><speed>4.90</speed><time>2016-06-01T15:14:29Z</time><pdop>6.0</pdop><geoidheight>50.60</geoidheight><course>23.986736</course><type>1</type></trkpt>
      <trkpt lat="39.20910415197063" lon="-6.318680874528893"><ele>1265</ele><speed>10.19</speed><time>2016-06-01T15:14:31Z</time><pdop>8.0</pdop><geoidheight>50.60</geoidheight><course>63.76847</course><type>1</type></trkpt>
      <trkpt lat="39.20909152708896" lon="-6.318418001479421"><ele>1260</ele><speed>11.73</speed><time>2016-06-01T15:14:33Z</time><pdop>8.0</pdop><geoidheight>50.60</geoidheight><course>100.32111</course><type>1</type></trkpt>
      <trkpt lat="39.20902625680209" lon="-6.318200555691859"><ele>1255</ele><speed>10.20</speed><time>2016-06-01T15:14:36Z</time><pdop>8.0</pdop><geoidheight>50.60</geoidheight><course>122.84199</course><type>1</type></trkpt>
      <trkpt lat="39.208931973305376" lon="-6.318017619118009"><ele>1252</ele><speed>10.45</speed><time>2016-06-01T15:14:37Z</time><pdop>8.0</pdop><geoidheight>50.60</geoidheight><course>126.98493</course><type>1</type></trkpt>
      <trkpt lat="39.20879892374726" lon="-6.31781677975358"><ele>1248</ele><speed>11.60</speed><time>2016-06-01T15:14:39Z</time><pdop>8.0</pdop><geoidheight>50.60</geoidheight><course>129.64983</course><type>1</type></trkpt>
      <trkpt lat="39.20871665356998" lon="-6.317649461992777"><ele>1243</ele><speed>8.49</speed><time>2016-06-01T15:14:41Z</time><pdop>8.0</pdop><geoidheight>50.60</geoidheight><course>109.2825</course><type>1</type></trkpt>
      <trkpt lat="39.20869735080731" lon="-6.317444551432504"><ele>1233</ele><speed>7.34</speed><time>2016-06-01T15:14:44Z</time><pdop>8.0</pdop><geoidheight>50.60</geoidheight><course>84.14542</course><type>1</type></trkpt>
      <trkpt lat="39.20875288135169" lon="-6.3172194822113825"><ele>1222</ele><speed>7.28</speed><time>2016-06-01T15:14:47Z</time><pdop>6.0</pdop><geoidheight>50.60</geoidheight><course>64.155945</course><type>1</type></trkpt>
      <trkpt lat="39.20885416131134" lon="-6.317086286049998"><ele>1211</ele><speed>6.25</speed><time>2016-06-01T15:14:50Z</time><pdop>8.0</pdop><geoidheight>50.60</geoidheight><course>40.475964</course><type>1</type></trkpt>
      <trkpt lat="39.2089752710653" lon="-6.316926556596771"><ele>1200</ele><speed>8.79</speed><time>2016-06-01T15:14:53Z</time><pdop>6.0</pdop><geoidheight>50.60</geoidheight><course>41.007</course><type>1</type></trkpt>
      <trkpt lat="39.20907793516818" lon="-6.31681006122184"><ele>1193</ele><speed>7.38</speed><time>2016-06-01T15:14:55Z</time><pdop>8.0</pdop><geoidheight>50.60</geoidheight><course>38.746475</course><type>1</type></trkpt>
      <trkpt lat="39.20922819844727" lon="-6.316748560385447"><ele>1185</ele><speed>6.86</speed><time>2016-06-01T15:14:58Z</time><pdop>8.0</pdop><geoidheight>50.60</geoidheight><course>7.641462</course><type>1</type></trkpt>
      <trkpt lat="39.209360754385706" lon="-6.316712259135734"><ele>1181</ele><speed>7.74</speed><time>2016-06-01T15:15:01Z</time><pdop>6.0</pdop><geoidheight>50.60</geoidheight><course>8.321148</course><type>1</type></trkpt>
      <trkpt lat="39.209512309137466" lon="-6.31665872716984"><ele>1174</ele><speed>5.72</speed><time>2016-06-01T15:15:03Z</time><pdop>8.0</pdop><geoidheight>50.60</geoidheight><course>16.658518</course><type>1</type></trkpt>
      <trkpt lat="39.209652800329735" lon="-6.316569595713508"><ele>1171</ele><speed>8.34</speed><time>2016-06-01T15:15:06Z</time><pdop>8.0</pdop><geoidheight>50.60</geoidheight><course>23.607193</course><type>1</type></trkpt>
      <trkpt lat="39.20978076295367" lon="-6.316475782819003"><ele>1167</ele><speed>8.25</speed><time>2016-06-01T15:15:08Z</time><pdop>8.0</pdop><geoidheight>50.60</geoidheight><course>27.96374</course><type>1</type></trkpt>
      <trkpt lat="39.209978196306864" lon="-6.316385534722564"><ele>1161</ele><speed>7.26</speed><time>2016-06-01T15:15:11Z</time><pdop>8.0</pdop><geoidheight>50.60</geoidheight><course>14.260323</course><type>1</type></trkpt>
      <trkpt lat="39.21011515679573" lon="-6.316316532179999"><ele>1158</ele><speed>7.98</speed><time>2016-06-01T15:15:13Z</time><pdop>8.0</pdop><geoidheight>50.60</geoidheight><course>18.873976</course><type>1</type></trkpt>
      <trkpt lat="39.210236173614504" lon="-6.3162544941174685"><ele>1156</ele><speed>6.57</speed><time>2016-06-01T15:15:15Z</time><pdop>6.0</pdop><geoidheight>50.60</geoidheight><course>16.972252</course><type>1</type></trkpt>
      <trkpt lat="39.21040584310561" lon="-6.316173239507952"><ele>1154</ele><speed>6.63</speed><time>2016-06-01T15:15:18Z</time><pdop>8.0</pdop><geoidheight>50.60</geoidheight><course>19.122082</course><type>1</type></trkpt>
      <trkpt lat="39.21054695803224" lon="-6.31612053949814"><ele>1152</ele><speed>7.58</speed><time>2016-06-01T15:15:20Z</time><pdop>8.0</pdop><geoidheight>50.60</geoidheight><course>13.217244</course><type>1</type></trkpt>
      <trkpt lat="39.21072417512017" lon="-6.316061977265048"><ele>1149</ele><speed>7.77</speed><time>2016-06-01T15:15:23Z</time><pdop>12.0</pdop><geoidheight>50.60</geoidheight><course>15.063634</course><type>1</type></trkpt>
      <trkpt lat="39.210947289647784" lon="-6.316025822925122"><ele>1139</ele><speed>6.24</speed><time>2016-06-01T15:15:27Z</time><pdop>6.0</pdop><geoidheight>50.60</geoidheight><course>353.01947</course><type>1</type></trkpt>
      <trkpt lat="39.211113953467866" lon="-6.31603726899886"><ele>1132</ele><speed>8.75</speed><time>2016-06-01T15:15:30Z</time><pdop>8.0</pdop><geoidheight>50.60</geoidheight><course>359.05</course><type>1</type></trkpt>
      <trkpt lat="39.211272357653336" lon="-6.316012219558763"><ele>1126</ele><speed>9.79</speed><time>2016-06-01T15:15:32Z</time><pdop>8.0</pdop><geoidheight>50.60</geoidheight><course>3.8686764</course><type>1</type></trkpt>
      <trkpt lat="39.2114649679379" lon="-6.315970391365966"><ele>1117</ele><speed>6.66</speed><time>2016-06-01T15:15:35Z</time><pdop>8.0</pdop><geoidheight>50.60</geoidheight><course>5.3708444</course><type>1</type></trkpt>
      <trkpt lat="39.21160721710292" lon="-6.315942581620454"><ele>1110</ele><speed>9.60</speed><time>2016-06-01T15:15:37Z</time><pdop>6.0</pdop><geoidheight>50.60</geoidheight><course>5.6886554</course><type>1</type></trkpt>
      <trkpt lat="39.21176077119007" lon="-6.315897417876314"><ele>1104</ele><speed>8.38</speed><time>2016-06-01T15:15:39Z</time><pdop>6.0</pdop><geoidheight>50.60</geoidheight><course>9.397517</course><type>1</type></trkpt>
      <trkpt lat="39.211874380551734" lon="-6.315869106690798"><ele>1099</ele><speed>6.13</speed><time>2016-06-01T15:15:41Z</time><pdop>6.0</pdop><geoidheight>50.60</geoidheight><course>6.519606</course><type>1</type></trkpt>
      <trkpt lat="39.212000978266296" lon="-6.3158563754495844"><ele>1093</ele><speed>8.75</speed><time>2016-06-01T15:15:43Z</time><pdop>6.0</pdop><geoidheight>50.60</geoidheight><course>4.0151896</course><type>1</type></trkpt>
      <trkpt lat="39.212166636334516" lon="-6.3158288225698636"><ele>1087</ele><speed>10.86</speed><time>2016-06-01T15:15:45Z</time><pdop>6.0</pdop><geoidheight>50.60</geoidheight><course>6.131483</course><type>1</type></trkpt>
      <trkpt lat="39.21234777812769" lon="-6.315806723034051"><ele>1082</ele><speed>8.90</speed><time>2016-06-01T15:15:47Z</time><pdop>8.0</pdop><geoidheight>50.60</geoidheight><course>4.569826</course><type>1</type></trkpt>
      <trkpt lat="39.21247912124431" lon="-6.3157897461382975"><ele>1079</ele><speed>6.92</speed><time>2016-06-01T15:15:49Z</time><pdop>6.0</pdop><geoidheight>50.60</geoidheight><course>6.4010153</course><type>1</type></trkpt>
      <trkpt lat="39.21260261857973" lon="-6.315750277368048"><ele>1076</ele><speed>9.59</speed><time>2016-06-01T15:15:51Z</time><pdop>6.0</pdop><geoidheight>50.60</geoidheight><course>12.504857</course><type>1</type></trkpt>
      <trkpt lat="39.21276823036579" lon="-6.315677440726487"><ele>1071</ele><speed>11.68</speed><time>2016-06-01T15:15:53Z</time><pdop>6.0</pdop><geoidheight>50.60</geoidheight><course>17.179377</course><type>1</type></trkpt>
      <trkpt lat="39.21295032097643" lon="-6.315592329271926"><ele>1068</ele><speed>10.51</speed><time>2016-06-01T15:15:55Z</time><pdop>6.0</pdop><geoidheight>50.60</geoidheight><course>18.656557</course><type>1</type></trkpt>
      <trkpt lat="39.21312008529641" lon="-6.315496905907052"><ele>1065</ele><speed>8.93</speed><time>2016-06-01T15:15:58Z</time><pdop>6.0</pdop><geoidheight>50.60</geoidheight><course>20.81346</course><type>1</type></trkpt>
      <trkpt lat="39.213282565694264" lon="-6.315421512635867"><ele>1064</ele><speed>9.87</speed><time>2016-06-01T15:16:00Z</time><pdop>6.0</pdop><geoidheight>50.60</geoidheight><course>15.913404</course><type>1</type></trkpt>
      <trkpt lat="39.213460401429394" lon="-6.315377372982952"><ele>1064</ele><speed>9.58</speed><time>2016-06-01T15:16:01Z</time><pdop>8.0</pdop><geoidheight>50.60</geoidheight><course>9.231781</course><type>1</type></trkpt>
      <trkpt lat="39.21361228160846" lon="-6.31537195487024"><ele>1065</ele><speed>8.35</speed><time>2016-06-01T15:16:03Z</time><pdop>8.0</pdop><geoidheight>50.60</geoidheight><course>2.397554</course><type>1</type></trkpt>
      <trkpt lat="39.21379469557164" lon="-6.315391411961163"><ele>1068</ele><speed>8.81</speed><time>2016-06-01T15:16:05Z</time><pdop>6.0</pdop><geoidheight>50.60</geoidheight><course>0.15079744</course><type>1</type></trkpt>
      <trkpt lat="39.21395803761048" lon="-6.31542874378479"><ele>1073</ele><speed>8.42</speed><time>2016-06-01T15:16:08Z</time><pdop>6.0</pdop><geoidheight>50.60</geoidheight><course>354.36453</course><type>1</type></trkpt>
      <trkpt lat="39.214121315514596" lon="-6.315489914841759"><ele>1079</ele><speed>8.15</speed><time>2016-06-01T15:16:09Z</time><pdop>6.0</pdop><geoidheight>50.60</geoidheight><course>347.76538</course><type>1</type></trkpt>
      <trkpt lat="39.21424872757592" lon="-6.31554564210943"><ele>1084</ele><speed>6.72</speed><time>2016-06-01T15:16:11Z</time><pdop>6.0</pdop><geoidheight>50.60</geoidheight><course>343.3208</course><type>1</type></trkpt>
      <trkpt lat="39.21437160826145" lon="-6.315608621027308"><ele>1089</ele><speed>7.34</speed><time>2016-06-01T15:16:13Z</time><pdop>6.0</pdop><geoidheight>50.60</geoidheight><course>338.63596</course><type>1</type></trkpt>
      <trkpt lat="39.21446092345992" lon="-6.3157510549121225"><ele>1092</ele><speed>8.14</speed><time>2016-06-01T15:16:15Z</time><pdop>8.0</pdop><geoidheight>50.60</geoidheight><course>296.69452</course><type>1</type></trkpt>
      <trkpt lat="39.214482962284855" lon="-6.3159500376024535"><ele>1096</ele><speed>7.31</speed><time>2016-06-01T15:16:17Z</time><pdop>8.0</pdop><geoidheight>50.60</geoidheight><course>265.72656</course><type>1</type></trkpt>
      <trkpt lat="39.21437284293482" lon="-6.316161606005813"><ele>1102</ele><speed>8.75</speed><time>2016-06-01T15:16:20Z</time><pdop>8.0</pdop><geoidheight>50.60</geoidheight><course>198.87477</course><type>1</type></trkpt>
      <trkpt lat="39.21412660244608" lon="-6.316103272217794"><ele>1105</ele><speed>10.08</speed><time>2016-06-01T15:16:24Z</time><pdop>12.0</pdop><geoidheight>50.60</geoidheight><course>151.93608</course><type>1</type></trkpt>
      <trkpt lat="39.213925497630186" lon="-6.315964689664858"><ele>1112</ele><speed>6.93</speed><time>2016-06-01T15:16:26Z</time><pdop>6.0</pdop><geoidheight>50.60</geoidheight><course>144.41185</course><type>1</type></trkpt>
      <trkpt lat="39.21388658431503" lon="-6.3157880002610955"><ele>1116</ele><speed>9.29</speed><time>2016-06-01T15:16:29Z</time><pdop>8.0</pdop><geoidheight>50.60</geoidheight><course>97.479416</course><type>1</type></trkpt>
      <trkpt lat="39.21395123336308" lon="-6.315556078802592"><ele>1118</ele><speed>10.56</speed><time>2016-06-01T15:16:30Z</time><pdop>8.0</pdop><geoidheight>50.60</geoidheight><course>56.238533</course><type>1</type></trkpt>
      <trkpt lat="39.21406776064295" lon="-6.315418975750553"><ele>1119</ele><speed>8.60</speed><time>2016-06-01T15:16:33Z</time><pdop>8.0</pdop><geoidheight>50.60</geoidheight><course>20.97335</course><type>1</type></trkpt>
      <trkpt lat="39.21423973958442" lon="-6.315414393661657"><ele>1125</ele><speed>7.79</speed><time>2016-06-01T15:16:36Z</time><pdop>8.0</pdop><geoidheight>50.60</geoidheight><course>331.722</course><type>1</type></trkpt>
      <trkpt lat="39.214342006880806" lon="-6.315630186175039"><ele>1131</ele><speed>8.75</speed><time>2016-06-01T15:16:38Z</time><pdop>12.0</pdop><geoidheight>50.60</geoidheight><course>274.05142</course><type>1</type></trkpt>
      <trkpt lat="39.21420853924123" lon="-6.315842098689444"><ele>1134</ele><speed>7.62</speed><time>2016-06-01T15:16:42Z</time><pdop>8.0</pdop><geoidheight>50.60</geoidheight><course>186.40495</course><type>1</type></trkpt>
      <trkpt lat="39.21403832111716" lon="-6.3157634291863225"><ele>1142</ele><speed>8.83</speed><time>2016-06-01T15:16:45Z</time><pdop>12.0</pdop><geoidheight>50.60</geoidheight><course>129.29779</course><type>1</type></trkpt>
      <trkpt lat="39.21399730005562" lon="-6.315499869631362"><ele>1146</ele><speed>9.74</speed><time>2016-06-01T15:16:48Z</time><pdop>8.0</pdop><geoidheight>50.60</geoidheight><course>66.65774</course><type>1</type></trkpt>
      <trkpt lat="39.214121520267135" lon="-6.3153294834418015"><ele>1148</ele><speed>6.77</speed><time>2016-06-01T15:16:52Z</time><pdop>8.0</pdop><geoidheight>50.60</geoidheight><course>13.2838545</course><type>1</type></trkpt>
      <trkpt lat="39.21429258430117" lon="-6.315413508824982"><ele>1155</ele><speed>8.31</speed><time>2016-06-01T15:16:54Z</time><pdop>12.0</pdop><geoidheight>50.60</geoidheight><course>306.13968</course><type>1</type></trkpt>
      <trkpt lat="39.214302063852166" lon="-6.3157636756465685"><ele>1164</ele><speed>9.64</speed><time>2016-06-01T15:16:58Z</time><pdop>16.0</pdop><geoidheight>50.60</geoidheight><course>259.76532</course><type>1</type></trkpt>
      <trkpt lat="39.21402874550585" lon="-6.315733849825917"><ele>1169</ele><speed>8.55</speed><time>2016-06-01T15:17:01Z</time><pdop>8.0</pdop><geoidheight>50.60</geoidheight><course>146.35545</course><type>1</type></trkpt>
      <trkpt lat="39.21387921977549" lon="-6.315518202997402"><ele>1175</ele><speed>8.67</speed><time>2016-06-01T15:17:04Z</time><pdop>8.0</pdop><geoidheight>50.60</geoidheight><course>104.003876</course><type>1</type></trkpt>
      <trkpt lat="39.21389710053762" lon="-6.315312870817129"><ele>1180</ele><speed>9.01</speed><time>2016-06-01T15:17:06Z</time><pdop>8.0</pdop><geoidheight>50.60</geoidheight><course>68.82006</course><type>1</type></trkpt>
      <trkpt lat="39.2140537010339" lon="-6.315146502307218"><ele>1185</ele><speed>6.97</speed><time>2016-06-01T15:17:09Z</time><pdop>8.0</pdop><geoidheight>50.60</geoidheight><course>20.207706</course><type>1</type></trkpt>
      <trkpt lat="39.214190084405075" lon="-6.31522400953918"><ele>1193</ele><speed>6.94</speed><time>2016-06-01T15:17:12Z</time><pdop>8.0</pdop><geoidheight>50.60</geoidheight><course>301.5664</course><type>1</type></trkpt>
      <trkpt lat="39.21417672645487" lon="-6.315468073704929"><ele>1202</ele><speed>9.15</speed><time>2016-06-01T15:17:15Z</time><pdop>8.0</pdop><geoidheight>50.60</geoidheight><course>232.78247</course><type>1</type></trkpt>
      <trkpt lat="39.21402758246094" lon="-6.315739129618891"><ele>1209</ele><speed>8.64</speed><time>2016-06-01T15:17:18Z</time><pdop>12.0</pdop><geoidheight>50.60</geoidheight><course>225.03789</course><type>1</type></trkpt>
      <trkpt lat="39.213898126667914" lon="-6.316002820368188"><ele>1217</ele><speed>8.24</speed><time>2016-06-01T15:17:21Z</time><pdop>8.0</pdop><geoidheight>50.60</geoidheight><course>254.41887</course><type>1</type></trkpt>
      <trkpt lat="39.21396283665154" lon="-6.316169917843848"><ele>1220</ele><speed>9.19</speed><time>2016-06-01T15:17:23Z</time><pdop>8.0</pdop><geoidheight>50.60</geoidheight><course>309.99164</course><type>1</type></trkpt>
      <trkpt lat="39.21410439723847" lon="-6.316238983002652"><ele>1224</ele><speed>7.25</speed><time>2016-06-01T15:17:25Z</time><pdop>6.0</pdop><geoidheight>50.60</geoidheight><course>357.5802</course><type>1</type></trkpt>
      <trkpt lat="39.21423017042349" lon="-6.316091500646515"><ele>1230</ele><speed>8.38</speed><time>2016-06-01T15:17:29Z</time><pdop>8.0</pdop><geoidheight>50.60</geoidheight><course>60.190056</course><type>1</type></trkpt>
      <trkpt lat="39.214273334340824" lon="-6.31590068595533"><ele>1234</ele><speed>7.72</speed><time>2016-06-01T15:17:30Z</time><pdop>8.0</pdop><geoidheight>50.60</geoidheight><course>77.52924</course><type>1</type></trkpt>
      <trkpt lat="39.214193684968784" lon="-6.315726229785475"><ele>1237</ele><speed>9.82</speed><time>2016-06-01T15:17:32Z</time><pdop>8.0</pdop><geoidheight>50.60</geoidheight><course>133.43578</course><type>1</type></trkpt>
      <trkpt lat="39.21404384237321" lon="-6.315686881526158"><ele>1241</ele><speed>11.82</speed><time>2016-06-01T15:17:34Z</time><pdop>8.0</pdop><geoidheight>50.60</geoidheight><course>183.87259</course><type>1</type></trkpt>
      <trkpt lat="39.21387122857063" lon="-6.315916737414243"><ele>1246</ele><speed>10.98</speed><time>2016-06-01T15:17:37Z</time><pdop>12.0</pdop><geoidheight>50.60</geoidheight><course>261.73502</course><type>1</type></trkpt>
      <trkpt lat="39.21398234606867" lon="-6.316190489782456"><ele>1252</ele><speed>7.90</speed><time>2016-06-01T15:17:40Z</time><pdop>8.0</pdop><geoidheight>50.60</geoidheight><course>316.99942</course><type>1</type></trkpt>
      <trkpt lat="39.21415426282815" lon="-6.316295263448819"><ele>1260</ele><speed>7.88</speed><time>2016-06-01T15:17:43Z</time><pdop>8.0</pdop><geoidheight>50.60</geoidheight><course>13.257415</course><type>1</type></trkpt>
      <trkpt lat="39.21428366999395" lon="-6.316094463543865"><ele>1263</ele><speed>8.21</speed><time>2016-06-01T15:17:46Z</time><pdop>8.0</pdop><geoidheight>50.60</geoidheight><course>78.38287</course><type>1</type></trkpt>
      <trkpt lat="39.21415843094908" lon="-6.315982026532965"><ele>1264</ele><speed>11.16</speed><time>2016-06-01T15:17:49Z</time><pdop>8.0</pdop><geoidheight>50.60</geoidheight><course>165.21976</course><type>1</type></trkpt>
      <trkpt lat="39.21397766436945" lon="-6.316073387722653"><ele>1265</ele><speed>12.84</speed><time>2016-06-01T15:17:50Z</time><pdop>8.0</pdop><geoidheight>50.60</geoidheight><course>227.33788</course><type>1</type></trkpt>
      <trkpt lat="39.21390541580712" lon="-6.316303456557581"><ele>1267</ele><speed>8.69</speed><time>2016-06-01T15:17:52Z</time><pdop>8.0</pdop><geoidheight>50.60</geoidheight><course>274.11343</course><type>1</type></trkpt>
      <trkpt lat="39.21393250185238" lon="-6.316578219845739"><ele>1273</ele><speed>8.31</speed><time>2016-06-01T15:17:55Z</time><pdop>6.0</pdop><geoidheight>50.60</geoidheight><course>280.35593</course><type>1</type></trkpt>
      <trkpt lat="39.21401211749207" lon="-6.316745011900413"><ele>1277</ele><speed>7.93</speed><time>2016-06-01T15:17:57Z</time><pdop>6.0</pdop><geoidheight>50.60</geoidheight><course>298.529</course><type>1</type></trkpt>
      <trkpt lat="39.21408695339889" lon="-6.316900045164058"><ele>1282</ele><speed>7.58</speed><time>2016-06-01T15:18:00Z</time><pdop>6.0</pdop><geoidheight>50.60</geoidheight><course>297.25378</course><type>1</type></trkpt>
      <trkpt lat="39.214166299050156" lon="-6.317050881244151"><ele>1286</ele><speed>6.24</speed><time>2016-06-01T15:18:01Z</time><pdop>6.0</pdop><geoidheight>50.60</geoidheight><course>300.51212</course><type>1</type></trkpt>
      <trkpt lat="39.214245353284525" lon="-6.317180455089526"><ele>1289</ele><speed>6.68</speed><time>2016-06-01T15:18:03Z</time><pdop>8.0</pdop><geoidheight>50.60</geoidheight><course>302.83575</course><type>1</type></trkpt>
      <trkpt lat="39.214318173359786" lon="-6.317324541913613"><ele>1293</ele><speed>7.77</speed><time>2016-06-01T15:18:05Z</time><pdop>6.0</pdop><geoidheight>50.60</geoidheight><course>298.92325</course><type>1</type></trkpt>
      <trkpt lat="39.214406671545035" lon="-6.317471348142674"><ele>1296</ele><speed>7.72</speed><time>2016-06-01T15:18:07Z</time><pdop>6.0</pdop><geoidheight>50.60</geoidheight><course>320.11322</course><type>1</type></trkpt>
      <trkpt lat="39.21452990880806" lon="-6.317507463197263"><ele>1299</ele><speed>7.37</speed><time>2016-06-01T15:18:09Z</time><pdop>8.0</pdop><geoidheight>50.60</geoidheight><course>9.175339</course><type>1</type></trkpt>
      <trkpt lat="39.214624871864096" lon="-6.317307075154822"><ele>1303</ele><speed>7.18</speed><time>2016-06-01T15:18:13Z</time><pdop>8.0</pdop><geoidheight>50.60</geoidheight><course>90.97917</course><type>1</type></trkpt>
      <trkpt lat="39.21456298284863" lon="-6.31706170892538"><ele>1305</ele><speed>9.93</speed><time>2016-06-01T15:18:16Z</time><pdop>8.0</pdop><geoidheight>50.60</geoidheight><course>115.94537</course><type>1</type></trkpt>
      <trkpt lat="39.21448550001282" lon="-6.316883748587353"><ele>1308</ele><speed>8.94</speed><time>2016-06-01T15:18:18Z</time><pdop>6.0</pdop><geoidheight>50.60</geoidheight><course>121.75921</course><type>1</type></trkpt>
      <trkpt lat="39.21440874283575" lon="-6.316713717832047"><ele>1312</ele><speed>8.07</speed><time>2016-06-01T15:18:20Z</time><pdop>6.0</pdop><geoidheight>50.60</geoidheight><course>123.33271</course><type>1</type></trkpt>
      <trkpt lat="39.21433339208027" lon="-6.316549887843822"><ele>1317</ele><speed>7.36</speed><time>2016-06-01T15:18:23Z</time><pdop>6.0</pdop><geoidheight>50.60</geoidheight><course>122.237976</course><type>1</type></trkpt>
      <trkpt lat="39.214265551046225" lon="-6.316382961364064"><ele>1321</ele><speed>8.17</speed><time>2016-06-01T15:18:24Z</time><pdop>6.0</pdop><geoidheight>50.60</geoidheight><course>120.73284</course><type>1</type></trkpt>
      <trkpt lat="39.214137349734145" lon="-6.316263077007342"><ele>1324</ele><speed>8.74</speed><time>2016-06-01T15:18:26Z</time><pdop>8.0</pdop><geoidheight>50.60</geoidheight><course>157.8902</course><type>1</type></trkpt>
      <trkpt lat="39.21398372153288" lon="-6.316286701758267"><ele>1326</ele><speed>10.24</speed><time>2016-06-01T15:18:28Z</time><pdop>8.0</pdop><geoidheight>50.60</geoidheight><course>200.16191</course><type>1</type></trkpt>
      <trkpt lat="39.21390823423727" lon="-6.31648996850116"><ele>1327</ele><speed>10.82</speed><time>2016-06-01T15:18:31Z</time><pdop>8.0</pdop><geoidheight>50.60</geoidheight><course>252.02884</course><type>1</type></trkpt>
      <trkpt lat="39.213988266233876" lon="-6.316753685239432"><ele>1328</ele><speed>7.26</speed><time>2016-06-01T15:18:33Z</time><pdop>8.0</pdop><geoidheight>50.60</geoidheight><course>304.8634</course><type>1</type></trkpt>
      <trkpt lat="39.21416612061314" lon="-6.31688435713703"><ele>1333</ele><speed>6.51</speed><time>2016-06-01T15:18:37Z</time><pdop>6.0</pdop><geoidheight>50.60</geoidheight><course>355.64642</course><type>1</type></trkpt>
      <trkpt lat="39.21429632965667" lon="-6.316824026536709"><ele>1335</ele><speed>7.41</speed><time>2016-06-01T15:18:38Z</time><pdop>6.0</pdop><geoidheight>50.60</geoidheight><course>35.553074</course><type>1</type></trkpt>
      <trkpt lat="39.21439831679622" lon="-6.316723571084931"><ele>1337</ele><speed>7.89</speed><time>2016-06-01T15:18:40Z</time><pdop>6.0</pdop><geoidheight>50.60</geoidheight><course>41.228584</course><type>1</type></trkpt>
      <trkpt lat="39.21447036679919" lon="-6.316597366949998"><ele>1339</ele><speed>6.93</speed><time>2016-06-01T15:18:42Z</time><pdop>6.0</pdop><geoidheight>50.60</geoidheight><course>64.50799</course><type>1</type></trkpt>
      <trkpt lat="39.21449219379719" lon="-6.316447508781781"><ele>1341</ele><speed>7.28</speed><time>2016-06-01T15:18:44Z</time><pdop>6.0</pdop><geoidheight>50.60</geoidheight><course>95.70651</course><type>1</type></trkpt>
      <trkpt lat="39.21441699358751" lon="-6.316315268972659"><ele>1343</ele><speed>8.86</speed><time>2016-06-01T15:18:46Z</time><pdop>6.0</pdop><geoidheight>50.60</geoidheight><course>138.9171</course><type>1</type></trkpt>
      <trkpt lat="39.21424634437139" lon="-6.316240074316304"><ele>1344</ele><speed>9.29</speed><time>2016-06-01T15:18:48Z</time><pdop>8.0</pdop><geoidheight>50.60</geoidheight><course>169.07095</course><type>1</type></trkpt>
      <trkpt lat="39.21405674545679" lon="-6.31632767193706"><ele>1347</ele><speed>10.33</speed><time>2016-06-01T15:18:50Z</time><pdop>8.0</pdop><geoidheight>50.60</geoidheight><course>219.42807</course><type>1</type></trkpt>
      <trkpt lat="39.21397876924063" lon="-6.316501550011148"><ele>1351</ele><speed>9.79</speed><time>2016-06-01T15:18:52Z</time><pdop>8.0</pdop><geoidheight>50.60</geoidheight><course>255.99362</course><type>1</type></trkpt>
      <trkpt lat="39.21406786742803" lon="-6.31671639725767"><ele>1358</ele><speed>9.28</speed><time>2016-06-01T15:18:55Z</time><pdop>6.0</pdop><geoidheight>50.60</geoidheight><course>320.34753</course><type>1</type></trkpt>
      <trkpt lat="39.214220195834166" lon="-6.316770907966012"><ele>1363</ele><speed>8.25</speed><time>2016-06-01T15:18:57Z</time><pdop>6.0</pdop><geoidheight>50.60</geoidheight><course>359.7027</course><type>1</type></trkpt>
      <trkpt lat="39.214344206916394" lon="-6.316769740858645"><ele>1367</ele><speed>5.88</speed><time>2016-06-01T15:18:59Z</time><pdop>6.0</pdop><geoidheight>50.60</geoidheight><course>20.533295</course><type>1</type></trkpt>
      <trkpt lat="39.214439425950694" lon="-6.316615344413497"><ele>1372</ele><speed>8.48</speed><time>2016-06-01T15:19:02Z</time><pdop>6.0</pdop><geoidheight>50.60</geoidheight><course>84.331345</course><type>1</type></trkpt>
      <trkpt lat="39.21437251256847" lon="-6.316471288042923"><ele>1375</ele><speed>10.00</speed><time>2016-06-01T15:19:04Z</time><pdop>8.0</pdop><geoidheight>50.60</geoidheight><course>142.3022</course><type>1</type></trkpt>
      <trkpt lat="39.21418697431389" lon="-6.316467928155028"><ele>1378</ele><speed>11.27</speed><time>2016-06-01T15:19:07Z</time><pdop>8.0</pdop><geoidheight>50.60</geoidheight><course>191.48524</course><type>1</type></trkpt>
      <trkpt lat="39.214036097303705" lon="-6.316571649555277"><ele>1381</ele><speed>9.53</speed><time>2016-06-01T15:19:08Z</time><pdop>8.0</pdop><geoidheight>50.60</geoidheight><course>232.73605</course><type>1</type></trkpt>
      <trkpt lat="39.21396092973173" lon="-6.316799868214989"><ele>1391</ele><speed>8.64</speed><time>2016-06-01T15:19:12Z</time><pdop>8.0</pdop><geoidheight>50.60</geoidheight><course>255.4743</course><type>1</type></trkpt>
      <trkpt lat="39.21402772033722" lon="-6.316981050413863"><ele>1395</ele><speed>9.71</speed><time>2016-06-01T15:19:13Z</time><pdop>8.0</pdop><geoidheight>50.60</geoidheight><course>305.0793</course><type>1</type></trkpt>
      <trkpt lat="39.2141688731618" lon="-6.317060928145121"><ele>1398</ele><speed>8.54</speed><time>2016-06-01T15:19:16Z</time><pdop>8.0</pdop><geoidheight>50.60</geoidheight><course>356.71097</course><type>1</type></trkpt>
      <trkpt lat="39.214313925517764" lon="-6.317043810874808"><ele>1400</ele><speed>5.23</speed><time>2016-06-01T15:19:18Z</time><pdop>8.0</pdop><geoidheight>50.60</geoidheight><course>41.725483</course><type>1</type></trkpt>
      <trkpt lat="39.214299608863726" lon="-6.316832945270793"><ele>1403</ele><speed>8.71</speed><time>2016-06-01T15:19:22Z</time><pdop>8.0</pdop><geoidheight>50.60</geoidheight><course>97.68289</course><type>1</type></trkpt>
      <trkpt lat="39.21417701232347" lon="-6.316728871098469"><ele>1404</ele><speed>9.11</speed><time>2016-06-01T15:19:24Z</time><pdop>8.0</pdop><geoidheight>50.60</geoidheight><course>163.69592</course><type>1</type></trkpt>
      <trkpt lat="39.21397993449305" lon="-6.316775554597956"><ele>1406</ele><speed>12.31</speed><time>2016-06-01T15:19:25Z</time><pdop>8.0</pdop><geoidheight>50.60</geoidheight><course>202.18706</course><type>1</type></trkpt>
      <trkpt lat="39.21381101983123" lon="-6.316928502321947"><ele>1408</ele><speed>9.62</speed><time>2016-06-01T15:19:27Z</time><pdop>8.0</pdop><geoidheight>50.60</geoidheight><course>220.52003</course><type>1</type></trkpt>
      <trkpt lat="39.21370956951512" lon="-6.317086873296009"><ele>1412</ele><speed>8.61</speed><time>2016-06-01T15:19:29Z</time><pdop>8.0</pdop><geoidheight>50.60</geoidheight><course>238.1611</course><type>1</type></trkpt>
      <trkpt lat="39.2136688327381" lon="-6.317301162919855"><ele>1416</ele><speed>11.09</speed><time>2016-06-01T15:19:32Z</time><pdop>8.0</pdop><geoidheight>50.60</geoidheight><course>268.71573</course><type>1</type></trkpt>
      <trkpt lat="39.213816362033114" lon="-6.317480788878482"><ele>1424</ele><speed>8.52</speed><time>2016-06-01T15:19:34Z</time><pdop>8.0</pdop><geoidheight>50.60</geoidheight><course>326.86545</course><type>1</type></trkpt>
      <trkpt lat="39.214008517287105" lon="-6.317498351991491"><ele>1430</ele><speed>6.02</speed><time>2016-06-01T15:19:37Z</time><pdop>8.0</pdop><geoidheight>50.60</geoidheight><course>25.509232</course><type>1</type></trkpt>
      <trkpt lat="39.214099612318634" lon="-6.317346202590838"><ele>1437</ele><speed>7.25</speed><time>2016-06-01T15:19:40Z</time><pdop>8.0</pdop><geoidheight>50.60</geoidheight><course>79.68688</course><type>1</type></trkpt>
      <trkpt lat="39.21400117384287" lon="-6.317197863981788"><ele>1443</ele><speed>9.59</speed><time>2016-06-01T15:19:43Z</time><pdop>8.0</pdop><geoidheight>50.60</geoidheight><course>152.0303</course><type>1</type></trkpt>
      <trkpt lat="39.213817933623886" lon="-6.317184778808031"><ele>1448</ele><speed>11.20</speed><time>2016-06-01T15:19:45Z</time><pdop>8.0</pdop><geoidheight>50.60</geoidheight><course>185.35115</course><type>1</type></trkpt>
      <trkpt lat="39.21362820854439" lon="-6.3172829028725515"><ele>1455</ele><speed>12.48</speed><time>2016-06-01T15:19:47Z</time><pdop>12.0</pdop><geoidheight>50.60</geoidheight><course>218.94952</course><type>1</type></trkpt>
      <trkpt lat="39.21351781544971" lon="-6.31752467419045"><ele>1465</ele><speed>9.25</speed><time>2016-06-01T15:19:50Z</time><pdop>8.0</pdop><geoidheight>50.60</geoidheight><course>243.69969</course><type>1</type></trkpt>
      <trkpt lat="39.21348029622721" lon="-6.317715825747999"><ele>1473</ele><speed>9.34</speed><time>2016-06-01T15:19:52Z</time><pdop>6.0</pdop><geoidheight>50.60</geoidheight><course>260.00027</course><type>1</type></trkpt>
      <trkpt lat="39.213500087928054" lon="-6.317925204634422"><ele>1481</ele><speed>9.21</speed><time>2016-06-01T15:19:54Z</time><pdop>6.0</pdop><geoidheight>50.60</geoidheight><course>287.80682</course><type>1</type></trkpt>
      <trkpt lat="39.21361229304718" lon="-6.318069817259669"><ele>1486</ele><speed>8.43</speed><time>2016-06-01T15:19:56Z</time><pdop>6.0</pdop><geoidheight>50.60</geoidheight><course>336.99716</course><type>1</type></trkpt>
      <trkpt lat="39.213725538138284" lon="-6.318056048238865"><ele>1492</ele><speed>7.79</speed><time>2016-06-01T15:19:58Z</time><pdop>6.0</pdop><geoidheight>50.60</geoidheight><course>35.761765</course><type>1</type></trkpt>
      <trkpt lat="39.213756216017025" lon="-6.317862451058762"><ele>1498</ele><speed>7.15</speed><time>2016-06-01T15:20:01Z</time><pdop>8.0</pdop><geoidheight>50.60</geoidheight><course>115.28259</course><type>1</type></trkpt>
      <trkpt lat="39.21363218980365" lon="-6.317712328457187"><ele>1508</ele><speed>7.55</speed><time>2016-06-01T15:20:04Z</time><pdop>6.0</pdop><geoidheight>50.60</geoidheight><course>142.03188</course><type>1</type></trkpt>
      <trkpt lat="39.2134791442139" lon="-6.317635684491167"><ele>1515</ele><speed>9.51</speed><time>2016-06-01T15:20:07Z</time><pdop>6.0</pdop><geoidheight>50.60</geoidheight><course>168.61429</course><type>1</type></trkpt>
      <trkpt lat="39.21330677116631" lon="-6.3177197588943494"><ele>1522</ele><speed>12.50</speed><time>2016-06-01T15:20:08Z</time><pdop>6.0</pdop><geoidheight>50.60</geoidheight><course>213.62302</course><type>1</type></trkpt>
      <trkpt lat="39.21322960625269" lon="-6.3179212548682235"><ele>1528</ele><speed>10.82</speed><time>2016-06-01T15:20:10Z</time><pdop>6.0</pdop><geoidheight>50.60</geoidheight><course>254.49881</course><type>1</type></trkpt>
      <trkpt lat="39.213238527197426" lon="-6.3181157372203725"><ele>1532</ele><speed>8.25</speed><time>2016-06-01T15:20:12Z</time><pdop>8.0</pdop><geoidheight>50.60</geoidheight><course>280.3003</course><type>1</type></trkpt>
      <trkpt lat="39.21334919679068" lon="-6.318297231271781"><ele>1539</ele><speed>6.18</speed><time>2016-06-01T15:20:15Z</time><pdop>6.0</pdop><geoidheight>50.60</geoidheight><course>328.07086</course><type>1</type></trkpt>
      <trkpt lat="39.21345270475042" lon="-6.318344210423027"><ele>1543</ele><speed>7.57</speed><time>2016-06-01T15:20:17Z</time><pdop>6.0</pdop><geoidheight>50.60</geoidheight><course>355.10242</course><type>1</type></trkpt>
      <trkpt lat="39.21359990109964" lon="-6.318252219172143"><ele>1548</ele><speed>10.53</speed><time>2016-06-01T15:20:20Z</time><pdop>8.0</pdop><geoidheight>50.60</geoidheight><course>358.42188</course><type>1</type></trkpt>
      <trkpt lat="39.21336062592359" lon="-6.318130506644345"><ele>1552</ele><speed>9.48</speed><time>2016-06-01T15:20:22Z</time><pdop>8.0</pdop><geoidheight>50.60</geoidheight><course>177.36261</course><type>1</type></trkpt>
      <trkpt lat="39.213117153301646" lon="-6.318146116418145"><ele>1557</ele><speed>9.34</speed><time>2016-06-01T15:20:25Z</time><pdop>8.0</pdop><geoidheight>50.60</geoidheight><course>197.08415</course><type>1</type></trkpt>
      <trkpt lat="39.21295774729317" lon="-6.318270468603587"><ele>1561</ele><speed>11.06</speed><time>2016-06-01T15:20:26Z</time><pdop>6.0</pdop><geoidheight>50.60</geoidheight><course>230.97177</course><type>1</type></trkpt>
      <trkpt lat="39.212922761565125" lon="-6.3184558616200635"><ele>1567</ele><speed>10.35</speed><time>2016-06-01T15:20:28Z</time><pdop>8.0</pdop><geoidheight>50.60</geoidheight><course>271.95767</course><type>1</type></trkpt>
      <trkpt lat="39.21308720893146" lon="-6.318578595206397"><ele>1575</ele><speed>7.27</speed><time>2016-06-01T15:20:31Z</time><pdop>8.0</pdop><geoidheight>50.60</geoidheight><course>2.7287421</course><type>1</type></trkpt>
      <trkpt lat="39.21320633501786" lon="-6.3184578753322445"><ele>1585</ele><speed>6.85</speed><time>2016-06-01T15:20:35Z</time><pdop>6.0</pdop><geoidheight>50.60</geoidheight><course>78.726456</course><type>1</type></trkpt>
      <trkpt lat="39.21313782168249" lon="-6.3182684911319384"><ele>1592</ele><speed>7.31</speed><time>2016-06-01T15:20:39Z</time><pdop>8.0</pdop><geoidheight>50.60</geoidheight><course>137.94627</course><type>1</type></trkpt>
      <trkpt lat="39.21299819401776" lon="-6.318182288110994"><ele>1598</ele><speed>8.78</speed><time>2016-06-01T15:20:40Z</time><pdop>6.0</pdop><geoidheight>50.60</geoidheight><course>167.51886</course><type>1</type></trkpt>
      <trkpt lat="39.21281779901323" lon="-6.318188991272939"><ele>1603</ele><speed>11.03</speed><time>2016-06-01T15:20:43Z</time><pdop>8.0</pdop><geoidheight>50.60</geoidheight><course>182.51456</course><type>1</type></trkpt>
      <trkpt lat="39.2126402681716" lon="-6.318284026325948"><ele>1606</ele><speed>10.34</speed><time>2016-06-01T15:20:44Z</time><pdop>8.0</pdop><geoidheight>50.60</geoidheight><course>213.96497</course><type>1</type></trkpt>
      <trkpt lat="39.212546971209306" lon="-6.318463203322302"><ele>1609</ele><speed>10.19</speed><time>2016-06-01T15:20:46Z</time><pdop>8.0</pdop><geoidheight>50.60</geoidheight><course>248.57967</course><type>1</type></trkpt>
      <trkpt lat="39.21252324151524" lon="-6.318665209356061"><ele>1610</ele><speed>9.56</speed><time>2016-06-01T15:20:48Z</time><pdop>8.0</pdop><geoidheight>50.60</geoidheight><course>266.29318</course><type>1</type></trkpt>
      <trkpt lat="39.2126225722455" lon="-6.318864767579366"><ele>1617</ele><speed>5.64</speed><time>2016-06-01T15:20:51Z</time><pdop>8.0</pdop><geoidheight>50.60</geoidheight><course>329.45218</course><type>1</type></trkpt>
      <trkpt lat="39.212779446224374" lon="-6.318859168796675"><ele>1623</ele><speed>5.10</speed><time>2016-06-01T15:20:54Z</time><pdop>8.0</pdop><geoidheight>50.60</geoidheight><course>19.800797</course><type>1</type></trkpt>
      <trkpt lat="39.212845118574194" lon="-6.3186748287116545"><ele>1628</ele><speed>8.24</speed><time>2016-06-01T15:20:57Z</time><pdop>6.0</pdop><geoidheight>50.60</geoidheight><course>93.26561</course><type>1</type></trkpt>
      <trkpt lat="39.21284788115976" lon="-6.3184312781933984"><ele>1637</ele><speed>5.89</speed><time>2016-06-01T15:21:01Z</time><pdop>6.0</pdop><geoidheight>50.60</geoidheight><course>97.44223</course><type>1</type></trkpt>
      <trkpt lat="39.21278648285359" lon="-6.318309178788052"><ele>1643</ele><speed>7.57</speed><time>2016-06-01T15:21:02Z</time><pdop>6.0</pdop><geoidheight>50.60</geoidheight><course>130.60889</course><type>1</type></trkpt>
      <trkpt lat="39.21264118596502" lon="-6.318178250114015"><ele>1646</ele><speed>12.27</speed><time>2016-06-01T15:21:04Z</time><pdop>8.0</pdop><geoidheight>50.60</geoidheight><course>151.68893</course><type>1</type></trkpt>
      <trkpt lat="39.21241034545466" lon="-6.318178699546996"><ele>1648</ele><speed>13.86</speed><time>2016-06-01T15:21:06Z</time><pdop>12.0</pdop><geoidheight>50.60</geoidheight><course>195.2684</course><type>1</type></trkpt>
      <trkpt lat="39.21223107805556" lon="-6.318380595458726"><ele>1649</ele><speed>14.34</speed><time>2016-06-01T15:21:08Z</time><pdop>12.0</pdop><geoidheight>50.60</geoidheight><course>230.81401</course><type>1</type></trkpt>
      <trkpt lat="39.212097507880706" lon="-6.318572801073484"><ele>1650</ele><speed>9.42</speed><time>2016-06-01T15:21:11Z</time><pdop>8.0</pdop><geoidheight>50.60</geoidheight><course>235.9354</course><type>1</type></trkpt>
      <trkpt lat="39.21210215354717" lon="-6.31879686662804"><ele>1657</ele><speed>9.30</speed><time>2016-06-01T15:21:13Z</time><pdop>6.0</pdop><geoidheight>50.60</geoidheight><course>283.06766</course><type>1</type></trkpt>
      <trkpt lat="39.21217078915759" lon="-6.318986461388994"><ele>1660</ele><speed>7.76</speed><time>2016-06-01T15:21:15Z</time><pdop>6.0</pdop><geoidheight>50.60</geoidheight><course>299.52155</course><type>1</type></trkpt>
      <trkpt lat="39.21229486103377" lon="-6.319073672057018"><ele>1665</ele><speed>5.88</speed><time>2016-06-01T15:21:17Z</time><pdop>8.0</pdop><geoidheight>50.60</geoidheight><course>353.46118</course><type>1</type></trkpt>
      <trkpt lat="39.21242152338494" lon="-6.319027616144582"><ele>1672</ele><speed>5.48</speed><time>2016-06-01T15:21:21Z</time><pdop>6.0</pdop><geoidheight>50.60</geoidheight><course>63.506313</course><type>1</type></trkpt>
      <trkpt lat="39.2122824966329" lon="-6.318840649624518"><ele>1678</ele><speed>9.97</speed><time>2016-06-01T15:21:24Z</time><pdop>8.0</pdop><geoidheight>50.60</geoidheight><course>164.47066</course><type>1</type></trkpt>
      <trkpt lat="39.21206201809336" lon="-6.318865065013847"><ele>1679</ele><speed>11.72</speed><time>2016-06-01T15:21:27Z</time><pdop>16.0</pdop><geoidheight>50.60</geoidheight><course>188.92456</course><type>1</type></trkpt>
      <trkpt lat="39.21181473476015" lon="-6.319116223282581"><ele>1679</ele><speed>11.13</speed><time>2016-06-01T15:21:29Z</time><pdop>8.0</pdop><geoidheight>50.60</geoidheight><course>226.87665</course><type>1</type></trkpt>
      <trkpt lat="39.211717166141256" lon="-6.319334285851501"><ele>1679</ele><speed>10.88</speed><time>2016-06-01T15:21:32Z</time><pdop>8.0</pdop><geoidheight>50.60</geoidheight><course>243.14845</course><type>1</type></trkpt>
      <trkpt lat="39.21173116759591" lon="-6.319656172180603"><ele>1679</ele><speed>9.34</speed><time>2016-06-01T15:21:34Z</time><pdop>8.0</pdop><geoidheight>50.60</geoidheight><course>298.07428</course><type>1</type></trkpt>
      <trkpt lat="39.2118357974704" lon="-6.319784260519915"><ele>1685</ele><speed>6.87</speed><time>2016-06-01T15:21:36Z</time><pdop>8.0</pdop><geoidheight>50.60</geoidheight><course>316.92728</course><type>1</type></trkpt>
      <trkpt lat="39.21199533966965" lon="-6.319888991006907"><ele>1696</ele><speed>5.75</speed><time>2016-06-01T15:21:40Z</time><pdop>6.0</pdop><geoidheight>50.60</geoidheight><course>356.67056</course><type>1</type></trkpt>
      <trkpt lat="39.21211708119657" lon="-6.31980493073473"><ele>1704</ele><speed>5.74</speed><time>2016-06-01T15:21:42Z</time><pdop>6.0</pdop><geoidheight>50.60</geoidheight><course>66.63115</course><type>1</type></trkpt>
      <trkpt lat="39.21207772936319" lon="-6.3196245320385644"><ele>1709</ele><speed>6.76</speed><time>2016-06-01T15:21:45Z</time><pdop>8.0</pdop><geoidheight>50.60</geoidheight><course>130.36194</course><type>1</type></trkpt>
      <trkpt lat="39.21189419922343" lon="-6.319488720958284"><ele>1716</ele><speed>10.30</speed><time>2016-06-01T15:21:48Z</time><pdop>8.0</pdop><geoidheight>50.60</geoidheight><course>165.60146</course><type>1</type></trkpt>
      <trkpt lat="39.21168365601823" lon="-6.319545954910988"><ele>1718</ele><speed>13.29</speed><time>2016-06-01T15:21:51Z</time><pdop>8.0</pdop><geoidheight>50.60</geoidheight><course>200.95714</course><type>1</type></trkpt>
      <trkpt lat="39.21148996218966" lon="-6.319696867811475"><ele>1719</ele><speed>11.89</speed><time>2016-06-01T15:21:52Z</time><pdop>8.0</pdop><geoidheight>50.60</geoidheight><course>216.04816</course><type>1</type></trkpt>
      <trkpt lat="39.2113738432952" lon="-6.319867510438454"><ele>1722</ele><speed>10.02</speed><time>2016-06-01T15:21:54Z</time><pdop>8.0</pdop><geoidheight>50.60</geoidheight><course>245.85918</course><type>1</type></trkpt>
      <trkpt lat="39.211397810584046" lon="-6.320125488091258"><ele>1729</ele><speed>8.73</speed><time>2016-06-01T15:21:57Z</time><pdop>8.0</pdop><geoidheight>50.60</geoidheight><course>297.18604</course><type>1</type></trkpt>
      <trkpt lat="39.21159938613709" lon="-6.320205094267325"><ele>1733</ele><speed>6.32</speed><time>2016-06-01T15:22:01Z</time><pdop>8.0</pdop><geoidheight>50.60</geoidheight><course>30.385544</course><type>1</type></trkpt>
      <trkpt lat="39.211630663906206" lon="-6.319991426728533"><ele>1732</ele><speed>5.75</speed><time>2016-06-01T15:22:06Z</time><pdop>8.0</pdop><geoidheight>50.60</geoidheight><course>97.084335</course><type>1</type></trkpt>
      <trkpt lat="39.21157050831943" lon="-6.319776546134466"><ele>1732</ele><speed>7.99</speed><time>2016-06-01T15:22:08Z</time><pdop>8.0</pdop><geoidheight>50.60</geoidheight><course>124.22585</course><type>1</type></trkpt>
      <trkpt lat="39.21138839364568" lon="-6.3196920382052"><ele>1734</ele><speed>12.05</speed><time>2016-06-01T15:22:10Z</time><pdop>8.0</pdop><geoidheight>50.60</geoidheight><course>164.14308</course><type>1</type></trkpt>
      <trkpt lat="39.21118425701788" lon="-6.319636956619101"><ele>1738</ele><speed>11.88</speed><time>2016-06-01T15:22:12Z</time><pdop>8.0</pdop><geoidheight>50.60</geoidheight><course>169.50017</course><type>1</type></trkpt>
      <trkpt lat="39.21096725977279" lon="-6.319663243729007"><ele>1743</ele><speed>11.62</speed><time>2016-06-01T15:22:14Z</time><pdop>8.0</pdop><geoidheight>50.60</geoidheight><course>188.23665</course><type>1</type></trkpt>
      <trkpt lat="39.21080480414099" lon="-6.3198127989270665"><ele>1748</ele><speed>11.56</speed><time>2016-06-01T15:22:16Z</time><pdop>8.0</pdop><geoidheight>50.60</geoidheight><course>226.01984</course><type>1</type></trkpt>
      <trkpt lat="39.21073118133797" lon="-6.320053854551293"><ele>1751</ele><speed>10.71</speed><time>2016-06-01T15:22:18Z</time><pdop>12.0</pdop><geoidheight>50.60</geoidheight><course>257.59546</course><type>1</type></trkpt>
      <trkpt lat="39.210823883439325" lon="-6.320319235498379"><ele>1753</ele><speed>8.31</speed><time>2016-06-01T15:22:21Z</time><pdop>12.0</pdop><geoidheight>50.60</geoidheight><course>320.38312</course><type>1</type></trkpt>
      <trkpt lat="39.211041600854706" lon="-6.320406410270689"><ele>1763</ele><speed>5.02</speed><time>2016-06-01T15:22:25Z</time><pdop>6.0</pdop><geoidheight>50.60</geoidheight><course>5.2706003</course><type>1</type></trkpt>
      <trkpt lat="39.211149219086394" lon="-6.320270902690947"><ele>1773</ele><speed>7.15</speed><time>2016-06-01T15:22:28Z</time><pdop>6.0</pdop><geoidheight>50.60</geoidheight><course>79.38513</course><type>1</type></trkpt>
      <trkpt lat="39.21108905109721" lon="-6.320116552695345"><ele>1778</ele><speed>10.18</speed><time>2016-06-01T15:22:30Z</time><pdop>8.0</pdop><geoidheight>50.60</geoidheight><course>130.62721</course><type>1</type></trkpt>
      <trkpt lat="39.21096146229929" lon="-6.31994316413097"><ele>1784</ele><speed>11.38</speed><time>2016-06-01T15:22:32Z</time><pdop>8.0</pdop><geoidheight>50.60</geoidheight><course>138.3942</course><type>1</type></trkpt>
      <trkpt lat="39.21078909273994" lon="-6.319836849683678"><ele>1789</ele><speed>9.23</speed><time>2016-06-01T15:22:34Z</time><pdop>8.0</pdop><geoidheight>50.60</geoidheight><course>158.53778</course><type>1</type></trkpt>
      <trkpt lat="39.21060242524273" lon="-6.3198347671497"><ele>1793</ele><speed>10.89</speed><time>2016-06-01T15:22:36Z</time><pdop>8.0</pdop><geoidheight>50.60</geoidheight><course>184.50389</course><type>1</type></trkpt>
      <trkpt lat="39.21040991269795" lon="-6.319921725625114"><ele>1796</ele><speed>11.58</speed><time>2016-06-01T15:22:39Z</time><pdop>8.0</pdop><geoidheight>50.60</geoidheight><course>203.00679</course><type>1</type></trkpt>
      <trkpt lat="39.210299020915826" lon="-6.320066942055586"><ele>1799</ele><speed>9.73</speed><time>2016-06-01T15:22:40Z</time><pdop>6.0</pdop><geoidheight>50.60</geoidheight><course>239.62984</course><type>1</type></trkpt>
      <trkpt lat="39.210287960315284" lon="-6.320242404949327"><ele>1800</ele><speed>8.88</speed><time>2016-06-01T15:22:42Z</time><pdop>8.0</pdop><geoidheight>50.60</geoidheight><course>274.09515</course><type>1</type></trkpt>
      <trkpt lat="39.2103064362139" lon="-6.320430961948617"><ele>1802</ele><speed>8.12</speed><time>2016-06-01T15:22:44Z</time><pdop>8.0</pdop><geoidheight>50.60</geoidheight><course>281.00916</course><type>1</type></trkpt>
      <trkpt lat="39.210385072985545" lon="-6.320605327223063"><ele>1806</ele><speed>7.31</speed><time>2016-06-01T15:22:46Z</time><pdop>8.0</pdop><geoidheight>50.60</geoidheight><course>315.40567</course><type>1</type></trkpt>
      <trkpt lat="39.210547347616554" lon="-6.3206586985571"><ele>1810</ele><speed>5.61</speed><time>2016-06-01T15:22:49Z</time><pdop>6.0</pdop><geoidheight>50.60</geoidheight><course>16.098982</course><type>1</type></trkpt>
      <trkpt lat="39.21064282524821" lon="-6.320451078162255"><ele>1814</ele><speed>8.20</speed><time>2016-06-01T15:22:54Z</time><pdop>8.0</pdop><geoidheight>50.60</geoidheight><course>78.948746</course><type>1</type></trkpt>
      <trkpt lat="39.21064755601545" lon="-6.320278545511999"><ele>1817</ele><speed>7.69</speed><time>2016-06-01T15:22:55Z</time><pdop>6.0</pdop><geoidheight>50.60</geoidheight><course>96.044716</course><type>1</type></trkpt>
      <trkpt lat="39.21056629021028" lon="-6.320117378840096"><ele>1822</ele><speed>10.40</speed><time>2016-06-01T15:22:57Z</time><pdop>6.0</pdop><geoidheight>50.60</geoidheight><course>137.19832</course><type>1</type></trkpt>
      <trkpt lat="39.210384437640016" lon="-6.319991915039351"><ele>1825</ele><speed>12.12</speed><time>2016-06-01T15:22:59Z</time><pdop>8.0</pdop><geoidheight>50.60</geoidheight><course>155.54584</course><type>1</type></trkpt>
      <trkpt lat="39.21018894736868" lon="-6.319976032725451"><ele>1827</ele><speed>11.12</speed><time>2016-06-01T15:23:02Z</time><pdop>8.0</pdop><geoidheight>50.60</geoidheight><course>179.62091</course><type>1</type></trkpt>
      <trkpt lat="39.209996807062105" lon="-6.320054546755729"><ele>1828</ele><speed>11.14</speed><time>2016-06-01T15:23:03Z</time><pdop>8.0</pdop><geoidheight>50.60</geoidheight><course>208.45723</course><type>1</type></trkpt>
      <trkpt lat="39.20984759950643" lon="-6.320225966493451"><ele>1829</ele><speed>12.01</speed><time>2016-06-01T15:23:06Z</time><pdop>8.0</pdop><geoidheight>50.60</geoidheight><course>227.36761</course><type>1</type></trkpt>
      <trkpt lat="39.20976383107675" lon="-6.320414636689712"><ele>1833</ele><speed>9.93</speed><time>2016-06-01T15:23:07Z</time><pdop>6.0</pdop><geoidheight>50.60</geoidheight><course>245.9441</course><type>1</type></trkpt>
      <trkpt lat="39.20971970516902" lon="-6.320605335750878"><ele>1837</ele><speed>7.40</speed><time>2016-06-01T15:23:09Z</time><pdop>8.0</pdop><geoidheight>50.60</geoidheight><course>259.9971</course><type>1</type></trkpt>
      <trkpt lat="39.20982876053783" lon="-6.320786257172561"><ele>1841</ele><speed>7.03</speed><time>2016-06-01T15:23:13Z</time><pdop>8.0</pdop><geoidheight>50.60</geoidheight><course>352.06015</course><type>1</type></trkpt>
      <trkpt lat="39.20995088989035" lon="-6.320687727967306"><ele>1842</ele><speed>8.41</speed><time>2016-06-01T15:23:15Z</time><pdop>8.0</pdop><geoidheight>50.60</geoidheight><course>5.866421</course><type>1</type></trkpt>
      <trkpt lat="39.209909753078314" lon="-6.320476966651752"><ele>1843</ele><speed>10.27</speed><time>2016-06-01T15:23:16Z</time><pdop>8.0</pdop><geoidheight>50.60</geoidheight><course>124.03114</course><type>1</type></trkpt>
      <trkpt lat="39.20978293702524" lon="-6.320323502228272"><ele>1846</ele><speed>9.50</speed><time>2016-06-01T15:23:19Z</time><pdop>8.0</pdop><geoidheight>50.60</geoidheight><course>143.65733</course><type>1</type></trkpt>
      <trkpt lat="39.20961091063054" lon="-6.320218345774821"><ele>1849</ele><speed>11.39</speed><time>2016-06-01T15:23:20Z</time><pdop>6.0</pdop><geoidheight>50.60</geoidheight><course>166.65967</course><type>1</type></trkpt>
      <trkpt lat="39.209388327101536" lon="-6.320207456141156"><ele>1851</ele><speed>12.64</speed><time>2016-06-01T15:23:22Z</time><pdop>12.0</pdop><geoidheight>50.60</geoidheight><course>186.84688</course><type>1</type></trkpt>
      <trkpt lat="39.20917425427804" lon="-6.320286520522713"><ele>1852</ele><speed>11.65</speed><time>2016-06-01T15:23:25Z</time><pdop>8.0</pdop><geoidheight>50.60</geoidheight><course>209.26524</course><type>1</type></trkpt>
      <trkpt lat="39.20908497425517" lon="-6.320478256305451"><ele>1855</ele><speed>11.27</speed><time>2016-06-01T15:23:27Z</time><pdop>8.0</pdop><geoidheight>50.60</geoidheight><course>252.99338</course><type>1</type></trkpt>
      <trkpt lat="39.20908733751524" lon="-6.320667422877307"><ele>1858</ele><speed>7.69</speed><time>2016-06-01T15:23:28Z</time><pdop>8.0</pdop><geoidheight>50.60</geoidheight><course>285.74057</course><type>1</type></trkpt>
      <trkpt lat="39.20917958238184" lon="-6.3208212428813315"><ele>1859</ele><speed>4.31</speed><time>2016-06-01T15:23:31Z</time><pdop>8.0</pdop><geoidheight>50.60</geoidheight><course>342.65454</course><type>1</type></trkpt>
      <trkpt lat="39.20927276216171" lon="-6.320676698455289"><ele>1859</ele><speed>10.36</speed><time>2016-06-01T15:23:34Z</time><pdop>8.0</pdop><geoidheight>50.60</geoidheight><course>79.41469</course><type>1</type></trkpt>
      <trkpt lat="39.20918818343126" lon="-6.320462467533643"><ele>1858</ele><speed>11.47</speed><time>2016-06-01T15:23:36Z</time><pdop>12.0</pdop><geoidheight>50.60</geoidheight><course>129.51373</course><type>1</type></trkpt>
      <trkpt lat="39.209048138899846" lon="-6.320285641376973"><ele>1861</ele><speed>10.61</speed><time>2016-06-01T15:23:38Z</time><pdop>8.0</pdop><geoidheight>50.60</geoidheight><course>136.823</course><type>1</type></trkpt>
      <trkpt lat="39.208861011406285" lon="-6.320155839243674"><ele>1863</ele><speed>12.19</speed><time>2016-06-01T15:23:40Z</time><pdop>6.0</pdop><geoidheight>50.60</geoidheight><course>159.23514</course><type>1</type></trkpt>
      <trkpt lat="39.20872586132961" lon="-6.320161029114947"><ele>1864</ele><speed>14.76</speed><time>2016-06-01T15:23:41Z</time><pdop>8.0</pdop><geoidheight>50.60</geoidheight><course>182.97932</course><type>1</type></trkpt>
      <trkpt lat="39.20849691724007" lon="-6.320203120524776"><ele>1866</ele><speed>13.20</speed><time>2016-06-01T15:23:43Z</time><pdop>8.0</pdop><geoidheight>50.60</geoidheight><course>187.572</course><type>1</type></trkpt>
      <trkpt lat="39.20835795860997" lon="-6.32040740963376"><ele>1868</ele><speed>10.64</speed><time>2016-06-01T15:23:45Z</time><pdop>6.0</pdop><geoidheight>50.60</geoidheight><course>226.90112</course><type>1</type></trkpt>
      <trkpt lat="39.20826478904517" lon="-6.3206045392022485"><ele>1869</ele><speed>8.95</speed><time>2016-06-01T15:23:47Z</time><pdop>12.0</pdop><geoidheight>50.60</geoidheight><course>249.27806</course><type>1</type></trkpt>
      <trkpt lat="39.20831863737261" lon="-6.320889279320083"><ele>1873</ele><speed>7.81</speed><time>2016-06-01T15:23:50Z</time><pdop>6.0</pdop><geoidheight>50.60</geoidheight><course>313.40494</course><type>1</type></trkpt>
      <trkpt lat="39.20847317660307" lon="-6.32090473786049"><ele>1876</ele><speed>5.58</speed><time>2016-06-01T15:23:53Z</time><pdop>8.0</pdop><geoidheight>50.60</geoidheight><course>23.489101</course><type>1</type></trkpt>
      <trkpt lat="39.20858584948565" lon="-6.320787220104151"><ele>1878</ele><speed>6.70</speed><time>2016-06-01T15:23:56Z</time><pdop>8.0</pdop><geoidheight>50.60</geoidheight><course>56.31368</course><type>1</type></trkpt>
      <trkpt lat="39.20866672473674" lon="-6.320522134502706"><ele>1878</ele><speed>9.45</speed><time>2016-06-01T15:24:00Z</time><pdop>8.0</pdop><geoidheight>50.60</geoidheight><course>83.3073</course><type>1</type></trkpt>
      <trkpt lat="39.20860703998561" lon="-6.320315860046899"><ele>1878</ele><speed>11.13</speed><time>2016-06-01T15:24:01Z</time><pdop>8.0</pdop><geoidheight>50.60</geoidheight><course>121.12586</course><type>1</type></trkpt>
      <trkpt lat="39.20842116790989" lon="-6.320150249578838"><ele>1880</ele><speed>13.77</speed><time>2016-06-01T15:24:03Z</time><pdop>12.0</pdop><geoidheight>50.60</geoidheight><course>156.372</course><type>1</type></trkpt>
      <trkpt lat="39.208215900618804" lon="-6.320098146181983"><ele>1881</ele><speed>12.87</speed><time>2016-06-01T15:24:06Z</time><pdop>8.0</pdop><geoidheight>50.60</geoidheight><course>183.38672</course><type>1</type></trkpt>
      <trkpt lat="39.208019520356615" lon="-6.320158796774036"><ele>1884</ele><speed>11.66</speed><time>2016-06-01T15:24:07Z</time><pdop>8.0</pdop><geoidheight>50.60</geoidheight><course>210.18849</course><type>1</type></trkpt>
      <trkpt lat="39.20787166821823" lon="-6.320304081263505"><ele>1885</ele><speed>10.84</speed><time>2016-06-01T15:24:09Z</time><pdop>8.0</pdop><geoidheight>50.60</geoidheight><course>231.70624</course><type>1</type></trkpt>
      <trkpt lat="39.20777660745859" lon="-6.320483180152499"><ele>1886</ele><speed>8.89</speed><time>2016-06-01T15:24:11Z</time><pdop>8.0</pdop><geoidheight>50.60</geoidheight><course>248.1827</course><type>1</type></trkpt>
      <trkpt lat="39.2077405355245" lon="-6.320670837597174"><ele>1888</ele><speed>7.83</speed><time>2016-06-01T15:24:13Z</time><pdop>8.0</pdop><geoidheight>50.60</geoidheight><course>265.53574</course><type>1</type></trkpt>
      <trkpt lat="39.20777383374919" lon="-6.320865099144747"><ele>1891</ele><speed>7.71</speed><time>2016-06-01T15:24:15Z</time><pdop>6.0</pdop><geoidheight>50.60</geoidheight><course>296.49097</course><type>1</type></trkpt>
      <trkpt lat="39.20791967188826" lon="-6.320998542193743"><ele>1891</ele><speed>5.37</speed><time>2016-06-01T15:24:19Z</time><pdop>6.0</pdop><geoidheight>50.60</geoidheight><course>335.93616</course><type>1</type></trkpt>
      <trkpt lat="39.20805597470981" lon="-6.321020508421805"><ele>1894</ele><speed>6.89</speed><time>2016-06-01T15:24:21Z</time><pdop>6.0</pdop><geoidheight>50.60</geoidheight><course>15.649209</course><type>1</type></trkpt>
      <trkpt lat="39.20813659703621" lon="-6.320829960125853"><ele>1896</ele><speed>8.78</speed><time>2016-06-01T15:24:24Z</time><pdop>8.0</pdop><geoidheight>50.60</geoidheight><course>89.70308</course><type>1</type></trkpt>
      <trkpt lat="39.20810669036477" lon="-6.320640809134921"><ele>1897</ele><speed>9.79</speed><time>2016-06-01T15:24:26Z</time><pdop>6.0</pdop><geoidheight>50.60</geoidheight><course>107.86789</course><type>1</type></trkpt>
      <trkpt lat="39.20802307546003" lon="-6.320450333597633"><ele>1899</ele><speed>10.24</speed><time>2016-06-01T15:24:28Z</time><pdop>6.0</pdop><geoidheight>50.60</geoidheight><course>123.537895</course><type>1</type></trkpt>
      <trkpt lat="39.207857388285326" lon="-6.320298045220233"><ele>1902</ele><speed>12.41</speed><time>2016-06-01T15:24:30Z</time><pdop>8.0</pdop><geoidheight>50.60</geoidheight><course>155.47447</course><type>1</type></trkpt>
      <trkpt lat="39.20764648079639" lon="-6.320246053365487"><ele>1905</ele><speed>12.51</speed><time>2016-06-01T15:24:32Z</time><pdop>8.0</pdop><geoidheight>50.60</geoidheight><course>172.12276</course><type>1</type></trkpt>
      <trkpt lat="39.20743691543651" lon="-6.320218538787515"><ele>1908</ele><speed>12.25</speed><time>2016-06-01T15:24:34Z</time><pdop>6.0</pdop><geoidheight>50.60</geoidheight><course>177.153</course><type>1</type></trkpt>
      <trkpt lat="39.207328209405006" lon="-6.320210994915119"><ele>1910</ele><speed>11.61</speed><time>2016-06-01T15:24:35Z</time><pdop>6.0</pdop><geoidheight>50.60</geoidheight><course>179.28938</course><type>1</type></trkpt>
      <trkpt lat="39.207222295944725" lon="-6.320241466785481"><ele>1911</ele><speed>11.35</speed><time>2016-06-01T15:24:36Z</time><pdop>6.0</pdop><geoidheight>50.60</geoidheight><course>194.88249</course><type>1</type></trkpt>
      <trkpt lat="39.207066545135234" lon="-6.3204081710680775"><ele>1913</ele><speed>11.64</speed><time>2016-06-01T15:24:38Z</time><pdop>6.0</pdop><geoidheight>50.60</geoidheight><course>234.40291</course><type>1</type></trkpt>
      <trkpt lat="39.20703304949735" lon="-6.320617202649194"><ele>1914</ele><speed>9.51</speed><time>2016-06-01T15:24:40Z</time><pdop>6.0</pdop><geoidheight>50.60</geoidheight><course>279.45154</course><type>1</type></trkpt>
      <trkpt lat="39.20713140221498" lon="-6.320793671582802"><ele>1916</ele><speed>4.72</speed><time>2016-06-01T15:24:43Z</time><pdop>8.0</pdop><geoidheight>50.60</geoidheight><course>333.34488</course><type>1</type></trkpt>
      <trkpt lat="39.20725675658038" lon="-6.320827191567731"><ele>1918</ele><speed>5.36</speed><time>2016-06-01T15:24:46Z</time><pdop>6.0</pdop><geoidheight>50.60</geoidheight><course>20.634619</course><type>1</type></trkpt>
      <trkpt lat="39.20735162539908" lon="-6.32063206053177"><ele>1919</ele><speed>9.18</speed><time>2016-06-01T15:24:49Z</time><pdop>8.0</pdop><geoidheight>50.60</geoidheight><course>75.36113</course><type>1</type></trkpt>
      <trkpt lat="39.207282078800716" lon="-6.320431244753421"><ele>1919</ele><speed>11.85</speed><time>2016-06-01T15:24:52Z</time><pdop>8.0</pdop><geoidheight>50.60</geoidheight><course>129.99525</course><type>1</type></trkpt>
      <trkpt lat="39.20710294005585" lon="-6.320329837124813"><ele>1920</ele><speed>12.47</speed><time>2016-06-01T15:24:54Z</time><pdop>8.0</pdop><geoidheight>50.60</geoidheight><course>170.6171</course><type>1</type></trkpt>
      <trkpt lat="39.2068715381751" lon="-6.320357373205427"><ele>1920</ele><speed>11.07</speed><time>2016-06-01T15:24:55Z</time><pdop>8.0</pdop><geoidheight>50.60</geoidheight><course>192.60664</course><type>1</type></trkpt>
      <trkpt lat="39.2067143418955" lon="-6.320503501440272"><ele>1921</ele><speed>10.92</speed><time>2016-06-01T15:24:57Z</time><pdop>8.0</pdop><geoidheight>50.60</geoidheight><course>220.82677</course><type>1</type></trkpt>
      <trkpt lat="39.20666585125769" lon="-6.320690125451076"><ele>1923</ele><speed>9.81</speed><time>2016-06-01T15:24:59Z</time><pdop>8.0</pdop><geoidheight>50.60</geoidheight><course>261.952</course><type>1</type></trkpt>
      <trkpt lat="39.20677736261184" lon="-6.32091775745955"><ele>1925</ele><speed>6.16</speed><time>2016-06-01T15:25:02Z</time><pdop>8.0</pdop><geoidheight>50.60</geoidheight><course>329.65646</course><type>1</type></trkpt>
      <trkpt lat="39.206970201238974" lon="-6.320957070901048"><ele>1926</ele><speed>6.99</speed><time>2016-06-01T15:25:05Z</time><pdop>6.0</pdop><geoidheight>50.60</geoidheight><course>3.911523</course><type>1</type></trkpt>
      <trkpt lat="39.2071029145108" lon="-6.320911607391194"><ele>1928</ele><speed>7.50</speed><time>2016-06-01T15:25:08Z</time><pdop>6.0</pdop><geoidheight>50.60</geoidheight><course>16.373095</course><type>1</type></trkpt>
      <trkpt lat="39.207218936736396" lon="-6.3208726383331"><ele>1931</ele><speed>6.55</speed><time>2016-06-01T15:25:09Z</time><pdop>6.0</pdop><geoidheight>50.60</geoidheight><course>13.659993</course><type>1</type></trkpt>
      <trkpt lat="39.207338364682485" lon="-6.320844473144285"><ele>1932</ele><speed>3.54</speed><time>2016-06-01T15:25:12Z</time><pdop>6.0</pdop><geoidheight>50.60</geoidheight><course>8.0675335</course><type>1</type></trkpt>
      <trkpt lat="39.20746431842105" lon="-6.320824672447326"><ele>1936</ele><speed>6.05</speed><time>2016-06-01T15:25:15Z</time><pdop>6.0</pdop><geoidheight>50.60</geoidheight><course>12.375425</course><type>1</type></trkpt>
      <trkpt lat="39.207614428286675" lon="-6.320770719244106"><ele>1939</ele><speed>4.74</speed><time>2016-06-01T15:25:18Z</time><pdop>6.0</pdop><geoidheight>50.60</geoidheight><course>17.345415</course><type>1</type></trkpt>
      <trkpt lat="39.207767623639235" lon="-6.320719319509094"><ele>1940</ele><speed>6.11</speed><time>2016-06-01T15:25:21Z</time><pdop>6.0</pdop><geoidheight>50.60</geoidheight><course>16.116823</course><type>1</type></trkpt>
      <trkpt lat="39.20792248142607" lon="-6.3206837718374205"><ele>1942</ele><speed>7.07</speed><time>2016-06-01T15:25:24Z</time><pdop>6.0</pdop><geoidheight>50.60</geoidheight><course>10.364843</course><type>1</type></trkpt>
      <trkpt lat="39.20806122139783" lon="-6.320646049746291"><ele>1941</ele><speed>9.26</speed><time>2016-06-01T15:25:27Z</time><pdop>6.0</pdop><geoidheight>50.60</geoidheight><course>12.107457</course><type>1</type></trkpt>
      <trkpt lat="39.20820650511763" lon="-6.32059257056749"><ele>1941</ele><speed>7.20</speed><time>2016-06-01T15:25:28Z</time><pdop>6.0</pdop><geoidheight>50.60</geoidheight><course>15.074216</course><type>1</type></trkpt>
      <trkpt lat="39.20833417809558" lon="-6.320539210427306"><ele>1942</ele><speed>6.61</speed><time>2016-06-01T15:25:30Z</time><pdop>8.0</pdop><geoidheight>50.60</geoidheight><course>14.725694</course><type>1</type></trkpt>
      <trkpt lat="39.20847738018683" lon="-6.320479867880557"><ele>1943</ele><speed>8.18</speed><time>2016-06-01T15:25:32Z</time><pdop>8.0</pdop><geoidheight>50.60</geoidheight><course>15.075351</course><type>1</type></trkpt>
      <trkpt lat="39.20861800169948" lon="-6.32043038890767"><ele>1944</ele><speed>8.28</speed><time>2016-06-01T15:25:35Z</time><pdop>6.0</pdop><geoidheight>50.60</geoidheight><course>16.831106</course><type>1</type></trkpt>
      <trkpt lat="39.208744633648315" lon="-6.320375873995444"><ele>1945</ele><speed>7.26</speed><time>2016-06-01T15:25:36Z</time><pdop>8.0</pdop><geoidheight>50.60</geoidheight><course>17.859505</course><type>1</type></trkpt>
      <trkpt lat="39.20886734751175" lon="-6.320328116784905"><ele>1945</ele><speed>8.19</speed><time>2016-06-01T15:25:38Z</time><pdop>6.0</pdop><geoidheight>50.60</geoidheight><course>16.231544</course><type>1</type></trkpt>
      <trkpt lat="39.20899487795893" lon="-6.320304298150091"><ele>1944</ele><speed>7.65</speed><time>2016-06-01T15:25:40Z</time><pdop>6.0</pdop><geoidheight>50.60</geoidheight><course>10.252626</course><type>1</type></trkpt>
      <trkpt lat="39.20913978597811" lon="-6.320284718584206"><ele>1943</ele><speed>9.02</speed><time>2016-06-01T15:25:42Z</time><pdop>8.0</pdop><geoidheight>50.60</geoidheight><course>8.48095</course><type>1</type></trkpt>
      <trkpt lat="39.20929753425142" lon="-6.320255884427674"><ele>1940</ele><speed>9.06</speed><time>2016-06-01T15:25:44Z</time><pdop>8.0</pdop><geoidheight>50.60</geoidheight><course>7.1104827</course><type>1</type></trkpt>
      <trkpt lat="39.20944677696075" lon="-6.320243683401422"><ele>1939</ele><speed>7.28</speed><time>2016-06-01T15:25:46Z</time><pdop>8.0</pdop><geoidheight>50.60</geoidheight><course>2.760544</course><type>1</type></trkpt>
      <trkpt lat="39.20960017471228" lon="-6.3202259385674555"><ele>1938</ele><speed>9.19</speed><time>2016-06-01T15:25:48Z</time><pdop>8.0</pdop><geoidheight>50.60</geoidheight><course>6.152528</course><type>1</type></trkpt>
      <trkpt lat="39.20977576503134" lon="-6.320184200110921"><ele>1937</ele><speed>9.71</speed><time>2016-06-01T15:25:51Z</time><pdop>8.0</pdop><geoidheight>50.60</geoidheight><course>10.5738125</course><type>1</type></trkpt>
      <trkpt lat="39.20992671644184" lon="-6.3201358297139345"><ele>1934</ele><speed>8.12</speed><time>2016-06-01T15:25:52Z</time><pdop>6.0</pdop><geoidheight>50.60</geoidheight><course>11.31439</course><type>1</type></trkpt>
      <trkpt lat="39.21014201333447" lon="-6.320070559884241"><ele>1930</ele><speed>9.64</speed><time>2016-06-01T15:25:55Z</time><pdop>6.0</pdop><geoidheight>50.60</geoidheight><course>10.48919</course><type>1</type></trkpt>
      <trkpt lat="39.210301614437356" lon="-6.320048622668078"><ele>1927</ele><speed>8.55</speed><time>2016-06-01T15:25:57Z</time><pdop>6.0</pdop><geoidheight>50.60</geoidheight><course>7.757217</course><type>1</type></trkpt>
      <trkpt lat="39.2104415676121" lon="-6.3200292979765385"><ele>1923</ele><speed>9.11</speed><time>2016-06-01T15:25:59Z</time><pdop>6.0</pdop><geoidheight>50.60</geoidheight><course>4.277289</course><type>1</type></trkpt>
      <trkpt lat="39.21061461864233" lon="-6.320011328549699"><ele>1919</ele><speed>11.64</speed><time>2016-06-01T15:26:01Z</time><pdop>6.0</pdop><geoidheight>50.60</geoidheight><course>4.254636</course><type>1</type></trkpt>
      <trkpt lat="39.210824327474604" lon="-6.319984945012972"><ele>1917</ele><speed>10.80</speed><time>2016-06-01T15:26:03Z</time><pdop>6.0</pdop><geoidheight>50.60</geoidheight><course>6.207613</course><type>1</type></trkpt>
      <trkpt lat="39.210998984718564" lon="-6.319960685186466"><ele>1916</ele><speed>7.86</speed><time>2016-06-01T15:26:06Z</time><pdop>6.0</pdop><geoidheight>50.60</geoidheight><course>7.2268696</course><type>1</type></trkpt>
      <trkpt lat="39.21113947081535" lon="-6.31995799643384"><ele>1917</ele><speed>7.33</speed><time>2016-06-01T15:26:07Z</time><pdop>6.0</pdop><geoidheight>50.60</geoidheight><course>5.087362</course><type>1</type></trkpt>
      <trkpt lat="39.21129568102883" lon="-6.319951970251333"><ele>1917</ele><speed>8.82</speed><time>2016-06-01T15:26:10Z</time><pdop>6.0</pdop><geoidheight>50.60</geoidheight><course>5.7388825</course><type>1</type></trkpt>
      <trkpt lat="39.21146137815868" lon="-6.3199435266139155"><ele>1919</ele><speed>9.11</speed><time>2016-06-01T15:26:11Z</time><pdop>6.0</pdop><geoidheight>50.60</geoidheight><course>5.511705</course><type>1</type></trkpt>
      <trkpt lat="39.21163958503076" lon="-6.319932649965736"><ele>1920</ele><speed>10.45</speed><time>2016-06-01T15:26:13Z</time><pdop>6.0</pdop><geoidheight>50.60</geoidheight><course>6.0813155</course><type>1</type></trkpt>
      <trkpt lat="39.21182859631246" lon="-6.319892647221533"><ele>1920</ele><speed>10.75</speed><time>2016-06-01T15:26:15Z</time><pdop>8.0</pdop><geoidheight>50.60</geoidheight><course>10.285173</course><type>1</type></trkpt>
      <trkpt lat="39.21201948530468" lon="-6.319849097659498"><ele>1920</ele><speed>9.73</speed><time>2016-06-01T15:26:17Z</time><pdop>6.0</pdop><geoidheight>50.60</geoidheight><course>9.630253</course><type>1</type></trkpt>
      <trkpt lat="39.212207009202345" lon="-6.319814196635013"><ele>1920</ele><speed>10.14</speed><time>2016-06-01T15:26:19Z</time><pdop>6.0</pdop><geoidheight>50.60</geoidheight><course>9.087571</course><type>1</type></trkpt>
      <trkpt lat="39.2123869252616" lon="-6.319777966233864"><ele>1920</ele><speed>10.09</speed><time>2016-06-01T15:26:21Z</time><pdop>4.0</pdop><geoidheight>50.60</geoidheight><course>8.113809</course><type>1</type></trkpt>
      <trkpt lat="39.21246944321013" lon="-6.319764094934811"><ele>1920</ele><speed>9.73</speed><time>2016-06-01T15:26:22Z</time><pdop>4.0</pdop><geoidheight>50.60</geoidheight><course>8.24715</course><type>1</type></trkpt>
      <trkpt lat="39.21254792374764" lon="-6.319751754601681"><ele>1920</ele><speed>9.76</speed><time>2016-06-01T15:26:23Z</time><pdop>4.0</pdop><geoidheight>50.60</geoidheight><course>7.9116707</course><type>1</type></trkpt>
      <trkpt lat="39.21270721882035" lon="-6.319732746713035"><ele>1919</ele><speed>10.06</speed><time>2016-06-01T15:26:25Z</time><pdop>6.0</pdop><geoidheight>50.60</geoidheight><course>6.1066484</course><type>1</type></trkpt>
      <trkpt lat="39.21288229555414" lon="-6.3197099117131845"><ele>1918</ele><speed>9.73</speed><time>2016-06-01T15:26:27Z</time><pdop>6.0</pdop><geoidheight>50.60</geoidheight><course>5.9189405</course><type>1</type></trkpt>
      <trkpt lat="39.213039309674336" lon="-6.319689976020075"><ele>1917</ele><speed>8.14</speed><time>2016-06-01T15:26:29Z</time><pdop>6.0</pdop><geoidheight>50.60</geoidheight><course>6.697202</course><type>1</type></trkpt>
      <trkpt lat="39.21318994638274" lon="-6.3196695180768945"><ele>1916</ele><speed>7.74</speed><time>2016-06-01T15:26:31Z</time><pdop>6.0</pdop><geoidheight>50.60</geoidheight><course>4.7925124</course><type>1</type></trkpt>
      <trkpt lat="39.21333415614728" lon="-6.319647953384823"><ele>1914</ele><speed>8.88</speed><time>2016-06-01T15:26:33Z</time><pdop>6.0</pdop><geoidheight>50.60</geoidheight><course>5.998734</course><type>1</type></trkpt>
      <trkpt lat="39.21347999317382" lon="-6.319624159587851"><ele>1913</ele><speed>8.57</speed><time>2016-06-01T15:26:35Z</time><pdop>6.0</pdop><geoidheight>50.60</geoidheight><course>5.9621744</course><type>1</type></trkpt>
      <trkpt lat="39.21361739525636" lon="-6.319601813185045"><ele>1912</ele><speed>7.60</speed><time>2016-06-01T15:26:38Z</time><pdop>6.0</pdop><geoidheight>50.60</geoidheight><course>7.178183</course><type>1</type></trkpt>
      <trkpt lat="39.213753430082186" lon="-6.3195713507496984"><ele>1911</ele><speed>8.07</speed><time>2016-06-01T15:26:39Z</time><pdop>6.0</pdop><geoidheight>50.60</geoidheight><course>9.677096</course><type>1</type></trkpt>
      <trkpt lat="39.21391289428347" lon="-6.319547056873057"><ele>1910</ele><speed>8.79</speed><time>2016-06-01T15:26:41Z</time><pdop>6.0</pdop><geoidheight>50.60</geoidheight><course>4.535856</course><type>1</type></trkpt>
      <trkpt lat="39.21407116270778" lon="-6.319541243681449"><ele>1910</ele><speed>8.15</speed><time>2016-06-01T15:26:43Z</time><pdop>6.0</pdop><geoidheight>50.60</geoidheight><course>0.5970835</course><type>1</type></trkpt>
      <trkpt lat="39.21420628527337" lon="-6.319545035852622"><ele>1909</ele><speed>7.99</speed><time>2016-06-01T15:26:45Z</time><pdop>6.0</pdop><geoidheight>50.60</geoidheight><course>358.11996</course><type>1</type></trkpt>
      <trkpt lat="39.21435666056908" lon="-6.319554877446239"><ele>1906</ele><speed>8.69</speed><time>2016-06-01T15:26:47Z</time><pdop>6.0</pdop><geoidheight>50.60</geoidheight><course>357.03552</course><type>1</type></trkpt>
      <trkpt lat="39.214508761507304" lon="-6.319560642448433"><ele>1904</ele><speed>8.44</speed><time>2016-06-01T15:26:49Z</time><pdop>4.0</pdop><geoidheight>50.60</geoidheight><course>358.7541</course><type>1</type></trkpt>
      <trkpt lat="39.21464676807957" lon="-6.319557611553496"><ele>1903</ele><speed>7.65</speed><time>2016-06-01T15:26:51Z</time><pdop>4.0</pdop><geoidheight>50.60</geoidheight><course>359.09933</course><type>1</type></trkpt>
      <trkpt lat="39.2147847720076" lon="-6.31956249545645"><ele>1902</ele><speed>7.51</speed><time>2016-06-01T15:26:53Z</time><pdop>4.0</pdop><geoidheight>50.60</geoidheight><course>357.76456</course><type>1</type></trkpt>
      <trkpt lat="39.214919842158274" lon="-6.31956705473458"><ele>1902</ele><speed>7.64</speed><time>2016-06-01T15:26:55Z</time><pdop>4.0</pdop><geoidheight>50.60</geoidheight><course>358.42975</course><type>1</type></trkpt>
      <trkpt lat="39.215062342399975" lon="-6.319567730670008"><ele>1901</ele><speed>9.20</speed><time>2016-06-01T15:26:57Z</time><pdop>4.0</pdop><geoidheight>50.60</geoidheight><course>358.7539</course><type>1</type></trkpt>
      <trkpt lat="39.21514280743817" lon="-6.319561827543561"><ele>1900</ele><speed>9.39</speed><time>2016-06-01T15:26:58Z</time><pdop>4.0</pdop><geoidheight>50.60</geoidheight><course>0.90606457</course><type>1</type></trkpt>
      <trkpt lat="39.215315260320565" lon="-6.319525166825411"><ele>1898</ele><speed>9.88</speed><time>2016-06-01T15:27:00Z</time><pdop>6.0</pdop><geoidheight>50.60</geoidheight><course>7.7317977</course><type>1</type></trkpt>
      <trkpt lat="39.21548458590365" lon="-6.319475760790177"><ele>1896</ele><speed>8.99</speed><time>2016-06-01T15:27:02Z</time><pdop>6.0</pdop><geoidheight>50.60</geoidheight><course>9.352586</course><type>1</type></trkpt>
      <trkpt lat="39.21564571539276" lon="-6.3194432893598504"><ele>1894</ele><speed>9.07</speed><time>2016-06-01T15:27:04Z</time><pdop>4.0</pdop><geoidheight>50.60</geoidheight><course>7.892119</course><type>1</type></trkpt>
      <trkpt lat="39.215737832349326" lon="-6.319428487922165"><ele>1894</ele><speed>9.78</speed><time>2016-06-01T15:27:05Z</time><pdop>4.0</pdop><geoidheight>50.60</geoidheight><course>7.491592</course><type>1</type></trkpt>
      <trkpt lat="39.21583548780034" lon="-6.319413600846132"><ele>1893</ele><speed>10.41</speed><time>2016-06-01T15:27:06Z</time><pdop>4.0</pdop><geoidheight>50.60</geoidheight><course>6.915311</course><type>1</type></trkpt>
      <trkpt lat="39.21592635983051" lon="-6.31940038707615"><ele>1892</ele><speed>9.80</speed><time>2016-06-01T15:27:08Z</time><pdop>6.0</pdop><geoidheight>50.60</geoidheight><course>6.1200595</course><type>1</type></trkpt>
      <trkpt lat="39.216088110697136" lon="-6.31938455581222"><ele>1890</ele><speed>9.26</speed><time>2016-06-01T15:27:09Z</time><pdop>6.0</pdop><geoidheight>50.60</geoidheight><course>2.5227873</course><type>1</type></trkpt>
      <trkpt lat="39.216263672335735" lon="-6.319367406630285"><ele>1888</ele><speed>11.03</speed><time>2016-06-01T15:27:11Z</time><pdop>4.0</pdop><geoidheight>50.60</geoidheight><course>4.6891527</course><type>1</type></trkpt>
      <trkpt lat="39.216360298121174" lon="-6.319351442252538"><ele>1886</ele><speed>11.02</speed><time>2016-06-01T15:27:12Z</time><pdop>4.0</pdop><geoidheight>50.60</geoidheight><course>6.09478</course><type>1</type></trkpt>
      <trkpt lat="39.21645516675903" lon="-6.319332767011109"><ele>1884</ele><speed>10.69</speed><time>2016-06-01T15:27:13Z</time><pdop>4.0</pdop><geoidheight>50.60</geoidheight><course>7.1544867</course><type>1</type></trkpt>
      <trkpt lat="39.21654749549353" lon="-6.319312822459507"><ele>1883</ele><speed>10.12</speed><time>2016-06-01T15:27:14Z</time><pdop>4.0</pdop><geoidheight>50.60</geoidheight><course>7.49628</course><type>1</type></trkpt>
      <trkpt lat="39.21663554352849" lon="-6.319294274675242"><ele>1881</ele><speed>9.67</speed><time>2016-06-01T15:27:15Z</time><pdop>4.0</pdop><geoidheight>50.60</geoidheight><course>7.432411</course><type>1</type></trkpt>
      <trkpt lat="39.21672154012169" lon="-6.319279000263423"><ele>1880</ele><speed>9.80</speed><time>2016-06-01T15:27:16Z</time><pdop>4.0</pdop><geoidheight>50.60</geoidheight><course>5.9603434</course><type>1</type></trkpt>
      <trkpt lat="39.21680822092361" lon="-6.319261682950766"><ele>1878</ele><speed>10.18</speed><time>2016-06-01T15:27:17Z</time><pdop>4.0</pdop><geoidheight>50.60</geoidheight><course>7.017281</course><type>1</type></trkpt>
      <trkpt lat="39.21689537836824" lon="-6.319242488951978"><ele>1877</ele><speed>10.05</speed><time>2016-06-01T15:27:18Z</time><pdop>4.0</pdop><geoidheight>50.60</geoidheight><course>8.540293</course><type>1</type></trkpt>
      <trkpt lat="39.21707019704904" lon="-6.3191922810012855"><ele>1874</ele><speed>10.10</speed><time>2016-06-01T15:27:20Z</time><pdop>6.0</pdop><geoidheight>50.60</geoidheight><course>11.174908</course><type>1</type></trkpt>
      <trkpt lat="39.21725660784663" lon="-6.3191555668671695"><ele>1871</ele><speed>10.99</speed><time>2016-06-01T15:27:22Z</time><pdop>6.0</pdop><geoidheight>50.60</geoidheight><course>6.4677534</course><type>1</type></trkpt>
      <trkpt lat="39.21743060502346" lon="-6.319139784128851"><ele>1869</ele><speed>8.54</speed><time>2016-06-01T15:27:24Z</time><pdop>6.0</pdop><geoidheight>50.60</geoidheight><course>5.752159</course><type>1</type></trkpt>
      <trkpt lat="39.2175729263275" lon="-6.319119539927827"><ele>1868</ele><speed>8.23</speed><time>2016-06-01T15:27:26Z</time><pdop>6.0</pdop><geoidheight>50.60</geoidheight><course>6.710406</course><type>1</type></trkpt>
      <trkpt lat="39.21774383610681" lon="-6.3191026373489985"><ele>1867</ele><speed>11.05</speed><time>2016-06-01T15:27:28Z</time><pdop>8.0</pdop><geoidheight>50.60</geoidheight><course>3.5548933</course><type>1</type></trkpt>
      <trkpt lat="39.2179379428726" lon="-6.319085908212736"><ele>1866</ele><speed>9.68</speed><time>2016-06-01T15:27:30Z</time><pdop>12.0</pdop><geoidheight>50.60</geoidheight><course>4.700156</course><type>1</type></trkpt>
      <trkpt lat="39.218171217578664" lon="-6.31906224078831"><ele>1864</ele><speed>8.63</speed><time>2016-06-01T15:27:33Z</time><pdop>8.0</pdop><geoidheight>50.60</geoidheight><course>3.6065319</course><type>1</type></trkpt>
      <trkpt lat="39.218341876867406" lon="-6.319049046459136"><ele>1863</ele><speed>10.31</speed><time>2016-06-01T15:27:35Z</time><pdop>8.0</pdop><geoidheight>50.60</geoidheight><course>3.6165576</course><type>1</type></trkpt>
      <trkpt lat="39.218518290751696" lon="-6.319062282299501"><ele>1862</ele><speed>9.87</speed><time>2016-06-01T15:27:37Z</time><pdop>8.0</pdop><geoidheight>50.60</geoidheight><course>357.28955</course><type>1</type></trkpt>
      <trkpt lat="39.2187638814378" lon="-6.319086962459246"><ele>1861</ele><speed>9.20</speed><time>2016-06-01T15:27:41Z</time><pdop>12.0</pdop><geoidheight>50.60</geoidheight><course>358.98</course><type>1</type></trkpt>
      <trkpt lat="39.21900613242541" lon="-6.3191037805977395"><ele>1860</ele><speed>9.51</speed><time>2016-06-01T15:27:43Z</time><pdop>8.0</pdop><geoidheight>50.60</geoidheight><course>358.83325</course><type>1</type></trkpt>
      <trkpt lat="39.219163063828574" lon="-6.319112190470564"><ele>1858</ele><speed>9.00</speed><time>2016-06-01T15:27:45Z</time><pdop>8.0</pdop><geoidheight>50.60</geoidheight><course>1.2891718</course><type>1</type></trkpt>
      <trkpt lat="39.21930730021659" lon="-6.319116762643256"><ele>1857</ele><speed>7.98</speed><time>2016-06-01T15:27:47Z</time><pdop>8.0</pdop><geoidheight>50.60</geoidheight><course>0.28542158</course><type>1</type></trkpt>
      <trkpt lat="39.2194625089089" lon="-6.319122579152451"><ele>1857</ele><speed>9.29</speed><time>2016-06-01T15:27:49Z</time><pdop>6.0</pdop><geoidheight>50.60</geoidheight><course>0.46291545</course><type>1</type></trkpt>
      <trkpt lat="39.21963238328475" lon="-6.319114674197588"><ele>1857</ele><speed>9.69</speed><time>2016-06-01T15:27:51Z</time><pdop>6.0</pdop><geoidheight>50.60</geoidheight><course>2.7735126</course><type>1</type></trkpt>
      <trkpt lat="39.21979952853969" lon="-6.319107688185518"><ele>1857</ele><speed>8.90</speed><time>2016-06-01T15:27:53Z</time><pdop>6.0</pdop><geoidheight>50.60</geoidheight><course>0.8594449</course><type>1</type></trkpt>
      <trkpt lat="39.21996509701748" lon="-6.319100720566992"><ele>1857</ele><speed>9.08</speed><time>2016-06-01T15:27:55Z</time><pdop>12.0</pdop><geoidheight>50.60</geoidheight><course>1.1111956</course><type>1</type></trkpt>
      <trkpt lat="39.220141241230024" lon="-6.319080877466479"><ele>1857</ele><speed>9.18</speed><time>2016-06-01T15:27:57Z</time><pdop>6.0</pdop><geoidheight>50.60</geoidheight><course>3.046879</course><type>1</type></trkpt>
      <trkpt lat="39.220316386064646" lon="-6.319066313904601"><ele>1856</ele><speed>9.18</speed><time>2016-06-01T15:27:59Z</time><pdop>6.0</pdop><geoidheight>50.60</geoidheight><course>2.18104</course><type>1</type></trkpt>
      <trkpt lat="39.22050775506284" lon="-6.319052212497265"><ele>1853</ele><speed>10.30</speed><time>2016-06-01T15:28:01Z</time><pdop>8.0</pdop><geoidheight>50.60</geoidheight><course>2.2295582</course><type>1</type></trkpt>
      <trkpt lat="39.22069501719993" lon="-6.319029573388147"><ele>1851</ele><speed>9.47</speed><time>2016-06-01T15:28:03Z</time><pdop>12.0</pdop><geoidheight>50.60</geoidheight><course>4.3348713</course><type>1</type></trkpt>
      <trkpt lat="39.220904392415235" lon="-6.318998193890118"><ele>1850</ele><speed>8.99</speed><time>2016-06-01T15:28:06Z</time><pdop>8.0</pdop><geoidheight>50.60</geoidheight><course>4.7616205</course><type>1</type></trkpt>
      <trkpt lat="39.221055173180694" lon="-6.318970718043214"><ele>1850</ele><speed>9.33</speed><time>2016-06-01T15:28:09Z</time><pdop>6.0</pdop><geoidheight>50.60</geoidheight><course>6.914203</course><type>1</type></trkpt>
      <trkpt lat="39.221223848878964" lon="-6.318947235966469"><ele>1850</ele><speed>8.86</speed><time>2016-06-01T15:28:10Z</time><pdop>6.0</pdop><geoidheight>50.60</geoidheight><course>4.0523515</course><type>1</type></trkpt>
      <trkpt lat="39.22139047679858" lon="-6.318930679109347"><ele>1850</ele><speed>8.95</speed><time>2016-06-01T15:28:12Z</time><pdop>6.0</pdop><geoidheight>50.60</geoidheight><course>3.4369543</course><type>1</type></trkpt>
      <trkpt lat="39.2215556606663" lon="-6.318918865454684"><ele>1849</ele><speed>9.23</speed><time>2016-06-01T15:28:15Z</time><pdop>6.0</pdop><geoidheight>50.60</geoidheight><course>2.0720763</course><type>1</type></trkpt>
      <trkpt lat="39.22171260931495" lon="-6.3189114158582225"><ele>1848</ele><speed>9.27</speed><time>2016-06-01T15:28:16Z</time><pdop>6.0</pdop><geoidheight>50.60</geoidheight><course>3.1799552</course><type>1</type></trkpt>
      <trkpt lat="39.221871125129795" lon="-6.318892561641373"><ele>1847</ele><speed>8.87</speed><time>2016-06-01T15:28:18Z</time><pdop>6.0</pdop><geoidheight>50.60</geoidheight><course>4.686274</course><type>1</type></trkpt>
      <trkpt lat="39.22203098999306" lon="-6.318879845166944"><ele>1846</ele><speed>8.56</speed><time>2016-06-01T15:28:21Z</time><pdop>8.0</pdop><geoidheight>50.60</geoidheight><course>2.406802</course><type>1</type></trkpt>
      <trkpt lat="39.22217899575033" lon="-6.3188675475657385"><ele>1843</ele><speed>7.85</speed><time>2016-06-01T15:28:22Z</time><pdop>8.0</pdop><geoidheight>50.60</geoidheight><course>5.5713134</course><type>1</type></trkpt>
      <trkpt lat="39.222326136092754" lon="-6.318838935834433"><ele>1840</ele><speed>8.75</speed><time>2016-06-01T15:28:24Z</time><pdop>6.0</pdop><geoidheight>50.60</geoidheight><course>4.958007</course><type>1</type></trkpt>
      <trkpt lat="39.22250383671898" lon="-6.318820388502845"><ele>1838</ele><speed>9.91</speed><time>2016-06-01T15:28:26Z</time><pdop>6.0</pdop><geoidheight>50.60</geoidheight><course>359.6124</course><type>1</type></trkpt>
      <trkpt lat="39.22265174221115" lon="-6.318807359860408"><ele>1835</ele><speed>7.46</speed><time>2016-06-01T15:28:28Z</time><pdop>8.0</pdop><geoidheight>50.60</geoidheight><course>3.3435073</course><type>1</type></trkpt>
      <trkpt lat="39.222862672628075" lon="-6.318779039503543"><ele>1832</ele><speed>8.72</speed><time>2016-06-01T15:28:31Z</time><pdop>6.0</pdop><geoidheight>50.60</geoidheight><course>4.995804</course><type>1</type></trkpt>
      <trkpt lat="39.223029838357206" lon="-6.318768574092848"><ele>1828</ele><speed>9.56</speed><time>2016-06-01T15:28:33Z</time><pdop>6.0</pdop><geoidheight>50.60</geoidheight><course>1.3960806</course><type>1</type></trkpt>
      <trkpt lat="39.22318394528385" lon="-6.3188185115496935"><ele>1825</ele><speed>7.99</speed><time>2016-06-01T15:28:36Z</time><pdop>8.0</pdop><geoidheight>50.60</geoidheight><course>344.98624</course><type>1</type></trkpt>
      <trkpt lat="39.22333810112021" lon="-6.3188336618395216"><ele>1821</ele><speed>8.29</speed><time>2016-06-01T15:28:37Z</time><pdop>8.0</pdop><geoidheight>50.60</geoidheight><course>2.315809</course><type>1</type></trkpt>
      <trkpt lat="39.22348075176697" lon="-6.31883793492293"><ele>1816</ele><speed>8.36</speed><time>2016-06-01T15:28:39Z</time><pdop>6.0</pdop><geoidheight>50.60</geoidheight><course>358.42615</course><type>1</type></trkpt>
      <trkpt lat="39.22359864053516" lon="-6.3188527773366685"><ele>1812</ele><speed>6.12</speed><time>2016-06-01T15:28:41Z</time><pdop>6.0</pdop><geoidheight>50.60</geoidheight><course>355.7293</course><type>1</type></trkpt>
      <trkpt lat="39.22375494170235" lon="-6.318851814089872"><ele>1806</ele><speed>7.43</speed><time>2016-06-01T15:28:44Z</time><pdop>8.0</pdop><geoidheight>50.60</geoidheight><course>358.65482</course><type>1</type></trkpt>
      <trkpt lat="39.22393773854613" lon="-6.318874048928684"><ele>1795</ele><speed>6.13</speed><time>2016-06-01T15:28:47Z</time><pdop>8.0</pdop><geoidheight>50.60</geoidheight><course>355.90018</course><type>1</type></trkpt>
      <trkpt lat="39.2241007639665" lon="-6.318885561740308"><ele>1786</ele><speed>7.31</speed><time>2016-06-01T15:28:50Z</time><pdop>6.0</pdop><geoidheight>50.60</geoidheight><course>0.4860843</course><type>1</type></trkpt>
      <trkpt lat="39.224226947879544" lon="-6.318889519521811"><ele>1779</ele><speed>8.49</speed><time>2016-06-01T15:28:52Z</time><pdop>6.0</pdop><geoidheight>50.60</geoidheight><course>358.76178</course><type>1</type></trkpt>
      <trkpt lat="39.224372337480084" lon="-6.318839919203375"><ele>1773</ele><speed>9.26</speed><time>2016-06-01T15:28:54Z</time><pdop>6.0</pdop><geoidheight>50.60</geoidheight><course>15.941419</course><type>1</type></trkpt>
      <trkpt lat="39.22451032860544" lon="-6.318760356548091"><ele>1767</ele><speed>8.47</speed><time>2016-06-01T15:28:56Z</time><pdop>6.0</pdop><geoidheight>50.60</geoidheight><course>20.780361</course><type>1</type></trkpt>
      <trkpt lat="39.22463577649019" lon="-6.318690676084093"><ele>1761</ele><speed>7.76</speed><time>2016-06-01T15:28:58Z</time><pdop>8.0</pdop><geoidheight>50.60</geoidheight><course>19.568935</course><type>1</type></trkpt>
      <trkpt lat="39.224816010890535" lon="-6.31860506810897"><ele>1752</ele><speed>8.62</speed><time>2016-06-01T15:29:01Z</time><pdop>12.0</pdop><geoidheight>50.60</geoidheight><course>16.973972</course><type>1</type></trkpt>
      <trkpt lat="39.22505160125037" lon="-6.318547975091154"><ele>1744</ele><speed>9.32</speed><time>2016-06-01T15:29:04Z</time><pdop>8.0</pdop><geoidheight>50.60</geoidheight><course>11.469855</course><type>1</type></trkpt>
      <trkpt lat="39.22523219667617" lon="-6.318497429048623"><ele>1738</ele><speed>7.04</speed><time>2016-06-01T15:29:07Z</time><pdop>6.0</pdop><geoidheight>50.60</geoidheight><course>16.401594</course><type>1</type></trkpt>
      <trkpt lat="39.22535674814997" lon="-6.318452884379532"><ele>1734</ele><speed>8.25</speed><time>2016-06-01T15:29:09Z</time><pdop>6.0</pdop><geoidheight>50.60</geoidheight><course>15.517949</course><type>1</type></trkpt>
      <trkpt lat="39.22548830331742" lon="-6.318401594503629"><ele>1729</ele><speed>8.73</speed><time>2016-06-01T15:29:12Z</time><pdop>8.0</pdop><geoidheight>50.60</geoidheight><course>18.275383</course><type>1</type></trkpt>
      <trkpt lat="39.22565317594533" lon="-6.318323620391669"><ele>1723</ele><speed>7.01</speed><time>2016-06-01T15:29:14Z</time><pdop>6.0</pdop><geoidheight>50.60</geoidheight><course>16.62327</course><type>1</type></trkpt>
      <trkpt lat="39.22577244138422" lon="-6.318296061617501"><ele>1718</ele><speed>7.23</speed><time>2016-06-01T15:29:16Z</time><pdop>6.0</pdop><geoidheight>50.60</geoidheight><course>11.379452</course><type>1</type></trkpt>
      <trkpt lat="39.22590672050551" lon="-6.318269080856626"><ele>1713</ele><speed>8.33</speed><time>2016-06-01T15:29:18Z</time><pdop>6.0</pdop><geoidheight>50.60</geoidheight><course>10.600027</course><type>1</type></trkpt>
      <trkpt lat="39.22603974069699" lon="-6.318247614033147"><ele>1709</ele><speed>7.76</speed><time>2016-06-01T15:29:20Z</time><pdop>6.0</pdop><geoidheight>50.60</geoidheight><course>9.477654</course><type>1</type></trkpt>
      <trkpt lat="39.22616716293687" lon="-6.318234246989518"><ele>1705</ele><speed>7.42</speed><time>2016-06-01T15:29:22Z</time><pdop>6.0</pdop><geoidheight>50.60</geoidheight><course>7.3701057</course><type>1</type></trkpt>
      <trkpt lat="39.226298647524644" lon="-6.318226123229654"><ele>1701</ele><speed>7.20</speed><time>2016-06-01T15:29:25Z</time><pdop>6.0</pdop><geoidheight>50.60</geoidheight><course>3.4881089</course><type>1</type></trkpt>
      <trkpt lat="39.226445350646024" lon="-6.3182203502508125"><ele>1697</ele><speed>7.86</speed><time>2016-06-01T15:29:26Z</time><pdop>8.0</pdop><geoidheight>50.60</geoidheight><course>2.581624</course><type>1</type></trkpt>
      <trkpt lat="39.22660885833172" lon="-6.318194252469033"><ele>1692</ele><speed>8.72</speed><time>2016-06-01T15:29:28Z</time><pdop>8.0</pdop><geoidheight>50.60</geoidheight><course>7.0286956</course><type>1</type></trkpt>
      <trkpt lat="39.22676274098519" lon="-6.3181676118036565"><ele>1689</ele><speed>8.52</speed><time>2016-06-01T15:29:30Z</time><pdop>6.0</pdop><geoidheight>50.60</geoidheight><course>4.958181</course><type>1</type></trkpt>
      <trkpt lat="39.22689882918454" lon="-6.318153083699855"><ele>1685</ele><speed>6.96</speed><time>2016-06-01T15:29:32Z</time><pdop>6.0</pdop><geoidheight>50.60</geoidheight><course>4.155501</course><type>1</type></trkpt>
      <trkpt lat="39.22703452406561" lon="-6.3181369349349055"><ele>1681</ele><speed>7.71</speed><time>2016-06-01T15:29:34Z</time><pdop>8.0</pdop><geoidheight>50.60</geoidheight><course>5.196079</course><type>1</type></trkpt>
      <trkpt lat="39.227189139244054" lon="-6.318126353225566"><ele>1676</ele><speed>9.27</speed><time>2016-06-01T15:29:36Z</time><pdop>6.0</pdop><geoidheight>50.60</geoidheight><course>0.7636254</course><type>1</type></trkpt>
      <trkpt lat="39.2273477392179" lon="-6.318135276891877"><ele>1670</ele><speed>8.45</speed><time>2016-06-01T15:29:38Z</time><pdop>6.0</pdop><geoidheight>50.60</geoidheight><course>357.89954</course><type>1</type></trkpt>
      <trkpt lat="39.22748684936935" lon="-6.318144587953738"><ele>1665</ele><speed>7.78</speed><time>2016-06-01T15:29:40Z</time><pdop>8.0</pdop><geoidheight>50.60</geoidheight><course>358.99435</course><type>1</type></trkpt>
      <trkpt lat="39.22761894505583" lon="-6.318156014294987"><ele>1660</ele><speed>7.74</speed><time>2016-06-01T15:29:42Z</time><pdop>6.0</pdop><geoidheight>50.60</geoidheight><course>357.02325</course><type>1</type></trkpt>
      <trkpt lat="39.22776868416869" lon="-6.318168878545037"><ele>1655</ele><speed>8.60</speed><time>2016-06-01T15:29:44Z</time><pdop>6.0</pdop><geoidheight>50.60</geoidheight><course>357.66647</course><type>1</type></trkpt>
      <trkpt lat="39.22791531704426" lon="-6.318166730888414"><ele>1650</ele><speed>8.22</speed><time>2016-06-01T15:29:46Z</time><pdop>6.0</pdop><geoidheight>50.60</geoidheight><course>1.3410015</course><type>1</type></trkpt>
      <trkpt lat="39.22805781392357" lon="-6.318161414574059"><ele>1645</ele><speed>8.13</speed><time>2016-06-01T15:29:48Z</time><pdop>6.0</pdop><geoidheight>50.60</geoidheight><course>1.7431755</course><type>1</type></trkpt>
      <trkpt lat="39.22820124325085" lon="-6.318151736193339"><ele>1641</ele><speed>8.20</speed><time>2016-06-01T15:29:50Z</time><pdop>6.0</pdop><geoidheight>50.60</geoidheight><course>2.8224847</course><type>1</type></trkpt>
      <trkpt lat="39.22835167055034" lon="-6.318141302496872"><ele>1637</ele><speed>8.06</speed><time>2016-06-01T15:29:52Z</time><pdop>6.0</pdop><geoidheight>50.60</geoidheight><course>2.5980546</course><type>1</type></trkpt>
      <trkpt lat="39.22849856954171" lon="-6.318129566224301"><ele>1633</ele><speed>8.30</speed><time>2016-06-01T15:29:54Z</time><pdop>6.0</pdop><geoidheight>50.60</geoidheight><course>3.5415573</course><type>1</type></trkpt>
      <trkpt lat="39.22864302286522" lon="-6.31812049722942"><ele>1629</ele><speed>8.02</speed><time>2016-06-01T15:29:56Z</time><pdop>6.0</pdop><geoidheight>50.60</geoidheight><course>1.2360896</course><type>1</type></trkpt>
      <trkpt lat="39.22878963961103" lon="-6.318132727116172"><ele>1625</ele><speed>7.74</speed><time>2016-06-01T15:29:58Z</time><pdop>6.0</pdop><geoidheight>50.60</geoidheight><course>355.56052</course><type>1</type></trkpt>
      <trkpt lat="39.22893537026872" lon="-6.318142165640993"><ele>1623</ele><speed>7.64</speed><time>2016-06-01T15:30:00Z</time><pdop>8.0</pdop><geoidheight>50.60</geoidheight><course>358.21002</course><type>1</type></trkpt>
      <trkpt lat="39.229081386907744" lon="-6.318124692504318"><ele>1620</ele><speed>8.07</speed><time>2016-06-01T15:30:02Z</time><pdop>6.0</pdop><geoidheight>50.60</geoidheight><course>2.8769767</course><type>1</type></trkpt>
      <trkpt lat="39.22930833370643" lon="-6.318125602411618"><ele>1615</ele><speed>7.91</speed><time>2016-06-01T15:30:05Z</time><pdop>6.0</pdop><geoidheight>50.60</geoidheight><course>356.7217</course><type>1</type></trkpt>
      <trkpt lat="39.229456517148286" lon="-6.318133217820925"><ele>1612</ele><speed>7.25</speed><time>2016-06-01T15:30:08Z</time><pdop>8.0</pdop><geoidheight>50.60</geoidheight><course>358.6559</course><type>1</type></trkpt>
      <trkpt lat="39.229666453360224" lon="-6.318135903489667"><ele>1609</ele><speed>7.78</speed><time>2016-06-01T15:30:10Z</time><pdop>8.0</pdop><geoidheight>50.60</geoidheight><course>359.17886</course><type>1</type></trkpt>
      <trkpt lat="39.229819725029294" lon="-6.3181319453479015"><ele>1605</ele><speed>8.34</speed><time>2016-06-01T15:30:12Z</time><pdop>8.0</pdop><geoidheight>50.60</geoidheight><course>0.816893</course><type>1</type></trkpt>
      <trkpt lat="39.23002384424228" lon="-6.318128218109529"><ele>1599</ele><speed>7.16</speed><time>2016-06-01T15:30:15Z</time><pdop>8.0</pdop><geoidheight>50.60</geoidheight><course>358.9741</course><type>1</type></trkpt>
      <trkpt lat="39.23021539467134" lon="-6.318150588761326"><ele>1594</ele><speed>8.06</speed><time>2016-06-01T15:30:18Z</time><pdop>6.0</pdop><geoidheight>50.60</geoidheight><course>355.1637</course><type>1</type></trkpt>
      <trkpt lat="39.230358697265935" lon="-6.318169967884301"><ele>1591</ele><speed>8.30</speed><time>2016-06-01T15:30:20Z</time><pdop>8.0</pdop><geoidheight>50.60</geoidheight><course>353.93033</course><type>1</type></trkpt>
      <trkpt lat="39.230569975458316" lon="-6.318207565309084"><ele>1586</ele><speed>8.10</speed><time>2016-06-01T15:30:23Z</time><pdop>12.0</pdop><geoidheight>50.60</geoidheight><course>352.29684</course><type>1</type></trkpt>
      <trkpt lat="39.23079578687541" lon="-6.318252469884321"><ele>1581</ele><speed>8.93</speed><time>2016-06-01T15:30:26Z</time><pdop>12.0</pdop><geoidheight>50.60</geoidheight><course>351.11957</course><type>1</type></trkpt>
      <trkpt lat="39.230957921547144" lon="-6.318289548873367"><ele>1577</ele><speed>9.46</speed><time>2016-06-01T15:30:28Z</time><pdop>6.0</pdop><geoidheight>50.60</geoidheight><course>348.35016</course><type>1</type></trkpt>
      <trkpt lat="39.23118368841531" lon="-6.318328356888952"><ele>1573</ele><speed>8.09</speed><time>2016-06-01T15:30:31Z</time><pdop>12.0</pdop><geoidheight>50.60</geoidheight><course>354.0978</course><type>1</type></trkpt>
      <trkpt lat="39.23140975132438" lon="-6.318339923696001"><ele>1569</ele><speed>8.76</speed><time>2016-06-01T15:30:34Z</time><pdop>6.0</pdop><geoidheight>50.60</geoidheight><course>356.44434</course><type>1</type></trkpt>
      <trkpt lat="39.23163906716437" lon="-6.318327735409183"><ele>1564</ele><speed>8.32</speed><time>2016-06-01T15:30:38Z</time><pdop>12.0</pdop><geoidheight>50.60</geoidheight><course>1.6171486</course><type>1</type></trkpt>
      <trkpt lat="39.23185464598658" lon="-6.318294060838492"><ele>1559</ele><speed>9.37</speed><time>2016-06-01T15:30:40Z</time><pdop>6.0</pdop><geoidheight>50.60</geoidheight><course>5.4256043</course><type>1</type></trkpt>
      <trkpt lat="39.232030977248854" lon="-6.318271546392754"><ele>1556</ele><speed>9.98</speed><time>2016-06-01T15:30:42Z</time><pdop>8.0</pdop><geoidheight>50.60</geoidheight><course>5.2315335</course><type>1</type></trkpt>
      <trkpt lat="39.23222360526993" lon="-6.318236236618308"><ele>1552</ele><speed>9.63</speed><time>2016-06-01T15:30:44Z</time><pdop>6.0</pdop><geoidheight>50.60</geoidheight><course>7.592731</course><type>1</type></trkpt>
      <trkpt lat="39.23240020350797" lon="-6.318198835367685"><ele>1548</ele><speed>10.04</speed><time>2016-06-01T15:30:46Z</time><pdop>12.0</pdop><geoidheight>50.60</geoidheight><course>7.763954</course><type>1</type></trkpt>
      <trkpt lat="39.23266437987885" lon="-6.318170749310146"><ele>1542</ele><speed>9.57</speed><time>2016-06-01T15:30:50Z</time><pdop>12.0</pdop><geoidheight>50.60</geoidheight><course>5.167642</course><type>1</type></trkpt>
      <trkpt lat="39.232894636987666" lon="-6.31815335957418"><ele>1536</ele><speed>8.24</speed><time>2016-06-01T15:30:52Z</time><pdop>12.0</pdop><geoidheight>50.60</geoidheight><course>3.4572124</course><type>1</type></trkpt>
      <trkpt lat="39.23311282619175" lon="-6.3181502560868426"><ele>1530</ele><speed>9.08</speed><time>2016-06-01T15:30:55Z</time><pdop>8.0</pdop><geoidheight>50.60</geoidheight><course>3.8413026</course><type>1</type></trkpt>
      <trkpt lat="39.233323362928424" lon="-6.3181323819573025"><ele>1525</ele><speed>8.27</speed><time>2016-06-01T15:30:58Z</time><pdop>6.0</pdop><geoidheight>50.60</geoidheight><course>4.2954955</course><type>1</type></trkpt>
      <trkpt lat="39.23348205020949" lon="-6.318120768223225"><ele>1522</ele><speed>9.05</speed><time>2016-06-01T15:31:00Z</time><pdop>6.0</pdop><geoidheight>50.60</geoidheight><course>2.5878017</course><type>1</type></trkpt>
      <trkpt lat="39.23364945605885" lon="-6.318108849701057"><ele>1519</ele><speed>8.37</speed><time>2016-06-01T15:31:02Z</time><pdop>6.0</pdop><geoidheight>50.60</geoidheight><course>2.8103867</course><type>1</type></trkpt>
      <trkpt lat="39.233796766780245" lon="-6.318095860234367"><ele>1517</ele><speed>8.17</speed><time>2016-06-01T15:31:04Z</time><pdop>6.0</pdop><geoidheight>50.60</geoidheight><course>2.8962734</course><type>1</type></trkpt>
      <trkpt lat="39.233950620561785" lon="-6.318093549695869"><ele>1515</ele><speed>8.59</speed><time>2016-06-01T15:31:06Z</time><pdop>6.0</pdop><geoidheight>50.60</geoidheight><course>0.7792827</course><type>1</type></trkpt>
      <trkpt lat="39.23418196634868" lon="-6.318089763595387"><ele>1512</ele><speed>7.92</speed><time>2016-06-01T15:31:09Z</time><pdop>8.0</pdop><geoidheight>50.60</geoidheight><course>1.2873782</course><type>1</type></trkpt>
      <trkpt lat="39.23432687336193" lon="-6.318087747709581"><ele>1510</ele><speed>7.89</speed><time>2016-06-01T15:31:11Z</time><pdop>8.0</pdop><geoidheight>50.60</geoidheight><course>359.64035</course><type>1</type></trkpt>
      <trkpt lat="39.234487161142816" lon="-6.3180861965298725"><ele>1508</ele><speed>8.97</speed><time>2016-06-01T15:31:13Z</time><pdop>8.0</pdop><geoidheight>50.60</geoidheight><course>0.9038254</course><type>1</type></trkpt>
      <trkpt lat="39.234646970170566" lon="-6.318069134998297"><ele>1507</ele><speed>8.46</speed><time>2016-06-01T15:31:15Z</time><pdop>8.0</pdop><geoidheight>50.60</geoidheight><course>4.5349936</course><type>1</type></trkpt>
      <trkpt lat="39.234795159385975" lon="-6.318055704602704"><ele>1505</ele><speed>8.45</speed><time>2016-06-01T15:31:17Z</time><pdop>6.0</pdop><geoidheight>50.60</geoidheight><course>3.1381264</course><type>1</type></trkpt>
      <trkpt lat="39.23496571282489" lon="-6.318045579950916"><ele>1503</ele><speed>9.95</speed><time>2016-06-01T15:31:19Z</time><pdop>8.0</pdop><geoidheight>50.60</geoidheight><course>3.392361</course><type>1</type></trkpt>
      <trkpt lat="39.23513912814532" lon="-6.317982607537361"><ele>1500</ele><speed>9.77</speed><time>2016-06-01T15:31:21Z</time><pdop>8.0</pdop><geoidheight>50.60</geoidheight><course>17.131197</course><type>1</type></trkpt>
      <trkpt lat="39.23529513520918" lon="-6.3179243069589175"><ele>1498</ele><speed>9.54</speed><time>2016-06-01T15:31:23Z</time><pdop>6.0</pdop><geoidheight>50.60</geoidheight><course>15.23205</course><type>1</type></trkpt>
      <trkpt lat="39.23545064427214" lon="-6.317878842159038"><ele>1496</ele><speed>9.38</speed><time>2016-06-01T15:31:25Z</time><pdop>6.0</pdop><geoidheight>50.60</geoidheight><course>14.550407</course><type>1</type></trkpt>
      <trkpt lat="39.235616682143174" lon="-6.317819254974074"><ele>1493</ele><speed>10.26</speed><time>2016-06-01T15:31:27Z</time><pdop>8.0</pdop><geoidheight>50.60</geoidheight><course>14.758544</course><type>1</type></trkpt>
      <trkpt lat="39.235788609213984" lon="-6.317769813244062"><ele>1490</ele><speed>10.15</speed><time>2016-06-01T15:31:30Z</time><pdop>6.0</pdop><geoidheight>50.60</geoidheight><course>11.67534</course><type>1</type></trkpt>
      <trkpt lat="39.23595909548449" lon="-6.317733402982153"><ele>1488</ele><speed>9.30</speed><time>2016-06-01T15:31:31Z</time><pdop>6.0</pdop><geoidheight>50.60</geoidheight><course>10.065387</course><type>1</type></trkpt>
      <trkpt lat="39.236126212068385" lon="-6.317699546569788"><ele>1485</ele><speed>10.07</speed><time>2016-06-01T15:31:33Z</time><pdop>6.0</pdop><geoidheight>50.60</geoidheight><course>9.690274</course><type>1</type></trkpt>
      <trkpt lat="39.23631297280268" lon="-6.317674338941906"><ele>1482</ele><speed>10.82</speed><time>2016-06-01T15:31:36Z</time><pdop>8.0</pdop><geoidheight>50.60</geoidheight><course>5.3895593</course><type>1</type></trkpt>
      <trkpt lat="39.236501874678694" lon="-6.317653493280093"><ele>1478</ele><speed>10.46</speed><time>2016-06-01T15:31:37Z</time><pdop>8.0</pdop><geoidheight>50.60</geoidheight><course>6.4605374</course><type>1</type></trkpt>
      <trkpt lat="39.236674623751796" lon="-6.317625409622169"><ele>1474</ele><speed>9.78</speed><time>2016-06-01T15:31:39Z</time><pdop>8.0</pdop><geoidheight>50.60</geoidheight><course>9.365121</course><type>1</type></trkpt>
      <trkpt lat="39.23681789142102" lon="-6.317596069048326"><ele>1470</ele><speed>8.57</speed><time>2016-06-01T15:31:41Z</time><pdop>8.0</pdop><geoidheight>50.60</geoidheight><course>9.635805</course><type>1</type></trkpt>
      <trkpt lat="39.23698637217787" lon="-6.317548243423902"><ele>1468</ele><speed>10.11</speed><time>2016-06-01T15:31:43Z</time><pdop>6.0</pdop><geoidheight>50.60</geoidheight><course>12.027157</course><type>1</type></trkpt>
      <trkpt lat="39.23715090205013" lon="-6.317500405957461"><ele>1467</ele><speed>9.69</speed><time>2016-06-01T15:31:45Z</time><pdop>6.0</pdop><geoidheight>50.60</geoidheight><course>12.045602</course><type>1</type></trkpt>
      <trkpt lat="39.23731682743723" lon="-6.317460728162448"><ele>1466</ele><speed>8.47</speed><time>2016-06-01T15:31:47Z</time><pdop>12.0</pdop><geoidheight>50.60</geoidheight><course>10.726732</course><type>1</type></trkpt>
      <trkpt lat="39.23757915177753" lon="-6.3173879488526845"><ele>1464</ele><speed>10.22</speed><time>2016-06-01T15:31:50Z</time><pdop>8.0</pdop><geoidheight>50.60</geoidheight><course>11.833247</course><type>1</type></trkpt>
      <trkpt lat="39.23776189998298" lon="-6.31734549473016"><ele>1463</ele><speed>10.16</speed><time>2016-06-01T15:31:52Z</time><pdop>8.0</pdop><geoidheight>50.60</geoidheight><course>8.825048</course><type>1</type></trkpt>
      <trkpt lat="39.23792991094484" lon="-6.317299013017949"><ele>1462</ele><speed>9.65</speed><time>2016-06-01T15:31:55Z</time><pdop>6.0</pdop><geoidheight>50.60</geoidheight><course>11.647062</course><type>1</type></trkpt>
      <trkpt lat="39.23810696791927" lon="-6.317248781144398"><ele>1460</ele><speed>11.01</speed><time>2016-06-01T15:31:56Z</time><pdop>8.0</pdop><geoidheight>50.60</geoidheight><course>10.423756</course><type>1</type></trkpt>
      <trkpt lat="39.23828551454773" lon="-6.317210768662555"><ele>1459</ele><speed>8.99</speed><time>2016-06-01T15:31:58Z</time><pdop>6.0</pdop><geoidheight>50.60</geoidheight><course>8.878085</course><type>1</type></trkpt>
      <trkpt lat="39.2384333587721" lon="-6.317185644353793"><ele>1458</ele><speed>7.88</speed><time>2016-06-01T15:32:00Z</time><pdop>6.0</pdop><geoidheight>50.60</geoidheight><course>6.9971414</course><type>1</type></trkpt>
      <trkpt lat="39.23861205005479" lon="-6.317156841425047"><ele>1455</ele><speed>11.53</speed><time>2016-06-01T15:32:02Z</time><pdop>8.0</pdop><geoidheight>50.60</geoidheight><course>6.7393</course><type>1</type></trkpt>
      <trkpt lat="39.23881481102791" lon="-6.3171316141174705"><ele>1452</ele><speed>9.82</speed><time>2016-06-01T15:32:04Z</time><pdop>12.0</pdop><geoidheight>50.60</geoidheight><course>7.9295382</course><type>1</type></trkpt>
      <trkpt lat="39.239052305109354" lon="-6.3170918879554945"><ele>1448</ele><speed>9.50</speed><time>2016-06-01T15:32:08Z</time><pdop>12.0</pdop><geoidheight>50.60</geoidheight><course>6.959874</course><type>1</type></trkpt>
      <trkpt lat="39.23932171774274" lon="-6.317059924516271"><ele>1443</ele><speed>10.55</speed><time>2016-06-01T15:32:10Z</time><pdop>8.0</pdop><geoidheight>50.60</geoidheight><course>2.5940084</course><type>1</type></trkpt>
      <trkpt lat="39.23949783129421" lon="-6.317057064593302"><ele>1439</ele><speed>8.67</speed><time>2016-06-01T15:32:12Z</time><pdop>8.0</pdop><geoidheight>50.60</geoidheight><course>359.7643</course><type>1</type></trkpt>
      <trkpt lat="39.23966008724443" lon="-6.317055076995754"><ele>1435</ele><speed>8.75</speed><time>2016-06-01T15:32:15Z</time><pdop>8.0</pdop><geoidheight>50.60</geoidheight><course>1.5338838</course><type>1</type></trkpt>
      <trkpt lat="39.23982910392503" lon="-6.317056585676323"><ele>1430</ele><speed>10.04</speed><time>2016-06-01T15:32:16Z</time><pdop>8.0</pdop><geoidheight>50.60</geoidheight><course>0.27831742</course><type>1</type></trkpt>
      <trkpt lat="39.23999727523399" lon="-6.317050844631479"><ele>1426</ele><speed>9.44</speed><time>2016-06-01T15:32:18Z</time><pdop>6.0</pdop><geoidheight>50.60</geoidheight><course>4.595343</course><type>1</type></trkpt>
      <trkpt lat="39.24013130119193" lon="-6.3170294981722535"><ele>1424</ele><speed>7.84</speed><time>2016-06-01T15:32:20Z</time><pdop>6.0</pdop><geoidheight>50.60</geoidheight><course>7.009418</course><type>1</type></trkpt>
      <trkpt lat="39.24036100172684" lon="-6.31699769780703"><ele>1422</ele><speed>9.63</speed><time>2016-06-01T15:32:23Z</time><pdop>6.0</pdop><geoidheight>50.60</geoidheight><course>8.911561</course><type>1</type></trkpt>
      <trkpt lat="39.240486231715664" lon="-6.31696416642652"><ele>1422</ele><speed>6.50</speed><time>2016-06-01T15:32:25Z</time><pdop>6.0</pdop><geoidheight>50.60</geoidheight><course>11.8034315</course><type>1</type></trkpt>
      <trkpt lat="39.24064616916723" lon="-6.316905449934477"><ele>1423</ele><speed>6.79</speed><time>2016-06-01T15:32:28Z</time><pdop>12.0</pdop><geoidheight>50.60</geoidheight><course>14.172258</course><type>1</type></trkpt>
      <trkpt lat="39.2408425566155" lon="-6.316842932646158"><ele>1424</ele><speed>6.07</speed><time>2016-06-01T15:32:31Z</time><pdop>8.0</pdop><geoidheight>50.60</geoidheight><course>11.71998</course><type>1</type></trkpt>
      <trkpt lat="39.241027326614194" lon="-6.316806764486093"><ele>1425</ele><speed>7.12</speed><time>2016-06-01T15:32:34Z</time><pdop>8.0</pdop><geoidheight>50.60</geoidheight><course>6.2296367</course><type>1</type></trkpt>
      <trkpt lat="39.2412156700566" lon="-6.31678063908209"><ele>1426</ele><speed>6.14</speed><time>2016-06-01T15:32:38Z</time><pdop>12.0</pdop><geoidheight>50.60</geoidheight><course>4.835923</course><type>1</type></trkpt>
      <trkpt lat="39.24140942100125" lon="-6.316753708669068"><ele>1428</ele><speed>6.44</speed><time>2016-06-01T15:32:40Z</time><pdop>8.0</pdop><geoidheight>50.60</geoidheight><course>4.310731</course><type>1</type></trkpt>
      <trkpt lat="39.24159048601493" lon="-6.316755218624794"><ele>1430</ele><speed>7.70</speed><time>2016-06-01T15:32:43Z</time><pdop>8.0</pdop><geoidheight>50.60</geoidheight><course>356.18658</course><type>1</type></trkpt>
      <trkpt lat="39.24177382059464" lon="-6.31679310662765"><ele>1433</ele><speed>7.26</speed><time>2016-06-01T15:32:46Z</time><pdop>8.0</pdop><geoidheight>50.60</geoidheight><course>336.60385</course><type>1</type></trkpt>
      <trkpt lat="39.24187790940056" lon="-6.317002461889361"><ele>1435</ele><speed>7.40</speed><time>2016-06-01T15:32:50Z</time><pdop>8.0</pdop><geoidheight>50.60</geoidheight><course>290.58685</course><type>1</type></trkpt>
      <trkpt lat="39.24185193758075" lon="-6.317262367202151"><ele>1436</ele><speed>8.80</speed><time>2016-06-01T15:32:52Z</time><pdop>8.0</pdop><geoidheight>50.60</geoidheight><course>258.7969</course><type>1</type></trkpt>
      <trkpt lat="39.24176509362025" lon="-6.317459005639511"><ele>1435</ele><speed>9.49</speed><time>2016-06-01T15:32:55Z</time><pdop>8.0</pdop><geoidheight>50.60</geoidheight><course>240.82423</course><type>1</type></trkpt>
      <trkpt lat="39.241657071071295" lon="-6.317631163833597"><ele>1434</ele><speed>8.89</speed><time>2016-06-01T15:32:56Z</time><pdop>8.0</pdop><geoidheight>50.60</geoidheight><course>224.6619</course><type>1</type></trkpt>
      <trkpt lat="39.24150859429452" lon="-6.317741661355213"><ele>1433</ele><speed>10.48</speed><time>2016-06-01T15:32:58Z</time><pdop>8.0</pdop><geoidheight>50.60</geoidheight><course>196.99649</course><type>1</type></trkpt>
      <trkpt lat="39.24130771976632" lon="-6.317761689694631"><ele>1431</ele><speed>10.99</speed><time>2016-06-01T15:33:00Z</time><pdop>12.0</pdop><geoidheight>50.60</geoidheight><course>181.74329</course><type>1</type></trkpt>
      <trkpt lat="39.241028766395694" lon="-6.317633806353275"><ele>1429</ele><speed>11.52</speed><time>2016-06-01T15:33:03Z</time><pdop>16.0</pdop><geoidheight>50.60</geoidheight><course>152.31741</course><type>1</type></trkpt>
      <trkpt lat="39.24087266010002" lon="-6.317293632066674"><ele>1426</ele><speed>9.92</speed><time>2016-06-01T15:33:06Z</time><pdop>8.0</pdop><geoidheight>50.60</geoidheight><course>99.79962</course><type>1</type></trkpt>
      <trkpt lat="39.240889940849456" lon="-6.317030677752269"><ele>1428</ele><speed>7.28</speed><time>2016-06-01T15:33:09Z</time><pdop>8.0</pdop><geoidheight>50.60</geoidheight><course>80.102516</course><type>1</type></trkpt>
      <trkpt lat="39.24095009961411" lon="-6.316838283607413"><ele>1432</ele><speed>7.79</speed><time>2016-06-01T15:33:12Z</time><pdop>6.0</pdop><geoidheight>50.60</geoidheight><course>63.31583</course><type>1</type></trkpt>
      <trkpt lat="39.241053463600714" lon="-6.3167090848684015"><ele>1435</ele><speed>7.33</speed><time>2016-06-01T15:33:13Z</time><pdop>8.0</pdop><geoidheight>50.60</geoidheight><course>30.766975</course><type>1</type></trkpt>
      <trkpt lat="39.241251888077564" lon="-6.316631610525835"><ele>1435</ele><speed>5.32</speed><time>2016-06-01T15:33:17Z</time><pdop>8.0</pdop><geoidheight>50.60</geoidheight><course>14.732591</course><type>1</type></trkpt>
      <trkpt lat="39.24141365117806" lon="-6.316591406393438"><ele>1436</ele><speed>7.89</speed><time>2016-06-01T15:33:20Z</time><pdop>8.0</pdop><geoidheight>50.60</geoidheight><course>12.288189</course><type>1</type></trkpt>
      <trkpt lat="39.241606667549334" lon="-6.3165619190872375"><ele>1436</ele><speed>7.05</speed><time>2016-06-01T15:33:24Z</time><pdop>6.0</pdop><geoidheight>50.60</geoidheight><course>11.171562</course><type>1</type></trkpt>
      <trkpt lat="39.24176406408323" lon="-6.316509692933946"><ele>1437</ele><speed>6.73</speed><time>2016-06-01T15:33:26Z</time><pdop>8.0</pdop><geoidheight>50.60</geoidheight><course>17.426592</course><type>1</type></trkpt>
      <trkpt lat="39.241960998361826" lon="-6.31647081078414"><ele>1435</ele><speed>8.10</speed><time>2016-06-01T15:33:29Z</time><pdop>12.0</pdop><geoidheight>50.60</geoidheight><course>7.6742854</course><type>1</type></trkpt>
      <trkpt lat="39.242180002073184" lon="-6.316465745403065"><ele>1433</ele><speed>8.36</speed><time>2016-06-01T15:33:32Z</time><pdop>6.0</pdop><geoidheight>50.60</geoidheight><course>359.97287</course><type>1</type></trkpt>
      <trkpt lat="39.24233007761742" lon="-6.316483916634655"><ele>1432</ele><speed>7.60</speed><time>2016-06-01T15:33:34Z</time><pdop>6.0</pdop><geoidheight>50.60</geoidheight><course>355.13754</course><type>1</type></trkpt>
      <trkpt lat="39.24249676308435" lon="-6.316492210046387"><ele>1433</ele><speed>8.67</speed><time>2016-06-01T15:33:36Z</time><pdop>12.0</pdop><geoidheight>50.60</geoidheight><course>358.3106</course><type>1</type></trkpt>
      <trkpt lat="39.24266275530673" lon="-6.316498127842476"><ele>1433</ele><speed>8.59</speed><time>2016-06-01T15:33:38Z</time><pdop>6.0</pdop><geoidheight>50.60</geoidheight><course>356.17392</course><type>1</type></trkpt>
      <trkpt lat="39.2428257950334" lon="-6.316511619426755"><ele>1432</ele><speed>8.76</speed><time>2016-06-01T15:33:40Z</time><pdop>12.0</pdop><geoidheight>50.60</geoidheight><course>356.74075</course><type>1</type></trkpt>
      <trkpt lat="39.24306752827992" lon="-6.3165073282021735"><ele>1432</ele><speed>8.70</speed><time>2016-06-01T15:33:43Z</time><pdop>6.0</pdop><geoidheight>50.60</geoidheight><course>0.007984517</course><type>1</type></trkpt>
      <trkpt lat="39.243209850149114" lon="-6.3165092956360915"><ele>1432</ele><speed>7.04</speed><time>2016-06-01T15:33:45Z</time><pdop>6.0</pdop><geoidheight>50.60</geoidheight><course>358.64703</course><type>1</type></trkpt>
      <trkpt lat="39.24332738793647" lon="-6.316527703826715"><ele>1432</ele><speed>7.01</speed><time>2016-06-01T15:33:47Z</time><pdop>6.0</pdop><geoidheight>50.60</geoidheight><course>354.59247</course><type>1</type></trkpt>
      <trkpt lat="39.24344148318667" lon="-6.31656239696337"><ele>1432</ele><speed>6.51</speed><time>2016-06-01T15:33:49Z</time><pdop>6.0</pdop><geoidheight>50.60</geoidheight><course>349.76306</course><type>1</type></trkpt>
      <trkpt lat="39.24365206613143" lon="-6.316538167541161"><ele>1433</ele><speed>7.69</speed><time>2016-06-01T15:33:52Z</time><pdop>8.0</pdop><geoidheight>50.60</geoidheight><course>12.355672</course><type>1</type></trkpt>
      <trkpt lat="39.2438347883521" lon="-6.316485407328102"><ele>1434</ele><speed>7.13</speed><time>2016-06-01T15:33:55Z</time><pdop>8.0</pdop><geoidheight>50.60</geoidheight><course>13.795716</course><type>1</type></trkpt>
      <trkpt lat="39.24402242984674" lon="-6.316356136630167"><ele>1434</ele><speed>8.47</speed><time>2016-06-01T15:33:58Z</time><pdop>8.0</pdop><geoidheight>50.60</geoidheight><course>33.453762</course><type>1</type></trkpt>
      <trkpt lat="39.24414646332637" lon="-6.316261543575348"><ele>1436</ele><speed>7.62</speed><time>2016-06-01T15:34:01Z</time><pdop>8.0</pdop><geoidheight>50.60</geoidheight><course>27.761505</course><type>1</type></trkpt>
      <trkpt lat="39.24436036776142" lon="-6.316240538805778"><ele>1437</ele><speed>9.30</speed><time>2016-06-01T15:34:03Z</time><pdop>8.0</pdop><geoidheight>50.60</geoidheight><course>2.0579307</course><type>1</type></trkpt>
      <trkpt lat="39.244513346544856" lon="-6.316198634336218"><ele>1435</ele><speed>9.84</speed><time>2016-06-01T15:34:05Z</time><pdop>8.0</pdop><geoidheight>50.60</geoidheight><course>7.77938</course><type>1</type></trkpt>
      <trkpt lat="39.244662802290264" lon="-6.3161405341249806"><ele>1431</ele><speed>8.72</speed><time>2016-06-01T15:34:07Z</time><pdop>6.0</pdop><geoidheight>50.60</geoidheight><course>12.265424</course><type>1</type></trkpt>
      <trkpt lat="39.24483126275512" lon="-6.316071856731051"><ele>1426</ele><speed>10.42</speed><time>2016-06-01T15:34:09Z</time><pdop>6.0</pdop><geoidheight>50.60</geoidheight><course>14.760311</course><type>1</type></trkpt>
      <trkpt lat="39.245053041119654" lon="-6.316002261092403"><ele>1419</ele><speed>12.16</speed><time>2016-06-01T15:34:11Z</time><pdop>12.0</pdop><geoidheight>50.60</geoidheight><course>11.21007</course><type>1</type></trkpt>
      <trkpt lat="39.24525369193379" lon="-6.316027634653776"><ele>1411</ele><speed>11.81</speed><time>2016-06-01T15:34:13Z</time><pdop>8.0</pdop><geoidheight>50.60</geoidheight><course>353.9047</course><type>1</type></trkpt>
      <trkpt lat="39.24548272753621" lon="-6.316053824491533"><ele>1403</ele><speed>8.12</speed><time>2016-06-01T15:34:16Z</time><pdop>12.0</pdop><geoidheight>50.60</geoidheight><course>358.50592</course><type>1</type></trkpt>
      <trkpt lat="39.245687995594274" lon="-6.316061091228639"><ele>1397</ele><speed>8.61</speed><time>2016-06-01T15:34:19Z</time><pdop>8.0</pdop><geoidheight>50.60</geoidheight><course>357.2906</course><type>1</type></trkpt>
      <trkpt lat="39.24585089903807" lon="-6.316043046290554"><ele>1395</ele><speed>8.45</speed><time>2016-06-01T15:34:21Z</time><pdop>8.0</pdop><geoidheight>50.60</geoidheight><course>13.874133</course><type>1</type></trkpt>
      <trkpt lat="39.245991242873785" lon="-6.315992596972058"><ele>1395</ele><speed>6.16</speed><time>2016-06-01T15:34:23Z</time><pdop>8.0</pdop><geoidheight>50.60</geoidheight><course>18.445488</course><type>1</type></trkpt>
      <trkpt lat="39.246212546124745" lon="-6.315920855856262"><ele>1397</ele><speed>8.54</speed><time>2016-06-01T15:34:27Z</time><pdop>12.0</pdop><geoidheight>50.60</geoidheight><course>20.505678</course><type>1</type></trkpt>
      <trkpt lat="39.24642787709485" lon="-6.3157802824080775"><ele>1388</ele><speed>9.89</speed><time>2016-06-01T15:34:31Z</time><pdop>8.0</pdop><geoidheight>50.60</geoidheight><course>20.508608</course><type>1</type></trkpt>
      <trkpt lat="39.24656672337573" lon="-6.315706714510579"><ele>1381</ele><speed>8.50</speed><time>2016-06-01T15:34:32Z</time><pdop>8.0</pdop><geoidheight>50.60</geoidheight><course>17.512016</course><type>1</type></trkpt>
      <trkpt lat="39.246738486718435" lon="-6.315658522465702"><ele>1371</ele><speed>6.03</speed><time>2016-06-01T15:34:35Z</time><pdop>8.0</pdop><geoidheight>50.60</geoidheight><course>9.567442</course><type>1</type></trkpt>
      <trkpt lat="39.24693686979772" lon="-6.315704216850525"><ele>1360</ele><speed>8.60</speed><time>2016-06-01T15:34:38Z</time><pdop>8.0</pdop><geoidheight>50.60</geoidheight><course>339.33728</course><type>1</type></trkpt>
      <trkpt lat="39.24710082502374" lon="-6.315815014623702"><ele>1352</ele><speed>6.79</speed><time>2016-06-01T15:34:42Z</time><pdop>12.0</pdop><geoidheight>50.60</geoidheight><course>338.30792</course><type>1</type></trkpt>
      <trkpt lat="39.247252213377934" lon="-6.315922981901357"><ele>1345</ele><speed>8.60</speed><time>2016-06-01T15:34:44Z</time><pdop>6.0</pdop><geoidheight>50.60</geoidheight><course>333.8547</course><type>1</type></trkpt>
      <trkpt lat="39.247376189369014" lon="-6.315977330379636"><ele>1340</ele><speed>8.40</speed><time>2016-06-01T15:34:46Z</time><pdop>6.0</pdop><geoidheight>50.60</geoidheight><course>353.7239</course><type>1</type></trkpt>
      <trkpt lat="39.247498068236" lon="-6.316027888729418"><ele>1338</ele><speed>7.18</speed><time>2016-06-01T15:34:48Z</time><pdop>8.0</pdop><geoidheight>50.60</geoidheight><course>334.99118</course><type>1</type></trkpt>
      <trkpt lat="39.24758287813618" lon="-6.316254667244039"><ele>1332</ele><speed>9.32</speed><time>2016-06-01T15:34:52Z</time><pdop>8.0</pdop><geoidheight>50.60</geoidheight><course>286.1777</course><type>1</type></trkpt>
      <trkpt lat="39.24761079207771" lon="-6.316515141024596"><ele>1325</ele><speed>7.62</speed><time>2016-06-01T15:34:54Z</time><pdop>6.0</pdop><geoidheight>50.60</geoidheight><course>285.662</course><type>1</type></trkpt>
      <trkpt lat="39.2476879759269" lon="-6.31668057118028"><ele>1318</ele><speed>8.51</speed><time>2016-06-01T15:34:56Z</time><pdop>6.0</pdop><geoidheight>50.60</geoidheight><course>307.85992</course><type>1</type></trkpt>
      <trkpt lat="39.24782066074399" lon="-6.316782690930838"><ele>1312</ele><speed>8.03</speed><time>2016-06-01T15:34:58Z</time><pdop>8.0</pdop><geoidheight>50.60</geoidheight><course>339.23038</course><type>1</type></trkpt>
      <trkpt lat="39.248007671097945" lon="-6.3168726557554065"><ele>1307</ele><speed>7.47</speed><time>2016-06-01T15:35:01Z</time><pdop>8.0</pdop><geoidheight>50.60</geoidheight><course>338.02737</course><type>1</type></trkpt>
      <trkpt lat="39.248159659457066" lon="-6.316937821414099"><ele>1303</ele><speed>9.94</speed><time>2016-06-01T15:35:04Z</time><pdop>8.0</pdop><geoidheight>50.60</geoidheight><course>340.80966</course><type>1</type></trkpt>
      <trkpt lat="39.24831493020243" lon="-6.31692890912982"><ele>1299</ele><speed>8.39</speed><time>2016-06-01T15:35:05Z</time><pdop>8.0</pdop><geoidheight>50.60</geoidheight><course>359.1857</course><type>1</type></trkpt>
      <trkpt lat="39.24852311930547" lon="-6.3168931497574246"><ele>1294</ele><speed>8.41</speed><time>2016-06-01T15:35:08Z</time><pdop>8.0</pdop><geoidheight>50.60</geoidheight><course>4.480733</course><type>1</type></trkpt>
      <trkpt lat="39.24867379673199" lon="-6.31686226740106"><ele>1289</ele><speed>8.93</speed><time>2016-06-01T15:35:10Z</time><pdop>8.0</pdop><geoidheight>50.60</geoidheight><course>5.8843822</course><type>1</type></trkpt>
      <trkpt lat="39.24888606304361" lon="-6.316846425157629"><ele>1281</ele><speed>7.79</speed><time>2016-06-01T15:35:13Z</time><pdop>12.0</pdop><geoidheight>50.60</geoidheight><course>359.818</course><type>1</type></trkpt>
      <trkpt lat="39.24915074613107" lon="-6.316866724979289"><ele>1267</ele><speed>8.44</speed><time>2016-06-01T15:35:17Z</time><pdop>12.0</pdop><geoidheight>50.60</geoidheight><course>1.6222887</course><type>1</type></trkpt>
      <trkpt lat="39.2493567434371" lon="-6.316869531113613"><ele>1260</ele><speed>7.47</speed><time>2016-06-01T15:35:20Z</time><pdop>8.0</pdop><geoidheight>50.60</geoidheight><course>0.39819667</course><type>1</type></trkpt>
      <trkpt lat="39.24957807982542" lon="-6.316860643743518"><ele>1256</ele><speed>9.19</speed><time>2016-06-01T15:35:23Z</time><pdop>12.0</pdop><geoidheight>50.60</geoidheight><course>3.7051446</course><type>1</type></trkpt>
      <trkpt lat="39.24982714919119" lon="-6.316816382702869"><ele>1253</ele><speed>9.54</speed><time>2016-06-01T15:35:27Z</time><pdop>12.0</pdop><geoidheight>50.60</geoidheight><course>4.4875236</course><type>1</type></trkpt>
      <trkpt lat="39.25003875742671" lon="-6.316785390260699"><ele>1253</ele><speed>6.72</speed><time>2016-06-01T15:35:30Z</time><pdop>8.0</pdop><geoidheight>50.60</geoidheight><course>359.45898</course><type>1</type></trkpt>
      <trkpt lat="39.25022547619199" lon="-6.316826833505423"><ele>1251</ele><speed>7.93</speed><time>2016-06-01T15:35:32Z</time><pdop>6.0</pdop><geoidheight>50.60</geoidheight><course>350.477</course><type>1</type></trkpt>
      <trkpt lat="39.250462280460575" lon="-6.316890525180405"><ele>1246</ele><speed>9.91</speed><time>2016-06-01T15:35:36Z</time><pdop>12.0</pdop><geoidheight>50.60</geoidheight><course>348.8927</course><type>1</type></trkpt>
      <trkpt lat="39.25066106643091" lon="-6.316919079834141"><ele>1242</ele><speed>7.32</speed><time>2016-06-01T15:35:38Z</time><pdop>8.0</pdop><geoidheight>50.60</geoidheight><course>353.59958</course><type>1</type></trkpt>
      <trkpt lat="39.25083021312698" lon="-6.316937775151629"><ele>1238</ele><speed>6.77</speed><time>2016-06-01T15:35:41Z</time><pdop>8.0</pdop><geoidheight>50.60</geoidheight><course>6.777978</course><type>1</type></trkpt>
      <trkpt lat="39.25097097851941" lon="-6.316894381184083"><ele>1235</ele><speed>10.15</speed><time>2016-06-01T15:35:43Z</time><pdop>8.0</pdop><geoidheight>50.60</geoidheight><course>13.195892</course><type>1</type></trkpt>
      <trkpt lat="39.25122598702259" lon="-6.3168070277799835"><ele>1227</ele><speed>9.13</speed><time>2016-06-01T15:35:46Z</time><pdop>8.0</pdop><geoidheight>50.60</geoidheight><course>12.360775</course><type>1</type></trkpt>
      <trkpt lat="39.251375531738844" lon="-6.316764874835435"><ele>1224</ele><speed>8.26</speed><time>2016-06-01T15:35:49Z</time><pdop>6.0</pdop><geoidheight>50.60</geoidheight><course>10.940576</course><type>1</type></trkpt>
      <trkpt lat="39.251527753272455" lon="-6.3167203991925955"><ele>1220</ele><speed>9.77</speed><time>2016-06-01T15:35:50Z</time><pdop>6.0</pdop><geoidheight>50.60</geoidheight><course>10.63036</course><type>1</type></trkpt>
      <trkpt lat="39.2516924356327" lon="-6.316679724060215"><ele>1216</ele><speed>9.73</speed><time>2016-06-01T15:35:52Z</time><pdop>8.0</pdop><geoidheight>50.60</geoidheight><course>8.125259</course><type>1</type></trkpt>
      <trkpt lat="39.25184424221062" lon="-6.316653633777072"><ele>1213</ele><speed>8.73</speed><time>2016-06-01T15:35:54Z</time><pdop>6.0</pdop><geoidheight>50.60</geoidheight><course>5.876619</course><type>1</type></trkpt>
      <trkpt lat="39.25199840579646" lon="-6.316630229506946"><ele>1209</ele><speed>9.10</speed><time>2016-06-01T15:35:57Z</time><pdop>6.0</pdop><geoidheight>50.60</geoidheight><course>6.454769</course><type>1</type></trkpt>
      <trkpt lat="39.252182974086715" lon="-6.316593427310637"><ele>1206</ele><speed>5.53</speed><time>2016-06-01T15:35:59Z</time><pdop>12.0</pdop><geoidheight>50.60</geoidheight><course>10.2871</course><type>1</type></trkpt>
      <trkpt lat="39.25240926448193" lon="-6.316562195484982"><ele>1202</ele><speed>7.35</speed><time>2016-06-01T15:36:03Z</time><pdop>12.0</pdop><geoidheight>50.60</geoidheight><course>2.5613868</course><type>1</type></trkpt>
      <trkpt lat="39.2526342801402" lon="-6.316692143673287"><ele>1195</ele><speed>6.28</speed><time>2016-06-01T15:36:08Z</time><pdop>12.0</pdop><geoidheight>50.60</geoidheight><course>332.22708</course><type>1</type></trkpt>
      <trkpt lat="39.25284427756729" lon="-6.316817394510198"><ele>1189</ele><speed>6.73</speed><time>2016-06-01T15:36:11Z</time><pdop>8.0</pdop><geoidheight>50.60</geoidheight><course>333.0835</course><type>1</type></trkpt>
      <trkpt lat="39.25300068207376" lon="-6.316848738296535"><ele>1187</ele><speed>6.00</speed><time>2016-06-01T15:36:15Z</time><pdop>8.0</pdop><geoidheight>50.60</geoidheight><course>1.5870014</course><type>1</type></trkpt>
      <trkpt lat="39.25316732735501" lon="-6.316839032159419"><ele>1182</ele><speed>6.38</speed><time>2016-06-01T15:36:17Z</time><pdop>6.0</pdop><geoidheight>50.60</geoidheight><course>0.875901</course><type>1</type></trkpt>
      <trkpt lat="39.25335293679706" lon="-6.316790829377189"><ele>1175</ele><speed>6.08</speed><time>2016-06-01T15:36:21Z</time><pdop>6.0</pdop><geoidheight>50.60</geoidheight><course>32.626453</course><type>1</type></trkpt>
      <trkpt lat="39.25347117801755" lon="-6.316646844402827"><ele>1172</ele><speed>7.29</speed><time>2016-06-01T15:36:25Z</time><pdop>6.0</pdop><geoidheight>50.60</geoidheight><course>39.8729</course><type>1</type></trkpt>
      <trkpt lat="39.25357083449412" lon="-6.316479774899513"><ele>1169</ele><speed>6.89</speed><time>2016-06-01T15:36:27Z</time><pdop>8.0</pdop><geoidheight>50.60</geoidheight><course>43.721695</course><type>1</type></trkpt>
      <trkpt lat="39.253488869985546" lon="-6.316143255119426"><ele>1167</ele><speed>9.86</speed><time>2016-06-01T15:36:30Z</time><pdop>12.0</pdop><geoidheight>50.60</geoidheight><course>120.535545</course><type>1</type></trkpt>
      <trkpt lat="39.253330455646505" lon="-6.315952329939697"><ele>1165</ele><speed>11.24</speed><time>2016-06-01T15:36:33Z</time><pdop>12.0</pdop><geoidheight>50.60</geoidheight><course>138.23753</course><type>1</type></trkpt>
      <trkpt lat="39.25300085982916" lon="-6.315928868420365"><ele>1160</ele><speed>11.79</speed><time>2016-06-01T15:36:35Z</time><pdop>16.0</pdop><geoidheight>50.60</geoidheight><course>194.2463</course><type>1</type></trkpt>
      <trkpt lat="39.25275332635673" lon="-6.3161644610805165"><ele>1155</ele><speed>11.53</speed><time>2016-06-01T15:36:38Z</time><pdop>12.0</pdop><geoidheight>50.60</geoidheight><course>224.85765</course><type>1</type></trkpt>
      <trkpt lat="39.25267414076602" lon="-6.316534934450645"><ele>1148</ele><speed>10.19</speed><time>2016-06-01T15:36:42Z</time><pdop>16.0</pdop><geoidheight>50.60</geoidheight><course>271.2835</course><type>1</type></trkpt>
      <trkpt lat="39.25274792397432" lon="-6.316849873231654"><ele>1142</ele><speed>8.94</speed><time>2016-06-01T15:36:44Z</time><pdop>8.0</pdop><geoidheight>50.60</geoidheight><course>295.10974</course><type>1</type></trkpt>
      <trkpt lat="39.25283954885195" lon="-6.317035949229491"><ele>1136</ele><speed>6.32</speed><time>2016-06-01T15:36:47Z</time><pdop>8.0</pdop><geoidheight>50.60</geoidheight><course>302.8798</course><type>1</type></trkpt>
      <trkpt lat="39.252972525367696" lon="-6.31723391646415"><ele>1132</ele><speed>7.92</speed><time>2016-06-01T15:36:50Z</time><pdop>8.0</pdop><geoidheight>50.60</geoidheight><course>306.66025</course><type>1</type></trkpt>
      <trkpt lat="39.253096465227586" lon="-6.31740369537698"><ele>1128</ele><speed>6.40</speed><time>2016-06-01T15:36:53Z</time><pdop>8.0</pdop><geoidheight>50.60</geoidheight><course>309.87628</course><type>1</type></trkpt>
      <trkpt lat="39.25320516844693" lon="-6.317584515768262"><ele>1126</ele><speed>7.03</speed><time>2016-06-01T15:36:56Z</time><pdop>6.0</pdop><geoidheight>50.60</geoidheight><course>306.99005</course><type>1</type></trkpt>
      <trkpt lat="39.25327115238736" lon="-6.317697809632876"><ele>1124</ele><speed>6.28</speed><time>2016-06-01T15:36:58Z</time><pdop>6.0</pdop><geoidheight>50.60</geoidheight><course>307.63754</course><type>1</type></trkpt>
      <trkpt lat="39.25332958032172" lon="-6.317819384288239"><ele>1124</ele><speed>6.46</speed><time>2016-06-01T15:37:00Z</time><pdop>6.0</pdop><geoidheight>50.60</geoidheight><course>303.6967</course><type>1</type></trkpt>
      <trkpt lat="39.25341455920797" lon="-6.317936053223625"><ele>1123</ele><speed>7.72</speed><time>2016-06-01T15:37:02Z</time><pdop>6.0</pdop><geoidheight>50.60</geoidheight><course>321.15643</course><type>1</type></trkpt>
      <trkpt lat="39.25350170654805" lon="-6.318061480194372"><ele>1122</ele><speed>7.67</speed><time>2016-06-01T15:37:04Z</time><pdop>6.0</pdop><geoidheight>50.60</geoidheight><course>301.688</course><type>1</type></trkpt>
      <trkpt lat="39.25354882755944" lon="-6.318280345624332"><ele>1121</ele><speed>5.97</speed><time>2016-06-01T15:37:08Z</time><pdop>8.0</pdop><geoidheight>50.60</geoidheight><course>283.50223</course><type>1</type></trkpt>
      <trkpt lat="39.2535838324276" lon="-6.318487474184196"><ele>1120</ele><speed>6.40</speed><time>2016-06-01T15:37:10Z</time><pdop>8.0</pdop><geoidheight>50.60</geoidheight><course>282.75122</course><type>1</type></trkpt>
      <trkpt lat="39.25367748008991" lon="-6.31863315472978"><ele>1120</ele><speed>4.63</speed><time>2016-06-01T15:37:14Z</time><pdop>8.0</pdop><geoidheight>50.60</geoidheight><course>341.88885</course><type>1</type></trkpt>
      <trkpt lat="39.25382343340137" lon="-6.318681861790706"><ele>1120</ele><speed>4.06</speed><time>2016-06-01T15:37:18Z</time><pdop>8.0</pdop><geoidheight>50.60</geoidheight><course>326.89008</course><type>1</type></trkpt>
      <trkpt lat="39.253934608911784" lon="-6.318825961099852"><ele>1124</ele><speed>4.12</speed><time>2016-06-01T15:37:22Z</time><pdop>8.0</pdop><geoidheight>50.60</geoidheight><course>321.9571</course><type>1</type></trkpt>
      <trkpt lat="39.254091932122755" lon="-6.318709886769562"><ele>1129</ele><speed>8.67</speed><time>2016-06-01T15:37:26Z</time><pdop>8.0</pdop><geoidheight>50.60</geoidheight><course>35.53291</course><type>1</type></trkpt>
      <trkpt lat="39.253899138918186" lon="-6.318380765003688"><ele>1129</ele><speed>12.33</speed><time>2016-06-01T15:37:29Z</time><pdop>8.0</pdop><geoidheight>50.60</geoidheight><course>152.27422</course><type>1</type></trkpt>
      <trkpt lat="39.25367733814567" lon="-6.318271062078666"><ele>1130</ele><speed>11.83</speed><time>2016-06-01T15:37:31Z</time><pdop>12.0</pdop><geoidheight>50.60</geoidheight><course>159.73445</course><type>1</type></trkpt>
      <trkpt lat="39.25332441318365" lon="-6.318362576663187"><ele>1129</ele><speed>12.98</speed><time>2016-06-01T15:37:34Z</time><pdop>12.0</pdop><geoidheight>50.60</geoidheight><course>209.08438</course><type>1</type></trkpt>
      <trkpt lat="39.253189896341055" lon="-6.318674349045803"><ele>1132</ele><speed>8.70</speed><time>2016-06-01T15:37:36Z</time><pdop>16.0</pdop><geoidheight>50.60</geoidheight><course>250.60059</course><type>1</type></trkpt>
      <trkpt lat="39.25313464656895" lon="-6.318989134651333"><ele>1135</ele><speed>7.32</speed><time>2016-06-01T15:37:41Z</time><pdop>8.0</pdop><geoidheight>50.60</geoidheight><course>277.16376</course><type>1</type></trkpt>
      <trkpt lat="39.25326218036689" lon="-6.319219196084038"><ele>1133</ele><speed>5.20</speed><time>2016-06-01T15:37:45Z</time><pdop>8.0</pdop><geoidheight>50.60</geoidheight><course>315.66763</course><type>1</type></trkpt>
      <trkpt lat="39.25340869494537" lon="-6.31928423610501"><ele>1132</ele><speed>6.61</speed><time>2016-06-01T15:37:48Z</time><pdop>8.0</pdop><geoidheight>50.60</geoidheight><course>358.0901</course><type>1</type></trkpt>
      <trkpt lat="39.25358926753654" lon="-6.31916114999854"><ele>1135</ele><speed>5.25</speed><time>2016-06-01T15:37:52Z</time><pdop>12.0</pdop><geoidheight>50.60</geoidheight><course>37.672195</course><type>1</type></trkpt>
      <trkpt lat="39.25375839264639" lon="-6.319071362761652"><ele>1136</ele><speed>4.80</speed><time>2016-06-01T15:37:56Z</time><pdop>8.0</pdop><geoidheight>50.60</geoidheight><course>2.238911</course><type>1</type></trkpt>
      <trkpt lat="39.253936303705615" lon="-6.319190117292345"><ele>1137</ele><speed>4.74</speed><time>2016-06-01T15:38:01Z</time><pdop>6.0</pdop><geoidheight>50.60</geoidheight><course>317.48105</course><type>1</type></trkpt>
      <trkpt lat="39.254002661488485" lon="-6.319346122536764"><ele>1138</ele><speed>5.92</speed><time>2016-06-01T15:38:04Z</time><pdop>8.0</pdop><geoidheight>50.60</geoidheight><course>281.88858</course><type>1</type></trkpt>
      <trkpt lat="39.253927902018596" lon="-6.319567988433823"><ele>1142</ele><speed>7.35</speed><time>2016-06-01T15:38:07Z</time><pdop>12.0</pdop><geoidheight>50.60</geoidheight><course>236.19945</course><type>1</type></trkpt>
      <trkpt lat="39.25375103198924" lon="-6.319775023685269"><ele>1146</ele><speed>7.36</speed><time>2016-06-01T15:38:11Z</time><pdop>8.0</pdop><geoidheight>50.60</geoidheight><course>223.22638</course><type>1</type></trkpt>
      <trkpt lat="39.25376414432424" lon="-6.320042873290687"><ele>1151</ele><speed>6.12</speed><time>2016-06-01T15:38:14Z</time><pdop>8.0</pdop><geoidheight>50.60</geoidheight><course>306.51172</course><type>1</type></trkpt>
      <trkpt lat="39.253944889272454" lon="-6.320131250778965"><ele>1151</ele><speed>8.61</speed><time>2016-06-01T15:38:18Z</time><pdop>8.0</pdop><geoidheight>50.60</geoidheight><course>357.2257</course><type>1</type></trkpt>
      <trkpt lat="39.25410100248926" lon="-6.320134075737463"><ele>1151</ele><speed>8.20</speed><time>2016-06-01T15:38:20Z</time><pdop>8.0</pdop><geoidheight>50.60</geoidheight><course>1.0058277</course><type>1</type></trkpt>
      <trkpt lat="39.254232550508554" lon="-6.320133772760078"><ele>1152</ele><speed>5.79</speed><time>2016-06-01T15:38:22Z</time><pdop>6.0</pdop><geoidheight>50.60</geoidheight><course>357.75024</course><type>1</type></trkpt>
      <trkpt lat="39.25444604957242" lon="-6.32014851228803"><ele>1156</ele><speed>8.58</speed><time>2016-06-01T15:38:25Z</time><pdop>12.0</pdop><geoidheight>50.60</geoidheight><course>0.03407207</course><type>1</type></trkpt>
      <trkpt lat="39.25461705694448" lon="-6.3199278507106555"><ele>1157</ele><speed>9.68</speed><time>2016-06-01T15:38:28Z</time><pdop>8.0</pdop><geoidheight>50.60</geoidheight><course>68.87942</course><type>1</type></trkpt>
      <trkpt lat="39.25452419292525" lon="-6.319594482507865"><ele>1157</ele><speed>10.84</speed><time>2016-06-01T15:38:31Z</time><pdop>8.0</pdop><geoidheight>50.60</geoidheight><course>128.4069</course><type>1</type></trkpt>
      <trkpt lat="39.25435048019217" lon="-6.319495542780168"><ele>1159</ele><speed>10.20</speed><time>2016-06-01T15:38:33Z</time><pdop>8.0</pdop><geoidheight>50.60</geoidheight><course>170.29247</course><type>1</type></trkpt>
      <trkpt lat="39.2541655300972" lon="-6.31955175189149"><ele>1160</ele><speed>10.77</speed><time>2016-06-01T15:38:35Z</time><pdop>8.0</pdop><geoidheight>50.60</geoidheight><course>203.73367</course><type>1</type></trkpt>
      <trkpt lat="39.25408594058313" lon="-6.319831985420756"><ele>1162</ele><speed>9.35</speed><time>2016-06-01T15:38:37Z</time><pdop>8.0</pdop><geoidheight>50.60</geoidheight><course>281.9223</course><type>1</type></trkpt>
      <trkpt lat="39.25419778648792" lon="-6.3200295573718694"><ele>1163</ele><speed>6.96</speed><time>2016-06-01T15:38:41Z</time><pdop>12.0</pdop><geoidheight>50.60</geoidheight><course>318.56833</course><type>1</type></trkpt>
      <trkpt lat="39.254432780525526" lon="-6.320036450184671"><ele>1164</ele><speed>10.36</speed><time>2016-06-01T15:38:44Z</time><pdop>8.0</pdop><geoidheight>50.60</geoidheight><course>14.512518</course><type>1</type></trkpt>
      <trkpt lat="39.254578344886475" lon="-6.319902965001315"><ele>1167</ele><speed>10.23</speed><time>2016-06-01T15:38:46Z</time><pdop>8.0</pdop><geoidheight>50.60</geoidheight><course>44.148426</course><type>1</type></trkpt>
      <trkpt lat="39.254633240198174" lon="-6.319687440174261"><ele>1169</ele><speed>10.54</speed><time>2016-06-01T15:38:47Z</time><pdop>8.0</pdop><geoidheight>50.60</geoidheight><course>81.990005</course><type>1</type></trkpt>
      <trkpt lat="39.25459159406099" lon="-6.319443661454683"><ele>1171</ele><speed>11.40</speed><time>2016-06-01T15:38:50Z</time><pdop>8.0</pdop><geoidheight>50.60</geoidheight><course>113.19339</course><type>1</type></trkpt>
      <trkpt lat="39.254475882149244" lon="-6.319245425629859"><ele>1173</ele><speed>10.53</speed><time>2016-06-01T15:38:52Z</time><pdop>8.0</pdop><geoidheight>50.60</geoidheight><course>130.82584</course><type>1</type></trkpt>
      <trkpt lat="39.254310656042485" lon="-6.319102486649612"><ele>1176</ele><speed>11.34</speed><time>2016-06-01T15:38:54Z</time><pdop>8.0</pdop><geoidheight>50.60</geoidheight><course>150.57251</course><type>1</type></trkpt>
      <trkpt lat="39.254110812474515" lon="-6.319088195269487"><ele>1178</ele><speed>10.73</speed><time>2016-06-01T15:38:55Z</time><pdop>8.0</pdop><geoidheight>50.60</geoidheight><course>191.78436</course><type>1</type></trkpt>
      <trkpt lat="39.25398288321712" lon="-6.3192162258521485"><ele>1180</ele><speed>8.86</speed><time>2016-06-01T15:38:58Z</time><pdop>8.0</pdop><geoidheight>50.60</geoidheight><course>233.45381</course><type>1</type></trkpt>
      <trkpt lat="39.25390646734855" lon="-6.319439560358169"><ele>1185</ele><speed>6.86</speed><time>2016-06-01T15:39:02Z</time><pdop>6.0</pdop><geoidheight>50.60</geoidheight><course>271.62155</course><type>1</type></trkpt>
      <trkpt lat="39.254060668531835" lon="-6.319618880581489"><ele>1187</ele><speed>9.32</speed><time>2016-06-01T15:39:05Z</time><pdop>12.0</pdop><geoidheight>50.60</geoidheight><course>339.68542</course><type>1</type></trkpt>
      <trkpt lat="39.25426331619539" lon="-6.319666482212718"><ele>1188</ele><speed>7.37</speed><time>2016-06-01T15:39:08Z</time><pdop>8.0</pdop><geoidheight>50.60</geoidheight><course>359.91605</course><type>1</type></trkpt>
      <trkpt lat="39.25440942252792" lon="-6.319620487200867"><ele>1189</ele><speed>9.03</speed><time>2016-06-01T15:39:10Z</time><pdop>8.0</pdop><geoidheight>50.60</geoidheight><course>21.330965</course><type>1</type></trkpt>
      <trkpt lat="39.254550067906294" lon="-6.3195368322655305"><ele>1191</ele><speed>8.66</speed><time>2016-06-01T15:39:12Z</time><pdop>8.0</pdop><geoidheight>50.60</geoidheight><course>26.76413</course><type>1</type></trkpt>
      <trkpt lat="39.25465507782227" lon="-6.319267884960946"><ele>1194</ele><speed>11.96</speed><time>2016-06-01T15:39:15Z</time><pdop>12.0</pdop><geoidheight>50.60</geoidheight><course>89.282394</course><type>1</type></trkpt>
      <trkpt lat="39.25459589158863" lon="-6.318999028098749"><ele>1196</ele><speed>11.93</speed><time>2016-06-01T15:39:17Z</time><pdop>8.0</pdop><geoidheight>50.60</geoidheight><course>113.03831</course><type>1</type></trkpt>
      <trkpt lat="39.25443059469832" lon="-6.318890282220256"><ele>1199</ele><speed>10.86</speed><time>2016-06-01T15:39:19Z</time><pdop>8.0</pdop><geoidheight>50.60</geoidheight><course>171.76202</course><type>1</type></trkpt>
      <trkpt lat="39.254226824413394" lon="-6.31900852255622"><ele>1201</ele><speed>7.40</speed><time>2016-06-01T15:39:21Z</time><pdop>8.0</pdop><geoidheight>50.60</geoidheight><course>241.03796</course><type>1</type></trkpt>
      <trkpt lat="39.25426929372414" lon="-6.319197245928489"><ele>1204</ele><speed>6.46</speed><time>2016-06-01T15:39:25Z</time><pdop>8.0</pdop><geoidheight>50.60</geoidheight><course>309.49988</course><type>1</type></trkpt>
      <trkpt lat="39.25444440218583" lon="-6.3192563552853604"><ele>1207</ele><speed>7.81</speed><time>2016-06-01T15:39:28Z</time><pdop>8.0</pdop><geoidheight>50.60</geoidheight><course>352.3128</course><type>1</type></trkpt>
      <trkpt lat="39.2546016967333" lon="-6.318856320023292"><ele>1212</ele><speed>12.11</speed><time>2016-06-01T15:39:32Z</time><pdop>24.0</pdop><geoidheight>50.60</geoidheight><course>104.70087</course><type>1</type></trkpt>
      <trkpt lat="39.25423511485837" lon="-6.318633106300462"><ele>1215</ele><speed>13.74</speed><time>2016-06-01T15:39:35Z</time><pdop>8.0</pdop><geoidheight>50.60</geoidheight><course>137.09396</course><type>1</type></trkpt>
      <trkpt lat="39.25414117103936" lon="-6.318805901019963"><ele>1218</ele><speed>7.32</speed><time>2016-06-01T15:39:36Z</time><pdop>8.0</pdop><geoidheight>50.60</geoidheight><course>249.5313</course><type>1</type></trkpt>
      <trkpt lat="39.25432986625063" lon="-6.319020043156338"><ele>1224</ele><speed>8.52</speed><time>2016-06-01T15:39:41Z</time><pdop>6.0</pdop><geoidheight>50.60</geoidheight><course>1.9416317</course><type>1</type></trkpt>
      <trkpt lat="39.25448203098144" lon="-6.319008129433505"><ele>1228</ele><speed>10.55</speed><time>2016-06-01T15:39:43Z</time><pdop>8.0</pdop><geoidheight>50.60</geoidheight><course>10.874318</course><type>1</type></trkpt>
      <trkpt lat="39.25451932040847" lon="-6.318773975191301"><ele>1231</ele><speed>11.40</speed><time>2016-06-01T15:39:45Z</time><pdop>12.0</pdop><geoidheight>50.60</geoidheight><course>93.526695</course><type>1</type></trkpt>
      <trkpt lat="39.254421285513324" lon="-6.3185585132904905"><ele>1233</ele><speed>11.44</speed><time>2016-06-01T15:39:47Z</time><pdop>8.0</pdop><geoidheight>50.60</geoidheight><course>135.65227</course><type>1</type></trkpt>
      <trkpt lat="39.254241797447" lon="-6.31843238994098"><ele>1235</ele><speed>10.71</speed><time>2016-06-01T15:39:49Z</time><pdop>12.0</pdop><geoidheight>50.60</geoidheight><course>157.66202</course><type>1</type></trkpt>
      <trkpt lat="39.25407339507617" lon="-6.318514118018952"><ele>1236</ele><speed>9.38</speed><time>2016-06-01T15:39:50Z</time><pdop>8.0</pdop><geoidheight>50.60</geoidheight><course>223.36528</course><type>1</type></trkpt>
      <trkpt lat="39.25405890262278" lon="-6.31871907506521"><ele>1237</ele><speed>5.80</speed><time>2016-06-01T15:39:54Z</time><pdop>8.0</pdop><geoidheight>50.60</geoidheight><course>301.28067</course><type>1</type></trkpt>
      <trkpt lat="39.254193117936694" lon="-6.318792491581778"><ele>1239</ele><speed>7.04</speed><time>2016-06-01T15:39:57Z</time><pdop>8.0</pdop><geoidheight>50.60</geoidheight><course>353.80075</course><type>1</type></trkpt>
      <trkpt lat="39.25432192764988" lon="-6.318697244130584"><ele>1241</ele><speed>9.18</speed><time>2016-06-01T15:39:59Z</time><pdop>8.0</pdop><geoidheight>50.60</geoidheight><course>40.53659</course><type>1</type></trkpt>
      <trkpt lat="39.25438123678916" lon="-6.318489804844438"><ele>1243</ele><speed>10.88</speed><time>2016-06-01T15:40:01Z</time><pdop>8.0</pdop><geoidheight>50.60</geoidheight><course>80.73478</course><type>1</type></trkpt>
      <trkpt lat="39.25432898137165" lon="-6.318233223603072"><ele>1245</ele><speed>12.51</speed><time>2016-06-01T15:40:03Z</time><pdop>8.0</pdop><geoidheight>50.60</geoidheight><course>112.54505</course><type>1</type></trkpt>
      <trkpt lat="39.254174182479986" lon="-6.318087385855198"><ele>1249</ele><speed>10.85</speed><time>2016-06-01T15:40:05Z</time><pdop>6.0</pdop><geoidheight>50.60</geoidheight><course>156.79543</course><type>1</type></trkpt>
      <trkpt lat="39.253995374129424" lon="-6.318092329893468"><ele>1253</ele><speed>10.05</speed><time>2016-06-01T15:40:07Z</time><pdop>8.0</pdop><geoidheight>50.60</geoidheight><course>200.03207</course><type>1</type></trkpt>
      <trkpt lat="39.25389706764475" lon="-6.318241166742169"><ele>1257</ele><speed>8.44</speed><time>2016-06-01T15:40:08Z</time><pdop>8.0</pdop><geoidheight>50.60</geoidheight><course>248.63318</course><type>1</type></trkpt>
      <trkpt lat="39.25392577566349" lon="-6.318443063181957"><ele>1260</ele><speed>5.05</speed><time>2016-06-01T15:40:12Z</time><pdop>8.0</pdop><geoidheight>50.60</geoidheight><course>304.76407</course><type>1</type></trkpt>
      <trkpt lat="39.25408053201154" lon="-6.3185818182239055"><ele>1262</ele><speed>6.58</speed><time>2016-06-01T15:40:16Z</time><pdop>12.0</pdop><geoidheight>50.60</geoidheight><course>338.49417</course><type>1</type></trkpt>
      <trkpt lat="39.254303883711806" lon="-6.318499536385292"><ele>1272</ele><speed>4.68</speed><time>2016-06-01T15:40:20Z</time><pdop>12.0</pdop><geoidheight>50.60</geoidheight><course>9.724452</course><type>1</type></trkpt>
      <trkpt lat="39.254422131807" lon="-6.318766369086017"><ele>1281</ele><speed>7.25</speed><time>2016-06-01T15:40:24Z</time><pdop>8.0</pdop><geoidheight>50.60</geoidheight><course>300.09512</course><type>1</type></trkpt>
      <trkpt lat="39.254265732717165" lon="-6.318947586985828"><ele>1285</ele><speed>8.88</speed><time>2016-06-01T15:40:27Z</time><pdop>8.0</pdop><geoidheight>50.60</geoidheight><course>194.17896</course><type>1</type></trkpt>
      <trkpt lat="39.254000361198045" lon="-6.318925734581876"><ele>1293</ele><speed>11.41</speed><time>2016-06-01T15:40:29Z</time><pdop>12.0</pdop><geoidheight>50.60</geoidheight><course>183.28654</course><type>1</type></trkpt>
      <trkpt lat="39.25390353491944" lon="-6.31858246421317"><ele>1300</ele><speed>10.65</speed><time>2016-06-01T15:40:33Z</time><pdop>12.0</pdop><geoidheight>50.60</geoidheight><course>70.54263</course><type>1</type></trkpt>
      <trkpt lat="39.254010696215914" lon="-6.318263651330677"><ele>1308</ele><speed>8.42</speed><time>2016-06-01T15:40:35Z</time><pdop>6.0</pdop><geoidheight>50.60</geoidheight><course>55.56776</course><type>1</type></trkpt>
      <trkpt lat="39.25417190962737" lon="-6.318260729410007"><ele>1314</ele><speed>6.38</speed><time>2016-06-01T15:40:39Z</time><pdop>8.0</pdop><geoidheight>50.60</geoidheight><course>345.48892</course><type>1</type></trkpt>
      <trkpt lat="39.254168197809" lon="-6.318503764956868"><ele>1320</ele><speed>8.48</speed><time>2016-06-01T15:40:42Z</time><pdop>12.0</pdop><geoidheight>50.60</geoidheight><course>236.90413</course><type>1</type></trkpt>
      <trkpt lat="39.25396700875976" lon="-6.3186553134414885"><ele>1327</ele><speed>8.19</speed><time>2016-06-01T15:40:45Z</time><pdop>8.0</pdop><geoidheight>50.60</geoidheight><course>183.53441</course><type>1</type></trkpt>
      <trkpt lat="39.253804088758464" lon="-6.3186666188341025"><ele>1334</ele><speed>9.32</speed><time>2016-06-01T15:40:47Z</time><pdop>6.0</pdop><geoidheight>50.60</geoidheight><course>166.27113</course><type>1</type></trkpt>
      <trkpt lat="39.25363624892142" lon="-6.318565827409357"><ele>1339</ele><speed>10.80</speed><time>2016-06-01T15:40:48Z</time><pdop>8.0</pdop><geoidheight>50.60</geoidheight><course>138.21182</course><type>1</type></trkpt>
      <trkpt lat="39.25358048604504" lon="-6.318268124188483"><ele>1343</ele><speed>8.54</speed><time>2016-06-01T15:40:52Z</time><pdop>8.0</pdop><geoidheight>50.60</geoidheight><course>90.05639</course><type>1</type></trkpt>
      <trkpt lat="39.2536323415265" lon="-6.318018921093543"><ele>1347</ele><speed>7.95</speed><time>2016-06-01T15:40:55Z</time><pdop>6.0</pdop><geoidheight>50.60</geoidheight><course>71.4826</course><type>1</type></trkpt>
      <trkpt lat="39.25368673165961" lon="-6.317842974651402"><ele>1352</ele><speed>8.14</speed><time>2016-06-01T15:40:56Z</time><pdop>8.0</pdop><geoidheight>50.60</geoidheight><course>64.921524</course><type>1</type></trkpt>
      <trkpt lat="39.25384043878014" lon="-6.317686683099736"><ele>1359</ele><speed>6.31</speed><time>2016-06-01T15:41:00Z</time><pdop>8.0</pdop><geoidheight>50.60</geoidheight><course>16.860466</course><type>1</type></trkpt>
      <trkpt lat="39.25400943574464" lon="-6.317759933082811"><ele>1367</ele><speed>6.42</speed><time>2016-06-01T15:41:03Z</time><pdop>8.0</pdop><geoidheight>50.60</geoidheight><course>299.38126</course><type>1</type></trkpt>
      <trkpt lat="39.25398756392997" lon="-6.318001730362021"><ele>1371</ele><speed>7.28</speed><time>2016-06-01T15:41:07Z</time><pdop>12.0</pdop><geoidheight>50.60</geoidheight><course>245.61888</course><type>1</type></trkpt>
      <trkpt lat="39.25381856123362" lon="-6.318157983472505"><ele>1381</ele><speed>7.90</speed><time>2016-06-01T15:41:10Z</time><pdop>8.0</pdop><geoidheight>50.60</geoidheight><course>186.96506</course><type>1</type></trkpt>
      <trkpt lat="39.25365396377247" lon="-6.318188527807047"><ele>1387</ele><speed>10.25</speed><time>2016-06-01T15:41:12Z</time><pdop>8.0</pdop><geoidheight>50.60</geoidheight><course>180.54575</course><type>1</type></trkpt>
      <trkpt lat="39.25348708139132" lon="-6.318107707183816"><ele>1391</ele><speed>11.79</speed><time>2016-06-01T15:41:14Z</time><pdop>8.0</pdop><geoidheight>50.60</geoidheight><course>149.9054</course><type>1</type></trkpt>
      <trkpt lat="39.25338268084297" lon="-6.3178937665024195"><ele>1395</ele><speed>11.43</speed><time>2016-06-01T15:41:16Z</time><pdop>12.0</pdop><geoidheight>50.60</geoidheight><course>114.31836</course><type>1</type></trkpt>
      <trkpt lat="39.25329172063038" lon="-6.317540687381066"><ele>1400</ele><speed>9.94</speed><time>2016-06-01T15:41:19Z</time><pdop>8.0</pdop><geoidheight>50.60</geoidheight><course>108.370926</course><type>1</type></trkpt>
      <trkpt lat="39.2532933176182" lon="-6.317332273174089"><ele>1403</ele><speed>8.45</speed><time>2016-06-01T15:41:21Z</time><pdop>8.0</pdop><geoidheight>50.60</geoidheight><course>80.09441</course><type>1</type></trkpt>
      <trkpt lat="39.2533589274522" lon="-6.317139738809695"><ele>1407</ele><speed>8.34</speed><time>2016-06-01T15:41:23Z</time><pdop>6.0</pdop><geoidheight>50.60</geoidheight><course>48.481968</course><type>1</type></trkpt>
      <trkpt lat="39.253492033891014" lon="-6.316988983273966"><ele>1414</ele><speed>5.49</speed><time>2016-06-01T15:41:26Z</time><pdop>12.0</pdop><geoidheight>50.60</geoidheight><course>3.8822956</course><type>1</type></trkpt>
      <trkpt lat="39.25339902842566" lon="-6.317314033566876"><ele>1426</ele><speed>8.22</speed><time>2016-06-01T15:41:34Z</time><pdop>8.0</pdop><geoidheight>50.60</geoidheight><course>210.56541</course><type>1</type></trkpt>
      <trkpt lat="39.25322034609885" lon="-6.317347407625813"><ele>1429</ele><speed>10.83</speed><time>2016-06-01T15:41:35Z</time><pdop>8.0</pdop><geoidheight>50.60</geoidheight><course>177.13539</course><type>1</type></trkpt>
      <trkpt lat="39.253034639767016" lon="-6.317253175532424"><ele>1433</ele><speed>12.25</speed><time>2016-06-01T15:41:38Z</time><pdop>8.0</pdop><geoidheight>50.60</geoidheight><course>152.30374</course><type>1</type></trkpt>
      <trkpt lat="39.25289550353042" lon="-6.317053897968166"><ele>1436</ele><speed>12.26</speed><time>2016-06-01T15:41:39Z</time><pdop>12.0</pdop><geoidheight>50.60</geoidheight><course>121.85579</course><type>1</type></trkpt>
      <trkpt lat="39.25289685838085" lon="-6.316655945414104"><ele>1441</ele><speed>11.70</speed><time>2016-06-01T15:41:43Z</time><pdop>8.0</pdop><geoidheight>50.60</geoidheight><course>70.54712</course><type>1</type></trkpt>
      <trkpt lat="39.2529668147261" lon="-6.316438881463419"><ele>1446</ele><speed>9.52</speed><time>2016-06-01T15:41:44Z</time><pdop>8.0</pdop><geoidheight>50.60</geoidheight><course>53.150566</course><type>1</type></trkpt>
      <trkpt lat="39.253122869146985" lon="-6.316344650003057"><ele>1450</ele><speed>6.27</speed><time>2016-06-01T15:41:48Z</time><pdop>8.0</pdop><geoidheight>50.60</geoidheight><course>356.6058</course><type>1</type></trkpt>
      <trkpt lat="39.253144812619176" lon="-6.3166470725839154"><ele>1451</ele><speed>8.59</speed><time>2016-06-01T15:41:53Z</time><pdop>12.0</pdop><geoidheight>50.60</geoidheight><course>246.78635</course><type>1</type></trkpt>
      <trkpt lat="39.25333979991333" lon="-6.316480331517947"><ele>1463</ele><speed>12.99</speed><time>2016-06-01T15:42:04Z</time><pdop>12.0</pdop><geoidheight>50.60</geoidheight><course>56.475147</course><type>1</type></trkpt>
      <trkpt lat="39.2531254499781" lon="-6.316157614609492"><ele>1466</ele><speed>13.49</speed><time>2016-06-01T15:42:06Z</time><pdop>12.0</pdop><geoidheight>50.60</geoidheight><course>162.44456</course><type>1</type></trkpt>
      <trkpt lat="39.25290404778932" lon="-6.316136131524317"><ele>1468</ele><speed>10.45</speed><time>2016-06-01T15:42:09Z</time><pdop>12.0</pdop><geoidheight>50.60</geoidheight><course>179.65782</course><type>1</type></trkpt>
      <trkpt lat="39.25273470626397" lon="-6.316257855018543"><ele>1469</ele><speed>4.69</speed><time>2016-06-01T15:42:12Z</time><pdop>8.0</pdop><geoidheight>50.60</geoidheight><course>232.59676</course><type>1</type></trkpt>
      <trkpt lat="39.252681342106534" lon="-6.316513899482543"><ele>1472</ele><speed>4.38</speed><time>2016-06-01T15:42:16Z</time><pdop>12.0</pdop><geoidheight>50.60</geoidheight><course>265.16528</course><type>1</type></trkpt>
      <trkpt lat="39.252613034158294" lon="-6.316798657195576"><ele>1479</ele><speed>5.82</speed><time>2016-06-01T15:42:20Z</time><pdop>12.0</pdop><geoidheight>50.60</geoidheight><course>249.38416</course><type>1</type></trkpt>
      <trkpt lat="39.252712168397" lon="-6.317072143368774"><ele>1483</ele><speed>3.73</speed><time>2016-06-01T15:42:27Z</time><pdop>8.0</pdop><geoidheight>50.60</geoidheight><course>284.21277</course><type>1</type></trkpt>
      <trkpt lat="39.25286108380389" lon="-6.317138668945791"><ele>1491</ele><speed>9.60</speed><time>2016-06-01T15:42:31Z</time><pdop>8.0</pdop><geoidheight>50.60</geoidheight><course>47.236305</course><type>1</type></trkpt>
      <trkpt lat="39.25295316899398" lon="-6.316897031591035"><ele>1497</ele><speed>11.96</speed><time>2016-06-01T15:42:34Z</time><pdop>8.0</pdop><geoidheight>50.60</geoidheight><course>81.49103</course><type>1</type></trkpt>
      <trkpt lat="39.252934862401624" lon="-6.316594913197047"><ele>1502</ele><speed>12.80</speed><time>2016-06-01T15:42:36Z</time><pdop>12.0</pdop><geoidheight>50.60</geoidheight><course>102.517494</course><type>1</type></trkpt>
      <trkpt lat="39.25267944276228" lon="-6.316406914386957"><ele>1505</ele><speed>10.51</speed><time>2016-06-01T15:42:39Z</time><pdop>8.0</pdop><geoidheight>50.60</geoidheight><course>167.5838</course><type>1</type></trkpt>
      <trkpt lat="39.252521635540056" lon="-6.3164591914297405"><ele>1506</ele><speed>8.82</speed><time>2016-06-01T15:42:41Z</time><pdop>8.0</pdop><geoidheight>50.60</geoidheight><course>207.30995</course><type>1</type></trkpt>
      <trkpt lat="39.25243889165682" lon="-6.316627030570856"><ele>1504</ele><speed>4.29</speed><time>2016-06-01T15:42:44Z</time><pdop>8.0</pdop><geoidheight>50.60</geoidheight><course>264.80383</course><type>1</type></trkpt>
      <trkpt lat="39.25250273920337" lon="-6.316836346385653"><ele>1504</ele><speed>4.71</speed><time>2016-06-01T15:42:50Z</time><pdop>8.0</pdop><geoidheight>50.60</geoidheight><course>280.82254</course><type>1</type></trkpt>
      <trkpt lat="39.25253239362853" lon="-6.317167265429067"><ele>1503</ele><speed>5.58</speed><time>2016-06-01T15:42:55Z</time><pdop>16.0</pdop><geoidheight>50.60</geoidheight><course>283.3596</course><type>1</type></trkpt>
      <trkpt lat="39.25257313369096" lon="-6.317476770167375"><ele>1514</ele><speed>5.25</speed><time>2016-06-01T15:43:02Z</time><pdop>8.0</pdop><geoidheight>50.60</geoidheight><course>250.73328</course><type>1</type></trkpt>
      <trkpt lat="39.25255726326755" lon="-6.317668702373735"><ele>1520</ele><speed>5.73</speed><time>2016-06-01T15:43:05Z</time><pdop>8.0</pdop><geoidheight>50.60</geoidheight><course>295.54318</course><type>1</type></trkpt>
      <trkpt lat="39.25278573855362" lon="-6.31773611500541"><ele>1537</ele><speed>10.77</speed><time>2016-06-01T15:43:08Z</time><pdop>16.0</pdop><geoidheight>50.60</geoidheight><course>354.27493</course><type>1</type></trkpt>
      <trkpt lat="39.25267220869995" lon="-6.317344144745877"><ele>1547</ele><speed>11.91</speed><time>2016-06-01T15:43:12Z</time><pdop>12.0</pdop><geoidheight>50.60</geoidheight><course>146.87787</course><type>1</type></trkpt>
      <trkpt lat="39.25240324658474" lon="-6.317284171453604"><ele>1555</ele><speed>5.99</speed><time>2016-06-01T15:43:15Z</time><pdop>12.0</pdop><geoidheight>50.60</geoidheight><course>208.11887</course><type>1</type></trkpt>
      <trkpt lat="39.252313460000984" lon="-6.317514093676631"><ele>1566</ele><speed>5.35</speed><time>2016-06-01T15:43:19Z</time><pdop>8.0</pdop><geoidheight>50.60</geoidheight><course>300.86603</course><type>1</type></trkpt>
      <trkpt lat="39.252542188752344" lon="-6.317573872299086"><ele>1584</ele><speed>8.94</speed><time>2016-06-01T15:43:24Z</time><pdop>16.0</pdop><geoidheight>50.60</geoidheight><course>358.7395</course><type>1</type></trkpt>
      <trkpt lat="39.252507107175646" lon="-6.317245485365014"><ele>1591</ele><speed>15.83</speed><time>2016-06-01T15:43:26Z</time><pdop>12.0</pdop><geoidheight>50.60</geoidheight><course>123.09453</course><type>1</type></trkpt>
      <trkpt lat="39.252324521888625" lon="-6.3169436077670245"><ele>1597</ele><speed>16.40</speed><time>2016-06-01T15:43:28Z</time><pdop>12.0</pdop><geoidheight>50.60</geoidheight><course>126.10516</course><type>1</type></trkpt>
      <trkpt lat="39.25214461906422" lon="-6.3170012702931855"><ele>1602</ele><speed>7.23</speed><time>2016-06-01T15:43:29Z</time><pdop>8.0</pdop><geoidheight>50.60</geoidheight><course>212.92706</course><type>1</type></trkpt>
      <trkpt lat="39.252024120346064" lon="-6.317175137682557"><ele>1611</ele><speed>6.26</speed><time>2016-06-01T15:43:33Z</time><pdop>8.0</pdop><geoidheight>50.60</geoidheight><course>231.74341</course><type>1</type></trkpt>
      <trkpt lat="39.25204743658198" lon="-6.317413498273091"><ele>1620</ele><speed>5.86</speed><time>2016-06-01T15:43:36Z</time><pdop>6.0</pdop><geoidheight>50.60</geoidheight><course>318.00516</course><type>1</type></trkpt>
      <trkpt lat="39.252149521637975" lon="-6.317532208491134"><ele>1622</ele><speed>5.00</speed><time>2016-06-01T15:43:39Z</time><pdop>8.0</pdop><geoidheight>50.60</geoidheight><course>307.81158</course><type>1</type></trkpt>
      <trkpt lat="39.25227049373438" lon="-6.317287653754964"><ele>1624</ele><speed>11.17</speed><time>2016-06-01T15:43:41Z</time><pdop>8.0</pdop><geoidheight>50.60</geoidheight><course>0.0187044</course><type>1</type></trkpt>
      <trkpt lat="39.25219682961777" lon="-6.316937479930659"><ele>1627</ele><speed>11.91</speed><time>2016-06-01T15:43:43Z</time><pdop>16.0</pdop><geoidheight>50.60</geoidheight><course>63.632374</course><type>1</type></trkpt>
      <trkpt lat="39.25193178296738" lon="-6.316712988967858"><ele>1632</ele><speed>10.12</speed><time>2016-06-01T15:43:46Z</time><pdop>12.0</pdop><geoidheight>50.60</geoidheight><course>152.94391</course><type>1</type></trkpt>
      <trkpt lat="39.251705074001826" lon="-6.316666980226182"><ele>1640</ele><speed>7.90</speed><time>2016-06-01T15:43:49Z</time><pdop>8.0</pdop><geoidheight>50.60</geoidheight><course>184.69997</course><type>1</type></trkpt>
      <trkpt lat="39.251567536890605" lon="-6.316789481451577"><ele>1645</ele><speed>7.98</speed><time>2016-06-01T15:43:50Z</time><pdop>8.0</pdop><geoidheight>50.60</geoidheight><course>240.51599</course><type>1</type></trkpt>
      <trkpt lat="39.25163605338491" lon="-6.317014316531884"><ele>1652</ele><speed>5.55</speed><time>2016-06-01T15:43:55Z</time><pdop>8.0</pdop><geoidheight>50.60</geoidheight><course>329.18353</course><type>1</type></trkpt>
      <trkpt lat="39.25176085474841" lon="-6.316866224482101"><ele>1660</ele><speed>8.85</speed><time>2016-06-01T15:43:58Z</time><pdop>8.0</pdop><geoidheight>50.60</geoidheight><course>76.43992</course><type>1</type></trkpt>
      <trkpt lat="39.25173042735281" lon="-6.316612014002972"><ele>1665</ele><speed>11.46</speed><time>2016-06-01T15:44:00Z</time><pdop>12.0</pdop><geoidheight>50.60</geoidheight><course>98.09209</course><type>1</type></trkpt>
      <trkpt lat="39.25160871108613" lon="-6.316292418410954"><ele>1669</ele><speed>9.50</speed><time>2016-06-01T15:44:02Z</time><pdop>8.0</pdop><geoidheight>50.60</geoidheight><course>128.91925</course><type>1</type></trkpt>
      <trkpt lat="39.25144027676406" lon="-6.316219646032203"><ele>1672</ele><speed>10.63</speed><time>2016-06-01T15:44:05Z</time><pdop>8.0</pdop><geoidheight>50.60</geoidheight><course>175.67137</course><type>1</type></trkpt>
      <trkpt lat="39.25128300153165" lon="-6.316251017662304"><ele>1675</ele><speed>8.61</speed><time>2016-06-01T15:44:07Z</time><pdop>8.0</pdop><geoidheight>50.60</geoidheight><course>213.13539</course><type>1</type></trkpt>
      <trkpt lat="39.251218250176166" lon="-6.3164690650328605"><ele>1678</ele><speed>6.21</speed><time>2016-06-01T15:44:10Z</time><pdop>12.0</pdop><geoidheight>50.60</geoidheight><course>279.0444</course><type>1</type></trkpt>
      <trkpt lat="39.25127272271583" lon="-6.316729112401011"><ele>1685</ele><speed>5.57</speed><time>2016-06-01T15:44:14Z</time><pdop>8.0</pdop><geoidheight>50.60</geoidheight><course>316.5498</course><type>1</type></trkpt>
      <trkpt lat="39.251444155584636" lon="-6.316697029814877"><ele>1692</ele><speed>8.14</speed><time>2016-06-01T15:44:17Z</time><pdop>8.0</pdop><geoidheight>50.60</geoidheight><course>36.813755</course><type>1</type></trkpt>
      <trkpt lat="39.251571791531205" lon="-6.316568639563317"><ele>1696</ele><speed>10.97</speed><time>2016-06-01T15:44:19Z</time><pdop>8.0</pdop><geoidheight>50.60</geoidheight><course>39.679173</course><type>1</type></trkpt>
      <trkpt lat="39.25146739233041" lon="-6.3162740145457"><ele>1701</ele><speed>13.90</speed><time>2016-06-01T15:44:21Z</time><pdop>12.0</pdop><geoidheight>50.60</geoidheight><course>126.53859</course><type>1</type></trkpt>
      <trkpt lat="39.25126095227193" lon="-6.316113075203261"><ele>1704</ele><speed>11.73</speed><time>2016-06-01T15:44:23Z</time><pdop>12.0</pdop><geoidheight>50.60</geoidheight><course>155.79733</course><type>1</type></trkpt>
      <trkpt lat="39.250996378709864" lon="-6.31606529029478"><ele>1708</ele><speed>9.96</speed><time>2016-06-01T15:44:26Z</time><pdop>12.0</pdop><geoidheight>50.60</geoidheight><course>186.97934</course><type>1</type></trkpt>
      <trkpt lat="39.250768256202385" lon="-6.316214601387878"><ele>1714</ele><speed>7.73</speed><time>2016-06-01T15:44:29Z</time><pdop>8.0</pdop><geoidheight>50.60</geoidheight><course>220.78978</course><type>1</type></trkpt>
      <trkpt lat="39.250652777422495" lon="-6.316467954395553"><ele>1722</ele><speed>5.82</speed><time>2016-06-01T15:44:33Z</time><pdop>12.0</pdop><geoidheight>50.60</geoidheight><course>271.4478</course><type>1</type></trkpt>
      <trkpt lat="39.250877580195784" lon="-6.316550459895446"><ele>1725</ele><speed>7.05</speed><time>2016-06-01T15:44:36Z</time><pdop>8.0</pdop><geoidheight>50.60</geoidheight><course>19.893883</course><type>1</type></trkpt>
      <trkpt lat="39.25102334617462" lon="-6.316420362566007"><ele>1730</ele><speed>6.17</speed><time>2016-06-01T15:44:40Z</time><pdop>8.0</pdop><geoidheight>50.60</geoidheight><course>36.904434</course><type>1</type></trkpt>
      <trkpt lat="39.2511798201196" lon="-6.316458678624466"><ele>1735</ele><speed>6.82</speed><time>2016-06-01T15:44:43Z</time><pdop>8.0</pdop><geoidheight>50.60</geoidheight><course>322.56232</course><type>1</type></trkpt>
      <trkpt lat="39.25113793133625" lon="-6.316712502878493"><ele>1738</ele><speed>8.24</speed><time>2016-06-01T15:44:46Z</time><pdop>8.0</pdop><geoidheight>50.60</geoidheight><course>242.0724</course><type>1</type></trkpt>
      <trkpt lat="39.25102832362191" lon="-6.316936633584943"><ele>1739</ele><speed>6.54</speed><time>2016-06-01T15:44:49Z</time><pdop>8.0</pdop><geoidheight>50.60</geoidheight><course>225.28693</course><type>1</type></trkpt>
      <trkpt lat="39.250886236974424" lon="-6.317044183485831"><ele>1740</ele><speed>10.87</speed><time>2016-06-01T15:44:50Z</time><pdop>8.0</pdop><geoidheight>50.60</geoidheight><course>195.65892</course><type>1</type></trkpt>
      <trkpt lat="39.25068441610538" lon="-6.317014713283289"><ele>1742</ele><speed>12.17</speed><time>2016-06-01T15:44:53Z</time><pdop>12.0</pdop><geoidheight>50.60</geoidheight><course>160.29457</course><type>1</type></trkpt>
      <trkpt lat="39.25054276141872" lon="-6.316731994491249"><ele>1744</ele><speed>9.96</speed><time>2016-06-01T15:44:56Z</time><pdop>12.0</pdop><geoidheight>50.60</geoidheight><course>95.21429</course><type>1</type></trkpt>
      <trkpt lat="39.25057737329822" lon="-6.316411886047163"><ele>1748</ele><speed>7.89</speed><time>2016-06-01T15:44:59Z</time><pdop>8.0</pdop><geoidheight>50.60</geoidheight><course>63.633007</course><type>1</type></trkpt>
      <trkpt lat="39.250726953035326" lon="-6.31626094287689"><ele>1753</ele><speed>7.73</speed><time>2016-06-01T15:45:01Z</time><pdop>6.0</pdop><geoidheight>50.60</geoidheight><course>7.314074</course><type>1</type></trkpt>
      <trkpt lat="39.250869247424895" lon="-6.316315993714941"><ele>1758</ele><speed>5.82</speed><time>2016-06-01T15:45:05Z</time><pdop>8.0</pdop><geoidheight>50.60</geoidheight><course>316.88632</course><type>1</type></trkpt>
      <trkpt lat="39.25091042271683" lon="-6.316563630655638"><ele>1764</ele><speed>6.61</speed><time>2016-06-01T15:45:08Z</time><pdop>12.0</pdop><geoidheight>50.60</geoidheight><course>244.23245</course><type>1</type></trkpt>
      <trkpt lat="39.25065688797871" lon="-6.316761966473632"><ele>1768</ele><speed>9.54</speed><time>2016-06-01T15:45:13Z</time><pdop>12.0</pdop><geoidheight>50.60</geoidheight><course>192.52835</course><type>1</type></trkpt>
      <trkpt lat="39.250411952615075" lon="-6.316551901987895"><ele>1770</ele><speed>12.58</speed><time>2016-06-01T15:45:16Z</time><pdop>12.0</pdop><geoidheight>50.60</geoidheight><course>124.61963</course><type>1</type></trkpt>
      <trkpt lat="39.25036745208596" lon="-6.316224842086999"><ele>1771</ele><speed>10.34</speed><time>2016-06-01T15:45:19Z</time><pdop>8.0</pdop><geoidheight>50.60</geoidheight><course>95.08355</course><type>1</type></trkpt>
      <trkpt lat="39.250306597390555" lon="-6.315985421457224"><ele>1774</ele><speed>10.19</speed><time>2016-06-01T15:45:21Z</time><pdop>8.0</pdop><geoidheight>50.60</geoidheight><course>119.759155</course><type>1</type></trkpt>
      <trkpt lat="39.25016862595786" lon="-6.31580544180601"><ele>1776</ele><speed>11.46</speed><time>2016-06-01T15:45:23Z</time><pdop>12.0</pdop><geoidheight>50.60</geoidheight><course>144.94019</course><type>1</type></trkpt>
      <trkpt lat="39.249989787472174" lon="-6.3157720185168245"><ele>1778</ele><speed>9.35</speed><time>2016-06-01T15:45:25Z</time><pdop>8.0</pdop><geoidheight>50.60</geoidheight><course>184.8716</course><type>1</type></trkpt>
      <trkpt lat="39.249872553936406" lon="-6.3158979923126415"><ele>1781</ele><speed>7.93</speed><time>2016-06-01T15:45:26Z</time><pdop>8.0</pdop><geoidheight>50.60</geoidheight><course>243.59422</course><type>1</type></trkpt>
      <trkpt lat="39.24984612046335" lon="-6.3161242738537124"><ele>1784</ele><speed>6.94</speed><time>2016-06-01T15:45:29Z</time><pdop>8.0</pdop><geoidheight>50.60</geoidheight><course>288.96613</course><type>1</type></trkpt>
      <trkpt lat="39.24995749339079" lon="-6.316274993363479"><ele>1785</ele><speed>5.67</speed><time>2016-06-01T15:45:33Z</time><pdop>8.0</pdop><geoidheight>50.60</geoidheight><course>327.81448</course><type>1</type></trkpt>
      <trkpt lat="39.25008234276768" lon="-6.316409161687371"><ele>1787</ele><speed>6.31</speed><time>2016-06-01T15:45:36Z</time><pdop>6.0</pdop><geoidheight>50.60</geoidheight><course>321.97076</course><type>1</type></trkpt>
      <trkpt lat="39.25020034805901" lon="-6.316491310830305"><ele>1789</ele><speed>8.53</speed><time>2016-06-01T15:45:38Z</time><pdop>6.0</pdop><geoidheight>50.60</geoidheight><course>340.38617</course><type>1</type></trkpt>
      <trkpt lat="39.250343437781495" lon="-6.316554043630323"><ele>1790</ele><speed>8.18</speed><time>2016-06-01T15:45:40Z</time><pdop>8.0</pdop><geoidheight>50.60</geoidheight><course>341.24948</course><type>1</type></trkpt>
      <trkpt lat="39.25051119634832" lon="-6.316637828651633"><ele>1793</ele><speed>5.83</speed><time>2016-06-01T15:45:43Z</time><pdop>6.0</pdop><geoidheight>50.60</geoidheight><course>341.67422</course><type>1</type></trkpt>
      <trkpt lat="39.250623706008405" lon="-6.3166787238866275"><ele>1796</ele><speed>6.24</speed><time>2016-06-01T15:45:45Z</time><pdop>6.0</pdop><geoidheight>50.60</geoidheight><course>343.4754</course><type>1</type></trkpt>
      <trkpt lat="39.25072002913569" lon="-6.316748062517306"><ele>1799</ele><speed>6.54</speed><time>2016-06-01T15:45:47Z</time><pdop>6.0</pdop><geoidheight>50.60</geoidheight><course>330.35287</course><type>1</type></trkpt>
      <trkpt lat="39.250864103584966" lon="-6.316817784679078"><ele>1802</ele><speed>6.77</speed><time>2016-06-01T15:45:50Z</time><pdop>6.0</pdop><geoidheight>50.60</geoidheight><course>352.55893</course><type>1</type></trkpt>
      <trkpt lat="39.25098683845579" lon="-6.316771257004832"><ele>1803</ele><speed>8.37</speed><time>2016-06-01T15:45:51Z</time><pdop>6.0</pdop><geoidheight>50.60</geoidheight><course>27.327229</course><type>1</type></trkpt>
      <trkpt lat="39.2511352516246" lon="-6.3165794637822925"><ele>1804</ele><speed>13.23</speed><time>2016-06-01T15:45:54Z</time><pdop>12.0</pdop><geoidheight>50.60</geoidheight><course>46.501534</course><type>1</type></trkpt>
      <trkpt lat="39.25103008352346" lon="-6.31620525353852"><ele>1803</ele><speed>12.36</speed><time>2016-06-01T15:45:57Z</time><pdop>12.0</pdop><geoidheight>50.60</geoidheight><course>150.6409</course><type>1</type></trkpt>
      <trkpt lat="39.25079686146626" lon="-6.316127560358194"><ele>1802</ele><speed>12.07</speed><time>2016-06-01T15:45:59Z</time><pdop>8.0</pdop><geoidheight>50.60</geoidheight><course>168.64085</course><type>1</type></trkpt>
      <trkpt lat="39.25064267039641" lon="-6.316234825540435"><ele>1803</ele><speed>8.50</speed><time>2016-06-01T15:46:01Z</time><pdop>8.0</pdop><geoidheight>50.60</geoidheight><course>231.6266</course><type>1</type></trkpt>
      <trkpt lat="39.25066469773387" lon="-6.316509902999521"><ele>1802</ele><speed>8.86</speed><time>2016-06-01T15:46:04Z</time><pdop>12.0</pdop><geoidheight>50.60</geoidheight><course>309.96024</course><type>1</type></trkpt>
      <trkpt lat="39.250878987220226" lon="-6.316648766155889"><ele>1803</ele><speed>6.57</speed><time>2016-06-01T15:46:08Z</time><pdop>12.0</pdop><geoidheight>50.60</geoidheight><course>343.28754</course><type>1</type></trkpt>
      <trkpt lat="39.25107251561768" lon="-6.316666117856389"><ele>1806</ele><speed>6.57</speed><time>2016-06-01T15:46:12Z</time><pdop>8.0</pdop><geoidheight>50.60</geoidheight><course>353.9806</course><type>1</type></trkpt>
      <trkpt lat="39.251265630589394" lon="-6.316689697401833"><ele>1807</ele><speed>7.24</speed><time>2016-06-01T15:46:15Z</time><pdop>8.0</pdop><geoidheight>50.60</geoidheight><course>353.93243</course><type>1</type></trkpt>
      <trkpt lat="39.2513952907011" lon="-6.316689349073252"><ele>1806</ele><speed>7.09</speed><time>2016-06-01T15:46:17Z</time><pdop>6.0</pdop><geoidheight>50.60</geoidheight><course>357.80112</course><type>1</type></trkpt>
      <trkpt lat="39.251571128076904" lon="-6.316700469504465"><ele>1804</ele><speed>6.31</speed><time>2016-06-01T15:46:20Z</time><pdop>8.0</pdop><geoidheight>50.60</geoidheight><course>356.75888</course><type>1</type></trkpt>
      <trkpt lat="39.25173642199371" lon="-6.31669731193336"><ele>1802</ele><speed>6.55</speed><time>2016-06-01T15:46:23Z</time><pdop>6.0</pdop><geoidheight>50.60</geoidheight><course>359.31094</course><type>1</type></trkpt>
      <trkpt lat="39.25186239130385" lon="-6.316744233360961"><ele>1801</ele><speed>8.30</speed><time>2016-06-01T15:46:25Z</time><pdop>8.0</pdop><geoidheight>50.60</geoidheight><course>341.08463</course><type>1</type></trkpt>
      <trkpt lat="39.25203477656246" lon="-6.316771001954318"><ele>1797</ele><speed>7.18</speed><time>2016-06-01T15:46:28Z</time><pdop>8.0</pdop><geoidheight>50.60</geoidheight><course>357.61316</course><type>1</type></trkpt>
      <trkpt lat="39.252166837694205" lon="-6.316779655110471"><ele>1794</ele><speed>7.32</speed><time>2016-06-01T15:46:30Z</time><pdop>6.0</pdop><geoidheight>50.60</geoidheight><course>355.7104</course><type>1</type></trkpt>
      <trkpt lat="39.252313603854596" lon="-6.316806587593073"><ele>1790</ele><speed>8.49</speed><time>2016-06-01T15:46:32Z</time><pdop>8.0</pdop><geoidheight>50.60</geoidheight><course>355.18787</course><type>1</type></trkpt>
      <trkpt lat="39.252465483625755" lon="-6.316807169115415"><ele>1788</ele><speed>8.22</speed><time>2016-06-01T15:46:34Z</time><pdop>8.0</pdop><geoidheight>50.60</geoidheight><course>2.238919</course><type>1</type></trkpt>
      <trkpt lat="39.25261579345895" lon="-6.316787342861908"><ele>1787</ele><speed>7.79</speed><time>2016-06-01T15:46:36Z</time><pdop>6.0</pdop><geoidheight>50.60</geoidheight><course>3.2721357</course><type>1</type></trkpt>
      <trkpt lat="39.252791309549" lon="-6.3167849357398005"><ele>1785</ele><speed>9.33</speed><time>2016-06-01T15:46:38Z</time><pdop>8.0</pdop><geoidheight>50.60</geoidheight><course>356.88297</course><type>1</type></trkpt>
      <trkpt lat="39.25295955328107" lon="-6.3167924648261"><ele>1781</ele><speed>8.41</speed><time>2016-06-01T15:46:39Z</time><pdop>8.0</pdop><geoidheight>50.60</geoidheight><course>358.32187</course><type>1</type></trkpt>
      <trkpt lat="39.253164409673744" lon="-6.316810402133109"><ele>1776</ele><speed>8.80</speed><time>2016-06-01T15:46:43Z</time><pdop>8.0</pdop><geoidheight>50.60</geoidheight><course>352.57434</course><type>1</type></trkpt>
      <trkpt lat="39.25333422403245" lon="-6.316826274727277"><ele>1772</ele><speed>9.82</speed><time>2016-06-01T15:46:45Z</time><pdop>8.0</pdop><geoidheight>50.60</geoidheight><course>356.75638</course><type>1</type></trkpt>
      <trkpt lat="39.25350910690797" lon="-6.316835476927807"><ele>1769</ele><speed>8.72</speed><time>2016-06-01T15:46:47Z</time><pdop>8.0</pdop><geoidheight>50.60</geoidheight><course>355.29303</course><type>1</type></trkpt>
      <trkpt lat="39.25370538770512" lon="-6.316870413875062"><ele>1766</ele><speed>8.80</speed><time>2016-06-01T15:46:50Z</time><pdop>8.0</pdop><geoidheight>50.60</geoidheight><course>355.57</course><type>1</type></trkpt>
      <trkpt lat="39.25385946046702" lon="-6.3168867023411375"><ele>1763</ele><speed>8.54</speed><time>2016-06-01T15:46:52Z</time><pdop>8.0</pdop><geoidheight>50.60</geoidheight><course>355.1525</course><type>1</type></trkpt>
      <trkpt lat="39.25400094432177" lon="-6.316890537482472"><ele>1761</ele><speed>7.24</speed><time>2016-06-01T15:46:54Z</time><pdop>6.0</pdop><geoidheight>50.60</geoidheight><course>359.86365</course><type>1</type></trkpt>
      <trkpt lat="39.254127338491145" lon="-6.316885663229535"><ele>1759</ele><speed>7.27</speed><time>2016-06-01T15:46:56Z</time><pdop>6.0</pdop><geoidheight>50.60</geoidheight><course>0.31782773</course><type>1</type></trkpt>
      <trkpt lat="39.254273013770145" lon="-6.316889841136351"><ele>1756</ele><speed>7.61</speed><time>2016-06-01T15:46:57Z</time><pdop>6.0</pdop><geoidheight>50.60</geoidheight><course>358.64746</course><type>1</type></trkpt>
      <trkpt lat="39.25441733257087" lon="-6.316885464438625"><ele>1753</ele><speed>6.89</speed><time>2016-06-01T15:47:00Z</time><pdop>6.0</pdop><geoidheight>50.60</geoidheight><course>4.185561</course><type>1</type></trkpt>
      <trkpt lat="39.254530933490294" lon="-6.316886744267521"><ele>1752</ele><speed>6.66</speed><time>2016-06-01T15:47:02Z</time><pdop>6.0</pdop><geoidheight>50.60</geoidheight><course>350.6817</course><type>1</type></trkpt>
      <trkpt lat="39.254670424985406" lon="-6.316911906558368"><ele>1752</ele><speed>8.03</speed><time>2016-06-01T15:47:04Z</time><pdop>6.0</pdop><geoidheight>50.60</geoidheight><course>347.39084</course><type>1</type></trkpt>
      <trkpt lat="39.25480593476502" lon="-6.316933531897835"><ele>1752</ele><speed>7.48</speed><time>2016-06-01T15:47:06Z</time><pdop>6.0</pdop><geoidheight>50.60</geoidheight><course>349.0503</course><type>1</type></trkpt>
      <trkpt lat="39.25493655007555" lon="-6.316960195450153"><ele>1751</ele><speed>7.54</speed><time>2016-06-01T15:47:08Z</time><pdop>6.0</pdop><geoidheight>50.60</geoidheight><course>347.35648</course><type>1</type></trkpt>
      <trkpt lat="39.25507922392298" lon="-6.317003164613901"><ele>1749</ele><speed>8.04</speed><time>2016-06-01T15:47:10Z</time><pdop>6.0</pdop><geoidheight>50.60</geoidheight><course>345.6134</course><type>1</type></trkpt>
      <trkpt lat="39.25521505495563" lon="-6.3170392019878046"><ele>1747</ele><speed>7.26</speed><time>2016-06-01T15:47:12Z</time><pdop>6.0</pdop><geoidheight>50.60</geoidheight><course>348.96964</course><type>1</type></trkpt>
      <trkpt lat="39.25534494884427" lon="-6.317056570203645"><ele>1746</ele><speed>7.65</speed><time>2016-06-01T15:47:14Z</time><pdop>6.0</pdop><geoidheight>50.60</geoidheight><course>352.44278</course><type>1</type></trkpt>
      <trkpt lat="39.25549172419054" lon="-6.317072459240584"><ele>1744</ele><speed>8.00</speed><time>2016-06-01T15:47:16Z</time><pdop>4.0</pdop><geoidheight>50.60</geoidheight><course>353.86044</course><type>1</type></trkpt>
      <trkpt lat="39.255568018315365" lon="-6.317081400724113"><ele>1742</ele><speed>7.76</speed><time>2016-06-01T15:47:17Z</time><pdop>4.0</pdop><geoidheight>50.60</geoidheight><course>353.09836</course><type>1</type></trkpt>
      <trkpt lat="39.255645441364386" lon="-6.3170935998529405"><ele>1741</ele><speed>7.99</speed><time>2016-06-01T15:47:18Z</time><pdop>4.0</pdop><geoidheight>50.60</geoidheight><course>352.13092</course><type>1</type></trkpt>
      <trkpt lat="39.255721829951746" lon="-6.317106183142262"><ele>1740</ele><speed>8.63</speed><time>2016-06-01T15:47:19Z</time><pdop>4.0</pdop><geoidheight>50.60</geoidheight><course>351.57397</course><type>1</type></trkpt>
      <trkpt lat="39.25579555463621" lon="-6.317113972180204"><ele>1739</ele><speed>8.77</speed><time>2016-06-01T15:47:20Z</time><pdop>4.0</pdop><geoidheight>50.60</geoidheight><course>353.87863</course><type>1</type></trkpt>
      <trkpt lat="39.25595378213473" lon="-6.317125563899559"><ele>1737</ele><speed>9.66</speed><time>2016-06-01T15:47:22Z</time><pdop>6.0</pdop><geoidheight>50.60</geoidheight><course>353.82278</course><type>1</type></trkpt>
      <trkpt lat="39.25612002348786" lon="-6.317148127415009"><ele>1734</ele><speed>9.02</speed><time>2016-06-01T15:47:24Z</time><pdop>6.0</pdop><geoidheight>50.60</geoidheight><course>353.5551</course><type>1</type></trkpt>
      <trkpt lat="39.256286295549614" lon="-6.31715303820167"><ele>1732</ele><speed>9.00</speed><time>2016-06-01T15:47:26Z</time><pdop>6.0</pdop><geoidheight>50.60</geoidheight><course>358.5764</course><type>1</type></trkpt>
      <trkpt lat="39.256461961256214" lon="-6.317151061697626"><ele>1729</ele><speed>9.54</speed><time>2016-06-01T15:47:28Z</time><pdop>6.0</pdop><geoidheight>50.60</geoidheight><course>357.82724</course><type>1</type></trkpt>
      <trkpt lat="39.25663980644165" lon="-6.317157644979066"><ele>1726</ele><speed>9.71</speed><time>2016-06-01T15:47:30Z</time><pdop>6.0</pdop><geoidheight>50.60</geoidheight><course>357.0776</course><type>1</type></trkpt>
      <trkpt lat="39.25681150148549" lon="-6.3171662622735525"><ele>1723</ele><speed>9.36</speed><time>2016-06-01T15:47:32Z</time><pdop>6.0</pdop><geoidheight>50.60</geoidheight><course>358.54782</course><type>1</type></trkpt>
      <trkpt lat="39.25697872794571" lon="-6.317168886428842"><ele>1720</ele><speed>8.93</speed><time>2016-06-01T15:47:34Z</time><pdop>6.0</pdop><geoidheight>50.60</geoidheight><course>359.59888</course><type>1</type></trkpt>
      <trkpt lat="39.257140861950134" lon="-6.317170688458812"><ele>1718</ele><speed>8.77</speed><time>2016-06-01T15:47:35Z</time><pdop>6.0</pdop><geoidheight>50.60</geoidheight><course>359.4231</course><type>1</type></trkpt>
      <trkpt lat="39.25730575014003" lon="-6.317183118560199"><ele>1715</ele><speed>9.38</speed><time>2016-06-01T15:47:38Z</time><pdop>6.0</pdop><geoidheight>50.60</geoidheight><course>356.26944</course><type>1</type></trkpt>
      <trkpt lat="39.25747287573768" lon="-6.317195855269709"><ele>1712</ele><speed>8.80</speed><time>2016-06-01T15:47:40Z</time><pdop>6.0</pdop><geoidheight>50.60</geoidheight><course>355.82825</course><type>1</type></trkpt>
      <trkpt lat="39.25764415183516" lon="-6.317218765723906"><ele>1710</ele><speed>8.88</speed><time>2016-06-01T15:47:42Z</time><pdop>6.0</pdop><geoidheight>50.60</geoidheight><course>353.64117</course><type>1</type></trkpt>
      <trkpt lat="39.257830493096655" lon="-6.317251321863485"><ele>1706</ele><speed>9.81</speed><time>2016-06-01T15:47:44Z</time><pdop>6.0</pdop><geoidheight>50.60</geoidheight><course>353.51883</course><type>1</type></trkpt>
      <trkpt lat="39.25799876877085" lon="-6.317275491248747"><ele>1702</ele><speed>8.87</speed><time>2016-06-01T15:47:46Z</time><pdop>6.0</pdop><geoidheight>50.60</geoidheight><course>355.92462</course><type>1</type></trkpt>
      <trkpt lat="39.25814752493644" lon="-6.317304259225614"><ele>1698</ele><speed>8.26</speed><time>2016-06-01T15:47:48Z</time><pdop>6.0</pdop><geoidheight>50.60</geoidheight><course>352.5842</course><type>1</type></trkpt>
      <trkpt lat="39.258306317977095" lon="-6.317338574307807"><ele>1694</ele><speed>9.50</speed><time>2016-06-01T15:47:50Z</time><pdop>6.0</pdop><geoidheight>50.60</geoidheight><course>353.60492</course><type>1</type></trkpt>
      <trkpt lat="39.25847221366514" lon="-6.317363773029949"><ele>1690</ele><speed>9.64</speed><time>2016-06-01T15:47:52Z</time><pdop>6.0</pdop><geoidheight>50.60</geoidheight><course>352.9176</course><type>1</type></trkpt>
      <trkpt lat="39.258645525585514" lon="-6.317416469229528"><ele>1687</ele><speed>9.92</speed><time>2016-06-01T15:47:54Z</time><pdop>6.0</pdop><geoidheight>50.60</geoidheight><course>347.34045</course><type>1</type></trkpt>
      <trkpt lat="39.258814391217776" lon="-6.3174299608021975"><ele>1683</ele><speed>9.17</speed><time>2016-06-01T15:47:56Z</time><pdop>8.0</pdop><geoidheight>50.60</geoidheight><course>4.2491</course><type>1</type></trkpt>
      <trkpt lat="39.25898924712244" lon="-6.317423384453527"><ele>1680</ele><speed>9.31</speed><time>2016-06-01T15:47:58Z</time><pdop>8.0</pdop><geoidheight>50.60</geoidheight><course>0.050838493</course><type>1</type></trkpt>
      <trkpt lat="39.25918705599711" lon="-6.317443318113106"><ele>1676</ele><speed>10.91</speed><time>2016-06-01T15:48:00Z</time><pdop>6.0</pdop><geoidheight>50.60</geoidheight><course>356.49786</course><type>1</type></trkpt>
      <trkpt lat="39.2593816808454" lon="-6.317452462833804"><ele>1672</ele><speed>10.15</speed><time>2016-06-01T15:48:02Z</time><pdop>6.0</pdop><geoidheight>50.60</geoidheight><course>359.6518</course><type>1</type></trkpt>
      <trkpt lat="39.25956289433376" lon="-6.31746168214916"><ele>1670</ele><speed>10.18</speed><time>2016-06-01T15:48:04Z</time><pdop>6.0</pdop><geoidheight>50.60</geoidheight><course>357.3963</course><type>1</type></trkpt>
      <trkpt lat="39.25976080033366" lon="-6.317471792986645"><ele>1668</ele><speed>11.05</speed><time>2016-06-01T15:48:06Z</time><pdop>6.0</pdop><geoidheight>50.60</geoidheight><course>358.81287</course><type>1</type></trkpt>
      <trkpt lat="39.2599610135938" lon="-6.317484202942387"><ele>1666</ele><speed>11.41</speed><time>2016-06-01T15:48:08Z</time><pdop>8.0</pdop><geoidheight>50.60</geoidheight><course>356.62802</course><type>1</type></trkpt>
      <trkpt lat="39.26014861172105" lon="-6.317512238733903"><ele>1665</ele><speed>9.20</speed><time>2016-06-01T15:48:09Z</time><pdop>6.0</pdop><geoidheight>50.60</geoidheight><course>354.61163</course><type>1</type></trkpt>
      <trkpt lat="39.26029278157" lon="-6.3175355829938615"><ele>1664</ele><speed>7.96</speed><time>2016-06-01T15:48:12Z</time><pdop>8.0</pdop><geoidheight>50.60</geoidheight><course>353.7025</course><type>1</type></trkpt>
      <trkpt lat="39.26045629575882" lon="-6.317561493184684"><ele>1664</ele><speed>8.56</speed><time>2016-06-01T15:48:14Z</time><pdop>8.0</pdop><geoidheight>50.60</geoidheight><course>353.5719</course><type>1</type></trkpt>
      <trkpt lat="39.26060485505805" lon="-6.317596460878623"><ele>1662</ele><speed>9.05</speed><time>2016-06-01T15:48:16Z</time><pdop>6.0</pdop><geoidheight>50.60</geoidheight><course>353.70886</course><type>1</type></trkpt>
      <trkpt lat="39.260742516499505" lon="-6.317630738558485"><ele>1660</ele><speed>8.00</speed><time>2016-06-01T15:48:18Z</time><pdop>6.0</pdop><geoidheight>50.60</geoidheight><course>353.90985</course><type>1</type></trkpt>
      <trkpt lat="39.2608951719896" lon="-6.317651216516156"><ele>1658</ele><speed>7.90</speed><time>2016-06-01T15:48:20Z</time><pdop>8.0</pdop><geoidheight>50.60</geoidheight><course>354.362</course><type>1</type></trkpt>
      <trkpt lat="39.26104045722004" lon="-6.317684362014681"><ele>1657</ele><speed>8.32</speed><time>2016-06-01T15:48:22Z</time><pdop>6.0</pdop><geoidheight>50.60</geoidheight><course>349.535</course><type>1</type></trkpt>
      <trkpt lat="39.261196621491635" lon="-6.317723300417179"><ele>1655</ele><speed>9.29</speed><time>2016-06-01T15:48:24Z</time><pdop>8.0</pdop><geoidheight>50.60</geoidheight><course>349.03748</course><type>1</type></trkpt>
      <trkpt lat="39.26134419816999" lon="-6.317751863910356"><ele>1653</ele><speed>7.67</speed><time>2016-06-01T15:48:26Z</time><pdop>6.0</pdop><geoidheight>50.60</geoidheight><course>352.2244</course><type>1</type></trkpt>
      <trkpt lat="39.261473640092845" lon="-6.317770491324022"><ele>1653</ele><speed>7.28</speed><time>2016-06-01T15:48:28Z</time><pdop>6.0</pdop><geoidheight>50.60</geoidheight><course>352.5908</course><type>1</type></trkpt>
      <trkpt lat="39.26161171182248" lon="-6.317802389167327"><ele>1654</ele><speed>8.26</speed><time>2016-06-01T15:48:30Z</time><pdop>6.0</pdop><geoidheight>50.60</geoidheight><course>348.89243</course><type>1</type></trkpt>
      <trkpt lat="39.26174449353367" lon="-6.317837984265035"><ele>1654</ele><speed>7.79</speed><time>2016-06-01T15:48:32Z</time><pdop>8.0</pdop><geoidheight>50.60</geoidheight><course>349.41296</course><type>1</type></trkpt>
      <trkpt lat="39.26187890413771" lon="-6.317867813811934"><ele>1654</ele><speed>7.56</speed><time>2016-06-01T15:48:34Z</time><pdop>6.0</pdop><geoidheight>50.60</geoidheight><course>349.37683</course><type>1</type></trkpt>
      <trkpt lat="39.262010696258265" lon="-6.3179074552234"><ele>1653</ele><speed>8.07</speed><time>2016-06-01T15:48:36Z</time><pdop>6.0</pdop><geoidheight>50.60</geoidheight><course>347.89395</course><type>1</type></trkpt>
      <trkpt lat="39.26216120853593" lon="-6.317942332464244"><ele>1654</ele><speed>8.03</speed><time>2016-06-01T15:48:38Z</time><pdop>6.0</pdop><geoidheight>50.60</geoidheight><course>350.12323</course><type>1</type></trkpt>
      <trkpt lat="39.2623231014056" lon="-6.317977136032924"><ele>1656</ele><speed>7.06</speed><time>2016-06-01T15:48:39Z</time><pdop>6.0</pdop><geoidheight>50.60</geoidheight><course>349.10965</course><type>1</type></trkpt>
      <trkpt lat="39.26246224489601" lon="-6.318014262041293"><ele>1657</ele><speed>7.06</speed><time>2016-06-01T15:48:42Z</time><pdop>6.0</pdop><geoidheight>50.60</geoidheight><course>347.7732</course><type>1</type></trkpt>
      <trkpt lat="39.26259929636392" lon="-6.318061191855763"><ele>1658</ele><speed>7.77</speed><time>2016-06-01T15:48:44Z</time><pdop>6.0</pdop><geoidheight>50.60</geoidheight><course>345.05838</course><type>1</type></trkpt>
      <trkpt lat="39.26271433570194" lon="-6.318118314342574"><ele>1658</ele><speed>7.00</speed><time>2016-06-01T15:48:46Z</time><pdop>6.0</pdop><geoidheight>50.60</geoidheight><course>339.90314</course><type>1</type></trkpt>
      <trkpt lat="39.26282041973239" lon="-6.318166966977663"><ele>1658</ele><speed>6.60</speed><time>2016-06-01T15:48:48Z</time><pdop>6.0</pdop><geoidheight>50.60</geoidheight><course>343.51743</course><type>1</type></trkpt>
      <trkpt lat="39.26300923137525" lon="-6.318212776179612"><ele>1657</ele><speed>9.15</speed><time>2016-06-01T15:48:51Z</time><pdop>8.0</pdop><geoidheight>50.60</geoidheight><course>350.12424</course><type>1</type></trkpt>
      <trkpt lat="39.26316991924862" lon="-6.3182325099799135"><ele>1656</ele><speed>9.18</speed><time>2016-06-01T15:48:53Z</time><pdop>8.0</pdop><geoidheight>50.60</geoidheight><course>352.9427</course><type>1</type></trkpt>
      <trkpt lat="39.2633137111545" lon="-6.318254425328406"><ele>1656</ele><speed>7.39</speed><time>2016-06-01T15:48:55Z</time><pdop>6.0</pdop><geoidheight>50.60</geoidheight><course>350.1531</course><type>1</type></trkpt>
      <trkpt lat="39.263446724284044" lon="-6.318273904771027"><ele>1657</ele><speed>8.43</speed><time>2016-06-01T15:48:57Z</time><pdop>6.0</pdop><geoidheight>50.60</geoidheight><course>355.07193</course><type>1</type></trkpt>
      <trkpt lat="39.26358551925483" lon="-6.31827656445969"><ele>1658</ele><speed>8.20</speed><time>2016-06-01T15:48:59Z</time><pdop>6.0</pdop><geoidheight>50.60</geoidheight><course>356.3092</course><type>1</type></trkpt>
      <trkpt lat="39.26373248385233" lon="-6.318282764281256"><ele>1659</ele><speed>7.92</speed><time>2016-06-01T15:49:01Z</time><pdop>6.0</pdop><geoidheight>50.60</geoidheight><course>355.80304</course><type>1</type></trkpt>
      <trkpt lat="39.26388231608105" lon="-6.318284642437567"><ele>1660</ele><speed>7.67</speed><time>2016-06-01T15:49:03Z</time><pdop>6.0</pdop><geoidheight>50.60</geoidheight><course>357.53143</course><type>1</type></trkpt>
      <trkpt lat="39.26402821257224" lon="-6.318288265919607"><ele>1660</ele><speed>8.40</speed><time>2016-06-01T15:49:05Z</time><pdop>6.0</pdop><geoidheight>50.60</geoidheight><course>358.06512</course><type>1</type></trkpt>
      <trkpt lat="39.26418809144635" lon="-6.31829504312865"><ele>1661</ele><speed>8.54</speed><time>2016-06-01T15:49:07Z</time><pdop>6.0</pdop><geoidheight>50.60</geoidheight><course>358.46777</course><type>1</type></trkpt>
      <trkpt lat="39.26434299564463" lon="-6.318301311331304"><ele>1661</ele><speed>9.08</speed><time>2016-06-01T15:49:09Z</time><pdop>6.0</pdop><geoidheight>50.60</geoidheight><course>357.08078</course><type>1</type></trkpt>
      <trkpt lat="39.26450377179149" lon="-6.318322310169894"><ele>1662</ele><speed>7.10</speed><time>2016-06-01T15:49:10Z</time><pdop>6.0</pdop><geoidheight>50.60</geoidheight><course>352.5509</course><type>1</type></trkpt>
      <trkpt lat="39.26467792626511" lon="-6.318357426994342"><ele>1666</ele><speed>6.44</speed><time>2016-06-01T15:49:14Z</time><pdop>12.0</pdop><geoidheight>50.60</geoidheight><course>352.216</course><type>1</type></trkpt>
      <trkpt lat="39.264893344655256" lon="-6.318387969106291"><ele>1669</ele><speed>7.15</speed><time>2016-06-01T15:49:17Z</time><pdop>8.0</pdop><geoidheight>50.60</geoidheight><course>351.6409</course><type>1</type></trkpt>
      <trkpt lat="39.26506388492089" lon="-6.318418281626178"><ele>1673</ele><speed>6.84</speed><time>2016-06-01T15:49:20Z</time><pdop>8.0</pdop><geoidheight>50.60</geoidheight><course>353.02954</course><type>1</type></trkpt>
      <trkpt lat="39.265225288481666" lon="-6.318283420887078"><ele>1674</ele><speed>9.34</speed><time>2016-06-01T15:49:23Z</time><pdop>6.0</pdop><geoidheight>50.60</geoidheight><course>50.88684</course><type>1</type></trkpt>
      <trkpt lat="39.265271179534274" lon="-6.31806635090045"><ele>1674</ele><speed>10.18</speed><time>2016-06-01T15:49:25Z</time><pdop>8.0</pdop><geoidheight>50.60</geoidheight><course>84.91749</course><type>1</type></trkpt>
      <trkpt lat="39.26522705208154" lon="-6.317858596068152"><ele>1674</ele><speed>10.69</speed><time>2016-06-01T15:49:27Z</time><pdop>8.0</pdop><geoidheight>50.60</geoidheight><course>119.51468</course><type>1</type></trkpt>
      <trkpt lat="39.26508585643748" lon="-6.317712895457362"><ele>1675</ele><speed>11.34</speed><time>2016-06-01T15:49:29Z</time><pdop>8.0</pdop><geoidheight>50.60</geoidheight><course>152.51875</course><type>1</type></trkpt>
      <trkpt lat="39.264903484514285" lon="-6.3176712543485"><ele>1676</ele><speed>10.08</speed><time>2016-06-01T15:49:31Z</time><pdop>8.0</pdop><geoidheight>50.60</geoidheight><course>185.08984</course><type>1</type></trkpt>
      <trkpt lat="39.26475022148517" lon="-6.317842720093906"><ele>1678</ele><speed>10.15</speed><time>2016-06-01T15:49:32Z</time><pdop>8.0</pdop><geoidheight>50.60</geoidheight><course>231.85213</course><type>1</type></trkpt>
      <trkpt lat="39.264662760354454" lon="-6.318018299079685"><ele>1680</ele><speed>7.72</speed><time>2016-06-01T15:49:35Z</time><pdop>8.0</pdop><geoidheight>50.60</geoidheight><course>249.41185</course><type>1</type></trkpt>
      <trkpt lat="39.26465301092488" lon="-6.318254382534332"><ele>1683</ele><speed>7.69</speed><time>2016-06-01T15:49:38Z</time><pdop>8.0</pdop><geoidheight>50.60</geoidheight><course>281.45117</course><type>1</type></trkpt>
      <trkpt lat="39.264732186211084" lon="-6.318504051871026"><ele>1683</ele><speed>7.79</speed><time>2016-06-01T15:49:41Z</time><pdop>12.0</pdop><geoidheight>50.60</geoidheight><course>303.49048</course><type>1</type></trkpt>
      <trkpt lat="39.26495244401331" lon="-6.318484868106222"><ele>1687</ele><speed>9.01</speed><time>2016-06-01T15:49:45Z</time><pdop>12.0</pdop><geoidheight>50.60</geoidheight><course>44.1634</course><type>1</type></trkpt>
      <trkpt lat="39.264971745793574" lon="-6.318180967613669"><ele>1692</ele><speed>12.08</speed><time>2016-06-01T15:49:47Z</time><pdop>12.0</pdop><geoidheight>50.60</geoidheight><course>116.757164</course><type>1</type></trkpt>
      <trkpt lat="39.264678429363904" lon="-6.318086453264511"><ele>1695</ele><speed>11.82</speed><time>2016-06-01T15:49:51Z</time><pdop>12.0</pdop><geoidheight>50.60</geoidheight><course>186.15007</course><type>1</type></trkpt>
      <trkpt lat="39.264511126456696" lon="-6.31821768443392"><ele>1696</ele><speed>9.10</speed><time>2016-06-01T15:49:52Z</time><pdop>8.0</pdop><geoidheight>50.60</geoidheight><course>222.22485</course><type>1</type></trkpt>
      <trkpt lat="39.2643905317998" lon="-6.318486469297707"><ele>1699</ele><speed>8.63</speed><time>2016-06-01T15:49:56Z</time><pdop>12.0</pdop><geoidheight>50.60</geoidheight><course>262.27496</course><type>1</type></trkpt>
      <trkpt lat="39.264435237988586" lon="-6.318732114770581"><ele>1703</ele><speed>6.45</speed><time>2016-06-01T15:49:58Z</time><pdop>8.0</pdop><geoidheight>50.60</geoidheight><course>343.96722</course><type>1</type></trkpt>
      <trkpt lat="39.2646142920501" lon="-6.318599098768818"><ele>1707</ele><speed>7.96</speed><time>2016-06-01T15:50:02Z</time><pdop>12.0</pdop><geoidheight>50.60</geoidheight><course>52.77654</course><type>1</type></trkpt>
      <trkpt lat="39.26465857210101" lon="-6.31824209115717"><ele>1712</ele><speed>10.79</speed><time>2016-06-01T15:50:05Z</time><pdop>12.0</pdop><geoidheight>50.60</geoidheight><course>105.93478</course><type>1</type></trkpt>
      <trkpt lat="39.26435004012016" lon="-6.3180406960123285"><ele>1718</ele><speed>12.07</speed><time>2016-06-01T15:50:09Z</time><pdop>12.0</pdop><geoidheight>50.60</geoidheight><course>185.73146</course><type>1</type></trkpt>
      <trkpt lat="39.264138613489585" lon="-6.318175983794146"><ele>1722</ele><speed>10.38</speed><time>2016-06-01T15:50:11Z</time><pdop>8.0</pdop><geoidheight>50.60</geoidheight><course>220.11133</course><type>1</type></trkpt>
      <trkpt lat="39.264017917703555" lon="-6.318358802757898"><ele>1726</ele><speed>8.19</speed><time>2016-06-01T15:50:13Z</time><pdop>8.0</pdop><geoidheight>50.60</geoidheight><course>248.41559</course><type>1</type></trkpt>
      <trkpt lat="39.264068249851256" lon="-6.318595424340222"><ele>1732</ele><speed>7.39</speed><time>2016-06-01T15:50:16Z</time><pdop>8.0</pdop><geoidheight>50.60</geoidheight><course>322.07227</course><type>1</type></trkpt>
      <trkpt lat="39.26426180042157" lon="-6.318562415716632"><ele>1739</ele><speed>7.92</speed><time>2016-06-01T15:50:19Z</time><pdop>8.0</pdop><geoidheight>50.60</geoidheight><course>36.52132</course><type>1</type></trkpt>
      <trkpt lat="39.264348587331135" lon="-6.318280327408931"><ele>1746</ele><speed>9.49</speed><time>2016-06-01T15:50:22Z</time><pdop>12.0</pdop><geoidheight>50.60</geoidheight><course>100.509735</course><type>1</type></trkpt>
      <trkpt lat="39.26419034570316" lon="-6.317947462926114"><ele>1752</ele><speed>12.62</speed><time>2016-06-01T15:50:25Z</time><pdop>16.0</pdop><geoidheight>50.60</geoidheight><course>142.7919</course><type>1</type></trkpt>
      <trkpt lat="39.26391637797033" lon="-6.317875380791193"><ele>1758</ele><speed>9.94</speed><time>2016-06-01T15:50:28Z</time><pdop>12.0</pdop><geoidheight>50.60</geoidheight><course>191.05557</course><type>1</type></trkpt>
      <trkpt lat="39.26368920814314" lon="-6.318062462324982"><ele>1768</ele><speed>8.89</speed><time>2016-06-01T15:50:31Z</time><pdop>6.0</pdop><geoidheight>50.60</geoidheight><course>235.08034</course><type>1</type></trkpt>
      <trkpt lat="39.263657048218725" lon="-6.318272220944855"><ele>1775</ele><speed>7.39</speed><time>2016-06-01T15:50:32Z</time><pdop>8.0</pdop><geoidheight>50.60</geoidheight><course>261.53702</course><type>1</type></trkpt>
      <trkpt lat="39.26386174557719" lon="-6.318386783222858"><ele>1784</ele><speed>7.88</speed><time>2016-06-01T15:50:36Z</time><pdop>8.0</pdop><geoidheight>50.60</geoidheight><course>12.732814</course><type>1</type></trkpt>
      <trkpt lat="39.263954441918784" lon="-6.318175036303016"><ele>1793</ele><speed>8.50</speed><time>2016-06-01T15:50:40Z</time><pdop>8.0</pdop><geoidheight>50.60</geoidheight><course>68.172966</course><type>1</type></trkpt>
      <trkpt lat="39.26387256547912" lon="-6.317942685290347"><ele>1799</ele><speed>12.26</speed><time>2016-06-01T15:50:42Z</time><pdop>12.0</pdop><geoidheight>50.60</geoidheight><course>130.15845</course><type>1</type></trkpt>
      <trkpt lat="39.26364464011192" lon="-6.31778721212326"><ele>1804</ele><speed>12.43</speed><time>2016-06-01T15:50:44Z</time><pdop>12.0</pdop><geoidheight>50.60</geoidheight><course>165.70918</course><type>1</type></trkpt>
      <trkpt lat="39.26346233531179" lon="-6.317818239141269"><ele>1806</ele><speed>11.08</speed><time>2016-06-01T15:50:46Z</time><pdop>8.0</pdop><geoidheight>50.60</geoidheight><course>203.9847</course><type>1</type></trkpt>
      <trkpt lat="39.263301445569724" lon="-6.317962212333094"><ele>1809</ele><speed>9.95</speed><time>2016-06-01T15:50:48Z</time><pdop>8.0</pdop><geoidheight>50.60</geoidheight><course>222.79417</course><type>1</type></trkpt>
      <trkpt lat="39.2632195567208" lon="-6.318201643297922"><ele>1818</ele><speed>5.49</speed><time>2016-06-01T15:50:51Z</time><pdop>12.0</pdop><geoidheight>50.60</geoidheight><course>277.2006</course><type>1</type></trkpt>
      <trkpt lat="39.26340574487121" lon="-6.318279740863922"><ele>1824</ele><speed>8.48</speed><time>2016-06-01T15:50:54Z</time><pdop>8.0</pdop><geoidheight>50.60</geoidheight><course>15.143928</course><type>1</type></trkpt>
      <trkpt lat="39.26353339675768" lon="-6.318128080398524"><ele>1828</ele><speed>9.43</speed><time>2016-06-01T15:50:56Z</time><pdop>8.0</pdop><geoidheight>50.60</geoidheight><course>76.14229</course><type>1</type></trkpt>
      <trkpt lat="39.26345423101124" lon="-6.317832109386655"><ele>1834</ele><speed>10.87</speed><time>2016-06-01T15:51:00Z</time><pdop>12.0</pdop><geoidheight>50.60</geoidheight><course>127.841156</course><type>1</type></trkpt>
      <trkpt lat="39.263197417690336" lon="-6.317657270530866"><ele>1842</ele><speed>11.36</speed><time>2016-06-01T15:51:02Z</time><pdop>8.0</pdop><geoidheight>50.60</geoidheight><course>164.44049</course><type>1</type></trkpt>
      <trkpt lat="39.263038824575275" lon="-6.317641285007886"><ele>1846</ele><speed>10.83</speed><time>2016-06-01T15:51:05Z</time><pdop>8.0</pdop><geoidheight>50.60</geoidheight><course>195.00441</course><type>1</type></trkpt>
      <trkpt lat="39.262895376714596" lon="-6.317786689267109"><ele>1850</ele><speed>10.00</speed><time>2016-06-01T15:51:07Z</time><pdop>8.0</pdop><geoidheight>50.60</geoidheight><course>237.53767</course><type>1</type></trkpt>
      <trkpt lat="39.26292751228684" lon="-6.318002287853031"><ele>1856</ele><speed>8.64</speed><time>2016-06-01T15:51:09Z</time><pdop>8.0</pdop><geoidheight>50.60</geoidheight><course>322.55362</course><type>1</type></trkpt>
      <trkpt lat="39.26310892135935" lon="-6.317974666837631"><ele>1859</ele><speed>8.63</speed><time>2016-06-01T15:51:13Z</time><pdop>8.0</pdop><geoidheight>50.60</geoidheight><course>37.24677</course><type>1</type></trkpt>
      <trkpt lat="39.26319871480824" lon="-6.317815667713787"><ele>1863</ele><speed>8.83</speed><time>2016-06-01T15:51:15Z</time><pdop>8.0</pdop><geoidheight>50.60</geoidheight><course>62.37747</course><type>1</type></trkpt>
      <trkpt lat="39.26321087454836" lon="-6.317625319739513"><ele>1867</ele><speed>9.81</speed><time>2016-06-01T15:51:17Z</time><pdop>8.0</pdop><geoidheight>50.60</geoidheight><course>89.71652</course><type>1</type></trkpt>
      <trkpt lat="39.263114791139365" lon="-6.31734208786201"><ele>1871</ele><speed>13.75</speed><time>2016-06-01T15:51:19Z</time><pdop>12.0</pdop><geoidheight>50.60</geoidheight><course>123.18427</course><type>1</type></trkpt>
      <trkpt lat="39.26286293672485" lon="-6.317219074447066"><ele>1875</ele><speed>14.81</speed><time>2016-06-01T15:51:21Z</time><pdop>12.0</pdop><geoidheight>50.60</geoidheight><course>175.02713</course><type>1</type></trkpt>
      <trkpt lat="39.26265792452475" lon="-6.317335091867234"><ele>1877</ele><speed>11.46</speed><time>2016-06-01T15:51:23Z</time><pdop>8.0</pdop><geoidheight>50.60</geoidheight><course>222.8176</course><type>1</type></trkpt>
      <trkpt lat="39.26254878753728" lon="-6.317549499479882"><ele>1880</ele><speed>9.49</speed><time>2016-06-01T15:51:25Z</time><pdop>8.0</pdop><geoidheight>50.60</geoidheight><course>236.24362</course><type>1</type></trkpt>
      <trkpt lat="39.262489054312645" lon="-6.317764639925396"><ele>1883</ele><speed>7.36</speed><time>2016-06-01T15:51:27Z</time><pdop>8.0</pdop><geoidheight>50.60</geoidheight><course>259.6532</course><type>1</type></trkpt>
      <trkpt lat="39.26255369336502" lon="-6.317978023241357"><ele>1887</ele><speed>6.98</speed><time>2016-06-01T15:51:30Z</time><pdop>8.0</pdop><geoidheight>50.60</geoidheight><course>321.99634</course><type>1</type></trkpt>
      <trkpt lat="39.26270178973605" lon="-6.317996248372942"><ele>1890</ele><speed>6.22</speed><time>2016-06-01T15:51:33Z</time><pdop>8.0</pdop><geoidheight>50.60</geoidheight><course>6.0020595</course><type>1</type></trkpt>
      <trkpt lat="39.26282765482114" lon="-6.3178668375309"><ele>1896</ele><speed>8.32</speed><time>2016-06-01T15:51:35Z</time><pdop>8.0</pdop><geoidheight>50.60</geoidheight><course>62.589905</course><type>1</type></trkpt>
      <trkpt lat="39.26280689349902" lon="-6.317661758259759"><ele>1902</ele><speed>10.93</speed><time>2016-06-01T15:51:38Z</time><pdop>8.0</pdop><geoidheight>50.60</geoidheight><course>110.35968</course><type>1</type></trkpt>
      <trkpt lat="39.26263401794901" lon="-6.317447799669594"><ele>1910</ele><speed>11.24</speed><time>2016-06-01T15:51:41Z</time><pdop>12.0</pdop><geoidheight>50.60</geoidheight><course>157.29901</course><type>1</type></trkpt>
      <trkpt lat="39.2624524952667" lon="-6.317479071678522"><ele>1915</ele><speed>11.21</speed><time>2016-06-01T15:51:43Z</time><pdop>8.0</pdop><geoidheight>50.60</geoidheight><course>196.73271</course><type>1</type></trkpt>
      <trkpt lat="39.26229023407392" lon="-6.317613830978658"><ele>1920</ele><speed>10.21</speed><time>2016-06-01T15:51:45Z</time><pdop>8.0</pdop><geoidheight>50.60</geoidheight><course>214.95146</course><type>1</type></trkpt>
      <trkpt lat="39.26221029417297" lon="-6.3178073483626305"><ele>1923</ele><speed>9.20</speed><time>2016-06-01T15:51:47Z</time><pdop>8.0</pdop><geoidheight>50.60</geoidheight><course>257.90323</course><type>1</type></trkpt>
      <trkpt lat="39.26221291474866" lon="-6.318040417255493"><ele>1930</ele><speed>6.60</speed><time>2016-06-01T15:51:50Z</time><pdop>8.0</pdop><geoidheight>50.60</geoidheight><course>288.45145</course><type>1</type></trkpt>
      <trkpt lat="39.26231429175285" lon="-6.318190602982292"><ele>1934</ele><speed>5.94</speed><time>2016-06-01T15:51:53Z</time><pdop>8.0</pdop><geoidheight>50.60</geoidheight><course>346.3729</course><type>1</type></trkpt>
      <trkpt lat="39.262471860739744" lon="-6.318068127313865"><ele>1938</ele><speed>8.51</speed><time>2016-06-01T15:51:56Z</time><pdop>8.0</pdop><geoidheight>50.60</geoidheight><course>61.59558</course><type>1</type></trkpt>
      <trkpt lat="39.26239056689809" lon="-6.317800868699029"><ele>1945</ele><speed>11.06</speed><time>2016-06-01T15:51:59Z</time><pdop>8.0</pdop><geoidheight>50.60</geoidheight><course>130.61945</course><type>1</type></trkpt>
      <trkpt lat="39.262201936084224" lon="-6.317626936220436"><ele>1949</ele><speed>11.95</speed><time>2016-06-01T15:52:01Z</time><pdop>12.0</pdop><geoidheight>50.60</geoidheight><course>160.48929</course><type>1</type></trkpt>
      <trkpt lat="39.26186884844092" lon="-6.317574797714911"><ele>1957</ele><speed>14.04</speed><time>2016-06-01T15:52:04Z</time><pdop>16.0</pdop><geoidheight>50.60</geoidheight><course>172.62119</course><type>1</type></trkpt>
      <trkpt lat="39.26177018748854" lon="-6.31792908265074"><ele>1965</ele><speed>8.21</speed><time>2016-06-01T15:52:07Z</time><pdop>12.0</pdop><geoidheight>50.60</geoidheight><course>265.79474</course><type>1</type></trkpt>
      <trkpt lat="39.26185869341391" lon="-6.3182037946379594"><ele>1969</ele><speed>7.55</speed><time>2016-06-01T15:52:10Z</time><pdop>12.0</pdop><geoidheight>50.60</geoidheight><course>301.55377</course><type>1</type></trkpt>
      <trkpt lat="39.26212891662628" lon="-6.318165594150929"><ele>1972</ele><speed>8.42</speed><time>2016-06-01T15:52:14Z</time><pdop>12.0</pdop><geoidheight>50.60</geoidheight><course>40.3263</course><type>1</type></trkpt>
      <trkpt lat="39.26222477762327" lon="-6.3178951905105345"><ele>1975</ele><speed>8.26</speed><time>2016-06-01T15:52:17Z</time><pdop>12.0</pdop><geoidheight>50.60</geoidheight><course>82.50465</course><type>1</type></trkpt>
      <trkpt lat="39.262085239196004" lon="-6.317606214279663"><ele>1977</ele><speed>12.15</speed><time>2016-06-01T15:52:20Z</time><pdop>8.0</pdop><geoidheight>50.60</geoidheight><course>138.53423</course><type>1</type></trkpt>
      <trkpt lat="39.26187715118727" lon="-6.3175253569854455"><ele>1981</ele><speed>13.25</speed><time>2016-06-01T15:52:22Z</time><pdop>12.0</pdop><geoidheight>50.60</geoidheight><course>167.09276</course><type>1</type></trkpt>
      <trkpt lat="39.261650974567786" lon="-6.317579855361414"><ele>1989</ele><speed>12.48</speed><time>2016-06-01T15:52:24Z</time><pdop>8.0</pdop><geoidheight>50.60</geoidheight><course>176.65057</course><type>1</type></trkpt>
      <trkpt lat="39.26155227693651" lon="-6.3178101918194365"><ele>1996</ele><speed>10.21</speed><time>2016-06-01T15:52:26Z</time><pdop>12.0</pdop><geoidheight>50.60</geoidheight><course>252.99506</course><type>1</type></trkpt>
      <trkpt lat="39.26163237621917" lon="-6.318072920733059"><ele>2006</ele><speed>8.37</speed><time>2016-06-01T15:52:29Z</time><pdop>12.0</pdop><geoidheight>50.60</geoidheight><course>312.09476</course><type>1</type></trkpt>
      <trkpt lat="39.26189699081567" lon="-6.318114022826705"><ele>2016</ele><speed>8.33</speed><time>2016-06-01T15:52:33Z</time><pdop>8.0</pdop><geoidheight>50.60</geoidheight><course>33.598164</course><type>1</type></trkpt>
      <trkpt lat="39.26196678417666" lon="-6.317822242340973"><ele>2025</ele><speed>10.33</speed><time>2016-06-01T15:52:36Z</time><pdop>12.0</pdop><geoidheight>50.60</geoidheight><course>99.06131</course><type>1</type></trkpt>
      <trkpt lat="39.2617925999014" lon="-6.317572641453115"><ele>2034</ele><speed>10.78</speed><time>2016-06-01T15:52:39Z</time><pdop>12.0</pdop><geoidheight>50.60</geoidheight><course>150.23042</course><type>1</type></trkpt>
      <trkpt lat="39.26160348103018" lon="-6.31752813047938"><ele>2039</ele><speed>12.11</speed><time>2016-06-01T15:52:41Z</time><pdop>8.0</pdop><geoidheight>50.60</geoidheight><course>179.51926</course><type>1</type></trkpt>
      <trkpt lat="39.26140409366258" lon="-6.317705758295078"><ele>2046</ele><speed>9.79</speed><time>2016-06-01T15:52:43Z</time><pdop>8.0</pdop><geoidheight>50.60</geoidheight><course>246.1461</course><type>1</type></trkpt>
      <trkpt lat="39.26141288545145" lon="-6.317909777879099"><ele>2049</ele><speed>8.39</speed><time>2016-06-01T15:52:46Z</time><pdop>8.0</pdop><geoidheight>50.60</geoidheight><course>294.77545</course><type>1</type></trkpt>
      <trkpt lat="39.26156785150887" lon="-6.317976988788517"><ele>2051</ele><speed>7.90</speed><time>2016-06-01T15:52:49Z</time><pdop>8.0</pdop><geoidheight>50.60</geoidheight><course>8.379433</course><type>1</type></trkpt>
      <trkpt lat="39.261735909538345" lon="-6.317816291110821"><ele>2053</ele><speed>9.92</speed><time>2016-06-01T15:52:52Z</time><pdop>12.0</pdop><geoidheight>50.60</geoidheight><course>59.30445</course><type>1</type></trkpt>
      <trkpt lat="39.26167198532552" lon="-6.317466927470745"><ele>2057</ele><speed>11.89</speed><time>2016-06-01T15:52:55Z</time><pdop>12.0</pdop><geoidheight>50.60</geoidheight><course>122.14067</course><type>1</type></trkpt>
      <trkpt lat="39.26144466108158" lon="-6.317371971056416"><ele>2059</ele><speed>13.06</speed><time>2016-06-01T15:52:57Z</time><pdop>8.0</pdop><geoidheight>50.60</geoidheight><course>135.75632</course><type>1</type></trkpt>
      <trkpt lat="39.261256542478655" lon="-6.31748602347366"><ele>2061</ele><speed>10.78</speed><time>2016-06-01T15:52:58Z</time><pdop>12.0</pdop><geoidheight>50.60</geoidheight><course>227.25919</course><type>1</type></trkpt>
      <trkpt lat="39.26121284441147" lon="-6.317762565869127"><ele>2065</ele><speed>7.61</speed><time>2016-06-01T15:53:02Z</time><pdop>12.0</pdop><geoidheight>50.60</geoidheight><course>294.6308</course><type>1</type></trkpt>
      <trkpt lat="39.2613702685216" lon="-6.31792699426892"><ele>2067</ele><speed>6.92</speed><time>2016-06-01T15:53:05Z</time><pdop>8.0</pdop><geoidheight>50.60</geoidheight><course>348.3842</course><type>1</type></trkpt>
      <trkpt lat="39.26153348186825" lon="-6.317831644469056"><ele>2071</ele><speed>10.66</speed><time>2016-06-01T15:53:08Z</time><pdop>8.0</pdop><geoidheight>50.60</geoidheight><course>49.03297</course><type>1</type></trkpt>
      <trkpt lat="39.261503134512516" lon="-6.317590758092147"><ele>2073</ele><speed>12.61</speed><time>2016-06-01T15:53:09Z</time><pdop>12.0</pdop><geoidheight>50.60</geoidheight><course>120.91387</course><type>1</type></trkpt>
      <trkpt lat="39.26132658638103" lon="-6.317449058887785"><ele>2076</ele><speed>13.27</speed><time>2016-06-01T15:53:12Z</time><pdop>8.0</pdop><geoidheight>50.60</geoidheight><course>175.89021</course><type>1</type></trkpt>
      <trkpt lat="39.261108247842834" lon="-6.317547651347791"><ele>2079</ele><speed>11.39</speed><time>2016-06-01T15:53:14Z</time><pdop>8.0</pdop><geoidheight>50.60</geoidheight><course>215.92737</course><type>1</type></trkpt>
      <trkpt lat="39.26108593142029" lon="-6.317741041893145"><ele>2079</ele><speed>9.36</speed><time>2016-06-01T15:53:16Z</time><pdop>8.0</pdop><geoidheight>50.60</geoidheight><course>298.1645</course><type>1</type></trkpt>
      <trkpt lat="39.26112690605006" lon="-6.318021509768226"><ele>2082</ele><speed>5.57</speed><time>2016-06-01T15:53:21Z</time><pdop>12.0</pdop><geoidheight>50.60</geoidheight><course>304.58167</course><type>1</type></trkpt>
      <trkpt lat="39.26131890349924" lon="-6.318163915926274"><ele>2091</ele><speed>5.28</speed><time>2016-06-01T15:53:27Z</time><pdop>12.0</pdop><geoidheight>50.60</geoidheight><course>318.4032</course><type>1</type></trkpt>
      <trkpt lat="39.26126357759599" lon="-6.318476002686024"><ele>2097</ele><speed>11.77</speed><time>2016-06-01T15:53:31Z</time><pdop>12.0</pdop><geoidheight>50.60</geoidheight><course>224.93681</course><type>1</type></trkpt>
      <trkpt lat="39.261055177032475" lon="-6.318602983434787"><ele>2101</ele><speed>12.47</speed><time>2016-06-01T15:53:33Z</time><pdop>12.0</pdop><geoidheight>50.60</geoidheight><course>195.5812</course><type>1</type></trkpt>
      <trkpt lat="39.26085713310215" lon="-6.318541896534068"><ele>2105</ele><speed>12.88</speed><time>2016-06-01T15:53:35Z</time><pdop>8.0</pdop><geoidheight>50.60</geoidheight><course>146.96875</course><type>1</type></trkpt>
      <trkpt lat="39.260712605873046" lon="-6.318263862851898"><ele>2109</ele><speed>8.69</speed><time>2016-06-01T15:53:38Z</time><pdop>12.0</pdop><geoidheight>50.60</geoidheight><course>98.87474</course><type>1</type></trkpt>
      <trkpt lat="39.260796914809674" lon="-6.3179564564043815"><ele>2112</ele><speed>5.15</speed><time>2016-06-01T15:53:42Z</time><pdop>8.0</pdop><geoidheight>50.60</geoidheight><course>29.98497</course><type>1</type></trkpt>
      <trkpt lat="39.2608901569026" lon="-6.318199342696616"><ele>2120</ele><speed>9.56</speed><time>2016-06-01T15:53:47Z</time><pdop>12.0</pdop><geoidheight>50.60</geoidheight><course>259.66962</course><type>1</type></trkpt>
      <trkpt lat="39.26067272401726" lon="-6.318502971887004"><ele>2124</ele><speed>12.12</speed><time>2016-06-01T15:53:50Z</time><pdop>16.0</pdop><geoidheight>50.60</geoidheight><course>200.39568</course><type>1</type></trkpt>
      <trkpt lat="39.260364627136" lon="-6.318462729842872"><ele>2129</ele><speed>11.56</speed><time>2016-06-01T15:53:53Z</time><pdop>12.0</pdop><geoidheight>50.60</geoidheight><course>161.74255</course><type>1</type></trkpt>
      <trkpt lat="39.26024731417751" lon="-6.318251497069655"><ele>2131</ele><speed>9.17</speed><time>2016-06-01T15:53:55Z</time><pdop>8.0</pdop><geoidheight>50.60</geoidheight><course>107.295044</course><type>1</type></trkpt>
      <trkpt lat="39.26024995625624" lon="-6.318061085180968"><ele>2134</ele><speed>6.62</speed><time>2016-06-01T15:53:56Z</time><pdop>8.0</pdop><geoidheight>50.60</geoidheight><course>66.82505</course><type>1</type></trkpt>
      <trkpt lat="39.260400273348836" lon="-6.317941835677959"><ele>2141</ele><speed>5.74</speed><time>2016-06-01T15:54:01Z</time><pdop>8.0</pdop><geoidheight>50.60</geoidheight><course>340.91916</course><type>1</type></trkpt>
      <trkpt lat="39.26041252327202" lon="-6.318284522876874"><ele>2153</ele><speed>9.87</speed><time>2016-06-01T15:54:06Z</time><pdop>8.0</pdop><geoidheight>50.60</geoidheight><course>229.23517</course><type>1</type></trkpt>
      <trkpt lat="39.2602810088585" lon="-6.318443462314944"><ele>2158</ele><speed>7.55</speed><time>2016-06-01T15:54:08Z</time><pdop>12.0</pdop><geoidheight>50.60</geoidheight><course>246.6993</course><type>1</type></trkpt>
      <trkpt lat="39.26036772873205" lon="-6.318651572365625"><ele>2162</ele><speed>7.75</speed><time>2016-06-01T15:54:11Z</time><pdop>8.0</pdop><geoidheight>50.60</geoidheight><course>340.55246</course><type>1</type></trkpt>
      <trkpt lat="39.26055702770462" lon="-6.318596401451796"><ele>2164</ele><speed>7.75</speed><time>2016-06-01T15:54:14Z</time><pdop>12.0</pdop><geoidheight>50.60</geoidheight><course>20.705692</course><type>1</type></trkpt>
      <trkpt lat="39.26078063224885" lon="-6.318537481962082"><ele>2167</ele><speed>8.72</speed><time>2016-06-01T15:54:17Z</time><pdop>12.0</pdop><geoidheight>50.60</geoidheight><course>13.269216</course><type>1</type></trkpt>
      <trkpt lat="39.26104879714088" lon="-6.318523066618057"><ele>2167</ele><speed>8.33</speed><time>2016-06-01T15:54:20Z</time><pdop>8.0</pdop><geoidheight>50.60</geoidheight><course>3.9344158</course><type>1</type></trkpt>
      <trkpt lat="39.26119350392545" lon="-6.318528669125379"><ele>2168</ele><speed>8.33</speed><time>2016-06-01T15:54:22Z</time><pdop>8.0</pdop><geoidheight>50.60</geoidheight><course>2.1940153</course><type>1</type></trkpt>
      <trkpt lat="39.26133838217734" lon="-6.318542560249709"><ele>2168</ele><speed>9.13</speed><time>2016-06-01T15:54:24Z</time><pdop>8.0</pdop><geoidheight>50.60</geoidheight><course>359.45746</course><type>1</type></trkpt>
      <trkpt lat="39.261482491774345" lon="-6.318559721012431"><ele>2169</ele><speed>8.82</speed><time>2016-06-01T15:54:26Z</time><pdop>8.0</pdop><geoidheight>50.60</geoidheight><course>357.89362</course><type>1</type></trkpt>
      <trkpt lat="39.26167616606127" lon="-6.3185847318030195"><ele>2171</ele><speed>8.12</speed><time>2016-06-01T15:54:29Z</time><pdop>8.0</pdop><geoidheight>50.60</geoidheight><course>356.7959</course><type>1</type></trkpt>
      <trkpt lat="39.261853156349034" lon="-6.318479175828454"><ele>2175</ele><speed>9.72</speed><time>2016-06-01T15:54:32Z</time><pdop>12.0</pdop><geoidheight>50.60</geoidheight><course>56.993134</course><type>1</type></trkpt>
      <trkpt lat="39.26177373557959" lon="-6.318059533727972"><ele>2183</ele><speed>11.41</speed><time>2016-06-01T15:54:36Z</time><pdop>12.0</pdop><geoidheight>50.60</geoidheight><course>126.329765</course><type>1</type></trkpt>
      <trkpt lat="39.26153185078113" lon="-6.317991773903874"><ele>2187</ele><speed>11.29</speed><time>2016-06-01T15:54:38Z</time><pdop>12.0</pdop><geoidheight>50.60</geoidheight><course>186.37993</course><type>1</type></trkpt>
      <trkpt lat="39.26145668154328" lon="-6.3183106205514035"><ele>2192</ele><speed>8.43</speed><time>2016-06-01T15:54:41Z</time><pdop>12.0</pdop><geoidheight>50.60</geoidheight><course>290.1549</course><type>1</type></trkpt>
      <trkpt lat="39.26176335293521" lon="-6.318264985582252"><ele>2197</ele><speed>12.16</speed><time>2016-06-01T15:54:46Z</time><pdop>16.0</pdop><geoidheight>50.60</geoidheight><course>31.481936</course><type>1</type></trkpt>
      <trkpt lat="39.26170615619987" lon="-6.317942488327493"><ele>2199</ele><speed>11.32</speed><time>2016-06-01T15:54:49Z</time><pdop>12.0</pdop><geoidheight>50.60</geoidheight><course>134.93867</course><type>1</type></trkpt>
      <trkpt lat="39.261415172696154" lon="-6.317872489867276"><ele>2206</ele><speed>10.12</speed><time>2016-06-01T15:54:52Z</time><pdop>12.0</pdop><geoidheight>50.60</geoidheight><course>184.2533</course><type>1</type></trkpt>
      <trkpt lat="39.26115583384442" lon="-6.318100636022945"><ele>2222</ele><speed>10.50</speed><time>2016-06-01T15:54:55Z</time><pdop>8.0</pdop><geoidheight>50.60</geoidheight><course>234.2369</course><type>1</type></trkpt>
      <trkpt lat="39.26109809896293" lon="-6.318408271145265"><ele>2234</ele><speed>7.10</speed><time>2016-06-01T15:54:57Z</time><pdop>12.0</pdop><geoidheight>50.60</geoidheight><course>275.37448</course><type>1</type></trkpt>
      <trkpt lat="39.261237346085395" lon="-6.318677523277377"><ele>2246</ele><speed>7.38</speed><time>2016-06-01T15:55:02Z</time><pdop>12.0</pdop><geoidheight>50.60</geoidheight><course>329.59158</course><type>1</type></trkpt>
      <trkpt lat="39.2614882485596" lon="-6.318562912410036"><ele>2256</ele><speed>8.94</speed><time>2016-06-01T15:55:06Z</time><pdop>8.0</pdop><geoidheight>50.60</geoidheight><course>37.924397</course><type>1</type></trkpt>
      <trkpt lat="39.26162522649053" lon="-6.318297451859757"><ele>2264</ele><speed>9.55</speed><time>2016-06-01T15:55:10Z</time><pdop>16.0</pdop><geoidheight>50.60</geoidheight><course>57.582012</course><type>1</type></trkpt>
      <trkpt lat="39.261447544681616" lon="-6.31799008059704"><ele>2269</ele><speed>11.33</speed><time>2016-06-01T15:55:13Z</time><pdop>8.0</pdop><geoidheight>50.60</geoidheight><course>146.19313</course><type>1</type></trkpt>
      <trkpt lat="39.261230814363614" lon="-6.317970986987085"><ele>2271</ele><speed>11.61</speed><time>2016-06-01T15:55:15Z</time><pdop>8.0</pdop><geoidheight>50.60</geoidheight><course>187.73238</course><type>1</type></trkpt>
      <trkpt lat="39.26106752077897" lon="-6.31812220061535"><ele>2274</ele><speed>10.29</speed><time>2016-06-01T15:55:16Z</time><pdop>12.0</pdop><geoidheight>50.60</geoidheight><course>229.27051</course><type>1</type></trkpt>
      <trkpt lat="39.260962843255726" lon="-6.318413727497904"><ele>2276</ele><speed>8.34</speed><time>2016-06-01T15:55:20Z</time><pdop>8.0</pdop><geoidheight>50.60</geoidheight><course>253.36641</course><type>1</type></trkpt>
      <trkpt lat="39.26094996981314" lon="-6.318619000224098"><ele>2277</ele><speed>8.14</speed><time>2016-06-01T15:55:22Z</time><pdop>8.0</pdop><geoidheight>50.60</geoidheight><course>276.30795</course><type>1</type></trkpt>
      <trkpt lat="39.26105680677481" lon="-6.318834376808443"><ele>2280</ele><speed>7.04</speed><time>2016-06-01T15:55:25Z</time><pdop>8.0</pdop><geoidheight>50.60</geoidheight><course>295.25482</course><type>1</type></trkpt>
      <trkpt lat="39.26122946480323" lon="-6.318834200000923"><ele>2282</ele><speed>9.53</speed><time>2016-06-01T15:55:27Z</time><pdop>8.0</pdop><geoidheight>50.60</geoidheight><course>359.19333</course><type>1</type></trkpt>
      <trkpt lat="39.26142956479598" lon="-6.318844870361604"><ele>2286</ele><speed>10.23</speed><time>2016-06-01T15:55:29Z</time><pdop>8.0</pdop><geoidheight>50.60</geoidheight><course>353.47324</course><type>1</type></trkpt>
      <trkpt lat="39.26163000133282" lon="-6.318863007881634"><ele>2291</ele><speed>9.16</speed><time>2016-06-01T15:55:31Z</time><pdop>8.0</pdop><geoidheight>50.60</geoidheight><course>353.93488</course><type>1</type></trkpt>
      <trkpt lat="39.26179530696113" lon="-6.318790308906567"><ele>2296</ele><speed>9.03</speed><time>2016-06-01T15:55:33Z</time><pdop>8.0</pdop><geoidheight>50.60</geoidheight><course>33.85942</course><type>1</type></trkpt>
      <trkpt lat="39.261973459107665" lon="-6.318669150460938"><ele>2303</ele><speed>7.67</speed><time>2016-06-01T15:55:36Z</time><pdop>8.0</pdop><geoidheight>50.60</geoidheight><course>11.931375</course><type>1</type></trkpt>
      <trkpt lat="39.262230096476145" lon="-6.318613664669758"><ele>2308</ele><speed>10.40</speed><time>2016-06-01T15:55:39Z</time><pdop>12.0</pdop><geoidheight>50.60</geoidheight><course>8.963614</course><type>1</type></trkpt>
      <trkpt lat="39.26248716449352" lon="-6.318564390257867"><ele>2312</ele><speed>9.36</speed><time>2016-06-01T15:55:42Z</time><pdop>8.0</pdop><geoidheight>50.60</geoidheight><course>7.016999</course><type>1</type></trkpt>
      <trkpt lat="39.26270256278205" lon="-6.318528054688138"><ele>2313</ele><speed>9.03</speed><time>2016-06-01T15:55:44Z</time><pdop>8.0</pdop><geoidheight>50.60</geoidheight><course>7.3092046</course><type>1</type></trkpt>
      <trkpt lat="39.2628676852271" lon="-6.318513680539126"><ele>2310</ele><speed>9.46</speed><time>2016-06-01T15:55:47Z</time><pdop>8.0</pdop><geoidheight>50.60</geoidheight><course>3.94485</course><type>1</type></trkpt>
      <trkpt lat="39.26302067135263" lon="-6.318515112463569"><ele>2307</ele><speed>7.90</speed><time>2016-06-01T15:55:49Z</time><pdop>8.0</pdop><geoidheight>50.60</geoidheight><course>1.4204031</course><type>1</type></trkpt>
      <trkpt lat="39.26323333547134" lon="-6.318475396439454"><ele>2303</ele><speed>7.64</speed><time>2016-06-01T15:55:52Z</time><pdop>8.0</pdop><geoidheight>50.60</geoidheight><course>22.945684</course><type>1</type></trkpt>
      <trkpt lat="39.263504742786935" lon="-6.318394011071106"><ele>2295</ele><speed>9.08</speed><time>2016-06-01T15:55:56Z</time><pdop>6.0</pdop><geoidheight>50.60</geoidheight><course>3.3594208</course><type>1</type></trkpt>
      <trkpt lat="39.26366206308103" lon="-6.318428475257537"><ele>2290</ele><speed>8.91</speed><time>2016-06-01T15:55:58Z</time><pdop>8.0</pdop><geoidheight>50.60</geoidheight><course>348.5185</course><type>1</type></trkpt>
      <trkpt lat="39.263811951095704" lon="-6.318432212905645"><ele>2285</ele><speed>8.80</speed><time>2016-06-01T15:56:00Z</time><pdop>6.0</pdop><geoidheight>50.60</geoidheight><course>6.4754963</course><type>1</type></trkpt>
      <trkpt lat="39.26395513412705" lon="-6.318403142357627"><ele>2280</ele><speed>8.92</speed><time>2016-06-01T15:56:02Z</time><pdop>8.0</pdop><geoidheight>50.60</geoidheight><course>8.612051</course><type>1</type></trkpt>
      <trkpt lat="39.2641114592434" lon="-6.318352980502499"><ele>2273</ele><speed>5.55</speed><time>2016-06-01T15:56:05Z</time><pdop>8.0</pdop><geoidheight>50.60</geoidheight><course>11.958628</course><type>1</type></trkpt>
      <trkpt lat="39.264313501077346" lon="-6.318358604896406"><ele>2268</ele><speed>9.37</speed><time>2016-06-01T15:56:08Z</time><pdop>8.0</pdop><geoidheight>50.60</geoidheight><course>357.8906</course><type>1</type></trkpt>
      <trkpt lat="39.264522510565776" lon="-6.318329463247782"><ele>2259</ele><speed>6.40</speed><time>2016-06-01T15:56:11Z</time><pdop>8.0</pdop><geoidheight>50.60</geoidheight><course>358.55225</course><type>1</type></trkpt>
      <trkpt lat="39.26467391080967" lon="-6.318312549064351"><ele>2252</ele><speed>8.08</speed><time>2016-06-01T15:56:13Z</time><pdop>8.0</pdop><geoidheight>50.60</geoidheight><course>357.85318</course><type>1</type></trkpt>
      <trkpt lat="39.26482586417356" lon="-6.318299978820992"><ele>2245</ele><speed>8.73</speed><time>2016-06-01T15:56:15Z</time><pdop>8.0</pdop><geoidheight>50.60</geoidheight><course>358.2009</course><type>1</type></trkpt>
      <trkpt lat="39.264979615780405" lon="-6.318276608866525"><ele>2239</ele><speed>7.82</speed><time>2016-06-01T15:56:17Z</time><pdop>8.0</pdop><geoidheight>50.60</geoidheight><course>1.9011856</course><type>1</type></trkpt>
      <trkpt lat="39.26514362899222" lon="-6.318244590891211"><ele>2234</ele><speed>8.62</speed><time>2016-06-01T15:56:19Z</time><pdop>8.0</pdop><geoidheight>50.60</geoidheight><course>0.22710085</course><type>1</type></trkpt>
      <trkpt lat="39.265322381642314" lon="-6.31824239613393"><ele>2230</ele><speed>9.31</speed><time>2016-06-01T15:56:21Z</time><pdop>8.0</pdop><geoidheight>50.60</geoidheight><course>354.75217</course><type>1</type></trkpt>
      <trkpt lat="39.26548681238492" lon="-6.31825016635714"><ele>2226</ele><speed>9.02</speed><time>2016-06-01T15:56:23Z</time><pdop>8.0</pdop><geoidheight>50.60</geoidheight><course>355.57748</course><type>1</type></trkpt>
      <trkpt lat="39.265636587575685" lon="-6.318244608470328"><ele>2223</ele><speed>7.43</speed><time>2016-06-01T15:56:25Z</time><pdop>8.0</pdop><geoidheight>50.60</geoidheight><course>358.96274</course><type>1</type></trkpt>
      <trkpt lat="39.26579147840903" lon="-6.318243646400524"><ele>2220</ele><speed>8.45</speed><time>2016-06-01T15:56:26Z</time><pdop>8.0</pdop><geoidheight>50.60</geoidheight><course>357.05765</course><type>1</type></trkpt>
      <trkpt lat="39.26605924544527" lon="-6.318273081789586"><ele>2213</ele><speed>10.10</speed><time>2016-06-01T15:56:30Z</time><pdop>12.0</pdop><geoidheight>50.60</geoidheight><course>353.92105</course><type>1</type></trkpt>
      <trkpt lat="39.2662954446542" lon="-6.318329160154995"><ele>2206</ele><speed>8.50</speed><time>2016-06-01T15:56:33Z</time><pdop>8.0</pdop><geoidheight>50.60</geoidheight><course>349.587</course><type>1</type></trkpt>
      <trkpt lat="39.26644045640277" lon="-6.318372823599527"><ele>2202</ele><speed>8.24</speed><time>2016-06-01T15:56:35Z</time><pdop>6.0</pdop><geoidheight>50.60</geoidheight><course>347.9058</course><type>1</type></trkpt>
      <trkpt lat="39.266573938609476" lon="-6.318420120758903"><ele>2199</ele><speed>7.41</speed><time>2016-06-01T15:56:37Z</time><pdop>6.0</pdop><geoidheight>50.60</geoidheight><course>345.7222</course><type>1</type></trkpt>
      <trkpt lat="39.26675971355585" lon="-6.318485603461963"><ele>2196</ele><speed>7.95</speed><time>2016-06-01T15:56:40Z</time><pdop>8.0</pdop><geoidheight>50.60</geoidheight><course>346.1358</course><type>1</type></trkpt>
      <trkpt lat="39.26689825493791" lon="-6.318515069845353"><ele>2195</ele><speed>8.01</speed><time>2016-06-01T15:56:42Z</time><pdop>6.0</pdop><geoidheight>50.60</geoidheight><course>349.70383</course><type>1</type></trkpt>
      <trkpt lat="39.26704351082376" lon="-6.318547735725762"><ele>2192</ele><speed>8.50</speed><time>2016-06-01T15:56:44Z</time><pdop>6.0</pdop><geoidheight>50.60</geoidheight><course>347.8169</course><type>1</type></trkpt>
      <trkpt lat="39.26724167086395" lon="-6.318609184679989"><ele>2186</ele><speed>7.44</speed><time>2016-06-01T15:56:47Z</time><pdop>8.0</pdop><geoidheight>50.60</geoidheight><course>349.1596</course><type>1</type></trkpt>
      <trkpt lat="39.26737828647754" lon="-6.318647507868234"><ele>2182</ele><speed>8.56</speed><time>2016-06-01T15:56:49Z</time><pdop>6.0</pdop><geoidheight>50.60</geoidheight><course>349.12524</course><type>1</type></trkpt>
      <trkpt lat="39.26752188807136" lon="-6.318689068470208"><ele>2178</ele><speed>7.67</speed><time>2016-06-01T15:56:51Z</time><pdop>6.0</pdop><geoidheight>50.60</geoidheight><course>349.32956</course><type>1</type></trkpt>
      <trkpt lat="39.2677009597592" lon="-6.318711826900889"><ele>2175</ele><speed>7.08</speed><time>2016-06-01T15:56:54Z</time><pdop>8.0</pdop><geoidheight>50.60</geoidheight><course>359.3202</course><type>1</type></trkpt>
      <trkpt lat="39.26790415055659" lon="-6.3186827820413365"><ele>2170</ele><speed>8.15</speed><time>2016-06-01T15:56:57Z</time><pdop>8.0</pdop><geoidheight>50.60</geoidheight><course>4.228467</course><type>1</type></trkpt>
      <trkpt lat="39.268100923733876" lon="-6.318639545432989"><ele>2167</ele><speed>7.44</speed><time>2016-06-01T15:56:59Z</time><pdop>8.0</pdop><geoidheight>50.60</geoidheight><course>351.05194</course><type>1</type></trkpt>
      <trkpt lat="39.26823525254867" lon="-6.318723570266713"><ele>2164</ele><speed>8.98</speed><time>2016-06-01T15:57:02Z</time><pdop>8.0</pdop><geoidheight>50.60</geoidheight><course>329.25424</course><type>1</type></trkpt>
      <trkpt lat="39.268388317035495" lon="-6.3188208673459005"><ele>2160</ele><speed>8.11</speed><time>2016-06-01T15:57:04Z</time><pdop>8.0</pdop><geoidheight>50.60</geoidheight><course>331.8388</course><type>1</type></trkpt>
      <trkpt lat="39.26858067065826" lon="-6.318932728967302"><ele>2157</ele><speed>8.41</speed><time>2016-06-01T15:57:07Z</time><pdop>8.0</pdop><geoidheight>50.60</geoidheight><course>330.93408</course><type>1</type></trkpt>
      <trkpt lat="39.26871206654514" lon="-6.319050672955911"><ele>2155</ele><speed>10.14</speed><time>2016-06-01T15:57:09Z</time><pdop>8.0</pdop><geoidheight>50.60</geoidheight><course>325.1925</course><type>1</type></trkpt>
      <trkpt lat="39.268851476959995" lon="-6.319179969305755"><ele>2153</ele><speed>8.68</speed><time>2016-06-01T15:57:11Z</time><pdop>8.0</pdop><geoidheight>50.60</geoidheight><course>326.61664</course><type>1</type></trkpt>
      <trkpt lat="39.268978113898804" lon="-6.319298176448752"><ele>2152</ele><speed>8.49</speed><time>2016-06-01T15:57:13Z</time><pdop>6.0</pdop><geoidheight>50.60</geoidheight><course>324.75323</course><type>1</type></trkpt>
      <trkpt lat="39.26911434774586" lon="-6.319419594687966"><ele>2150</ele><speed>9.69</speed><time>2016-06-01T15:57:15Z</time><pdop>6.0</pdop><geoidheight>50.60</geoidheight><course>327.45508</course><type>1</type></trkpt>
      <trkpt lat="39.2692527878251" lon="-6.319508814256173"><ele>2148</ele><speed>7.69</speed><time>2016-06-01T15:57:17Z</time><pdop>6.0</pdop><geoidheight>50.60</geoidheight><course>333.5738</course><type>1</type></trkpt>
      <trkpt lat="39.269371164562266" lon="-6.31956984632607"><ele>2146</ele><speed>6.96</speed><time>2016-06-01T15:57:19Z</time><pdop>6.0</pdop><geoidheight>50.60</geoidheight><course>336.56198</course><type>1</type></trkpt>
      <trkpt lat="39.26949593479915" lon="-6.319631659197223"><ele>2144</ele><speed>7.46</speed><time>2016-06-01T15:57:21Z</time><pdop>6.0</pdop><geoidheight>50.60</geoidheight><course>336.61835</course><type>1</type></trkpt>
      <trkpt lat="39.2696077904691" lon="-6.319704135739433"><ele>2142</ele><speed>6.36</speed><time>2016-06-01T15:57:23Z</time><pdop>6.0</pdop><geoidheight>50.60</geoidheight><course>333.17764</course><type>1</type></trkpt>
      <trkpt lat="39.26971571533109" lon="-6.3197654072965594"><ele>2139</ele><speed>7.00</speed><time>2016-06-01T15:57:25Z</time><pdop>6.0</pdop><geoidheight>50.60</geoidheight><course>338.67593</course><type>1</type></trkpt>
      <trkpt lat="39.26982255154471" lon="-6.319835090138601"><ele>2136</ele><speed>7.22</speed><time>2016-06-01T15:57:27Z</time><pdop>6.0</pdop><geoidheight>50.60</geoidheight><course>325.3494</course><type>1</type></trkpt>
      <trkpt lat="39.26998263771637" lon="-6.32000425173855"><ele>2133</ele><speed>8.11</speed><time>2016-06-01T15:57:30Z</time><pdop>8.0</pdop><geoidheight>50.60</geoidheight><course>317.0454</course><type>1</type></trkpt>
      <trkpt lat="39.2700839239415" lon="-6.3201409155237185"><ele>2132</ele><speed>7.55</speed><time>2016-06-01T15:57:32Z</time><pdop>6.0</pdop><geoidheight>50.60</geoidheight><course>313.6533</course><type>1</type></trkpt>
      <trkpt lat="39.27017431099389" lon="-6.320294974947846"><ele>2129</ele><speed>8.96</speed><time>2016-06-01T15:57:34Z</time><pdop>8.0</pdop><geoidheight>50.60</geoidheight><course>307.90005</course><type>1</type></trkpt>
      <trkpt lat="39.27028336508745" lon="-6.320479155496194"><ele>2126</ele><speed>9.92</speed><time>2016-06-01T15:57:36Z</time><pdop>8.0</pdop><geoidheight>50.60</geoidheight><course>307.9039</course><type>1</type></trkpt>
      <trkpt lat="39.270382862177385" lon="-6.320631444713881"><ele>2122</ele><speed>8.53</speed><time>2016-06-01T15:57:38Z</time><pdop>8.0</pdop><geoidheight>50.60</geoidheight><course>310.03464</course><type>1</type></trkpt>
      <trkpt lat="39.2705285833798" lon="-6.320844234932715"><ele>2115</ele><speed>8.54</speed><time>2016-06-01T15:57:41Z</time><pdop>6.0</pdop><geoidheight>50.60</geoidheight><course>326.99738</course><type>1</type></trkpt>
      <trkpt lat="39.2707045931583" lon="-6.320951347952169"><ele>2107</ele><speed>7.46</speed><time>2016-06-01T15:57:44Z</time><pdop>6.0</pdop><geoidheight>50.60</geoidheight><course>345.3593</course><type>1</type></trkpt>
      <trkpt lat="39.27084202301123" lon="-6.32097724661862"><ele>2103</ele><speed>8.06</speed><time>2016-06-01T15:57:46Z</time><pdop>8.0</pdop><geoidheight>50.60</geoidheight><course>347.18814</course><type>1</type></trkpt>
      <trkpt lat="39.27099441517791" lon="-6.321015119132389"><ele>2099</ele><speed>9.21</speed><time>2016-06-01T15:57:48Z</time><pdop>8.0</pdop><geoidheight>50.60</geoidheight><course>345.51788</course><type>1</type></trkpt>
      <trkpt lat="39.27116149999133" lon="-6.32106442806285"><ele>2095</ele><speed>9.23</speed><time>2016-06-01T15:57:50Z</time><pdop>8.0</pdop><geoidheight>50.60</geoidheight><course>346.52185</course><type>1</type></trkpt>
      <trkpt lat="39.27131716969647" lon="-6.321111414786762"><ele>2092</ele><speed>7.93</speed><time>2016-06-01T15:57:52Z</time><pdop>8.0</pdop><geoidheight>50.60</geoidheight><course>345.90707</course><type>1</type></trkpt>
      <trkpt lat="39.27147714672269" lon="-6.3211594611184845"><ele>2088</ele><speed>9.31</speed><time>2016-06-01T15:57:54Z</time><pdop>8.0</pdop><geoidheight>50.60</geoidheight><course>347.71432</course><type>1</type></trkpt>
      <trkpt lat="39.27166612805711" lon="-6.321197841576328"><ele>2083</ele><speed>10.79</speed><time>2016-06-01T15:57:56Z</time><pdop>8.0</pdop><geoidheight>50.60</geoidheight><course>350.8696</course><type>1</type></trkpt>
      <trkpt lat="39.27184881302332" lon="-6.321233084423174"><ele>2077</ele><speed>9.23</speed><time>2016-06-01T15:57:58Z</time><pdop>8.0</pdop><geoidheight>50.60</geoidheight><course>349.8467</course><type>1</type></trkpt>
      <trkpt lat="39.2720132693056" lon="-6.321283518127266"><ele>2072</ele><speed>9.54</speed><time>2016-06-01T15:58:00Z</time><pdop>8.0</pdop><geoidheight>50.60</geoidheight><course>346.1252</course><type>1</type></trkpt>
      <trkpt lat="39.272200465819914" lon="-6.321333573613656"><ele>2068</ele><speed>12.09</speed><time>2016-06-01T15:58:01Z</time><pdop>8.0</pdop><geoidheight>50.60</geoidheight><course>349.97104</course><type>1</type></trkpt>
      <trkpt lat="39.27240569761461" lon="-6.321372167406401"><ele>2063</ele><speed>10.83</speed><time>2016-06-01T15:58:04Z</time><pdop>8.0</pdop><geoidheight>50.60</geoidheight><course>350.474</course><type>1</type></trkpt>
      <trkpt lat="39.27257640196782" lon="-6.321423570073415"><ele>2060</ele><speed>9.34</speed><time>2016-06-01T15:58:06Z</time><pdop>8.0</pdop><geoidheight>50.60</geoidheight><course>345.84775</course><type>1</type></trkpt>
      <trkpt lat="39.27275528474741" lon="-6.321484527238809"><ele>2058</ele><speed>10.34</speed><time>2016-06-01T15:58:08Z</time><pdop>8.0</pdop><geoidheight>50.60</geoidheight><course>347.46628</course><type>1</type></trkpt>
      <trkpt lat="39.27292777240962" lon="-6.321534468350867"><ele>2058</ele><speed>8.65</speed><time>2016-06-01T15:58:10Z</time><pdop>8.0</pdop><geoidheight>50.60</geoidheight><course>347.12897</course><type>1</type></trkpt>
      <trkpt lat="39.27306761398022" lon="-6.321583783536915"><ele>2059</ele><speed>7.30</speed><time>2016-06-01T15:58:12Z</time><pdop>8.0</pdop><geoidheight>50.60</geoidheight><course>345.5393</course><type>1</type></trkpt>
      <trkpt lat="39.273266334492995" lon="-6.321627059966542"><ele>2060</ele><speed>8.29</speed><time>2016-06-01T15:58:15Z</time><pdop>8.0</pdop><geoidheight>50.60</geoidheight><course>351.81784</course><type>1</type></trkpt>
      <trkpt lat="39.27342279741435" lon="-6.321673392160893"><ele>2064</ele><speed>6.23</speed><time>2016-06-01T15:58:18Z</time><pdop>8.0</pdop><geoidheight>50.60</geoidheight><course>344.5375</course><type>1</type></trkpt>
      <trkpt lat="39.27355981948448" lon="-6.321744416456113"><ele>2068</ele><speed>5.60</speed><time>2016-06-01T15:58:21Z</time><pdop>8.0</pdop><geoidheight>50.60</geoidheight><course>338.97562</course><type>1</type></trkpt>
      <trkpt lat="39.27372255993508" lon="-6.321837693291354"><ele>2069</ele><speed>7.90</speed><time>2016-06-01T15:58:24Z</time><pdop>6.0</pdop><geoidheight>50.60</geoidheight><course>337.58026</course><type>1</type></trkpt>
      <trkpt lat="39.273876330164775" lon="-6.321929547166431"><ele>2068</ele><speed>4.28</speed><time>2016-06-01T15:58:26Z</time><pdop>8.0</pdop><geoidheight>50.60</geoidheight><course>315.8689</course><type>1</type></trkpt>
      <trkpt lat="39.274038813794384" lon="-6.322036889694521"><ele>2064</ele><speed>7.17</speed><time>2016-06-01T15:58:31Z</time><pdop>8.0</pdop><geoidheight>50.60</geoidheight><course>341.2183</course><type>1</type></trkpt>
      <trkpt lat="39.27421285907632" lon="-6.322097038339275"><ele>2060</ele><speed>6.28</speed><time>2016-06-01T15:58:34Z</time><pdop>6.0</pdop><geoidheight>50.60</geoidheight><course>342.06787</course><type>1</type></trkpt>
      <trkpt lat="39.274364821416704" lon="-6.322196393118088"><ele>2057</ele><speed>5.57</speed><time>2016-06-01T15:58:37Z</time><pdop>8.0</pdop><geoidheight>50.60</geoidheight><course>318.69836</course><type>1</type></trkpt>
      <trkpt lat="39.27447461972456" lon="-6.322276922393825"><ele>2057</ele><speed>4.85</speed><time>2016-06-01T15:58:40Z</time><pdop>6.0</pdop><geoidheight>50.60</geoidheight><course>351.8468</course><type>1</type></trkpt>
      <trkpt lat="39.27460352599109" lon="-6.322262259910728"><ele>2053</ele><speed>4.93</speed><time>2016-06-01T15:58:43Z</time><pdop>6.0</pdop><geoidheight>50.60</geoidheight><course>14.322021</course><type>1</type></trkpt>
      <trkpt lat="39.27474573715657" lon="-6.322219481991689"><ele>2049</ele><speed>5.16</speed><time>2016-06-01T15:58:47Z</time><pdop>6.0</pdop><geoidheight>50.60</geoidheight><course>356.10123</course><type>1</type></trkpt>
      <trkpt lat="39.27488036129819" lon="-6.322210885755572"><ele>2046</ele><speed>2.98</speed><time>2016-06-01T15:58:50Z</time><pdop>8.0</pdop><geoidheight>50.60</geoidheight><course>0.23221807</course><type>1</type></trkpt>
      <trkpt lat="39.27503876858989" lon="-6.3222686490622095"><ele>2040</ele><speed>7.25</speed><time>2016-06-01T15:58:54Z</time><pdop>8.0</pdop><geoidheight>50.60</geoidheight><course>347.87073</course><type>1</type></trkpt>
      <trkpt lat="39.2751937750575" lon="-6.322261789205496"><ele>2033</ele><speed>4.47</speed><time>2016-06-01T15:58:58Z</time><pdop>6.0</pdop><geoidheight>50.60</geoidheight><course>9.486814</course><type>1</type></trkpt>
      <trkpt lat="39.275356707937306" lon="-6.322266623525554"><ele>2029</ele><speed>5.44</speed><time>2016-06-01T15:59:02Z</time><pdop>8.0</pdop><geoidheight>50.60</geoidheight><course>345.528</course><type>1</type></trkpt>
      <trkpt lat="39.27548492839655" lon="-6.322286715564836"><ele>2028</ele><speed>5.93</speed><time>2016-06-01T15:59:05Z</time><pdop>6.0</pdop><geoidheight>50.60</geoidheight><course>349.3558</course><type>1</type></trkpt>
      <trkpt lat="39.27559386061165" lon="-6.322322069063523"><ele>2026</ele><speed>6.70</speed><time>2016-06-01T15:59:07Z</time><pdop>6.0</pdop><geoidheight>50.60</geoidheight><course>347.97122</course><type>1</type></trkpt>
      <trkpt lat="39.27570790443492" lon="-6.322313915910981"><ele>2026</ele><speed>6.22</speed><time>2016-06-01T15:59:09Z</time><pdop>6.0</pdop><geoidheight>50.60</geoidheight><course>5.2439847</course><type>1</type></trkpt>
      <trkpt lat="39.27582539456443" lon="-6.322387735616173"><ele>2026</ele><speed>7.84</speed><time>2016-06-01T15:59:11Z</time><pdop>6.0</pdop><geoidheight>50.60</geoidheight><course>324.44876</course><type>1</type></trkpt>
      <trkpt lat="39.27594340525992" lon="-6.322486670916302"><ele>2027</ele><speed>7.76</speed><time>2016-06-01T15:59:13Z</time><pdop>6.0</pdop><geoidheight>50.60</geoidheight><course>325.82623</course><type>1</type></trkpt>
      <trkpt lat="39.27607922088363" lon="-6.322554263367963"><ele>2027</ele><speed>7.04</speed><time>2016-06-01T15:59:15Z</time><pdop>6.0</pdop><geoidheight>50.60</geoidheight><course>339.2222</course><type>1</type></trkpt>
      <trkpt lat="39.27621345151416" lon="-6.322622846755733"><ele>2026</ele><speed>8.28</speed><time>2016-06-01T15:59:17Z</time><pdop>8.0</pdop><geoidheight>50.60</geoidheight><course>336.17264</course><type>1</type></trkpt>
      <trkpt lat="39.27637394271876" lon="-6.322713853373515"><ele>2023</ele><speed>10.32</speed><time>2016-06-01T15:59:19Z</time><pdop>8.0</pdop><geoidheight>50.60</geoidheight><course>334.34778</course><type>1</type></trkpt>
      <trkpt lat="39.2765272318454" lon="-6.322817712342438"><ele>2022</ele><speed>9.05</speed><time>2016-06-01T15:59:21Z</time><pdop>8.0</pdop><geoidheight>50.60</geoidheight><course>329.98593</course><type>1</type></trkpt>
      <trkpt lat="39.276655584538474" lon="-6.322923580817173"><ele>2021</ele><speed>8.41</speed><time>2016-06-01T15:59:23Z</time><pdop>8.0</pdop><geoidheight>50.60</geoidheight><course>329.16724</course><type>1</type></trkpt>
      <trkpt lat="39.276806957920336" lon="-6.3230455209206875"><ele>2020</ele><speed>11.53</speed><time>2016-06-01T15:59:25Z</time><pdop>8.0</pdop><geoidheight>50.60</geoidheight><course>327.8567</course><type>1</type></trkpt>
      <trkpt lat="39.27695775540839" lon="-6.323176386723855"><ele>2018</ele><speed>8.94</speed><time>2016-06-01T15:59:27Z</time><pdop>8.0</pdop><geoidheight>50.60</geoidheight><course>328.03027</course><type>1</type></trkpt>
      <trkpt lat="39.277124238984555" lon="-6.323300132877281"><ele>2019</ele><speed>7.78</speed><time>2016-06-01T15:59:30Z</time><pdop>8.0</pdop><geoidheight>50.60</geoidheight><course>329.8715</course><type>1</type></trkpt>
      <trkpt lat="39.27726945533023" lon="-6.323401960977411"><ele>2019</ele><speed>9.11</speed><time>2016-06-01T15:59:32Z</time><pdop>8.0</pdop><geoidheight>50.60</geoidheight><course>333.09192</course><type>1</type></trkpt>
      <trkpt lat="39.27746802169107" lon="-6.323432409846391"><ele>2019</ele><speed>5.68</speed><time>2016-06-01T15:59:35Z</time><pdop>12.0</pdop><geoidheight>50.60</geoidheight><course>356.29526</course><type>1</type></trkpt>
      <trkpt lat="39.27764846705997" lon="-6.323507544989609"><ele>2021</ele><speed>4.88</speed><time>2016-06-01T15:59:39Z</time><pdop>8.0</pdop><geoidheight>50.60</geoidheight><course>339.83582</course><type>1</type></trkpt>
      <trkpt lat="39.27778715234423" lon="-6.323570647537263"><ele>2017</ele><speed>6.90</speed><time>2016-06-01T15:59:42Z</time><pdop>8.0</pdop><geoidheight>50.60</geoidheight><course>338.90338</course><type>1</type></trkpt>
      <trkpt lat="39.27796542161466" lon="-6.3236589447290505"><ele>2012</ele><speed>6.96</speed><time>2016-06-01T15:59:45Z</time><pdop>8.0</pdop><geoidheight>50.60</geoidheight><course>336.21893</course><type>1</type></trkpt>
      <trkpt lat="39.27812498317313" lon="-6.323751422475832"><ele>2008</ele><speed>5.64</speed><time>2016-06-01T15:59:48Z</time><pdop>8.0</pdop><geoidheight>50.60</geoidheight><course>338.04294</course><type>1</type></trkpt>
      <trkpt lat="39.27826418696144" lon="-6.323808132547474"><ele>2009</ele><speed>6.56</speed><time>2016-06-01T15:59:51Z</time><pdop>8.0</pdop><geoidheight>50.60</geoidheight><course>337.81967</course><type>1</type></trkpt>
      <trkpt lat="39.2784137857539" lon="-6.323893480202971"><ele>2009</ele><speed>4.97</speed><time>2016-06-01T15:59:54Z</time><pdop>8.0</pdop><geoidheight>50.60</geoidheight><course>347.08743</course><type>1</type></trkpt>
      <trkpt lat="39.278571186417366" lon="-6.323962672440219"><ele>2009</ele><speed>6.83</speed><time>2016-06-01T15:59:56Z</time><pdop>8.0</pdop><geoidheight>50.60</geoidheight><course>342.00992</course><type>1</type></trkpt>
      <trkpt lat="39.27880313910753" lon="-6.324037676656953"><ele>2011</ele><speed>7.40</speed><time>2016-06-01T16:00:01Z</time><pdop>8.0</pdop><geoidheight>50.60</geoidheight><course>346.0935</course><type>1</type></trkpt>
      <trkpt lat="39.27899473202501" lon="-6.324175677530375"><ele>2012</ele><speed>8.39</speed><time>2016-06-01T16:00:04Z</time><pdop>12.0</pdop><geoidheight>50.60</geoidheight><course>330.52185</course><type>1</type></trkpt>
      <trkpt lat="39.27920961100342" lon="-6.324301493818088"><ele>2013</ele><speed>7.74</speed><time>2016-06-01T16:00:07Z</time><pdop>8.0</pdop><geoidheight>50.60</geoidheight><course>335.86884</course><type>1</type></trkpt>
      <trkpt lat="39.27940486794464" lon="-6.324388777778717"><ele>2013</ele><speed>7.36</speed><time>2016-06-01T16:00:10Z</time><pdop>8.0</pdop><geoidheight>50.60</geoidheight><course>342.81116</course><type>1</type></trkpt>
      <trkpt lat="39.27955141711639" lon="-6.324436305359528"><ele>2011</ele><speed>9.21</speed><time>2016-06-01T16:00:12Z</time><pdop>8.0</pdop><geoidheight>50.60</geoidheight><course>343.10757</course><type>1</type></trkpt>
      <trkpt lat="39.27970806485409" lon="-6.324498969175072"><ele>2009</ele><speed>9.64</speed><time>2016-06-01T16:00:13Z</time><pdop>8.0</pdop><geoidheight>50.60</geoidheight><course>340.54492</course><type>1</type></trkpt>
      <trkpt lat="39.27986589756337" lon="-6.324583372059488"><ele>2009</ele><speed>9.81</speed><time>2016-06-01T16:00:16Z</time><pdop>8.0</pdop><geoidheight>50.60</geoidheight><course>336.81653</course><type>1</type></trkpt>
      <trkpt lat="39.28002700909668" lon="-6.324668834299859"><ele>2008</ele><speed>10.24</speed><time>2016-06-01T16:00:18Z</time><pdop>8.0</pdop><geoidheight>50.60</geoidheight><course>339.3483</course><type>1</type></trkpt>
      <trkpt lat="39.28019248169641" lon="-6.324732647023946"><ele>2007</ele><speed>9.74</speed><time>2016-06-01T16:00:20Z</time><pdop>8.0</pdop><geoidheight>50.60</geoidheight><course>341.10138</course><type>1</type></trkpt>
      <trkpt lat="39.28036021604839" lon="-6.324811806690998"><ele>2006</ele><speed>10.12</speed><time>2016-06-01T16:00:21Z</time><pdop>8.0</pdop><geoidheight>50.60</geoidheight><course>339.26572</course><type>1</type></trkpt>
      <trkpt lat="39.28053442598201" lon="-6.324893055537034"><ele>2004</ele><speed>10.07</speed><time>2016-06-01T16:00:24Z</time><pdop>8.0</pdop><geoidheight>50.60</geoidheight><course>340.5953</course><type>1</type></trkpt>
      <trkpt lat="39.280697476828614" lon="-6.324982731960675"><ele>2001</ele><speed>9.58</speed><time>2016-06-01T16:00:26Z</time><pdop>8.0</pdop><geoidheight>50.60</geoidheight><course>336.13998</course><type>1</type></trkpt>
      <trkpt lat="39.28085269692679" lon="-6.325078414729"><ele>1997</ele><speed>9.37</speed><time>2016-06-01T16:00:28Z</time><pdop>8.0</pdop><geoidheight>50.60</geoidheight><course>334.02286</course><type>1</type></trkpt>
      <trkpt lat="39.2810196221308" lon="-6.3251888153497635"><ele>1992</ele><speed>10.11</speed><time>2016-06-01T16:00:29Z</time><pdop>8.0</pdop><geoidheight>50.60</geoidheight><course>332.6133</course><type>1</type></trkpt>
      <trkpt lat="39.28117122190642" lon="-6.325274890363288"><ele>1988</ele><speed>9.19</speed><time>2016-06-01T16:00:32Z</time><pdop>8.0</pdop><geoidheight>50.60</geoidheight><course>337.09744</course><type>1</type></trkpt>
      <trkpt lat="39.28132123752495" lon="-6.325341895988422"><ele>1985</ele><speed>9.02</speed><time>2016-06-01T16:00:34Z</time><pdop>8.0</pdop><geoidheight>50.60</geoidheight><course>339.1227</course><type>1</type></trkpt>
      <trkpt lat="39.281486627908244" lon="-6.325402621178904"><ele>1981</ele><speed>10.36</speed><time>2016-06-01T16:00:36Z</time><pdop>8.0</pdop><geoidheight>50.60</geoidheight><course>341.24994</course><type>1</type></trkpt>
      <trkpt lat="39.28167552998699" lon="-6.3254655103448565"><ele>1976</ele><speed>11.53</speed><time>2016-06-01T16:00:38Z</time><pdop>12.0</pdop><geoidheight>50.60</geoidheight><course>343.47705</course><type>1</type></trkpt>
      <trkpt lat="39.28190633149042" lon="-6.325524164139437"><ele>1972</ele><speed>5.90</speed><time>2016-06-01T16:00:41Z</time><pdop>8.0</pdop><geoidheight>50.60</geoidheight><course>345.4462</course><type>1</type></trkpt>
      <trkpt lat="39.282054946196354" lon="-6.3255871494523035"><ele>1970</ele><speed>4.30</speed><time>2016-06-01T16:00:45Z</time><pdop>6.0</pdop><geoidheight>50.60</geoidheight><course>340.4796</course><type>1</type></trkpt>
      <trkpt lat="39.28218153543225" lon="-6.325607347972203"><ele>1966</ele><speed>4.56</speed><time>2016-06-01T16:00:48Z</time><pdop>6.0</pdop><geoidheight>50.60</geoidheight><course>7.337061</course><type>1</type></trkpt>
      <trkpt lat="39.282309474783034" lon="-6.3256327850514005"><ele>1959</ele><speed>5.40</speed><time>2016-06-01T16:00:50Z</time><pdop>8.0</pdop><geoidheight>50.60</geoidheight><course>344.09106</course><type>1</type></trkpt>
      <trkpt lat="39.2825042562181" lon="-6.325635015100082"><ele>1949</ele><speed>6.97</speed><time>2016-06-01T16:00:54Z</time><pdop>8.0</pdop><geoidheight>50.60</geoidheight><course>8.159146</course><type>1</type></trkpt>
      <trkpt lat="39.28267070765151" lon="-6.325615983077173"><ele>1940</ele><speed>5.82</speed><time>2016-06-01T16:00:57Z</time><pdop>8.0</pdop><geoidheight>50.60</geoidheight><course>348.47</course><type>1</type></trkpt>
      <trkpt lat="39.282836595812284" lon="-6.325639242189331"><ele>1931</ele><speed>6.49</speed><time>2016-06-01T16:01:00Z</time><pdop>6.0</pdop><geoidheight>50.60</geoidheight><course>3.3545945</course><type>1</type></trkpt>
      <trkpt lat="39.282962904925355" lon="-6.325623577394298"><ele>1925</ele><speed>7.21</speed><time>2016-06-01T16:01:02Z</time><pdop>6.0</pdop><geoidheight>50.60</geoidheight><course>5.4760427</course><type>1</type></trkpt>
      <trkpt lat="39.28307918400258" lon="-6.325613017233668"><ele>1918</ele><speed>6.05</speed><time>2016-06-01T16:01:04Z</time><pdop>6.0</pdop><geoidheight>50.60</geoidheight><course>2.070145</course><type>1</type></trkpt>
      <trkpt lat="39.283204407655184" lon="-6.325613140435692"><ele>1911</ele><speed>7.51</speed><time>2016-06-01T16:01:06Z</time><pdop>6.0</pdop><geoidheight>50.60</geoidheight><course>1.4358162</course><type>1</type></trkpt>
      <trkpt lat="39.283346373914355" lon="-6.325595071517261"><ele>1904</ele><speed>7.69</speed><time>2016-06-01T16:01:08Z</time><pdop>6.0</pdop><geoidheight>50.60</geoidheight><course>5.2750525</course><type>1</type></trkpt>
      <trkpt lat="39.28347217888465" lon="-6.325569319151505"><ele>1898</ele><speed>6.73</speed><time>2016-06-01T16:01:10Z</time><pdop>8.0</pdop><geoidheight>50.60</geoidheight><course>6.5290737</course><type>1</type></trkpt>
      <trkpt lat="39.283657556011015" lon="-6.3255399315766505"><ele>1891</ele><speed>8.16</speed><time>2016-06-01T16:01:13Z</time><pdop>8.0</pdop><geoidheight>50.60</geoidheight><course>2.9381056</course><type>1</type></trkpt>
      <trkpt lat="39.28380901885395" lon="-6.325547843249617"><ele>1887</ele><speed>8.67</speed><time>2016-06-01T16:01:14Z</time><pdop>8.0</pdop><geoidheight>50.60</geoidheight><course>357.5131</course><type>1</type></trkpt>
      <trkpt lat="39.28395802398776" lon="-6.325562692910055"><ele>1883</ele><speed>8.49</speed><time>2016-06-01T16:01:17Z</time><pdop>8.0</pdop><geoidheight>50.60</geoidheight><course>357.76154</course><type>1</type></trkpt>
      <trkpt lat="39.284110639446006" lon="-6.325568466365072"><ele>1881</ele><speed>8.63</speed><time>2016-06-01T16:01:19Z</time><pdop>8.0</pdop><geoidheight>50.60</geoidheight><course>357.7573</course><type>1</type></trkpt>
      <trkpt lat="39.28427397489383" lon="-6.325581543530271"><ele>1878</ele><speed>9.04</speed><time>2016-06-01T16:01:21Z</time><pdop>8.0</pdop><geoidheight>50.60</geoidheight><course>355.45477</course><type>1</type></trkpt>
      <trkpt lat="39.284459885883244" lon="-6.325609463742923"><ele>1875</ele><speed>10.19</speed><time>2016-06-01T16:01:23Z</time><pdop>8.0</pdop><geoidheight>50.60</geoidheight><course>354.5588</course><type>1</type></trkpt>
      <trkpt lat="39.284732589000456" lon="-6.325661742956317"><ele>1872</ele><speed>9.26</speed><time>2016-06-01T16:01:26Z</time><pdop>8.0</pdop><geoidheight>50.60</geoidheight><course>353.69775</course><type>1</type></trkpt>
      <trkpt lat="39.28489941079128" lon="-6.325690723739039"><ele>1871</ele><speed>8.73</speed><time>2016-06-01T16:01:27Z</time><pdop>8.0</pdop><geoidheight>50.60</geoidheight><course>352.7597</course><type>1</type></trkpt>
      <trkpt lat="39.285142209099405" lon="-6.325735870742115"><ele>1870</ele><speed>9.66</speed><time>2016-06-01T16:01:31Z</time><pdop>12.0</pdop><geoidheight>50.60</geoidheight><course>354.3486</course><type>1</type></trkpt>
      <trkpt lat="39.28539746964911" lon="-6.325744677002796"><ele>1868</ele><speed>8.79</speed><time>2016-06-01T16:01:34Z</time><pdop>8.0</pdop><geoidheight>50.60</geoidheight><course>358.2004</course><type>1</type></trkpt>
      <trkpt lat="39.28555968255557" lon="-6.325757045781133"><ele>1867</ele><speed>8.79</speed><time>2016-06-01T16:01:36Z</time><pdop>8.0</pdop><geoidheight>50.60</geoidheight><course>355.64716</course><type>1</type></trkpt>
      <trkpt lat="39.28579081203991" lon="-6.325775065348243"><ele>1865</ele><speed>7.84</speed><time>2016-06-01T16:01:39Z</time><pdop>12.0</pdop><geoidheight>50.60</geoidheight><course>357.9882</course><type>1</type></trkpt>
      <trkpt lat="39.28598560643126" lon="-6.325787382289457"><ele>1865</ele><speed>7.27</speed><time>2016-06-01T16:01:42Z</time><pdop>8.0</pdop><geoidheight>50.60</geoidheight><course>354.87567</course><type>1</type></trkpt>
      <trkpt lat="39.28618713808126" lon="-6.325826958137441"><ele>1863</ele><speed>7.40</speed><time>2016-06-01T16:01:45Z</time><pdop>8.0</pdop><geoidheight>50.60</geoidheight><course>351.08865</course><type>1</type></trkpt>
      <trkpt lat="39.28638320049943" lon="-6.325858755766224"><ele>1859</ele><speed>6.85</speed><time>2016-06-01T16:01:48Z</time><pdop>8.0</pdop><geoidheight>50.60</geoidheight><course>351.42902</course><type>1</type></trkpt>
      <trkpt lat="39.286582950950915" lon="-6.325917075163976"><ele>1856</ele><speed>7.80</speed><time>2016-06-01T16:01:51Z</time><pdop>8.0</pdop><geoidheight>50.60</geoidheight><course>344.32394</course><type>1</type></trkpt>
      <trkpt lat="39.286778186139536" lon="-6.32597807365419"><ele>1852</ele><speed>8.24</speed><time>2016-06-01T16:01:54Z</time><pdop>8.0</pdop><geoidheight>50.60</geoidheight><course>346.50793</course><type>1</type></trkpt>
      <trkpt lat="39.28691931900925" lon="-6.326025920244435"><ele>1849</ele><speed>8.88</speed><time>2016-06-01T16:01:56Z</time><pdop>8.0</pdop><geoidheight>50.60</geoidheight><course>345.06293</course><type>1</type></trkpt>
      <trkpt lat="39.287151403874965" lon="-6.326079067003869"><ele>1845</ele><speed>8.31</speed><time>2016-06-01T16:01:59Z</time><pdop>8.0</pdop><geoidheight>50.60</geoidheight><course>348.85626</course><type>1</type></trkpt>
      <trkpt lat="39.287357888357334" lon="-6.326144881772727"><ele>1843</ele><speed>8.44</speed><time>2016-06-01T16:02:02Z</time><pdop>8.0</pdop><geoidheight>50.60</geoidheight><course>345.9175</course><type>1</type></trkpt>
      <trkpt lat="39.28752276661606" lon="-6.326177662282171"><ele>1840</ele><speed>8.78</speed><time>2016-06-01T16:02:03Z</time><pdop>8.0</pdop><geoidheight>50.60</geoidheight><course>351.08246</course><type>1</type></trkpt>
      <trkpt lat="39.28770762105186" lon="-6.326218188430559"><ele>1838</ele><speed>6.37</speed><time>2016-06-01T16:02:07Z</time><pdop>8.0</pdop><geoidheight>50.60</geoidheight><course>346.63412</course><type>1</type></trkpt>
      <trkpt lat="39.287856463740795" lon="-6.326262415958597"><ele>1836</ele><speed>9.11</speed><time>2016-06-01T16:02:09Z</time><pdop>8.0</pdop><geoidheight>50.60</geoidheight><course>347.1893</course><type>1</type></trkpt>
      <trkpt lat="39.28803563200782" lon="-6.326328150530582"><ele>1835</ele><speed>10.29</speed><time>2016-06-01T16:02:11Z</time><pdop>8.0</pdop><geoidheight>50.60</geoidheight><course>342.7635</course><type>1</type></trkpt>
      <trkpt lat="39.28818032488051" lon="-6.326407310521526"><ele>1835</ele><speed>7.79</speed><time>2016-06-01T16:02:13Z</time><pdop>8.0</pdop><geoidheight>50.60</geoidheight><course>338.96133</course><type>1</type></trkpt>
      <trkpt lat="39.288385027928555" lon="-6.3264896276870335"><ele>1836</ele><speed>8.54</speed><time>2016-06-01T16:02:16Z</time><pdop>8.0</pdop><geoidheight>50.60</geoidheight><course>344.50055</course><type>1</type></trkpt>
      <trkpt lat="39.28855145872492" lon="-6.3265428688522825"><ele>1836</ele><speed>9.78</speed><time>2016-06-01T16:02:18Z</time><pdop>8.0</pdop><geoidheight>50.60</geoidheight><course>346.00317</course><type>1</type></trkpt>
      <trkpt lat="39.288712735864266" lon="-6.326589530984922"><ele>1837</ele><speed>8.72</speed><time>2016-06-01T16:02:20Z</time><pdop>8.0</pdop><geoidheight>50.60</geoidheight><course>345.68622</course><type>1</type></trkpt>
      <trkpt lat="39.288918324190206" lon="-6.326671134791921"><ele>1840</ele><speed>8.02</speed><time>2016-06-01T16:02:23Z</time><pdop>8.0</pdop><geoidheight>50.60</geoidheight><course>342.79907</course><type>1</type></trkpt>
      <trkpt lat="39.2891072915387" lon="-6.326754957857509"><ele>1842</ele><speed>6.93</speed><time>2016-06-01T16:02:26Z</time><pdop>8.0</pdop><geoidheight>50.60</geoidheight><course>344.43195</course><type>1</type></trkpt>
      <trkpt lat="39.28927520747069" lon="-6.326792290618182"><ele>1844</ele><speed>5.92</speed><time>2016-06-01T16:02:29Z</time><pdop>8.0</pdop><geoidheight>50.60</geoidheight><course>351.67593</course><type>1</type></trkpt>
      <trkpt lat="39.289469292476824" lon="-6.326827692185731"><ele>1845</ele><speed>7.92</speed><time>2016-06-01T16:02:31Z</time><pdop>8.0</pdop><geoidheight>50.60</geoidheight><course>351.83948</course><type>1</type></trkpt>
      <trkpt lat="39.28962172701355" lon="-6.32684539615638"><ele>1846</ele><speed>8.60</speed><time>2016-06-01T16:02:34Z</time><pdop>8.0</pdop><geoidheight>50.60</geoidheight><course>353.85114</course><type>1</type></trkpt>
      <trkpt lat="39.28984504141838" lon="-6.326883572749261"><ele>1849</ele><speed>7.92</speed><time>2016-06-01T16:02:37Z</time><pdop>8.0</pdop><geoidheight>50.60</geoidheight><course>353.5678</course><type>1</type></trkpt>
      <trkpt lat="39.29004053291968" lon="-6.326902045054541"><ele>1852</ele><speed>7.57</speed><time>2016-06-01T16:02:40Z</time><pdop>8.0</pdop><geoidheight>50.60</geoidheight><course>355.19012</course><type>1</type></trkpt>
      <trkpt lat="39.29018821343307" lon="-6.3268699980875365"><ele>1854</ele><speed>8.65</speed><time>2016-06-01T16:02:42Z</time><pdop>8.0</pdop><geoidheight>50.60</geoidheight><course>22.014704</course><type>1</type></trkpt>
      <trkpt lat="39.290280821750926" lon="-6.326699162027515"><ele>1854</ele><speed>9.82</speed><time>2016-06-01T16:02:44Z</time><pdop>8.0</pdop><geoidheight>50.60</geoidheight><course>70.94404</course><type>1</type></trkpt>
      <trkpt lat="39.290255878100545" lon="-6.326496488318708"><ele>1853</ele><speed>9.47</speed><time>2016-06-01T16:02:46Z</time><pdop>8.0</pdop><geoidheight>50.60</geoidheight><course>111.431694</course><type>1</type></trkpt>
      <trkpt lat="39.290140169097015" lon="-6.3263489780402615"><ele>1853</ele><speed>9.91</speed><time>2016-06-01T16:02:47Z</time><pdop>8.0</pdop><geoidheight>50.60</geoidheight><course>146.24205</course><type>1</type></trkpt>
      <trkpt lat="39.28999310437495" lon="-6.326264932323865"><ele>1855</ele><speed>9.65</speed><time>2016-06-01T16:02:50Z</time><pdop>8.0</pdop><geoidheight>50.60</geoidheight><course>172.66301</course><type>1</type></trkpt>
      <trkpt lat="39.289823857841185" lon="-6.326295673700433"><ele>1859</ele><speed>9.79</speed><time>2016-06-01T16:02:51Z</time><pdop>8.0</pdop><geoidheight>50.60</geoidheight><course>205.61609</course><type>1</type></trkpt>
      <trkpt lat="39.28969831300313" lon="-6.326474210884935"><ele>1860</ele><speed>10.42</speed><time>2016-06-01T16:02:54Z</time><pdop>8.0</pdop><geoidheight>50.60</geoidheight><course>241.5077</course><type>1</type></trkpt>
      <trkpt lat="39.289651430673764" lon="-6.32669916997989"><ele>1859</ele><speed>10.58</speed><time>2016-06-01T16:02:55Z</time><pdop>8.0</pdop><geoidheight>50.60</geoidheight><course>275.3835</course><type>1</type></trkpt>
      <trkpt lat="39.28973132599314" lon="-6.3269367055246155"><ele>1858</ele><speed>10.44</speed><time>2016-06-01T16:02:58Z</time><pdop>8.0</pdop><geoidheight>50.60</geoidheight><course>300.3414</course><type>1</type></trkpt>
      <trkpt lat="39.28982948914007" lon="-6.327113823038398"><ele>1856</ele><speed>8.30</speed><time>2016-06-01T16:03:00Z</time><pdop>8.0</pdop><geoidheight>50.60</geoidheight><course>307.1551</course><type>1</type></trkpt>
      <trkpt lat="39.2899440223274" lon="-6.327223411894667"><ele>1854</ele><speed>7.57</speed><time>2016-06-01T16:03:01Z</time><pdop>6.0</pdop><geoidheight>50.60</geoidheight><course>324.0453</course><type>1</type></trkpt>
      <trkpt lat="39.29007991602448" lon="-6.327294972410871"><ele>1853</ele><speed>7.90</speed><time>2016-06-01T16:03:04Z</time><pdop>8.0</pdop><geoidheight>50.60</geoidheight><course>338.14575</course><type>1</type></trkpt>
      <trkpt lat="39.29022114419334" lon="-6.327353616577219"><ele>1851</ele><speed>7.82</speed><time>2016-06-01T16:03:06Z</time><pdop>8.0</pdop><geoidheight>50.60</geoidheight><course>342.3672</course><type>1</type></trkpt>
      <trkpt lat="39.290381073320155" lon="-6.3273887962280675"><ele>1849</ele><speed>8.86</speed><time>2016-06-01T16:03:08Z</time><pdop>6.0</pdop><geoidheight>50.60</geoidheight><course>349.5111</course><type>1</type></trkpt>
      <trkpt lat="39.29055221721376" lon="-6.327402987659544"><ele>1847</ele><speed>9.14</speed><time>2016-06-01T16:03:10Z</time><pdop>8.0</pdop><geoidheight>50.60</geoidheight><course>353.162</course><type>1</type></trkpt>
      <trkpt lat="39.290707360685126" lon="-6.3274369797958805"><ele>1847</ele><speed>8.11</speed><time>2016-06-01T16:03:12Z</time><pdop>8.0</pdop><geoidheight>50.60</geoidheight><course>345.91525</course><type>1</type></trkpt>
      <trkpt lat="39.290909042273064" lon="-6.327474062839826"><ele>1848</ele><speed>7.13</speed><time>2016-06-01T16:03:15Z</time><pdop>12.0</pdop><geoidheight>50.60</geoidheight><course>2.4077451</course><type>1</type></trkpt>
      <trkpt lat="39.291105743108915" lon="-6.327486786185466"><ele>1851</ele><speed>7.96</speed><time>2016-06-01T16:03:18Z</time><pdop>8.0</pdop><geoidheight>50.60</geoidheight><course>354.97046</course><type>1</type></trkpt>
      <trkpt lat="39.29124078898027" lon="-6.327517146470972"><ele>1853</ele><speed>7.69</speed><time>2016-06-01T16:03:20Z</time><pdop>6.0</pdop><geoidheight>50.60</geoidheight><course>352.67316</course><type>1</type></trkpt>
      <trkpt lat="39.29138458054115" lon="-6.3275488628087295"><ele>1854</ele><speed>8.51</speed><time>2016-06-01T16:03:22Z</time><pdop>6.0</pdop><geoidheight>50.60</geoidheight><course>351.7265</course><type>1</type></trkpt>
      <trkpt lat="39.29153730339225" lon="-6.3275842089172505"><ele>1855</ele><speed>8.81</speed><time>2016-06-01T16:03:24Z</time><pdop>8.0</pdop><geoidheight>50.60</geoidheight><course>351.34195</course><type>1</type></trkpt>
      <trkpt lat="39.29176609503899" lon="-6.327608119885841"><ele>1856</ele><speed>8.74</speed><time>2016-06-01T16:03:27Z</time><pdop>12.0</pdop><geoidheight>50.60</geoidheight><course>356.75385</course><type>1</type></trkpt>
      <trkpt lat="39.29203181365406" lon="-6.327613852598855"><ele>1856</ele><speed>10.04</speed><time>2016-06-01T16:03:30Z</time><pdop>8.0</pdop><geoidheight>50.60</geoidheight><course>356.6055</course><type>1</type></trkpt>
      <trkpt lat="39.29220397831382" lon="-6.327627750874718"><ele>1855</ele><speed>8.72</speed><time>2016-06-01T16:03:32Z</time><pdop>8.0</pdop><geoidheight>50.60</geoidheight><course>357.4727</course><type>1</type></trkpt>
      <trkpt lat="39.292362493894906" lon="-6.32764469637293"><ele>1855</ele><speed>8.70</speed><time>2016-06-01T16:03:34Z</time><pdop>8.0</pdop><geoidheight>50.60</geoidheight><course>354.91998</course><type>1</type></trkpt>
      <trkpt lat="39.292520475842444" lon="-6.32767036657208"><ele>1856</ele><speed>8.87</speed><time>2016-06-01T16:03:36Z</time><pdop>8.0</pdop><geoidheight>50.60</geoidheight><course>354.0778</course><type>1</type></trkpt>
      <trkpt lat="39.292666629234155" lon="-6.3276845048208905"><ele>1857</ele><speed>7.13</speed><time>2016-06-01T16:03:38Z</time><pdop>8.0</pdop><geoidheight>50.60</geoidheight><course>355.11505</course><type>1</type></trkpt>
      <trkpt lat="39.29280229482726" lon="-6.327708172769493"><ele>1859</ele><speed>7.86</speed><time>2016-06-01T16:03:40Z</time><pdop>6.0</pdop><geoidheight>50.60</geoidheight><course>351.59415</course><type>1</type></trkpt>
      <trkpt lat="39.29294649486419" lon="-6.327801262502482"><ele>1860</ele><speed>9.34</speed><time>2016-06-01T16:03:42Z</time><pdop>8.0</pdop><geoidheight>50.60</geoidheight><course>331.21265</course><type>1</type></trkpt>
      <trkpt lat="39.2930991380104" lon="-6.327997680016755"><ele>1863</ele><speed>8.20</speed><time>2016-06-01T16:03:45Z</time><pdop>8.0</pdop><geoidheight>50.60</geoidheight><course>311.97894</course><type>1</type></trkpt>
      <trkpt lat="39.29322296792212" lon="-6.3281265851715585"><ele>1869</ele><speed>5.82</speed><time>2016-06-01T16:03:48Z</time><pdop>8.0</pdop><geoidheight>50.60</geoidheight><course>346.89084</course><type>1</type></trkpt>
      <trkpt lat="39.293344555986984" lon="-6.3279835324275755"><ele>1876</ele><speed>9.06</speed><time>2016-06-01T16:03:52Z</time><pdop>8.0</pdop><geoidheight>50.60</geoidheight><course>74.49882</course><type>1</type></trkpt>
      <trkpt lat="39.293336111263166" lon="-6.3277494959006955"><ele>1878</ele><speed>11.58</speed><time>2016-06-01T16:03:54Z</time><pdop>12.0</pdop><geoidheight>50.60</geoidheight><course>97.28499</course><type>1</type></trkpt>
      <trkpt lat="39.293151932624376" lon="-6.3275935335668985"><ele>1884</ele><speed>10.88</speed><time>2016-06-01T16:03:57Z</time><pdop>8.0</pdop><geoidheight>50.60</geoidheight><course>179.74017</course><type>1</type></trkpt>
      <trkpt lat="39.292997384241865" lon="-6.327679774472764"><ele>1888</ele><speed>9.94</speed><time>2016-06-01T16:03:59Z</time><pdop>6.0</pdop><geoidheight>50.60</geoidheight><course>221.12822</course><type>1</type></trkpt>
      <trkpt lat="39.29293708645189" lon="-6.327847589153024"><ele>1893</ele><speed>9.89</speed><time>2016-06-01T16:04:01Z</time><pdop>6.0</pdop><geoidheight>50.60</geoidheight><course>270.34225</course><type>1</type></trkpt>
      <trkpt lat="39.29300453725423" lon="-6.328016519562322"><ele>1900</ele><speed>6.76</speed><time>2016-06-01T16:04:04Z</time><pdop>6.0</pdop><geoidheight>50.60</geoidheight><course>334.9823</course><type>1</type></trkpt>
      <trkpt lat="39.29316570115733" lon="-6.327965694234278"><ele>1903</ele><speed>9.11</speed><time>2016-06-01T16:04:06Z</time><pdop>8.0</pdop><geoidheight>50.60</geoidheight><course>35.349625</course><type>1</type></trkpt>
      <trkpt lat="39.293240911646336" lon="-6.32778239736106"><ele>1905</ele><speed>10.02</speed><time>2016-06-01T16:04:08Z</time><pdop>8.0</pdop><geoidheight>50.60</geoidheight><course>66.66841</course><type>1</type></trkpt>
      <trkpt lat="39.29319385937471" lon="-6.3275648122237"><ele>1908</ele><speed>9.47</speed><time>2016-06-01T16:04:10Z</time><pdop>6.0</pdop><geoidheight>50.60</geoidheight><course>128.56609</course><type>1</type></trkpt>
      <trkpt lat="39.29304480239473" lon="-6.327442338681094"><ele>1911</ele><speed>9.65</speed><time>2016-06-01T16:04:12Z</time><pdop>6.0</pdop><geoidheight>50.60</geoidheight><course>148.43103</course><type>1</type></trkpt>
      <trkpt lat="39.29286553052182" lon="-6.327390026563597"><ele>1914</ele><speed>10.15</speed><time>2016-06-01T16:04:13Z</time><pdop>8.0</pdop><geoidheight>50.60</geoidheight><course>169.36674</course><type>1</type></trkpt>
      <trkpt lat="39.29269251906843" lon="-6.327511724671321"><ele>1917</ele><speed>10.51</speed><time>2016-06-01T16:04:16Z</time><pdop>8.0</pdop><geoidheight>50.60</geoidheight><course>226.26959</course><type>1</type></trkpt>
      <trkpt lat="39.29261485450862" lon="-6.327703420558595"><ele>1921</ele><speed>8.68</speed><time>2016-06-01T16:04:18Z</time><pdop>6.0</pdop><geoidheight>50.60</geoidheight><course>259.86453</course><type>1</type></trkpt>
      <trkpt lat="39.29260366596295" lon="-6.327856346516503"><ele>1927</ele><speed>8.13</speed><time>2016-06-01T16:04:19Z</time><pdop>6.0</pdop><geoidheight>50.60</geoidheight><course>281.56494</course><type>1</type></trkpt>
      <trkpt lat="39.29267412033533" lon="-6.32801187139161"><ele>1932</ele><speed>9.80</speed><time>2016-06-01T16:04:21Z</time><pdop>6.0</pdop><geoidheight>50.60</geoidheight><course>316.5534</course><type>1</type></trkpt>
      <trkpt lat="39.2928113793933" lon="-6.328081243062113"><ele>1934</ele><speed>9.38</speed><time>2016-06-01T16:04:24Z</time><pdop>8.0</pdop><geoidheight>50.60</geoidheight><course>342.23627</course><type>1</type></trkpt>
      <trkpt lat="39.29295615228613" lon="-6.328032434423379"><ele>1935</ele><speed>8.33</speed><time>2016-06-01T16:04:25Z</time><pdop>8.0</pdop><geoidheight>50.60</geoidheight><course>16.597729</course><type>1</type></trkpt>
      <trkpt lat="39.29307638651595" lon="-6.327948874780642"><ele>1937</ele><speed>7.61</speed><time>2016-06-01T16:04:27Z</time><pdop>6.0</pdop><geoidheight>50.60</geoidheight><course>41.97911</course><type>1</type></trkpt>
      <trkpt lat="39.29312122487617" lon="-6.327771276588675"><ele>1939</ele><speed>8.76</speed><time>2016-06-01T16:04:30Z</time><pdop>8.0</pdop><geoidheight>50.60</geoidheight><course>89.47049</course><type>1</type></trkpt>
      <trkpt lat="39.29307497658608" lon="-6.327581033846182"><ele>1942</ele><speed>10.05</speed><time>2016-06-01T16:04:31Z</time><pdop>8.0</pdop><geoidheight>50.60</geoidheight><course>119.25112</course><type>1</type></trkpt>
      <trkpt lat="39.29292195985349" lon="-6.327365222199932"><ele>1946</ele><speed>9.33</speed><time>2016-06-01T16:04:34Z</time><pdop>16.0</pdop><geoidheight>50.60</geoidheight><course>139.2615</course><type>1</type></trkpt>
      <trkpt lat="39.29268203838262" lon="-6.327295964935244"><ele>1949</ele><speed>10.81</speed><time>2016-06-01T16:04:38Z</time><pdop>8.0</pdop><geoidheight>50.60</geoidheight><course>173.58429</course><type>1</type></trkpt>
      <trkpt lat="39.2925150394982" lon="-6.327349778583257"><ele>1954</ele><speed>8.33</speed><time>2016-06-01T16:04:39Z</time><pdop>6.0</pdop><geoidheight>50.60</geoidheight><course>210.72289</course><type>1</type></trkpt>
      <trkpt lat="39.29241230538824" lon="-6.327435552073896"><ele>1960</ele><speed>6.87</speed><time>2016-06-01T16:04:41Z</time><pdop>6.0</pdop><geoidheight>50.60</geoidheight><course>231.99933</course><type>1</type></trkpt>
      <trkpt lat="39.29241562038795" lon="-6.327678990824088"><ele>1967</ele><speed>9.37</speed><time>2016-06-01T16:04:45Z</time><pdop>8.0</pdop><geoidheight>50.60</geoidheight><course>292.03464</course><type>1</type></trkpt>
      <trkpt lat="39.29247147237039" lon="-6.327857143831064"><ele>1971</ele><speed>8.00</speed><time>2016-06-01T16:04:46Z</time><pdop>6.0</pdop><geoidheight>50.60</geoidheight><course>309.1861</course><type>1</type></trkpt>
      <trkpt lat="39.29255701676331" lon="-6.327998383057858"><ele>1973</ele><speed>8.88</speed><time>2016-06-01T16:04:49Z</time><pdop>8.0</pdop><geoidheight>50.60</geoidheight><course>314.11572</course><type>1</type></trkpt>
      <trkpt lat="39.29264546607914" lon="-6.328163514022715"><ele>1975</ele><speed>8.51</speed><time>2016-06-01T16:04:50Z</time><pdop>8.0</pdop><geoidheight>50.60</geoidheight><course>296.69794</course><type>1</type></trkpt>
      <trkpt lat="39.2927025076122" lon="-6.328348948074618"><ele>1976</ele><speed>8.71</speed><time>2016-06-01T16:04:52Z</time><pdop>8.0</pdop><geoidheight>50.60</geoidheight><course>290.34448</course><type>1</type></trkpt>
      <trkpt lat="39.29285704800796" lon="-6.328512381768198"><ele>1979</ele><speed>8.19</speed><time>2016-06-01T16:04:55Z</time><pdop>8.0</pdop><geoidheight>50.60</geoidheight><course>355.71097</course><type>1</type></trkpt>
      <trkpt lat="39.29298298224539" lon="-6.328470244112034"><ele>1981</ele><speed>8.51</speed><time>2016-06-01T16:04:57Z</time><pdop>6.0</pdop><geoidheight>50.60</geoidheight><course>34.963833</course><type>1</type></trkpt>
      <trkpt lat="39.293039091445266" lon="-6.3283040392934184"><ele>1982</ele><speed>10.64</speed><time>2016-06-01T16:05:00Z</time><pdop>6.0</pdop><geoidheight>50.60</geoidheight><course>85.06181</course><type>1</type></trkpt>
      <trkpt lat="39.29297223595615" lon="-6.32807943969865"><ele>1985</ele><speed>11.24</speed><time>2016-06-01T16:05:01Z</time><pdop>8.0</pdop><geoidheight>50.60</geoidheight><course>135.49846</course><type>1</type></trkpt>
      <trkpt lat="39.29274730492643" lon="-6.328036584755156"><ele>1988</ele><speed>10.63</speed><time>2016-06-01T16:05:04Z</time><pdop>6.0</pdop><geoidheight>50.60</geoidheight><course>210.92859</course><type>1</type></trkpt>
      <trkpt lat="39.29267222484897" lon="-6.32821890213286"><ele>1992</ele><speed>9.99</speed><time>2016-06-01T16:05:06Z</time><pdop>8.0</pdop><geoidheight>50.60</geoidheight><course>257.09525</course><type>1</type></trkpt>
      <trkpt lat="39.292736749844565" lon="-6.328404987647878"><ele>1996</ele><speed>9.27</speed><time>2016-06-01T16:05:08Z</time><pdop>6.0</pdop><geoidheight>50.60</geoidheight><course>311.36142</course><type>1</type></trkpt>
      <trkpt lat="39.29284154840504" lon="-6.328537117490096"><ele>2000</ele><speed>8.23</speed><time>2016-06-01T16:05:11Z</time><pdop>6.0</pdop><geoidheight>50.60</geoidheight><course>328.89066</course><type>1</type></trkpt>
      <trkpt lat="39.29303983209925" lon="-6.3286516832090065"><ele>2003</ele><speed>8.87</speed><time>2016-06-01T16:05:13Z</time><pdop>8.0</pdop><geoidheight>50.60</geoidheight><course>337.2187</course><type>1</type></trkpt>
      <trkpt lat="39.29323841692972" lon="-6.328726919936735"><ele>2006</ele><speed>6.85</speed><time>2016-06-01T16:05:16Z</time><pdop>8.0</pdop><geoidheight>50.60</geoidheight><course>338.125</course><type>1</type></trkpt>
      <trkpt lat="39.293426687660535" lon="-6.328826711809602"><ele>2009</ele><speed>8.48</speed><time>2016-06-01T16:05:19Z</time><pdop>8.0</pdop><geoidheight>50.60</geoidheight><course>335.2214</course><type>1</type></trkpt>
      <trkpt lat="39.293554848022275" lon="-6.328940499956005"><ele>2012</ele><speed>7.79</speed><time>2016-06-01T16:05:21Z</time><pdop>6.0</pdop><geoidheight>50.60</geoidheight><course>315.55386</course><type>1</type></trkpt>
      <trkpt lat="39.293651157084824" lon="-6.329087294491849"><ele>2016</ele><speed>8.21</speed><time>2016-06-01T16:05:23Z</time><pdop>8.0</pdop><geoidheight>50.60</geoidheight><course>311.37897</course><type>1</type></trkpt>
      <trkpt lat="39.293745982989016" lon="-6.32923941061524"><ele>2021</ele><speed>8.04</speed><time>2016-06-01T16:05:25Z</time><pdop>8.0</pdop><geoidheight>50.60</geoidheight><course>313.54092</course><type>1</type></trkpt>
      <trkpt lat="39.29386698816275" lon="-6.3294511399965385"><ele>2026</ele><speed>7.96</speed><time>2016-06-01T16:05:28Z</time><pdop>8.0</pdop><geoidheight>50.60</geoidheight><course>294.73447</course><type>1</type></trkpt>
      <trkpt lat="39.29387573775061" lon="-6.32964128969645"><ele>2028</ele><speed>8.98</speed><time>2016-06-01T16:05:31Z</time><pdop>6.0</pdop><geoidheight>50.60</geoidheight><course>264.69812</course><type>1</type></trkpt>
      <trkpt lat="39.29381580144497" lon="-6.329853212501565"><ele>2031</ele><speed>8.30</speed><time>2016-06-01T16:05:32Z</time><pdop>6.0</pdop><geoidheight>50.60</geoidheight><course>240.41588</course><type>1</type></trkpt>
      <trkpt lat="39.293666363175504" lon="-6.329936805645341"><ele>2036</ele><speed>8.62</speed><time>2016-06-01T16:05:35Z</time><pdop>6.0</pdop><geoidheight>50.60</geoidheight><course>184.2545</course><type>1</type></trkpt>
      <trkpt lat="39.293535537428774" lon="-6.32988919757121"><ele>2039</ele><speed>7.73</speed><time>2016-06-01T16:05:36Z</time><pdop>6.0</pdop><geoidheight>50.60</geoidheight><course>159.9527</course><type>1</type></trkpt>
      <trkpt lat="39.29346653813885" lon="-6.329750643228117"><ele>2041</ele><speed>8.09</speed><time>2016-06-01T16:05:38Z</time><pdop>6.0</pdop><geoidheight>50.60</geoidheight><course>108.40252</course><type>1</type></trkpt>
      <trkpt lat="39.293454983971905" lon="-6.329547078664295"><ele>2043</ele><speed>9.58</speed><time>2016-06-01T16:05:40Z</time><pdop>6.0</pdop><geoidheight>50.60</geoidheight><course>89.618225</course><type>1</type></trkpt>
      <trkpt lat="39.293524754057934" lon="-6.329312122851086"><ele>2044</ele><speed>9.81</speed><time>2016-06-01T16:05:43Z</time><pdop>6.0</pdop><geoidheight>50.60</geoidheight><course>57.285484</course><type>1</type></trkpt>
      <trkpt lat="39.293622374227674" lon="-6.329139109656325"><ele>2045</ele><speed>9.52</speed><time>2016-06-01T16:05:44Z</time><pdop>6.0</pdop><geoidheight>50.60</geoidheight><course>52.543175</course><type>1</type></trkpt>
      <trkpt lat="39.29372577493711" lon="-6.328855388178528"><ele>2049</ele><speed>9.19</speed><time>2016-06-01T16:05:48Z</time><pdop>8.0</pdop><geoidheight>50.60</geoidheight><course>71.06934</course><type>1</type></trkpt>
      <trkpt lat="39.29376641362052" lon="-6.328644238167559"><ele>2051</ele><speed>9.09</speed><time>2016-06-01T16:05:49Z</time><pdop>6.0</pdop><geoidheight>50.60</geoidheight><course>77.86007</course><type>1</type></trkpt>
      <trkpt lat="39.29375575699331" lon="-6.328434869478513"><ele>2054</ele><speed>9.16</speed><time>2016-06-01T16:05:51Z</time><pdop>12.0</pdop><geoidheight>50.60</geoidheight><course>96.37057</course><type>1</type></trkpt>
      <trkpt lat="39.293776769628664" lon="-6.328155271354085"><ele>2058</ele><speed>8.34</speed><time>2016-06-01T16:05:54Z</time><pdop>8.0</pdop><geoidheight>50.60</geoidheight><course>62.10769</course><type>1</type></trkpt>
      <trkpt lat="39.293908436844966" lon="-6.3280131893455165"><ele>2060</ele><speed>9.36</speed><time>2016-06-01T16:05:57Z</time><pdop>8.0</pdop><geoidheight>50.60</geoidheight><course>24.137592</course><type>1</type></trkpt>
      <trkpt lat="39.29406856932282" lon="-6.327920492348184"><ele>2062</ele><speed>9.45</speed><time>2016-06-01T16:05:58Z</time><pdop>6.0</pdop><geoidheight>50.60</geoidheight><course>20.69574</course><type>1</type></trkpt>
      <trkpt lat="39.294223843140195" lon="-6.327857700992016"><ele>2064</ele><speed>8.77</speed><time>2016-06-01T16:06:01Z</time><pdop>6.0</pdop><geoidheight>50.60</geoidheight><course>18.537539</course><type>1</type></trkpt>
      <trkpt lat="39.29437266959621" lon="-6.327812618086368"><ele>2065</ele><speed>8.13</speed><time>2016-06-01T16:06:02Z</time><pdop>6.0</pdop><geoidheight>50.60</geoidheight><course>13.963309</course><type>1</type></trkpt>
      <trkpt lat="39.29451129466624" lon="-6.327841227587414"><ele>2066</ele><speed>7.71</speed><time>2016-06-01T16:06:05Z</time><pdop>6.0</pdop><geoidheight>50.60</geoidheight><course>339.0059</course><type>1</type></trkpt>
      <trkpt lat="39.29460744972989" lon="-6.327968449475132"><ele>2067</ele><speed>9.54</speed><time>2016-06-01T16:06:06Z</time><pdop>6.0</pdop><geoidheight>50.60</geoidheight><course>311.41586</course><type>1</type></trkpt>
      <trkpt lat="39.29463638245296" lon="-6.328166385611128"><ele>2065</ele><speed>9.49</speed><time>2016-06-01T16:06:08Z</time><pdop>8.0</pdop><geoidheight>50.60</geoidheight><course>265.5771</course><type>1</type></trkpt>
      <trkpt lat="39.29452183387642" lon="-6.328368719546499"><ele>2065</ele><speed>9.13</speed><time>2016-06-01T16:06:11Z</time><pdop>8.0</pdop><geoidheight>50.60</geoidheight><course>229.40714</course><type>1</type></trkpt>
      <trkpt lat="39.294388912312954" lon="-6.328531292927313"><ele>2063</ele><speed>10.07</speed><time>2016-06-01T16:06:13Z</time><pdop>6.0</pdop><geoidheight>50.60</geoidheight><course>223.52887</course><type>1</type></trkpt>
      <trkpt lat="39.29424747073697" lon="-6.3286945798608265"><ele>2064</ele><speed>10.75</speed><time>2016-06-01T16:06:14Z</time><pdop>6.0</pdop><geoidheight>50.60</geoidheight><course>221.6732</course><type>1</type></trkpt>
      <trkpt lat="39.294108903550566" lon="-6.328864362456425"><ele>2064</ele><speed>10.00</speed><time>2016-06-01T16:06:16Z</time><pdop>6.0</pdop><geoidheight>50.60</geoidheight><course>223.1607</course><type>1</type></trkpt>
      <trkpt lat="39.293981702957716" lon="-6.329023464698309"><ele>2064</ele><speed>9.26</speed><time>2016-06-01T16:06:18Z</time><pdop>8.0</pdop><geoidheight>50.60</geoidheight><course>220.47168</course><type>1</type></trkpt>
      <trkpt lat="39.2938290086915" lon="-6.329135852477648"><ele>2066</ele><speed>8.78</speed><time>2016-06-01T16:06:20Z</time><pdop>6.0</pdop><geoidheight>50.60</geoidheight><course>201.42319</course><type>1</type></trkpt>
      <trkpt lat="39.29367128053976" lon="-6.329216697376345"><ele>2066</ele><speed>9.25</speed><time>2016-06-01T16:06:22Z</time><pdop>6.0</pdop><geoidheight>50.60</geoidheight><course>199.94693</course><type>1</type></trkpt>
      <trkpt lat="39.293526564092005" lon="-6.329298997175804"><ele>2067</ele><speed>9.34</speed><time>2016-06-01T16:06:24Z</time><pdop>6.0</pdop><geoidheight>50.60</geoidheight><course>202.23807</course><type>1</type></trkpt>
      <trkpt lat="39.293383592761465" lon="-6.329377622331654"><ele>2068</ele><speed>8.86</speed><time>2016-06-01T16:06:26Z</time><pdop>6.0</pdop><geoidheight>50.60</geoidheight><course>198.60663</course><type>1</type></trkpt>
      <trkpt lat="39.293223415838234" lon="-6.3294185794878075"><ele>2069</ele><speed>9.45</speed><time>2016-06-01T16:06:28Z</time><pdop>6.0</pdop><geoidheight>50.60</geoidheight><course>193.77832</course><type>1</type></trkpt>
      <trkpt lat="39.2930615672822" lon="-6.329393189020052"><ele>2072</ele><speed>8.73</speed><time>2016-06-01T16:06:30Z</time><pdop>6.0</pdop><geoidheight>50.60</geoidheight><course>163.88301</course><type>1</type></trkpt>
      <trkpt lat="39.29294213975113" lon="-6.329278408504981"><ele>2073</ele><speed>9.73</speed><time>2016-06-01T16:06:32Z</time><pdop>6.0</pdop><geoidheight>50.60</geoidheight><course>126.438934</course><type>1</type></trkpt>
      <trkpt lat="39.29284608123744" lon="-6.329078471430435"><ele>2073</ele><speed>10.92</speed><time>2016-06-01T16:06:35Z</time><pdop>8.0</pdop><geoidheight>50.60</geoidheight><course>120.51688</course><type>1</type></trkpt>
      <trkpt lat="39.292755223759315" lon="-6.328876096667819"><ele>2073</ele><speed>10.22</speed><time>2016-06-01T16:06:36Z</time><pdop>8.0</pdop><geoidheight>50.60</geoidheight><course>119.631836</course><type>1</type></trkpt>
      <trkpt lat="39.29268188758282" lon="-6.328686739013009"><ele>2074</ele><speed>9.91</speed><time>2016-06-01T16:06:39Z</time><pdop>8.0</pdop><geoidheight>50.60</geoidheight><course>117.75476</course><type>1</type></trkpt>
      <trkpt lat="39.292604055278964" lon="-6.328473693573156"><ele>2075</ele><speed>11.01</speed><time>2016-06-01T16:06:40Z</time><pdop>12.0</pdop><geoidheight>50.60</geoidheight><course>117.35234</course><type>1</type></trkpt>
      <trkpt lat="39.292489368690156" lon="-6.328246651300981"><ele>2077</ele><speed>10.93</speed><time>2016-06-01T16:06:42Z</time><pdop>8.0</pdop><geoidheight>50.60</geoidheight><course>124.658936</course><type>1</type></trkpt>
      <trkpt lat="39.292365402962375" lon="-6.328042788584524"><ele>2080</ele><speed>10.07</speed><time>2016-06-01T16:06:44Z</time><pdop>8.0</pdop><geoidheight>50.60</geoidheight><course>127.20527</course><type>1</type></trkpt>
      <trkpt lat="39.29225489619289" lon="-6.327840458795623"><ele>2082</ele><speed>9.88</speed><time>2016-06-01T16:06:47Z</time><pdop>8.0</pdop><geoidheight>50.60</geoidheight><course>123.79965</course><type>1</type></trkpt>
      <trkpt lat="39.292146322280956" lon="-6.327617193803262"><ele>2083</ele><speed>12.09</speed><time>2016-06-01T16:06:48Z</time><pdop>8.0</pdop><geoidheight>50.60</geoidheight><course>122.38553</course><type>1</type></trkpt>
      <trkpt lat="39.292035534038334" lon="-6.327384541457695"><ele>2084</ele><speed>11.56</speed><time>2016-06-01T16:06:50Z</time><pdop>12.0</pdop><geoidheight>50.60</geoidheight><course>122.854324</course><type>1</type></trkpt>
      <trkpt lat="39.29184344896276" lon="-6.326935090341724"><ele>2084</ele><speed>11.75</speed><time>2016-06-01T16:06:54Z</time><pdop>24.0</pdop><geoidheight>50.60</geoidheight><course>116.26752</course><type>1</type></trkpt>
      <trkpt lat="39.2917051181574" lon="-6.3265527874637275"><ele>2082</ele><speed>12.84</speed><time>2016-06-01T16:06:57Z</time><pdop>8.0</pdop><geoidheight>50.60</geoidheight><course>114.664116</course><type>1</type></trkpt>
      <trkpt lat="39.29162182610799" lon="-6.326287899598982"><ele>2082</ele><speed>12.19</speed><time>2016-06-01T16:06:59Z</time><pdop>8.0</pdop><geoidheight>50.60</geoidheight><course>112.22433</course><type>1</type></trkpt>
      <trkpt lat="39.29153464734949" lon="-6.326019734283102"><ele>2083</ele><speed>11.81</speed><time>2016-06-01T16:07:02Z</time><pdop>8.0</pdop><geoidheight>50.60</geoidheight><course>113.685814</course><type>1</type></trkpt>
      <trkpt lat="39.29142535528827" lon="-6.325624177750726"><ele>2082</ele><speed>12.77</speed><time>2016-06-01T16:07:05Z</time><pdop>8.0</pdop><geoidheight>50.60</geoidheight><course>109.250435</course><type>1</type></trkpt>
      <trkpt lat="39.291363557245745" lon="-6.325371892647344"><ele>2081</ele><speed>11.39</speed><time>2016-06-01T16:07:06Z</time><pdop>8.0</pdop><geoidheight>50.60</geoidheight><course>108.961494</course><type>1</type></trkpt>
      <trkpt lat="39.291301571188136" lon="-6.325128178639684"><ele>2080</ele><speed>11.62</speed><time>2016-06-01T16:07:08Z</time><pdop>8.0</pdop><geoidheight>50.60</geoidheight><course>108.69893</course><type>1</type></trkpt>
      <trkpt lat="39.29123506507134" lon="-6.324877017887978"><ele>2079</ele><speed>12.20</speed><time>2016-06-01T16:07:10Z</time><pdop>8.0</pdop><geoidheight>50.60</geoidheight><course>109.91285</course><type>1</type></trkpt>
      <trkpt lat="39.29116671923518" lon="-6.324644150741152"><ele>2077</ele><speed>10.65</speed><time>2016-06-01T16:07:12Z</time><pdop>8.0</pdop><geoidheight>50.60</geoidheight><course>109.78018</course><type>1</type></trkpt>
      <trkpt lat="39.29110818466716" lon="-6.324406458667159"><ele>2077</ele><speed>10.45</speed><time>2016-06-01T16:07:14Z</time><pdop>6.0</pdop><geoidheight>50.60</geoidheight><course>107.1127</course><type>1</type></trkpt>
      <trkpt lat="39.29105669076683" lon="-6.324166764672979"><ele>2077</ele><speed>10.51</speed><time>2016-06-01T16:07:16Z</time><pdop>8.0</pdop><geoidheight>50.60</geoidheight><course>106.25848</course><type>1</type></trkpt>
      <trkpt lat="39.290998533492846" lon="-6.323927496898352"><ele>2076</ele><speed>10.54</speed><time>2016-06-01T16:07:18Z</time><pdop>8.0</pdop><geoidheight>50.60</geoidheight><course>108.33321</course><type>1</type></trkpt>
      <trkpt lat="39.29094849070714" lon="-6.323680144019533"><ele>2077</ele><speed>10.73</speed><time>2016-06-01T16:07:21Z</time><pdop>8.0</pdop><geoidheight>50.60</geoidheight><course>104.883896</course><type>1</type></trkpt>
      <trkpt lat="39.29090465007377" lon="-6.323419669731285"><ele>2077</ele><speed>11.45</speed><time>2016-06-01T16:07:22Z</time><pdop>8.0</pdop><geoidheight>50.60</geoidheight><course>104.05475</course><type>1</type></trkpt>
      <trkpt lat="39.29084492537768" lon="-6.323137100403912"><ele>2078</ele><speed>12.14</speed><time>2016-06-01T16:07:24Z</time><pdop>8.0</pdop><geoidheight>50.60</geoidheight><course>105.74131</course><type>1</type></trkpt>
      <trkpt lat="39.29079026336744" lon="-6.322860535771024"><ele>2080</ele><speed>11.12</speed><time>2016-06-01T16:07:26Z</time><pdop>8.0</pdop><geoidheight>50.60</geoidheight><course>102.76804</course><type>1</type></trkpt>
      <trkpt lat="39.290748256766854" lon="-6.322626474666964"><ele>2080</ele><speed>10.24</speed><time>2016-06-01T16:07:28Z</time><pdop>12.0</pdop><geoidheight>50.60</geoidheight><course>104.4232</course><type>1</type></trkpt>
      <trkpt lat="39.29068081823383" lon="-6.322369296265979"><ele>2082</ele><speed>11.22</speed><time>2016-06-01T16:07:30Z</time><pdop>8.0</pdop><geoidheight>50.60</geoidheight><course>109.97242</course><type>1</type></trkpt>
      <trkpt lat="39.29060191039024" lon="-6.322093622106021"><ele>2083</ele><speed>12.43</speed><time>2016-06-01T16:07:32Z</time><pdop>8.0</pdop><geoidheight>50.60</geoidheight><course>109.58008</course><type>1</type></trkpt>
      <trkpt lat="39.290525222279335" lon="-6.321830078986761"><ele>2085</ele><speed>11.05</speed><time>2016-06-01T16:07:34Z</time><pdop>8.0</pdop><geoidheight>50.60</geoidheight><course>110.67495</course><type>1</type></trkpt>
      <trkpt lat="39.29043840019179" lon="-6.3215961673543415"><ele>2085</ele><speed>11.53</speed><time>2016-06-01T16:07:36Z</time><pdop>8.0</pdop><geoidheight>50.60</geoidheight><course>115.944336</course><type>1</type></trkpt>
      <trkpt lat="39.29034229129835" lon="-6.321374785399866"><ele>2085</ele><speed>10.56</speed><time>2016-06-01T16:07:39Z</time><pdop>8.0</pdop><geoidheight>50.60</geoidheight><course>118.271416</course><type>1</type></trkpt>
      <trkpt lat="39.29025462539157" lon="-6.3211696845833405"><ele>2086</ele><speed>9.94</speed><time>2016-06-01T16:07:40Z</time><pdop>8.0</pdop><geoidheight>50.60</geoidheight><course>117.58215</course><type>1</type></trkpt>
      <trkpt lat="39.29016592553506" lon="-6.320975513796217"><ele>2086</ele><speed>9.63</speed><time>2016-06-01T16:07:42Z</time><pdop>6.0</pdop><geoidheight>50.60</geoidheight><course>118.0231</course><type>1</type></trkpt>
      <trkpt lat="39.29006607144403" lon="-6.320790363146894"><ele>2086</ele><speed>10.24</speed><time>2016-06-01T16:07:44Z</time><pdop>6.0</pdop><geoidheight>50.60</geoidheight><course>121.0154</course><type>1</type></trkpt>
      <trkpt lat="39.289955601332586" lon="-6.320577627663729"><ele>2087</ele><speed>10.85</speed><time>2016-06-01T16:07:46Z</time><pdop>6.0</pdop><geoidheight>50.60</geoidheight><course>120.97583</course><type>1</type></trkpt>
      <trkpt lat="39.28984789510058" lon="-6.320340280506905"><ele>2088</ele><speed>10.87</speed><time>2016-06-01T16:07:48Z</time><pdop>8.0</pdop><geoidheight>50.60</geoidheight><course>116.870316</course><type>1</type></trkpt>
      <trkpt lat="39.28976403867807" lon="-6.32010530242567"><ele>2089</ele><speed>12.10</speed><time>2016-06-01T16:07:50Z</time><pdop>6.0</pdop><geoidheight>50.60</geoidheight><course>114.67391</course><type>1</type></trkpt>
      <trkpt lat="39.28971214686928" lon="-6.319965319896807"><ele>2089</ele><speed>13.03</speed><time>2016-06-01T16:07:51Z</time><pdop>6.0</pdop><geoidheight>50.60</geoidheight><course>114.414894</course><type>1</type></trkpt>
      <trkpt lat="39.289660935734446" lon="-6.319820628312695"><ele>2090</ele><speed>13.47</speed><time>2016-06-01T16:07:52Z</time><pdop>6.0</pdop><geoidheight>50.60</geoidheight><course>113.94998</course><type>1</type></trkpt>
      <trkpt lat="39.289573229791536" lon="-6.319545369357875"><ele>2090</ele><speed>12.42</speed><time>2016-06-01T16:07:54Z</time><pdop>12.0</pdop><geoidheight>50.60</geoidheight><course>112.01294</course><type>1</type></trkpt>
      <trkpt lat="39.28951005253192" lon="-6.319277025685926"><ele>2091</ele><speed>11.83</speed><time>2016-06-01T16:07:56Z</time><pdop>8.0</pdop><geoidheight>50.60</geoidheight><course>107.74792</course><type>1</type></trkpt>
      <trkpt lat="39.289456888043645" lon="-6.3190016525323305"><ele>2091</ele><speed>12.67</speed><time>2016-06-01T16:07:58Z</time><pdop>8.0</pdop><geoidheight>50.60</geoidheight><course>104.938965</course><type>1</type></trkpt>
      <trkpt lat="39.289410500148634" lon="-6.318739908604012"><ele>2090</ele><speed>12.32</speed><time>2016-06-01T16:08:00Z</time><pdop>8.0</pdop><geoidheight>50.60</geoidheight><course>106.0134</course><type>1</type></trkpt>
      <trkpt lat="39.28935763541815" lon="-6.318485360464291"><ele>2088</ele><speed>12.51</speed><time>2016-06-01T16:08:02Z</time><pdop>8.0</pdop><geoidheight>50.60</geoidheight><course>107.56515</course><type>1</type></trkpt>
      <trkpt lat="39.28929785519717" lon="-6.318215191276819"><ele>2087</ele><speed>13.14</speed><time>2016-06-01T16:08:04Z</time><pdop>8.0</pdop><geoidheight>50.60</geoidheight><course>107.44675</course><type>1</type></trkpt>
      <trkpt lat="39.289232411181516" lon="-6.31795565497299"><ele>2084</ele><speed>12.29</speed><time>2016-06-01T16:08:06Z</time><pdop>8.0</pdop><geoidheight>50.60</geoidheight><course>108.62879</course><type>1</type></trkpt>
      <trkpt lat="39.2891544926474" lon="-6.317684357877584"><ele>2082</ele><speed>11.93</speed><time>2016-06-01T16:08:09Z</time><pdop>6.0</pdop><geoidheight>50.60</geoidheight><course>109.04048</course><type>1</type></trkpt>
      <trkpt lat="39.28908943400438" lon="-6.317450131561386"><ele>2081</ele><speed>11.12</speed><time>2016-06-01T16:08:10Z</time><pdop>8.0</pdop><geoidheight>50.60</geoidheight><course>108.75006</course><type>1</type></trkpt>
      <trkpt lat="39.28904208202252" lon="-6.317208075633958"><ele>2080</ele><speed>10.99</speed><time>2016-06-01T16:08:12Z</time><pdop>8.0</pdop><geoidheight>50.60</geoidheight><course>102.687775</course><type>1</type></trkpt>
      <trkpt lat="39.28901786978031" lon="-6.316955469784436"><ele>2079</ele><speed>10.63</speed><time>2016-06-01T16:08:14Z</time><pdop>8.0</pdop><geoidheight>50.60</geoidheight><course>96.7612</course><type>1</type></trkpt>
      <trkpt lat="39.2890139777913" lon="-6.316707978461483"><ele>2077</ele><speed>11.15</speed><time>2016-06-01T16:08:16Z</time><pdop>8.0</pdop><geoidheight>50.60</geoidheight><course>91.45597</course><type>1</type></trkpt>
      <trkpt lat="39.289031298973136" lon="-6.316444289335076"><ele>2075</ele><speed>11.88</speed><time>2016-06-01T16:08:18Z</time><pdop>6.0</pdop><geoidheight>50.60</geoidheight><course>86.49398</course><type>1</type></trkpt>
      <trkpt lat="39.28905144658757" lon="-6.3160714904773805"><ele>2073</ele><speed>10.31</speed><time>2016-06-01T16:08:21Z</time><pdop>8.0</pdop><geoidheight>50.60</geoidheight><course>88.58955</course><type>1</type></trkpt>
      <trkpt lat="39.28906063880745" lon="-6.315804389538196"><ele>2072</ele><speed>12.34</speed><time>2016-06-01T16:08:23Z</time><pdop>8.0</pdop><geoidheight>50.60</geoidheight><course>89.18909</course><type>1</type></trkpt>
      <trkpt lat="39.28906566707426" lon="-6.315557510231856"><ele>2071</ele><speed>11.17</speed><time>2016-06-01T16:08:26Z</time><pdop>8.0</pdop><geoidheight>50.60</geoidheight><course>92.330635</course><type>1</type></trkpt>
      <trkpt lat="39.28904707511942" lon="-6.31534712841073"><ele>2069</ele><speed>9.20</speed><time>2016-06-01T16:08:27Z</time><pdop>8.0</pdop><geoidheight>50.60</geoidheight><course>99.63245</course><type>1</type></trkpt>
      <trkpt lat="39.28900644416339" lon="-6.315131328270237"><ele>2070</ele><speed>9.07</speed><time>2016-06-01T16:08:29Z</time><pdop>6.0</pdop><geoidheight>50.60</geoidheight><course>103.25996</course><type>1</type></trkpt>
      <trkpt lat="39.28896235991035" lon="-6.3149010297686985"><ele>2072</ele><speed>9.72</speed><time>2016-06-01T16:08:31Z</time><pdop>6.0</pdop><geoidheight>50.60</geoidheight><course>103.51426</course><type>1</type></trkpt>
      <trkpt lat="39.28888710116626" lon="-6.314688824814388"><ele>2073</ele><speed>10.29</speed><time>2016-06-01T16:08:33Z</time><pdop>8.0</pdop><geoidheight>50.60</geoidheight><course>122.92301</course><type>1</type></trkpt>
      <trkpt lat="39.28872916365419" lon="-6.31456095054942"><ele>2075</ele><speed>11.86</speed><time>2016-06-01T16:08:35Z</time><pdop>8.0</pdop><geoidheight>50.60</geoidheight><course>160.87984</course><type>1</type></trkpt>
      <trkpt lat="39.28854089726149" lon="-6.31463714349515"><ele>2075</ele><speed>11.96</speed><time>2016-06-01T16:08:38Z</time><pdop>8.0</pdop><geoidheight>50.60</geoidheight><course>212.70894</course><type>1</type></trkpt>
      <trkpt lat="39.288440849433115" lon="-6.314858574998952"><ele>2077</ele><speed>7.14</speed><time>2016-06-01T16:08:40Z</time><pdop>12.0</pdop><geoidheight>50.60</geoidheight><course>279.6376</course><type>1</type></trkpt>
      <trkpt lat="39.288610902334014" lon="-6.314942478822943"><ele>2083</ele><speed>9.15</speed><time>2016-06-01T16:08:44Z</time><pdop>8.0</pdop><geoidheight>50.60</geoidheight><course>9.030513</course><type>1</type></trkpt>
      <trkpt lat="39.28875008911457" lon="-6.314802548642556"><ele>2087</ele><speed>10.38</speed><time>2016-06-01T16:08:46Z</time><pdop>8.0</pdop><geoidheight>50.60</geoidheight><course>48.079536</course><type>1</type></trkpt>
      <trkpt lat="39.28879682849686" lon="-6.31453937480484"><ele>2091</ele><speed>10.87</speed><time>2016-06-01T16:08:49Z</time><pdop>8.0</pdop><geoidheight>50.60</geoidheight><course>91.56787</course><type>1</type></trkpt>
      <trkpt lat="39.288800097818616" lon="-6.3143112578192415"><ele>2093</ele><speed>10.07</speed><time>2016-06-01T16:08:50Z</time><pdop>8.0</pdop><geoidheight>50.60</geoidheight><course>93.36604</course><type>1</type></trkpt>
      <trkpt lat="39.288764856434874" lon="-6.314082753239378"><ele>2095</ele><speed>9.96</speed><time>2016-06-01T16:08:52Z</time><pdop>8.0</pdop><geoidheight>50.60</geoidheight><course>109.42179</course><type>1</type></trkpt>
      <trkpt lat="39.288612021047946" lon="-6.31389219145127"><ele>2096</ele><speed>12.15</speed><time>2016-06-01T16:08:54Z</time><pdop>8.0</pdop><geoidheight>50.60</geoidheight><course>147.45715</course><type>1</type></trkpt>
      <trkpt lat="39.28839004364532" lon="-6.313910219856438"><ele>2097</ele><speed>12.76</speed><time>2016-06-01T16:08:56Z</time><pdop>8.0</pdop><geoidheight>50.60</geoidheight><course>192.4378</course><type>1</type></trkpt>
      <trkpt lat="39.288263273419574" lon="-6.314045532325618"><ele>2100</ele><speed>8.60</speed><time>2016-06-01T16:08:58Z</time><pdop>6.0</pdop><geoidheight>50.60</geoidheight><course>232.82695</course><type>1</type></trkpt>
      <trkpt lat="39.28821890962231" lon="-6.314198166088194"><ele>2104</ele><speed>7.10</speed><time>2016-06-01T16:09:00Z</time><pdop>8.0</pdop><geoidheight>50.60</geoidheight><course>268.86588</course><type>1</type></trkpt>
      <trkpt lat="39.288294030499635" lon="-6.314388188457816"><ele>2108</ele><speed>7.29</speed><time>2016-06-01T16:09:03Z</time><pdop>8.0</pdop><geoidheight>50.60</geoidheight><course>316.588</course><type>1</type></trkpt>
      <trkpt lat="39.288438277688876" lon="-6.314422102805129"><ele>2110</ele><speed>9.92</speed><time>2016-06-01T16:09:05Z</time><pdop>6.0</pdop><geoidheight>50.60</geoidheight><course>9.198051</course><type>1</type></trkpt>
      <trkpt lat="39.288593851103705" lon="-6.314336097427229"><ele>2111</ele><speed>8.39</speed><time>2016-06-01T16:09:07Z</time><pdop>6.0</pdop><geoidheight>50.60</geoidheight><course>36.336</course><type>1</type></trkpt>
      <trkpt lat="39.28871559425628" lon="-6.314194932052092"><ele>2112</ele><speed>9.57</speed><time>2016-06-01T16:09:09Z</time><pdop>6.0</pdop><geoidheight>50.60</geoidheight><course>54.107346</course><type>1</type></trkpt>
      <trkpt lat="39.28878445472997" lon="-6.313982950717398"><ele>2114</ele><speed>11.16</speed><time>2016-06-01T16:09:11Z</time><pdop>6.0</pdop><geoidheight>50.60</geoidheight><course>80.86528</course><type>1</type></trkpt>
      <trkpt lat="39.288768073252854" lon="-6.3137439622815545"><ele>2115</ele><speed>9.92</speed><time>2016-06-01T16:09:13Z</time><pdop>8.0</pdop><geoidheight>50.60</geoidheight><course>112.854355</course><type>1</type></trkpt>
      <trkpt lat="39.288704271381754" lon="-6.313557283342792"><ele>2116</ele><speed>11.24</speed><time>2016-06-01T16:09:15Z</time><pdop>6.0</pdop><geoidheight>50.60</geoidheight><course>116.306526</course><type>1</type></trkpt>
      <trkpt lat="39.28861118970769" lon="-6.31330342735075"><ele>2115</ele><speed>13.00</speed><time>2016-06-01T16:09:17Z</time><pdop>8.0</pdop><geoidheight>50.60</geoidheight><course>112.97771</course><type>1</type></trkpt>
      <trkpt lat="39.28851502829814" lon="-6.313056165856908"><ele>2114</ele><speed>10.55</speed><time>2016-06-01T16:09:19Z</time><pdop>8.0</pdop><geoidheight>50.60</geoidheight><course>117.4462</course><type>1</type></trkpt>
      <trkpt lat="39.28841042770037" lon="-6.312847295451703"><ele>2113</ele><speed>10.58</speed><time>2016-06-01T16:09:21Z</time><pdop>6.0</pdop><geoidheight>50.60</geoidheight><course>119.19129</course><type>1</type></trkpt>
      <trkpt lat="39.28834429075302" lon="-6.3126047285601885"><ele>2113</ele><speed>11.64</speed><time>2016-06-01T16:09:23Z</time><pdop>6.0</pdop><geoidheight>50.60</geoidheight><course>106.74903</course><type>1</type></trkpt>
      <trkpt lat="39.28826633996227" lon="-6.312356733849465"><ele>2111</ele><speed>12.82</speed><time>2016-06-01T16:09:25Z</time><pdop>8.0</pdop><geoidheight>50.60</geoidheight><course>110.73453</course><type>1</type></trkpt>
      <trkpt lat="39.288181636299115" lon="-6.312097915243326"><ele>2109</ele><speed>12.54</speed><time>2016-06-01T16:09:27Z</time><pdop>8.0</pdop><geoidheight>50.60</geoidheight><course>111.05715</course><type>1</type></trkpt>
      <trkpt lat="39.28810506428471" lon="-6.311840178263182"><ele>2108</ele><speed>11.77</speed><time>2016-06-01T16:09:29Z</time><pdop>6.0</pdop><geoidheight>50.60</geoidheight><course>108.73281</course><type>1</type></trkpt>
      <trkpt lat="39.28803467145177" lon="-6.3115643625042726"><ele>2107</ele><speed>13.25</speed><time>2016-06-01T16:09:31Z</time><pdop>8.0</pdop><geoidheight>50.60</geoidheight><course>109.4595</course><type>1</type></trkpt>
      <trkpt lat="39.28794964464543" lon="-6.311276100736302"><ele>2107</ele><speed>12.37</speed><time>2016-06-01T16:09:33Z</time><pdop>8.0</pdop><geoidheight>50.60</geoidheight><course>111.338425</course><type>1</type></trkpt>
      <trkpt lat="39.28787117625048" lon="-6.311053520346022"><ele>2105</ele><speed>11.09</speed><time>2016-06-01T16:09:35Z</time><pdop>6.0</pdop><geoidheight>50.60</geoidheight><course>112.014534</course><type>1</type></trkpt>
      <trkpt lat="39.28779777647216" lon="-6.310825852055928"><ele>2103</ele><speed>12.48</speed><time>2016-06-01T16:09:37Z</time><pdop>6.0</pdop><geoidheight>50.60</geoidheight><course>110.72595</course><type>1</type></trkpt>
      <trkpt lat="39.28771246206082" lon="-6.310563197763893"><ele>2100</ele><speed>12.35</speed><time>2016-06-01T16:09:39Z</time><pdop>8.0</pdop><geoidheight>50.60</geoidheight><course>110.50387</course><type>1</type></trkpt>
      <trkpt lat="39.28762003262222" lon="-6.310318127094092"><ele>2098</ele><speed>11.65</speed><time>2016-06-01T16:09:41Z</time><pdop>6.0</pdop><geoidheight>50.60</geoidheight><course>113.63696</course><type>1</type></trkpt>
      <trkpt lat="39.287516688555414" lon="-6.310069568886424"><ele>2095</ele><speed>12.91</speed><time>2016-06-01T16:09:43Z</time><pdop>6.0</pdop><geoidheight>50.60</geoidheight><course>113.68769</course><type>1</type></trkpt>
      <trkpt lat="39.287467552701955" lon="-6.30993905362589"><ele>2094</ele><speed>12.85</speed><time>2016-06-01T16:09:44Z</time><pdop>6.0</pdop><geoidheight>50.60</geoidheight><course>112.48147</course><type>1</type></trkpt>
      <trkpt lat="39.28742077498024" lon="-6.309807322725363"><ele>2093</ele><speed>11.92</speed><time>2016-06-01T16:09:45Z</time><pdop>6.0</pdop><geoidheight>50.60</geoidheight><course>113.39946</course><type>1</type></trkpt>
      <trkpt lat="39.28732788550326" lon="-6.30957604507389"><ele>2092</ele><speed>11.14</speed><time>2016-06-01T16:09:47Z</time><pdop>6.0</pdop><geoidheight>50.60</geoidheight><course>115.25139</course><type>1</type></trkpt>
      <trkpt lat="39.287246015738646" lon="-6.309343811199476"><ele>2090</ele><speed>11.85</speed><time>2016-06-01T16:09:49Z</time><pdop>6.0</pdop><geoidheight>50.60</geoidheight><course>110.99907</course><type>1</type></trkpt>
      <trkpt lat="39.28716277489338" lon="-6.309085369110118"><ele>2087</ele><speed>13.02</speed><time>2016-06-01T16:09:51Z</time><pdop>6.0</pdop><geoidheight>50.60</geoidheight><course>112.42356</course><type>1</type></trkpt>
      <trkpt lat="39.287066764574035" lon="-6.3088483137968945"><ele>2084</ele><speed>12.04</speed><time>2016-06-01T16:09:53Z</time><pdop>6.0</pdop><geoidheight>50.60</geoidheight><course>115.77389</course><type>1</type></trkpt>
      <trkpt lat="39.286974161410974" lon="-6.30860876396594"><ele>2081</ele><speed>12.67</speed><time>2016-06-01T16:09:55Z</time><pdop>6.0</pdop><geoidheight>50.60</geoidheight><course>113.21277</course><type>1</type></trkpt>
      <trkpt lat="39.2869293869294" lon="-6.308481832780152"><ele>2079</ele><speed>12.67</speed><time>2016-06-01T16:09:56Z</time><pdop>6.0</pdop><geoidheight>50.60</geoidheight><course>112.58444</course><type>1</type></trkpt>
      <trkpt lat="39.28688258240068" lon="-6.308351460350863"><ele>2078</ele><speed>13.17</speed><time>2016-06-01T16:09:57Z</time><pdop>6.0</pdop><geoidheight>50.60</geoidheight><course>113.93572</course><type>1</type></trkpt>
      <trkpt lat="39.28683239606949" lon="-6.308225677439721"><ele>2076</ele><speed>12.53</speed><time>2016-06-01T16:09:58Z</time><pdop>6.0</pdop><geoidheight>50.60</geoidheight><course>114.518295</course><type>1</type></trkpt>
      <trkpt lat="39.28677830849845" lon="-6.308104295344473"><ele>2075</ele><speed>12.32</speed><time>2016-06-01T16:09:59Z</time><pdop>6.0</pdop><geoidheight>50.60</geoidheight><course>116.59158</course><type>1</type></trkpt>
      <trkpt lat="39.28666833589256" lon="-6.307878250679853"><ele>2071</ele><speed>12.15</speed><time>2016-06-01T16:10:01Z</time><pdop>6.0</pdop><geoidheight>50.60</geoidheight><course>118.68181</course><type>1</type></trkpt>
      <trkpt lat="39.28657039174083" lon="-6.307651973152535"><ele>2067</ele><speed>12.77</speed><time>2016-06-01T16:10:03Z</time><pdop>6.0</pdop><geoidheight>50.60</geoidheight><course>115.65854</course><type>1</type></trkpt>
      <trkpt lat="39.286527508714386" lon="-6.307520519314751"><ele>2065</ele><speed>12.81</speed><time>2016-06-01T16:10:04Z</time><pdop>6.0</pdop><geoidheight>50.60</geoidheight><course>112.37815</course><type>1</type></trkpt>
      <trkpt lat="39.28648503101848" lon="-6.307371973656871"><ele>2064</ele><speed>13.62</speed><time>2016-06-01T16:10:05Z</time><pdop>6.0</pdop><geoidheight>50.60</geoidheight><course>110.169136</course><type>1</type></trkpt>
      <trkpt lat="39.286437953209784" lon="-6.307213052585474"><ele>2062</ele><speed>14.03</speed><time>2016-06-01T16:10:06Z</time><pdop>8.0</pdop><geoidheight>50.60</geoidheight><course>109.5306</course><type>1</type></trkpt>
      <trkpt lat="39.28633890282319" lon="-6.306907341847027"><ele>2059</ele><speed>13.97</speed><time>2016-06-01T16:10:08Z</time><pdop>8.0</pdop><geoidheight>50.60</geoidheight><course>111.87035</course><type>1</type></trkpt>
      <trkpt lat="39.28624281116562" lon="-6.306632448961221"><ele>2055</ele><speed>13.72</speed><time>2016-06-01T16:10:10Z</time><pdop>6.0</pdop><geoidheight>50.60</geoidheight><course>111.6864</course><type>1</type></trkpt>
      <trkpt lat="39.2862065165113" lon="-6.3065007641805675"><ele>2053</ele><speed>13.90</speed><time>2016-06-01T16:10:11Z</time><pdop>6.0</pdop><geoidheight>50.60</geoidheight><course>110.64634</course><type>1</type></trkpt>
      <trkpt lat="39.28616350873333" lon="-6.3063568517226924"><ele>2051</ele><speed>14.91</speed><time>2016-06-01T16:10:12Z</time><pdop>6.0</pdop><geoidheight>50.60</geoidheight><course>111.743454</course><type>1</type></trkpt>
      <trkpt lat="39.286112296845005" lon="-6.306203145352986"><ele>2049</ele><speed>15.13</speed><time>2016-06-01T16:10:13Z</time><pdop>6.0</pdop><geoidheight>50.60</geoidheight><course>113.532</course><type>1</type></trkpt>
      <trkpt lat="39.28605692834132" lon="-6.306054253778846"><ele>2047</ele><speed>14.76</speed><time>2016-06-01T16:10:14Z</time><pdop>6.0</pdop><geoidheight>50.60</geoidheight><course>114.865685</course><type>1</type></trkpt>
      <trkpt lat="39.285999052088016" lon="-6.3059084162777035"><ele>2045</ele><speed>14.94</speed><time>2016-06-01T16:10:15Z</time><pdop>6.0</pdop><geoidheight>50.60</geoidheight><course>115.110535</course><type>1</type></trkpt>
      <trkpt lat="39.285943197060476" lon="-6.3057717176808685"><ele>2042</ele><speed>14.76</speed><time>2016-06-01T16:10:16Z</time><pdop>6.0</pdop><geoidheight>50.60</geoidheight><course>114.743614</course><type>1</type></trkpt>
      <trkpt lat="39.28587898712243" lon="-6.305619564390022"><ele>2040</ele><speed>14.97</speed><time>2016-06-01T16:10:17Z</time><pdop>6.0</pdop><geoidheight>50.60</geoidheight><course>115.564026</course><type>1</type></trkpt>
      <trkpt lat="39.28581558783434" lon="-6.305468436129878"><ele>2038</ele><speed>15.13</speed><time>2016-06-01T16:10:18Z</time><pdop>6.0</pdop><geoidheight>50.60</geoidheight><course>116.92683</course><type>1</type></trkpt>
      <trkpt lat="39.285749269163915" lon="-6.3053186039235944"><ele>2036</ele><speed>15.21</speed><time>2016-06-01T16:10:19Z</time><pdop>6.0</pdop><geoidheight>50.60</geoidheight><course>117.49031</course><type>1</type></trkpt>
      <trkpt lat="39.285686107480366" lon="-6.3051878969110255"><ele>2034</ele><speed>15.15</speed><time>2016-06-01T16:10:20Z</time><pdop>6.0</pdop><geoidheight>50.60</geoidheight><course>116.87254</course><type>1</type></trkpt>
      <trkpt lat="39.28562889507386" lon="-6.305063427200851"><ele>2031</ele><speed>14.92</speed><time>2016-06-01T16:10:21Z</time><pdop>6.0</pdop><geoidheight>50.60</geoidheight><course>115.81507</course><type>1</type></trkpt>
      <trkpt lat="39.28556645837205" lon="-6.304928151195528"><ele>2029</ele><speed>14.93</speed><time>2016-06-01T16:10:22Z</time><pdop>6.0</pdop><geoidheight>50.60</geoidheight><course>115.13128</course><type>1</type></trkpt>
      <trkpt lat="39.28550638773831" lon="-6.304782261834162"><ele>2026</ele><speed>15.36</speed><time>2016-06-01T16:10:23Z</time><pdop>6.0</pdop><geoidheight>50.60</geoidheight><course>115.609116</course><type>1</type></trkpt>
      <trkpt lat="39.28544250042354" lon="-6.30462801071132"><ele>2024</ele><speed>15.70</speed><time>2016-06-01T16:10:24Z</time><pdop>6.0</pdop><geoidheight>50.60</geoidheight><course>116.07983</course><type>1</type></trkpt>
      <trkpt lat="39.285377650135295" lon="-6.3044755941843045"><ele>2022</ele><speed>15.56</speed><time>2016-06-01T16:10:25Z</time><pdop>6.0</pdop><geoidheight>50.60</geoidheight><course>115.69059</course><type>1</type></trkpt>
      <trkpt lat="39.28531202544343" lon="-6.304325971521895"><ele>2019</ele><speed>15.42</speed><time>2016-06-01T16:10:26Z</time><pdop>6.0</pdop><geoidheight>50.60</geoidheight><course>115.17069</course><type>1</type></trkpt>
      <trkpt lat="39.28525070742467" lon="-6.304183811284579"><ele>2017</ele><speed>15.19</speed><time>2016-06-01T16:10:27Z</time><pdop>6.0</pdop><geoidheight>50.60</geoidheight><course>115.99115</course><type>1</type></trkpt>
      <trkpt lat="39.28518431230694" lon="-6.304033258611307"><ele>2015</ele><speed>15.26</speed><time>2016-06-01T16:10:29Z</time><pdop>6.0</pdop><geoidheight>50.60</geoidheight><course>116.521576</course><type>1</type></trkpt>
      <trkpt lat="39.285117998848406" lon="-6.303886182809346"><ele>2013</ele><speed>15.29</speed><time>2016-06-01T16:10:29Z</time><pdop>6.0</pdop><geoidheight>50.60</geoidheight><course>116.37523</course><type>1</type></trkpt>
      <trkpt lat="39.285054446299746" lon="-6.303748041622714"><ele>2011</ele><speed>14.78</speed><time>2016-06-01T16:10:30Z</time><pdop>6.0</pdop><geoidheight>50.60</geoidheight><course>116.095856</course><type>1</type></trkpt>
      <trkpt lat="39.2849923177006" lon="-6.3036109966432"><ele>2010</ele><speed>13.90</speed><time>2016-06-01T16:10:31Z</time><pdop>6.0</pdop><geoidheight>50.60</geoidheight><course>115.44656</course><type>1</type></trkpt>
      <trkpt lat="39.28487741022836" lon="-6.30331861933379"><ele>2008</ele><speed>13.56</speed><time>2016-06-01T16:10:33Z</time><pdop>8.0</pdop><geoidheight>50.60</geoidheight><course>114.5258</course><type>1</type></trkpt>
      <trkpt lat="39.28475279118579" lon="-6.303011978032162"><ele>2005</ele><speed>15.88</speed><time>2016-06-01T16:10:36Z</time><pdop>8.0</pdop><geoidheight>50.60</geoidheight><course>114.94117</course><type>1</type></trkpt>
      <trkpt lat="39.2846397221663" lon="-6.30270004489597"><ele>2002</ele><speed>15.88</speed><time>2016-06-01T16:10:37Z</time><pdop>8.0</pdop><geoidheight>50.60</geoidheight><course>111.38763</course><type>1</type></trkpt>
      <trkpt lat="39.28455820970197" lon="-6.302387883958876"><ele>2000</ele><speed>12.53</speed><time>2016-06-01T16:10:39Z</time><pdop>8.0</pdop><geoidheight>50.60</geoidheight><course>106.882256</course><type>1</type></trkpt>
      <trkpt lat="39.284493617817915" lon="-6.302077064531376"><ele>1998</ele><speed>14.17</speed><time>2016-06-01T16:10:41Z</time><pdop>8.0</pdop><geoidheight>50.60</geoidheight><course>103.95932</course><type>1</type></trkpt>
      <trkpt lat="39.284431711437094" lon="-6.3017489377078215"><ele>1995</ele><speed>16.04</speed><time>2016-06-01T16:10:43Z</time><pdop>12.0</pdop><geoidheight>50.60</geoidheight><course>103.6951</course><type>1</type></trkpt>
      <trkpt lat="39.28436524455483" lon="-6.301454756594153"><ele>1991</ele><speed>14.99</speed><time>2016-06-01T16:10:45Z</time><pdop>8.0</pdop><geoidheight>50.60</geoidheight><course>106.84764</course><type>1</type></trkpt>
      <trkpt lat="39.28427529394901" lon="-6.301182733837081"><ele>1986</ele><speed>14.47</speed><time>2016-06-01T16:10:47Z</time><pdop>8.0</pdop><geoidheight>50.60</geoidheight><course>108.74684</course><type>1</type></trkpt>
      <trkpt lat="39.28418070439771" lon="-6.300909081917006"><ele>1980</ele><speed>14.95</speed><time>2016-06-01T16:10:49Z</time><pdop>6.0</pdop><geoidheight>50.60</geoidheight><course>108.33346</course><type>1</type></trkpt>
      <trkpt lat="39.28413153445364" lon="-6.3007641930252145"><ele>1976</ele><speed>15.67</speed><time>2016-06-01T16:10:50Z</time><pdop>6.0</pdop><geoidheight>50.60</geoidheight><course>108.90021</course><type>1</type></trkpt>
      <trkpt lat="39.28407723754385" lon="-6.300613992346138"><ele>1973</ele><speed>15.67</speed><time>2016-06-01T16:10:51Z</time><pdop>6.0</pdop><geoidheight>50.60</geoidheight><course>109.43138</course><type>1</type></trkpt>
      <trkpt lat="39.28402438748201" lon="-6.300467151708078"><ele>1969</ele><speed>15.14</speed><time>2016-06-01T16:10:52Z</time><pdop>6.0</pdop><geoidheight>50.60</geoidheight><course>109.106575</course><type>1</type></trkpt>
      <trkpt lat="39.2839699206291" lon="-6.300316571029362"><ele>1966</ele><speed>15.52</speed><time>2016-06-01T16:10:53Z</time><pdop>6.0</pdop><geoidheight>50.60</geoidheight><course>109.709465</course><type>1</type></trkpt>
      <trkpt lat="39.28391142437835" lon="-6.300162761416638"><ele>1963</ele><speed>16.09</speed><time>2016-06-01T16:10:54Z</time><pdop>6.0</pdop><geoidheight>50.60</geoidheight><course>110.816826</course><type>1</type></trkpt>
      <trkpt lat="39.28385306450203" lon="-6.300010196303236"><ele>1959</ele><speed>15.81</speed><time>2016-06-01T16:10:55Z</time><pdop>6.0</pdop><geoidheight>50.60</geoidheight><course>111.28593</course><type>1</type></trkpt>
      <trkpt lat="39.28379516670724" lon="-6.299859752642417"><ele>1956</ele><speed>15.27</speed><time>2016-06-01T16:10:56Z</time><pdop>6.0</pdop><geoidheight>50.60</geoidheight><course>110.70786</course><type>1</type></trkpt>
      <trkpt lat="39.28373998724308" lon="-6.299706921817079"><ele>1953</ele><speed>15.29</speed><time>2016-06-01T16:10:57Z</time><pdop>6.0</pdop><geoidheight>50.60</geoidheight><course>109.875916</course><type>1</type></trkpt>
      <trkpt lat="39.28368623285288" lon="-6.29954547867374"><ele>1949</ele><speed>16.08</speed><time>2016-06-01T16:10:58Z</time><pdop>6.0</pdop><geoidheight>50.60</geoidheight><course>109.58811</course><type>1</type></trkpt>
      <trkpt lat="39.283634057249" lon="-6.299385273092982"><ele>1946</ele><speed>16.23</speed><time>2016-06-01T16:10:59Z</time><pdop>6.0</pdop><geoidheight>50.60</geoidheight><course>110.008934</course><type>1</type></trkpt>
      <trkpt lat="39.28358397851973" lon="-6.299231337769096"><ele>1944</ele><speed>15.12</speed><time>2016-06-01T16:11:00Z</time><pdop>6.0</pdop><geoidheight>50.60</geoidheight><course>109.399734</course><type>1</type></trkpt>
      <trkpt lat="39.2835331191452" lon="-6.299074891357286"><ele>1941</ele><speed>14.81</speed><time>2016-06-01T16:11:01Z</time><pdop>6.0</pdop><geoidheight>50.60</geoidheight><course>109.878426</course><type>1</type></trkpt>
      <trkpt lat="39.28348535000555" lon="-6.298930757601917"><ele>1939</ele><speed>14.90</speed><time>2016-06-01T16:11:02Z</time><pdop>6.0</pdop><geoidheight>50.60</geoidheight><course>110.67607</course><type>1</type></trkpt>
      <trkpt lat="39.2834372405571" lon="-6.298783546139961"><ele>1937</ele><speed>15.36</speed><time>2016-06-01T16:11:03Z</time><pdop>6.0</pdop><geoidheight>50.60</geoidheight><course>111.26264</course><type>1</type></trkpt>
      <trkpt lat="39.28334059333058" lon="-6.298501197178075"><ele>1932</ele><speed>14.55</speed><time>2016-06-01T16:11:05Z</time><pdop>8.0</pdop><geoidheight>50.60</geoidheight><course>111.80217</course><type>1</type></trkpt>
      <trkpt lat="39.283235880041744" lon="-6.298211447487319"><ele>1928</ele><speed>14.18</speed><time>2016-06-01T16:11:07Z</time><pdop>8.0</pdop><geoidheight>50.60</geoidheight><course>113.28608</course><type>1</type></trkpt>
      <trkpt lat="39.28312675623904" lon="-6.2979271228810765"><ele>1924</ele><speed>14.57</speed><time>2016-06-01T16:11:09Z</time><pdop>6.0</pdop><geoidheight>50.60</geoidheight><course>112.85256</course><type>1</type></trkpt>
      <trkpt lat="39.28306843567843" lon="-6.297780000336882"><ele>1921</ele><speed>15.09</speed><time>2016-06-01T16:11:10Z</time><pdop>6.0</pdop><geoidheight>50.60</geoidheight><course>113.600815</course><type>1</type></trkpt>
      <trkpt lat="39.28300909666755" lon="-6.2976351380176405"><ele>1919</ele><speed>14.88</speed><time>2016-06-01T16:11:11Z</time><pdop>6.0</pdop><geoidheight>50.60</geoidheight><course>114.068886</course><type>1</type></trkpt>
      <trkpt lat="39.2829494184083" lon="-6.297491016321697"><ele>1917</ele><speed>14.50</speed><time>2016-06-01T16:11:12Z</time><pdop>6.0</pdop><geoidheight>50.60</geoidheight><course>114.2215</course><type>1</type></trkpt>
      <trkpt lat="39.2828867530472" lon="-6.297346449691848"><ele>1915</ele><speed>14.52</speed><time>2016-06-01T16:11:13Z</time><pdop>6.0</pdop><geoidheight>50.60</geoidheight><course>114.87217</course><type>1</type></trkpt>
      <trkpt lat="39.28276156719573" lon="-6.297065483218009"><ele>1911</ele><speed>13.82</speed><time>2016-06-01T16:11:15Z</time><pdop>8.0</pdop><geoidheight>50.60</geoidheight><course>116.70246</course><type>1</type></trkpt>
      <trkpt lat="39.28263291445597" lon="-6.2967861475567215"><ele>1908</ele><speed>13.53</speed><time>2016-06-01T16:11:17Z</time><pdop>8.0</pdop><geoidheight>50.60</geoidheight><course>116.14278</course><type>1</type></trkpt>
      <trkpt lat="39.282500815218185" lon="-6.296508851283764"><ele>1905</ele><speed>14.66</speed><time>2016-06-01T16:11:19Z</time><pdop>6.0</pdop><geoidheight>50.60</geoidheight><course>117.53552</course><type>1</type></trkpt>
      <trkpt lat="39.28243049604767" lon="-6.296369811292463"><ele>1903</ele><speed>14.81</speed><time>2016-06-01T16:11:20Z</time><pdop>6.0</pdop><geoidheight>50.60</geoidheight><course>117.88577</course><type>1</type></trkpt>
      <trkpt lat="39.28236014071334" lon="-6.2962326886170885"><ele>1902</ele><speed>14.60</speed><time>2016-06-01T16:11:21Z</time><pdop>6.0</pdop><geoidheight>50.60</geoidheight><course>118.017075</course><type>1</type></trkpt>
      <trkpt lat="39.282286111811686" lon="-6.296100450696966"><ele>1900</ele><speed>14.37</speed><time>2016-06-01T16:11:22Z</time><pdop>6.0</pdop><geoidheight>50.60</geoidheight><course>120.16428</course><type>1</type></trkpt>
      <trkpt lat="39.28220836554688" lon="-6.295970194326534"><ele>1897</ele><speed>14.51</speed><time>2016-06-01T16:11:23Z</time><pdop>6.0</pdop><geoidheight>50.60</geoidheight><course>122.12996</course><type>1</type></trkpt>
      <trkpt lat="39.28212914715208" lon="-6.295835946027221"><ele>1895</ele><speed>14.99</speed><time>2016-06-01T16:11:24Z</time><pdop>6.0</pdop><geoidheight>50.60</geoidheight><course>122.855896</course><type>1</type></trkpt>
      <trkpt lat="39.28205084641192" lon="-6.2957016058480555"><ele>1892</ele><speed>14.76</speed><time>2016-06-01T16:11:25Z</time><pdop>6.0</pdop><geoidheight>50.60</geoidheight><course>121.85456</course><type>1</type></trkpt>
      <trkpt lat="39.28197595670246" lon="-6.295567283455852"><ele>1890</ele><speed>14.61</speed><time>2016-06-01T16:11:26Z</time><pdop>6.0</pdop><geoidheight>50.60</geoidheight><course>121.128075</course><type>1</type></trkpt>
      <trkpt lat="39.28182577508506" lon="-6.295301329777348"><ele>1884</ele><speed>15.27</speed><time>2016-06-01T16:11:28Z</time><pdop>8.0</pdop><geoidheight>50.60</geoidheight><course>120.6313</course><type>1</type></trkpt>
      <trkpt lat="39.28167658727916" lon="-6.2950437323710355"><ele>1878</ele><speed>15.35</speed><time>2016-06-01T16:11:30Z</time><pdop>8.0</pdop><geoidheight>50.60</geoidheight><course>121.98107</course><type>1</type></trkpt>
      <trkpt lat="39.281528258232754" lon="-6.294802851287143"><ele>1871</ele><speed>13.05</speed><time>2016-06-01T16:11:32Z</time><pdop>8.0</pdop><geoidheight>50.60</geoidheight><course>122.1033</course><type>1</type></trkpt>
      <trkpt lat="39.281396257452734" lon="-6.294573055240773"><ele>1864</ele><speed>14.40</speed><time>2016-06-01T16:11:34Z</time><pdop>8.0</pdop><geoidheight>50.60</geoidheight><course>120.743805</course><type>1</type></trkpt>
      <trkpt lat="39.28126133249091" lon="-6.294309543756752"><ele>1857</ele><speed>15.28</speed><time>2016-06-01T16:11:36Z</time><pdop>8.0</pdop><geoidheight>50.60</geoidheight><course>118.93496</course><type>1</type></trkpt>
      <trkpt lat="39.281127718919976" lon="-6.29405312548067"><ele>1850</ele><speed>14.36</speed><time>2016-06-01T16:11:38Z</time><pdop>8.0</pdop><geoidheight>50.60</geoidheight><course>119.03965</course><type>1</type></trkpt>
      <trkpt lat="39.2810027828325" lon="-6.29380155645291"><ele>1844</ele><speed>13.99</speed><time>2016-06-01T16:11:40Z</time><pdop>6.0</pdop><geoidheight>50.60</geoidheight><course>117.47349</course><type>1</type></trkpt>
      <trkpt lat="39.280876916759304" lon="-6.293544013230442"><ele>1837</ele><speed>14.34</speed><time>2016-06-01T16:11:42Z</time><pdop>6.0</pdop><geoidheight>50.60</geoidheight><course>117.17418</course><type>1</type></trkpt>
      <trkpt lat="39.280814664828185" lon="-6.293418493446584"><ele>1834</ele><speed>14.10</speed><time>2016-06-01T16:11:43Z</time><pdop>6.0</pdop><geoidheight>50.60</geoidheight><course>117.41151</course><type>1</type></trkpt>
      <trkpt lat="39.28075533054944" lon="-6.293299988658283"><ele>1831</ele><speed>13.36</speed><time>2016-06-01T16:11:44Z</time><pdop>6.0</pdop><geoidheight>50.60</geoidheight><course>117.93707</course><type>1</type></trkpt>
      <trkpt lat="39.28069651028353" lon="-6.2931805445213245"><ele>1828</ele><speed>13.05</speed><time>2016-06-01T16:11:45Z</time><pdop>6.0</pdop><geoidheight>50.60</geoidheight><course>118.41438</course><type>1</type></trkpt>
      <trkpt lat="39.28063781554043" lon="-6.293060954671072"><ele>1826</ele><speed>13.29</speed><time>2016-06-01T16:11:46Z</time><pdop>6.0</pdop><geoidheight>50.60</geoidheight><course>117.71672</course><type>1</type></trkpt>
      <trkpt lat="39.28057995749136" lon="-6.2929420114329755"><ele>1823</ele><speed>13.27</speed><time>2016-06-01T16:11:47Z</time><pdop>6.0</pdop><geoidheight>50.60</geoidheight><course>117.350876</course><type>1</type></trkpt>
      <trkpt lat="39.28052407404761" lon="-6.292807660471116"><ele>1820</ele><speed>13.56</speed><time>2016-06-01T16:11:48Z</time><pdop>6.0</pdop><geoidheight>50.60</geoidheight><course>116.85672</course><type>1</type></trkpt>
      <trkpt lat="39.28046655654838" lon="-6.292666900293735"><ele>1818</ele><speed>13.55</speed><time>2016-06-01T16:11:49Z</time><pdop>6.0</pdop><geoidheight>50.60</geoidheight><course>117.687485</course><type>1</type></trkpt>
      <trkpt lat="39.28034711463736" lon="-6.292401948593357"><ele>1814</ele><speed>13.53</speed><time>2016-06-01T16:11:51Z</time><pdop>8.0</pdop><geoidheight>50.60</geoidheight><course>117.75604</course><type>1</type></trkpt>
      <trkpt lat="39.280233935858334" lon="-6.292155396928109"><ele>1810</ele><speed>13.04</speed><time>2016-06-01T16:11:53Z</time><pdop>8.0</pdop><geoidheight>50.60</geoidheight><course>117.6822</course><type>1</type></trkpt>
      <trkpt lat="39.28011688579084" lon="-6.291926428352843"><ele>1806</ele><speed>12.97</speed><time>2016-06-01T16:11:55Z</time><pdop>6.0</pdop><geoidheight>50.60</geoidheight><course>119.314354</course><type>1</type></trkpt>
      <trkpt lat="39.28005591832522" lon="-6.291806758555004"><ele>1803</ele><speed>13.27</speed><time>2016-06-01T16:11:56Z</time><pdop>6.0</pdop><geoidheight>50.60</geoidheight><course>118.74177</course><type>1</type></trkpt>
      <trkpt lat="39.27994413737493" lon="-6.291551739035048"><ele>1799</ele><speed>12.50</speed><time>2016-06-01T16:11:58Z</time><pdop>8.0</pdop><geoidheight>50.60</geoidheight><course>114.90149</course><type>1</type></trkpt>
      <trkpt lat="39.27984761521835" lon="-6.2913072812940465"><ele>1796</ele><speed>11.27</speed><time>2016-06-01T16:12:00Z</time><pdop>8.0</pdop><geoidheight>50.60</geoidheight><course>114.829926</course><type>1</type></trkpt>
      <trkpt lat="39.27976692742049" lon="-6.291056233824947"><ele>1794</ele><speed>13.43</speed><time>2016-06-01T16:12:02Z</time><pdop>8.0</pdop><geoidheight>50.60</geoidheight><course>111.901245</course><type>1</type></trkpt>
      <trkpt lat="39.279684289494604" lon="-6.290783385462437"><ele>1791</ele><speed>13.99</speed><time>2016-06-01T16:12:04Z</time><pdop>12.0</pdop><geoidheight>50.60</geoidheight><course>111.29081</course><type>1</type></trkpt>
      <trkpt lat="39.27960120815425" lon="-6.290518637715171"><ele>1788</ele><speed>13.45</speed><time>2016-06-01T16:12:06Z</time><pdop>12.0</pdop><geoidheight>50.60</geoidheight><course>113.019936</course><type>1</type></trkpt>
      <trkpt lat="39.27950787431604" lon="-6.290243723206588"><ele>1786</ele><speed>13.06</speed><time>2016-06-01T16:12:08Z</time><pdop>8.0</pdop><geoidheight>50.60</geoidheight><course>113.03164</course><type>1</type></trkpt>
      <trkpt lat="39.27941046981048" lon="-6.289974119178049"><ele>1784</ele><speed>13.89</speed><time>2016-06-01T16:12:10Z</time><pdop>12.0</pdop><geoidheight>50.60</geoidheight><course>113.199234</course><type>1</type></trkpt>
      <trkpt lat="39.27930531759069" lon="-6.289697561384777"><ele>1780</ele><speed>13.50</speed><time>2016-06-01T16:12:12Z</time><pdop>8.0</pdop><geoidheight>50.60</geoidheight><course>112.684364</course><type>1</type></trkpt>
      <trkpt lat="39.27920998446067" lon="-6.289433651533239"><ele>1777</ele><speed>12.36</speed><time>2016-06-01T16:12:14Z</time><pdop>8.0</pdop><geoidheight>50.60</geoidheight><course>114.83487</course><type>1</type></trkpt>
      <trkpt lat="39.27911338110559" lon="-6.289175255370818"><ele>1774</ele><speed>12.97</speed><time>2016-06-01T16:12:16Z</time><pdop>12.0</pdop><geoidheight>50.60</geoidheight><course>114.7738</course><type>1</type></trkpt>
      <trkpt lat="39.27905206657521" lon="-6.288931893965398"><ele>1771</ele><speed>11.90</speed><time>2016-06-01T16:12:18Z</time><pdop>8.0</pdop><geoidheight>50.60</geoidheight><course>100.142</course><type>1</type></trkpt>
      <trkpt lat="39.27902788775683" lon="-6.288716831568306"><ele>1768</ele><speed>11.08</speed><time>2016-06-01T16:12:20Z</time><pdop>8.0</pdop><geoidheight>50.60</geoidheight><course>94.14971</course><type>1</type></trkpt>
      <trkpt lat="39.27902061792384" lon="-6.2884610269560115"><ele>1763</ele><speed>11.81</speed><time>2016-06-01T16:12:22Z</time><pdop>8.0</pdop><geoidheight>50.60</geoidheight><course>91.09126</course><type>1</type></trkpt>
      <trkpt lat="39.2790204812646" lon="-6.288203933630009"><ele>1759</ele><speed>10.92</speed><time>2016-06-01T16:12:25Z</time><pdop>8.0</pdop><geoidheight>50.60</geoidheight><course>89.39774</course><type>1</type></trkpt>
      <trkpt lat="39.279034129685414" lon="-6.287814257551505"><ele>1755</ele><speed>11.91</speed><time>2016-06-01T16:12:27Z</time><pdop>8.0</pdop><geoidheight>50.60</geoidheight><course>87.3075</course><type>1</type></trkpt>
      <trkpt lat="39.279044686072375" lon="-6.287569230577795"><ele>1751</ele><speed>11.81</speed><time>2016-06-01T16:12:29Z</time><pdop>12.0</pdop><geoidheight>50.60</geoidheight><course>84.802055</course><type>1</type></trkpt>
      <trkpt lat="39.279043626881894" lon="-6.28731010834772"><ele>1749</ele><speed>10.98</speed><time>2016-06-01T16:12:31Z</time><pdop>8.0</pdop><geoidheight>50.60</geoidheight><course>86.977104</course><type>1</type></trkpt>
      <trkpt lat="39.2790177253171" lon="-6.287037715826985"><ele>1747</ele><speed>11.43</speed><time>2016-06-01T16:12:33Z</time><pdop>8.0</pdop><geoidheight>50.60</geoidheight><course>92.71663</course><type>1</type></trkpt>
      <trkpt lat="39.2789639646035" lon="-6.286801969705298"><ele>1744</ele><speed>11.32</speed><time>2016-06-01T16:12:35Z</time><pdop>8.0</pdop><geoidheight>50.60</geoidheight><course>97.580765</course><type>1</type></trkpt>
      <trkpt lat="39.2788910464158" lon="-6.286558613336919"><ele>1741</ele><speed>10.90</speed><time>2016-06-01T16:12:37Z</time><pdop>8.0</pdop><geoidheight>50.60</geoidheight><course>104.134094</course><type>1</type></trkpt>
      <trkpt lat="39.27880503011833" lon="-6.286313268910244"><ele>1738</ele><speed>11.14</speed><time>2016-06-01T16:12:39Z</time><pdop>8.0</pdop><geoidheight>50.60</geoidheight><course>110.07587</course><type>1</type></trkpt>
      <trkpt lat="39.27871050778815" lon="-6.286066317614343"><ele>1735</ele><speed>11.82</speed><time>2016-06-01T16:12:41Z</time><pdop>8.0</pdop><geoidheight>50.60</geoidheight><course>112.82923</course><type>1</type></trkpt>
      <trkpt lat="39.278608532393875" lon="-6.285825378483127"><ele>1731</ele><speed>12.14</speed><time>2016-06-01T16:12:43Z</time><pdop>8.0</pdop><geoidheight>50.60</geoidheight><course>111.77288</course><type>1</type></trkpt>
      <trkpt lat="39.27851605381129" lon="-6.285577296192897"><ele>1727</ele><speed>12.75</speed><time>2016-06-01T16:12:45Z</time><pdop>8.0</pdop><geoidheight>50.60</geoidheight><course>109.41425</course><type>1</type></trkpt>
      <trkpt lat="39.278437162022506" lon="-6.2853078242415386"><ele>1724</ele><speed>12.47</speed><time>2016-06-01T16:12:47Z</time><pdop>8.0</pdop><geoidheight>50.60</geoidheight><course>109.74056</course><type>1</type></trkpt>
      <trkpt lat="39.27835196188979" lon="-6.285069674982022"><ele>1720</ele><speed>12.21</speed><time>2016-06-01T16:12:49Z</time><pdop>8.0</pdop><geoidheight>50.60</geoidheight><course>109.860435</course><type>1</type></trkpt>
      <trkpt lat="39.27826085811519" lon="-6.284851120123244"><ele>1715</ele><speed>11.71</speed><time>2016-06-01T16:12:51Z</time><pdop>6.0</pdop><geoidheight>50.60</geoidheight><course>108.89442</course><type>1</type></trkpt>
      <trkpt lat="39.27819005070015" lon="-6.284593482535934"><ele>1710</ele><speed>11.76</speed><time>2016-06-01T16:12:53Z</time><pdop>8.0</pdop><geoidheight>50.60</geoidheight><course>106.31189</course><type>1</type></trkpt>
      <trkpt lat="39.2781221089627" lon="-6.284351646417618"><ele>1705</ele><speed>11.83</speed><time>2016-06-01T16:12:55Z</time><pdop>8.0</pdop><geoidheight>50.60</geoidheight><course>107.02915</course><type>1</type></trkpt>
      <trkpt lat="39.27805279735485" lon="-6.284118734421255"><ele>1699</ele><speed>12.29</speed><time>2016-06-01T16:12:57Z</time><pdop>8.0</pdop><geoidheight>50.60</geoidheight><course>105.18701</course><type>1</type></trkpt>
      <trkpt lat="39.27798265393036" lon="-6.283885484252111"><ele>1694</ele><speed>12.20</speed><time>2016-06-01T16:12:59Z</time><pdop>8.0</pdop><geoidheight>50.60</geoidheight><course>105.5953</course><type>1</type></trkpt>
      <trkpt lat="39.27791523371135" lon="-6.2836628863493456"><ele>1689</ele><speed>11.20</speed><time>2016-06-01T16:13:01Z</time><pdop>8.0</pdop><geoidheight>50.60</geoidheight><course>104.33799</course><type>1</type></trkpt>
      <trkpt lat="39.277858555959874" lon="-6.283443993445582"><ele>1684</ele><speed>11.55</speed><time>2016-06-01T16:13:03Z</time><pdop>8.0</pdop><geoidheight>50.60</geoidheight><course>104.17728</course><type>1</type></trkpt>
      <trkpt lat="39.27778916779232" lon="-6.283205446756803"><ele>1679</ele><speed>12.84</speed><time>2016-06-01T16:13:05Z</time><pdop>6.0</pdop><geoidheight>50.60</geoidheight><course>106.36405</course><type>1</type></trkpt>
      <trkpt lat="39.27771548751142" lon="-6.282948589689638"><ele>1674</ele><speed>12.36</speed><time>2016-06-01T16:13:07Z</time><pdop>6.0</pdop><geoidheight>50.60</geoidheight><course>104.45044</course><type>1</type></trkpt>
      <trkpt lat="39.27767654086539" lon="-6.282817901873997"><ele>1672</ele><speed>12.44</speed><time>2016-06-01T16:13:08Z</time><pdop>6.0</pdop><geoidheight>50.60</geoidheight><course>106.53038</course><type>1</type></trkpt>
      <trkpt lat="39.277631687242646" lon="-6.282690718832264"><ele>1671</ele><speed>12.03</speed><time>2016-06-01T16:13:09Z</time><pdop>6.0</pdop><geoidheight>50.60</geoidheight><course>110.096054</course><type>1</type></trkpt>
      <trkpt lat="39.27754705977707" lon="-6.282474312663883"><ele>1669</ele><speed>8.53</speed><time>2016-06-01T16:13:11Z</time><pdop>8.0</pdop><geoidheight>50.60</geoidheight><course>116.6066</course><type>1</type></trkpt>
      <trkpt lat="39.277473379312916" lon="-6.282279848440694"><ele>1668</ele><speed>8.87</speed><time>2016-06-01T16:13:13Z</time><pdop>8.0</pdop><geoidheight>50.60</geoidheight><course>113.573944</course><type>1</type></trkpt>
      <trkpt lat="39.2773816793241" lon="-6.2820367073857835"><ele>1666</ele><speed>13.47</speed><time>2016-06-01T16:13:15Z</time><pdop>8.0</pdop><geoidheight>50.60</geoidheight><course>112.98998</course><type>1</type></trkpt>
      <trkpt lat="39.2772764823408" lon="-6.2817790779897935"><ele>1664</ele><speed>11.70</speed><time>2016-06-01T16:13:17Z</time><pdop>8.0</pdop><geoidheight>50.60</geoidheight><course>117.877014</course><type>1</type></trkpt>
      <trkpt lat="39.277157988259624" lon="-6.281575022951654"><ele>1664</ele><speed>8.63</speed><time>2016-06-01T16:13:19Z</time><pdop>6.0</pdop><geoidheight>50.60</geoidheight><course>122.33198</course><type>1</type></trkpt>
      <trkpt lat="39.277081785957584" lon="-6.28139890354547"><ele>1663</ele><speed>9.50</speed><time>2016-06-01T16:13:21Z</time><pdop>6.0</pdop><geoidheight>50.60</geoidheight><course>105.39999</course><type>1</type></trkpt>
      <trkpt lat="39.27701421392526" lon="-6.2811724658795995"><ele>1662</ele><speed>11.47</speed><time>2016-06-01T16:13:23Z</time><pdop>8.0</pdop><geoidheight>50.60</geoidheight><course>110.08684</course><type>1</type></trkpt>
      <trkpt lat="39.276863632980074" lon="-6.280980852311584"><ele>1660</ele><speed>11.51</speed><time>2016-06-01T16:13:25Z</time><pdop>8.0</pdop><geoidheight>50.60</geoidheight><course>135.76299</course><type>1</type></trkpt>
      <trkpt lat="39.276673606596454" lon="-6.280853551138971"><ele>1659</ele><speed>12.04</speed><time>2016-06-01T16:13:27Z</time><pdop>6.0</pdop><geoidheight>50.60</geoidheight><course>151.60023</course><type>1</type></trkpt>
      <trkpt lat="39.276571217142745" lon="-6.280787572924029"><ele>1659</ele><speed>11.91</speed><time>2016-06-01T16:13:28Z</time><pdop>6.0</pdop><geoidheight>50.60</geoidheight><course>152.13354</course><type>1</type></trkpt>
      <trkpt lat="39.276368469452976" lon="-6.28072590225723"><ele>1657</ele><speed>10.80</speed><time>2016-06-01T16:13:30Z</time><pdop>6.0</pdop><geoidheight>50.60</geoidheight><course>175.17368</course><type>1</type></trkpt>
      <trkpt lat="39.27625628976074" lon="-6.280719837663349"><ele>1657</ele><speed>10.55</speed><time>2016-06-01T16:13:31Z</time><pdop>6.0</pdop><geoidheight>50.60</geoidheight><course>178.12486</course><type>1</type></trkpt>
      <trkpt lat="39.276068730917345" lon="-6.280843566994443"><ele>1654</ele><speed>10.82</speed><time>2016-06-01T16:13:33Z</time><pdop>6.0</pdop><geoidheight>50.60</geoidheight><course>216.59575</course><type>1</type></trkpt>
      <trkpt lat="39.27596137515005" lon="-6.281026820703772"><ele>1651</ele><speed>9.26</speed><time>2016-06-01T16:13:35Z</time><pdop>8.0</pdop><geoidheight>50.60</geoidheight><course>235.39552</course><type>1</type></trkpt>
      <trkpt lat="39.275971331421935" lon="-6.281238543626129"><ele>1648</ele><speed>8.11</speed><time>2016-06-01T16:13:37Z</time><pdop>8.0</pdop><geoidheight>50.60</geoidheight><course>286.59695</course><type>1</type></trkpt>
      <trkpt lat="39.27616117935801" lon="-6.281310683337049"><ele>1645</ele><speed>9.05</speed><time>2016-06-01T16:13:41Z</time><pdop>8.0</pdop><geoidheight>50.60</geoidheight><course>43.00558</course><type>1</type></trkpt>
      <trkpt lat="39.27623849242105" lon="-6.281101722558423"><ele>1642</ele><speed>10.45</speed><time>2016-06-01T16:13:43Z</time><pdop>8.0</pdop><geoidheight>50.60</geoidheight><course>75.22557</course><type>1</type></trkpt>
      <trkpt lat="39.27629233350423" lon="-6.280830388559391"><ele>1639</ele><speed>9.55</speed><time>2016-06-01T16:13:45Z</time><pdop>6.0</pdop><geoidheight>50.60</geoidheight><course>78.68498</course><type>1</type></trkpt>
      <trkpt lat="39.27634702812619" lon="-6.280592106686681"><ele>1638</ele><speed>9.71</speed><time>2016-06-01T16:13:47Z</time><pdop>6.0</pdop><geoidheight>50.60</geoidheight><course>74.03184</course><type>1</type></trkpt>
      <trkpt lat="39.276391731883976" lon="-6.280366094984348"><ele>1635</ele><speed>11.72</speed><time>2016-06-01T16:13:49Z</time><pdop>6.0</pdop><geoidheight>50.60</geoidheight><course>79.615456</course><type>1</type></trkpt>
      <trkpt lat="39.27641994623555" lon="-6.280104503744913"><ele>1630</ele><speed>10.75</speed><time>2016-06-01T16:13:51Z</time><pdop>6.0</pdop><geoidheight>50.60</geoidheight><course>82.98616</course><type>1</type></trkpt>
      <trkpt lat="39.27643180308135" lon="-6.2798897719467845"><ele>1627</ele><speed>9.45</speed><time>2016-06-01T16:13:53Z</time><pdop>6.0</pdop><geoidheight>50.60</geoidheight><course>84.66689</course><type>1</type></trkpt>
      <trkpt lat="39.27643480969547" lon="-6.279675683658544"><ele>1624</ele><speed>11.20</speed><time>2016-06-01T16:13:55Z</time><pdop>6.0</pdop><geoidheight>50.60</geoidheight><course>88.01064</course><type>1</type></trkpt>
      <trkpt lat="39.276425267487944" lon="-6.279446183105984"><ele>1621</ele><speed>10.56</speed><time>2016-06-01T16:13:57Z</time><pdop>6.0</pdop><geoidheight>50.60</geoidheight><course>90.12358</course><type>1</type></trkpt>
      <trkpt lat="39.27642019705627" lon="-6.279226499107279"><ele>1617</ele><speed>10.11</speed><time>2016-06-01T16:13:59Z</time><pdop>6.0</pdop><geoidheight>50.60</geoidheight><course>88.5153</course><type>1</type></trkpt>
      <trkpt lat="39.276420963498914" lon="-6.2789764770347185"><ele>1613</ele><speed>12.69</speed><time>2016-06-01T16:14:02Z</time><pdop>6.0</pdop><geoidheight>50.60</geoidheight><course>88.326706</course><type>1</type></trkpt>
      <trkpt lat="39.27641855133943" lon="-6.27882663459319"><ele>1612</ele><speed>13.14</speed><time>2016-06-01T16:14:03Z</time><pdop>6.0</pdop><geoidheight>50.60</geoidheight><course>91.657745</course><type>1</type></trkpt>
      <trkpt lat="39.27640912807996" lon="-6.2786872968248835"><ele>1610</ele><speed>12.10</speed><time>2016-06-01T16:14:03Z</time><pdop>6.0</pdop><geoidheight>50.60</geoidheight><course>94.70978</course><type>1</type></trkpt>
      <trkpt lat="39.276387041167276" lon="-6.278424808786181"><ele>1609</ele><speed>10.64</speed><time>2016-06-01T16:14:05Z</time><pdop>6.0</pdop><geoidheight>50.60</geoidheight><course>94.89467</course><type>1</type></trkpt>
      <trkpt lat="39.27637121179225" lon="-6.278176923067194"><ele>1608</ele><speed>11.04</speed><time>2016-06-01T16:14:07Z</time><pdop>6.0</pdop><geoidheight>50.60</geoidheight><course>94.347565</course><type>1</type></trkpt>
      <trkpt lat="39.276351964209596" lon="-6.277926762342511"><ele>1607</ele><speed>10.84</speed><time>2016-06-01T16:14:09Z</time><pdop>6.0</pdop><geoidheight>50.60</geoidheight><course>94.382744</course><type>1</type></trkpt>
      <trkpt lat="39.27634502274925" lon="-6.277692319572896"><ele>1607</ele><speed>9.84</speed><time>2016-06-01T16:14:11Z</time><pdop>6.0</pdop><geoidheight>50.60</geoidheight><course>89.82093</course><type>1</type></trkpt>
      <trkpt lat="39.27635212359555" lon="-6.2774660983340835"><ele>1606</ele><speed>9.59</speed><time>2016-06-01T16:14:13Z</time><pdop>6.0</pdop><geoidheight>50.60</geoidheight><course>87.63607</course><type>1</type></trkpt>
      <trkpt lat="39.27636608817534" lon="-6.277228822224241"><ele>1606</ele><speed>10.46</speed><time>2016-06-01T16:14:15Z</time><pdop>6.0</pdop><geoidheight>50.60</geoidheight><course>87.498055</course><type>1</type></trkpt>
      <trkpt lat="39.276364734633326" lon="-6.276979948425117"><ele>1607</ele><speed>10.89</speed><time>2016-06-01T16:14:17Z</time><pdop>6.0</pdop><geoidheight>50.60</geoidheight><course>92.34448</course><type>1</type></trkpt>
      <trkpt lat="39.27633885215433" lon="-6.276736925616696"><ele>1607</ele><speed>10.16</speed><time>2016-06-01T16:14:19Z</time><pdop>6.0</pdop><geoidheight>50.60</geoidheight><course>97.11599</course><type>1</type></trkpt>
      <trkpt lat="39.27630420364064" lon="-6.276507003231698"><ele>1606</ele><speed>10.48</speed><time>2016-06-01T16:14:21Z</time><pdop>6.0</pdop><geoidheight>50.60</geoidheight><course>98.45993</course><type>1</type></trkpt>
      <trkpt lat="39.27627064156735" lon="-6.276262952817621"><ele>1606</ele><speed>11.32</speed><time>2016-06-01T16:14:23Z</time><pdop>6.0</pdop><geoidheight>50.60</geoidheight><course>96.90805</course><type>1</type></trkpt>
      <trkpt lat="39.27624446295133" lon="-6.276015363809066"><ele>1604</ele><speed>11.00</speed><time>2016-06-01T16:14:25Z</time><pdop>6.0</pdop><geoidheight>50.60</geoidheight><course>95.09146</course><type>1</type></trkpt>
      <trkpt lat="39.2762238947804" lon="-6.275771263340569"><ele>1603</ele><speed>11.03</speed><time>2016-06-01T16:14:27Z</time><pdop>6.0</pdop><geoidheight>50.60</geoidheight><course>95.71561</course><type>1</type></trkpt>
      <trkpt lat="39.276196831650445" lon="-6.2755304950618465"><ele>1602</ele><speed>9.93</speed><time>2016-06-01T16:14:29Z</time><pdop>6.0</pdop><geoidheight>50.60</geoidheight><course>98.85119</course><type>1</type></trkpt>
      <trkpt lat="39.276162607912475" lon="-6.275303891619995"><ele>1600</ele><speed>11.23</speed><time>2016-06-01T16:14:31Z</time><pdop>6.0</pdop><geoidheight>50.60</geoidheight><course>97.970566</course><type>1</type></trkpt>
      <trkpt lat="39.27613952351631" lon="-6.275048927768732"><ele>1598</ele><speed>11.83</speed><time>2016-06-01T16:14:33Z</time><pdop>6.0</pdop><geoidheight>50.60</geoidheight><course>94.55485</course><type>1</type></trkpt>
      <trkpt lat="39.27612197343801" lon="-6.274788833205647"><ele>1597</ele><speed>11.45</speed><time>2016-06-01T16:14:35Z</time><pdop>6.0</pdop><geoidheight>50.60</geoidheight><course>94.077</course><type>1</type></trkpt>
      <trkpt lat="39.27610401266969" lon="-6.274538107228701"><ele>1595</ele><speed>10.61</speed><time>2016-06-01T16:14:37Z</time><pdop>6.0</pdop><geoidheight>50.60</geoidheight><course>93.74567</course><type>1</type></trkpt>
      <trkpt lat="39.276100037406735" lon="-6.274302901294915"><ele>1594</ele><speed>10.23</speed><time>2016-06-01T16:14:39Z</time><pdop>6.0</pdop><geoidheight>50.60</geoidheight><course>90.00055</course><type>1</type></trkpt>
      <trkpt lat="39.27610052569228" lon="-6.274058073184716"><ele>1592</ele><speed>11.50</speed><time>2016-06-01T16:14:41Z</time><pdop>6.0</pdop><geoidheight>50.60</geoidheight><course>90.630226</course><type>1</type></trkpt>
      <trkpt lat="39.2760997876416" lon="-6.273806567601107"><ele>1590</ele><speed>11.09</speed><time>2016-06-01T16:14:43Z</time><pdop>6.0</pdop><geoidheight>50.60</geoidheight><course>90.51659</course><type>1</type></trkpt>
      <trkpt lat="39.27610036496873" lon="-6.273564649874295"><ele>1589</ele><speed>10.70</speed><time>2016-06-01T16:14:45Z</time><pdop>6.0</pdop><geoidheight>50.60</geoidheight><course>89.474754</course><type>1</type></trkpt>
      <trkpt lat="39.276099040698725" lon="-6.273306370697324"><ele>1588</ele><speed>12.15</speed><time>2016-06-01T16:14:47Z</time><pdop>6.0</pdop><geoidheight>50.60</geoidheight><course>90.4526</course><type>1</type></trkpt>
      <trkpt lat="39.27609099602777" lon="-6.273012582066292"><ele>1586</ele><speed>12.99</speed><time>2016-06-01T16:14:49Z</time><pdop>6.0</pdop><geoidheight>50.60</geoidheight><course>91.49462</course><type>1</type></trkpt>
      <trkpt lat="39.27608614205334" lon="-6.272863605575997"><ele>1586</ele><speed>12.44</speed><time>2016-06-01T16:14:50Z</time><pdop>6.0</pdop><geoidheight>50.60</geoidheight><course>91.333755</course><type>1</type></trkpt>
      <trkpt lat="39.2760719274908" lon="-6.272621261640891"><ele>1584</ele><speed>10.41</speed><time>2016-06-01T16:14:52Z</time><pdop>6.0</pdop><geoidheight>50.60</geoidheight><course>92.67299</course><type>1</type></trkpt>
      <trkpt lat="39.27604558815304" lon="-6.272384817114626"><ele>1580</ele><speed>12.33</speed><time>2016-06-01T16:14:54Z</time><pdop>6.0</pdop><geoidheight>50.60</geoidheight><course>93.56168</course><type>1</type></trkpt>
      <trkpt lat="39.275990597748034" lon="-6.271957529905226"><ele>1571</ele><speed>13.63</speed><time>2016-06-01T16:14:57Z</time><pdop>8.0</pdop><geoidheight>50.60</geoidheight><course>107.14069</course><type>1</type></trkpt>
      <trkpt lat="39.27594918775235" lon="-6.271690550677955"><ele>1567</ele><speed>11.58</speed><time>2016-06-01T16:14:59Z</time><pdop>8.0</pdop><geoidheight>50.60</geoidheight><course>94.00094</course><type>1</type></trkpt>
      <trkpt lat="39.27593479401445" lon="-6.271434169769183"><ele>1562</ele><speed>11.88</speed><time>2016-06-01T16:15:01Z</time><pdop>6.0</pdop><geoidheight>50.60</geoidheight><course>90.29389</course><type>1</type></trkpt>
      <trkpt lat="39.2759043987724" lon="-6.271169913055362"><ele>1558</ele><speed>12.24</speed><time>2016-06-01T16:15:03Z</time><pdop>6.0</pdop><geoidheight>50.60</geoidheight><course>98.05722</course><type>1</type></trkpt>
      <trkpt lat="39.27581567846691" lon="-6.270936181499415"><ele>1552</ele><speed>11.74</speed><time>2016-06-01T16:15:05Z</time><pdop>6.0</pdop><geoidheight>50.60</geoidheight><course>109.416504</course><type>1</type></trkpt>
      <trkpt lat="39.275740919706834" lon="-6.270687831572811"><ele>1546</ele><speed>12.17</speed><time>2016-06-01T16:15:07Z</time><pdop>6.0</pdop><geoidheight>50.60</geoidheight><course>103.20581</course><type>1</type></trkpt>
      <trkpt lat="39.27568715886187" lon="-6.2704472753185625"><ele>1540</ele><speed>10.98</speed><time>2016-06-01T16:15:09Z</time><pdop>6.0</pdop><geoidheight>50.60</geoidheight><course>102.628494</course><type>1</type></trkpt>
      <trkpt lat="39.27563759799035" lon="-6.2702179642338045"><ele>1535</ele><speed>10.40</speed><time>2016-06-01T16:15:11Z</time><pdop>6.0</pdop><geoidheight>50.60</geoidheight><course>102.27002</course><type>1</type></trkpt>
      <trkpt lat="39.27558923189525" lon="-6.269971853641711"><ele>1529</ele><speed>11.91</speed><time>2016-06-01T16:15:13Z</time><pdop>6.0</pdop><geoidheight>50.60</geoidheight><course>101.48242</course><type>1</type></trkpt>
      <trkpt lat="39.27555295676396" lon="-6.269726525161697"><ele>1523</ele><speed>11.32</speed><time>2016-06-01T16:15:15Z</time><pdop>6.0</pdop><geoidheight>50.60</geoidheight><course>96.41119</course><type>1</type></trkpt>
      <trkpt lat="39.275539719059765" lon="-6.269476032341108"><ele>1518</ele><speed>11.60</speed><time>2016-06-01T16:15:17Z</time><pdop>6.0</pdop><geoidheight>50.60</geoidheight><course>92.31668</course><type>1</type></trkpt>
      <trkpt lat="39.275522852453854" lon="-6.269233159678338"><ele>1514</ele><speed>10.99</speed><time>2016-06-01T16:15:19Z</time><pdop>6.0</pdop><geoidheight>50.60</geoidheight><course>94.86509</course><type>1</type></trkpt>
      <trkpt lat="39.275511636226" lon="-6.269113057850978"><ele>1511</ele><speed>10.54</speed><time>2016-06-01T16:15:20Z</time><pdop>4.0</pdop><geoidheight>50.60</geoidheight><course>94.36161</course><type>1</type></trkpt>
      <trkpt lat="39.27550149937661" lon="-6.2689961372096015"><ele>1509</ele><speed>10.33</speed><time>2016-06-01T16:15:21Z</time><pdop>4.0</pdop><geoidheight>50.60</geoidheight><course>93.875206</course><type>1</type></trkpt>
      <trkpt lat="39.27549364475178" lon="-6.268881112070963"><ele>1507</ele><speed>10.31</speed><time>2016-06-01T16:15:22Z</time><pdop>4.0</pdop><geoidheight>50.60</geoidheight><course>93.67495</course><type>1</type></trkpt>
      <trkpt lat="39.275486450579145" lon="-6.2687650622916244"><ele>1505</ele><speed>10.80</speed><time>2016-06-01T16:15:23Z</time><pdop>4.0</pdop><geoidheight>50.60</geoidheight><course>92.56531</course><type>1</type></trkpt>
      <trkpt lat="39.27547805884273" lon="-6.268645775447434"><ele>1503</ele><speed>11.09</speed><time>2016-06-01T16:15:24Z</time><pdop>4.0</pdop><geoidheight>50.60</geoidheight><course>91.6148</course><type>1</type></trkpt>
      <trkpt lat="39.27547204890823" lon="-6.268514134728744"><ele>1501</ele><speed>12.05</speed><time>2016-06-01T16:15:25Z</time><pdop>6.0</pdop><geoidheight>50.60</geoidheight><course>89.99455</course><type>1</type></trkpt>
      <trkpt lat="39.27546258094043" lon="-6.26823406131833"><ele>1497</ele><speed>12.17</speed><time>2016-06-01T16:15:27Z</time><pdop>6.0</pdop><geoidheight>50.60</geoidheight><course>90.15988</course><type>1</type></trkpt>
      <trkpt lat="39.27541777347386" lon="-6.2679863911339915"><ele>1494</ele><speed>11.24</speed><time>2016-06-01T16:15:29Z</time><pdop>6.0</pdop><geoidheight>50.60</geoidheight><course>107.78719</course><type>1</type></trkpt>
      <trkpt lat="39.27534159662758" lon="-6.267747885381955"><ele>1489</ele><speed>11.83</speed><time>2016-06-01T16:15:31Z</time><pdop>6.0</pdop><geoidheight>50.60</geoidheight><course>106.68772</course><type>1</type></trkpt>
      <trkpt lat="39.27527961448206" lon="-6.267495922591065"><ele>1485</ele><speed>11.37</speed><time>2016-06-01T16:15:33Z</time><pdop>6.0</pdop><geoidheight>50.60</geoidheight><course>102.66583</course><type>1</type></trkpt>
      <trkpt lat="39.27522828835651" lon="-6.267242033210406"><ele>1481</ele><speed>11.59</speed><time>2016-06-01T16:15:35Z</time><pdop>6.0</pdop><geoidheight>50.60</geoidheight><course>102.33428</course><type>1</type></trkpt>
      <trkpt lat="39.275166662847944" lon="-6.266988428072384"><ele>1476</ele><speed>11.64</speed><time>2016-06-01T16:15:37Z</time><pdop>6.0</pdop><geoidheight>50.60</geoidheight><course>106.15841</course><type>1</type></trkpt>
      <trkpt lat="39.275091687003645" lon="-6.266746264127221"><ele>1472</ele><speed>11.79</speed><time>2016-06-01T16:15:39Z</time><pdop>6.0</pdop><geoidheight>50.60</geoidheight><course>109.29196</course><type>1</type></trkpt>
      <trkpt lat="39.27505035090207" lon="-6.266616205266641"><ele>1469</ele><speed>12.55</speed><time>2016-06-01T16:15:40Z</time><pdop>6.0</pdop><geoidheight>50.60</geoidheight><course>109.91081</course><type>1</type></trkpt>
      <trkpt lat="39.27500752771652" lon="-6.266486361062583"><ele>1467</ele><speed>12.74</speed><time>2016-06-01T16:15:41Z</time><pdop>6.0</pdop><geoidheight>50.60</geoidheight><course>110.301384</course><type>1</type></trkpt>
      <trkpt lat="39.274965016653006" lon="-6.266355836039977"><ele>1464</ele><speed>12.72</speed><time>2016-06-01T16:15:42Z</time><pdop>6.0</pdop><geoidheight>50.60</geoidheight><course>109.42962</course><type>1</type></trkpt>
      <trkpt lat="39.27489023088989" lon="-6.266103641270174"><ele>1459</ele><speed>11.56</speed><time>2016-06-01T16:15:44Z</time><pdop>6.0</pdop><geoidheight>50.60</geoidheight><course>108.44213</course><type>1</type></trkpt>
      <trkpt lat="39.27482636765321" lon="-6.2658609434172945"><ele>1455</ele><speed>11.47</speed><time>2016-06-01T16:15:46Z</time><pdop>6.0</pdop><geoidheight>50.60</geoidheight><course>106.7238</course><type>1</type></trkpt>
      <trkpt lat="39.274794288966284" lon="-6.265727274282849"><ele>1453</ele><speed>12.36</speed><time>2016-06-01T16:15:47Z</time><pdop>6.0</pdop><geoidheight>50.60</geoidheight><course>105.87878</course><type>1</type></trkpt>
      <trkpt lat="39.27476476137016" lon="-6.26559116697892"><ele>1450</ele><speed>12.61</speed><time>2016-06-01T16:15:48Z</time><pdop>6.0</pdop><geoidheight>50.60</geoidheight><course>104.65124</course><type>1</type></trkpt>
      <trkpt lat="39.27473535652181" lon="-6.265451367839526"><ele>1448</ele><speed>13.04</speed><time>2016-06-01T16:15:49Z</time><pdop>6.0</pdop><geoidheight>50.60</geoidheight><course>103.87687</course><type>1</type></trkpt>
      <trkpt lat="39.274708231587276" lon="-6.265309338178647"><ele>1446</ele><speed>12.87</speed><time>2016-06-01T16:15:50Z</time><pdop>6.0</pdop><geoidheight>50.60</geoidheight><course>103.36266</course><type>1</type></trkpt>
      <trkpt lat="39.27468154603463" lon="-6.265172005068195"><ele>1444</ele><speed>12.48</speed><time>2016-06-01T16:15:51Z</time><pdop>6.0</pdop><geoidheight>50.60</geoidheight><course>103.7458</course><type>1</type></trkpt>
      <trkpt lat="39.27462993881032" lon="-6.264902242700919"><ele>1440</ele><speed>12.48</speed><time>2016-06-01T16:15:53Z</time><pdop>4.0</pdop><geoidheight>50.60</geoidheight><course>102.01244</course><type>1</type></trkpt>
      <trkpt lat="39.27460255370152" lon="-6.264758148317574"><ele>1438</ele><speed>13.10</speed><time>2016-06-01T16:15:54Z</time><pdop>4.0</pdop><geoidheight>50.60</geoidheight><course>101.535225</course><type>1</type></trkpt>
      <trkpt lat="39.27457284979277" lon="-6.264626635258697"><ele>1436</ele><speed>12.84</speed><time>2016-06-01T16:15:55Z</time><pdop>6.0</pdop><geoidheight>50.60</geoidheight><course>103.38011</course><type>1</type></trkpt>
      <trkpt lat="39.27453715441941" lon="-6.264487486389988"><ele>1433</ele><speed>12.73</speed><time>2016-06-01T16:15:56Z</time><pdop>6.0</pdop><geoidheight>50.60</geoidheight><course>105.256294</course><type>1</type></trkpt>
      <trkpt lat="39.2744644921741" lon="-6.264225313951572"><ele>1429</ele><speed>13.11</speed><time>2016-06-01T16:15:58Z</time><pdop>6.0</pdop><geoidheight>50.60</geoidheight><course>104.856926</course><type>1</type></trkpt>
      <trkpt lat="39.274426293919184" lon="-6.264089949449058"><ele>1427</ele><speed>13.14</speed><time>2016-06-01T16:15:59Z</time><pdop>6.0</pdop><geoidheight>50.60</geoidheight><course>104.573616</course><type>1</type></trkpt>
      <trkpt lat="39.27438689784671" lon="-6.263951789305789"><ele>1425</ele><speed>13.52</speed><time>2016-06-01T16:16:00Z</time><pdop>6.0</pdop><geoidheight>50.60</geoidheight><course>105.02341</course><type>1</type></trkpt>
      <trkpt lat="39.27430576663048" lon="-6.26368485459914"><ele>1420</ele><speed>12.98</speed><time>2016-06-01T16:16:02Z</time><pdop>6.0</pdop><geoidheight>50.60</geoidheight><course>106.32328</course><type>1</type></trkpt>
      <trkpt lat="39.27426752246735" lon="-6.263553856320343"><ele>1418</ele><speed>12.41</speed><time>2016-06-01T16:16:03Z</time><pdop>6.0</pdop><geoidheight>50.60</geoidheight><course>104.85297</course><type>1</type></trkpt>
      <trkpt lat="39.27422876509361" lon="-6.263414766419957"><ele>1416</ele><speed>12.26</speed><time>2016-06-01T16:16:04Z</time><pdop>6.0</pdop><geoidheight>50.60</geoidheight><course>105.03047</course><type>1</type></trkpt>
      <trkpt lat="39.274191439039164" lon="-6.263277717725082"><ele>1413</ele><speed>12.63</speed><time>2016-06-01T16:16:05Z</time><pdop>6.0</pdop><geoidheight>50.60</geoidheight><course>105.13548</course><type>1</type></trkpt>
      <trkpt lat="39.2741111268838" lon="-6.263015572495865"><ele>1408</ele><speed>13.51</speed><time>2016-06-01T16:16:07Z</time><pdop>6.0</pdop><geoidheight>50.60</geoidheight><course>107.54567</course><type>1</type></trkpt>
      <trkpt lat="39.27407242051078" lon="-6.26288148216488"><ele>1405</ele><speed>13.57</speed><time>2016-06-01T16:16:08Z</time><pdop>6.0</pdop><geoidheight>50.60</geoidheight><course>106.4259</course><type>1</type></trkpt>
      <trkpt lat="39.27403444554659" lon="-6.262747870350694"><ele>1403</ele><speed>12.99</speed><time>2016-06-01T16:16:09Z</time><pdop>6.0</pdop><geoidheight>50.60</geoidheight><course>107.00795</course><type>1</type></trkpt>
      <trkpt lat="39.27399279630892" lon="-6.262605917861463"><ele>1400</ele><speed>12.67</speed><time>2016-06-01T16:16:10Z</time><pdop>6.0</pdop><geoidheight>50.60</geoidheight><course>107.7976</course><type>1</type></trkpt>
      <trkpt lat="39.273952454228365" lon="-6.262471862884926"><ele>1398</ele><speed>13.00</speed><time>2016-06-01T16:16:11Z</time><pdop>6.0</pdop><geoidheight>50.60</geoidheight><course>107.21367</course><type>1</type></trkpt>
      <trkpt lat="39.273910280890696" lon="-6.26233469702479"><ele>1395</ele><speed>13.20</speed><time>2016-06-01T16:16:12Z</time><pdop>6.0</pdop><geoidheight>50.60</geoidheight><course>107.75911</course><type>1</type></trkpt>
      <trkpt lat="39.273867717275664" lon="-6.262199729484728"><ele>1393</ele><speed>13.24</speed><time>2016-06-01T16:16:13Z</time><pdop>6.0</pdop><geoidheight>50.60</geoidheight><course>108.2161</course><type>1</type></trkpt>
      <trkpt lat="39.27382441202331" lon="-6.262067361671955"><ele>1391</ele><speed>13.12</speed><time>2016-06-01T16:16:14Z</time><pdop>6.0</pdop><geoidheight>50.60</geoidheight><course>108.628044</course><type>1</type></trkpt>
      <trkpt lat="39.27377728401537" lon="-6.261933857731593"><ele>1389</ele><speed>13.13</speed><time>2016-06-01T16:16:15Z</time><pdop>6.0</pdop><geoidheight>50.60</geoidheight><course>109.00049</course><type>1</type></trkpt>
      <trkpt lat="39.2737298027661" lon="-6.2617962918081655"><ele>1386</ele><speed>12.83</speed><time>2016-06-01T16:16:16Z</time><pdop>6.0</pdop><geoidheight>50.60</geoidheight><course>109.39014</course><type>1</type></trkpt>
      <trkpt lat="39.27363565820084" lon="-6.261549665381724"><ele>1382</ele><speed>12.33</speed><time>2016-06-01T16:16:18Z</time><pdop>6.0</pdop><geoidheight>50.60</geoidheight><course>111.093124</course><type>1</type></trkpt>
      <trkpt lat="39.27358238860633" lon="-6.261422917039284"><ele>1380</ele><speed>11.71</speed><time>2016-06-01T16:16:19Z</time><pdop>6.0</pdop><geoidheight>50.60</geoidheight><course>113.37749</course><type>1</type></trkpt>
      <trkpt lat="39.27347694409584" lon="-6.261194933204683"><ele>1376</ele><speed>11.98</speed><time>2016-06-01T16:16:21Z</time><pdop>6.0</pdop><geoidheight>50.60</geoidheight><course>115.289</course><type>1</type></trkpt>
      <trkpt lat="39.27341205388208" lon="-6.260943621476906"><ele>1372</ele><speed>12.98</speed><time>2016-06-01T16:16:23Z</time><pdop>6.0</pdop><geoidheight>50.60</geoidheight><course>102.756485</course><type>1</type></trkpt>
      <trkpt lat="39.273328720286095" lon="-6.260692365028026"><ele>1367</ele><speed>12.40</speed><time>2016-06-01T16:16:25Z</time><pdop>6.0</pdop><geoidheight>50.60</geoidheight><course>106.24276</course><type>1</type></trkpt>
      <trkpt lat="39.273231156115436" lon="-6.260457201585331"><ele>1362</ele><speed>12.37</speed><time>2016-06-01T16:16:27Z</time><pdop>8.0</pdop><geoidheight>50.60</geoidheight><course>110.12709</course><type>1</type></trkpt>
      <trkpt lat="39.2731262694432" lon="-6.260207058101292"><ele>1355</ele><speed>13.16</speed><time>2016-06-01T16:16:29Z</time><pdop>6.0</pdop><geoidheight>50.60</geoidheight><course>111.67742</course><type>1</type></trkpt>
      <trkpt lat="39.27307165770911" lon="-6.260075295653026"><ele>1352</ele><speed>13.09</speed><time>2016-06-01T16:16:30Z</time><pdop>6.0</pdop><geoidheight>50.60</geoidheight><course>112.01291</course><type>1</type></trkpt>
      <trkpt lat="39.27301536967847" lon="-6.259949675010678"><ele>1349</ele><speed>12.57</speed><time>2016-06-01T16:16:31Z</time><pdop>6.0</pdop><geoidheight>50.60</geoidheight><course>113.49413</course><type>1</type></trkpt>
      <trkpt lat="39.27290706598731" lon="-6.259717170294079"><ele>1344</ele><speed>11.69</speed><time>2016-06-01T16:16:33Z</time><pdop>6.0</pdop><geoidheight>50.60</geoidheight><course>115.06723</course><type>1</type></trkpt>
      <trkpt lat="39.27280286370498" lon="-6.259481029379485"><ele>1339</ele><speed>11.90</speed><time>2016-06-01T16:16:35Z</time><pdop>6.0</pdop><geoidheight>50.60</geoidheight><course>113.48284</course><type>1</type></trkpt>
      <trkpt lat="39.27269423420812" lon="-6.25924556278295"><ele>1335</ele><speed>11.76</speed><time>2016-06-01T16:16:37Z</time><pdop>6.0</pdop><geoidheight>50.60</geoidheight><course>116.8535</course><type>1</type></trkpt>
      <trkpt lat="39.27257650692204" lon="-6.259037512992651"><ele>1330</ele><speed>11.65</speed><time>2016-06-01T16:16:39Z</time><pdop>6.0</pdop><geoidheight>50.60</geoidheight><course>118.36587</course><type>1</type></trkpt>
      <trkpt lat="39.27246109128521" lon="-6.258804898000086"><ele>1325</ele><speed>12.06</speed><time>2016-06-01T16:16:41Z</time><pdop>6.0</pdop><geoidheight>50.60</geoidheight><course>116.78165</course><type>1</type></trkpt>
      <trkpt lat="39.27240204531782" lon="-6.2586847609966405"><ele>1323</ele><speed>11.86</speed><time>2016-06-01T16:16:42Z</time><pdop>6.0</pdop><geoidheight>50.60</geoidheight><course>118.01543</course><type>1</type></trkpt>
      <trkpt lat="39.27228828510724" lon="-6.258468779268591"><ele>1319</ele><speed>10.85</speed><time>2016-06-01T16:16:44Z</time><pdop>6.0</pdop><geoidheight>50.60</geoidheight><course>119.097755</course><type>1</type></trkpt>
      <trkpt lat="39.272184451103385" lon="-6.258258734543903"><ele>1315</ele><speed>11.47</speed><time>2016-06-01T16:16:46Z</time><pdop>6.0</pdop><geoidheight>50.60</geoidheight><course>117.309456</course><type>1</type></trkpt>
      <trkpt lat="39.272083287097885" lon="-6.258042010761474"><ele>1310</ele><speed>11.27</speed><time>2016-06-01T16:16:48Z</time><pdop>6.0</pdop><geoidheight>50.60</geoidheight><course>118.50463</course><type>1</type></trkpt>
      <trkpt lat="39.271992494935155" lon="-6.257823818789704"><ele>1305</ele><speed>10.79</speed><time>2016-06-01T16:16:50Z</time><pdop>6.0</pdop><geoidheight>50.60</geoidheight><course>114.50165</course><type>1</type></trkpt>
      <trkpt lat="39.27192362903677" lon="-6.257578958551015"><ele>1300</ele><speed>11.72</speed><time>2016-06-01T16:16:52Z</time><pdop>6.0</pdop><geoidheight>50.60</geoidheight><course>108.80386</course><type>1</type></trkpt>
      <trkpt lat="39.27186192519463" lon="-6.257330658028373"><ele>1296</ele><speed>11.43</speed><time>2016-06-01T16:16:54Z</time><pdop>6.0</pdop><geoidheight>50.60</geoidheight><course>108.24854</course><type>1</type></trkpt>
      <trkpt lat="39.27180420145849" lon="-6.257086866986777"><ele>1292</ele><speed>10.81</speed><time>2016-06-01T16:16:56Z</time><pdop>6.0</pdop><geoidheight>50.60</geoidheight><course>106.77068</course><type>1</type></trkpt>
      <trkpt lat="39.27175431476683" lon="-6.256848227334129"><ele>1288</ele><speed>11.33</speed><time>2016-06-01T16:16:58Z</time><pdop>6.0</pdop><geoidheight>50.60</geoidheight><course>105.1698</course><type>1</type></trkpt>
      <trkpt lat="39.271699454654495" lon="-6.256600809709698"><ele>1284</ele><speed>11.32</speed><time>2016-06-01T16:17:00Z</time><pdop>6.0</pdop><geoidheight>50.60</geoidheight><course>106.426346</course><type>1</type></trkpt>
      <trkpt lat="39.271646878356556" lon="-6.256371472841942"><ele>1281</ele><speed>10.12</speed><time>2016-06-01T16:17:02Z</time><pdop>6.0</pdop><geoidheight>50.60</geoidheight><course>105.27671</course><type>1</type></trkpt>
      <trkpt lat="39.271599607092284" lon="-6.256144218488822"><ele>1277</ele><speed>10.76</speed><time>2016-06-01T16:17:04Z</time><pdop>6.0</pdop><geoidheight>50.60</geoidheight><course>103.928215</course><type>1</type></trkpt>
      <trkpt lat="39.27155639304333" lon="-6.255899942790883"><ele>1272</ele><speed>11.83</speed><time>2016-06-01T16:17:06Z</time><pdop>6.0</pdop><geoidheight>50.60</geoidheight><course>100.42814</course><type>1</type></trkpt>
      <trkpt lat="39.27151045507783" lon="-6.255657948665232"><ele>1268</ele><speed>11.43</speed><time>2016-06-01T16:17:08Z</time><pdop>6.0</pdop><geoidheight>50.60</geoidheight><course>100.971146</course><type>1</type></trkpt>
      <trkpt lat="39.27146805660051" lon="-6.255417595277594"><ele>1263</ele><speed>11.67</speed><time>2016-06-01T16:17:10Z</time><pdop>6.0</pdop><geoidheight>50.60</geoidheight><course>98.709274</course><type>1</type></trkpt>
      <trkpt lat="39.271421022578686" lon="-6.25516161798375"><ele>1259</ele><speed>12.42</speed><time>2016-06-01T16:17:12Z</time><pdop>6.0</pdop><geoidheight>50.60</geoidheight><course>100.36204</course><type>1</type></trkpt>
      <trkpt lat="39.27136866226505" lon="-6.2549065531624475"><ele>1254</ele><speed>11.22</speed><time>2016-06-01T16:17:14Z</time><pdop>6.0</pdop><geoidheight>50.60</geoidheight><course>101.91697</course><type>1</type></trkpt>
      <trkpt lat="39.2713232690383" lon="-6.254674669330715"><ele>1250</ele><speed>10.00</speed><time>2016-06-01T16:17:16Z</time><pdop>6.0</pdop><geoidheight>50.60</geoidheight><course>101.33156</course><type>1</type></trkpt>
      <trkpt lat="39.27128460107629" lon="-6.2544363308833155"><ele>1246</ele><speed>11.52</speed><time>2016-06-01T16:17:18Z</time><pdop>6.0</pdop><geoidheight>50.60</geoidheight><course>97.400505</course><type>1</type></trkpt>
      <trkpt lat="39.27125268973813" lon="-6.254195244033989"><ele>1242</ele><speed>11.49</speed><time>2016-06-01T16:17:20Z</time><pdop>6.0</pdop><geoidheight>50.60</geoidheight><course>95.39688</course><type>1</type></trkpt>
      <trkpt lat="39.271216587746885" lon="-6.253962846637025"><ele>1239</ele><speed>10.89</speed><time>2016-06-01T16:17:22Z</time><pdop>6.0</pdop><geoidheight>50.60</geoidheight><course>97.46086</course><type>1</type></trkpt>
      <trkpt lat="39.27117264342025" lon="-6.25373356573003"><ele>1235</ele><speed>10.73</speed><time>2016-06-01T16:17:24Z</time><pdop>6.0</pdop><geoidheight>50.60</geoidheight><course>99.24904</course><type>1</type></trkpt>
      <trkpt lat="39.271127392967934" lon="-6.253496223520398"><ele>1231</ele><speed>11.14</speed><time>2016-06-01T16:17:26Z</time><pdop>6.0</pdop><geoidheight>50.60</geoidheight><course>98.617775</course><type>1</type></trkpt>
      <trkpt lat="39.27108499758191" lon="-6.253246195429911"><ele>1226</ele><speed>12.01</speed><time>2016-06-01T16:17:28Z</time><pdop>6.0</pdop><geoidheight>50.60</geoidheight><course>99.005745</course><type>1</type></trkpt>
      <trkpt lat="39.27104021024811" lon="-6.253002401485573"><ele>1222</ele><speed>11.14</speed><time>2016-06-01T16:17:30Z</time><pdop>6.0</pdop><geoidheight>50.60</geoidheight><course>98.765366</course><type>1</type></trkpt>
      <trkpt lat="39.271003332883346" lon="-6.252762933137447"><ele>1218</ele><speed>11.85</speed><time>2016-06-01T16:17:32Z</time><pdop>6.0</pdop><geoidheight>50.60</geoidheight><course>95.091705</course><type>1</type></trkpt>
      <trkpt lat="39.27096727878896" lon="-6.252514197996032"><ele>1213</ele><speed>11.98</speed><time>2016-06-01T16:17:34Z</time><pdop>6.0</pdop><geoidheight>50.60</geoidheight><course>96.34727</course><type>1</type></trkpt>
      <trkpt lat="39.270929692140385" lon="-6.252266232117958"><ele>1209</ele><speed>11.43</speed><time>2016-06-01T16:17:36Z</time><pdop>6.0</pdop><geoidheight>50.60</geoidheight><course>96.74788</course><type>1</type></trkpt>
      <trkpt lat="39.270895023795084" lon="-6.252022637040118"><ele>1204</ele><speed>11.23</speed><time>2016-06-01T16:17:38Z</time><pdop>4.0</pdop><geoidheight>50.60</geoidheight><course>94.665115</course><type>1</type></trkpt>
      <trkpt lat="39.27087743506686" lon="-6.251889555684762"><ele>1201</ele><speed>12.61</speed><time>2016-06-01T16:17:39Z</time><pdop>4.0</pdop><geoidheight>50.60</geoidheight><course>94.53414</course><type>1</type></trkpt>
      <trkpt lat="39.27086129924033" lon="-6.2517516398868045"><ele>1199</ele><speed>13.14</speed><time>2016-06-01T16:17:40Z</time><pdop>4.0</pdop><geoidheight>50.60</geoidheight><course>95.42902</course><type>1</type></trkpt>
      <trkpt lat="39.270844808418765" lon="-6.251610312364766"><ele>1196</ele><speed>13.27</speed><time>2016-06-01T16:17:41Z</time><pdop>6.0</pdop><geoidheight>50.60</geoidheight><course>95.63443</course><type>1</type></trkpt>
      <trkpt lat="39.27081301138909" lon="-6.2513455620408"><ele>1191</ele><speed>12.10</speed><time>2016-06-01T16:17:43Z</time><pdop>6.0</pdop><geoidheight>50.60</geoidheight><course>94.50488</course><type>1</type></trkpt>
      <trkpt lat="39.27078590560428" lon="-6.25108209093567"><ele>1187</ele><speed>13.10</speed><time>2016-06-01T16:17:45Z</time><pdop>6.0</pdop><geoidheight>50.60</geoidheight><course>93.35294</course><type>1</type></trkpt>
      <trkpt lat="39.27075643480094" lon="-6.250806168157715"><ele>1182</ele><speed>13.69</speed><time>2016-06-01T16:17:47Z</time><pdop>6.0</pdop><geoidheight>50.60</geoidheight><course>93.16718</course><type>1</type></trkpt>
      <trkpt lat="39.27072710454571" lon="-6.250533936807345"><ele>1177</ele><speed>12.88</speed><time>2016-06-01T16:17:49Z</time><pdop>4.0</pdop><geoidheight>50.60</geoidheight><course>94.190254</course><type>1</type></trkpt>
      <trkpt lat="39.27071009097926" lon="-6.250400463748809"><ele>1174</ele><speed>12.63</speed><time>2016-06-01T16:17:50Z</time><pdop>6.0</pdop><geoidheight>50.60</geoidheight><course>94.58596</course><type>1</type></trkpt>
      <trkpt lat="39.270677071496294" lon="-6.250131215623882"><ele>1170</ele><speed>12.74</speed><time>2016-06-01T16:17:52Z</time><pdop>6.0</pdop><geoidheight>50.60</geoidheight><course>94.62272</course><type>1</type></trkpt>
      <trkpt lat="39.27066374119095" lon="-6.249988256703945"><ele>1167</ele><speed>13.61</speed><time>2016-06-01T16:17:53Z</time><pdop>6.0</pdop><geoidheight>50.60</geoidheight><course>93.35239</course><type>1</type></trkpt>
      <trkpt lat="39.27064956677803" lon="-6.2498458632550165"><ele>1164</ele><speed>13.59</speed><time>2016-06-01T16:17:54Z</time><pdop>6.0</pdop><geoidheight>50.60</geoidheight><course>94.33926</course><type>1</type></trkpt>
      <trkpt lat="39.27063064433439" lon="-6.249707100301347"><ele>1162</ele><speed>13.12</speed><time>2016-06-01T16:17:55Z</time><pdop>6.0</pdop><geoidheight>50.60</geoidheight><course>95.18767</course><type>1</type></trkpt>
      <trkpt lat="39.270610465683326" lon="-6.249568141012057"><ele>1159</ele><speed>13.13</speed><time>2016-06-01T16:17:56Z</time><pdop>6.0</pdop><geoidheight>50.60</geoidheight><course>94.538475</course><type>1</type></trkpt>
      <trkpt lat="39.27059205537424" lon="-6.249428382435464"><ele>1157</ele><speed>13.41</speed><time>2016-06-01T16:17:57Z</time><pdop>6.0</pdop><geoidheight>50.60</geoidheight><course>93.81903</course><type>1</type></trkpt>
      <trkpt lat="39.27057389959987" lon="-6.249289975466366"><ele>1154</ele><speed>13.06</speed><time>2016-06-01T16:17:58Z</time><pdop>6.0</pdop><geoidheight>50.60</geoidheight><course>94.44651</course><type>1</type></trkpt>
      <trkpt lat="39.27055460596061" lon="-6.249146946842197"><ele>1152</ele><speed>13.28</speed><time>2016-06-01T16:17:59Z</time><pdop>6.0</pdop><geoidheight>50.60</geoidheight><course>95.09514</course><type>1</type></trkpt>
      <trkpt lat="39.27053745239359" lon="-6.2490055310790265"><ele>1150</ele><speed>12.71</speed><time>2016-06-01T16:18:00Z</time><pdop>6.0</pdop><geoidheight>50.60</geoidheight><course>95.369705</course><type>1</type></trkpt>
      <trkpt lat="39.270521239287575" lon="-6.248865871099424"><ele>1147</ele><speed>12.51</speed><time>2016-06-01T16:18:01Z</time><pdop>6.0</pdop><geoidheight>50.60</geoidheight><course>96.053154</course><type>1</type></trkpt>
      <trkpt lat="39.27050062482342" lon="-6.248728216989808"><ele>1146</ele><speed>12.45</speed><time>2016-06-01T16:18:02Z</time><pdop>4.0</pdop><geoidheight>50.60</geoidheight><course>97.0921</course><type>1</type></trkpt>
      <trkpt lat="39.270478315077405" lon="-6.248588765671448"><ele>1144</ele><speed>12.79</speed><time>2016-06-01T16:18:03Z</time><pdop>6.0</pdop><geoidheight>50.60</geoidheight><course>97.560974</course><type>1</type></trkpt>
      <trkpt lat="39.270455268237775" lon="-6.248449630562826"><ele>1142</ele><speed>13.07</speed><time>2016-06-01T16:18:04Z</time><pdop>6.0</pdop><geoidheight>50.60</geoidheight><course>96.638466</course><type>1</type></trkpt>
      <trkpt lat="39.270433373314596" lon="-6.248300092505763"><ele>1140</ele><speed>14.28</speed><time>2016-06-01T16:18:05Z</time><pdop>6.0</pdop><geoidheight>50.60</geoidheight><course>95.65391</course><type>1</type></trkpt>
      <trkpt lat="39.27041130827229" lon="-6.248146494238906"><ele>1138</ele><speed>14.89</speed><time>2016-06-01T16:18:06Z</time><pdop>6.0</pdop><geoidheight>50.60</geoidheight><course>95.870026</course><type>1</type></trkpt>
      <trkpt lat="39.27038886306931" lon="-6.247992840359726"><ele>1136</ele><speed>14.42</speed><time>2016-06-01T16:18:07Z</time><pdop>6.0</pdop><geoidheight>50.60</geoidheight><course>96.471016</course><type>1</type></trkpt>
      <trkpt lat="39.27036369916348" lon="-6.247845161524669"><ele>1134</ele><speed>13.07</speed><time>2016-06-01T16:18:08Z</time><pdop>6.0</pdop><geoidheight>50.60</geoidheight><course>97.34151</course><type>1</type></trkpt>
      <trkpt lat="39.2703436654072" lon="-6.247704500644048"><ele>1132</ele><speed>11.14</speed><time>2016-06-01T16:18:09Z</time><pdop>6.0</pdop><geoidheight>50.60</geoidheight><course>98.64353</course><type>1</type></trkpt>
      <trkpt lat="39.27030972513681" lon="-6.247428724249974"><ele>1130</ele><speed>11.85</speed><time>2016-06-01T16:18:11Z</time><pdop>8.0</pdop><geoidheight>50.60</geoidheight><course>99.331085</course><type>1</type></trkpt>
      <trkpt lat="39.27027366079819" lon="-6.247164769199915"><ele>1129</ele><speed>11.20</speed><time>2016-06-01T16:18:13Z</time><pdop>8.0</pdop><geoidheight>50.60</geoidheight><course>99.51456</course><type>1</type></trkpt>
      <trkpt lat="39.27023463494848" lon="-6.246943924205018"><ele>1126</ele><speed>10.41</speed><time>2016-06-01T16:18:15Z</time><pdop>8.0</pdop><geoidheight>50.60</geoidheight><course>98.538605</course><type>1</type></trkpt>
      <trkpt lat="39.27019619071421" lon="-6.24671715166402"><ele>1123</ele><speed>11.58</speed><time>2016-06-01T16:18:17Z</time><pdop>6.0</pdop><geoidheight>50.60</geoidheight><course>96.50706</course><type>1</type></trkpt>
      <trkpt lat="39.27015478433058" lon="-6.246459978101336"><ele>1120</ele><speed>12.10</speed><time>2016-06-01T16:18:19Z</time><pdop>6.0</pdop><geoidheight>50.60</geoidheight><course>97.818275</course><type>1</type></trkpt>
      <trkpt lat="39.27013222884034" lon="-6.246321758101906"><ele>1118</ele><speed>12.71</speed><time>2016-06-01T16:18:20Z</time><pdop>6.0</pdop><geoidheight>50.60</geoidheight><course>96.620155</course><type>1</type></trkpt>
      <trkpt lat="39.27010915692293" lon="-6.24618241641828"><ele>1116</ele><speed>12.27</speed><time>2016-06-01T16:18:21Z</time><pdop>6.0</pdop><geoidheight>50.60</geoidheight><course>97.091354</course><type>1</type></trkpt>
      <trkpt lat="39.27006030451326" lon="-6.245920755224731"><ele>1113</ele><speed>12.04</speed><time>2016-06-01T16:18:23Z</time><pdop>6.0</pdop><geoidheight>50.60</geoidheight><course>97.54331</course><type>1</type></trkpt>
      <trkpt lat="39.2700126024036" lon="-6.245662921495687"><ele>1109</ele><speed>12.15</speed><time>2016-06-01T16:18:25Z</time><pdop>6.0</pdop><geoidheight>50.60</geoidheight><course>95.60457</course><type>1</type></trkpt>
      <trkpt lat="39.269964164637344" lon="-6.245392499542567"><ele>1104</ele><speed>12.73</speed><time>2016-06-01T16:18:27Z</time><pdop>6.0</pdop><geoidheight>50.60</geoidheight><course>97.10078</course><type>1</type></trkpt>
      <trkpt lat="39.26991694635419" lon="-6.245137956074233"><ele>1100</ele><speed>11.73</speed><time>2016-06-01T16:18:29Z</time><pdop>6.0</pdop><geoidheight>50.60</geoidheight><course>97.766815</course><type>1</type></trkpt>
      <trkpt lat="39.26987129827391" lon="-6.244888907997533"><ele>1095</ele><speed>11.44</speed><time>2016-06-01T16:18:31Z</time><pdop>6.0</pdop><geoidheight>50.60</geoidheight><course>98.35945</course><type>1</type></trkpt>
      <trkpt lat="39.26982601637373" lon="-6.244626681264195"><ele>1091</ele><speed>12.11</speed><time>2016-06-01T16:18:33Z</time><pdop>6.0</pdop><geoidheight>50.60</geoidheight><course>99.231575</course><type>1</type></trkpt>
      <trkpt lat="39.26978437784428" lon="-6.244357685336181"><ele>1086</ele><speed>11.73</speed><time>2016-06-01T16:18:35Z</time><pdop>6.0</pdop><geoidheight>50.60</geoidheight><course>97.66857</course><type>1</type></trkpt>
      <trkpt lat="39.26975032184883" lon="-6.244094323625219"><ele>1082</ele><speed>11.26</speed><time>2016-06-01T16:18:37Z</time><pdop>6.0</pdop><geoidheight>50.60</geoidheight><course>97.84344</course><type>1</type></trkpt>
      <trkpt lat="39.26971570603436" lon="-6.243833990341323"><ele>1079</ele><speed>11.64</speed><time>2016-06-01T16:18:39Z</time><pdop>6.0</pdop><geoidheight>50.60</geoidheight><course>97.55545</course><type>1</type></trkpt>
      <trkpt lat="39.2696884959608" lon="-6.243571941417791"><ele>1075</ele><speed>11.66</speed><time>2016-06-01T16:18:41Z</time><pdop>6.0</pdop><geoidheight>50.60</geoidheight><course>96.49591</course><type>1</type></trkpt>
      <trkpt lat="39.269663124759525" lon="-6.243320519612397"><ele>1071</ele><speed>10.91</speed><time>2016-06-01T16:18:43Z</time><pdop>6.0</pdop><geoidheight>50.60</geoidheight><course>97.37673</course><type>1</type></trkpt>
      <trkpt lat="39.2696344427243" lon="-6.243077956798018"><ele>1068</ele><speed>10.71</speed><time>2016-06-01T16:18:45Z</time><pdop>6.0</pdop><geoidheight>50.60</geoidheight><course>97.35276</course><type>1</type></trkpt>
      <trkpt lat="39.269610723501195" lon="-6.242827916967273"><ele>1064</ele><speed>11.52</speed><time>2016-06-01T16:18:47Z</time><pdop>6.0</pdop><geoidheight>50.60</geoidheight><course>95.85453</course><type>1</type></trkpt>
      <trkpt lat="39.26958575348556" lon="-6.242579497229379"><ele>1060</ele><speed>11.09</speed><time>2016-06-01T16:18:49Z</time><pdop>6.0</pdop><geoidheight>50.60</geoidheight><course>97.24927</course><type>1</type></trkpt>
      <trkpt lat="39.26955692006681" lon="-6.24235044219756"><ele>1056</ele><speed>10.23</speed><time>2016-06-01T16:18:51Z</time><pdop>6.0</pdop><geoidheight>50.60</geoidheight><course>98.84459</course><type>1</type></trkpt>
      <trkpt lat="39.269524654457555" lon="-6.242129356715338"><ele>1053</ele><speed>10.24</speed><time>2016-06-01T16:18:53Z</time><pdop>6.0</pdop><geoidheight>50.60</geoidheight><course>99.56039</course><type>1</type></trkpt>
      <trkpt lat="39.26948388302922" lon="-6.241903745136562"><ele>1051</ele><speed>10.39</speed><time>2016-06-01T16:18:55Z</time><pdop>6.0</pdop><geoidheight>50.60</geoidheight><course>100.66199</course><type>1</type></trkpt>
      <trkpt lat="39.269440577769515" lon="-6.241671666317059"><ele>1048</ele><speed>10.57</speed><time>2016-06-01T16:18:57Z</time><pdop>6.0</pdop><geoidheight>50.60</geoidheight><course>99.54759</course><type>1</type></trkpt>
      <trkpt lat="39.26940302833477" lon="-6.241427900300208"><ele>1045</ele><speed>10.54</speed><time>2016-06-01T16:18:59Z</time><pdop>6.0</pdop><geoidheight>50.60</geoidheight><course>98.06563</course><type>1</type></trkpt>
      <trkpt lat="39.26936802737227" lon="-6.241201908416635"><ele>1042</ele><speed>9.98</speed><time>2016-06-01T16:19:01Z</time><pdop>6.0</pdop><geoidheight>50.60</geoidheight><course>99.64097</course><type>1</type></trkpt>
      <trkpt lat="39.26932869995369" lon="-6.240982613762194"><ele>1040</ele><speed>10.08</speed><time>2016-06-01T16:19:03Z</time><pdop>6.0</pdop><geoidheight>50.60</geoidheight><course>99.83813</course><type>1</type></trkpt>
      <trkpt lat="39.269287177296626" lon="-6.240744746984417"><ele>1037</ele><speed>11.36</speed><time>2016-06-01T16:19:05Z</time><pdop>6.0</pdop><geoidheight>50.60</geoidheight><course>99.822624</course><type>1</type></trkpt>
      <trkpt lat="39.26924978985942" lon="-6.240512590863825"><ele>1034</ele><speed>9.64</speed><time>2016-06-01T16:19:07Z</time><pdop>6.0</pdop><geoidheight>50.60</geoidheight><course>99.643364</course><type>1</type></trkpt>
      <trkpt lat="39.269208385558464" lon="-6.240321072343246"><ele>1032</ele><speed>7.79</speed><time>2016-06-01T16:19:09Z</time><pdop>6.0</pdop><geoidheight>50.60</geoidheight><course>104.59115</course><type>1</type></trkpt>
      <trkpt lat="39.269166987933396" lon="-6.240136660900961"><ele>1030</ele><speed>8.78</speed><time>2016-06-01T16:19:11Z</time><pdop>6.0</pdop><geoidheight>50.60</geoidheight><course>102.10312</course><type>1</type></trkpt>
      <trkpt lat="39.26916738738018" lon="-6.239931493838644"><ele>1026</ele><speed>11.02</speed><time>2016-06-01T16:19:13Z</time><pdop>6.0</pdop><geoidheight>50.60</geoidheight><course>88.33874</course><type>1</type></trkpt>
      <trkpt lat="39.269145686704945" lon="-6.239727506152544"><ele>1022</ele><speed>9.56</speed><time>2016-06-01T16:19:15Z</time><pdop>6.0</pdop><geoidheight>50.60</geoidheight><course>94.1038</course><type>1</type></trkpt>
      <trkpt lat="39.26911777194187" lon="-6.239528953484004"><ele>1017</ele><speed>9.09</speed><time>2016-06-01T16:19:17Z</time><pdop>6.0</pdop><geoidheight>50.60</geoidheight><course>96.3448</course><type>1</type></trkpt>
      <trkpt lat="39.26908831776419" lon="-6.239323553753969"><ele>1012</ele><speed>9.53</speed><time>2016-06-01T16:19:19Z</time><pdop>6.0</pdop><geoidheight>50.60</geoidheight><course>96.01171</course><type>1</type></trkpt>
      <trkpt lat="39.269072162345324" lon="-6.239115120389182"><ele>1008</ele><speed>9.80</speed><time>2016-06-01T16:19:21Z</time><pdop>6.0</pdop><geoidheight>50.60</geoidheight><course>92.92187</course><type>1</type></trkpt>
      <trkpt lat="39.26905423570696" lon="-6.23890456158472"><ele>1004</ele><speed>8.84</speed><time>2016-06-01T16:19:23Z</time><pdop>6.0</pdop><geoidheight>50.60</geoidheight><course>96.366905</course><type>1</type></trkpt>
      <trkpt lat="39.269027671248566" lon="-6.2387113100186165"><ele>1001</ele><speed>8.24</speed><time>2016-06-01T16:19:25Z</time><pdop>4.0</pdop><geoidheight>50.60</geoidheight><course>97.52857</course><type>1</type></trkpt>
      <trkpt lat="39.269016475159475" lon="-6.238493171802824"><ele>999</ele><speed>10.42</speed><time>2016-06-01T16:19:27Z</time><pdop>6.0</pdop><geoidheight>50.60</geoidheight><course>94.415344</course><type>1</type></trkpt>
      <trkpt lat="39.26897458603716" lon="-6.238274645410891"><ele>996</ele><speed>9.84</speed><time>2016-06-01T16:19:29Z</time><pdop>6.0</pdop><geoidheight>50.60</geoidheight><course>112.79362</course><type>1</type></trkpt>
      <trkpt lat="39.26894841565748" lon="-6.23808393318219"><ele>994</ele><speed>8.23</speed><time>2016-06-01T16:19:31Z</time><pdop>6.0</pdop><geoidheight>50.60</geoidheight><course>88.32352</course><type>1</type></trkpt>
      <trkpt lat="39.268957515521215" lon="-6.2378757113269065"><ele>992</ele><speed>9.53</speed><time>2016-06-01T16:19:33Z</time><pdop>6.0</pdop><geoidheight>50.60</geoidheight><course>86.826035</course><type>1</type></trkpt>
      <trkpt lat="39.268931692137414" lon="-6.237644698869916"><ele>990</ele><speed>9.98</speed><time>2016-06-01T16:19:35Z</time><pdop>8.0</pdop><geoidheight>50.60</geoidheight><course>107.072495</course><type>1</type></trkpt>
      <trkpt lat="39.26888442381589" lon="-6.237458230548845"><ele>990</ele><speed>7.46</speed><time>2016-06-01T16:19:37Z</time><pdop>6.0</pdop><geoidheight>50.60</geoidheight><course>103.44882</course><type>1</type></trkpt>
      <trkpt lat="39.26885432058481" lon="-6.237299240443677"><ele>988</ele><speed>8.87</speed><time>2016-06-01T16:19:39Z</time><pdop>6.0</pdop><geoidheight>50.60</geoidheight><course>98.14207</course><type>1</type></trkpt>
      <trkpt lat="39.26883322193572" lon="-6.23712124340474"><ele>984</ele><speed>8.50</speed><time>2016-06-01T16:19:41Z</time><pdop>6.0</pdop><geoidheight>50.60</geoidheight><course>95.93042</course><type>1</type></trkpt>
      <trkpt lat="39.268819895582325" lon="-6.236953612131687"><ele>981</ele><speed>7.95</speed><time>2016-06-01T16:19:43Z</time><pdop>6.0</pdop><geoidheight>50.60</geoidheight><course>93.38314</course><type>1</type></trkpt>
      <trkpt lat="39.26881320054186" lon="-6.236752384661787"><ele>978</ele><speed>8.65</speed><time>2016-06-01T16:19:45Z</time><pdop>6.0</pdop><geoidheight>50.60</geoidheight><course>91.09169</course><type>1</type></trkpt>
      <trkpt lat="39.26882629554913" lon="-6.2366103366168195"><ele>976</ele><speed>7.32</speed><time>2016-06-01T16:19:47Z</time><pdop>6.0</pdop><geoidheight>50.60</geoidheight><course>73.70265</course><type>1</type></trkpt>
      <trkpt lat="39.268864895075836" lon="-6.23642786518404"><ele>974</ele><speed>9.57</speed><time>2016-06-01T16:19:49Z</time><pdop>8.0</pdop><geoidheight>50.60</geoidheight><course>75.97729</course><type>1</type></trkpt>
      <trkpt lat="39.26890193040407" lon="-6.236239466008071"><ele>972</ele><speed>6.91</speed><time>2016-06-01T16:19:51Z</time><pdop>6.0</pdop><geoidheight>50.60</geoidheight><course>75.31249</course><type>1</type></trkpt>
      <trkpt lat="39.26892453753822" lon="-6.2360725254049285"><ele>970</ele><speed>7.86</speed><time>2016-06-01T16:19:53Z</time><pdop>6.0</pdop><geoidheight>50.60</geoidheight><course>80.0477</course><type>1</type></trkpt>
      <trkpt lat="39.26894080207769" lon="-6.235881979040317"><ele>968</ele><speed>9.44</speed><time>2016-06-01T16:19:55Z</time><pdop>6.0</pdop><geoidheight>50.60</geoidheight><course>80.26316</course><type>1</type></trkpt>
      <trkpt lat="39.268966207435454" lon="-6.235686664251163"><ele>964</ele><speed>8.31</speed><time>2016-06-01T16:19:57Z</time><pdop>6.0</pdop><geoidheight>50.60</geoidheight><course>78.11171</course><type>1</type></trkpt>
      <trkpt lat="39.269014197322896" lon="-6.235459879836249"><ele>960</ele><speed>7.09</speed><time>2016-06-01T16:20:00Z</time><pdop>8.0</pdop><geoidheight>50.60</geoidheight><course>71.47608</course><type>1</type></trkpt>
      <trkpt lat="39.2690603269857" lon="-6.235298335849582"><ele>958</ele><speed>8.47</speed><time>2016-06-01T16:20:02Z</time><pdop>6.0</pdop><geoidheight>50.60</geoidheight><course>71.02228</course><type>1</type></trkpt>
      <trkpt lat="39.269073928106494" lon="-6.2351186486201575"><ele>957</ele><speed>7.95</speed><time>2016-06-01T16:20:04Z</time><pdop>6.0</pdop><geoidheight>50.60</geoidheight><course>84.319016</course><type>1</type></trkpt>
      <trkpt lat="39.26909413095943" lon="-6.234939284633466"><ele>955</ele><speed>8.04</speed><time>2016-06-01T16:20:06Z</time><pdop>4.0</pdop><geoidheight>50.60</geoidheight><course>80.422905</course><type>1</type></trkpt>
      <trkpt lat="39.26912688143941" lon="-6.234767338934089"><ele>954</ele><speed>7.66</speed><time>2016-06-01T16:20:08Z</time><pdop>4.0</pdop><geoidheight>50.60</geoidheight><course>77.38416</course><type>1</type></trkpt>
      <trkpt lat="39.269137818594814" lon="-6.23459146757858"><ele>953</ele><speed>6.91</speed><time>2016-06-01T16:20:10Z</time><pdop>6.0</pdop><geoidheight>50.60</geoidheight><course>96.502014</course><type>1</type></trkpt>
      <trkpt lat="39.26912457965608" lon="-6.234430428863421"><ele>952</ele><speed>6.99</speed><time>2016-06-01T16:20:12Z</time><pdop>6.0</pdop><geoidheight>50.60</geoidheight><course>95.514755</course><type>1</type></trkpt>
      <trkpt lat="39.2691217659118" lon="-6.234246986182111"><ele>951</ele><speed>9.72</speed><time>2016-06-01T16:20:15Z</time><pdop>6.0</pdop><geoidheight>50.60</geoidheight><course>92.12203</course><type>1</type></trkpt>
      <trkpt lat="39.26913149270956" lon="-6.2340479996944005"><ele>948</ele><speed>8.36</speed><time>2016-06-01T16:20:16Z</time><pdop>6.0</pdop><geoidheight>50.60</geoidheight><course>87.8904</course><type>1</type></trkpt>
      <trkpt lat="39.26914852351202" lon="-6.233846116952849"><ele>946</ele><speed>8.45</speed><time>2016-06-01T16:20:18Z</time><pdop>8.0</pdop><geoidheight>50.60</geoidheight><course>85.03107</course><type>1</type></trkpt>
      <trkpt lat="39.26917695277577" lon="-6.233652512420781"><ele>944</ele><speed>7.67</speed><time>2016-06-01T16:20:21Z</time><pdop>8.0</pdop><geoidheight>50.60</geoidheight><course>79.804855</course><type>1</type></trkpt>
      <trkpt lat="39.269249059209194" lon="-6.2333988090083565"><ele>946</ele><speed>7.50</speed><time>2016-06-01T16:20:23Z</time><pdop>8.0</pdop><geoidheight>50.60</geoidheight><course>69.528076</course><type>1</type></trkpt>
      <trkpt lat="39.269324534950385" lon="-6.233223391464742"><ele>948</ele><speed>7.93</speed><time>2016-06-01T16:20:25Z</time><pdop>8.0</pdop><geoidheight>50.60</geoidheight><course>63.314426</course><type>1</type></trkpt>
      <trkpt lat="39.26940464150116" lon="-6.233057094133557"><ele>950</ele><speed>7.93</speed><time>2016-06-01T16:20:27Z</time><pdop>6.0</pdop><geoidheight>50.60</geoidheight><course>61.519974</course><type>1</type></trkpt>
      <trkpt lat="39.269495970649594" lon="-6.2329105803120095"><ele>953</ele><speed>7.62</speed><time>2016-06-01T16:20:29Z</time><pdop>6.0</pdop><geoidheight>50.60</geoidheight><course>46.95467</course><type>1</type></trkpt>
      <trkpt lat="39.26960275152157" lon="-6.232776887144415"><ele>955</ele><speed>8.25</speed><time>2016-06-01T16:20:31Z</time><pdop>4.0</pdop><geoidheight>50.60</geoidheight><course>45.817898</course><type>1</type></trkpt>
      <trkpt lat="39.2696646795817" lon="-6.232626530379163"><ele>957</ele><speed>8.35</speed><time>2016-06-01T16:20:33Z</time><pdop>4.0</pdop><geoidheight>50.60</geoidheight><course>79.10255</course><type>1</type></trkpt>
      <trkpt lat="39.269649807641265" lon="-6.23252037867724"><ele>957</ele><speed>10.99</speed><time>2016-06-01T16:20:34Z</time><pdop>4.0</pdop><geoidheight>50.60</geoidheight><course>101.22016</course><type>1</type></trkpt>
      <trkpt lat="39.26960739312682" lon="-6.232287547127428"><ele>956</ele><speed>10.40</speed><time>2016-06-01T16:20:36Z</time><pdop>8.0</pdop><geoidheight>50.60</geoidheight><course>103.74667</course><type>1</type></trkpt>
      <trkpt lat="39.26959310896772" lon="-6.232068053073967"><ele>955</ele><speed>9.23</speed><time>2016-06-01T16:20:38Z</time><pdop>8.0</pdop><geoidheight>50.60</geoidheight><course>83.11749</course><type>1</type></trkpt>
      <trkpt lat="39.269700684989076" lon="-6.231910760885365"><ele>953</ele><speed>8.96</speed><time>2016-06-01T16:20:40Z</time><pdop>8.0</pdop><geoidheight>50.60</geoidheight><course>36.55076</course><type>1</type></trkpt>
      <trkpt lat="39.26988441432004" lon="-6.23186067458838"><ele>952</ele><speed>4.06</speed><time>2016-06-01T16:20:44Z</time><pdop>8.0</pdop><geoidheight>50.60</geoidheight><course>348.04065</course><type>1</type></trkpt>
      <trkpt lat="39.269993986340445" lon="-6.231990432950149"><ele>946</ele><speed>5.48</speed><time>2016-06-01T16:20:48Z</time><pdop>6.0</pdop><geoidheight>50.60</geoidheight><course>305.80243</course><type>1</type></trkpt>
      <trkpt lat="39.27003601659971" lon="-6.232191591380576"><ele>942</ele><speed>6.06</speed><time>2016-06-01T16:20:51Z</time><pdop>6.0</pdop><geoidheight>50.60</geoidheight><course>275.24625</course><type>1</type></trkpt>
      <trkpt lat="39.270038574969696" lon="-6.23234577882779"><ele>939</ele><speed>7.17</speed><time>2016-06-01T16:20:53Z</time><pdop>6.0</pdop><geoidheight>50.60</geoidheight><course>270.2853</course><type>1</type></trkpt>
      <trkpt lat="39.27003392305072" lon="-6.232536230352534"><ele>935</ele><speed>8.80</speed><time>2016-06-01T16:20:55Z</time><pdop>6.0</pdop><geoidheight>50.60</geoidheight><course>266.9456</course><type>1</type></trkpt>
      <trkpt lat="39.26996793269697" lon="-6.232725031641544"><ele>930</ele><speed>8.36</speed><time>2016-06-01T16:20:57Z</time><pdop>6.0</pdop><geoidheight>50.60</geoidheight><course>235.3556</course><type>1</type></trkpt>
      <trkpt lat="39.269860351628026" lon="-6.232860008587969"><ele>928</ele><speed>8.45</speed><time>2016-06-01T16:20:59Z</time><pdop>6.0</pdop><geoidheight>50.60</geoidheight><course>220.34929</course><type>1</type></trkpt>
      <trkpt lat="39.269722109362114" lon="-6.232971236887114"><ele>927</ele><speed>10.32</speed><time>2016-06-01T16:21:01Z</time><pdop>4.0</pdop><geoidheight>50.60</geoidheight><course>204.22302</course><type>1</type></trkpt>
      <trkpt lat="39.26963656988052" lon="-6.233021595814333"><ele>927</ele><speed>10.64</speed><time>2016-06-01T16:21:02Z</time><pdop>4.0</pdop><geoidheight>50.60</geoidheight><course>202.47713</course><type>1</type></trkpt>
      <trkpt lat="39.269550915441734" lon="-6.233066609933828"><ele>927</ele><speed>10.39</speed><time>2016-06-01T16:21:03Z</time><pdop>4.0</pdop><geoidheight>50.60</geoidheight><course>201.09698</course><type>1</type></trkpt>
      <trkpt lat="39.26940154189887" lon="-6.233184564412039"><ele>928</ele><speed>9.76</speed><time>2016-06-01T16:21:05Z</time><pdop>6.0</pdop><geoidheight>50.60</geoidheight><course>219.21718</course><type>1</type></trkpt>
      <trkpt lat="39.26930479651093" lon="-6.233373011922935"><ele>929</ele><speed>8.97</speed><time>2016-06-01T16:21:07Z</time><pdop>6.0</pdop><geoidheight>50.60</geoidheight><course>247.45865</course><type>1</type></trkpt>
      <trkpt lat="39.269336073010514" lon="-6.233527663734493"><ele>932</ele><speed>7.37</speed><time>2016-06-01T16:21:09Z</time><pdop>6.0</pdop><geoidheight>50.60</geoidheight><course>309.78955</course><type>1</type></trkpt>
      <trkpt lat="39.26949344661222" lon="-6.233561260259845"><ele>936</ele><speed>6.35</speed><time>2016-06-01T16:21:12Z</time><pdop>6.0</pdop><geoidheight>50.60</geoidheight><course>27.90035</course><type>1</type></trkpt>
      <trkpt lat="39.26951218592438" lon="-6.233398767818474"><ele>940</ele><speed>9.82</speed><time>2016-06-01T16:21:14Z</time><pdop>6.0</pdop><geoidheight>50.60</geoidheight><course>95.17082</course><type>1</type></trkpt>
      <trkpt lat="39.26941269597646" lon="-6.233172575508405"><ele>943</ele><speed>10.88</speed><time>2016-06-01T16:21:16Z</time><pdop>6.0</pdop><geoidheight>50.60</geoidheight><course>131.0925</course><type>1</type></trkpt>
      <trkpt lat="39.26922195731527" lon="-6.233086738641053"><ele>948</ele><speed>11.67</speed><time>2016-06-01T16:21:19Z</time><pdop>6.0</pdop><geoidheight>50.60</geoidheight><course>177.62767</course><type>1</type></trkpt>
      <trkpt lat="39.26903816220217" lon="-6.233153692665191"><ele>953</ele><speed>10.47</speed><time>2016-06-01T16:21:21Z</time><pdop>6.0</pdop><geoidheight>50.60</geoidheight><course>202.23378</course><type>1</type></trkpt>
      <trkpt lat="39.268909823217236" lon="-6.233290180683627"><ele>959</ele><speed>8.91</speed><time>2016-06-01T16:21:22Z</time><pdop>4.0</pdop><geoidheight>50.60</geoidheight><course>225.4816</course><type>1</type></trkpt>
      <trkpt lat="39.26886928403142" lon="-6.233441466906515"><ele>965</ele><speed>7.57</speed><time>2016-06-01T16:21:24Z</time><pdop>6.0</pdop><geoidheight>50.60</geoidheight><course>274.30124</course><type>1</type></trkpt>
      <trkpt lat="39.26901989831961" lon="-6.233606340426135"><ele>971</ele><speed>6.37</speed><time>2016-06-01T16:21:28Z</time><pdop>6.0</pdop><geoidheight>50.60</geoidheight><course>352.7112</course><type>1</type></trkpt>
      <trkpt lat="39.2691565313952" lon="-6.233479354284363"><ele>975</ele><speed>6.88</speed><time>2016-06-01T16:21:31Z</time><pdop>8.0</pdop><geoidheight>50.60</geoidheight><course>54.60494</course><type>1</type></trkpt>
      <trkpt lat="39.2691610624159" lon="-6.2332012494910485"><ele>978</ele><speed>10.73</speed><time>2016-06-01T16:21:34Z</time><pdop>8.0</pdop><geoidheight>50.60</geoidheight><course>110.88458</course><type>1</type></trkpt>
      <trkpt lat="39.2690396779056" lon="-6.233009020790352"><ele>980</ele><speed>11.64</speed><time>2016-06-01T16:21:36Z</time><pdop>8.0</pdop><geoidheight>50.60</geoidheight><course>132.81659</course><type>1</type></trkpt>
      <trkpt lat="39.2688870018508" lon="-6.2329244702642805"><ele>982</ele><speed>9.86</speed><time>2016-06-01T16:21:38Z</time><pdop>6.0</pdop><geoidheight>50.60</geoidheight><course>168.1362</course><type>1</type></trkpt>
      <trkpt lat="39.268704854480184" lon="-6.232903213058133"><ele>984</ele><speed>10.33</speed><time>2016-06-01T16:21:40Z</time><pdop>6.0</pdop><geoidheight>50.60</geoidheight><course>186.99376</course><type>1</type></trkpt>
      <trkpt lat="39.268516599320655" lon="-6.232976521639803"><ele>986</ele><speed>11.13</speed><time>2016-06-01T16:21:43Z</time><pdop>6.0</pdop><geoidheight>50.60</geoidheight><course>209.3766</course><type>1</type></trkpt>
      <trkpt lat="39.26841157181849" lon="-6.233130891341385"><ele>988</ele><speed>8.34</speed><time>2016-06-01T16:21:44Z</time><pdop>6.0</pdop><geoidheight>50.60</geoidheight><course>241.48543</course><type>1</type></trkpt>
      <trkpt lat="39.26846431282505" lon="-6.233270332623577"><ele>992</ele><speed>6.35</speed><time>2016-06-01T16:21:47Z</time><pdop>6.0</pdop><geoidheight>50.60</geoidheight><course>342.0136</course><type>1</type></trkpt>
      <trkpt lat="39.26856202347699" lon="-6.233161966693871"><ele>996</ele><speed>7.86</speed><time>2016-06-01T16:21:51Z</time><pdop>6.0</pdop><geoidheight>50.60</geoidheight><course>65.54327</course><type>1</type></trkpt>
      <trkpt lat="39.26861772755108" lon="-6.23300079542595"><ele>1000</ele><speed>6.53</speed><time>2016-06-01T16:21:53Z</time><pdop>8.0</pdop><geoidheight>50.60</geoidheight><course>64.2564</course><type>1</type></trkpt>
      <trkpt lat="39.26867723358335" lon="-6.232755749859817"><ele>1005</ele><speed>7.80</speed><time>2016-06-01T16:21:56Z</time><pdop>6.0</pdop><geoidheight>50.60</geoidheight><course>82.7985</course><type>1</type></trkpt>
      <trkpt lat="39.26870354409829" lon="-6.23260313704306"><ele>1008</ele><speed>5.57</speed><time>2016-06-01T16:21:58Z</time><pdop>6.0</pdop><geoidheight>50.60</geoidheight><course>78.05915</course><type>1</type></trkpt>
      <trkpt lat="39.268813385120964" lon="-6.232439922568913"><ele>1012</ele><speed>5.32</speed><time>2016-06-01T16:22:01Z</time><pdop>6.0</pdop><geoidheight>50.60</geoidheight><course>35.475185</course><type>1</type></trkpt>
      <trkpt lat="39.26897053463903" lon="-6.232418477624416"><ele>1016</ele><speed>4.99</speed><time>2016-06-01T16:22:04Z</time><pdop>8.0</pdop><geoidheight>50.60</geoidheight><course>358.00787</course><type>1</type></trkpt>
      <trkpt lat="39.26910483013893" lon="-6.232266841338663"><ele>1019</ele><speed>8.26</speed><time>2016-06-01T16:22:07Z</time><pdop>8.0</pdop><geoidheight>50.60</geoidheight><course>61.83547</course><type>1</type></trkpt>
      <trkpt lat="39.26910777458298" lon="-6.232034425701745"><ele>1017</ele><speed>10.93</speed><time>2016-06-01T16:22:09Z</time><pdop>8.0</pdop><geoidheight>50.60</geoidheight><course>113.61822</course><type>1</type></trkpt>
      <trkpt lat="39.268896487117225" lon="-6.231935517939631"><ele>1017</ele><speed>12.40</speed><time>2016-06-01T16:22:11Z</time><pdop>8.0</pdop><geoidheight>50.60</geoidheight><course>178.39961</course><type>1</type></trkpt>
      <trkpt lat="39.26868996071407" lon="-6.232036490300402"><ele>1018</ele><speed>8.47</speed><time>2016-06-01T16:22:13Z</time><pdop>6.0</pdop><geoidheight>50.60</geoidheight><course>204.95638</course><type>1</type></trkpt>
      <trkpt lat="39.26853072312657" lon="-6.23213790858375"><ele>1019</ele><speed>8.50</speed><time>2016-06-01T16:22:15Z</time><pdop>6.0</pdop><geoidheight>50.60</geoidheight><course>208.35117</course><type>1</type></trkpt>
      <trkpt lat="39.26845305194414" lon="-6.232282494430243"><ele>1020</ele><speed>8.23</speed><time>2016-06-01T16:22:17Z</time><pdop>6.0</pdop><geoidheight>50.60</geoidheight><course>252.939</course><type>1</type></trkpt>
      <trkpt lat="39.2684123469531" lon="-6.232452823034587"><ele>1021</ele><speed>7.45</speed><time>2016-06-01T16:22:20Z</time><pdop>6.0</pdop><geoidheight>50.60</geoidheight><course>256.1232</course><type>1</type></trkpt>
      <trkpt lat="39.26831348883905" lon="-6.232688716906046"><ele>1023</ele><speed>7.79</speed><time>2016-06-01T16:22:22Z</time><pdop>6.0</pdop><geoidheight>50.60</geoidheight><course>240.54247</course><type>1</type></trkpt>
      <trkpt lat="39.26829062916523" lon="-6.232854964407171"><ele>1025</ele><speed>6.49</speed><time>2016-06-01T16:22:24Z</time><pdop>6.0</pdop><geoidheight>50.60</geoidheight><course>273.23892</course><type>1</type></trkpt>
      <trkpt lat="39.26834147057055" lon="-6.232977858875414"><ele>1027</ele><speed>6.74</speed><time>2016-06-01T16:22:26Z</time><pdop>6.0</pdop><geoidheight>50.60</geoidheight><course>317.63773</course><type>1</type></trkpt>
      <trkpt lat="39.26846542837087" lon="-6.232931676272267"><ele>1028</ele><speed>8.15</speed><time>2016-06-01T16:22:29Z</time><pdop>6.0</pdop><geoidheight>50.60</geoidheight><course>54.660812</course><type>1</type></trkpt>
      <trkpt lat="39.26850994470717" lon="-6.232775735311289"><ele>1024</ele><speed>8.38</speed><time>2016-06-01T16:22:31Z</time><pdop>8.0</pdop><geoidheight>50.60</geoidheight><course>68.77313</course><type>1</type></trkpt>
      <trkpt lat="39.26835274447552" lon="-6.232606303812702"><ele>1021</ele><speed>12.49</speed><time>2016-06-01T16:22:33Z</time><pdop>8.0</pdop><geoidheight>50.60</geoidheight><course>150.42984</course><type>1</type></trkpt>
      <trkpt lat="39.26813062749511" lon="-6.23253888064198"><ele>1017</ele><speed>11.88</speed><time>2016-06-01T16:22:35Z</time><pdop>6.0</pdop><geoidheight>50.60</geoidheight><course>173.4481</course><type>1</type></trkpt>
      <trkpt lat="39.268018950938355" lon="-6.232531741091103"><ele>1016</ele><speed>11.34</speed><time>2016-06-01T16:22:36Z</time><pdop>6.0</pdop><geoidheight>50.60</geoidheight><course>177.48622</course><type>1</type></trkpt>
      <trkpt lat="39.26780797507342" lon="-6.232584319323247"><ele>1014</ele><speed>12.02</speed><time>2016-06-01T16:22:38Z</time><pdop>6.0</pdop><geoidheight>50.60</geoidheight><course>190.48079</course><type>1</type></trkpt>
      <trkpt lat="39.26769752816486" lon="-6.232604415462128"><ele>1013</ele><speed>12.21</speed><time>2016-06-01T16:22:39Z</time><pdop>6.0</pdop><geoidheight>50.60</geoidheight><course>187.94249</course><type>1</type></trkpt>
      <trkpt lat="39.26759005445033" lon="-6.232620475239741"><ele>1013</ele><speed>11.57</speed><time>2016-06-01T16:22:40Z</time><pdop>6.0</pdop><geoidheight>50.60</geoidheight><course>186.7884</course><type>1</type></trkpt>
      <trkpt lat="39.26738425056472" lon="-6.232653505287277"><ele>1014</ele><speed>11.10</speed><time>2016-06-01T16:22:42Z</time><pdop>6.0</pdop><geoidheight>50.60</geoidheight><course>188.34079</course><type>1</type></trkpt>
      <trkpt lat="39.267181032489056" lon="-6.232698767825609"><ele>1016</ele><speed>11.34</speed><time>2016-06-01T16:22:44Z</time><pdop>6.0</pdop><geoidheight>50.60</geoidheight><course>191.13652</course><type>1</type></trkpt>
      <trkpt lat="39.26698876619343" lon="-6.232768585792984"><ele>1018</ele><speed>10.41</speed><time>2016-06-01T16:22:46Z</time><pdop>6.0</pdop><geoidheight>50.60</geoidheight><course>196.54912</course><type>1</type></trkpt>
      <trkpt lat="39.26681835773339" lon="-6.232839512771044"><ele>1021</ele><speed>9.53</speed><time>2016-06-01T16:22:48Z</time><pdop>12.0</pdop><geoidheight>50.60</geoidheight><course>194.69098</course><type>1</type></trkpt>
      <trkpt lat="39.26664112915227" lon="-6.232879501219612"><ele>1024</ele><speed>11.07</speed><time>2016-06-01T16:22:50Z</time><pdop>6.0</pdop><geoidheight>50.60</geoidheight><course>187.6044</course><type>1</type></trkpt>
      <trkpt lat="39.26653351283726" lon="-6.232856404141835"><ele>1026</ele><speed>11.40</speed><time>2016-06-01T16:22:51Z</time><pdop>6.0</pdop><geoidheight>50.60</geoidheight><course>170.09439</course><type>1</type></trkpt>
      <trkpt lat="39.26632989761819" lon="-6.232708445789932"><ele>1030</ele><speed>12.49</speed><time>2016-06-01T16:22:53Z</time><pdop>8.0</pdop><geoidheight>50.60</geoidheight><course>146.52701</course><type>1</type></trkpt>
      <trkpt lat="39.26628894242323" lon="-6.232445154959878"><ele>1033</ele><speed>10.46</speed><time>2016-06-01T16:22:55Z</time><pdop>8.0</pdop><geoidheight>50.60</geoidheight><course>86.69365</course><type>1</type></trkpt>
      <trkpt lat="39.26641704252461" lon="-6.2322453443698755"><ele>1036</ele><speed>5.94</speed><time>2016-06-01T16:22:58Z</time><pdop>12.0</pdop><geoidheight>50.60</geoidheight><course>17.076214</course><type>1</type></trkpt>
      <trkpt lat="39.26655852356905" lon="-6.232389527548072"><ele>1045</ele><speed>5.98</speed><time>2016-06-01T16:23:05Z</time><pdop>8.0</pdop><geoidheight>50.60</geoidheight><course>263.87927</course><type>1</type></trkpt>
      <trkpt lat="39.266411211036974" lon="-6.232610089262672"><ele>1050</ele><speed>11.35</speed><time>2016-06-01T16:23:07Z</time><pdop>8.0</pdop><geoidheight>50.60</geoidheight><course>210.99666</course><type>1</type></trkpt>
      <trkpt lat="39.26616019410845" lon="-6.232640880317547"><ele>1053</ele><speed>14.67</speed><time>2016-06-01T16:23:09Z</time><pdop>8.0</pdop><geoidheight>50.60</geoidheight><course>174.98445</course><type>1</type></trkpt>
      <trkpt lat="39.26602861138989" lon="-6.232444901230832"><ele>1054</ele><speed>13.15</speed><time>2016-06-01T16:23:11Z</time><pdop>12.0</pdop><geoidheight>50.60</geoidheight><course>117.69074</course><type>1</type></trkpt>
      <trkpt lat="39.266116519651625" lon="-6.2321395832298565"><ele>1056</ele><speed>7.89</speed><time>2016-06-01T16:23:14Z</time><pdop>8.0</pdop><geoidheight>50.60</geoidheight><course>49.46871</course><type>1</type></trkpt>
      <trkpt lat="39.26627372093192" lon="-6.232145207837688"><ele>1062</ele><speed>6.16</speed><time>2016-06-01T16:23:18Z</time><pdop>8.0</pdop><geoidheight>50.60</geoidheight><course>286.69604</course><type>1</type></trkpt>
      <trkpt lat="39.26613688728901" lon="-6.232381845596506"><ele>1067</ele><speed>10.83</speed><time>2016-06-01T16:23:22Z</time><pdop>8.0</pdop><geoidheight>50.60</geoidheight><course>210.66774</course><type>1</type></trkpt>
      <trkpt lat="39.26591248275672" lon="-6.2324366967846"><ele>1071</ele><speed>12.74</speed><time>2016-06-01T16:23:23Z</time><pdop>8.0</pdop><geoidheight>50.60</geoidheight><course>187.72981</course><type>1</type></trkpt>
      <trkpt lat="39.26575699411536" lon="-6.232275112555806"><ele>1073</ele><speed>11.62</speed><time>2016-06-01T16:23:25Z</time><pdop>8.0</pdop><geoidheight>50.60</geoidheight><course>113.20308</course><type>1</type></trkpt>
      <trkpt lat="39.265689464751155" lon="-6.23205757716821"><ele>1077</ele><speed>9.37</speed><time>2016-06-01T16:23:27Z</time><pdop>8.0</pdop><geoidheight>50.60</geoidheight><course>93.63047</course><type>1</type></trkpt>
      <trkpt lat="39.26569804432738" lon="-6.231834159169399"><ele>1079</ele><speed>8.45</speed><time>2016-06-01T16:23:29Z</time><pdop>8.0</pdop><geoidheight>50.60</geoidheight><course>75.81413</course><type>1</type></trkpt>
      <trkpt lat="39.26582520007715" lon="-6.231620404050298"><ele>1083</ele><speed>6.17</speed><time>2016-06-01T16:23:32Z</time><pdop>8.0</pdop><geoidheight>50.60</geoidheight><course>31.199625</course><type>1</type></trkpt>
      <trkpt lat="39.26592854037169" lon="-6.231818958771744"><ele>1087</ele><speed>8.91</speed><time>2016-06-01T16:23:38Z</time><pdop>8.0</pdop><geoidheight>50.60</geoidheight><course>233.08736</course><type>1</type></trkpt>
      <trkpt lat="39.26577988439542" lon="-6.231965078866794"><ele>1088</ele><speed>10.76</speed><time>2016-06-01T16:23:41Z</time><pdop>12.0</pdop><geoidheight>50.60</geoidheight><course>207.4929</course><type>1</type></trkpt>
      <trkpt lat="39.26558822630429" lon="-6.232036337735594"><ele>1089</ele><speed>11.69</speed><time>2016-06-01T16:23:42Z</time><pdop>8.0</pdop><geoidheight>50.60</geoidheight><course>191.54346</course><type>1</type></trkpt>
      <trkpt lat="39.26540834466747" lon="-6.232118390148237"><ele>1090</ele><speed>10.88</speed><time>2016-06-01T16:23:44Z</time><pdop>8.0</pdop><geoidheight>50.60</geoidheight><course>205.0552</course><type>1</type></trkpt>
      <trkpt lat="39.26526766425435" lon="-6.23229470698164"><ele>1092</ele><speed>10.59</speed><time>2016-06-01T16:23:46Z</time><pdop>6.0</pdop><geoidheight>50.60</geoidheight><course>233.02783</course><type>1</type></trkpt>
      <trkpt lat="39.26518063775952" lon="-6.232463501309503"><ele>1094</ele><speed>8.46</speed><time>2016-06-01T16:23:49Z</time><pdop>6.0</pdop><geoidheight>50.60</geoidheight><course>250.03334</course><type>1</type></trkpt>
      <trkpt lat="39.26514999656474" lon="-6.232618865331885"><ele>1097</ele><speed>6.42</speed><time>2016-06-01T16:23:50Z</time><pdop>6.0</pdop><geoidheight>50.60</geoidheight><course>269.9918</course><type>1</type></trkpt>
      <trkpt lat="39.26518353837597" lon="-6.232779369505603"><ele>1100</ele><speed>4.81</speed><time>2016-06-01T16:23:53Z</time><pdop>6.0</pdop><geoidheight>50.60</geoidheight><course>314.12234</course><type>1</type></trkpt>
      <trkpt lat="39.26532778430231" lon="-6.232802928647518"><ele>1099</ele><speed>5.12</speed><time>2016-06-01T16:23:58Z</time><pdop>8.0</pdop><geoidheight>50.60</geoidheight><course>8.187866</course><type>1</type></trkpt>
      <trkpt lat="39.26547213942667" lon="-6.232730068174744"><ele>1095</ele><speed>5.55</speed><time>2016-06-01T16:24:00Z</time><pdop>6.0</pdop><geoidheight>50.60</geoidheight><course>24.794733</course><type>1</type></trkpt>
      <trkpt lat="39.26560185463434" lon="-6.232648258402354"><ele>1091</ele><speed>6.24</speed><time>2016-06-01T16:24:03Z</time><pdop>6.0</pdop><geoidheight>50.60</geoidheight><course>27.328093</course><type>1</type></trkpt>
      <trkpt lat="39.265662200499186" lon="-6.232427069499024"><ele>1087</ele><speed>8.91</speed><time>2016-06-01T16:24:07Z</time><pdop>8.0</pdop><geoidheight>50.60</geoidheight><course>87.8054</course><type>1</type></trkpt>
      <trkpt lat="39.2656384739844" lon="-6.232224698919778"><ele>1084</ele><speed>10.94</speed><time>2016-06-01T16:24:08Z</time><pdop>8.0</pdop><geoidheight>50.60</geoidheight><course>108.88188</course><type>1</type></trkpt>
      <trkpt lat="39.26548848921581" lon="-6.232023278713587"><ele>1081</ele><speed>14.51</speed><time>2016-06-01T16:24:10Z</time><pdop>8.0</pdop><geoidheight>50.60</geoidheight><course>147.96928</course><type>1</type></trkpt>
      <trkpt lat="39.26536811361241" lon="-6.231969353600206"><ele>1079</ele><speed>15.28</speed><time>2016-06-01T16:24:11Z</time><pdop>6.0</pdop><geoidheight>50.60</geoidheight><course>163.6032</course><type>1</type></trkpt>
      <trkpt lat="39.26526005206519" lon="-6.231939467405166"><ele>1077</ele><speed>13.98</speed><time>2016-06-01T16:24:12Z</time><pdop>6.0</pdop><geoidheight>50.60</geoidheight><course>167.46953</course><type>1</type></trkpt>
      <trkpt lat="39.26514983123803" lon="-6.2319469919518955"><ele>1075</ele><speed>12.56</speed><time>2016-06-01T16:24:13Z</time><pdop>6.0</pdop><geoidheight>50.60</geoidheight><course>183.40137</course><type>1</type></trkpt>
      <trkpt lat="39.265041692786674" lon="-6.231954481372041"><ele>1073</ele><speed>11.46</speed><time>2016-06-01T16:24:14Z</time><pdop>6.0</pdop><geoidheight>50.60</geoidheight><course>183.48164</course><type>1</type></trkpt>
      <trkpt lat="39.26483143470463" lon="-6.231973317429914"><ele>1072</ele><speed>10.89</speed><time>2016-06-01T16:24:16Z</time><pdop>8.0</pdop><geoidheight>50.60</geoidheight><course>184.27612</course><type>1</type></trkpt>
      <trkpt lat="39.26464565351796" lon="-6.2320736629195075"><ele>1070</ele><speed>10.96</speed><time>2016-06-01T16:24:18Z</time><pdop>6.0</pdop><geoidheight>50.60</geoidheight><course>209.3974</course><type>1</type></trkpt>
      <trkpt lat="39.26453666124035" lon="-6.23224829918937"><ele>1069</ele><speed>9.58</speed><time>2016-06-01T16:24:20Z</time><pdop>6.0</pdop><geoidheight>50.60</geoidheight><course>244.89584</course><type>1</type></trkpt>
      <trkpt lat="39.26453999944746" lon="-6.2324113394776655"><ele>1068</ele><speed>6.42</speed><time>2016-06-01T16:24:23Z</time><pdop>6.0</pdop><geoidheight>50.60</geoidheight><course>292.6192</course><type>1</type></trkpt>
      <trkpt lat="39.26462522823316" lon="-6.232497019133894"><ele>1067</ele><speed>4.96</speed><time>2016-06-01T16:24:25Z</time><pdop>6.0</pdop><geoidheight>50.60</geoidheight><course>345.07452</course><type>1</type></trkpt>
      <trkpt lat="39.264733422604884" lon="-6.232534445921622"><ele>1065</ele><speed>3.92</speed><time>2016-06-01T16:24:28Z</time><pdop>6.0</pdop><geoidheight>50.60</geoidheight><course>343.0045</course><type>1</type></trkpt>
      <trkpt lat="39.26482416961643" lon="-6.232629058654839"><ele>1062</ele><speed>5.56</speed><time>2016-06-01T16:24:32Z</time><pdop>6.0</pdop><geoidheight>50.60</geoidheight><course>308.32803</course><type>1</type></trkpt>
      <trkpt lat="39.26489264117152" lon="-6.232749370890829"><ele>1059</ele><speed>6.52</speed><time>2016-06-01T16:24:33Z</time><pdop>6.0</pdop><geoidheight>50.60</geoidheight><course>302.5961</course><type>1</type></trkpt>
      <trkpt lat="39.264991189682796" lon="-6.232925430848359"><ele>1054</ele><speed>5.08</speed><time>2016-06-01T16:24:36Z</time><pdop>8.0</pdop><geoidheight>50.60</geoidheight><course>315.6864</course><type>1</type></trkpt>
      <trkpt lat="39.26513482858047" lon="-6.232979258166941"><ele>1051</ele><speed>6.01</speed><time>2016-06-01T16:24:39Z</time><pdop>6.0</pdop><geoidheight>50.60</geoidheight><course>2.0789552</course><type>1</type></trkpt>
      <trkpt lat="39.265272511116194" lon="-6.232959431945002"><ele>1049</ele><speed>8.21</speed><time>2016-06-01T16:24:41Z</time><pdop>6.0</pdop><geoidheight>50.60</geoidheight><course>8.40051</course><type>1</type></trkpt>
      <trkpt lat="39.26540769906144" lon="-6.232913004848143"><ele>1048</ele><speed>6.56</speed><time>2016-06-01T16:24:43Z</time><pdop>6.0</pdop><geoidheight>50.60</geoidheight><course>15.175684</course><type>1</type></trkpt>
      <trkpt lat="39.265537131487505" lon="-6.232858625536149"><ele>1046</ele><speed>4.31</speed><time>2016-06-01T16:24:46Z</time><pdop>6.0</pdop><geoidheight>50.60</geoidheight><course>12.245127</course><type>1</type></trkpt>
      <trkpt lat="39.26566936052478" lon="-6.232838537789893"><ele>1046</ele><speed>5.55</speed><time>2016-06-01T16:24:49Z</time><pdop>6.0</pdop><geoidheight>50.60</geoidheight><course>5.3739204</course><type>1</type></trkpt>
      <trkpt lat="39.26579305532476" lon="-6.2328619578489155"><ele>1046</ele><speed>4.21</speed><time>2016-06-01T16:24:52Z</time><pdop>6.0</pdop><geoidheight>50.60</geoidheight><course>351.2145</course><type>1</type></trkpt>
      <trkpt lat="39.26587924104682" lon="-6.232728714530656"><ele>1047</ele><speed>8.52</speed><time>2016-06-01T16:24:55Z</time><pdop>6.0</pdop><geoidheight>50.60</geoidheight><course>71.73756</course><type>1</type></trkpt>
      <trkpt lat="39.26589370752244" lon="-6.232506469729351"><ele>1045</ele><speed>11.68</speed><time>2016-06-01T16:24:57Z</time><pdop>8.0</pdop><geoidheight>50.60</geoidheight><course>94.39247</course><type>1</type></trkpt>
      <trkpt lat="39.26585783743113" lon="-6.232260113790472"><ele>1042</ele><speed>10.88</speed><time>2016-06-01T16:24:59Z</time><pdop>8.0</pdop><geoidheight>50.60</geoidheight><course>101.8729</course><type>1</type></trkpt>
      <trkpt lat="39.265802621775364" lon="-6.2320305611262725"><ele>1040</ele><speed>11.05</speed><time>2016-06-01T16:25:01Z</time><pdop>6.0</pdop><geoidheight>50.60</geoidheight><course>103.29751</course><type>1</type></trkpt>
      <trkpt lat="39.26574719630008" lon="-6.2317640193018216"><ele>1038</ele><speed>13.23</speed><time>2016-06-01T16:25:03Z</time><pdop>6.0</pdop><geoidheight>50.60</geoidheight><course>101.43908</course><type>1</type></trkpt>
      <trkpt lat="39.265717335680144" lon="-6.23161924310466"><ele>1036</ele><speed>13.44</speed><time>2016-06-01T16:25:04Z</time><pdop>6.0</pdop><geoidheight>50.60</geoidheight><course>102.29427</course><type>1</type></trkpt>
      <trkpt lat="39.26568350625318" lon="-6.231485939486077"><ele>1035</ele><speed>12.54</speed><time>2016-06-01T16:25:05Z</time><pdop>6.0</pdop><geoidheight>50.60</geoidheight><course>104.348495</course><type>1</type></trkpt>
      <trkpt lat="39.265604534075045" lon="-6.231227629296955"><ele>1033</ele><speed>11.40</speed><time>2016-06-01T16:25:07Z</time><pdop>6.0</pdop><geoidheight>50.60</geoidheight><course>108.970345</course><type>1</type></trkpt>
      <trkpt lat="39.26552243992554" lon="-6.230962917900367"><ele>1031</ele><speed>13.02</speed><time>2016-06-01T16:25:09Z</time><pdop>6.0</pdop><geoidheight>50.60</geoidheight><course>106.55188</course><type>1</type></trkpt>
      <trkpt lat="39.265489644803615" lon="-6.2308267435801055"><ele>1030</ele><speed>13.34</speed><time>2016-06-01T16:25:10Z</time><pdop>6.0</pdop><geoidheight>50.60</geoidheight><course>104.793465</course><type>1</type></trkpt>
      <trkpt lat="39.2654563873471" lon="-6.230683344001657"><ele>1028</ele><speed>12.76</speed><time>2016-06-01T16:25:11Z</time><pdop>6.0</pdop><geoidheight>50.60</geoidheight><course>106.46645</course><type>1</type></trkpt>
      <trkpt lat="39.265386399038235" lon="-6.230444088717447"><ele>1026</ele><speed>10.88</speed><time>2016-06-01T16:25:13Z</time><pdop>6.0</pdop><geoidheight>50.60</geoidheight><course>111.27956</course><type>1</type></trkpt>
      <trkpt lat="39.265308349404556" lon="-6.230198707548039"><ele>1025</ele><speed>11.94</speed><time>2016-06-01T16:25:15Z</time><pdop>6.0</pdop><geoidheight>50.60</geoidheight><course>109.55777</course><type>1</type></trkpt>
      <trkpt lat="39.26527334887174" lon="-6.230063255525599"><ele>1024</ele><speed>12.70</speed><time>2016-06-01T16:25:16Z</time><pdop>6.0</pdop><geoidheight>50.60</geoidheight><course>107.66701</course><type>1</type></trkpt>
      <trkpt lat="39.265242525458326" lon="-6.2299256488438"><ele>1023</ele><speed>12.27</speed><time>2016-06-01T16:25:17Z</time><pdop>6.0</pdop><geoidheight>50.60</geoidheight><course>106.08053</course><type>1</type></trkpt>
      <trkpt lat="39.26521437896593" lon="-6.22978779149774"><ele>1022</ele><speed>11.31</speed><time>2016-06-01T16:25:18Z</time><pdop>6.0</pdop><geoidheight>50.60</geoidheight><course>104.78647</course><type>1</type></trkpt>
      <trkpt lat="39.26516791764868" lon="-6.229546378309641"><ele>1020</ele><speed>10.72</speed><time>2016-06-01T16:25:20Z</time><pdop>4.0</pdop><geoidheight>50.60</geoidheight><course>103.60943</course><type>1</type></trkpt>
      <trkpt lat="39.26514842388542" lon="-6.229429781585276"><ele>1019</ele><speed>11.12</speed><time>2016-06-01T16:25:21Z</time><pdop>4.0</pdop><geoidheight>50.60</geoidheight><course>102.33964</course><type>1</type></trkpt>
      <trkpt lat="39.26512677280451" lon="-6.229310290732084"><ele>1018</ele><speed>11.36</speed><time>2016-06-01T16:25:22Z</time><pdop>4.0</pdop><geoidheight>50.60</geoidheight><course>101.77102</course><type>1</type></trkpt>
      <trkpt lat="39.265105092370064" lon="-6.229188861133473"><ele>1017</ele><speed>11.28</speed><time>2016-06-01T16:25:23Z</time><pdop>4.0</pdop><geoidheight>50.60</geoidheight><course>101.26638</course><type>1</type></trkpt>
      <trkpt lat="39.26508302355252" lon="-6.229067372271438"><ele>1015</ele><speed>11.12</speed><time>2016-06-01T16:25:24Z</time><pdop>4.0</pdop><geoidheight>50.60</geoidheight><course>101.131454</course><type>1</type></trkpt>
      <trkpt lat="39.265060967950504" lon="-6.2289494675629316"><ele>1014</ele><speed>10.83</speed><time>2016-06-01T16:25:25Z</time><pdop>4.0</pdop><geoidheight>50.60</geoidheight><course>101.509575</course><type>1</type></trkpt>
      <trkpt lat="39.26503834704041" lon="-6.228831620439807"><ele>1013</ele><speed>10.66</speed><time>2016-06-01T16:25:26Z</time><pdop>4.0</pdop><geoidheight>50.60</geoidheight><course>102.01453</course><type>1</type></trkpt>
      <trkpt lat="39.265011873928394" lon="-6.228716815934545"><ele>1012</ele><speed>10.39</speed><time>2016-06-01T16:25:27Z</time><pdop>4.0</pdop><geoidheight>50.60</geoidheight><course>103.706955</course><type>1</type></trkpt>
      <trkpt lat="39.26498245223362" lon="-6.228598038167494"><ele>1011</ele><speed>10.84</speed><time>2016-06-01T16:25:28Z</time><pdop>4.0</pdop><geoidheight>50.60</geoidheight><course>104.72227</course><type>1</type></trkpt>
      <trkpt lat="39.2649515402664" lon="-6.228470706311646"><ele>1010</ele><speed>11.81</speed><time>2016-06-01T16:25:29Z</time><pdop>4.0</pdop><geoidheight>50.60</geoidheight><course>104.64166</course><type>1</type></trkpt>
      <trkpt lat="39.26492133248503" lon="-6.22834271824066"><ele>1009</ele><speed>11.73</speed><time>2016-06-01T16:25:30Z</time><pdop>4.0</pdop><geoidheight>50.60</geoidheight><course>105.57171</course><type>1</type></trkpt>
      <trkpt lat="39.26488759259041" lon="-6.228220948955277"><ele>1009</ele><speed>10.83</speed><time>2016-06-01T16:25:31Z</time><pdop>4.0</pdop><geoidheight>50.60</geoidheight><course>107.84336</course><type>1</type></trkpt>
      <trkpt lat="39.26485705860681" lon="-6.22810644695813"><ele>1008</ele><speed>10.05</speed><time>2016-06-01T16:25:32Z</time><pdop>6.0</pdop><geoidheight>50.60</geoidheight><course>108.2925</course><type>1</type></trkpt>
      <trkpt lat="39.264802161574444" lon="-6.227923399358926"><ele>1009</ele><speed>8.39</speed><time>2016-06-01T16:25:34Z</time><pdop>6.0</pdop><geoidheight>50.60</geoidheight><course>108.32581</course><type>1</type></trkpt>
      <trkpt lat="39.26478300326307" lon="-6.227643374985506"><ele>1012</ele><speed>7.16</speed><time>2016-06-01T16:25:37Z</time><pdop>8.0</pdop><geoidheight>50.60</geoidheight><course>89.87858</course><type>1</type></trkpt>
      <trkpt lat="39.26485724104156" lon="-6.22742104141691"><ele>1017</ele><speed>6.52</speed><time>2016-06-01T16:25:40Z</time><pdop>8.0</pdop><geoidheight>50.60</geoidheight><course>47.167618</course><type>1</type></trkpt>
      <trkpt lat="39.2649874945381" lon="-6.227297077888131"><ele>1017</ele><speed>5.45</speed><time>2016-06-01T16:25:44Z</time><pdop>6.0</pdop><geoidheight>50.60</geoidheight><course>15.412056</course><type>1</type></trkpt>
      <trkpt lat="39.26510317150885" lon="-6.227372608670491"><ele>1016</ele><speed>7.58</speed><time>2016-06-01T16:25:46Z</time><pdop>6.0</pdop><geoidheight>50.60</geoidheight><course>300.04752</course><type>1</type></trkpt>
      <trkpt lat="39.26508082214803" lon="-6.227554281506556"><ele>1016</ele><speed>7.89</speed><time>2016-06-01T16:25:48Z</time><pdop>8.0</pdop><geoidheight>50.60</geoidheight><course>249.10773</course><type>1</type></trkpt>
      <trkpt lat="39.26492872484052" lon="-6.2277622015065495"><ele>1016</ele><speed>10.69</speed><time>2016-06-01T16:25:51Z</time><pdop>6.0</pdop><geoidheight>50.60</geoidheight><course>214.92786</course><type>1</type></trkpt>
      <trkpt lat="39.2647212350046" lon="-6.227804294537851"><ele>1014</ele><speed>12.64</speed><time>2016-06-01T16:25:53Z</time><pdop>8.0</pdop><geoidheight>50.60</geoidheight><course>184.837</course><type>1</type></trkpt>
      <trkpt lat="39.26451149335103" lon="-6.227752497254778"><ele>1010</ele><speed>12.94</speed><time>2016-06-01T16:25:55Z</time><pdop>8.0</pdop><geoidheight>50.60</geoidheight><course>164.33391</course><type>1</type></trkpt>
      <trkpt lat="39.26431171572705" lon="-6.227672947237107"><ele>1009</ele><speed>11.27</speed><time>2016-06-01T16:25:57Z</time><pdop>4.0</pdop><geoidheight>50.60</geoidheight><course>160.18405</course><type>1</type></trkpt>
      <trkpt lat="39.264117325342525" lon="-6.227573899727399"><ele>1009</ele><speed>11.68</speed><time>2016-06-01T16:25:59Z</time><pdop>8.0</pdop><geoidheight>50.60</geoidheight><course>158.71927</course><type>1</type></trkpt>
      <trkpt lat="39.26394372785883" lon="-6.227487353174742"><ele>1011</ele><speed>10.57</speed><time>2016-06-01T16:26:01Z</time><pdop>6.0</pdop><geoidheight>50.60</geoidheight><course>158.36462</course><type>1</type></trkpt>
      <trkpt lat="39.263767969296154" lon="-6.227388373890151"><ele>1015</ele><speed>10.19</speed><time>2016-06-01T16:26:03Z</time><pdop>6.0</pdop><geoidheight>50.60</geoidheight><course>157.00046</course><type>1</type></trkpt>
      <trkpt lat="39.263683205192706" lon="-6.227337672227883"><ele>1016</ele><speed>10.03</speed><time>2016-06-01T16:26:04Z</time><pdop>4.0</pdop><geoidheight>50.60</geoidheight><course>157.54059</course><type>1</type></trkpt>
      <trkpt lat="39.26359941602759" lon="-6.227288034811431"><ele>1018</ele><speed>9.96</speed><time>2016-06-01T16:26:05Z</time><pdop>4.0</pdop><geoidheight>50.60</geoidheight><course>158.25864</course><type>1</type></trkpt>
      <trkpt lat="39.26351736138345" lon="-6.227238799761726"><ele>1019</ele><speed>10.07</speed><time>2016-06-01T16:26:06Z</time><pdop>4.0</pdop><geoidheight>50.60</geoidheight><course>157.3848</course><type>1</type></trkpt>
      <trkpt lat="39.26344329971084" lon="-6.227168819835557"><ele>1020</ele><speed>10.07</speed><time>2016-06-01T16:26:07Z</time><pdop>4.0</pdop><geoidheight>50.60</geoidheight><course>143.94067</course><type>1</type></trkpt>
      <trkpt lat="39.26334451981637" lon="-6.227005172038595"><ele>1023</ele><speed>8.74</speed><time>2016-06-01T16:26:09Z</time><pdop>6.0</pdop><geoidheight>50.60</geoidheight><course>114.51526</course><type>1</type></trkpt>
      <trkpt lat="39.26333371136338" lon="-6.226808155205192"><ele>1026</ele><speed>8.31</speed><time>2016-06-01T16:26:11Z</time><pdop>6.0</pdop><geoidheight>50.60</geoidheight><course>84.1403</course><type>1</type></trkpt>
      <trkpt lat="39.263384050956795" lon="-6.226612104548747"><ele>1029</ele><speed>7.10</speed><time>2016-06-01T16:26:13Z</time><pdop>6.0</pdop><geoidheight>50.60</geoidheight><course>59.99519</course><type>1</type></trkpt>
      <trkpt lat="39.26348269287667" lon="-6.22652598846031"><ele>1033</ele><speed>6.95</speed><time>2016-06-01T16:26:16Z</time><pdop>6.0</pdop><geoidheight>50.60</geoidheight><course>20.981813</course><type>1</type></trkpt>
      <trkpt lat="39.263594468216766" lon="-6.226553610143647"><ele>1035</ele><speed>7.48</speed><time>2016-06-01T16:26:17Z</time><pdop>6.0</pdop><geoidheight>50.60</geoidheight><course>334.85147</course><type>1</type></trkpt>
      <trkpt lat="39.26367940595546" lon="-6.226750711313959"><ele>1038</ele><speed>8.64</speed><time>2016-06-01T16:26:20Z</time><pdop>8.0</pdop><geoidheight>50.60</geoidheight><course>268.87888</course><type>1</type></trkpt>
      <trkpt lat="39.263621000115116" lon="-6.226945248266971"><ele>1041</ele><speed>9.59</speed><time>2016-06-01T16:26:22Z</time><pdop>8.0</pdop><geoidheight>50.60</geoidheight><course>235.85046</course><type>1</type></trkpt>
      <trkpt lat="39.2634828377914" lon="-6.227085574875672"><ele>1044</ele><speed>10.42</speed><time>2016-06-01T16:26:24Z</time><pdop>6.0</pdop><geoidheight>50.60</geoidheight><course>207.9466</course><type>1</type></trkpt>
      <trkpt lat="39.2632852266807" lon="-6.22715852522504"><ele>1048</ele><speed>11.60</speed><time>2016-06-01T16:26:26Z</time><pdop>6.0</pdop><geoidheight>50.60</geoidheight><course>190.6305</course><type>1</type></trkpt>
      <trkpt lat="39.26309809612666" lon="-6.2271347561988"><ele>1050</ele><speed>10.66</speed><time>2016-06-01T16:26:28Z</time><pdop>4.0</pdop><geoidheight>50.60</geoidheight><course>171.45029</course><type>1</type></trkpt>
      <trkpt lat="39.26301670564719" lon="-6.227095261213377"><ele>1051</ele><speed>9.91</speed><time>2016-06-01T16:26:29Z</time><pdop>4.0</pdop><geoidheight>50.60</geoidheight><course>158.14899</course><type>1</type></trkpt>
      <trkpt lat="39.26294635586655" lon="-6.227035744036679"><ele>1053</ele><speed>9.23</speed><time>2016-06-01T16:26:30Z</time><pdop>4.0</pdop><geoidheight>50.60</geoidheight><course>141.45256</course><type>1</type></trkpt>
      <trkpt lat="39.2628678261712" lon="-6.226844887926111"><ele>1055</ele><speed>10.31</speed><time>2016-06-01T16:26:32Z</time><pdop>6.0</pdop><geoidheight>50.60</geoidheight><course>104.81073</course><type>1</type></trkpt>
      <trkpt lat="39.26288563985971" lon="-6.226649655933805"><ele>1058</ele><speed>8.21</speed><time>2016-06-01T16:26:34Z</time><pdop>6.0</pdop><geoidheight>50.60</geoidheight><course>65.84676</course><type>1</type></trkpt>
      <trkpt lat="39.263001849557654" lon="-6.226553984000686"><ele>1061</ele><speed>7.61</speed><time>2016-06-01T16:26:36Z</time><pdop>8.0</pdop><geoidheight>50.60</geoidheight><course>11.806447</course><type>1</type></trkpt>
      <trkpt lat="39.26316602940611" lon="-6.226636544981859"><ele>1065</ele><speed>7.05</speed><time>2016-06-01T16:26:39Z</time><pdop>6.0</pdop><geoidheight>50.60</geoidheight><course>311.8148</course><type>1</type></trkpt>
      <trkpt lat="39.26316561632025" lon="-6.226783467851454"><ele>1068</ele><speed>8.30</speed><time>2016-06-01T16:26:41Z</time><pdop>6.0</pdop><geoidheight>50.60</geoidheight><course>264.87213</course><type>1</type></trkpt>
      <trkpt lat="39.26309505810911" lon="-6.2269876556666715"><ele>1070</ele><speed>9.93</speed><time>2016-06-01T16:26:43Z</time><pdop>8.0</pdop><geoidheight>50.60</geoidheight><course>238.47487</course><type>1</type></trkpt>
      <trkpt lat="39.26292935158846" lon="-6.227145655958803"><ele>1072</ele><speed>10.93</speed><time>2016-06-01T16:26:45Z</time><pdop>8.0</pdop><geoidheight>50.60</geoidheight><course>204.69098</course><type>1</type></trkpt>
      <trkpt lat="39.262761353615915" lon="-6.227157270860338"><ele>1074</ele><speed>10.82</speed><time>2016-06-01T16:26:47Z</time><pdop>8.0</pdop><geoidheight>50.60</geoidheight><course>171.85931</course><type>1</type></trkpt>
      <trkpt lat="39.26258369066279" lon="-6.227073272283963"><ele>1076</ele><speed>10.74</speed><time>2016-06-01T16:26:49Z</time><pdop>8.0</pdop><geoidheight>50.60</geoidheight><course>143.75102</course><type>1</type></trkpt>
      <trkpt lat="39.26247752786213" lon="-6.226887938236095"><ele>1078</ele><speed>9.09</speed><time>2016-06-01T16:26:52Z</time><pdop>6.0</pdop><geoidheight>50.60</geoidheight><course>120.842575</course><type>1</type></trkpt>
      <trkpt lat="39.26245734720281" lon="-6.2266908368801355"><ele>1081</ele><speed>7.64</speed><time>2016-06-01T16:26:53Z</time><pdop>8.0</pdop><geoidheight>50.60</geoidheight><course>79.614426</course><type>1</type></trkpt>
      <trkpt lat="39.26257969616944" lon="-6.22650380228233"><ele>1087</ele><speed>6.35</speed><time>2016-06-01T16:26:56Z</time><pdop>8.0</pdop><geoidheight>50.60</geoidheight><course>15.6217165</course><type>1</type></trkpt>
      <trkpt lat="39.262699687249125" lon="-6.226690143482583"><ele>1090</ele><speed>9.73</speed><time>2016-06-01T16:26:59Z</time><pdop>8.0</pdop><geoidheight>50.60</geoidheight><course>275.3116</course><type>1</type></trkpt>
      <trkpt lat="39.262653264846044" lon="-6.22691657243656"><ele>1089</ele><speed>8.34</speed><time>2016-06-01T16:27:02Z</time><pdop>6.0</pdop><geoidheight>50.60</geoidheight><course>238.53717</course><type>1</type></trkpt>
      <trkpt lat="39.26256071937282" lon="-6.227062529641196"><ele>1092</ele><speed>8.84</speed><time>2016-06-01T16:27:03Z</time><pdop>6.0</pdop><geoidheight>50.60</geoidheight><course>217.22533</course><type>1</type></trkpt>
      <trkpt lat="39.26238264899539" lon="-6.227127453141975"><ele>1096</ele><speed>11.15</speed><time>2016-06-01T16:27:05Z</time><pdop>6.0</pdop><geoidheight>50.60</geoidheight><course>185.06161</course><type>1</type></trkpt>
      <trkpt lat="39.262184481111554" lon="-6.2270718044928"><ele>1100</ele><speed>11.05</speed><time>2016-06-01T16:27:07Z</time><pdop>8.0</pdop><geoidheight>50.60</geoidheight><course>142.96661</course><type>1</type></trkpt>
      <trkpt lat="39.26207330082942" lon="-6.226901700485658"><ele>1105</ele><speed>9.15</speed><time>2016-06-01T16:27:10Z</time><pdop>6.0</pdop><geoidheight>50.60</geoidheight><course>121.20607</course><type>1</type></trkpt>
      <trkpt lat="39.262071673223836" lon="-6.226711821214617"><ele>1110</ele><speed>7.59</speed><time>2016-06-01T16:27:11Z</time><pdop>8.0</pdop><geoidheight>50.60</geoidheight><course>77.16262</course><type>1</type></trkpt>
      <trkpt lat="39.26219398559169" lon="-6.226553635283102"><ele>1117</ele><speed>5.51</speed><time>2016-06-01T16:27:14Z</time><pdop>8.0</pdop><geoidheight>50.60</geoidheight><course>10.080009</course><type>1</type></trkpt>
      <trkpt lat="39.262289394092164" lon="-6.226668605415203"><ele>1122</ele><speed>8.21</speed><time>2016-06-01T16:27:17Z</time><pdop>6.0</pdop><geoidheight>50.60</geoidheight><course>300.26923</course><type>1</type></trkpt>
      <trkpt lat="39.26231446437786" lon="-6.226836009798175"><ele>1125</ele><speed>8.17</speed><time>2016-06-01T16:27:19Z</time><pdop>6.0</pdop><geoidheight>50.60</geoidheight><course>276.72116</course><type>1</type></trkpt>
      <trkpt lat="39.262287611500064" lon="-6.227019915278605"><ele>1127</ele><speed>8.07</speed><time>2016-06-01T16:27:22Z</time><pdop>6.0</pdop><geoidheight>50.60</geoidheight><course>252.50595</course><type>1</type></trkpt>
      <trkpt lat="39.26218792148134" lon="-6.227169793496904"><ele>1130</ele><speed>9.76</speed><time>2016-06-01T16:27:23Z</time><pdop>6.0</pdop><geoidheight>50.60</geoidheight><course>224.39021</course><type>1</type></trkpt>
      <trkpt lat="39.261977404966395" lon="-6.22721964630628"><ele>1131</ele><speed>12.76</speed><time>2016-06-01T16:27:25Z</time><pdop>8.0</pdop><geoidheight>50.60</geoidheight><course>179.26125</course><type>1</type></trkpt>
      <trkpt lat="39.26179260361127" lon="-6.227095896410213"><ele>1132</ele><speed>12.45</speed><time>2016-06-01T16:27:27Z</time><pdop>8.0</pdop><geoidheight>50.60</geoidheight><course>137.4526</course><type>1</type></trkpt>
      <trkpt lat="39.26170597682002" lon="-6.226906411161432"><ele>1133</ele><speed>9.99</speed><time>2016-06-01T16:27:29Z</time><pdop>8.0</pdop><geoidheight>50.60</geoidheight><course>120.23752</course><type>1</type></trkpt>
      <trkpt lat="39.26162240644984" lon="-6.226711674453536"><ele>1135</ele><speed>9.29</speed><time>2016-06-01T16:27:31Z</time><pdop>6.0</pdop><geoidheight>50.60</geoidheight><course>122.267426</course><type>1</type></trkpt>
      <trkpt lat="39.261548123587794" lon="-6.22652339322464"><ele>1137</ele><speed>8.35</speed><time>2016-06-01T16:27:33Z</time><pdop>6.0</pdop><geoidheight>50.60</geoidheight><course>117.990906</course><type>1</type></trkpt>
      <trkpt lat="39.26158983221878" lon="-6.226333093645982"><ele>1140</ele><speed>8.22</speed><time>2016-06-01T16:27:35Z</time><pdop>6.0</pdop><geoidheight>50.60</geoidheight><course>51.92214</course><type>1</type></trkpt>
      <trkpt lat="39.26177616197938" lon="-6.226319331795098"><ele>1143</ele><speed>9.64</speed><time>2016-06-01T16:27:39Z</time><pdop>8.0</pdop><geoidheight>50.60</geoidheight><course>341.37714</course><type>1</type></trkpt>
      <trkpt lat="39.26169998370044" lon="-6.226563117784708"><ele>1146</ele><speed>8.11</speed><time>2016-06-01T16:27:42Z</time><pdop>8.0</pdop><geoidheight>50.60</geoidheight><course>228.48428</course><type>1</type></trkpt>
      <trkpt lat="39.26152453959793" lon="-6.2267634386807575"><ele>1147</ele><speed>11.95</speed><time>2016-06-01T16:27:44Z</time><pdop>8.0</pdop><geoidheight>50.60</geoidheight><course>207.67946</course><type>1</type></trkpt>
      <trkpt lat="39.26132014941074" lon="-6.226838194782268"><ele>1149</ele><speed>11.98</speed><time>2016-06-01T16:27:46Z</time><pdop>8.0</pdop><geoidheight>50.60</geoidheight><course>189.85371</course><type>1</type></trkpt>
      <trkpt lat="39.26112436545389" lon="-6.226757599382463"><ele>1154</ele><speed>10.67</speed><time>2016-06-01T16:27:48Z</time><pdop>8.0</pdop><geoidheight>50.60</geoidheight><course>155.24811</course><type>1</type></trkpt>
      <trkpt lat="39.26095948550762" lon="-6.226625195583"><ele>1157</ele><speed>10.58</speed><time>2016-06-01T16:27:50Z</time><pdop>6.0</pdop><geoidheight>50.60</geoidheight><course>137.76424</course><type>1</type></trkpt>
      <trkpt lat="39.26087399180358" lon="-6.226431188090361"><ele>1161</ele><speed>9.53</speed><time>2016-06-01T16:27:52Z</time><pdop>6.0</pdop><geoidheight>50.60</geoidheight><course>108.90428</course><type>1</type></trkpt>
      <trkpt lat="39.26080429920499" lon="-6.2260997232019895"><ele>1166</ele><speed>9.80</speed><time>2016-06-01T16:27:55Z</time><pdop>6.0</pdop><geoidheight>50.60</geoidheight><course>116.59621</course><type>1</type></trkpt>
      <trkpt lat="39.26066430814911" lon="-6.22596336455925"><ele>1169</ele><speed>12.53</speed><time>2016-06-01T16:27:57Z</time><pdop>6.0</pdop><geoidheight>50.60</geoidheight><course>162.20468</course><type>1</type></trkpt>
      <trkpt lat="39.2605472583239" lon="-6.225956702168412"><ele>1171</ele><speed>13.61</speed><time>2016-06-01T16:27:58Z</time><pdop>6.0</pdop><geoidheight>50.60</geoidheight><course>181.60893</course><type>1</type></trkpt>
      <trkpt lat="39.26036129713806" lon="-6.226061735033753"><ele>1174</ele><speed>11.14</speed><time>2016-06-01T16:28:00Z</time><pdop>6.0</pdop><geoidheight>50.60</geoidheight><course>217.32774</course><type>1</type></trkpt>
      <trkpt lat="39.260309504900896" lon="-6.2262120704457775"><ele>1177</ele><speed>8.10</speed><time>2016-06-01T16:28:02Z</time><pdop>8.0</pdop><geoidheight>50.60</geoidheight><course>262.33054</course><type>1</type></trkpt>
      <trkpt lat="39.26029498177471" lon="-6.226383371405463"><ele>1181</ele><speed>7.21</speed><time>2016-06-01T16:28:04Z</time><pdop>6.0</pdop><geoidheight>50.60</geoidheight><course>281.59314</course><type>1</type></trkpt>
      <trkpt lat="39.260344924634566" lon="-6.226537575343408"><ele>1185</ele><speed>7.00</speed><time>2016-06-01T16:28:06Z</time><pdop>6.0</pdop><geoidheight>50.60</geoidheight><course>308.8359</course><type>1</type></trkpt>
      <trkpt lat="39.260451840821304" lon="-6.2265956707452865"><ele>1189</ele><speed>7.87</speed><time>2016-06-01T16:28:08Z</time><pdop>6.0</pdop><geoidheight>50.60</geoidheight><course>352.62283</course><type>1</type></trkpt>
      <trkpt lat="39.26051791154443" lon="-6.226435549504596"><ele>1192</ele><speed>9.34</speed><time>2016-06-01T16:28:12Z</time><pdop>8.0</pdop><geoidheight>50.60</geoidheight><course>93.04346</course><type>1</type></trkpt>
      <trkpt lat="39.260443817480926" lon="-6.2262294661526"><ele>1195</ele><speed>10.48</speed><time>2016-06-01T16:28:13Z</time><pdop>8.0</pdop><geoidheight>50.60</geoidheight><course>123.92877</course><type>1</type></trkpt>
      <trkpt lat="39.26033478288916" lon="-6.226125978751649"><ele>1198</ele><speed>10.22</speed><time>2016-06-01T16:28:15Z</time><pdop>6.0</pdop><geoidheight>50.60</geoidheight><course>164.74374</course><type>1</type></trkpt>
      <trkpt lat="39.26017221761635" lon="-6.226144970018058"><ele>1202</ele><speed>10.45</speed><time>2016-06-01T16:28:17Z</time><pdop>6.0</pdop><geoidheight>50.60</geoidheight><course>199.35806</course><type>1</type></trkpt>
      <trkpt lat="39.26004405000799" lon="-6.226257518435939"><ele>1206</ele><speed>9.05</speed><time>2016-06-01T16:28:19Z</time><pdop>6.0</pdop><geoidheight>50.60</geoidheight><course>223.65305</course><type>1</type></trkpt>
      <trkpt lat="39.2599873910822" lon="-6.226390518548182"><ele>1210</ele><speed>7.27</speed><time>2016-06-01T16:28:21Z</time><pdop>6.0</pdop><geoidheight>50.60</geoidheight><course>259.3743</course><type>1</type></trkpt>
      <trkpt lat="39.25999536475248" lon="-6.2265316811015765"><ele>1215</ele><speed>7.50</speed><time>2016-06-01T16:28:23Z</time><pdop>6.0</pdop><geoidheight>50.60</geoidheight><course>295.03104</course><type>1</type></trkpt>
      <trkpt lat="39.26010703183678" lon="-6.226621281245663"><ele>1221</ele><speed>6.12</speed><time>2016-06-01T16:28:26Z</time><pdop>6.0</pdop><geoidheight>50.60</geoidheight><course>11.7242</course><type>1</type></trkpt>
      <trkpt lat="39.260143570309296" lon="-6.226405504525553"><ele>1227</ele><speed>10.35</speed><time>2016-06-01T16:28:30Z</time><pdop>6.0</pdop><geoidheight>50.60</geoidheight><course>97.70926</course><type>1</type></trkpt>
      <trkpt lat="39.26000985533577" lon="-6.226198338250379"><ele>1228</ele><speed>12.38</speed><time>2016-06-01T16:28:31Z</time><pdop>8.0</pdop><geoidheight>50.60</geoidheight><course>148.05084</course><type>1</type></trkpt>
      <trkpt lat="39.259810887801365" lon="-6.226189705610588"><ele>1231</ele><speed>9.04</speed><time>2016-06-01T16:28:33Z</time><pdop>8.0</pdop><geoidheight>50.60</geoidheight><course>192.72314</course><type>1</type></trkpt>
      <trkpt lat="39.25964880794778" lon="-6.226224972653436"><ele>1234</ele><speed>8.46</speed><time>2016-06-01T16:28:35Z</time><pdop>6.0</pdop><geoidheight>50.60</geoidheight><course>190.67175</course><type>1</type></trkpt>
      <trkpt lat="39.25946942201626" lon="-6.226288685189634"><ele>1236</ele><speed>12.51</speed><time>2016-06-01T16:28:37Z</time><pdop>8.0</pdop><geoidheight>50.60</geoidheight><course>195.1154</course><type>1</type></trkpt>
      <trkpt lat="39.25932083619675" lon="-6.226475927645785"><ele>1238</ele><speed>10.44</speed><time>2016-06-01T16:28:39Z</time><pdop>8.0</pdop><geoidheight>50.60</geoidheight><course>222.83513</course><type>1</type></trkpt>
      <trkpt lat="39.2592369338046" lon="-6.226659671406292"><ele>1240</ele><speed>8.14</speed><time>2016-06-01T16:28:42Z</time><pdop>8.0</pdop><geoidheight>50.60</geoidheight><course>239.2306</course><type>1</type></trkpt>
      <trkpt lat="39.25921583257928" lon="-6.226851114590628"><ele>1243</ele><speed>9.25</speed><time>2016-06-01T16:28:43Z</time><pdop>6.0</pdop><geoidheight>50.60</geoidheight><course>278.60983</course><type>1</type></trkpt>
      <trkpt lat="39.25936756947458" lon="-6.226928633918118"><ele>1251</ele><speed>6.52</speed><time>2016-06-01T16:28:47Z</time><pdop>12.0</pdop><geoidheight>50.60</geoidheight><course>25.435019</course><type>1</type></trkpt>
      <trkpt lat="39.25946691624892" lon="-6.226670079730634"><ele>1253</ele><speed>8.61</speed><time>2016-06-01T16:28:51Z</time><pdop>8.0</pdop><geoidheight>50.60</geoidheight><course>60.243145</course><type>1</type></trkpt>
      <trkpt lat="39.259489712563685" lon="-6.226437598469776"><ele>1251</ele><speed>11.68</speed><time>2016-06-01T16:28:53Z</time><pdop>8.0</pdop><geoidheight>50.60</geoidheight><course>88.88191</course><type>1</type></trkpt>
      <trkpt lat="39.25944643028622" lon="-6.226162658490285"><ele>1250</ele><speed>11.35</speed><time>2016-06-01T16:28:55Z</time><pdop>8.0</pdop><geoidheight>50.60</geoidheight><course>104.533295</course><type>1</type></trkpt>
      <trkpt lat="39.25937969437461" lon="-6.225921622213255"><ele>1251</ele><speed>10.55</speed><time>2016-06-01T16:28:56Z</time><pdop>6.0</pdop><geoidheight>50.60</geoidheight><course>110.22439</course><type>1</type></trkpt>
      <trkpt lat="39.259297803037704" lon="-6.225709964756946"><ele>1252</ele><speed>10.27</speed><time>2016-06-01T16:28:58Z</time><pdop>6.0</pdop><geoidheight>50.60</geoidheight><course>115.23511</course><type>1</type></trkpt>
      <trkpt lat="39.25920768808674" lon="-6.2254993425050955"><ele>1254</ele><speed>9.36</speed><time>2016-06-01T16:29:00Z</time><pdop>8.0</pdop><geoidheight>50.60</geoidheight><course>117.57494</course><type>1</type></trkpt>
      <trkpt lat="39.25908257742518" lon="-6.225317088791261"><ele>1257</ele><speed>9.12</speed><time>2016-06-01T16:29:02Z</time><pdop>6.0</pdop><geoidheight>50.60</geoidheight><course>133.56062</course><type>1</type></trkpt>
      <trkpt lat="39.25891827498882" lon="-6.225209904011255"><ele>1259</ele><speed>13.40</speed><time>2016-06-01T16:29:04Z</time><pdop>8.0</pdop><geoidheight>50.60</geoidheight><course>167.8448</course><type>1</type></trkpt>
      <trkpt lat="39.25868914241782" lon="-6.22525352090555"><ele>1261</ele><speed>12.09</speed><time>2016-06-01T16:29:06Z</time><pdop>8.0</pdop><geoidheight>50.60</geoidheight><course>191.65727</course><type>1</type></trkpt>
      <trkpt lat="39.25855117376336" lon="-6.225405358221948"><ele>1263</ele><speed>8.88</speed><time>2016-06-01T16:29:09Z</time><pdop>8.0</pdop><geoidheight>50.60</geoidheight><course>234.50392</course><type>1</type></trkpt>
      <trkpt lat="39.25849708125785" lon="-6.225651795448667"><ele>1268</ele><speed>7.49</speed><time>2016-06-01T16:29:11Z</time><pdop>6.0</pdop><geoidheight>50.60</geoidheight><course>273.2209</course><type>1</type></trkpt>
      <trkpt lat="39.25858785229664" lon="-6.225780460675431"><ele>1270</ele><speed>6.16</speed><time>2016-06-01T16:29:14Z</time><pdop>8.0</pdop><geoidheight>50.60</geoidheight><course>344.79684</course><type>1</type></trkpt>
      <trkpt lat="39.25875637453601" lon="-6.22569677281621"><ele>1275</ele><speed>4.51</speed><time>2016-06-01T16:29:18Z</time><pdop>8.0</pdop><geoidheight>50.60</geoidheight><course>39.102074</course><type>1</type></trkpt>
      <trkpt lat="39.25879998103916" lon="-6.225414519915936"><ele>1280</ele><speed>14.80</speed><time>2016-06-01T16:29:21Z</time><pdop>8.0</pdop><geoidheight>50.60</geoidheight><course>106.78754</course><type>1</type></trkpt>
      <trkpt lat="39.25864640081417" lon="-6.22517730215157"><ele>1282</ele><speed>14.17</speed><time>2016-06-01T16:29:23Z</time><pdop>8.0</pdop><geoidheight>50.60</geoidheight><course>144.66524</course><type>1</type></trkpt>
      <trkpt lat="39.25844681845084" lon="-6.225119475359079"><ele>1283</ele><speed>11.11</speed><time>2016-06-01T16:29:25Z</time><pdop>8.0</pdop><geoidheight>50.60</geoidheight><course>173.72238</course><type>1</type></trkpt>
      <trkpt lat="39.25827171686015" lon="-6.225108502648496"><ele>1283</ele><speed>10.21</speed><time>2016-06-01T16:29:27Z</time><pdop>6.0</pdop><geoidheight>50.60</geoidheight><course>175.27705</course><type>1</type></trkpt>
      <trkpt lat="39.258079674549975" lon="-6.225167148144162"><ele>1285</ele><speed>11.67</speed><time>2016-06-01T16:29:30Z</time><pdop>6.0</pdop><geoidheight>50.60</geoidheight><course>196.42514</course><type>1</type></trkpt>
      <trkpt lat="39.25791796940682" lon="-6.225323570744213"><ele>1287</ele><speed>11.00</speed><time>2016-06-01T16:29:32Z</time><pdop>6.0</pdop><geoidheight>50.60</geoidheight><course>219.89064</course><type>1</type></trkpt>
      <trkpt lat="39.257761509804425" lon="-6.225478785465731"><ele>1291</ele><speed>9.59</speed><time>2016-06-01T16:29:33Z</time><pdop>6.0</pdop><geoidheight>50.60</geoidheight><course>220.0207</course><type>1</type></trkpt>
      <trkpt lat="39.257635894850274" lon="-6.2256471352998215"><ele>1296</ele><speed>8.85</speed><time>2016-06-01T16:29:35Z</time><pdop>6.0</pdop><geoidheight>50.60</geoidheight><course>235.47406</course><type>1</type></trkpt>
      <trkpt lat="39.25757949824914" lon="-6.225822611643016"><ele>1301</ele><speed>7.99</speed><time>2016-06-01T16:29:37Z</time><pdop>6.0</pdop><geoidheight>50.60</geoidheight><course>260.95383</course><type>1</type></trkpt>
      <trkpt lat="39.257668078593554" lon="-6.225704189513608"><ele>1307</ele><speed>10.58</speed><time>2016-06-01T16:29:43Z</time><pdop>8.0</pdop><geoidheight>50.60</geoidheight><course>85.679306</course><type>1</type></trkpt>
      <trkpt lat="39.25756962950235" lon="-6.225449823617882"><ele>1308</ele><speed>15.49</speed><time>2016-06-01T16:29:46Z</time><pdop>12.0</pdop><geoidheight>50.60</geoidheight><course>130.5086</course><type>1</type></trkpt>
      <trkpt lat="39.257270626757034" lon="-6.225311489529921"><ele>1311</ele><speed>11.72</speed><time>2016-06-01T16:29:48Z</time><pdop>6.0</pdop><geoidheight>50.60</geoidheight><course>182.04004</course><type>1</type></trkpt>
      <trkpt lat="39.25710183567119" lon="-6.225314844154675"><ele>1315</ele><speed>9.47</speed><time>2016-06-01T16:29:50Z</time><pdop>6.0</pdop><geoidheight>50.60</geoidheight><course>185.78358</course><type>1</type></trkpt>
      <trkpt lat="39.25692610465723" lon="-6.2253693068383384"><ele>1320</ele><speed>10.32</speed><time>2016-06-01T16:29:52Z</time><pdop>8.0</pdop><geoidheight>50.60</geoidheight><course>206.01018</course><type>1</type></trkpt>
      <trkpt lat="39.256780183827736" lon="-6.225489100395947"><ele>1323</ele><speed>8.67</speed><time>2016-06-01T16:29:54Z</time><pdop>6.0</pdop><geoidheight>50.60</geoidheight><course>220.78862</course><type>1</type></trkpt>
      <trkpt lat="39.25672632723" lon="-6.225615399787752"><ele>1327</ele><speed>5.03</speed><time>2016-06-01T16:29:56Z</time><pdop>6.0</pdop><geoidheight>50.60</geoidheight><course>265.18738</course><type>1</type></trkpt>
      <trkpt lat="39.256837778452905" lon="-6.225639728592277"><ele>1332</ele><speed>6.40</speed><time>2016-06-01T16:30:00Z</time><pdop>6.0</pdop><geoidheight>50.60</geoidheight><course>46.933838</course><type>1</type></trkpt>
      <trkpt lat="39.256891862605386" lon="-6.225404249231041"><ele>1335</ele><speed>8.61</speed><time>2016-06-01T16:30:03Z</time><pdop>8.0</pdop><geoidheight>50.60</geoidheight><course>90.56487</course><type>1</type></trkpt>
      <trkpt lat="39.25681405177921" lon="-6.225160363663349"><ele>1336</ele><speed>13.46</speed><time>2016-06-01T16:30:06Z</time><pdop>8.0</pdop><geoidheight>50.60</geoidheight><course>121.663246</course><type>1</type></trkpt>
      <trkpt lat="39.256684931107" lon="-6.224894119400439"><ele>1338</ele><speed>12.86</speed><time>2016-06-01T16:30:08Z</time><pdop>8.0</pdop><geoidheight>50.60</geoidheight><course>124.75183</course><type>1</type></trkpt>
      <trkpt lat="39.25651930658654" lon="-6.224774186780278"><ele>1342</ele><speed>10.84</speed><time>2016-06-01T16:30:09Z</time><pdop>6.0</pdop><geoidheight>50.60</geoidheight><course>150.90617</course><type>1</type></trkpt>
      <trkpt lat="39.25634225921343" lon="-6.224667051858743"><ele>1345</ele><speed>10.50</speed><time>2016-06-01T16:30:11Z</time><pdop>6.0</pdop><geoidheight>50.60</geoidheight><course>152.1277</course><type>1</type></trkpt>
      <trkpt lat="39.25616796244613" lon="-6.224580117351184"><ele>1350</ele><speed>10.59</speed><time>2016-06-01T16:30:13Z</time><pdop>6.0</pdop><geoidheight>50.60</geoidheight><course>166.69272</course><type>1</type></trkpt>
      <trkpt lat="39.25597594993331" lon="-6.224626298591955"><ele>1353</ele><speed>11.28</speed><time>2016-06-01T16:30:15Z</time><pdop>8.0</pdop><geoidheight>50.60</geoidheight><course>204.03714</course><type>1</type></trkpt>
      <trkpt lat="39.25584488772718" lon="-6.224779335401156"><ele>1354</ele><speed>9.16</speed><time>2016-06-01T16:30:18Z</time><pdop>8.0</pdop><geoidheight>50.60</geoidheight><course>227.44604</course><type>1</type></trkpt>
      <trkpt lat="39.2557543728882" lon="-6.224924062029878"><ele>1355</ele><speed>7.43</speed><time>2016-06-01T16:30:19Z</time><pdop>6.0</pdop><geoidheight>50.60</geoidheight><course>232.55022</course><type>1</type></trkpt>
      <trkpt lat="39.255710697882506" lon="-6.225149821031489"><ele>1358</ele><speed>5.99</speed><time>2016-06-01T16:30:23Z</time><pdop>6.0</pdop><geoidheight>50.60</geoidheight><course>277.351</course><type>1</type></trkpt>
      <trkpt lat="39.2558515121084" lon="-6.2251374692137365"><ele>1362</ele><speed>8.05</speed><time>2016-06-01T16:30:27Z</time><pdop>8.0</pdop><geoidheight>50.60</geoidheight><course>49.250694</course><type>1</type></trkpt>
      <trkpt lat="39.25588556449257" lon="-6.224917273350329"><ele>1364</ele><speed>12.93</speed><time>2016-06-01T16:30:29Z</time><pdop>8.0</pdop><geoidheight>50.60</geoidheight><course>92.77937</course><type>1</type></trkpt>
      <trkpt lat="39.255814507158725" lon="-6.224623344721849"><ele>1365</ele><speed>13.96</speed><time>2016-06-01T16:30:30Z</time><pdop>8.0</pdop><geoidheight>50.60</geoidheight><course>121.6767</course><type>1</type></trkpt>
      <trkpt lat="39.25565784941174" lon="-6.224398323608136"><ele>1365</ele><speed>12.58</speed><time>2016-06-01T16:30:32Z</time><pdop>8.0</pdop><geoidheight>50.60</geoidheight><course>142.42354</course><type>1</type></trkpt>
      <trkpt lat="39.25543664872205" lon="-6.224266270206907"><ele>1366</ele><speed>14.08</speed><time>2016-06-01T16:30:35Z</time><pdop>6.0</pdop><geoidheight>50.60</geoidheight><course>162.68802</course><type>1</type></trkpt>
      <trkpt lat="39.255326096405646" lon="-6.224238794610106"><ele>1365</ele><speed>13.94</speed><time>2016-06-01T16:30:36Z</time><pdop>6.0</pdop><geoidheight>50.60</geoidheight><course>165.78703</course><type>1</type></trkpt>
      <trkpt lat="39.25521581120341" lon="-6.224270773856122"><ele>1365</ele><speed>12.90</speed><time>2016-06-01T16:30:37Z</time><pdop>6.0</pdop><geoidheight>50.60</geoidheight><course>193.59872</course><type>1</type></trkpt>
      <trkpt lat="39.25503053944182" lon="-6.224358868167169"><ele>1364</ele><speed>9.90</speed><time>2016-06-01T16:30:38Z</time><pdop>6.0</pdop><geoidheight>50.60</geoidheight><course>199.41968</course><type>1</type></trkpt>
      <trkpt lat="39.254864170178315" lon="-6.224458122926182"><ele>1365</ele><speed>10.08</speed><time>2016-06-01T16:30:41Z</time><pdop>8.0</pdop><geoidheight>50.60</geoidheight><course>204.79803</course><type>1</type></trkpt>
      <trkpt lat="39.25470874047825" lon="-6.224641482399078"><ele>1366</ele><speed>10.37</speed><time>2016-06-01T16:30:43Z</time><pdop>6.0</pdop><geoidheight>50.60</geoidheight><course>223.15569</course><type>1</type></trkpt>
      <trkpt lat="39.254588242977846" lon="-6.224791616194891"><ele>1369</ele><speed>8.22</speed><time>2016-06-01T16:30:45Z</time><pdop>6.0</pdop><geoidheight>50.60</geoidheight><course>226.43904</course><type>1</type></trkpt>
      <trkpt lat="39.25448241172071" lon="-6.224944252907785"><ele>1373</ele><speed>8.70</speed><time>2016-06-01T16:30:47Z</time><pdop>4.0</pdop><geoidheight>50.60</geoidheight><course>231.45538</course><type>1</type></trkpt>
      <trkpt lat="39.25438923032802" lon="-6.225103752536067"><ele>1377</ele><speed>7.94</speed><time>2016-06-01T16:30:49Z</time><pdop>6.0</pdop><geoidheight>50.60</geoidheight><course>233.53625</course><type>1</type></trkpt>
      <trkpt lat="39.254267071194796" lon="-6.2252328747245445"><ele>1382</ele><speed>9.28</speed><time>2016-06-01T16:30:50Z</time><pdop>6.0</pdop><geoidheight>50.60</geoidheight><course>219.23459</course><type>1</type></trkpt>
      <trkpt lat="39.254188969298376" lon="-6.22539733234757"><ele>1385</ele><speed>8.93</speed><time>2016-06-01T16:30:53Z</time><pdop>6.0</pdop><geoidheight>50.60</geoidheight><course>259.2825</course><type>1</type></trkpt>
      <trkpt lat="39.254285973560535" lon="-6.225577089868153"><ele>1390</ele><speed>6.62</speed><time>2016-06-01T16:30:55Z</time><pdop>8.0</pdop><geoidheight>50.60</geoidheight><course>347.68423</course><type>1</type></trkpt>
      <trkpt lat="39.25433134611864" lon="-6.225317367940506"><ele>1394</ele><speed>9.81</speed><time>2016-06-01T16:30:59Z</time><pdop>8.0</pdop><geoidheight>50.60</geoidheight><course>100.07066</course><type>1</type></trkpt>
      <trkpt lat="39.254247555810494" lon="-6.225062680851783"><ele>1395</ele><speed>11.94</speed><time>2016-06-01T16:31:01Z</time><pdop>8.0</pdop><geoidheight>50.60</geoidheight><course>127.0701</course><type>1</type></trkpt>
      <trkpt lat="39.25410553852637" lon="-6.224929459062073"><ele>1395</ele><speed>13.21</speed><time>2016-06-01T16:31:02Z</time><pdop>8.0</pdop><geoidheight>50.60</geoidheight><course>172.79039</course><type>1</type></trkpt>
      <trkpt lat="39.25390107623416" lon="-6.2249911604131665"><ele>1396</ele><speed>10.75</speed><time>2016-06-01T16:31:04Z</time><pdop>8.0</pdop><geoidheight>50.60</geoidheight><course>208.50963</course><type>1</type></trkpt>
      <trkpt lat="39.253750807820786" lon="-6.22511058886344"><ele>1397</ele><speed>8.82</speed><time>2016-06-01T16:31:07Z</time><pdop>8.0</pdop><geoidheight>50.60</geoidheight><course>213.80786</course><type>1</type></trkpt>
      <trkpt lat="39.25366020584013" lon="-6.225319668301831"><ele>1402</ele><speed>7.54</speed><time>2016-06-01T16:31:10Z</time><pdop>6.0</pdop><geoidheight>50.60</geoidheight><course>279.2796</course><type>1</type></trkpt>
      <trkpt lat="39.25377490309525" lon="-6.225406868015197"><ele>1406</ele><speed>6.34</speed><time>2016-06-01T16:31:13Z</time><pdop>6.0</pdop><geoidheight>50.60</geoidheight><course>3.931305</course><type>1</type></trkpt>
      <trkpt lat="39.253896615591806" lon="-6.225317204441184"><ele>1410</ele><speed>6.89</speed><time>2016-06-01T16:31:15Z</time><pdop>6.0</pdop><geoidheight>50.60</geoidheight><course>44.589676</course><type>1</type></trkpt>
      <trkpt lat="39.253965468940144" lon="-6.225171688919928"><ele>1412</ele><speed>8.82</speed><time>2016-06-01T16:31:18Z</time><pdop>8.0</pdop><geoidheight>50.60</geoidheight><course>63.109486</course><type>1</type></trkpt>
      <trkpt lat="39.253959792448974" lon="-6.224974145128118"><ele>1415</ele><speed>10.33</speed><time>2016-06-01T16:31:20Z</time><pdop>8.0</pdop><geoidheight>50.60</geoidheight><course>99.09193</course><type>1</type></trkpt>
      <trkpt lat="39.253844281909096" lon="-6.2247135996580365"><ele>1417</ele><speed>13.51</speed><time>2016-06-01T16:31:21Z</time><pdop>8.0</pdop><geoidheight>50.60</geoidheight><course>134.25575</course><type>1</type></trkpt>
      <trkpt lat="39.253659569681375" lon="-6.224610396775974"><ele>1419</ele><speed>12.65</speed><time>2016-06-01T16:31:24Z</time><pdop>8.0</pdop><geoidheight>50.60</geoidheight><course>170.73999</course><type>1</type></trkpt>
      <trkpt lat="39.253475463331256" lon="-6.22458172849831"><ele>1420</ele><speed>10.38</speed><time>2016-06-01T16:31:26Z</time><pdop>6.0</pdop><geoidheight>50.60</geoidheight><course>185.97002</course><type>1</type></trkpt>
      <trkpt lat="39.253299659369844" lon="-6.224653773920169"><ele>1423</ele><speed>10.36</speed><time>2016-06-01T16:31:28Z</time><pdop>6.0</pdop><geoidheight>50.60</geoidheight><course>206.95798</course><type>1</type></trkpt>
      <trkpt lat="39.25319860794069" lon="-6.224859796735478"><ele>1425</ele><speed>9.32</speed><time>2016-06-01T16:31:30Z</time><pdop>6.0</pdop><geoidheight>50.60</geoidheight><course>254.41722</course><type>1</type></trkpt>
      <trkpt lat="39.25326931103038" lon="-6.2250230477545285"><ele>1426</ele><speed>6.41</speed><time>2016-06-01T16:31:33Z</time><pdop>6.0</pdop><geoidheight>50.60</geoidheight><course>335.67993</course><type>1</type></trkpt>
      <trkpt lat="39.253399654934654" lon="-6.225108235465304"><ele>1430</ele><speed>4.99</speed><time>2016-06-01T16:31:36Z</time><pdop>6.0</pdop><geoidheight>50.60</geoidheight><course>335.84128</course><type>1</type></trkpt>
      <trkpt lat="39.25348732051022" lon="-6.225209339261103"><ele>1432</ele><speed>4.54</speed><time>2016-06-01T16:31:39Z</time><pdop>6.0</pdop><geoidheight>50.60</geoidheight><course>302.55017</course><type>1</type></trkpt>
      <trkpt lat="39.25343834519032" lon="-6.225440734435429"><ele>1438</ele><speed>8.76</speed><time>2016-06-01T16:31:43Z</time><pdop>8.0</pdop><geoidheight>50.60</geoidheight><course>224.70015</course><type>1</type></trkpt>
      <trkpt lat="39.25326929825624" lon="-6.2255435083343444"><ele>1441</ele><speed>11.48</speed><time>2016-06-01T16:31:44Z</time><pdop>8.0</pdop><geoidheight>50.60</geoidheight><course>192.75775</course><type>1</type></trkpt>
      <trkpt lat="39.25307712647281" lon="-6.225476269624032"><ele>1442</ele><speed>11.42</speed><time>2016-06-01T16:31:46Z</time><pdop>8.0</pdop><geoidheight>50.60</geoidheight><course>153.20055</course><type>1</type></trkpt>
      <trkpt lat="39.25292893165073" lon="-6.225309381175593"><ele>1445</ele><speed>11.07</speed><time>2016-06-01T16:31:49Z</time><pdop>6.0</pdop><geoidheight>50.60</geoidheight><course>126.21711</course><type>1</type></trkpt>
      <trkpt lat="39.252841945955005" lon="-6.225093753756522"><ele>1448</ele><speed>10.18</speed><time>2016-06-01T16:31:51Z</time><pdop>6.0</pdop><geoidheight>50.60</geoidheight><course>108.109245</course><type>1</type></trkpt>
      <trkpt lat="39.2528493678848" lon="-6.224871077662781"><ele>1452</ele><speed>9.25</speed><time>2016-06-01T16:31:53Z</time><pdop>6.0</pdop><geoidheight>50.60</geoidheight><course>77.609955</course><type>1</type></trkpt>
      <trkpt lat="39.252914661277934" lon="-6.224693050595644"><ele>1455</ele><speed>7.87</speed><time>2016-06-01T16:31:55Z</time><pdop>6.0</pdop><geoidheight>50.60</geoidheight><course>48.09277</course><type>1</type></trkpt>
      <trkpt lat="39.253047528048086" lon="-6.224628590679461"><ele>1457</ele><speed>6.79</speed><time>2016-06-01T16:31:57Z</time><pdop>8.0</pdop><geoidheight>50.60</geoidheight><course>359.8206</course><type>1</type></trkpt>
      <trkpt lat="39.25315522801196" lon="-6.224754226739075"><ele>1459</ele><speed>7.23</speed><time>2016-06-01T16:32:00Z</time><pdop>6.0</pdop><geoidheight>50.60</geoidheight><course>291.0281</course><type>1</type></trkpt>
      <trkpt lat="39.253153523647164" lon="-6.224897317092838"><ele>1461</ele><speed>6.86</speed><time>2016-06-01T16:32:02Z</time><pdop>6.0</pdop><geoidheight>50.60</geoidheight><course>264.79156</course><type>1</type></trkpt>
      <trkpt lat="39.253084005015836" lon="-6.225058387203579"><ele>1463</ele><speed>8.51</speed><time>2016-06-01T16:32:03Z</time><pdop>8.0</pdop><geoidheight>50.60</geoidheight><course>229.02083</course><type>1</type></trkpt>
      <trkpt lat="39.25292737536126" lon="-6.225217018109131"><ele>1464</ele><speed>10.79</speed><time>2016-06-01T16:32:05Z</time><pdop>8.0</pdop><geoidheight>50.60</geoidheight><course>211.78015</course><type>1</type></trkpt>
      <trkpt lat="39.252720786283504" lon="-6.225157177161362"><ele>1467</ele><speed>12.43</speed><time>2016-06-01T16:32:08Z</time><pdop>8.0</pdop><geoidheight>50.60</geoidheight><course>152.62541</course><type>1</type></trkpt>
      <trkpt lat="39.25254164230281" lon="-6.224994879482918"><ele>1470</ele><speed>12.30</speed><time>2016-06-01T16:32:10Z</time><pdop>8.0</pdop><geoidheight>50.60</geoidheight><course>134.02402</course><type>1</type></trkpt>
      <trkpt lat="39.25242715930737" lon="-6.224775615473985"><ele>1473</ele><speed>11.48</speed><time>2016-06-01T16:32:12Z</time><pdop>6.0</pdop><geoidheight>50.60</geoidheight><course>114.513916</course><type>1</type></trkpt>
      <trkpt lat="39.25238624312712" lon="-6.22451051778296"><ele>1475</ele><speed>10.39</speed><time>2016-06-01T16:32:14Z</time><pdop>6.0</pdop><geoidheight>50.60</geoidheight><course>96.06702</course><type>1</type></trkpt>
      <trkpt lat="39.25246042924104" lon="-6.22429446663254"><ele>1477</ele><speed>8.58</speed><time>2016-06-01T16:32:15Z</time><pdop>6.0</pdop><geoidheight>50.60</geoidheight><course>50.48452</course><type>1</type></trkpt>
      <trkpt lat="39.25258576667806" lon="-6.2242087446184335"><ele>1479</ele><speed>6.57</speed><time>2016-06-01T16:32:18Z</time><pdop>8.0</pdop><geoidheight>50.60</geoidheight><course>15.616863</course><type>1</type></trkpt>
      <trkpt lat="39.25268764434196" lon="-6.2243738467664524"><ele>1482</ele><speed>6.66</speed><time>2016-06-01T16:32:22Z</time><pdop>8.0</pdop><geoidheight>50.60</geoidheight><course>281.76334</course><type>1</type></trkpt>
      <trkpt lat="39.25268807191909" lon="-6.224606225205256"><ele>1486</ele><speed>6.90</speed><time>2016-06-01T16:32:25Z</time><pdop>8.0</pdop><geoidheight>50.60</geoidheight><course>261.85864</course><type>1</type></trkpt>
      <trkpt lat="39.25262041347048" lon="-6.224761845331572"><ele>1490</ele><speed>7.61</speed><time>2016-06-01T16:32:26Z</time><pdop>6.0</pdop><geoidheight>50.60</geoidheight><course>230.5038</course><type>1</type></trkpt>
      <trkpt lat="39.25247032151755" lon="-6.224872618040471"><ele>1494</ele><speed>10.96</speed><time>2016-06-01T16:32:29Z</time><pdop>6.0</pdop><geoidheight>50.60</geoidheight><course>200.39572</course><type>1</type></trkpt>
      <trkpt lat="39.25225503879376" lon="-6.224869639874927"><ele>1498</ele><speed>12.74</speed><time>2016-06-01T16:32:31Z</time><pdop>8.0</pdop><geoidheight>50.60</geoidheight><course>176.99226</course><type>1</type></trkpt>
      <trkpt lat="39.2521093262388" lon="-6.224666054885006"><ele>1501</ele><speed>12.38</speed><time>2016-06-01T16:32:33Z</time><pdop>8.0</pdop><geoidheight>50.60</geoidheight><course>116.67881</course><type>1</type></trkpt>
      <trkpt lat="39.25205118438491" lon="-6.224469462300148"><ele>1503</ele><speed>9.26</speed><time>2016-06-01T16:32:35Z</time><pdop>8.0</pdop><geoidheight>50.60</geoidheight><course>99.10987</course><type>1</type></trkpt>
      <trkpt lat="39.25209168442319" lon="-6.224252283119341"><ele>1505</ele><speed>7.83</speed><time>2016-06-01T16:32:37Z</time><pdop>6.0</pdop><geoidheight>50.60</geoidheight><course>64.05672</course><type>1</type></trkpt>
      <trkpt lat="39.252213464419846" lon="-6.224169220469579"><ele>1506</ele><speed>5.37</speed><time>2016-06-01T16:32:40Z</time><pdop>8.0</pdop><geoidheight>50.60</geoidheight><course>16.20634</course><type>1</type></trkpt>
      <trkpt lat="39.2523204404808" lon="-6.224255372253349"><ele>1509</ele><speed>6.38</speed><time>2016-06-01T16:32:43Z</time><pdop>6.0</pdop><geoidheight>50.60</geoidheight><course>289.343</course><type>1</type></trkpt>
      <trkpt lat="39.25223056285065" lon="-6.224494430576532"><ele>1514</ele><speed>10.52</speed><time>2016-06-01T16:32:46Z</time><pdop>8.0</pdop><geoidheight>50.60</geoidheight><course>228.93417</course><type>1</type></trkpt>
      <trkpt lat="39.25209421189363" lon="-6.224662628860064"><ele>1517</ele><speed>10.04</speed><time>2016-06-01T16:32:48Z</time><pdop>8.0</pdop><geoidheight>50.60</geoidheight><course>222.35245</course><type>1</type></trkpt>
      <trkpt lat="39.2519552290625" lon="-6.224814882732558"><ele>1520</ele><speed>9.28</speed><time>2016-06-01T16:32:50Z</time><pdop>4.0</pdop><geoidheight>50.60</geoidheight><course>222.23318</course><type>1</type></trkpt>
      <trkpt lat="39.25188912677138" lon="-6.224886579363928"><ele>1522</ele><speed>8.80</speed><time>2016-06-01T16:32:50Z</time><pdop>4.0</pdop><geoidheight>50.60</geoidheight><course>221.24255</course><type>1</type></trkpt>
      <trkpt lat="39.25181823926517" lon="-6.224954619604097"><ele>1524</ele><speed>9.12</speed><time>2016-06-01T16:32:51Z</time><pdop>4.0</pdop><geoidheight>50.60</geoidheight><course>217.51607</course><type>1</type></trkpt>
      <trkpt lat="39.25174355285776" lon="-6.225018022644554"><ele>1526</ele><speed>9.20</speed><time>2016-06-01T16:32:53Z</time><pdop>4.0</pdop><geoidheight>50.60</geoidheight><course>214.08353</course><type>1</type></trkpt>
      <trkpt lat="39.251601018886205" lon="-6.225121792571042"><ele>1530</ele><speed>9.01</speed><time>2016-06-01T16:32:55Z</time><pdop>8.0</pdop><geoidheight>50.60</geoidheight><course>210.49983</course><type>1</type></trkpt>
      <trkpt lat="39.251471285620596" lon="-6.2252151806762654"><ele>1534</ele><speed>7.91</speed><time>2016-06-01T16:32:57Z</time><pdop>4.0</pdop><geoidheight>50.60</geoidheight><course>212.78165</course><type>1</type></trkpt>
      <trkpt lat="39.25144384486389" lon="-6.225340276606311"><ele>1536</ele><speed>7.12</speed><time>2016-06-01T16:32:59Z</time><pdop>6.0</pdop><geoidheight>50.60</geoidheight><course>281.11356</course><type>1</type></trkpt>
      <trkpt lat="39.25154661835654" lon="-6.2254429346184645"><ele>1538</ele><speed>7.97</speed><time>2016-06-01T16:33:02Z</time><pdop>8.0</pdop><geoidheight>50.60</geoidheight><course>14.009947</course><type>1</type></trkpt>
      <trkpt lat="39.25161379110764" lon="-6.22524295259412"><ele>1540</ele><speed>8.54</speed><time>2016-06-01T16:33:04Z</time><pdop>8.0</pdop><geoidheight>50.60</geoidheight><course>80.938065</course><type>1</type></trkpt>
      <trkpt lat="39.25154063003931" lon="-6.224984980594244"><ele>1541</ele><speed>11.00</speed><time>2016-06-01T16:33:06Z</time><pdop>12.0</pdop><geoidheight>50.60</geoidheight><course>129.52788</course><type>1</type></trkpt>
      <trkpt lat="39.2513676682215" lon="-6.224835454580882"><ele>1544</ele><speed>11.20</speed><time>2016-06-01T16:33:08Z</time><pdop>8.0</pdop><geoidheight>50.60</geoidheight><course>153.88422</course><type>1</type></trkpt>
      <trkpt lat="39.25116644249305" lon="-6.224813861617288"><ele>1549</ele><speed>10.95</speed><time>2016-06-01T16:33:09Z</time><pdop>6.0</pdop><geoidheight>50.60</geoidheight><course>186.48682</course><type>1</type></trkpt>
      <trkpt lat="39.25096856985435" lon="-6.224896807119612"><ele>1553</ele><speed>11.21</speed><time>2016-06-01T16:33:12Z</time><pdop>6.0</pdop><geoidheight>50.60</geoidheight><course>207.33147</course><type>1</type></trkpt>
      <trkpt lat="39.25082610302856" lon="-6.225043314636527"><ele>1557</ele><speed>9.17</speed><time>2016-06-01T16:33:14Z</time><pdop>8.0</pdop><geoidheight>50.60</geoidheight><course>231.14586</course><type>1</type></trkpt>
      <trkpt lat="39.250789675631246" lon="-6.225223156940429"><ele>1562</ele><speed>5.33</speed><time>2016-06-01T16:33:17Z</time><pdop>8.0</pdop><geoidheight>50.60</geoidheight><course>296.07474</course><type>1</type></trkpt>
      <trkpt lat="39.25097006109432" lon="-6.225047698649276"><ele>1569</ele><speed>9.31</speed><time>2016-06-01T16:33:24Z</time><pdop>12.0</pdop><geoidheight>50.60</geoidheight><course>85.451225</course><type>1</type></trkpt>
      <trkpt lat="39.25094621683636" lon="-6.224822391663022"><ele>1570</ele><speed>9.96</speed><time>2016-06-01T16:33:26Z</time><pdop>6.0</pdop><geoidheight>50.60</geoidheight><course>110.83334</course><type>1</type></trkpt>
      <trkpt lat="39.25088245671442" lon="-6.224599473633885"><ele>1574</ele><speed>10.73</speed><time>2016-06-01T16:33:28Z</time><pdop>6.0</pdop><geoidheight>50.60</geoidheight><course>117.40846</course><type>1</type></trkpt>
      <trkpt lat="39.25072206789909" lon="-6.224428484554969"><ele>1577</ele><speed>12.98</speed><time>2016-06-01T16:33:30Z</time><pdop>8.0</pdop><geoidheight>50.60</geoidheight><course>151.32407</course><type>1</type></trkpt>
      <trkpt lat="39.250509922292046" lon="-6.224399749092896"><ele>1580</ele><speed>12.98</speed><time>2016-06-01T16:33:32Z</time><pdop>6.0</pdop><geoidheight>50.60</geoidheight><course>184.26166</course><type>1</type></trkpt>
      <trkpt lat="39.25040219406009" lon="-6.224416942116609"><ele>1581</ele><speed>12.36</speed><time>2016-06-01T16:33:32Z</time><pdop>6.0</pdop><geoidheight>50.60</geoidheight><course>188.05882</course><type>1</type></trkpt>
      <trkpt lat="39.250221930333524" lon="-6.224506043815783"><ele>1584</ele><speed>9.87</speed><time>2016-06-01T16:33:35Z</time><pdop>8.0</pdop><geoidheight>50.60</geoidheight><course>208.85716</course><type>1</type></trkpt>
      <trkpt lat="39.25009687894511" lon="-6.2246508755414425"><ele>1586</ele><speed>8.72</speed><time>2016-06-01T16:33:37Z</time><pdop>8.0</pdop><geoidheight>50.60</geoidheight><course>227.55971</course><type>1</type></trkpt>
      <trkpt lat="39.25005722508697" lon="-6.224810279318064"><ele>1588</ele><speed>6.36</speed><time>2016-06-01T16:33:39Z</time><pdop>6.0</pdop><geoidheight>50.60</geoidheight><course>271.24298</course><type>1</type></trkpt>
      <trkpt lat="39.25022111059402" lon="-6.2247587700769715"><ele>1594</ele><speed>7.37</speed><time>2016-06-01T16:33:43Z</time><pdop>8.0</pdop><geoidheight>50.60</geoidheight><course>47.085617</course><type>1</type></trkpt>
      <trkpt lat="39.25028826102541" lon="-6.22458019832705"><ele>1596</ele><speed>9.25</speed><time>2016-06-01T16:33:46Z</time><pdop>8.0</pdop><geoidheight>50.60</geoidheight><course>65.65248</course><type>1</type></trkpt>
      <trkpt lat="39.25028515797394" lon="-6.2243656747931055"><ele>1598</ele><speed>11.08</speed><time>2016-06-01T16:33:48Z</time><pdop>8.0</pdop><geoidheight>50.60</geoidheight><course>101.314156</course><type>1</type></trkpt>
      <trkpt lat="39.25020983371094" lon="-6.224188663484771"><ele>1600</ele><speed>12.01</speed><time>2016-06-01T16:33:49Z</time><pdop>6.0</pdop><geoidheight>50.60</geoidheight><course>135.8901</course><type>1</type></trkpt>
      <trkpt lat="39.25005000805492" lon="-6.224001639246031"><ele>1603</ele><speed>13.26</speed><time>2016-06-01T16:33:52Z</time><pdop>6.0</pdop><geoidheight>50.60</geoidheight><course>143.48036</course><type>1</type></trkpt>
      <trkpt lat="39.24993608731928" lon="-6.223953064273374"><ele>1604</ele><speed>13.23</speed><time>2016-06-01T16:33:53Z</time><pdop>6.0</pdop><geoidheight>50.60</geoidheight><course>163.76268</course><type>1</type></trkpt>
      <trkpt lat="39.2498202582145" lon="-6.2239428192556066"><ele>1606</ele><speed>12.62</speed><time>2016-06-01T16:33:54Z</time><pdop>6.0</pdop><geoidheight>50.60</geoidheight><course>179.69283</course><type>1</type></trkpt>
      <trkpt lat="39.24970397176547" lon="-6.223968309942422"><ele>1608</ele><speed>12.23</speed><time>2016-06-01T16:33:55Z</time><pdop>6.0</pdop><geoidheight>50.60</geoidheight><course>194.23367</course><type>1</type></trkpt>
      <trkpt lat="39.24953391997501" lon="-6.22407321052664"><ele>1612</ele><speed>9.81</speed><time>2016-06-01T16:33:57Z</time><pdop>8.0</pdop><geoidheight>50.60</geoidheight><course>213.9055</course><type>1</type></trkpt>
      <trkpt lat="39.24950667794349" lon="-6.2242608736821055"><ele>1618</ele><speed>5.54</speed><time>2016-06-01T16:34:00Z</time><pdop>8.0</pdop><geoidheight>50.60</geoidheight><course>300.6279</course><type>1</type></trkpt>
      <trkpt lat="39.249646952934995" lon="-6.224331653358773"><ele>1629</ele><speed>6.80</speed><time>2016-06-01T16:34:05Z</time><pdop>6.0</pdop><geoidheight>50.60</geoidheight><course>34.86691</course><type>1</type></trkpt>
      <trkpt lat="39.24969864570101" lon="-6.224129543303136"><ele>1632</ele><speed>11.56</speed><time>2016-06-01T16:34:07Z</time><pdop>8.0</pdop><geoidheight>50.60</geoidheight><course>84.719444</course><type>1</type></trkpt>
      <trkpt lat="39.24964105017839" lon="-6.223899600187082"><ele>1633</ele><speed>12.61</speed><time>2016-06-01T16:34:08Z</time><pdop>8.0</pdop><geoidheight>50.60</geoidheight><course>124.28427</course><type>1</type></trkpt>
      <trkpt lat="39.24948936952826" lon="-6.223730854886191"><ele>1633</ele><speed>13.39</speed><time>2016-06-01T16:34:11Z</time><pdop>6.0</pdop><geoidheight>50.60</geoidheight><course>155.2743</course><type>1</type></trkpt>
      <trkpt lat="39.24938449302296" lon="-6.223677827822976"><ele>1634</ele><speed>12.92</speed><time>2016-06-01T16:34:12Z</time><pdop>6.0</pdop><geoidheight>50.60</geoidheight><course>158.32243</course><type>1</type></trkpt>
      <trkpt lat="39.24927419528908" lon="-6.223660558193849"><ele>1635</ele><speed>12.32</speed><time>2016-06-01T16:34:13Z</time><pdop>6.0</pdop><geoidheight>50.60</geoidheight><course>174.60332</course><type>1</type></trkpt>
      <trkpt lat="39.24907963820832" lon="-6.223701250268738"><ele>1637</ele><speed>11.15</speed><time>2016-06-01T16:34:14Z</time><pdop>6.0</pdop><geoidheight>50.60</geoidheight><course>192.63684</course><type>1</type></trkpt>
      <trkpt lat="39.24894383656287" lon="-6.223960277446951"><ele>1638</ele><speed>8.36</speed><time>2016-06-01T16:34:18Z</time><pdop>8.0</pdop><geoidheight>50.60</geoidheight><course>274.5744</course><type>1</type></trkpt>
      <trkpt lat="39.2489009114482" lon="-6.224178308519081"><ele>1642</ele><speed>3.76</speed><time>2016-06-01T16:34:21Z</time><pdop>6.0</pdop><geoidheight>50.60</geoidheight><course>272.61685</course><type>1</type></trkpt>
      <trkpt lat="39.24899466574033" lon="-6.224039766972393"><ele>1650</ele><speed>9.43</speed><time>2016-06-01T16:34:27Z</time><pdop>8.0</pdop><geoidheight>50.60</geoidheight><course>76.20754</course><type>1</type></trkpt>
      <trkpt lat="39.2489415361213" lon="-6.223780677665078"><ele>1652</ele><speed>13.42</speed><time>2016-06-01T16:34:29Z</time><pdop>8.0</pdop><geoidheight>50.60</geoidheight><course>117.07216</course><type>1</type></trkpt>
      <trkpt lat="39.24875373313252" lon="-6.223618647770719"><ele>1653</ele><speed>14.53</speed><time>2016-06-01T16:34:30Z</time><pdop>8.0</pdop><geoidheight>50.60</geoidheight><course>159.49788</course><type>1</type></trkpt>
      <trkpt lat="39.248544057875336" lon="-6.223628144030017"><ele>1655</ele><speed>13.06</speed><time>2016-06-01T16:34:32Z</time><pdop>8.0</pdop><geoidheight>50.60</geoidheight><course>197.70638</course><type>1</type></trkpt>
      <trkpt lat="39.24837755895366" lon="-6.22374398117051"><ele>1659</ele><speed>9.34</speed><time>2016-06-01T16:34:35Z</time><pdop>6.0</pdop><geoidheight>50.60</geoidheight><course>213.7303</course><type>1</type></trkpt>
      <trkpt lat="39.248249873681424" lon="-6.223874784040851"><ele>1662</ele><speed>8.87</speed><time>2016-06-01T16:34:37Z</time><pdop>6.0</pdop><geoidheight>50.60</geoidheight><course>229.73332</course><type>1</type></trkpt>
      <trkpt lat="39.24819107007552" lon="-6.2240460065221415"><ele>1665</ele><speed>7.93</speed><time>2016-06-01T16:34:39Z</time><pdop>6.0</pdop><geoidheight>50.60</geoidheight><course>263.4994</course><type>1</type></trkpt>
      <trkpt lat="39.248260352910755" lon="-6.2241994707282355"><ele>1668</ele><speed>5.79</speed><time>2016-06-01T16:34:42Z</time><pdop>8.0</pdop><geoidheight>50.60</geoidheight><course>337.76617</course><type>1</type></trkpt>
      <trkpt lat="39.24839378786298" lon="-6.224237466046314"><ele>1669</ele><speed>2.85</speed><time>2016-06-01T16:34:46Z</time><pdop>6.0</pdop><geoidheight>50.60</geoidheight><course>344.2902</course><type>1</type></trkpt>
      <trkpt lat="39.24842071843269" lon="-6.22441894676185"><ele>1674</ele><speed>7.42</speed><time>2016-06-01T16:34:50Z</time><pdop>8.0</pdop><geoidheight>50.60</geoidheight><course>251.26077</course><type>1</type></trkpt>
      <trkpt lat="39.24820486838224" lon="-6.224610584268965"><ele>1680</ele><speed>12.97</speed><time>2016-06-01T16:34:53Z</time><pdop>8.0</pdop><geoidheight>50.60</geoidheight><course>194.83356</course><type>1</type></trkpt>
      <trkpt lat="39.24799859321953" lon="-6.224625323644973"><ele>1684</ele><speed>12.32</speed><time>2016-06-01T16:34:55Z</time><pdop>6.0</pdop><geoidheight>50.60</geoidheight><course>174.73215</course><type>1</type></trkpt>
      <trkpt lat="39.24781217136766" lon="-6.224539610236586"><ele>1688</ele><speed>11.03</speed><time>2016-06-01T16:34:57Z</time><pdop>6.0</pdop><geoidheight>50.60</geoidheight><course>156.44862</course><type>1</type></trkpt>
      <trkpt lat="39.24768064057177" lon="-6.22435560120725"><ele>1691</ele><speed>10.63</speed><time>2016-06-01T16:34:59Z</time><pdop>6.0</pdop><geoidheight>50.60</geoidheight><course>122.653404</course><type>1</type></trkpt>
      <trkpt lat="39.247642002705525" lon="-6.224126194338749"><ele>1693</ele><speed>9.60</speed><time>2016-06-01T16:35:01Z</time><pdop>6.0</pdop><geoidheight>50.60</geoidheight><course>84.070915</course><type>1</type></trkpt>
      <trkpt lat="39.2476878547333" lon="-6.223953211518897"><ele>1694</ele><speed>7.24</speed><time>2016-06-01T16:35:03Z</time><pdop>6.0</pdop><geoidheight>50.60</geoidheight><course>54.110813</course><type>1</type></trkpt>
      <trkpt lat="39.24775224142203" lon="-6.223806711078705"><ele>1695</ele><speed>7.15</speed><time>2016-06-01T16:35:05Z</time><pdop>6.0</pdop><geoidheight>50.60</geoidheight><course>60.155552</course><type>1</type></trkpt>
      <trkpt lat="39.24781625458923" lon="-6.223664862769504"><ele>1696</ele><speed>5.86</speed><time>2016-06-01T16:35:07Z</time><pdop>6.0</pdop><geoidheight>50.60</geoidheight><course>57.941406</course><type>1</type></trkpt>
      <trkpt lat="39.2479200264736" lon="-6.223763065292853"><ele>1699</ele><speed>8.39</speed><time>2016-06-01T16:35:11Z</time><pdop>8.0</pdop><geoidheight>50.60</geoidheight><course>288.60376</course><type>1</type></trkpt>
      <trkpt lat="39.247805399788255" lon="-6.223918519746955"><ele>1699</ele><speed>10.68</speed><time>2016-06-01T16:35:13Z</time><pdop>8.0</pdop><geoidheight>50.60</geoidheight><course>212.67311</course><type>1</type></trkpt>
      <trkpt lat="39.24761648431824" lon="-6.224018097825009"><ele>1701</ele><speed>10.85</speed><time>2016-06-01T16:35:15Z</time><pdop>6.0</pdop><geoidheight>50.60</geoidheight><course>193.22089</course><type>1</type></trkpt>
      <trkpt lat="39.24741727366442" lon="-6.224017461137288"><ele>1703</ele><speed>11.46</speed><time>2016-06-01T16:35:17Z</time><pdop>6.0</pdop><geoidheight>50.60</geoidheight><course>166.3918</course><type>1</type></trkpt>
      <trkpt lat="39.24731287838592" lon="-6.223952652596632"><ele>1704</ele><speed>12.77</speed><time>2016-06-01T16:35:17Z</time><pdop>6.0</pdop><geoidheight>50.60</geoidheight><course>153.4999</course><type>1</type></trkpt>
      <trkpt lat="39.24721505900669" lon="-6.223879435194972"><ele>1705</ele><speed>13.25</speed><time>2016-06-01T16:35:18Z</time><pdop>6.0</pdop><geoidheight>50.60</geoidheight><course>150.77332</course><type>1</type></trkpt>
      <trkpt lat="39.247122386327085" lon="-6.223805148274522"><ele>1706</ele><speed>12.52</speed><time>2016-06-01T16:35:20Z</time><pdop>6.0</pdop><geoidheight>50.60</geoidheight><course>147.82628</course><type>1</type></trkpt>
      <trkpt lat="39.24697842417141" lon="-6.223614343087434"><ele>1706</ele><speed>10.77</speed><time>2016-06-01T16:35:22Z</time><pdop>6.0</pdop><geoidheight>50.60</geoidheight><course>131.77052</course><type>1</type></trkpt>
      <trkpt lat="39.24691519603" lon="-6.223386971129197"><ele>1707</ele><speed>10.03</speed><time>2016-06-01T16:35:23Z</time><pdop>6.0</pdop><geoidheight>50.60</geoidheight><course>100.771736</course><type>1</type></trkpt>
      <trkpt lat="39.2469206057459" lon="-6.223163225202069"><ele>1709</ele><speed>8.49</speed><time>2016-06-01T16:35:26Z</time><pdop>6.0</pdop><geoidheight>50.60</geoidheight><course>76.85769</course><type>1</type></trkpt>
      <trkpt lat="39.24697587166675" lon="-6.222992298516247"><ele>1710</ele><speed>5.84</speed><time>2016-06-01T16:35:28Z</time><pdop>8.0</pdop><geoidheight>50.60</geoidheight><course>52.407005</course><type>1</type></trkpt>
      <trkpt lat="39.24709532623083" lon="-6.223054764368501"><ele>1713</ele><speed>6.14</speed><time>2016-06-01T16:35:33Z</time><pdop>6.0</pdop><geoidheight>50.60</geoidheight><course>271.51318</course><type>1</type></trkpt>
      <trkpt lat="39.247004825412525" lon="-6.223240226674822"><ele>1715</ele><speed>6.60</speed><time>2016-06-01T16:35:36Z</time><pdop>6.0</pdop><geoidheight>50.60</geoidheight><course>231.16736</course><type>1</type></trkpt>
      <trkpt lat="39.2469589589558" lon="-6.223370086334681"><ele>1716</ele><speed>6.15</speed><time>2016-06-01T16:35:38Z</time><pdop>6.0</pdop><geoidheight>50.60</geoidheight><course>265.30652</course><type>1</type></trkpt>
      <trkpt lat="39.24704880898437" lon="-6.223481923421966"><ele>1717</ele><speed>6.08</speed><time>2016-06-01T16:35:41Z</time><pdop>6.0</pdop><geoidheight>50.60</geoidheight><course>359.03705</course><type>1</type></trkpt>
      <trkpt lat="39.24716112905462" lon="-6.2234081416541915"><ele>1717</ele><speed>5.94</speed><time>2016-06-01T16:35:44Z</time><pdop>6.0</pdop><geoidheight>50.60</geoidheight><course>42.377842</course><type>1</type></trkpt>
      <trkpt lat="39.24725535906102" lon="-6.223346623794367"><ele>1716</ele><speed>5.19</speed><time>2016-06-01T16:35:46Z</time><pdop>4.0</pdop><geoidheight>50.60</geoidheight><course>23.623068</course><type>1</type></trkpt>
      <trkpt lat="39.24735125228301" lon="-6.223299532584822"><ele>1715</ele><speed>5.50</speed><time>2016-06-01T16:35:48Z</time><pdop>6.0</pdop><geoidheight>50.60</geoidheight><course>23.61524</course><type>1</type></trkpt>
      <trkpt lat="39.24741190005292" lon="-6.223148537179714"><ele>1714</ele><speed>9.90</speed><time>2016-06-01T16:35:50Z</time><pdop>6.0</pdop><geoidheight>50.60</geoidheight><course>75.575264</course><type>1</type></trkpt>
      <trkpt lat="39.247370235082116" lon="-6.2229119704178135"><ele>1714</ele><speed>12.52</speed><time>2016-06-01T16:35:52Z</time><pdop>8.0</pdop><geoidheight>50.60</geoidheight><course>113.16699</course><type>1</type></trkpt>
      <trkpt lat="39.247277600776165" lon="-6.222673888836682"><ele>1713</ele><speed>12.94</speed><time>2016-06-01T16:35:54Z</time><pdop>8.0</pdop><geoidheight>50.60</geoidheight><course>119.343636</course><type>1</type></trkpt>
      <trkpt lat="39.247196901310495" lon="-6.2224653548696365"><ele>1711</ele><speed>10.18</speed><time>2016-06-01T16:35:56Z</time><pdop>6.0</pdop><geoidheight>50.60</geoidheight><course>116.27339</course><type>1</type></trkpt>
      <trkpt lat="39.24712196072931" lon="-6.222246692358253"><ele>1710</ele><speed>10.68</speed><time>2016-06-01T16:35:57Z</time><pdop>6.0</pdop><geoidheight>50.60</geoidheight><course>115.7338</course><type>1</type></trkpt>
      <trkpt lat="39.24707068469626" lon="-6.222119944244425"><ele>1711</ele><speed>11.72</speed><time>2016-06-01T16:35:58Z</time><pdop>6.0</pdop><geoidheight>50.60</geoidheight><course>117.34633</course><type>1</type></trkpt>
      <trkpt lat="39.24696016736517" lon="-6.221865621731106"><ele>1711</ele><speed>12.46</speed><time>2016-06-01T16:36:01Z</time><pdop>8.0</pdop><geoidheight>50.60</geoidheight><course>117.82544</course><type>1</type></trkpt>
      <trkpt lat="39.24686837508937" lon="-6.2216089939706745"><ele>1713</ele><speed>11.31</speed><time>2016-06-01T16:36:03Z</time><pdop>8.0</pdop><geoidheight>50.60</geoidheight><course>113.04027</course><type>1</type></trkpt>
      <trkpt lat="39.246795442262396" lon="-6.221363594118927"><ele>1714</ele><speed>10.76</speed><time>2016-06-01T16:36:05Z</time><pdop>6.0</pdop><geoidheight>50.60</geoidheight><course>113.104225</course><type>1</type></trkpt>
      <trkpt lat="39.24672087967322" lon="-6.221124835834889"><ele>1715</ele><speed>11.98</speed><time>2016-06-01T16:36:07Z</time><pdop>6.0</pdop><geoidheight>50.60</geoidheight><course>113.13014</course><type>1</type></trkpt>
      <trkpt lat="39.246646992887285" lon="-6.22087015896359"><ele>1715</ele><speed>11.47</speed><time>2016-06-01T16:36:09Z</time><pdop>6.0</pdop><geoidheight>50.60</geoidheight><course>110.874146</course><type>1</type></trkpt>
      <trkpt lat="39.246563654181706" lon="-6.220632109910074"><ele>1715</ele><speed>10.98</speed><time>2016-06-01T16:36:11Z</time><pdop>6.0</pdop><geoidheight>50.60</geoidheight><course>116.63607</course><type>1</type></trkpt>
      <trkpt lat="39.24645470961473" lon="-6.220398074750193"><ele>1715</ele><speed>11.97</speed><time>2016-06-01T16:36:13Z</time><pdop>8.0</pdop><geoidheight>50.60</geoidheight><course>121.1354</course><type>1</type></trkpt>
      <trkpt lat="39.246338981197425" lon="-6.220181260529865"><ele>1715</ele><speed>10.60</speed><time>2016-06-01T16:36:15Z</time><pdop>6.0</pdop><geoidheight>50.60</geoidheight><course>122.82275</course><type>1</type></trkpt>
      <trkpt lat="39.24621975968628" lon="-6.21996277642023"><ele>1714</ele><speed>13.44</speed><time>2016-06-01T16:36:17Z</time><pdop>6.0</pdop><geoidheight>50.60</geoidheight><course>122.27384</course><type>1</type></trkpt>
      <trkpt lat="39.24615544084568" lon="-6.219832414169429"><ele>1712</ele><speed>14.99</speed><time>2016-06-01T16:36:18Z</time><pdop>6.0</pdop><geoidheight>50.60</geoidheight><course>119.91582</course><type>1</type></trkpt>
      <trkpt lat="39.24609857020543" lon="-6.219708636967029"><ele>1710</ele><speed>13.32</speed><time>2016-06-01T16:36:19Z</time><pdop>6.0</pdop><geoidheight>50.60</geoidheight><course>118.66396</course><type>1</type></trkpt>
      <trkpt lat="39.246006317736075" lon="-6.219481528243024"><ele>1707</ele><speed>11.36</speed><time>2016-06-01T16:36:21Z</time><pdop>6.0</pdop><geoidheight>50.60</geoidheight><course>114.662994</course><type>1</type></trkpt>
      <trkpt lat="39.2459263989404" lon="-6.21924184734941"><ele>1703</ele><speed>11.90</speed><time>2016-06-01T16:36:23Z</time><pdop>6.0</pdop><geoidheight>50.60</geoidheight><course>112.06955</course><type>1</type></trkpt>
      <trkpt lat="39.245888856494304" lon="-6.219107329403631"><ele>1701</ele><speed>12.71</speed><time>2016-06-01T16:36:23Z</time><pdop>6.0</pdop><geoidheight>50.60</geoidheight><course>110.32408</course><type>1</type></trkpt>
      <trkpt lat="39.24585667017204" lon="-6.218969790753835"><ele>1699</ele><speed>12.96</speed><time>2016-06-01T16:36:24Z</time><pdop>6.0</pdop><geoidheight>50.60</geoidheight><course>108.07913</course><type>1</type></trkpt>
      <trkpt lat="39.24579373576441" lon="-6.218705895986631"><ele>1695</ele><speed>11.72</speed><time>2016-06-01T16:36:27Z</time><pdop>8.0</pdop><geoidheight>50.60</geoidheight><course>106.33622</course><type>1</type></trkpt>
      <trkpt lat="39.245734241618095" lon="-6.218450237545094"><ele>1690</ele><speed>11.96</speed><time>2016-06-01T16:36:28Z</time><pdop>8.0</pdop><geoidheight>50.60</geoidheight><course>105.917305</course><type>1</type></trkpt>
      <trkpt lat="39.24567767557423" lon="-6.218170807881307"><ele>1685</ele><speed>14.15</speed><time>2016-06-01T16:36:31Z</time><pdop>8.0</pdop><geoidheight>50.60</geoidheight><course>103.81539</course><type>1</type></trkpt>
      <trkpt lat="39.245623876387576" lon="-6.217879196362821"><ele>1679</ele><speed>14.10</speed><time>2016-06-01T16:36:33Z</time><pdop>8.0</pdop><geoidheight>50.60</geoidheight><course>104.89125</course><type>1</type></trkpt>
      <trkpt lat="39.24556624858847" lon="-6.217593669666586"><ele>1674</ele><speed>13.28</speed><time>2016-06-01T16:36:35Z</time><pdop>6.0</pdop><geoidheight>50.60</geoidheight><course>106.18236</course><type>1</type></trkpt>
      <trkpt lat="39.24553543531808" lon="-6.217452981880134"><ele>1671</ele><speed>13.29</speed><time>2016-06-01T16:36:36Z</time><pdop>6.0</pdop><geoidheight>50.60</geoidheight><course>106.981674</course><type>1</type></trkpt>
      <trkpt lat="39.245499740139074" lon="-6.217311881940691"><ele>1669</ele><speed>13.71</speed><time>2016-06-01T16:36:37Z</time><pdop>6.0</pdop><geoidheight>50.60</geoidheight><course>107.78262</course><type>1</type></trkpt>
      <trkpt lat="39.24546282529467" lon="-6.217168965749082"><ele>1666</ele><speed>13.98</speed><time>2016-06-01T16:36:38Z</time><pdop>6.0</pdop><geoidheight>50.60</geoidheight><course>108.29391</course><type>1</type></trkpt>
      <trkpt lat="39.245426009822715" lon="-6.217024274822975"><ele>1664</ele><speed>13.88</speed><time>2016-06-01T16:36:39Z</time><pdop>6.0</pdop><geoidheight>50.60</geoidheight><course>108.373375</course><type>1</type></trkpt>
      <trkpt lat="39.24538889332899" lon="-6.216878479792376"><ele>1661</ele><speed>13.78</speed><time>2016-06-01T16:36:40Z</time><pdop>6.0</pdop><geoidheight>50.60</geoidheight><course>108.29257</course><type>1</type></trkpt>
      <trkpt lat="39.24535124449564" lon="-6.216736583818001"><ele>1659</ele><speed>13.65</speed><time>2016-06-01T16:36:41Z</time><pdop>6.0</pdop><geoidheight>50.60</geoidheight><course>108.94198</course><type>1</type></trkpt>
      <trkpt lat="39.245314523107346" lon="-6.216597355391612"><ele>1656</ele><speed>13.55</speed><time>2016-06-01T16:36:42Z</time><pdop>6.0</pdop><geoidheight>50.60</geoidheight><course>109.60444</course><type>1</type></trkpt>
      <trkpt lat="39.245274640216564" lon="-6.2164582815682605"><ele>1654</ele><speed>13.48</speed><time>2016-06-01T16:36:43Z</time><pdop>6.0</pdop><geoidheight>50.60</geoidheight><course>110.13571</course><type>1</type></trkpt>
      <trkpt lat="39.245235509561695" lon="-6.216320874616364"><ele>1651</ele><speed>13.43</speed><time>2016-06-01T16:36:44Z</time><pdop>6.0</pdop><geoidheight>50.60</geoidheight><course>109.78433</course><type>1</type></trkpt>
      <trkpt lat="39.245197226947035" lon="-6.216183287027271"><ele>1649</ele><speed>13.28</speed><time>2016-06-01T16:36:45Z</time><pdop>6.0</pdop><geoidheight>50.60</geoidheight><course>109.22062</course><type>1</type></trkpt>
      <trkpt lat="39.245161361404946" lon="-6.216043696746752"><ele>1646</ele><speed>13.48</speed><time>2016-06-01T16:36:46Z</time><pdop>6.0</pdop><geoidheight>50.60</geoidheight><course>108.79544</course><type>1</type></trkpt>
      <trkpt lat="39.24512472088343" lon="-6.215902245258913"><ele>1644</ele><speed>13.55</speed><time>2016-06-01T16:36:47Z</time><pdop>6.0</pdop><geoidheight>50.60</geoidheight><course>109.42109</course><type>1</type></trkpt>
      <trkpt lat="39.24508627594399" lon="-6.21576366606422"><ele>1641</ele><speed>13.46</speed><time>2016-06-01T16:36:48Z</time><pdop>6.0</pdop><geoidheight>50.60</geoidheight><course>110.11327</course><type>1</type></trkpt>
      <trkpt lat="39.24504838825625" lon="-6.215627335412498"><ele>1639</ele><speed>13.43</speed><time>2016-06-01T16:36:49Z</time><pdop>6.0</pdop><geoidheight>50.60</geoidheight><course>109.68515</course><type>1</type></trkpt>
      <trkpt lat="39.245013012393024" lon="-6.215489554763212"><ele>1636</ele><speed>13.56</speed><time>2016-06-01T16:36:50Z</time><pdop>6.0</pdop><geoidheight>50.60</geoidheight><course>108.78103</course><type>1</type></trkpt>
      <trkpt lat="39.244977216160166" lon="-6.215346896769136"><ele>1634</ele><speed>13.12</speed><time>2016-06-01T16:36:51Z</time><pdop>6.0</pdop><geoidheight>50.60</geoidheight><course>107.837776</course><type>1</type></trkpt>
      <trkpt lat="39.2449435668318" lon="-6.215203624551541"><ele>1631</ele><speed>12.77</speed><time>2016-06-01T16:36:52Z</time><pdop>6.0</pdop><geoidheight>50.60</geoidheight><course>107.64991</course><type>1</type></trkpt>
      <trkpt lat="39.244911214747205" lon="-6.215066158858375"><ele>1629</ele><speed>12.53</speed><time>2016-06-01T16:36:53Z</time><pdop>6.0</pdop><geoidheight>50.60</geoidheight><course>108.55088</course><type>1</type></trkpt>
      <trkpt lat="39.24487925726733" lon="-6.2149311938296306"><ele>1627</ele><speed>12.56</speed><time>2016-06-01T16:36:54Z</time><pdop>6.0</pdop><geoidheight>50.60</geoidheight><course>108.210045</course><type>1</type></trkpt>
      <trkpt lat="39.244848272139464" lon="-6.214796933345437"><ele>1624</ele><speed>12.92</speed><time>2016-06-01T16:36:55Z</time><pdop>6.0</pdop><geoidheight>50.60</geoidheight><course>107.53449</course><type>1</type></trkpt>
      <trkpt lat="39.24481720911228" lon="-6.214660242658524"><ele>1622</ele><speed>13.23</speed><time>2016-06-01T16:36:56Z</time><pdop>6.0</pdop><geoidheight>50.60</geoidheight><course>106.92343</course><type>1</type></trkpt>
      <trkpt lat="39.24478814493013" lon="-6.214522642774453"><ele>1619</ele><speed>13.08</speed><time>2016-06-01T16:36:57Z</time><pdop>6.0</pdop><geoidheight>50.60</geoidheight><course>106.61966</course><type>1</type></trkpt>
      <trkpt lat="39.24472725326469" lon="-6.214265097151464"><ele>1615</ele><speed>11.88</speed><time>2016-06-01T16:36:59Z</time><pdop>6.0</pdop><geoidheight>50.60</geoidheight><course>109.022835</course><type>1</type></trkpt>
      <trkpt lat="39.24465069168506" lon="-6.214017532174931"><ele>1611</ele><speed>12.51</speed><time>2016-06-01T16:37:01Z</time><pdop>6.0</pdop><geoidheight>50.60</geoidheight><course>111.80516</course><type>1</type></trkpt>
      <trkpt lat="39.24460869620002" lon="-6.213883767922362"><ele>1609</ele><speed>13.66</speed><time>2016-06-01T16:37:02Z</time><pdop>6.0</pdop><geoidheight>50.60</geoidheight><course>111.05658</course><type>1</type></trkpt>
      <trkpt lat="39.24451970455506" lon="-6.2136177612863435"><ele>1604</ele><speed>13.95</speed><time>2016-06-01T16:37:04Z</time><pdop>6.0</pdop><geoidheight>50.60</geoidheight><course>113.56276</course><type>1</type></trkpt>
      <trkpt lat="39.2444268206537" lon="-6.213381845335722"><ele>1599</ele><speed>11.82</speed><time>2016-06-01T16:37:06Z</time><pdop>6.0</pdop><geoidheight>50.60</geoidheight><course>114.22944</course><type>1</type></trkpt>
      <trkpt lat="39.244342844774565" lon="-6.213134380394757"><ele>1595</ele><speed>12.80</speed><time>2016-06-01T16:37:08Z</time><pdop>6.0</pdop><geoidheight>50.60</geoidheight><course>112.22167</course><type>1</type></trkpt>
      <trkpt lat="39.24426234165282" lon="-6.212886663996518"><ele>1591</ele><speed>12.53</speed><time>2016-06-01T16:37:10Z</time><pdop>6.0</pdop><geoidheight>50.60</geoidheight><course>113.4075</course><type>1</type></trkpt>
      <trkpt lat="39.244182130448095" lon="-6.212653215654341"><ele>1587</ele><speed>10.35</speed><time>2016-06-01T16:37:12Z</time><pdop>6.0</pdop><geoidheight>50.60</geoidheight><course>114.20326</course><type>1</type></trkpt>
      <trkpt lat="39.24410466078935" lon="-6.212431873754622"><ele>1583</ele><speed>11.41</speed><time>2016-06-01T16:37:14Z</time><pdop>6.0</pdop><geoidheight>50.60</geoidheight><course>113.951164</course><type>1</type></trkpt>
      <trkpt lat="39.24406151804546" lon="-6.212303716171094"><ele>1581</ele><speed>13.44</speed><time>2016-06-01T16:37:14Z</time><pdop>6.0</pdop><geoidheight>50.60</geoidheight><course>113.21403</course><type>1</type></trkpt>
      <trkpt lat="39.243979774457806" lon="-6.212035327385094"><ele>1576</ele><speed>12.45</speed><time>2016-06-01T16:37:17Z</time><pdop>8.0</pdop><geoidheight>50.60</geoidheight><course>111.57721</course><type>1</type></trkpt>
      <trkpt lat="39.24391596104225" lon="-6.211802685539661"><ele>1571</ele><speed>11.70</speed><time>2016-06-01T16:37:19Z</time><pdop>8.0</pdop><geoidheight>50.60</geoidheight><course>110.31094</course><type>1</type></trkpt>
      <trkpt lat="39.243845001873865" lon="-6.2115450735501545"><ele>1566</ele><speed>13.37</speed><time>2016-06-01T16:37:21Z</time><pdop>6.0</pdop><geoidheight>50.60</geoidheight><course>110.75621</course><type>1</type></trkpt>
      <trkpt lat="39.24380586452312" lon="-6.21140749821804"><ele>1563</ele><speed>13.75</speed><time>2016-06-01T16:37:22Z</time><pdop>6.0</pdop><geoidheight>50.60</geoidheight><course>110.59659</course><type>1</type></trkpt>
      <trkpt lat="39.24376671368597" lon="-6.211270120528468"><ele>1560</ele><speed>13.39</speed><time>2016-06-01T16:37:23Z</time><pdop>6.0</pdop><geoidheight>50.60</geoidheight><course>110.20051</course><type>1</type></trkpt>
      <trkpt lat="39.24373217791039" lon="-6.211137806732674"><ele>1558</ele><speed>12.29</speed><time>2016-06-01T16:37:24Z</time><pdop>6.0</pdop><geoidheight>50.60</geoidheight><course>109.31656</course><type>1</type></trkpt>
      <trkpt lat="39.24367093724801" lon="-6.210883531227779"><ele>1552</ele><speed>11.66</speed><time>2016-06-01T16:37:26Z</time><pdop>6.0</pdop><geoidheight>50.60</geoidheight><course>107.89637</course><type>1</type></trkpt>
      <trkpt lat="39.243606463539535" lon="-6.21062239681375"><ele>1548</ele><speed>12.96</speed><time>2016-06-01T16:37:28Z</time><pdop>6.0</pdop><geoidheight>50.60</geoidheight><course>108.30814</course><type>1</type></trkpt>
      <trkpt lat="39.24357147669829" lon="-6.210482349837924"><ele>1546</ele><speed>13.43</speed><time>2016-06-01T16:37:29Z</time><pdop>6.0</pdop><geoidheight>50.60</geoidheight><course>108.94838</course><type>1</type></trkpt>
      <trkpt lat="39.24353669454756" lon="-6.210343631845188"><ele>1544</ele><speed>13.10</speed><time>2016-06-01T16:37:30Z</time><pdop>6.0</pdop><geoidheight>50.60</geoidheight><course>109.1119</course><type>1</type></trkpt>
      <trkpt lat="39.24350337997129" lon="-6.210210207237902"><ele>1542</ele><speed>12.20</speed><time>2016-06-01T16:37:31Z</time><pdop>6.0</pdop><geoidheight>50.60</geoidheight><course>108.45568</course><type>1</type></trkpt>
      <trkpt lat="39.24343824256395" lon="-6.209950496552534"><ele>1538</ele><speed>12.46</speed><time>2016-06-01T16:37:33Z</time><pdop>6.0</pdop><geoidheight>50.60</geoidheight><course>108.29107</course><type>1</type></trkpt>
      <trkpt lat="39.2433780889832" lon="-6.209707075875604"><ele>1534</ele><speed>12.34</speed><time>2016-06-01T16:37:35Z</time><pdop>6.0</pdop><geoidheight>50.60</geoidheight><course>108.447655</course><type>1</type></trkpt>
      <trkpt lat="39.24331372766594" lon="-6.209454522021608"><ele>1530</ele><speed>12.45</speed><time>2016-06-01T16:37:37Z</time><pdop>6.0</pdop><geoidheight>50.60</geoidheight><course>108.326805</course><type>1</type></trkpt>
      <trkpt lat="39.243245873799324" lon="-6.209177058021087"><ele>1527</ele><speed>13.99</speed><time>2016-06-01T16:37:39Z</time><pdop>6.0</pdop><geoidheight>50.60</geoidheight><course>106.86908</course><type>1</type></trkpt>
      <trkpt lat="39.243205765497926" lon="-6.2090162949933125"><ele>1526</ele><speed>14.71</speed><time>2016-06-01T16:37:40Z</time><pdop>8.0</pdop><geoidheight>50.60</geoidheight><course>107.26862</course><type>1</type></trkpt>
      <trkpt lat="39.24310683781471" lon="-6.208683733477852"><ele>1523</ele><speed>14.85</speed><time>2016-06-01T16:37:42Z</time><pdop>8.0</pdop><geoidheight>50.60</geoidheight><course>110.20239</course><type>1</type></trkpt>
      <trkpt lat="39.24301055045631" lon="-6.208424903207615"><ele>1520</ele><speed>14.02</speed><time>2016-06-01T16:37:44Z</time><pdop>8.0</pdop><geoidheight>50.60</geoidheight><course>115.0969</course><type>1</type></trkpt>
      <trkpt lat="39.24289754218286" lon="-6.208195069849588"><ele>1515</ele><speed>14.25</speed><time>2016-06-01T16:37:46Z</time><pdop>8.0</pdop><geoidheight>50.60</geoidheight><course>119.18428</course><type>1</type></trkpt>
      <trkpt lat="39.242776041384055" lon="-6.207952361399098"><ele>1510</ele><speed>15.10</speed><time>2016-06-01T16:37:48Z</time><pdop>6.0</pdop><geoidheight>50.60</geoidheight><course>118.737946</course><type>1</type></trkpt>
      <trkpt lat="39.24265936902276" lon="-6.207704349989998"><ele>1504</ele><speed>13.99</speed><time>2016-06-01T16:37:50Z</time><pdop>6.0</pdop><geoidheight>50.60</geoidheight><course>118.381744</course><type>1</type></trkpt>
      <trkpt lat="39.24254871981484" lon="-6.207464071303621"><ele>1499</ele><speed>13.45</speed><time>2016-06-01T16:37:52Z</time><pdop>8.0</pdop><geoidheight>50.60</geoidheight><course>117.41451</course><type>1</type></trkpt>
      <trkpt lat="39.24244253564802" lon="-6.207208000052653"><ele>1494</ele><speed>14.30</speed><time>2016-06-01T16:37:54Z</time><pdop>8.0</pdop><geoidheight>50.60</geoidheight><course>116.32643</course><type>1</type></trkpt>
      <trkpt lat="39.24234676906375" lon="-6.206930427057432"><ele>1490</ele><speed>14.67</speed><time>2016-06-01T16:37:56Z</time><pdop>8.0</pdop><geoidheight>50.60</geoidheight><course>113.235634</course><type>1</type></trkpt>
      <trkpt lat="39.24225327796346" lon="-6.2066579996923315"><ele>1486</ele><speed>13.70</speed><time>2016-06-01T16:37:58Z</time><pdop>8.0</pdop><geoidheight>50.60</geoidheight><course>113.149796</course><type>1</type></trkpt>
      <trkpt lat="39.24215131269437" lon="-6.206389814467903"><ele>1481</ele><speed>14.27</speed><time>2016-06-01T16:38:00Z</time><pdop>8.0</pdop><geoidheight>50.60</geoidheight><course>114.7715</course><type>1</type></trkpt>
      <trkpt lat="39.24204520462305" lon="-6.206128457263006"><ele>1477</ele><speed>13.97</speed><time>2016-06-01T16:38:02Z</time><pdop>8.0</pdop><geoidheight>50.60</geoidheight><course>116.10122</course><type>1</type></trkpt>
      <trkpt lat="39.24193730776936" lon="-6.2058729203110525"><ele>1474</ele><speed>12.95</speed><time>2016-06-01T16:38:04Z</time><pdop>6.0</pdop><geoidheight>50.60</geoidheight><course>117.06073</course><type>1</type></trkpt>
      <trkpt lat="39.241817626966096" lon="-6.2056154514103214"><ele>1470</ele><speed>12.99</speed><time>2016-06-01T16:38:06Z</time><pdop>8.0</pdop><geoidheight>50.60</geoidheight><course>119.67256</course><type>1</type></trkpt>
      <trkpt lat="39.24168680353089" lon="-6.205377588216346"><ele>1466</ele><speed>12.23</speed><time>2016-06-01T16:38:08Z</time><pdop>8.0</pdop><geoidheight>50.60</geoidheight><course>122.94403</course><type>1</type></trkpt>
      <trkpt lat="39.24157049122838" lon="-6.205163880725609"><ele>1463</ele><speed>11.81</speed><time>2016-06-01T16:38:10Z</time><pdop>6.0</pdop><geoidheight>50.60</geoidheight><course>121.78024</course><type>1</type></trkpt>
      <trkpt lat="39.24151102257175" lon="-6.205045693685529"><ele>1462</ele><speed>12.66</speed><time>2016-06-01T16:38:11Z</time><pdop>6.0</pdop><geoidheight>50.60</geoidheight><course>121.00592</course><type>1</type></trkpt>
      <trkpt lat="39.24145244562458" lon="-6.204917731446584"><ele>1461</ele><speed>13.17</speed><time>2016-06-01T16:38:12Z</time><pdop>6.0</pdop><geoidheight>50.60</geoidheight><course>119.97846</course><type>1</type></trkpt>
      <trkpt lat="39.24139645214415" lon="-6.204785721681009"><ele>1460</ele><speed>13.00</speed><time>2016-06-01T16:38:13Z</time><pdop>6.0</pdop><geoidheight>50.60</geoidheight><course>118.483795</course><type>1</type></trkpt>
      <trkpt lat="39.24134757122883" lon="-6.204661267765923"><ele>1458</ele><speed>12.36</speed><time>2016-06-01T16:38:14Z</time><pdop>6.0</pdop><geoidheight>50.60</geoidheight><course>117.27032</course><type>1</type></trkpt>
      <trkpt lat="39.241253457534825" lon="-6.204413275449121"><ele>1456</ele><speed>12.17</speed><time>2016-06-01T16:38:16Z</time><pdop>8.0</pdop><geoidheight>50.60</geoidheight><course>115.67251</course><type>1</type></trkpt>
      <trkpt lat="39.241162355936524" lon="-6.204163597466206"><ele>1455</ele><speed>12.68</speed><time>2016-06-01T16:38:18Z</time><pdop>6.0</pdop><geoidheight>50.60</geoidheight><course>114.40946</course><type>1</type></trkpt>
      <trkpt lat="39.241079087159704" lon="-6.20391679550028"><ele>1453</ele><speed>11.52</speed><time>2016-06-01T16:38:20Z</time><pdop>8.0</pdop><geoidheight>50.60</geoidheight><course>112.94723</course><type>1</type></trkpt>
      <trkpt lat="39.241014587553806" lon="-6.2036982512207395"><ele>1451</ele><speed>11.45</speed><time>2016-06-01T16:38:22Z</time><pdop>8.0</pdop><geoidheight>50.60</geoidheight><course>111.414345</course><type>1</type></trkpt>
      <trkpt lat="39.240956539324046" lon="-6.203455591737627"><ele>1447</ele><speed>13.01</speed><time>2016-06-01T16:38:23Z</time><pdop>8.0</pdop><geoidheight>50.60</geoidheight><course>108.3325</course><type>1</type></trkpt>
      <trkpt lat="39.24089830095024" lon="-6.203200010853133"><ele>1443</ele><speed>11.87</speed><time>2016-06-01T16:38:26Z</time><pdop>8.0</pdop><geoidheight>50.60</geoidheight><course>106.196175</course><type>1</type></trkpt>
      <trkpt lat="39.240825413630255" lon="-6.202917691399693"><ele>1440</ele><speed>11.32</speed><time>2016-06-01T16:38:28Z</time><pdop>8.0</pdop><geoidheight>50.60</geoidheight><course>108.13713</course><type>1</type></trkpt>
      <trkpt lat="39.240741227963404" lon="-6.202656440156975"><ele>1437</ele><speed>12.64</speed><time>2016-06-01T16:38:30Z</time><pdop>8.0</pdop><geoidheight>50.60</geoidheight><course>111.462875</course><type>1</type></trkpt>
      <trkpt lat="39.24064954775449" lon="-6.202407727491775"><ele>1434</ele><speed>13.02</speed><time>2016-06-01T16:38:32Z</time><pdop>6.0</pdop><geoidheight>50.60</geoidheight><course>113.831894</course><type>1</type></trkpt>
      <trkpt lat="39.240548681203734" lon="-6.202174482941171"><ele>1431</ele><speed>12.61</speed><time>2016-06-01T16:38:34Z</time><pdop>6.0</pdop><geoidheight>50.60</geoidheight><course>117.11692</course><type>1</type></trkpt>
      <trkpt lat="39.24044245394611" lon="-6.20194178322373"><ele>1428</ele><speed>12.13</speed><time>2016-06-01T16:38:36Z</time><pdop>6.0</pdop><geoidheight>50.60</geoidheight><course>118.99494</course><type>1</type></trkpt>
      <trkpt lat="39.240328855021886" lon="-6.2017198215292275"><ele>1425</ele><speed>12.10</speed><time>2016-06-01T16:38:37Z</time><pdop>6.0</pdop><geoidheight>50.60</geoidheight><course>120.889336</course><type>1</type></trkpt>
      <trkpt lat="39.240271394146994" lon="-6.201613116291681"><ele>1424</ele><speed>11.95</speed><time>2016-06-01T16:38:39Z</time><pdop>4.0</pdop><geoidheight>50.60</geoidheight><course>122.05266</course><type>1</type></trkpt>
      <trkpt lat="39.240213833792936" lon="-6.201498802866529"><ele>1422</ele><speed>12.13</speed><time>2016-06-01T16:38:40Z</time><pdop>6.0</pdop><geoidheight>50.60</geoidheight><course>121.24236</course><type>1</type></trkpt>
      <trkpt lat="39.24014436548069" lon="-6.201357762947074"><ele>1422</ele><speed>13.74</speed><time>2016-06-01T16:38:41Z</time><pdop>6.0</pdop><geoidheight>50.60</geoidheight><course>120.46867</course><type>1</type></trkpt>
      <trkpt lat="39.240035462241295" lon="-6.201113615527724"><ele>1419</ele><speed>12.12</speed><time>2016-06-01T16:38:43Z</time><pdop>8.0</pdop><geoidheight>50.60</geoidheight><course>117.92377</course><type>1</type></trkpt>
      <trkpt lat="39.23988800251666" lon="-6.200789670978947"><ele>1414</ele><speed>11.95</speed><time>2016-06-01T16:38:46Z</time><pdop>8.0</pdop><geoidheight>50.60</geoidheight><course>118.80951</course><type>1</type></trkpt>
      <trkpt lat="39.239797546796424" lon="-6.200568022552731"><ele>1410</ele><speed>11.59</speed><time>2016-06-01T16:38:48Z</time><pdop>8.0</pdop><geoidheight>50.60</geoidheight><course>115.93997</course><type>1</type></trkpt>
      <trkpt lat="39.2397256031713" lon="-6.200342504953669"><ele>1406</ele><speed>11.56</speed><time>2016-06-01T16:38:50Z</time><pdop>8.0</pdop><geoidheight>50.60</geoidheight><course>112.18106</course><type>1</type></trkpt>
      <trkpt lat="39.23965292660873" lon="-6.200113488002868"><ele>1403</ele><speed>10.84</speed><time>2016-06-01T16:38:52Z</time><pdop>8.0</pdop><geoidheight>50.60</geoidheight><course>113.18395</course><type>1</type></trkpt>
      <trkpt lat="39.2395877110794" lon="-6.1999036209258085"><ele>1399</ele><speed>9.83</speed><time>2016-06-01T16:38:54Z</time><pdop>6.0</pdop><geoidheight>50.60</geoidheight><course>111.126144</course><type>1</type></trkpt>
      <trkpt lat="39.23953176699595" lon="-6.1996909775855435"><ele>1396</ele><speed>10.26</speed><time>2016-06-01T16:38:56Z</time><pdop>6.0</pdop><geoidheight>50.60</geoidheight><course>109.58231</course><type>1</type></trkpt>
      <trkpt lat="39.23947374663676" lon="-6.199470225282026"><ele>1393</ele><speed>11.42</speed><time>2016-06-01T16:38:58Z</time><pdop>6.0</pdop><geoidheight>50.60</geoidheight><course>110.45446</course><type>1</type></trkpt>
      <trkpt lat="39.23941698502665" lon="-6.199234947925856"><ele>1389</ele><speed>12.20</speed><time>2016-06-01T16:38:59Z</time><pdop>6.0</pdop><geoidheight>50.60</geoidheight><course>108.28101</course><type>1</type></trkpt>
      <trkpt lat="39.23936142351595" lon="-6.198983201978539"><ele>1385</ele><speed>12.11</speed><time>2016-06-01T16:39:02Z</time><pdop>8.0</pdop><geoidheight>50.60</geoidheight><course>106.59417</course><type>1</type></trkpt>
      <trkpt lat="39.23930275613268" lon="-6.198723865192547"><ele>1381</ele><speed>12.81</speed><time>2016-06-01T16:39:04Z</time><pdop>8.0</pdop><geoidheight>50.60</geoidheight><course>106.24601</course><type>1</type></trkpt>
      <trkpt lat="39.239245700866036" lon="-6.198469005447485"><ele>1376</ele><speed>12.41</speed><time>2016-06-01T16:39:06Z</time><pdop>8.0</pdop><geoidheight>50.60</geoidheight><course>107.34235</course><type>1</type></trkpt>
      <trkpt lat="39.239181944409054" lon="-6.198213182954034"><ele>1373</ele><speed>12.70</speed><time>2016-06-01T16:39:08Z</time><pdop>8.0</pdop><geoidheight>50.60</geoidheight><course>109.19834</course><type>1</type></trkpt>
      <trkpt lat="39.23911204791818" lon="-6.197939186677911"><ele>1369</ele><speed>13.51</speed><time>2016-06-01T16:39:10Z</time><pdop>6.0</pdop><geoidheight>50.60</geoidheight><course>108.02629</course><type>1</type></trkpt>
      <trkpt lat="39.239079188143535" lon="-6.197794514934316"><ele>1367</ele><speed>13.90</speed><time>2016-06-01T16:39:11Z</time><pdop>6.0</pdop><geoidheight>50.60</geoidheight><course>107.53997</course><type>1</type></trkpt>
      <trkpt lat="39.23904720606435" lon="-6.197654431427975"><ele>1365</ele><speed>13.62</speed><time>2016-06-01T16:39:12Z</time><pdop>6.0</pdop><geoidheight>50.60</geoidheight><course>108.194725</course><type>1</type></trkpt>
      <trkpt lat="39.238984216050575" lon="-6.197402498887769"><ele>1360</ele><speed>12.13</speed><time>2016-06-01T16:39:14Z</time><pdop>6.0</pdop><geoidheight>50.60</geoidheight><course>108.80887</course><type>1</type></trkpt>
      <trkpt lat="39.23892057136217" lon="-6.197150313013739"><ele>1357</ele><speed>12.09</speed><time>2016-06-01T16:39:16Z</time><pdop>6.0</pdop><geoidheight>50.60</geoidheight><course>108.20233</course><type>1</type></trkpt>
      <trkpt lat="39.23885494590433" lon="-6.196894509834308"><ele>1353</ele><speed>12.01</speed><time>2016-06-01T16:39:18Z</time><pdop>6.0</pdop><geoidheight>50.60</geoidheight><course>108.7786</course><type>1</type></trkpt>
      <trkpt lat="39.23879183702248" lon="-6.196648843632195"><ele>1349</ele><speed>12.21</speed><time>2016-06-01T16:39:20Z</time><pdop>6.0</pdop><geoidheight>50.60</geoidheight><course>107.97357</course><type>1</type></trkpt>
      <trkpt lat="39.23873346963699" lon="-6.1963955129215815"><ele>1344</ele><speed>12.40</speed><time>2016-06-01T16:39:22Z</time><pdop>8.0</pdop><geoidheight>50.60</geoidheight><course>107.54071</course><type>1</type></trkpt>
      <trkpt lat="39.23865825504168" lon="-6.196153482029856"><ele>1340</ele><speed>11.74</speed><time>2016-06-01T16:39:24Z</time><pdop>6.0</pdop><geoidheight>50.60</geoidheight><course>111.39535</course><type>1</type></trkpt>
      <trkpt lat="39.23857578165076" lon="-6.19591463189269"><ele>1336</ele><speed>12.07</speed><time>2016-06-01T16:39:26Z</time><pdop>6.0</pdop><geoidheight>50.60</geoidheight><course>112.71211</course><type>1</type></trkpt>
      <trkpt lat="39.238492731576585" lon="-6.19567060301717"><ele>1331</ele><speed>12.35</speed><time>2016-06-01T16:39:28Z</time><pdop>6.0</pdop><geoidheight>50.60</geoidheight><course>112.30641</course><type>1</type></trkpt>
      <trkpt lat="39.23845051867736" lon="-6.195537343569872"><ele>1329</ele><speed>12.52</speed><time>2016-06-01T16:39:29Z</time><pdop>6.0</pdop><geoidheight>50.60</geoidheight><course>111.390945</course><type>1</type></trkpt>
      <trkpt lat="39.23838134185398" lon="-6.1952997196953685"><ele>1324</ele><speed>12.00</speed><time>2016-06-01T16:39:30Z</time><pdop>8.0</pdop><geoidheight>50.60</geoidheight><course>110.20828</course><type>1</type></trkpt>
      <trkpt lat="39.238311193413004" lon="-6.1950359611647645"><ele>1320</ele><speed>11.89</speed><time>2016-06-01T16:39:33Z</time><pdop>8.0</pdop><geoidheight>50.60</geoidheight><course>108.45556</course><type>1</type></trkpt>
      <trkpt lat="39.238237311880894" lon="-6.194759593765425"><ele>1317</ele><speed>12.19</speed><time>2016-06-01T16:39:35Z</time><pdop>6.0</pdop><geoidheight>50.60</geoidheight><course>109.23837</course><type>1</type></trkpt>
      <trkpt lat="39.23816650294875" lon="-6.194512386446217"><ele>1313</ele><speed>12.39</speed><time>2016-06-01T16:39:37Z</time><pdop>6.0</pdop><geoidheight>50.60</geoidheight><course>110.17496</course><type>1</type></trkpt>
      <trkpt lat="39.23809797278367" lon="-6.194280327578781"><ele>1308</ele><speed>12.69</speed><time>2016-06-01T16:39:39Z</time><pdop>6.0</pdop><geoidheight>50.60</geoidheight><course>111.03778</course><type>1</type></trkpt>
      <trkpt lat="39.23802093344544" lon="-6.194033481826087"><ele>1303</ele><speed>11.85</speed><time>2016-06-01T16:39:41Z</time><pdop>6.0</pdop><geoidheight>50.60</geoidheight><course>112.13944</course><type>1</type></trkpt>
      <trkpt lat="39.237939635924064" lon="-6.193793143079323"><ele>1299</ele><speed>11.90</speed><time>2016-06-01T16:39:43Z</time><pdop>6.0</pdop><geoidheight>50.60</geoidheight><course>113.75758</course><type>1</type></trkpt>
      <trkpt lat="39.23785644675518" lon="-6.193551628550554"><ele>1294</ele><speed>12.86</speed><time>2016-06-01T16:39:45Z</time><pdop>6.0</pdop><geoidheight>50.60</geoidheight><course>113.005005</course><type>1</type></trkpt>
      <trkpt lat="39.23777772034185" lon="-6.193309813013126"><ele>1290</ele><speed>11.78</speed><time>2016-06-01T16:39:47Z</time><pdop>8.0</pdop><geoidheight>50.60</geoidheight><course>112.525185</course><type>1</type></trkpt>
      <trkpt lat="39.237700591362575" lon="-6.193075415216799"><ele>1286</ele><speed>11.53</speed><time>2016-06-01T16:39:49Z</time><pdop>8.0</pdop><geoidheight>50.60</geoidheight><course>113.35098</course><type>1</type></trkpt>
      <trkpt lat="39.237621892906425" lon="-6.192834203923971"><ele>1283</ele><speed>12.33</speed><time>2016-06-01T16:39:51Z</time><pdop>6.0</pdop><geoidheight>50.60</geoidheight><course>112.14296</course><type>1</type></trkpt>
      <trkpt lat="39.237545447409225" lon="-6.192585163915403"><ele>1279</ele><speed>12.21</speed><time>2016-06-01T16:39:53Z</time><pdop>6.0</pdop><geoidheight>50.60</geoidheight><course>111.865295</course><type>1</type></trkpt>
      <trkpt lat="39.23746108489405" lon="-6.192344684386454"><ele>1276</ele><speed>11.86</speed><time>2016-06-01T16:39:55Z</time><pdop>6.0</pdop><geoidheight>50.60</geoidheight><course>114.21085</course><type>1</type></trkpt>
      <trkpt lat="39.2373750859557" lon="-6.19211642498729"><ele>1273</ele><speed>12.39</speed><time>2016-06-01T16:39:57Z</time><pdop>6.0</pdop><geoidheight>50.60</geoidheight><course>115.5</course><type>1</type></trkpt>
      <trkpt lat="39.23728720052661" lon="-6.191888294517661"><ele>1269</ele><speed>12.28</speed><time>2016-06-01T16:39:59Z</time><pdop>6.0</pdop><geoidheight>50.60</geoidheight><course>115.23552</course><type>1</type></trkpt>
      <trkpt lat="39.23720239884992" lon="-6.191647829021445"><ele>1266</ele><speed>12.60</speed><time>2016-06-01T16:40:01Z</time><pdop>6.0</pdop><geoidheight>50.60</geoidheight><course>113.91359</course><type>1</type></trkpt>
      <trkpt lat="39.23711883474102" lon="-6.191398106726536"><ele>1262</ele><speed>13.28</speed><time>2016-06-01T16:40:03Z</time><pdop>6.0</pdop><geoidheight>50.60</geoidheight><course>113.04601</course><type>1</type></trkpt>
      <trkpt lat="39.23707712373191" lon="-6.191269033275268"><ele>1260</ele><speed>13.24</speed><time>2016-06-01T16:40:04Z</time><pdop>6.0</pdop><geoidheight>50.60</geoidheight><course>112.20198</course><type>1</type></trkpt>
      <trkpt lat="39.236998312811615" lon="-6.191002802489959"><ele>1256</ele><speed>12.19</speed><time>2016-06-01T16:40:06Z</time><pdop>6.0</pdop><geoidheight>50.60</geoidheight><course>110.85422</course><type>1</type></trkpt>
      <trkpt lat="39.236926751690255" lon="-6.1907465360400815"><ele>1253</ele><speed>12.64</speed><time>2016-06-01T16:40:08Z</time><pdop>6.0</pdop><geoidheight>50.60</geoidheight><course>110.94229</course><type>1</type></trkpt>
      <trkpt lat="39.23685333928905" lon="-6.190503761337409"><ele>1248</ele><speed>12.88</speed><time>2016-06-01T16:40:10Z</time><pdop>6.0</pdop><geoidheight>50.60</geoidheight><course>111.97812</course><type>1</type></trkpt>
      <trkpt lat="39.23677851235279" lon="-6.190258467013298"><ele>1244</ele><speed>12.27</speed><time>2016-06-01T16:40:12Z</time><pdop>6.0</pdop><geoidheight>50.60</geoidheight><course>111.94682</course><type>1</type></trkpt>
      <trkpt lat="39.2366977564334" lon="-6.190012253173311"><ele>1240</ele><speed>12.50</speed><time>2016-06-01T16:40:14Z</time><pdop>6.0</pdop><geoidheight>50.60</geoidheight><course>113.63218</course><type>1</type></trkpt>
      <trkpt lat="39.23660529407087" lon="-6.189762203277236"><ele>1237</ele><speed>12.68</speed><time>2016-06-01T16:40:16Z</time><pdop>6.0</pdop><geoidheight>50.60</geoidheight><course>114.89553</course><type>1</type></trkpt>
      <trkpt lat="39.23655685668857" lon="-6.18963587999781"><ele>1235</ele><speed>12.72</speed><time>2016-06-01T16:40:17Z</time><pdop>6.0</pdop><geoidheight>50.60</geoidheight><course>114.95272</course><type>1</type></trkpt>
      <trkpt lat="39.23650746890429" lon="-6.189505839351886"><ele>1234</ele><speed>12.81</speed><time>2016-06-01T16:40:18Z</time><pdop>6.0</pdop><geoidheight>50.60</geoidheight><course>115.21831</course><type>1</type></trkpt>
      <trkpt lat="39.23645917463341" lon="-6.189378821706298"><ele>1232</ele><speed>12.57</speed><time>2016-06-01T16:40:19Z</time><pdop>6.0</pdop><geoidheight>50.60</geoidheight><course>115.77675</course><type>1</type></trkpt>
      <trkpt lat="39.23640985899512" lon="-6.189254040537172"><ele>1231</ele><speed>12.68</speed><time>2016-06-01T16:40:20Z</time><pdop>6.0</pdop><geoidheight>50.60</geoidheight><course>116.302124</course><type>1</type></trkpt>
      <trkpt lat="39.236360673415746" lon="-6.189128942808589"><ele>1229</ele><speed>12.90</speed><time>2016-06-01T16:40:21Z</time><pdop>6.0</pdop><geoidheight>50.60</geoidheight><course>116.16006</course><type>1</type></trkpt>
      <trkpt lat="39.23631034775368" lon="-6.188999974199304"><ele>1228</ele><speed>13.15</speed><time>2016-06-01T16:40:22Z</time><pdop>6.0</pdop><geoidheight>50.60</geoidheight><course>115.47307</course><type>1</type></trkpt>
      <trkpt lat="39.23626022699186" lon="-6.1888705838618"><ele>1226</ele><speed>13.08</speed><time>2016-06-01T16:40:23Z</time><pdop>6.0</pdop><geoidheight>50.60</geoidheight><course>116.06097</course><type>1</type></trkpt>
      <trkpt lat="39.236211368735205" lon="-6.188746430684806"><ele>1224</ele><speed>12.69</speed><time>2016-06-01T16:40:24Z</time><pdop>6.0</pdop><geoidheight>50.60</geoidheight><course>116.962326</course><type>1</type></trkpt>
      <trkpt lat="39.23610341655465" lon="-6.188513007673877"><ele>1221</ele><speed>12.03</speed><time>2016-06-01T16:40:26Z</time><pdop>6.0</pdop><geoidheight>50.60</geoidheight><course>119.9652</course><type>1</type></trkpt>
      <trkpt lat="39.23600304512186" lon="-6.188302042012457"><ele>1218</ele><speed>10.84</speed><time>2016-06-01T16:40:28Z</time><pdop>6.0</pdop><geoidheight>50.60</geoidheight><course>119.13616</course><type>1</type></trkpt>
      <trkpt lat="39.23591420078003" lon="-6.1880893663921235"><ele>1215</ele><speed>11.18</speed><time>2016-06-01T16:40:30Z</time><pdop>6.0</pdop><geoidheight>50.60</geoidheight><course>117.4004</course><type>1</type></trkpt>
      <trkpt lat="39.235826374959295" lon="-6.187864747745874"><ele>1212</ele><speed>11.09</speed><time>2016-06-01T16:40:32Z</time><pdop>8.0</pdop><geoidheight>50.60</geoidheight><course>116.502815</course><type>1</type></trkpt>
      <trkpt lat="39.2357492709197" lon="-6.187644133688205"><ele>1209</ele><speed>10.60</speed><time>2016-06-01T16:40:34Z</time><pdop>8.0</pdop><geoidheight>50.60</geoidheight><course>113.90167</course><type>1</type></trkpt>
      <trkpt lat="39.235677718288315" lon="-6.18743443924662"><ele>1205</ele><speed>11.30</speed><time>2016-06-01T16:40:36Z</time><pdop>6.0</pdop><geoidheight>50.60</geoidheight><course>114.93022</course><type>1</type></trkpt>
      <trkpt lat="39.235592716403666" lon="-6.187218984342532"><ele>1201</ele><speed>11.61</speed><time>2016-06-01T16:40:38Z</time><pdop>6.0</pdop><geoidheight>50.60</geoidheight><course>117.01217</course><type>1</type></trkpt>
      <trkpt lat="39.23550693019948" lon="-6.187000780924327"><ele>1196</ele><speed>11.34</speed><time>2016-06-01T16:40:40Z</time><pdop>6.0</pdop><geoidheight>50.60</geoidheight><course>115.616615</course><type>1</type></trkpt>
      <trkpt lat="39.235428556650184" lon="-6.186780880629319"><ele>1192</ele><speed>11.05</speed><time>2016-06-01T16:40:42Z</time><pdop>6.0</pdop><geoidheight>50.60</geoidheight><course>114.35227</course><type>1</type></trkpt>
      <trkpt lat="39.235357704057584" lon="-6.186558682588458"><ele>1188</ele><speed>10.65</speed><time>2016-06-01T16:40:44Z</time><pdop>6.0</pdop><geoidheight>50.60</geoidheight><course>112.41345</course><type>1</type></trkpt>
      <trkpt lat="39.23529773934071" lon="-6.18634724164584"><ele>1184</ele><speed>9.76</speed><time>2016-06-01T16:40:46Z</time><pdop>6.0</pdop><geoidheight>50.60</geoidheight><course>110.70045</course><type>1</type></trkpt>
      <trkpt lat="39.23524434360298" lon="-6.186141322300673"><ele>1181</ele><speed>9.90</speed><time>2016-06-01T16:40:48Z</time><pdop>6.0</pdop><geoidheight>50.60</geoidheight><course>108.79209</course><type>1</type></trkpt>
      <trkpt lat="39.235191668200045" lon="-6.185927157882388"><ele>1178</ele><speed>10.49</speed><time>2016-06-01T16:40:50Z</time><pdop>6.0</pdop><geoidheight>50.60</geoidheight><course>107.60453</course><type>1</type></trkpt>
      <trkpt lat="39.235139224770535" lon="-6.185711358169819"><ele>1174</ele><speed>10.23</speed><time>2016-06-01T16:40:52Z</time><pdop>6.0</pdop><geoidheight>50.60</geoidheight><course>108.39213</course><type>1</type></trkpt>
      <trkpt lat="39.23508062788014" lon="-6.185504339006362"><ele>1171</ele><speed>10.04</speed><time>2016-06-01T16:40:54Z</time><pdop>6.0</pdop><geoidheight>50.60</geoidheight><course>110.18466</course><type>1</type></trkpt>
      <trkpt lat="39.23501899981861" lon="-6.185291181890416"><ele>1168</ele><speed>10.65</speed><time>2016-06-01T16:40:56Z</time><pdop>6.0</pdop><geoidheight>50.60</geoidheight><course>109.66544</course><type>1</type></trkpt>
      <trkpt lat="39.23495645967431" lon="-6.185073656554291"><ele>1165</ele><speed>10.50</speed><time>2016-06-01T16:40:58Z</time><pdop>6.0</pdop><geoidheight>50.60</geoidheight><course>110.40543</course><type>1</type></trkpt>
      <trkpt lat="39.234890984098065" lon="-6.184865228886766"><ele>1162</ele><speed>10.17</speed><time>2016-06-01T16:41:00Z</time><pdop>6.0</pdop><geoidheight>50.60</geoidheight><course>111.53059</course><type>1</type></trkpt>
      <trkpt lat="39.23482405684324" lon="-6.184651414849815"><ele>1158</ele><speed>10.71</speed><time>2016-06-01T16:41:02Z</time><pdop>6.0</pdop><geoidheight>50.60</geoidheight><course>110.5487</course><type>1</type></trkpt>
      <trkpt lat="39.2347622769399" lon="-6.184423215669149"><ele>1154</ele><speed>11.06</speed><time>2016-06-01T16:41:04Z</time><pdop>6.0</pdop><geoidheight>50.60</geoidheight><course>109.511055</course><type>1</type></trkpt>
      <trkpt lat="39.23469258166325" lon="-6.1842041523175"><ele>1151</ele><speed>10.76</speed><time>2016-06-01T16:41:06Z</time><pdop>6.0</pdop><geoidheight>50.60</geoidheight><course>111.280365</course><type>1</type></trkpt>
      <trkpt lat="39.234617935998486" lon="-6.183990745072059"><ele>1147</ele><speed>10.85</speed><time>2016-06-01T16:41:08Z</time><pdop>6.0</pdop><geoidheight>50.60</geoidheight><course>111.52223</course><type>1</type></trkpt>
      <trkpt lat="39.23453834368802" lon="-6.1837751745333875"><ele>1142</ele><speed>11.24</speed><time>2016-06-01T16:41:10Z</time><pdop>6.0</pdop><geoidheight>50.60</geoidheight><course>113.4494</course><type>1</type></trkpt>
      <trkpt lat="39.234456133616185" lon="-6.18355566013534"><ele>1138</ele><speed>10.96</speed><time>2016-06-01T16:41:12Z</time><pdop>6.0</pdop><geoidheight>50.60</geoidheight><course>113.53977</course><type>1</type></trkpt>
      <trkpt lat="39.234379192958635" lon="-6.183332532624298"><ele>1134</ele><speed>11.17</speed><time>2016-06-01T16:41:14Z</time><pdop>6.0</pdop><geoidheight>50.60</geoidheight><course>112.36123</course><type>1</type></trkpt>
      <trkpt lat="39.23430335439527" lon="-6.183107879600352"><ele>1130</ele><speed>10.88</speed><time>2016-06-01T16:41:16Z</time><pdop>6.0</pdop><geoidheight>50.60</geoidheight><course>113.49092</course><type>1</type></trkpt>
      <trkpt lat="39.23422975120097" lon="-6.182886146603821"><ele>1127</ele><speed>10.80</speed><time>2016-06-01T16:41:18Z</time><pdop>6.0</pdop><geoidheight>50.60</geoidheight><course>112.47365</course><type>1</type></trkpt>
      <trkpt lat="39.234161531694305" lon="-6.182663996508083"><ele>1123</ele><speed>10.63</speed><time>2016-06-01T16:41:20Z</time><pdop>6.0</pdop><geoidheight>50.60</geoidheight><course>111.045815</course><type>1</type></trkpt>
      <trkpt lat="39.23409817802373" lon="-6.18244220326345"><ele>1120</ele><speed>10.86</speed><time>2016-06-01T16:41:22Z</time><pdop>6.0</pdop><geoidheight>50.60</geoidheight><course>109.442154</course><type>1</type></trkpt>
      <trkpt lat="39.23403729101007" lon="-6.182209974716015"><ele>1116</ele><speed>11.01</speed><time>2016-06-01T16:41:24Z</time><pdop>6.0</pdop><geoidheight>50.60</geoidheight><course>108.059326</course><type>1</type></trkpt>
      <trkpt lat="39.23398074512986" lon="-6.181983365758112"><ele>1112</ele><speed>10.73</speed><time>2016-06-01T16:41:26Z</time><pdop>6.0</pdop><geoidheight>50.60</geoidheight><course>108.97304</course><type>1</type></trkpt>
      <trkpt lat="39.233916869829216" lon="-6.181759925275721"><ele>1108</ele><speed>10.95</speed><time>2016-06-01T16:41:28Z</time><pdop>6.0</pdop><geoidheight>50.60</geoidheight><course>109.20002</course><type>1</type></trkpt>
      <trkpt lat="39.23385003885362" lon="-6.181533081080266"><ele>1105</ele><speed>11.02</speed><time>2016-06-01T16:41:30Z</time><pdop>6.0</pdop><geoidheight>50.60</geoidheight><course>110.46171</course><type>1</type></trkpt>
      <trkpt lat="39.23376292182568" lon="-6.181308278258627"><ele>1102</ele><speed>11.52</speed><time>2016-06-01T16:41:32Z</time><pdop>6.0</pdop><geoidheight>50.60</geoidheight><course>114.99701</course><type>1</type></trkpt>
      <trkpt lat="39.23367357802759" lon="-6.181083977425557"><ele>1099</ele><speed>10.68</speed><time>2016-06-01T16:41:34Z</time><pdop>6.0</pdop><geoidheight>50.60</geoidheight><course>113.560394</course><type>1</type></trkpt>
      <trkpt lat="39.23359237704198" lon="-6.180870247482579"><ele>1096</ele><speed>10.64</speed><time>2016-06-01T16:41:36Z</time><pdop>6.0</pdop><geoidheight>50.60</geoidheight><course>115.29825</course><type>1</type></trkpt>
      <trkpt lat="39.233492983675994" lon="-6.180638785824804"><ele>1093</ele><speed>11.72</speed><time>2016-06-01T16:41:38Z</time><pdop>6.0</pdop><geoidheight>50.60</geoidheight><course>115.9515</course><type>1</type></trkpt>
      <trkpt lat="39.23340214485995" lon="-6.180426337715265"><ele>1090</ele><speed>11.15</speed><time>2016-06-01T16:41:39Z</time><pdop>6.0</pdop><geoidheight>50.60</geoidheight><course>117.189766</course><type>1</type></trkpt>
      <trkpt lat="39.23330347596696" lon="-6.180203941918307"><ele>1088</ele><speed>11.46</speed><time>2016-06-01T16:41:42Z</time><pdop>6.0</pdop><geoidheight>50.60</geoidheight><course>117.99489</course><type>1</type></trkpt>
      <trkpt lat="39.23321138119779" lon="-6.179962036280737"><ele>1086</ele><speed>12.38</speed><time>2016-06-01T16:41:44Z</time><pdop>6.0</pdop><geoidheight>50.60</geoidheight><course>114.113846</course><type>1</type></trkpt>
      <trkpt lat="39.23312324822577" lon="-6.179721252276279"><ele>1084</ele><speed>11.79</speed><time>2016-06-01T16:41:46Z</time><pdop>8.0</pdop><geoidheight>50.60</geoidheight><course>114.30188</course><type>1</type></trkpt>
      <trkpt lat="39.23304028001229" lon="-6.1795033514190445"><ele>1080</ele><speed>10.95</speed><time>2016-06-01T16:41:48Z</time><pdop>8.0</pdop><geoidheight>50.60</geoidheight><course>113.88092</course><type>1</type></trkpt>
      <trkpt lat="39.232972760997356" lon="-6.179291168925566"><ele>1077</ele><speed>10.25</speed><time>2016-06-01T16:41:50Z</time><pdop>6.0</pdop><geoidheight>50.60</geoidheight><course>109.70841</course><type>1</type></trkpt>
      <trkpt lat="39.232928311068264" lon="-6.179078012901156"><ele>1073</ele><speed>9.61</speed><time>2016-06-01T16:41:52Z</time><pdop>6.0</pdop><geoidheight>50.60</geoidheight><course>104.67466</course><type>1</type></trkpt>
      <trkpt lat="39.23289866922967" lon="-6.1788678117026326"><ele>1070</ele><speed>9.78</speed><time>2016-06-01T16:41:54Z</time><pdop>6.0</pdop><geoidheight>50.60</geoidheight><course>101.33176</course><type>1</type></trkpt>
      <trkpt lat="39.23286791128626" lon="-6.178514990135322"><ele>1065</ele><speed>11.07</speed><time>2016-06-01T16:41:57Z</time><pdop>6.0</pdop><geoidheight>50.60</geoidheight><course>97.31413</course><type>1</type></trkpt>
      <trkpt lat="39.23284736357161" lon="-6.178277038561221"><ele>1063</ele><speed>10.62</speed><time>2016-06-01T16:41:59Z</time><pdop>6.0</pdop><geoidheight>50.60</geoidheight><course>99.210686</course><type>1</type></trkpt>
      <trkpt lat="39.23281579533526" lon="-6.178063389761882"><ele>1060</ele><speed>9.44</speed><time>2016-06-01T16:42:01Z</time><pdop>8.0</pdop><geoidheight>50.60</geoidheight><course>101.84576</course><type>1</type></trkpt>
      <trkpt lat="39.23277663943071" lon="-6.177841212259741"><ele>1057</ele><speed>11.42</speed><time>2016-06-01T16:42:03Z</time><pdop>6.0</pdop><geoidheight>50.60</geoidheight><course>102.215065</course><type>1</type></trkpt>
      <trkpt lat="39.232724355534785" lon="-6.177586710616705"><ele>1053</ele><speed>12.32</speed><time>2016-06-01T16:42:05Z</time><pdop>6.0</pdop><geoidheight>50.60</geoidheight><course>104.54214</course><type>1</type></trkpt>
      <trkpt lat="39.23266621295559" lon="-6.17735216769222"><ele>1050</ele><speed>10.81</speed><time>2016-06-01T16:42:07Z</time><pdop>6.0</pdop><geoidheight>50.60</geoidheight><course>105.1013</course><type>1</type></trkpt>
      <trkpt lat="39.232607803040345" lon="-6.177119967084949"><ele>1046</ele><speed>11.39</speed><time>2016-06-01T16:42:09Z</time><pdop>6.0</pdop><geoidheight>50.60</geoidheight><course>106.31116</course><type>1</type></trkpt>
      <trkpt lat="39.2325381927757" lon="-6.176872388509344"><ele>1044</ele><speed>11.56</speed><time>2016-06-01T16:42:11Z</time><pdop>6.0</pdop><geoidheight>50.60</geoidheight><course>109.42862</course><type>1</type></trkpt>
      <trkpt lat="39.232462842429506" lon="-6.1766343630992"><ele>1041</ele><speed>11.74</speed><time>2016-06-01T16:42:13Z</time><pdop>6.0</pdop><geoidheight>50.60</geoidheight><course>109.3147</course><type>1</type></trkpt>
      <trkpt lat="39.23238628074973" lon="-6.176401870293348"><ele>1037</ele><speed>11.82</speed><time>2016-06-01T16:42:15Z</time><pdop>6.0</pdop><geoidheight>50.60</geoidheight><course>109.23026</course><type>1</type></trkpt>
      <trkpt lat="39.23230765066746" lon="-6.17617052824731"><ele>1034</ele><speed>11.51</speed><time>2016-06-01T16:42:17Z</time><pdop>6.0</pdop><geoidheight>50.60</geoidheight><course>110.73647</course><type>1</type></trkpt>
      <trkpt lat="39.232220558887946" lon="-6.175944595998218"><ele>1031</ele><speed>11.84</speed><time>2016-06-01T16:42:19Z</time><pdop>6.0</pdop><geoidheight>50.60</geoidheight><course>112.23686</course><type>1</type></trkpt>
      <trkpt lat="39.23212921373374" lon="-6.175718471253287"><ele>1027</ele><speed>11.76</speed><time>2016-06-01T16:42:21Z</time><pdop>8.0</pdop><geoidheight>50.60</geoidheight><course>113.451645</course><type>1</type></trkpt>
      <trkpt lat="39.232039340871694" lon="-6.175498936948484"><ele>1022</ele><speed>11.80</speed><time>2016-06-01T16:42:23Z</time><pdop>8.0</pdop><geoidheight>50.60</geoidheight><course>113.63335</course><type>1</type></trkpt>
      <trkpt lat="39.231939305909385" lon="-6.175262698753866"><ele>1018</ele><speed>11.79</speed><time>2016-06-01T16:42:25Z</time><pdop>6.0</pdop><geoidheight>50.60</geoidheight><course>115.91605</course><type>1</type></trkpt>
      <trkpt lat="39.231844124912605" lon="-6.175042335537811"><ele>1013</ele><speed>12.19</speed><time>2016-06-01T16:42:27Z</time><pdop>6.0</pdop><geoidheight>50.60</geoidheight><course>116.57628</course><type>1</type></trkpt>
      <trkpt lat="39.231744015867456" lon="-6.174804170790408"><ele>1009</ele><speed>13.05</speed><time>2016-06-01T16:42:29Z</time><pdop>6.0</pdop><geoidheight>50.60</geoidheight><course>115.919914</course><type>1</type></trkpt>
      <trkpt lat="39.231691187190656" lon="-6.174674040706473"><ele>1006</ele><speed>12.84</speed><time>2016-06-01T16:42:30Z</time><pdop>6.0</pdop><geoidheight>50.60</geoidheight><course>115.26735</course><type>1</type></trkpt>
      <trkpt lat="39.231598432604464" lon="-6.174443473429854"><ele>1003</ele><speed>10.97</speed><time>2016-06-01T16:42:32Z</time><pdop>6.0</pdop><geoidheight>50.60</geoidheight><course>116.34582</course><type>1</type></trkpt>
      <trkpt lat="39.23147349174742" lon="-6.174092287688555"><ele>998</ele><speed>12.60</speed><time>2016-06-01T16:42:35Z</time><pdop>6.0</pdop><geoidheight>50.60</geoidheight><course>112.5406</course><type>1</type></trkpt>
      <trkpt lat="39.23143440210588" lon="-6.173955367416011"><ele>996</ele><speed>13.15</speed><time>2016-06-01T16:42:36Z</time><pdop>6.0</pdop><geoidheight>50.60</geoidheight><course>110.36342</course><type>1</type></trkpt>
      <trkpt lat="39.23139429047207" lon="-6.173812349417457"><ele>994</ele><speed>12.75</speed><time>2016-06-01T16:42:37Z</time><pdop>6.0</pdop><geoidheight>50.60</geoidheight><course>109.6806</course><type>1</type></trkpt>
      <trkpt lat="39.23135663588124" lon="-6.173680279042434"><ele>992</ele><speed>11.80</speed><time>2016-06-01T16:42:38Z</time><pdop>6.0</pdop><geoidheight>50.60</geoidheight><course>110.73051</course><type>1</type></trkpt>
      <trkpt lat="39.23128604668788" lon="-6.173444136840848"><ele>989</ele><speed>11.14</speed><time>2016-06-01T16:42:40Z</time><pdop>6.0</pdop><geoidheight>50.60</geoidheight><course>110.058586</course><type>1</type></trkpt>
      <trkpt lat="39.23123078974949" lon="-6.173190542967831"><ele>986</ele><speed>11.99</speed><time>2016-06-01T16:42:42Z</time><pdop>6.0</pdop><geoidheight>50.60</geoidheight><course>105.543144</course><type>1</type></trkpt>
      <trkpt lat="39.23118198978467" lon="-6.172932460891466"><ele>982</ele><speed>12.07</speed><time>2016-06-01T16:42:44Z</time><pdop>6.0</pdop><geoidheight>50.60</geoidheight><course>105.23304</course><type>1</type></trkpt>
      <trkpt lat="39.231129087579355" lon="-6.172689003862118"><ele>979</ele><speed>11.29</speed><time>2016-06-01T16:42:46Z</time><pdop>6.0</pdop><geoidheight>50.60</geoidheight><course>105.535484</course><type>1</type></trkpt>
      <trkpt lat="39.23107879600664" lon="-6.17245173137962"><ele>974</ele><speed>12.08</speed><time>2016-06-01T16:42:48Z</time><pdop>8.0</pdop><geoidheight>50.60</geoidheight><course>104.939896</course><type>1</type></trkpt>
      <trkpt lat="39.23102129856194" lon="-6.172170822865424"><ele>970</ele><speed>13.58</speed><time>2016-06-01T16:42:50Z</time><pdop>8.0</pdop><geoidheight>50.60</geoidheight><course>103.29299</course><type>1</type></trkpt>
      <trkpt lat="39.23096179545158" lon="-6.171919008509615"><ele>965</ele><speed>12.34</speed><time>2016-06-01T16:42:52Z</time><pdop>8.0</pdop><geoidheight>50.60</geoidheight><course>106.69234</course><type>1</type></trkpt>
      <trkpt lat="39.230895756548634" lon="-6.171661822302284"><ele>960</ele><speed>12.59</speed><time>2016-06-01T16:42:53Z</time><pdop>8.0</pdop><geoidheight>50.60</geoidheight><course>107.40865</course><type>1</type></trkpt>
      <trkpt lat="39.23082236120609" lon="-6.171372800964736"><ele>955</ele><speed>14.23</speed><time>2016-06-01T16:42:56Z</time><pdop>8.0</pdop><geoidheight>50.60</geoidheight><course>107.74741</course><type>1</type></trkpt>
      <trkpt lat="39.23074912584959" lon="-6.171106456582348"><ele>951</ele><speed>13.46</speed><time>2016-06-01T16:42:58Z</time><pdop>8.0</pdop><geoidheight>50.60</geoidheight><course>109.24764</course><type>1</type></trkpt>
      <trkpt lat="39.23067300668056" lon="-6.170865524562656"><ele>947</ele><speed>11.29</speed><time>2016-06-01T16:43:00Z</time><pdop>6.0</pdop><geoidheight>50.60</geoidheight><course>110.68139</course><type>1</type></trkpt>
      <trkpt lat="39.23060293056312" lon="-6.170665424782517"><ele>944</ele><speed>10.67</speed><time>2016-06-01T16:43:02Z</time><pdop>6.0</pdop><geoidheight>50.60</geoidheight><course>111.82901</course><type>1</type></trkpt>
      <trkpt lat="39.23053125442419" lon="-6.170427858709119"><ele>940</ele><speed>12.41</speed><time>2016-06-01T16:43:04Z</time><pdop>8.0</pdop><geoidheight>50.60</geoidheight><course>108.27168</course><type>1</type></trkpt>
      <trkpt lat="39.2304668109276" lon="-6.17017739369051"><ele>937</ele><speed>11.80</speed><time>2016-06-01T16:43:06Z</time><pdop>8.0</pdop><geoidheight>50.60</geoidheight><course>109.03692</course><type>1</type></trkpt>
      <trkpt lat="39.23038706502671" lon="-6.169944097003512"><ele>934</ele><speed>11.74</speed><time>2016-06-01T16:43:08Z</time><pdop>8.0</pdop><geoidheight>50.60</geoidheight><course>112.60947</course><type>1</type></trkpt>
      <trkpt lat="39.23029936860444" lon="-6.169707049619231"><ele>929</ele><speed>12.94</speed><time>2016-06-01T16:43:10Z</time><pdop>6.0</pdop><geoidheight>50.60</geoidheight><course>111.276405</course><type>1</type></trkpt>
      <trkpt lat="39.230251801616035" lon="-6.169577473506711"><ele>927</ele><speed>13.03</speed><time>2016-06-01T16:43:11Z</time><pdop>6.0</pdop><geoidheight>50.60</geoidheight><course>110.90385</course><type>1</type></trkpt>
      <trkpt lat="39.23020606939734" lon="-6.169448065962381"><ele>925</ele><speed>12.50</speed><time>2016-06-01T16:43:12Z</time><pdop>6.0</pdop><geoidheight>50.60</geoidheight><course>110.342865</course><type>1</type></trkpt>
      <trkpt lat="39.23016169407973" lon="-6.1693172912461565"><ele>924</ele><speed>12.47</speed><time>2016-06-01T16:43:13Z</time><pdop>6.0</pdop><geoidheight>50.60</geoidheight><course>111.26905</course><type>1</type></trkpt>
      <trkpt lat="39.23006919955836" lon="-6.16905664794119"><ele>921</ele><speed>12.85</speed><time>2016-06-01T16:43:15Z</time><pdop>8.0</pdop><geoidheight>50.60</geoidheight><course>114.032455</course><type>1</type></trkpt>
      <trkpt lat="39.22996256488972" lon="-6.168794747427685"><ele>918</ele><speed>13.30</speed><time>2016-06-01T16:43:17Z</time><pdop>8.0</pdop><geoidheight>50.60</geoidheight><course>116.89358</course><type>1</type></trkpt>
      <trkpt lat="39.229843335066704" lon="-6.1685404171536105"><ele>916</ele><speed>13.28</speed><time>2016-06-01T16:43:19Z</time><pdop>8.0</pdop><geoidheight>50.60</geoidheight><course>119.52545</course><type>1</type></trkpt>
      <trkpt lat="39.22971987140561" lon="-6.16829702344932"><ele>913</ele><speed>12.79</speed><time>2016-06-01T16:43:21Z</time><pdop>8.0</pdop><geoidheight>50.60</geoidheight><course>121.024284</course><type>1</type></trkpt>
      <trkpt lat="39.22959390334793" lon="-6.168055947678196"><ele>911</ele><speed>12.74</speed><time>2016-06-01T16:43:23Z</time><pdop>8.0</pdop><geoidheight>50.60</geoidheight><course>122.125534</course><type>1</type></trkpt>
      <trkpt lat="39.22948073151586" lon="-6.167833518632301"><ele>909</ele><speed>12.37</speed><time>2016-06-01T16:43:25Z</time><pdop>8.0</pdop><geoidheight>50.60</geoidheight><course>119.93075</course><type>1</type></trkpt>
      <trkpt lat="39.22936757096295" lon="-6.167597726425289"><ele>906</ele><speed>12.70</speed><time>2016-06-01T16:43:26Z</time><pdop>6.0</pdop><geoidheight>50.60</geoidheight><course>118.776535</course><type>1</type></trkpt>
      <trkpt lat="39.22931057152286" lon="-6.167478677041524"><ele>905</ele><speed>12.50</speed><time>2016-06-01T16:43:27Z</time><pdop>6.0</pdop><geoidheight>50.60</geoidheight><course>119.5455</course><type>1</type></trkpt>
      <trkpt lat="39.22920580344093" lon="-6.167253356020558"><ele>903</ele><speed>11.91</speed><time>2016-06-01T16:43:30Z</time><pdop>12.0</pdop><geoidheight>50.60</geoidheight><course>117.391685</course><type>1</type></trkpt>
      <trkpt lat="39.22909882545423" lon="-6.167009576710913"><ele>901</ele><speed>12.42</speed><time>2016-06-01T16:43:32Z</time><pdop>8.0</pdop><geoidheight>50.60</geoidheight><course>115.15788</course><type>1</type></trkpt>
      <trkpt lat="39.22901211069989" lon="-6.166770453685352"><ele>899</ele><speed>11.56</speed><time>2016-06-01T16:43:34Z</time><pdop>8.0</pdop><geoidheight>50.60</geoidheight><course>113.48813</course><type>1</type></trkpt>
      <trkpt lat="39.228924500742906" lon="-6.16654882815511"><ele>895</ele><speed>11.66</speed><time>2016-06-01T16:43:36Z</time><pdop>8.0</pdop><geoidheight>50.60</geoidheight><course>116.85686</course><type>1</type></trkpt>
      <trkpt lat="39.22881712855897" lon="-6.166339346227405"><ele>892</ele><speed>12.27</speed><time>2016-06-01T16:43:38Z</time><pdop>8.0</pdop><geoidheight>50.60</geoidheight><course>115.84987</course><type>1</type></trkpt>
      <trkpt lat="39.2287023098479" lon="-6.16609938285952"><ele>887</ele><speed>13.64</speed><time>2016-06-01T16:43:40Z</time><pdop>8.0</pdop><geoidheight>50.60</geoidheight><course>115.94288</course><type>1</type></trkpt>
      <trkpt lat="39.22858785827472" lon="-6.165847146886465"><ele>883</ele><speed>12.84</speed><time>2016-06-01T16:43:42Z</time><pdop>8.0</pdop><geoidheight>50.60</geoidheight><course>118.454124</course><type>1</type></trkpt>
      <trkpt lat="39.22847811306967" lon="-6.165606980523913"><ele>879</ele><speed>12.68</speed><time>2016-06-01T16:43:44Z</time><pdop>12.0</pdop><geoidheight>50.60</geoidheight><course>117.01994</course><type>1</type></trkpt>
      <trkpt lat="39.228372348824436" lon="-6.1653579942476755"><ele>875</ele><speed>13.38</speed><time>2016-06-01T16:43:46Z</time><pdop>8.0</pdop><geoidheight>50.60</geoidheight><course>114.65489</course><type>1</type></trkpt>
      <trkpt lat="39.228276457615955" lon="-6.165090299856815"><ele>871</ele><speed>13.38</speed><time>2016-06-01T16:43:48Z</time><pdop>8.0</pdop><geoidheight>50.60</geoidheight><course>112.8026</course><type>1</type></trkpt>
      <trkpt lat="39.228178492019275" lon="-6.164838811270723"><ele>867</ele><speed>12.60</speed><time>2016-06-01T16:43:50Z</time><pdop>8.0</pdop><geoidheight>50.60</geoidheight><course>115.166306</course><type>1</type></trkpt>
      <trkpt lat="39.22808262906944" lon="-6.164587302635228"><ele>863</ele><speed>12.83</speed><time>2016-06-01T16:43:52Z</time><pdop>6.0</pdop><geoidheight>50.60</geoidheight><course>112.38979</course><type>1</type></trkpt>
      <trkpt lat="39.22799454414247" lon="-6.164319719747781"><ele>860</ele><speed>13.43</speed><time>2016-06-01T16:43:54Z</time><pdop>8.0</pdop><geoidheight>50.60</geoidheight><course>111.88629</course><type>1</type></trkpt>
      <trkpt lat="39.227908562974925" lon="-6.164059659000002"><ele>856</ele><speed>12.64</speed><time>2016-06-01T16:43:55Z</time><pdop>8.0</pdop><geoidheight>50.60</geoidheight><course>111.13863</course><type>1</type></trkpt>
      <trkpt lat="39.227830663067586" lon="-6.163803525832679"><ele>852</ele><speed>12.88</speed><time>2016-06-01T16:43:58Z</time><pdop>8.0</pdop><geoidheight>50.60</geoidheight><course>109.322495</course><type>1</type></trkpt>
      <trkpt lat="39.22775751909946" lon="-6.16353464377032"><ele>849</ele><speed>13.37</speed><time>2016-06-01T16:44:00Z</time><pdop>8.0</pdop><geoidheight>50.60</geoidheight><course>110.526886</course><type>1</type></trkpt>
      <trkpt lat="39.22767298429262" lon="-6.163262443186795"><ele>845</ele><speed>12.90</speed><time>2016-06-01T16:44:02Z</time><pdop>8.0</pdop><geoidheight>50.60</geoidheight><course>112.66028</course><type>1</type></trkpt>
      <trkpt lat="39.22757960816021" lon="-6.1630160569487025"><ele>841</ele><speed>13.70</speed><time>2016-06-01T16:44:04Z</time><pdop>8.0</pdop><geoidheight>50.60</geoidheight><course>115.823654</course><type>1</type></trkpt>
      <trkpt lat="39.22747003627238" lon="-6.162756764299078"><ele>837</ele><speed>13.77</speed><time>2016-06-01T16:44:06Z</time><pdop>8.0</pdop><geoidheight>50.60</geoidheight><course>117.18168</course><type>1</type></trkpt>
      <trkpt lat="39.22736847064653" lon="-6.162537741099654"><ele>834</ele><speed>12.08</speed><time>2016-06-01T16:44:08Z</time><pdop>6.0</pdop><geoidheight>50.60</geoidheight><course>119.35005</course><type>1</type></trkpt>
      <trkpt lat="39.22725559235496" lon="-6.162304313684348"><ele>831</ele><speed>12.50</speed><time>2016-06-01T16:44:10Z</time><pdop>6.0</pdop><geoidheight>50.60</geoidheight><course>119.87565</course><type>1</type></trkpt>
      <trkpt lat="39.227199153789634" lon="-6.162178857837349"><ele>830</ele><speed>12.62</speed><time>2016-06-01T16:44:11Z</time><pdop>6.0</pdop><geoidheight>50.60</geoidheight><course>117.961174</course><type>1</type></trkpt>
      <trkpt lat="39.22710843548278" lon="-6.161931759565892"><ele>827</ele><speed>12.45</speed><time>2016-06-01T16:44:13Z</time><pdop>6.0</pdop><geoidheight>50.60</geoidheight><course>113.36011</course><type>1</type></trkpt>
      <trkpt lat="39.22703795660427" lon="-6.161685035981962"><ele>825</ele><speed>11.86</speed><time>2016-06-01T16:44:15Z</time><pdop>6.0</pdop><geoidheight>50.60</geoidheight><course>109.75422</course><type>1</type></trkpt>
      <trkpt lat="39.22698230956082" lon="-6.161421211206023"><ele>822</ele><speed>13.87</speed><time>2016-06-01T16:44:17Z</time><pdop>6.0</pdop><geoidheight>50.60</geoidheight><course>104.860466</course><type>1</type></trkpt>
      <trkpt lat="39.226963965437555" lon="-6.161260855119094"><ele>820</ele><speed>13.13</speed><time>2016-06-01T16:44:18Z</time><pdop>6.0</pdop><geoidheight>50.60</geoidheight><course>101.266136</course><type>1</type></trkpt>
      <trkpt lat="39.22694865258372" lon="-6.161119245941872"><ele>819</ele><speed>12.50</speed><time>2016-06-01T16:44:19Z</time><pdop>6.0</pdop><geoidheight>50.60</geoidheight><course>99.176384</course><type>1</type></trkpt>
      <trkpt lat="39.22695316952048" lon="-6.160649415738421"><ele>815</ele><speed>11.80</speed><time>2016-06-01T16:44:23Z</time><pdop>8.0</pdop><geoidheight>50.60</geoidheight><course>88.34834</course><type>1</type></trkpt>
      <trkpt lat="39.22693494784177" lon="-6.160411692017899"><ele>813</ele><speed>11.86</speed><time>2016-06-01T16:44:25Z</time><pdop>8.0</pdop><geoidheight>50.60</geoidheight><course>104.82176</course><type>1</type></trkpt>
      <trkpt lat="39.22689013198159" lon="-6.16017117000337"><ele>812</ele><speed>8.75</speed><time>2016-06-01T16:44:27Z</time><pdop>8.0</pdop><geoidheight>50.60</geoidheight><course>105.677345</course><type>1</type></trkpt>
      <trkpt lat="39.22691792292952" lon="-6.159984823595291"><ele>811</ele><speed>8.50</speed><time>2016-06-01T16:44:29Z</time><pdop>8.0</pdop><geoidheight>50.60</geoidheight><course>71.44017</course><type>1</type></trkpt>
      <trkpt lat="39.227028996228626" lon="-6.1598279484728815"><ele>809</ele><speed>9.39</speed><time>2016-06-01T16:44:31Z</time><pdop>8.0</pdop><geoidheight>50.60</geoidheight><course>36.434864</course><type>1</type></trkpt>
      <trkpt lat="39.22721826903569" lon="-6.159734630820891"><ele>806</ele><speed>7.00</speed><time>2016-06-01T16:44:34Z</time><pdop>8.0</pdop><geoidheight>50.60</geoidheight><course>9.374865</course><type>1</type></trkpt>
      <trkpt lat="39.22742145935456" lon="-6.1597231198639175"><ele>800</ele><speed>9.07</speed><time>2016-06-01T16:44:37Z</time><pdop>8.0</pdop><geoidheight>50.60</geoidheight><course>2.4224916</course><type>1</type></trkpt>
      <trkpt lat="39.227580824593666" lon="-6.159729511525609"><ele>797</ele><speed>8.86</speed><time>2016-06-01T16:44:38Z</time><pdop>8.0</pdop><geoidheight>50.60</geoidheight><course>357.4548</course><type>1</type></trkpt>
      <trkpt lat="39.22775884995942" lon="-6.159814246891582"><ele>794</ele><speed>3.68</speed><time>2016-06-01T16:44:43Z</time><pdop>12.0</pdop><geoidheight>50.60</geoidheight><course>323.48788</course><type>1</type></trkpt>
      <trkpt lat="39.22799355316796" lon="-6.159896631631615"><ele>790</ele><speed>7.84</speed><time>2016-06-01T16:44:47Z</time><pdop>12.0</pdop><geoidheight>50.60</geoidheight><course>343.71716</course><type>1</type></trkpt>
      <trkpt lat="39.22827135611894" lon="-6.160030952342353"><ele>783</ele><speed>7.89</speed><time>2016-06-01T16:44:52Z</time><pdop>16.0</pdop><geoidheight>50.60</geoidheight><course>334.82437</course><type>1</type></trkpt>
      <trkpt lat="39.22848902353373" lon="-6.160184589149654"><ele>778</ele><speed>6.52</speed><time>2016-06-01T16:44:56Z</time><pdop>8.0</pdop><geoidheight>50.60</geoidheight><course>326.403</course><type>1</type></trkpt>
      <trkpt lat="39.22866818096168" lon="-6.160350102987872"><ele>778</ele><speed>6.20</speed><time>2016-06-01T16:45:00Z</time><pdop>12.0</pdop><geoidheight>50.60</geoidheight><course>344.70642</course><type>1</type></trkpt>
      <trkpt lat="39.228845865892964" lon="-6.160344351140594"><ele>783</ele><speed>7.06</speed><time>2016-06-01T16:45:04Z</time><pdop>6.0</pdop><geoidheight>50.60</geoidheight><course>22.080956</course><type>1</type></trkpt>
      <trkpt lat="39.228986051937575" lon="-6.160236395152644"><ele>787</ele><speed>5.10</speed><time>2016-06-01T16:45:07Z</time><pdop>8.0</pdop><geoidheight>50.60</geoidheight><course>34.111988</course><type>1</type></trkpt>
      <trkpt lat="39.22919460901849" lon="-6.160206079010656"><ele>792</ele><speed>4.73</speed><time>2016-06-01T16:45:11Z</time><pdop>8.0</pdop><geoidheight>50.60</geoidheight><course>341.92184</course><type>1</type></trkpt>
      <trkpt lat="39.229255913874354" lon="-6.160454503421087"><ele>796</ele><speed>7.24</speed><time>2016-06-01T16:45:15Z</time><pdop>8.0</pdop><geoidheight>50.60</geoidheight><course>271.36084</course><type>1</type></trkpt>
      <trkpt lat="39.22918558191462" lon="-6.160615044593263"><ele>799</ele><speed>7.95</speed><time>2016-06-01T16:45:17Z</time><pdop>6.0</pdop><geoidheight>50.60</geoidheight><course>231.98119</course><type>1</type></trkpt>
      <trkpt lat="39.22902085603825" lon="-6.160708224856448"><ele>800</ele><speed>11.05</speed><time>2016-06-01T16:45:19Z</time><pdop>8.0</pdop><geoidheight>50.60</geoidheight><course>201.1038</course><type>1</type></trkpt>
      <trkpt lat="39.22882971515152" lon="-6.1606474258636"><ele>801</ele><speed>11.17</speed><time>2016-06-01T16:45:20Z</time><pdop>6.0</pdop><geoidheight>50.60</geoidheight><course>153.70184</course><type>1</type></trkpt>
      <trkpt lat="39.22874256162102" lon="-6.160564706787546"><ele>801</ele><speed>11.42</speed><time>2016-06-01T16:45:21Z</time><pdop>6.0</pdop><geoidheight>50.60</geoidheight><course>137.64691</course><type>1</type></trkpt>
      <trkpt lat="39.228623868028535" lon="-6.160372171192031"><ele>802</ele><speed>10.67</speed><time>2016-06-01T16:45:24Z</time><pdop>8.0</pdop><geoidheight>50.60</geoidheight><course>118.932785</course><type>1</type></trkpt>
      <trkpt lat="39.228555743369874" lon="-6.1601463261456235"><ele>803</ele><speed>9.45</speed><time>2016-06-01T16:45:26Z</time><pdop>8.0</pdop><geoidheight>50.60</geoidheight><course>95.34165</course><type>1</type></trkpt>
      <trkpt lat="39.228597674601815" lon="-6.159886854789172"><ele>806</ele><speed>7.06</speed><time>2016-06-01T16:45:29Z</time><pdop>8.0</pdop><geoidheight>50.60</geoidheight><course>57.19201</course><type>1</type></trkpt>
      <trkpt lat="39.228749596418695" lon="-6.159806634106279"><ele>810</ele><speed>6.86</speed><time>2016-06-01T16:45:31Z</time><pdop>8.0</pdop><geoidheight>50.60</geoidheight><course>356.504</course><type>1</type></trkpt>
      <trkpt lat="39.228889354777216" lon="-6.159901930562216"><ele>818</ele><speed>4.82</speed><time>2016-06-01T16:45:37Z</time><pdop>8.0</pdop><geoidheight>50.60</geoidheight><course>293.17398</course><type>1</type></trkpt>
      <trkpt lat="39.22883415066728" lon="-6.160118703312442"><ele>824</ele><speed>9.20</speed><time>2016-06-01T16:45:40Z</time><pdop>8.0</pdop><geoidheight>50.60</geoidheight><course>226.18494</course><type>1</type></trkpt>
      <trkpt lat="39.22866229038222" lon="-6.160218686194614"><ele>827</ele><speed>12.55</speed><time>2016-06-01T16:45:42Z</time><pdop>8.0</pdop><geoidheight>50.60</geoidheight><course>188.5943</course><type>1</type></trkpt>
      <trkpt lat="39.2284117502244" lon="-6.160101299823484"><ele>830</ele><speed>11.21</speed><time>2016-06-01T16:45:44Z</time><pdop>12.0</pdop><geoidheight>50.60</geoidheight><course>142.73242</course><type>1</type></trkpt>
      <trkpt lat="39.22831461530316" lon="-6.159802726932444"><ele>831</ele><speed>9.40</speed><time>2016-06-01T16:45:48Z</time><pdop>12.0</pdop><geoidheight>50.60</geoidheight><course>106.95425</course><type>1</type></trkpt>
      <trkpt lat="39.22825259895523" lon="-6.159489239692845"><ele>834</ele><speed>8.69</speed><time>2016-06-01T16:45:50Z</time><pdop>6.0</pdop><geoidheight>50.60</geoidheight><course>105.03454</course><type>1</type></trkpt>
      <trkpt lat="39.22827442499297" lon="-6.159259706613989"><ele>836</ele><speed>8.21</speed><time>2016-06-01T16:45:53Z</time><pdop>8.0</pdop><geoidheight>50.60</geoidheight><course>71.06948</course><type>1</type></trkpt>
      <trkpt lat="39.22835353052413" lon="-6.1590746407308"><ele>838</ele><speed>6.48</speed><time>2016-06-01T16:45:55Z</time><pdop>8.0</pdop><geoidheight>50.60</geoidheight><course>54.78426</course><type>1</type></trkpt>
      <trkpt lat="39.22843158685762" lon="-6.158945179783782"><ele>841</ele><speed>7.07</speed><time>2016-06-01T16:45:57Z</time><pdop>6.0</pdop><geoidheight>50.60</geoidheight><course>50.846786</course><type>1</type></trkpt>
      <trkpt lat="39.228517829191446" lon="-6.15882058586333"><ele>844</ele><speed>7.26</speed><time>2016-06-01T16:45:59Z</time><pdop>6.0</pdop><geoidheight>50.60</geoidheight><course>49.47568</course><type>1</type></trkpt>
      <trkpt lat="39.22869181078898" lon="-6.158760302708051"><ele>850</ele><speed>6.85</speed><time>2016-06-01T16:46:02Z</time><pdop>12.0</pdop><geoidheight>50.60</geoidheight><course>325.56757</course><type>1</type></trkpt>
      <trkpt lat="39.22863479255034" lon="-6.159034283204603"><ele>852</ele><speed>9.72</speed><time>2016-06-01T16:46:06Z</time><pdop>8.0</pdop><geoidheight>50.60</geoidheight><course>238.26123</course><type>1</type></trkpt>
      <trkpt lat="39.2284798914951" lon="-6.159131421006927"><ele>855</ele><speed>11.86</speed><time>2016-06-01T16:46:08Z</time><pdop>8.0</pdop><geoidheight>50.60</geoidheight><course>186.52165</course><type>1</type></trkpt>
      <trkpt lat="39.228292440889085" lon="-6.159116984999182"><ele>857</ele><speed>10.90</speed><time>2016-06-01T16:46:09Z</time><pdop>8.0</pdop><geoidheight>50.60</geoidheight><course>163.43661</course><type>1</type></trkpt>
      <trkpt lat="39.22814341389213" lon="-6.1589704639009115"><ele>858</ele><speed>10.32</speed><time>2016-06-01T16:46:12Z</time><pdop>8.0</pdop><geoidheight>50.60</geoidheight><course>122.443695</course><type>1</type></trkpt>
      <trkpt lat="39.22805835283335" lon="-6.1587274473612545"><ele>861</ele><speed>6.54</speed><time>2016-06-01T16:46:14Z</time><pdop>6.0</pdop><geoidheight>50.60</geoidheight><course>91.33686</course><type>1</type></trkpt>
      <trkpt lat="39.22809476191299" lon="-6.158525394618283"><ele>863</ele><speed>6.43</speed><time>2016-06-01T16:46:17Z</time><pdop>6.0</pdop><geoidheight>50.60</geoidheight><course>59.90814</course><type>1</type></trkpt>
      <trkpt lat="39.228236900767214" lon="-6.158469299238849"><ele>865</ele><speed>7.34</speed><time>2016-06-01T16:46:20Z</time><pdop>8.0</pdop><geoidheight>50.60</geoidheight><course>331.66547</course><type>1</type></trkpt>
      <trkpt lat="39.22831302305539" lon="-6.1587070776584145"><ele>871</ele><speed>7.48</speed><time>2016-06-01T16:46:23Z</time><pdop>12.0</pdop><geoidheight>50.60</geoidheight><course>270.20093</course><type>1</type></trkpt>
      <trkpt lat="39.22822570856346" lon="-6.158997239651552"><ele>878</ele><speed>8.86</speed><time>2016-06-01T16:46:27Z</time><pdop>6.0</pdop><geoidheight>50.60</geoidheight><course>235.93681</course><type>1</type></trkpt>
      <trkpt lat="39.228072313441295" lon="-6.159149944890492"><ele>883</ele><speed>10.78</speed><time>2016-06-01T16:46:28Z</time><pdop>8.0</pdop><geoidheight>50.60</geoidheight><course>205.86604</course><type>1</type></trkpt>
      <trkpt lat="39.22790696969965" lon="-6.1592464856899385"><ele>887</ele><speed>9.36</speed><time>2016-06-01T16:46:31Z</time><pdop>8.0</pdop><geoidheight>50.60</geoidheight><course>204.60933</course><type>1</type></trkpt>
      <trkpt lat="39.22782528782571" lon="-6.15942880955523"><ele>891</ele><speed>9.20</speed><time>2016-06-01T16:46:33Z</time><pdop>6.0</pdop><geoidheight>50.60</geoidheight><course>263.11163</course><type>1</type></trkpt>
      <trkpt lat="39.227915693733415" lon="-6.15959473575414"><ele>894</ele><speed>7.27</speed><time>2016-06-01T16:46:36Z</time><pdop>8.0</pdop><geoidheight>50.60</geoidheight><course>351.6413</course><type>1</type></trkpt>
      <trkpt lat="39.22802883939316" lon="-6.159404626777944"><ele>895</ele><speed>6.52</speed><time>2016-06-01T16:46:39Z</time><pdop>8.0</pdop><geoidheight>50.60</geoidheight><course>64.741844</course><type>1</type></trkpt>
      <trkpt lat="39.22799035219782" lon="-6.159040071181309"><ele>897</ele><speed>10.40</speed><time>2016-06-01T16:46:43Z</time><pdop>12.0</pdop><geoidheight>50.60</geoidheight><course>115.50116</course><type>1</type></trkpt>
      <trkpt lat="39.227869290412904" lon="-6.158798829077662"><ele>898</ele><speed>7.89</speed><time>2016-06-01T16:46:45Z</time><pdop>12.0</pdop><geoidheight>50.60</geoidheight><course>134.84822</course><type>1</type></trkpt>
      <trkpt lat="39.22764659822365" lon="-6.15860097847227"><ele>902</ele><speed>12.59</speed><time>2016-06-01T16:46:48Z</time><pdop>8.0</pdop><geoidheight>50.60</geoidheight><course>162.27672</course><type>1</type></trkpt>
      <trkpt lat="39.22745651312312" lon="-6.158668408866928"><ele>904</ele><speed>12.32</speed><time>2016-06-01T16:46:51Z</time><pdop>8.0</pdop><geoidheight>50.60</geoidheight><course>205.69577</course><type>1</type></trkpt>
      <trkpt lat="39.22734898043644" lon="-6.158821896158627"><ele>907</ele><speed>8.78</speed><time>2016-06-01T16:46:53Z</time><pdop>8.0</pdop><geoidheight>50.60</geoidheight><course>247.32532</course><type>1</type></trkpt>
      <trkpt lat="39.22729267113676" lon="-6.158999719139505"><ele>909</ele><speed>7.69</speed><time>2016-06-01T16:46:55Z</time><pdop>8.0</pdop><geoidheight>50.60</geoidheight><course>264.09918</course><type>1</type></trkpt>
      <trkpt lat="39.22733301248869" lon="-6.159177100466146"><ele>916</ele><speed>5.48</speed><time>2016-06-01T16:46:57Z</time><pdop>6.0</pdop><geoidheight>50.60</geoidheight><course>322.23868</course><type>1</type></trkpt>
      <trkpt lat="39.22745293587664" lon="-6.159025382722355"><ele>923</ele><speed>7.22</speed><time>2016-06-01T16:47:02Z</time><pdop>8.0</pdop><geoidheight>50.60</geoidheight><course>75.18313</course><type>1</type></trkpt>
      <trkpt lat="39.22741414476514" lon="-6.158779374784071"><ele>925</ele><speed>10.36</speed><time>2016-06-01T16:47:05Z</time><pdop>8.0</pdop><geoidheight>50.60</geoidheight><course>128.72523</course><type>1</type></trkpt>
      <trkpt lat="39.22726231353645" lon="-6.1586176170340385"><ele>927</ele><speed>12.89</speed><time>2016-06-01T16:47:07Z</time><pdop>8.0</pdop><geoidheight>50.60</geoidheight><course>153.9547</course><type>1</type></trkpt>
      <trkpt lat="39.22706767433101" lon="-6.158562506580274"><ele>930</ele><speed>10.37</speed><time>2016-06-01T16:47:08Z</time><pdop>6.0</pdop><geoidheight>50.60</geoidheight><course>177.37527</course><type>1</type></trkpt>
      <trkpt lat="39.22687942821905" lon="-6.158586137678521"><ele>934</ele><speed>10.41</speed><time>2016-06-01T16:47:11Z</time><pdop>6.0</pdop><geoidheight>50.60</geoidheight><course>193.45706</course><type>1</type></trkpt>
      <trkpt lat="39.2267176561171" lon="-6.158704276642273"><ele>940</ele><speed>10.72</speed><time>2016-06-01T16:47:13Z</time><pdop>6.0</pdop><geoidheight>50.60</geoidheight><course>222.668</course><type>1</type></trkpt>
      <trkpt lat="39.22666403242163" lon="-6.158864036926337"><ele>944</ele><speed>9.11</speed><time>2016-06-01T16:47:15Z</time><pdop>6.0</pdop><geoidheight>50.60</geoidheight><course>267.68744</course><type>1</type></trkpt>
      <trkpt lat="39.22667463959167" lon="-6.159005768730611"><ele>948</ele><speed>6.35</speed><time>2016-06-01T16:47:17Z</time><pdop>6.0</pdop><geoidheight>50.60</geoidheight><course>287.0613</course><type>1</type></trkpt>
      <trkpt lat="39.22680291535019" lon="-6.159063203555263"><ele>954</ele><speed>6.56</speed><time>2016-06-01T16:47:21Z</time><pdop>8.0</pdop><geoidheight>50.60</geoidheight><course>14.312048</course><type>1</type></trkpt>
      <trkpt lat="39.22687312948048" lon="-6.15887858427084"><ele>957</ele><speed>8.86</speed><time>2016-06-01T16:47:23Z</time><pdop>8.0</pdop><geoidheight>50.60</geoidheight><course>77.92308</course><type>1</type></trkpt>
      <trkpt lat="39.2268595155032" lon="-6.158695938399807"><ele>959</ele><speed>8.89</speed><time>2016-06-01T16:47:25Z</time><pdop>6.0</pdop><geoidheight>50.60</geoidheight><course>111.28699</course><type>1</type></trkpt>
      <trkpt lat="39.22675088337568" lon="-6.158500618647526"><ele>962</ele><speed>13.16</speed><time>2016-06-01T16:47:27Z</time><pdop>6.0</pdop><geoidheight>50.60</geoidheight><course>137.86908</course><type>1</type></trkpt>
      <trkpt lat="39.226522584041746" lon="-6.158354089622625"><ele>964</ele><speed>13.76</speed><time>2016-06-01T16:47:29Z</time><pdop>8.0</pdop><geoidheight>50.60</geoidheight><course>157.72955</course><type>1</type></trkpt>
      <trkpt lat="39.22627243873767" lon="-6.1584718675272265"><ele>966</ele><speed>16.21</speed><time>2016-06-01T16:47:31Z</time><pdop>8.0</pdop><geoidheight>50.60</geoidheight><course>202.69981</course><type>1</type></trkpt>
      <trkpt lat="39.22618569958549" lon="-6.158762538365031"><ele>971</ele><speed>6.49</speed><time>2016-06-01T16:47:34Z</time><pdop>8.0</pdop><geoidheight>50.60</geoidheight><course>264.64685</course><type>1</type></trkpt>
      <trkpt lat="39.226286963224304" lon="-6.15895360999625"><ele>976</ele><speed>6.60</speed><time>2016-06-01T16:47:37Z</time><pdop>8.0</pdop><geoidheight>50.60</geoidheight><course>336.9891</course><type>1</type></trkpt>
      <trkpt lat="39.22646601714276" lon="-6.158892260671562"><ele>976</ele><speed>6.88</speed><time>2016-06-01T16:47:40Z</time><pdop>8.0</pdop><geoidheight>50.60</geoidheight><course>40.089447</course><type>1</type></trkpt>
      <trkpt lat="39.22654421514558" lon="-6.158713256148639"><ele>980</ele><speed>7.54</speed><time>2016-06-01T16:47:43Z</time><pdop>6.0</pdop><geoidheight>50.60</geoidheight><course>79.227554</course><type>1</type></trkpt>
      <trkpt lat="39.226514098698814" lon="-6.158540360674007"><ele>982</ele><speed>9.50</speed><time>2016-06-01T16:47:44Z</time><pdop>8.0</pdop><geoidheight>50.60</geoidheight><course>110.79989</course><type>1</type></trkpt>
      <trkpt lat="39.22637416366687" lon="-6.1584177059861505"><ele>984</ele><speed>11.74</speed><time>2016-06-01T16:47:47Z</time><pdop>8.0</pdop><geoidheight>50.60</geoidheight><course>163.06966</course><type>1</type></trkpt>
      <trkpt lat="39.22619133050732" lon="-6.158462327734698"><ele>987</ele><speed>12.50</speed><time>2016-06-01T16:47:49Z</time><pdop>6.0</pdop><geoidheight>50.60</geoidheight><course>207.83592</course><type>1</type></trkpt>
      <trkpt lat="39.22605967492886" lon="-6.158568826869692"><ele>991</ele><speed>7.72</speed><time>2016-06-01T16:47:51Z</time><pdop>6.0</pdop><geoidheight>50.60</geoidheight><course>241.60707</course><type>1</type></trkpt>
      <trkpt lat="39.226082762489234" lon="-6.158733619094211"><ele>1001</ele><speed>4.97</speed><time>2016-06-01T16:47:55Z</time><pdop>8.0</pdop><geoidheight>50.60</geoidheight><course>327.408</course><type>1</type></trkpt>
      <trkpt lat="39.22620423812162" lon="-6.158630766766988"><ele>1009</ele><speed>7.86</speed><time>2016-06-01T16:47:59Z</time><pdop>8.0</pdop><geoidheight>50.60</geoidheight><course>75.763855</course><type>1</type></trkpt>
      <trkpt lat="39.22619451979867" lon="-6.158417382756134"><ele>1015</ele><speed>6.75</speed><time>2016-06-01T16:48:01Z</time><pdop>6.0</pdop><geoidheight>50.60</geoidheight><course>130.46193</course><type>1</type></trkpt>
      <trkpt lat="39.226049238179826" lon="-6.15827689825237"><ele>1019</ele><speed>12.38</speed><time>2016-06-01T16:48:04Z</time><pdop>8.0</pdop><geoidheight>50.60</geoidheight><course>149.90363</course><type>1</type></trkpt>
      <trkpt lat="39.225813035072456" lon="-6.158258122879718"><ele>1020</ele><speed>13.15</speed><time>2016-06-01T16:48:06Z</time><pdop>8.0</pdop><geoidheight>50.60</geoidheight><course>189.97922</course><type>1</type></trkpt>
      <trkpt lat="39.225613876716174" lon="-6.158325093594702"><ele>1022</ele><speed>10.99</speed><time>2016-06-01T16:48:08Z</time><pdop>8.0</pdop><geoidheight>50.60</geoidheight><course>195.65094</course><type>1</type></trkpt>
      <trkpt lat="39.22542789998351" lon="-6.1583969041841815"><ele>1025</ele><speed>10.64</speed><time>2016-06-01T16:48:09Z</time><pdop>6.0</pdop><geoidheight>50.60</geoidheight><course>193.9817</course><type>1</type></trkpt>
      <trkpt lat="39.22523507299982" lon="-6.158469686920124"><ele>1028</ele><speed>10.85</speed><time>2016-06-01T16:48:12Z</time><pdop>8.0</pdop><geoidheight>50.60</geoidheight><course>197.37524</course><type>1</type></trkpt>
      <trkpt lat="39.225123083768665" lon="-6.15866212296105"><ele>1032</ele><speed>9.87</speed><time>2016-06-01T16:48:14Z</time><pdop>8.0</pdop><geoidheight>50.60</geoidheight><course>259.0398</course><type>1</type></trkpt>
      <trkpt lat="39.225237971941084" lon="-6.158794871169582"><ele>1036</ele><speed>6.37</speed><time>2016-06-01T16:48:17Z</time><pdop>8.0</pdop><geoidheight>50.60</geoidheight><course>359.38464</course><type>1</type></trkpt>
      <trkpt lat="39.22535094856562" lon="-6.158666983232648"><ele>1037</ele><speed>7.33</speed><time>2016-06-01T16:48:19Z</time><pdop>8.0</pdop><geoidheight>50.60</geoidheight><course>69.52608</course><type>1</type></trkpt>
      <trkpt lat="39.225364939663905" lon="-6.158469615545868"><ele>1039</ele><speed>8.52</speed><time>2016-06-01T16:48:21Z</time><pdop>8.0</pdop><geoidheight>50.60</geoidheight><course>100.9454</course><type>1</type></trkpt>
      <trkpt lat="39.22530243450361" lon="-6.1582979054127565"><ele>1042</ele><speed>8.59</speed><time>2016-06-01T16:48:23Z</time><pdop>8.0</pdop><geoidheight>50.60</geoidheight><course>133.31036</course><type>1</type></trkpt>
      <trkpt lat="39.22522401195308" lon="-6.158133032128155"><ele>1045</ele><speed>7.43</speed><time>2016-06-01T16:48:24Z</time><pdop>6.0</pdop><geoidheight>50.60</geoidheight><course>121.08462</course><type>1</type></trkpt>
      <trkpt lat="39.22516412382526" lon="-6.157971221845619"><ele>1048</ele><speed>8.02</speed><time>2016-06-01T16:48:27Z</time><pdop>6.0</pdop><geoidheight>50.60</geoidheight><course>123.59757</course><type>1</type></trkpt>
      <trkpt lat="39.22507185708953" lon="-6.15781998426401"><ele>1051</ele><speed>7.53</speed><time>2016-06-01T16:48:28Z</time><pdop>6.0</pdop><geoidheight>50.60</geoidheight><course>135.06654</course><type>1</type></trkpt>
      <trkpt lat="39.22504956756036" lon="-6.157622794823447"><ele>1053</ele><speed>7.80</speed><time>2016-06-01T16:48:31Z</time><pdop>8.0</pdop><geoidheight>50.60</geoidheight><course>77.7327</course><type>1</type></trkpt>
      <trkpt lat="39.22518129946823" lon="-6.1576502040895456"><ele>1055</ele><speed>8.92</speed><time>2016-06-01T16:48:35Z</time><pdop>6.0</pdop><geoidheight>50.60</geoidheight><course>275.02463</course><type>1</type></trkpt>
      <trkpt lat="39.22507295550909" lon="-6.1578342122575505"><ele>1057</ele><speed>10.60</speed><time>2016-06-01T16:48:37Z</time><pdop>8.0</pdop><geoidheight>50.60</geoidheight><course>221.479</course><type>1</type></trkpt>
      <trkpt lat="39.22489315496223" lon="-6.157920135405764"><ele>1058</ele><speed>12.59</speed><time>2016-06-01T16:48:38Z</time><pdop>8.0</pdop><geoidheight>50.60</geoidheight><course>188.80269</course><type>1</type></trkpt>
      <trkpt lat="39.22470596673546" lon="-6.157867872031109"><ele>1058</ele><speed>10.52</speed><time>2016-06-01T16:48:41Z</time><pdop>8.0</pdop><geoidheight>50.60</geoidheight><course>146.4794</course><type>1</type></trkpt>
      <trkpt lat="39.22457742576724" lon="-6.157705658173285"><ele>1059</ele><speed>8.89</speed><time>2016-06-01T16:48:43Z</time><pdop>8.0</pdop><geoidheight>50.60</geoidheight><course>119.00194</course><type>1</type></trkpt>
      <trkpt lat="39.224427412862404" lon="-6.15750402318007"><ele>1061</ele><speed>10.94</speed><time>2016-06-01T16:48:46Z</time><pdop>8.0</pdop><geoidheight>50.60</geoidheight><course>151.53113</course><type>1</type></trkpt>
      <trkpt lat="39.224214023298245" lon="-6.157493006177037"><ele>1062</ele><speed>13.41</speed><time>2016-06-01T16:48:48Z</time><pdop>8.0</pdop><geoidheight>50.60</geoidheight><course>188.96231</course><type>1</type></trkpt>
      <trkpt lat="39.224012422586775" lon="-6.157637116484601"><ele>1064</ele><speed>14.35</speed><time>2016-06-01T16:48:50Z</time><pdop>8.0</pdop><geoidheight>50.60</geoidheight><course>210.98744</course><type>1</type></trkpt>
      <trkpt lat="39.223956067910564" lon="-6.157877341881542"><ele>1068</ele><speed>9.79</speed><time>2016-06-01T16:48:52Z</time><pdop>8.0</pdop><geoidheight>50.60</geoidheight><course>275.53256</course><type>1</type></trkpt>
      <trkpt lat="39.223984803433105" lon="-6.158061548538876"><ele>1075</ele><speed>4.62</speed><time>2016-06-01T16:48:54Z</time><pdop>6.0</pdop><geoidheight>50.60</geoidheight><course>301.93945</course><type>1</type></trkpt>
      <trkpt lat="39.224134790306536" lon="-6.157939906885306"><ele>1080</ele><speed>8.84</speed><time>2016-06-01T16:48:59Z</time><pdop>8.0</pdop><geoidheight>50.60</geoidheight><course>71.64054</course><type>1</type></trkpt>
      <trkpt lat="39.224090392528765" lon="-6.157730967776528"><ele>1082</ele><speed>12.37</speed><time>2016-06-01T16:49:01Z</time><pdop>8.0</pdop><geoidheight>50.60</geoidheight><course>118.15999</course><type>1</type></trkpt>
      <trkpt lat="39.2238903435429" lon="-6.157617660832317"><ele>1082</ele><speed>13.01</speed><time>2016-06-01T16:49:02Z</time><pdop>8.0</pdop><geoidheight>50.60</geoidheight><course>169.0416</course><type>1</type></trkpt>
      <trkpt lat="39.22366174878134" lon="-6.157668697045808"><ele>1084</ele><speed>10.72</speed><time>2016-06-01T16:49:05Z</time><pdop>8.0</pdop><geoidheight>50.60</geoidheight><course>206.61327</course><type>1</type></trkpt>
      <trkpt lat="39.22350230336648" lon="-6.157792129779139"><ele>1088</ele><speed>10.77</speed><time>2016-06-01T16:49:06Z</time><pdop>6.0</pdop><geoidheight>50.60</geoidheight><course>229.47342</course><type>1</type></trkpt>
      <trkpt lat="39.22344087683663" lon="-6.1579891463134135"><ele>1091</ele><speed>8.25</speed><time>2016-06-01T16:49:09Z</time><pdop>6.0</pdop><geoidheight>50.60</geoidheight><course>267.91464</course><type>1</type></trkpt>
      <trkpt lat="39.223527112348854" lon="-6.158127568765081"><ele>1097</ele><speed>6.10</speed><time>2016-06-01T16:49:12Z</time><pdop>8.0</pdop><geoidheight>50.60</geoidheight><course>347.24103</course><type>1</type></trkpt>
      <trkpt lat="39.2236733395709" lon="-6.158061114065358"><ele>1102</ele><speed>7.03</speed><time>2016-06-01T16:49:16Z</time><pdop>8.0</pdop><geoidheight>50.60</geoidheight><course>64.500725</course><type>1</type></trkpt>
      <trkpt lat="39.223630755688674" lon="-6.157872413678515"><ele>1103</ele><speed>12.02</speed><time>2016-06-01T16:49:18Z</time><pdop>8.0</pdop><geoidheight>50.60</geoidheight><course>123.961494</course><type>1</type></trkpt>
      <trkpt lat="39.22344767175106" lon="-6.157737965877313"><ele>1104</ele><speed>10.71</speed><time>2016-06-01T16:49:20Z</time><pdop>8.0</pdop><geoidheight>50.60</geoidheight><course>162.31259</course><type>1</type></trkpt>
      <trkpt lat="39.22323867995784" lon="-6.157914616279689"><ele>1105</ele><speed>14.13</speed><time>2016-06-01T16:49:21Z</time><pdop>8.0</pdop><geoidheight>50.60</geoidheight><course>225.57376</course><type>1</type></trkpt>
      <trkpt lat="39.22319446047133" lon="-6.158176033283528"><ele>1106</ele><speed>8.53</speed><time>2016-06-01T16:49:24Z</time><pdop>8.0</pdop><geoidheight>50.60</geoidheight><course>278.842</course><type>1</type></trkpt>
      <trkpt lat="39.22328729390709" lon="-6.158418674055053"><ele>1112</ele><speed>6.15</speed><time>2016-06-01T16:49:27Z</time><pdop>12.0</pdop><geoidheight>50.60</geoidheight><course>327.69083</course><type>1</type></trkpt>
      <trkpt lat="39.22346452653695" lon="-6.158473139101191"><ele>1118</ele><speed>4.95</speed><time>2016-06-01T16:49:32Z</time><pdop>6.0</pdop><geoidheight>50.60</geoidheight><course>19.416529</course><type>1</type></trkpt>
      <trkpt lat="39.22354698517227" lon="-6.158322323779247"><ele>1122</ele><speed>7.81</speed><time>2016-06-01T16:49:35Z</time><pdop>8.0</pdop><geoidheight>50.60</geoidheight><course>74.92277</course><type>1</type></trkpt>
      <trkpt lat="39.22342805087055" lon="-6.158073743294756"><ele>1125</ele><speed>14.11</speed><time>2016-06-01T16:49:38Z</time><pdop>8.0</pdop><geoidheight>50.60</geoidheight><course>154.04408</course><type>1</type></trkpt>
      <trkpt lat="39.223191088530115" lon="-6.158056273814687"><ele>1126</ele><speed>14.82</speed><time>2016-06-01T16:49:40Z</time><pdop>12.0</pdop><geoidheight>50.60</geoidheight><course>199.01466</course><type>1</type></trkpt>
      <trkpt lat="39.223078487855645" lon="-6.158313707797665"><ele>1128</ele><speed>9.70</speed><time>2016-06-01T16:49:42Z</time><pdop>8.0</pdop><geoidheight>50.60</geoidheight><course>260.34628</course><type>1</type></trkpt>
      <trkpt lat="39.22312828342196" lon="-6.158531210477313"><ele>1130</ele><speed>8.28</speed><time>2016-06-01T16:49:44Z</time><pdop>8.0</pdop><geoidheight>50.60</geoidheight><course>303.58972</course><type>1</type></trkpt>
      <trkpt lat="39.223297930237734" lon="-6.158593136358037"><ele>1132</ele><speed>6.69</speed><time>2016-06-01T16:49:46Z</time><pdop>8.0</pdop><geoidheight>50.60</geoidheight><course>18.179167</course><type>1</type></trkpt>
      <trkpt lat="39.22340898397907" lon="-6.158336991791466"><ele>1133</ele><speed>8.23</speed><time>2016-06-01T16:49:51Z</time><pdop>8.0</pdop><geoidheight>50.60</geoidheight><course>79.34479</course><type>1</type></trkpt>
      <trkpt lat="39.22339451130004" lon="-6.158091824493499"><ele>1136</ele><speed>7.78</speed><time>2016-06-01T16:49:54Z</time><pdop>8.0</pdop><geoidheight>50.60</geoidheight><course>106.855415</course><type>1</type></trkpt>
      <trkpt lat="39.223216683595375" lon="-6.157914980742466"><ele>1139</ele><speed>11.86</speed><time>2016-06-01T16:49:56Z</time><pdop>8.0</pdop><geoidheight>50.60</geoidheight><course>160.76274</course><type>1</type></trkpt>
      <trkpt lat="39.22299329340069" lon="-6.157968852878182"><ele>1140</ele><speed>14.08</speed><time>2016-06-01T16:49:59Z</time><pdop>8.0</pdop><geoidheight>50.60</geoidheight><course>206.5048</course><type>1</type></trkpt>
      <trkpt lat="39.22282955304058" lon="-6.158147099364789"><ele>1139</ele><speed>13.14</speed><time>2016-06-01T16:50:01Z</time><pdop>12.0</pdop><geoidheight>50.60</geoidheight><course>234.44627</course><type>1</type></trkpt>
      <trkpt lat="39.22287460922092" lon="-6.158468144416484"><ele>1139</ele><speed>8.00</speed><time>2016-06-01T16:50:03Z</time><pdop>6.0</pdop><geoidheight>50.60</geoidheight><course>286.5137</course><type>1</type></trkpt>
      <trkpt lat="39.22298887158722" lon="-6.158659440176205"><ele>1140</ele><speed>7.79</speed><time>2016-06-01T16:50:07Z</time><pdop>8.0</pdop><geoidheight>50.60</geoidheight><course>330.6209</course><type>1</type></trkpt>
      <trkpt lat="39.22310785279839" lon="-6.158714758081622"><ele>1141</ele><speed>7.02</speed><time>2016-06-01T16:50:09Z</time><pdop>6.0</pdop><geoidheight>50.60</geoidheight><course>0.545334</course><type>1</type></trkpt>
      <trkpt lat="39.223229287370884" lon="-6.1587121778791465"><ele>1143</ele><speed>5.53</speed><time>2016-06-01T16:50:11Z</time><pdop>6.0</pdop><geoidheight>50.60</geoidheight><course>5.19916</course><type>1</type></trkpt>
      <trkpt lat="39.223342772984594" lon="-6.1587044945350495"><ele>1145</ele><speed>5.82</speed><time>2016-06-01T16:50:13Z</time><pdop>6.0</pdop><geoidheight>50.60</geoidheight><course>1.391268</course><type>1</type></trkpt>
      <trkpt lat="39.22346535114979" lon="-6.1586988518479675"><ele>1147</ele><speed>6.24</speed><time>2016-06-01T16:50:15Z</time><pdop>6.0</pdop><geoidheight>50.60</geoidheight><course>5.6605372</course><type>1</type></trkpt>
      <trkpt lat="39.22357606927317" lon="-6.158650726491364"><ele>1149</ele><speed>5.60</speed><time>2016-06-01T16:50:16Z</time><pdop>4.0</pdop><geoidheight>50.60</geoidheight><course>23.084278</course><type>1</type></trkpt>
      <trkpt lat="39.2236714898354" lon="-6.158585399061886"><ele>1151</ele><speed>5.35</speed><time>2016-06-01T16:50:19Z</time><pdop>6.0</pdop><geoidheight>50.60</geoidheight><course>29.89111</course><type>1</type></trkpt>
      <trkpt lat="39.2237547701851" lon="-6.158369389503127"><ele>1151</ele><speed>8.85</speed><time>2016-06-01T16:50:22Z</time><pdop>8.0</pdop><geoidheight>50.60</geoidheight><course>77.29194</course><type>1</type></trkpt>
      <trkpt lat="39.223676366693674" lon="-6.158183233318877"><ele>1151</ele><speed>11.51</speed><time>2016-06-01T16:50:24Z</time><pdop>8.0</pdop><geoidheight>50.60</geoidheight><course>133.5851</course><type>1</type></trkpt>
      <trkpt lat="39.22348904077026" lon="-6.158123443806849"><ele>1152</ele><speed>12.12</speed><time>2016-06-01T16:50:26Z</time><pdop>8.0</pdop><geoidheight>50.60</geoidheight><course>185.59729</course><type>1</type></trkpt>
      <trkpt lat="39.2233213798741" lon="-6.1582432786820105"><ele>1154</ele><speed>12.34</speed><time>2016-06-01T16:50:27Z</time><pdop>6.0</pdop><geoidheight>50.60</geoidheight><course>221.69756</course><type>1</type></trkpt>
      <trkpt lat="39.22324319275348" lon="-6.15846032217607"><ele>1155</ele><speed>9.96</speed><time>2016-06-01T16:50:30Z</time><pdop>6.0</pdop><geoidheight>50.60</geoidheight><course>258.51312</course><type>1</type></trkpt>
      <trkpt lat="39.22327085894153" lon="-6.158646156416765"><ele>1156</ele><speed>9.06</speed><time>2016-06-01T16:50:32Z</time><pdop>6.0</pdop><geoidheight>50.60</geoidheight><course>294.71924</course><type>1</type></trkpt>
      <trkpt lat="39.223373285952" lon="-6.158755867661648"><ele>1158</ele><speed>8.46</speed><time>2016-06-01T16:50:34Z</time><pdop>6.0</pdop><geoidheight>50.60</geoidheight><course>343.62964</course><type>1</type></trkpt>
      <trkpt lat="39.22351126868017" lon="-6.158622072237441"><ele>1160</ele><speed>8.38</speed><time>2016-06-01T16:50:37Z</time><pdop>6.0</pdop><geoidheight>50.60</geoidheight><course>50.8561</course><type>1</type></trkpt>
      <trkpt lat="39.223566677702564" lon="-6.158468453049489"><ele>1161</ele><speed>6.99</speed><time>2016-06-01T16:50:39Z</time><pdop>6.0</pdop><geoidheight>50.60</geoidheight><course>67.0538</course><type>1</type></trkpt>
      <trkpt lat="39.2236037988741" lon="-6.1583236315086"><ele>1163</ele><speed>6.79</speed><time>2016-06-01T16:50:41Z</time><pdop>6.0</pdop><geoidheight>50.60</geoidheight><course>72.02465</course><type>1</type></trkpt>
      <trkpt lat="39.223655803914895" lon="-6.1581749592112995"><ele>1164</ele><speed>6.36</speed><time>2016-06-01T16:50:43Z</time><pdop>6.0</pdop><geoidheight>50.60</geoidheight><course>59.741386</course><type>1</type></trkpt>
      <trkpt lat="39.22375915493786" lon="-6.158099920159479"><ele>1165</ele><speed>6.41</speed><time>2016-06-01T16:50:45Z</time><pdop>6.0</pdop><geoidheight>50.60</geoidheight><course>13.053765</course><type>1</type></trkpt>
      <trkpt lat="39.22386249786591" lon="-6.158168897749026"><ele>1167</ele><speed>6.25</speed><time>2016-06-01T16:50:48Z</time><pdop>6.0</pdop><geoidheight>50.60</geoidheight><course>290.88202</course><type>1</type></trkpt>
      <trkpt lat="39.22381599020985" lon="-6.158353746638829"><ele>1167</ele><speed>10.25</speed><time>2016-06-01T16:50:50Z</time><pdop>8.0</pdop><geoidheight>50.60</geoidheight><course>243.82114</course><type>1</type></trkpt>
      <trkpt lat="39.22368126069022" lon="-6.158515919685548"><ele>1167</ele><speed>10.10</speed><time>2016-06-01T16:50:52Z</time><pdop>8.0</pdop><geoidheight>50.60</geoidheight><course>211.05522</course><type>1</type></trkpt>
      <trkpt lat="39.2234840638128" lon="-6.158494671358823"><ele>1169</ele><speed>11.06</speed><time>2016-06-01T16:50:53Z</time><pdop>8.0</pdop><geoidheight>50.60</geoidheight><course>157.30418</course><type>1</type></trkpt>
      <trkpt lat="39.22334823135967" lon="-6.158309404208042"><ele>1169</ele><speed>9.68</speed><time>2016-06-01T16:50:56Z</time><pdop>8.0</pdop><geoidheight>50.60</geoidheight><course>112.5872</course><type>1</type></trkpt>
      <trkpt lat="39.22336637055194" lon="-6.158122348472827"><ele>1170</ele><speed>8.66</speed><time>2016-06-01T16:50:58Z</time><pdop>6.0</pdop><geoidheight>50.60</geoidheight><course>71.84498</course><type>1</type></trkpt>
      <trkpt lat="39.223434297092524" lon="-6.157976063777595"><ele>1172</ele><speed>8.29</speed><time>2016-06-01T16:51:00Z</time><pdop>8.0</pdop><geoidheight>50.60</geoidheight><course>52.58538</course><type>1</type></trkpt>
      <trkpt lat="39.223564664233756" lon="-6.15777676246621"><ele>1171</ele><speed>6.76</speed><time>2016-06-01T16:51:03Z</time><pdop>8.0</pdop><geoidheight>50.60</geoidheight><course>50.680325</course><type>1</type></trkpt>
      <trkpt lat="39.22372684082942" lon="-6.157611790788616"><ele>1169</ele><speed>6.33</speed><time>2016-06-01T16:51:06Z</time><pdop>8.0</pdop><geoidheight>50.60</geoidheight><course>34.742607</course><type>1</type></trkpt>
      <trkpt lat="39.223835704281306" lon="-6.157519094509471"><ele>1166</ele><speed>6.03</speed><time>2016-06-01T16:51:08Z</time><pdop>6.0</pdop><geoidheight>50.60</geoidheight><course>32.798386</course><type>1</type></trkpt>
      <trkpt lat="39.22393417159904" lon="-6.157439652215149"><ele>1163</ele><speed>6.48</speed><time>2016-06-01T16:51:10Z</time><pdop>6.0</pdop><geoidheight>50.60</geoidheight><course>29.96999</course><type>1</type></trkpt>
      <trkpt lat="39.22403150046263" lon="-6.157377442667433"><ele>1159</ele><speed>6.26</speed><time>2016-06-01T16:51:12Z</time><pdop>6.0</pdop><geoidheight>50.60</geoidheight><course>24.616337</course><type>1</type></trkpt>
      <trkpt lat="39.22417423008334" lon="-6.1573000825581445"><ele>1153</ele><speed>6.22</speed><time>2016-06-01T16:51:15Z</time><pdop>6.0</pdop><geoidheight>50.60</geoidheight><course>27.0832</course><type>1</type></trkpt>
      <trkpt lat="39.224204728472124" lon="-6.157102475368519"><ele>1149</ele><speed>9.37</speed><time>2016-06-01T16:51:18Z</time><pdop>6.0</pdop><geoidheight>50.60</geoidheight><course>107.7497</course><type>1</type></trkpt>
      <trkpt lat="39.22406907111912" lon="-6.156911106682724"><ele>1146</ele><speed>13.29</speed><time>2016-06-01T16:51:20Z</time><pdop>12.0</pdop><geoidheight>50.60</geoidheight><course>144.48921</course><type>1</type></trkpt>
      <trkpt lat="39.223753642366376" lon="-6.156876252725724"><ele>1142</ele><speed>12.25</speed><time>2016-06-01T16:51:23Z</time><pdop>12.0</pdop><geoidheight>50.60</geoidheight><course>199.46236</course><type>1</type></trkpt>
      <trkpt lat="39.223546808975655" lon="-6.156989056068105"><ele>1137</ele><speed>12.28</speed><time>2016-06-01T16:51:24Z</time><pdop>8.0</pdop><geoidheight>50.60</geoidheight><course>205.08615</course><type>1</type></trkpt>
      <trkpt lat="39.22336341773568" lon="-6.157189787907111"><ele>1133</ele><speed>12.03</speed><time>2016-06-01T16:51:27Z</time><pdop>8.0</pdop><geoidheight>50.60</geoidheight><course>220.45424</course><type>1</type></trkpt>
      <trkpt lat="39.22320582510743" lon="-6.157415313246406"><ele>1129</ele><speed>12.76</speed><time>2016-06-01T16:51:29Z</time><pdop>6.0</pdop><geoidheight>50.60</geoidheight><course>226.9797</course><type>1</type></trkpt>
      <trkpt lat="39.223136844857756" lon="-6.157532555768703"><ele>1127</ele><speed>12.69</speed><time>2016-06-01T16:51:30Z</time><pdop>6.0</pdop><geoidheight>50.60</geoidheight><course>229.32816</course><type>1</type></trkpt>
      <trkpt lat="39.223070680923485" lon="-6.157653063253001"><ele>1126</ele><speed>12.02</speed><time>2016-06-01T16:51:31Z</time><pdop>6.0</pdop><geoidheight>50.60</geoidheight><course>231.42316</course><type>1</type></trkpt>
      <trkpt lat="39.22298328598763" lon="-6.157890846820419"><ele>1123</ele><speed>10.77</speed><time>2016-06-01T16:51:32Z</time><pdop>6.0</pdop><geoidheight>50.60</geoidheight><course>248.66101</course><type>1</type></trkpt>
      <trkpt lat="39.22293437674174" lon="-6.1581091108300035"><ele>1119</ele><speed>9.66</speed><time>2016-06-01T16:51:35Z</time><pdop>8.0</pdop><geoidheight>50.60</geoidheight><course>252.5969</course><type>1</type></trkpt>
      <trkpt lat="39.22290413610418" lon="-6.158347703059859"><ele>1116</ele><speed>10.17</speed><time>2016-06-01T16:51:37Z</time><pdop>6.0</pdop><geoidheight>50.60</geoidheight><course>258.52905</course><type>1</type></trkpt>
      <trkpt lat="39.22293050672127" lon="-6.158575006432922"><ele>1112</ele><speed>9.44</speed><time>2016-06-01T16:51:39Z</time><pdop>8.0</pdop><geoidheight>50.60</geoidheight><course>276.37683</course><type>1</type></trkpt>
      <trkpt lat="39.22301015461468" lon="-6.158722887789898"><ele>1109</ele><speed>6.19</speed><time>2016-06-01T16:51:41Z</time><pdop>6.0</pdop><geoidheight>50.60</geoidheight><course>305.07098</course><type>1</type></trkpt>
      <trkpt lat="39.22317254693259" lon="-6.158678020313275"><ele>1103</ele><speed>5.58</speed><time>2016-06-01T16:51:44Z</time><pdop>8.0</pdop><geoidheight>50.60</geoidheight><course>26.45455</course><type>1</type></trkpt>
      <trkpt lat="39.22331056054807" lon="-6.158540216763912"><ele>1094</ele><speed>7.28</speed><time>2016-06-01T16:51:47Z</time><pdop>6.0</pdop><geoidheight>50.60</geoidheight><course>44.660896</course><type>1</type></trkpt>
      <trkpt lat="39.223357536707546" lon="-6.158373800799033"><ele>1089</ele><speed>8.52</speed><time>2016-06-01T16:51:49Z</time><pdop>6.0</pdop><geoidheight>50.60</geoidheight><course>74.95613</course><type>1</type></trkpt>
      <trkpt lat="39.22337820942643" lon="-6.158192069294143"><ele>1084</ele><speed>8.58</speed><time>2016-06-01T16:51:51Z</time><pdop>6.0</pdop><geoidheight>50.60</geoidheight><course>80.943794</course><type>1</type></trkpt>
      <trkpt lat="39.223383966536005" lon="-6.157993130147442"><ele>1081</ele><speed>9.12</speed><time>2016-06-01T16:51:53Z</time><pdop>4.0</pdop><geoidheight>50.60</geoidheight><course>83.52924</course><type>1</type></trkpt>
      <trkpt lat="39.223383498279254" lon="-6.1578962066572185"><ele>1080</ele><speed>9.15</speed><time>2016-06-01T16:51:54Z</time><pdop>4.0</pdop><geoidheight>50.60</geoidheight><course>83.93395</course><type>1</type></trkpt>
      <trkpt lat="39.22339086683538" lon="-6.157692360983513"><ele>1077</ele><speed>9.19</speed><time>2016-06-01T16:51:56Z</time><pdop>4.0</pdop><geoidheight>50.60</geoidheight><course>85.17079</course><type>1</type></trkpt>
      <trkpt lat="39.22339423535243" lon="-6.157583551103144"><ele>1075</ele><speed>9.71</speed><time>2016-06-01T16:51:57Z</time><pdop>4.0</pdop><geoidheight>50.60</geoidheight><course>86.42013</course><type>1</type></trkpt>
      <trkpt lat="39.22339585741201" lon="-6.15736852173194"><ele>1072</ele><speed>9.54</speed><time>2016-06-01T16:51:59Z</time><pdop>4.0</pdop><geoidheight>50.60</geoidheight><course>87.39792</course><type>1</type></trkpt>
      <trkpt lat="39.223397061779245" lon="-6.157262281745315"><ele>1071</ele><speed>9.62</speed><time>2016-06-01T16:52:00Z</time><pdop>4.0</pdop><geoidheight>50.60</geoidheight><course>87.38575</course><type>1</type></trkpt>
      <trkpt lat="39.22338401938427" lon="-6.157068794378508"><ele>1069</ele><speed>9.81</speed><time>2016-06-01T16:52:01Z</time><pdop>4.0</pdop><geoidheight>50.60</geoidheight><course>89.26672</course><type>1</type></trkpt>
      <trkpt lat="39.223375361373584" lon="-6.156964365585785"><ele>1068</ele><speed>9.91</speed><time>2016-06-01T16:52:02Z</time><pdop>4.0</pdop><geoidheight>50.60</geoidheight><course>90.64725</course><type>1</type></trkpt>
      <trkpt lat="39.22336789442737" lon="-6.156753199379044"><ele>1067</ele><speed>9.56</speed><time>2016-06-01T16:52:05Z</time><pdop>8.0</pdop><geoidheight>50.60</geoidheight><course>90.276985</course><type>1</type></trkpt>
      <trkpt lat="39.22335247245807" lon="-6.156518797706732"><ele>1066</ele><speed>9.90</speed><time>2016-06-01T16:52:07Z</time><pdop>6.0</pdop><geoidheight>50.60</geoidheight><course>92.38604</course><type>1</type></trkpt>
      <trkpt lat="39.22333286790182" lon="-6.156284554094168"><ele>1064</ele><speed>10.40</speed><time>2016-06-01T16:52:09Z</time><pdop>6.0</pdop><geoidheight>50.60</geoidheight><course>94.52139</course><type>1</type></trkpt>
      <trkpt lat="39.22331039203927" lon="-6.156057885985954"><ele>1062</ele><speed>10.38</speed><time>2016-06-01T16:52:11Z</time><pdop>6.0</pdop><geoidheight>50.60</geoidheight><course>95.32012</course><type>1</type></trkpt>
      <trkpt lat="39.22328749083696" lon="-6.155830112226259"><ele>1059</ele><speed>11.01</speed><time>2016-06-01T16:52:13Z</time><pdop>6.0</pdop><geoidheight>50.60</geoidheight><course>95.14993</course><type>1</type></trkpt>
      <trkpt lat="39.223262663683364" lon="-6.155585411530265"><ele>1056</ele><speed>11.56</speed><time>2016-06-01T16:52:15Z</time><pdop>6.0</pdop><geoidheight>50.60</geoidheight><course>94.41831</course><type>1</type></trkpt>
      <trkpt lat="39.22323960540884" lon="-6.155331539997958"><ele>1054</ele><speed>11.27</speed><time>2016-06-01T16:52:17Z</time><pdop>6.0</pdop><geoidheight>50.60</geoidheight><course>94.42748</course><type>1</type></trkpt>
      <trkpt lat="39.22321118898991" lon="-6.155090931499852"><ele>1050</ele><speed>11.78</speed><time>2016-06-01T16:52:19Z</time><pdop>8.0</pdop><geoidheight>50.60</geoidheight><course>98.5771</course><type>1</type></trkpt>
      <trkpt lat="39.223170396790835" lon="-6.154845063362215"><ele>1047</ele><speed>10.42</speed><time>2016-06-01T16:52:21Z</time><pdop>8.0</pdop><geoidheight>50.60</geoidheight><course>100.93381</course><type>1</type></trkpt>
      <trkpt lat="39.22312920943738" lon="-6.154638455214754"><ele>1045</ele><speed>10.27</speed><time>2016-06-01T16:52:23Z</time><pdop>8.0</pdop><geoidheight>50.60</geoidheight><course>100.7804</course><type>1</type></trkpt>
      <trkpt lat="39.22307916838095" lon="-6.1543877094311"><ele>1043</ele><speed>11.59</speed><time>2016-06-01T16:52:25Z</time><pdop>12.0</pdop><geoidheight>50.60</geoidheight><course>102.47292</course><type>1</type></trkpt>
      <trkpt lat="39.22304459004067" lon="-6.1541402218950605"><ele>1041</ele><speed>10.24</speed><time>2016-06-01T16:52:26Z</time><pdop>8.0</pdop><geoidheight>50.60</geoidheight><course>98.58648</course><type>1</type></trkpt>
      <trkpt lat="39.2230324224862" lon="-6.153913882193955"><ele>1039</ele><speed>8.78</speed><time>2016-06-01T16:52:29Z</time><pdop>8.0</pdop><geoidheight>50.60</geoidheight><course>94.018555</course><type>1</type></trkpt>
      <trkpt lat="39.22302786746521" lon="-6.153687836638906"><ele>1036</ele><speed>10.17</speed><time>2016-06-01T16:52:31Z</time><pdop>8.0</pdop><geoidheight>50.60</geoidheight><course>93.92855</course><type>1</type></trkpt>
      <trkpt lat="39.22301809271437" lon="-6.153426833622186"><ele>1032</ele><speed>10.34</speed><time>2016-06-01T16:52:33Z</time><pdop>8.0</pdop><geoidheight>50.60</geoidheight><course>98.24018</course><type>1</type></trkpt>
      <trkpt lat="39.22298530771614" lon="-6.153191467832759"><ele>1029</ele><speed>10.10</speed><time>2016-06-01T16:52:35Z</time><pdop>8.0</pdop><geoidheight>50.60</geoidheight><course>102.896126</course><type>1</type></trkpt>
      <trkpt lat="39.222937966758195" lon="-6.152986728265042"><ele>1027</ele><speed>9.82</speed><time>2016-06-01T16:52:37Z</time><pdop>8.0</pdop><geoidheight>50.60</geoidheight><course>103.960976</course><type>1</type></trkpt>
      <trkpt lat="39.22289785340205" lon="-6.152732821670266"><ele>1024</ele><speed>13.31</speed><time>2016-06-01T16:52:39Z</time><pdop>12.0</pdop><geoidheight>50.60</geoidheight><course>100.92874</course><type>1</type></trkpt>
      <trkpt lat="39.222852481682985" lon="-6.152243907720776"><ele>1023</ele><speed>8.74</speed><time>2016-06-01T16:52:43Z</time><pdop>16.0</pdop><geoidheight>50.60</geoidheight><course>96.47602</course><type>1</type></trkpt>
      <trkpt lat="39.22280983057935" lon="-6.151896674401829"><ele>1020</ele><speed>9.14</speed><time>2016-06-01T16:52:47Z</time><pdop>12.0</pdop><geoidheight>50.60</geoidheight><course>96.5126</course><type>1</type></trkpt>
      <trkpt lat="39.222814993604864" lon="-6.151495601712107"><ele>1011</ele><speed>8.25</speed><time>2016-06-01T16:52:52Z</time><pdop>8.0</pdop><geoidheight>50.60</geoidheight><course>87.28666</course><type>1</type></trkpt>
      <trkpt lat="39.2228517474296" lon="-6.151238792927062"><ele>1011</ele><speed>8.70</speed><time>2016-06-01T16:52:55Z</time><pdop>8.0</pdop><geoidheight>50.60</geoidheight><course>69.16663</course><type>1</type></trkpt>
      <trkpt lat="39.22290444317076" lon="-6.151033077132788"><ele>1010</ele><speed>10.01</speed><time>2016-06-01T16:52:56Z</time><pdop>8.0</pdop><geoidheight>50.60</geoidheight><course>71.630455</course><type>1</type></trkpt>
      <trkpt lat="39.22296528281589" lon="-6.1507097747697355"><ele>1010</ele><speed>7.95</speed><time>2016-06-01T16:53:00Z</time><pdop>8.0</pdop><geoidheight>50.60</geoidheight><course>77.03807</course><type>1</type></trkpt>
      <trkpt lat="39.22302468323685" lon="-6.150451347912683"><ele>1009</ele><speed>7.48</speed><time>2016-06-01T16:53:03Z</time><pdop>8.0</pdop><geoidheight>50.60</geoidheight><course>80.374725</course><type>1</type></trkpt>
      <trkpt lat="39.22306453514945" lon="-6.150246672361737"><ele>1009</ele><speed>4.52</speed><time>2016-06-01T16:53:06Z</time><pdop>8.0</pdop><geoidheight>50.60</geoidheight><course>65.523926</course><type>1</type></trkpt>
      <trkpt lat="39.2232053816599" lon="-6.150092249475909"><ele>1007</ele><speed>6.82</speed><time>2016-06-01T16:53:09Z</time><pdop>8.0</pdop><geoidheight>50.60</geoidheight><course>23.038376</course><type>1</type></trkpt>
      <trkpt lat="39.22332911421397" lon="-6.150133221475003"><ele>1006</ele><speed>4.61</speed><time>2016-06-01T16:53:13Z</time><pdop>6.0</pdop><geoidheight>50.60</geoidheight><course>303.19666</course><type>1</type></trkpt>
      <trkpt lat="39.22334809323235" lon="-6.150348122669837"><ele>1006</ele><speed>8.20</speed><time>2016-06-01T16:53:16Z</time><pdop>8.0</pdop><geoidheight>50.60</geoidheight><course>263.77856</course><type>1</type></trkpt>
      <trkpt lat="39.223251319189934" lon="-6.150641461585904"><ele>1005</ele><speed>8.45</speed><time>2016-06-01T16:53:19Z</time><pdop>6.0</pdop><geoidheight>50.60</geoidheight><course>244.83017</course><type>1</type></trkpt>
      <trkpt lat="39.22312865115379" lon="-6.150788791373281"><ele>1004</ele><speed>9.79</speed><time>2016-06-01T16:53:20Z</time><pdop>6.0</pdop><geoidheight>50.60</geoidheight><course>216.08607</course><type>1</type></trkpt>
      <trkpt lat="39.22294054256385" lon="-6.150929405652087"><ele>1003</ele><speed>13.02</speed><time>2016-06-01T16:53:23Z</time><pdop>8.0</pdop><geoidheight>50.60</geoidheight><course>208.81958</course><type>1</type></trkpt>
      <trkpt lat="39.22272070412821" lon="-6.150961222698086"><ele>1000</ele><speed>14.21</speed><time>2016-06-01T16:53:24Z</time><pdop>6.0</pdop><geoidheight>50.60</geoidheight><course>185.93755</course><type>1</type></trkpt>
      <trkpt lat="39.22260911326051" lon="-6.1509740574859695"><ele>999</ele><speed>14.43</speed><time>2016-06-01T16:53:25Z</time><pdop>6.0</pdop><geoidheight>50.60</geoidheight><course>185.7179</course><type>1</type></trkpt>
      <trkpt lat="39.222360005055485" lon="-6.150999778980181"><ele>995</ele><speed>12.85</speed><time>2016-06-01T16:53:28Z</time><pdop>6.0</pdop><geoidheight>50.60</geoidheight><course>182.39677</course><type>1</type></trkpt>
      <trkpt lat="39.22223891671516" lon="-6.150954178289612"><ele>993</ele><speed>13.07</speed><time>2016-06-01T16:53:29Z</time><pdop>6.0</pdop><geoidheight>50.60</geoidheight><course>162.20747</course><type>1</type></trkpt>
      <trkpt lat="39.22211958124664" lon="-6.1509036090626115"><ele>993</ele><speed>13.23</speed><time>2016-06-01T16:53:30Z</time><pdop>6.0</pdop><geoidheight>50.60</geoidheight><course>159.49457</course><type>1</type></trkpt>
      <trkpt lat="39.22200407333995" lon="-6.150846693824797"><ele>992</ele><speed>13.23</speed><time>2016-06-01T16:53:31Z</time><pdop>4.0</pdop><geoidheight>50.60</geoidheight><course>158.73413</course><type>1</type></trkpt>
      <trkpt lat="39.22189175000985" lon="-6.150794381478104"><ele>992</ele><speed>13.65</speed><time>2016-06-01T16:53:32Z</time><pdop>4.0</pdop><geoidheight>50.60</geoidheight><course>161.70273</course><type>1</type></trkpt>
      <trkpt lat="39.22177913907871" lon="-6.15074809213279"><ele>992</ele><speed>13.82</speed><time>2016-06-01T16:53:33Z</time><pdop>4.0</pdop><geoidheight>50.60</geoidheight><course>164.20984</course><type>1</type></trkpt>
      <trkpt lat="39.22166271433238" lon="-6.1507018591390565"><ele>992</ele><speed>13.09</speed><time>2016-06-01T16:53:34Z</time><pdop>4.0</pdop><geoidheight>50.60</geoidheight><course>163.13129</course><type>1</type></trkpt>
      <trkpt lat="39.22154860877066" lon="-6.150620587671564"><ele>992</ele><speed>12.82</speed><time>2016-06-01T16:53:35Z</time><pdop>6.0</pdop><geoidheight>50.60</geoidheight><course>148.12878</course><type>1</type></trkpt>
      <trkpt lat="39.221456393966356" lon="-6.1505413156392885"><ele>992</ele><speed>11.42</speed><time>2016-06-01T16:53:36Z</time><pdop>6.0</pdop><geoidheight>50.60</geoidheight><course>144.06313</course><type>1</type></trkpt>
      <trkpt lat="39.221346373367005" lon="-6.150353561119102"><ele>992</ele><speed>9.88</speed><time>2016-06-01T16:53:38Z</time><pdop>6.0</pdop><geoidheight>50.60</geoidheight><course>123.83434</course><type>1</type></trkpt>
      <trkpt lat="39.22129423998468" lon="-6.150149602472758"><ele>991</ele><speed>10.38</speed><time>2016-06-01T16:53:40Z</time><pdop>6.0</pdop><geoidheight>50.60</geoidheight><course>106.32622</course><type>1</type></trkpt>
      <trkpt lat="39.221295950410884" lon="-6.1499486890017545"><ele>989</ele><speed>8.94</speed><time>2016-06-01T16:53:42Z</time><pdop>6.0</pdop><geoidheight>50.60</geoidheight><course>87.11693</course><type>1</type></trkpt>
      <trkpt lat="39.22130450149756" lon="-6.149741736983734"><ele>989</ele><speed>8.65</speed><time>2016-06-01T16:53:44Z</time><pdop>6.0</pdop><geoidheight>50.60</geoidheight><course>85.992226</course><type>1</type></trkpt>
      <trkpt lat="39.22130890773293" lon="-6.149522349989626"><ele>990</ele><speed>9.98</speed><time>2016-06-01T16:53:46Z</time><pdop>6.0</pdop><geoidheight>50.60</geoidheight><course>87.69405</course><type>1</type></trkpt>
      <trkpt lat="39.22132268899809" lon="-6.149287542518419"><ele>989</ele><speed>10.17</speed><time>2016-06-01T16:53:47Z</time><pdop>6.0</pdop><geoidheight>50.60</geoidheight><course>85.65482</course><type>1</type></trkpt>
      <trkpt lat="39.22134456660186" lon="-6.149044515678414"><ele>987</ele><speed>9.33</speed><time>2016-06-01T16:53:50Z</time><pdop>6.0</pdop><geoidheight>50.60</geoidheight><course>83.71278</course><type>1</type></trkpt>
      <trkpt lat="39.22138328682793" lon="-6.148834238009429"><ele>985</ele><speed>7.43</speed><time>2016-06-01T16:53:52Z</time><pdop>6.0</pdop><geoidheight>50.60</geoidheight><course>78.98419</course><type>1</type></trkpt>
      <trkpt lat="39.221422691461825" lon="-6.148678593741437"><ele>983</ele><speed>8.06</speed><time>2016-06-01T16:53:54Z</time><pdop>6.0</pdop><geoidheight>50.60</geoidheight><course>78.95308</course><type>1</type></trkpt>
      <trkpt lat="39.221468765263126" lon="-6.148492278364439"><ele>980</ele><speed>9.53</speed><time>2016-06-01T16:53:56Z</time><pdop>6.0</pdop><geoidheight>50.60</geoidheight><course>76.43204</course><type>1</type></trkpt>
      <trkpt lat="39.221513917310766" lon="-6.148300058341166"><ele>979</ele><speed>7.80</speed><time>2016-06-01T16:53:58Z</time><pdop>6.0</pdop><geoidheight>50.60</geoidheight><course>75.706665</course><type>1</type></trkpt>
      <trkpt lat="39.22155369720624" lon="-6.148131799836646"><ele>978</ele><speed>7.55</speed><time>2016-06-01T16:54:00Z</time><pdop>6.0</pdop><geoidheight>50.60</geoidheight><course>74.53121</course><type>1</type></trkpt>
      <trkpt lat="39.221596551052336" lon="-6.147961153189338"><ele>978</ele><speed>8.55</speed><time>2016-06-01T16:54:02Z</time><pdop>6.0</pdop><geoidheight>50.60</geoidheight><course>72.25167</course><type>1</type></trkpt>
      <trkpt lat="39.2216384862448" lon="-6.1477729446511695"><ele>977</ele><speed>8.98</speed><time>2016-06-01T16:54:04Z</time><pdop>8.0</pdop><geoidheight>50.60</geoidheight><course>75.627785</course><type>1</type></trkpt>
      <trkpt lat="39.221659362354195" lon="-6.147568412483856"><ele>976</ele><speed>9.28</speed><time>2016-06-01T16:54:06Z</time><pdop>6.0</pdop><geoidheight>50.60</geoidheight><course>81.96706</course><type>1</type></trkpt>
      <trkpt lat="39.22167079231391" lon="-6.147346644832486"><ele>974</ele><speed>9.80</speed><time>2016-06-01T16:54:08Z</time><pdop>6.0</pdop><geoidheight>50.60</geoidheight><course>85.79574</course><type>1</type></trkpt>
      <trkpt lat="39.22166690350793" lon="-6.147120531515167"><ele>972</ele><speed>10.08</speed><time>2016-06-01T16:54:10Z</time><pdop>6.0</pdop><geoidheight>50.60</geoidheight><course>91.714294</course><type>1</type></trkpt>
      <trkpt lat="39.221647749084966" lon="-6.146907056320274"><ele>969</ele><speed>9.09</speed><time>2016-06-01T16:54:12Z</time><pdop>6.0</pdop><geoidheight>50.60</geoidheight><course>95.283134</course><type>1</type></trkpt>
      <trkpt lat="39.22162227146291" lon="-6.146699516374597"><ele>966</ele><speed>9.50</speed><time>2016-06-01T16:54:14Z</time><pdop>6.0</pdop><geoidheight>50.60</geoidheight><course>97.67402</course><type>1</type></trkpt>
      <trkpt lat="39.22159992502195" lon="-6.146487577505993"><ele>962</ele><speed>9.78</speed><time>2016-06-01T16:54:16Z</time><pdop>6.0</pdop><geoidheight>50.60</geoidheight><course>96.335526</course><type>1</type></trkpt>
      <trkpt lat="39.22159621278059" lon="-6.146276125515432"><ele>957</ele><speed>9.33</speed><time>2016-06-01T16:54:18Z</time><pdop>6.0</pdop><geoidheight>50.60</geoidheight><course>91.33746</course><type>1</type></trkpt>
      <trkpt lat="39.221608696062106" lon="-6.146068894983206"><ele>952</ele><speed>8.99</speed><time>2016-06-01T16:54:20Z</time><pdop>6.0</pdop><geoidheight>50.60</geoidheight><course>87.73323</course><type>1</type></trkpt>
      <trkpt lat="39.221660965711756" lon="-6.145766943729062"><ele>944</ele><speed>8.16</speed><time>2016-06-01T16:54:23Z</time><pdop>6.0</pdop><geoidheight>50.60</geoidheight><course>79.304115</course><type>1</type></trkpt>
      <trkpt lat="39.22170266534611" lon="-6.145609771612281"><ele>940</ele><speed>6.64</speed><time>2016-06-01T16:54:24Z</time><pdop>6.0</pdop><geoidheight>50.60</geoidheight><course>77.2474</course><type>1</type></trkpt>
      <trkpt lat="39.221743574623055" lon="-6.1454421285954295"><ele>936</ele><speed>8.17</speed><time>2016-06-01T16:54:27Z</time><pdop>6.0</pdop><geoidheight>50.60</geoidheight><course>78.46107</course><type>1</type></trkpt>
      <trkpt lat="39.22176616708964" lon="-6.145274165848386"><ele>933</ele><speed>8.10</speed><time>2016-06-01T16:54:29Z</time><pdop>6.0</pdop><geoidheight>50.60</geoidheight><course>84.54448</course><type>1</type></trkpt>
      <trkpt lat="39.22179067159741" lon="-6.145110484100767"><ele>932</ele><speed>6.64</speed><time>2016-06-01T16:54:31Z</time><pdop>6.0</pdop><geoidheight>50.60</geoidheight><course>69.10631</course><type>1</type></trkpt>
      <trkpt lat="39.22184441342435" lon="-6.14493964583924"><ele>929</ele><speed>7.59</speed><time>2016-06-01T16:54:33Z</time><pdop>8.0</pdop><geoidheight>50.60</geoidheight><course>69.44767</course><type>1</type></trkpt>
      <trkpt lat="39.221866788855564" lon="-6.144748334953622"><ele>924</ele><speed>9.26</speed><time>2016-06-01T16:54:35Z</time><pdop>8.0</pdop><geoidheight>50.60</geoidheight><course>85.898865</course><type>1</type></trkpt>
      <trkpt lat="39.221884896293446" lon="-6.144547860080039"><ele>920</ele><speed>8.74</speed><time>2016-06-01T16:54:37Z</time><pdop>6.0</pdop><geoidheight>50.60</geoidheight><course>84.41327</course><type>1</type></trkpt>
      <trkpt lat="39.22191238056168" lon="-6.144349754708655"><ele>916</ele><speed>8.92</speed><time>2016-06-01T16:54:39Z</time><pdop>6.0</pdop><geoidheight>50.60</geoidheight><course>81.85163</course><type>1</type></trkpt>
      <trkpt lat="39.22193464062323" lon="-6.144150544392992"><ele>912</ele><speed>8.65</speed><time>2016-06-01T16:54:41Z</time><pdop>6.0</pdop><geoidheight>50.60</geoidheight><course>84.629906</course><type>1</type></trkpt>
      <trkpt lat="39.221945112103775" lon="-6.143952856459556"><ele>910</ele><speed>8.66</speed><time>2016-06-01T16:54:43Z</time><pdop>6.0</pdop><geoidheight>50.60</geoidheight><course>87.34517</course><type>1</type></trkpt>
      <trkpt lat="39.22194716388381" lon="-6.143739959031979"><ele>907</ele><speed>10.20</speed><time>2016-06-01T16:54:45Z</time><pdop>8.0</pdop><geoidheight>50.60</geoidheight><course>89.42292</course><type>1</type></trkpt>
      <trkpt lat="39.22194930692252" lon="-6.143516224792225"><ele>905</ele><speed>9.12</speed><time>2016-06-01T16:54:47Z</time><pdop>8.0</pdop><geoidheight>50.60</geoidheight><course>88.56512</course><type>1</type></trkpt>
      <trkpt lat="39.22196326992981" lon="-6.1433399197362375"><ele>903</ele><speed>7.01</speed><time>2016-06-01T16:54:49Z</time><pdop>6.0</pdop><geoidheight>50.60</geoidheight><course>84.63841</course><type>1</type></trkpt>
      <trkpt lat="39.221977850433646" lon="-6.14316721912958"><ele>901</ele><speed>8.50</speed><time>2016-06-01T16:54:51Z</time><pdop>6.0</pdop><geoidheight>50.60</geoidheight><course>86.093636</course><type>1</type></trkpt>
      <trkpt lat="39.22199387453944" lon="-6.142972877261695"><ele>898</ele><speed>8.61</speed><time>2016-06-01T16:54:53Z</time><pdop>6.0</pdop><geoidheight>50.60</geoidheight><course>84.408585</course><type>1</type></trkpt>
      <trkpt lat="39.222003469382855" lon="-6.142778753410981"><ele>896</ele><speed>8.68</speed><time>2016-06-01T16:54:55Z</time><pdop>6.0</pdop><geoidheight>50.60</geoidheight><course>88.863434</course><type>1</type></trkpt>
      <trkpt lat="39.221995469295216" lon="-6.142593688400318"><ele>893</ele><speed>7.94</speed><time>2016-06-01T16:54:57Z</time><pdop>6.0</pdop><geoidheight>50.60</geoidheight><course>92.35953</course><type>1</type></trkpt>
      <trkpt lat="39.22199162306772" lon="-6.142422411677369"><ele>890</ele><speed>7.87</speed><time>2016-06-01T16:54:59Z</time><pdop>6.0</pdop><geoidheight>50.60</geoidheight><course>90.71957</course><type>1</type></trkpt>
      <trkpt lat="39.22199482844537" lon="-6.142234368165144"><ele>886</ele><speed>8.90</speed><time>2016-06-01T16:55:01Z</time><pdop>6.0</pdop><geoidheight>50.60</geoidheight><course>88.48615</course><type>1</type></trkpt>
      <trkpt lat="39.2220068599215" lon="-6.142033176976426"><ele>882</ele><speed>9.32</speed><time>2016-06-01T16:55:03Z</time><pdop>6.0</pdop><geoidheight>50.60</geoidheight><course>88.26913</course><type>1</type></trkpt>
      <trkpt lat="39.22200877289908" lon="-6.141828047265701"><ele>880</ele><speed>8.74</speed><time>2016-06-01T16:55:05Z</time><pdop>6.0</pdop><geoidheight>50.60</geoidheight><course>90.70841</course><type>1</type></trkpt>
      <trkpt lat="39.222009051520445" lon="-6.1416383371617185"><ele>877</ele><speed>8.42</speed><time>2016-06-01T16:55:07Z</time><pdop>6.0</pdop><geoidheight>50.60</geoidheight><course>89.63188</course><type>1</type></trkpt>
      <trkpt lat="39.222006875098465" lon="-6.1414180639337035"><ele>874</ele><speed>10.52</speed><time>2016-06-01T16:55:09Z</time><pdop>4.0</pdop><geoidheight>50.60</geoidheight><course>92.489815</course><type>1</type></trkpt>
      <trkpt lat="39.22200122858363" lon="-6.141306746858499"><ele>872</ele><speed>9.54</speed><time>2016-06-01T16:55:10Z</time><pdop>4.0</pdop><geoidheight>50.60</geoidheight><course>93.81859</course><type>1</type></trkpt>
      <trkpt lat="39.221995557267604" lon="-6.141204882997857"><ele>870</ele><speed>8.33</speed><time>2016-06-01T16:55:11Z</time><pdop>4.0</pdop><geoidheight>50.60</geoidheight><course>93.967766</course><type>1</type></trkpt>
      <trkpt lat="39.221986600466295" lon="-6.141008749653555"><ele>867</ele><speed>9.12</speed><time>2016-06-01T16:55:13Z</time><pdop>8.0</pdop><geoidheight>50.60</geoidheight><course>94.29591</course><type>1</type></trkpt>
      <trkpt lat="39.22197940480767" lon="-6.1407771786368945"><ele>863</ele><speed>10.88</speed><time>2016-06-01T16:55:15Z</time><pdop>8.0</pdop><geoidheight>50.60</geoidheight><course>92.772934</course><type>1</type></trkpt>
      <trkpt lat="39.22198760877234" lon="-6.140530034518884"><ele>860</ele><speed>9.36</speed><time>2016-06-01T16:55:17Z</time><pdop>6.0</pdop><geoidheight>50.60</geoidheight><course>88.3191</course><type>1</type></trkpt>
      <trkpt lat="39.221992734628756" lon="-6.1403350888754025"><ele>858</ele><speed>8.56</speed><time>2016-06-01T16:55:19Z</time><pdop>6.0</pdop><geoidheight>50.60</geoidheight><course>92.07738</course><type>1</type></trkpt>
      <trkpt lat="39.221987917298826" lon="-6.140121160641974"><ele>856</ele><speed>10.44</speed><time>2016-06-01T16:55:21Z</time><pdop>8.0</pdop><geoidheight>50.60</geoidheight><course>92.58698</course><type>1</type></trkpt>
      <trkpt lat="39.22199340590165" lon="-6.139866513351532"><ele>853</ele><speed>11.91</speed><time>2016-06-01T16:55:22Z</time><pdop>6.0</pdop><geoidheight>50.60</geoidheight><course>87.74181</course><type>1</type></trkpt>
      <trkpt lat="39.22203891947183" lon="-6.139601201229567"><ele>850</ele><speed>10.01</speed><time>2016-06-01T16:55:25Z</time><pdop>6.0</pdop><geoidheight>50.60</geoidheight><course>70.46053</course><type>1</type></trkpt>
      <trkpt lat="39.22210248326705" lon="-6.139422828886257"><ele>848</ele><speed>7.92</speed><time>2016-06-01T16:55:27Z</time><pdop>6.0</pdop><geoidheight>50.60</geoidheight><course>66.913124</course><type>1</type></trkpt>
      <trkpt lat="39.222161781977" lon="-6.139265827674056"><ele>847</ele><speed>6.43</speed><time>2016-06-01T16:55:29Z</time><pdop>6.0</pdop><geoidheight>50.60</geoidheight><course>65.83229</course><type>1</type></trkpt>
      <trkpt lat="39.22223270279897" lon="-6.139148419459336"><ele>847</ele><speed>5.19</speed><time>2016-06-01T16:55:31Z</time><pdop>6.0</pdop><geoidheight>50.60</geoidheight><course>39.46299</course><type>1</type></trkpt>
      <trkpt lat="39.22237979857547" lon="-6.139046904617566"><ele>848</ele><speed>6.86</speed><time>2016-06-01T16:55:34Z</time><pdop>8.0</pdop><geoidheight>50.60</geoidheight><course>27.046373</course><type>1</type></trkpt>
      <trkpt lat="39.22250614056242" lon="-6.13894808707688"><ele>848</ele><speed>4.06</speed><time>2016-06-01T16:55:37Z</time><pdop>8.0</pdop><geoidheight>50.60</geoidheight><course>43.12652</course><type>1</type></trkpt>
      <trkpt lat="39.222681085538966" lon="-6.13881528380855"><ele>851</ele><speed>4.27</speed><time>2016-06-01T16:55:42Z</time><pdop>12.0</pdop><geoidheight>50.60</geoidheight><course>22.167637</course><type>1</type></trkpt>
      <trkpt lat="39.22286775149957" lon="-6.138893228322993"><ele>852</ele><speed>5.41</speed><time>2016-06-01T16:55:49Z</time><pdop>8.0</pdop><geoidheight>50.60</geoidheight><course>271.55774</course><type>1</type></trkpt>
      <trkpt lat="39.2228027962821" lon="-6.13904117561466"><ele>853</ele><speed>7.35</speed><time>2016-06-01T16:55:52Z</time><pdop>6.0</pdop><geoidheight>50.60</geoidheight><course>236.04723</course><type>1</type></trkpt>
      <trkpt lat="39.22271605928389" lon="-6.139171345648784"><ele>854</ele><speed>7.90</speed><time>2016-06-01T16:55:54Z</time><pdop>6.0</pdop><geoidheight>50.60</geoidheight><course>229.06433</course><type>1</type></trkpt>
      <trkpt lat="39.22266925056581" lon="-6.139349170567763"><ele>855</ele><speed>4.91</speed><time>2016-06-01T16:55:56Z</time><pdop>6.0</pdop><geoidheight>50.60</geoidheight><course>290.9622</course><type>1</type></trkpt>
      <trkpt lat="39.22280750045691" lon="-6.1392998926615725"><ele>851</ele><speed>8.19</speed><time>2016-06-01T16:56:01Z</time><pdop>6.0</pdop><geoidheight>50.60</geoidheight><course>61.161457</course><type>1</type></trkpt>
      <trkpt lat="39.2228923740502" lon="-6.139148664022736"><ele>847</ele><speed>6.00</speed><time>2016-06-01T16:56:03Z</time><pdop>6.0</pdop><geoidheight>50.60</geoidheight><course>43.352337</course><type>1</type></trkpt>
      <trkpt lat="39.22299889535761" lon="-6.139117614450052"><ele>847</ele><speed>6.13</speed><time>2016-06-01T16:56:06Z</time><pdop>6.0</pdop><geoidheight>50.60</geoidheight><course>328.78082</course><type>1</type></trkpt>
      <trkpt lat="39.22297364268487" lon="-6.139306674884119"><ele>848</ele><speed>8.71</speed><time>2016-06-01T16:56:09Z</time><pdop>8.0</pdop><geoidheight>50.60</geoidheight><course>232.22325</course><type>1</type></trkpt>
      <trkpt lat="39.22282909467538" lon="-6.139439021818807"><ele>849</ele><speed>9.18</speed><time>2016-06-01T16:56:10Z</time><pdop>6.0</pdop><geoidheight>50.60</geoidheight><course>208.7808</course><type>1</type></trkpt>
      <trkpt lat="39.22266216699455" lon="-6.139544716520374"><ele>849</ele><speed>10.77</speed><time>2016-06-01T16:56:13Z</time><pdop>6.0</pdop><geoidheight>50.60</geoidheight><course>206.10156</course><type>1</type></trkpt>
      <trkpt lat="39.222515688840566" lon="-6.139664720982902"><ele>850</ele><speed>9.37</speed><time>2016-06-01T16:56:14Z</time><pdop>6.0</pdop><geoidheight>50.60</geoidheight><course>222.14008</course><type>1</type></trkpt>
      <trkpt lat="39.2224274826267" lon="-6.13980699161888"><ele>849</ele><speed>8.15</speed><time>2016-06-01T16:56:17Z</time><pdop>8.0</pdop><geoidheight>50.60</geoidheight><course>240.01505</course><type>1</type></trkpt>
      <trkpt lat="39.22238511867212" lon="-6.139969935928549"><ele>848</ele><speed>6.85</speed><time>2016-06-01T16:56:19Z</time><pdop>6.0</pdop><geoidheight>50.60</geoidheight><course>259.7658</course><type>1</type></trkpt>
      <trkpt lat="39.22251123377024" lon="-6.139962248876404"><ele>843</ele><speed>8.81</speed><time>2016-06-01T16:56:26Z</time><pdop>8.0</pdop><geoidheight>50.60</geoidheight><course>74.686066</course><type>1</type></trkpt>
      <trkpt lat="39.222541835437795" lon="-6.139760937835116"><ele>841</ele><speed>9.69</speed><time>2016-06-01T16:56:28Z</time><pdop>6.0</pdop><geoidheight>50.60</geoidheight><course>82.036865</course><type>1</type></trkpt>
      <trkpt lat="39.22254247232431" lon="-6.139547794945371"><ele>839</ele><speed>8.91</speed><time>2016-06-01T16:56:30Z</time><pdop>6.0</pdop><geoidheight>50.60</geoidheight><course>88.573364</course><type>1</type></trkpt>
      <trkpt lat="39.222547931399866" lon="-6.1393511532113525"><ele>838</ele><speed>9.13</speed><time>2016-06-01T16:56:32Z</time><pdop>4.0</pdop><geoidheight>50.60</geoidheight><course>83.8851</course><type>1</type></trkpt>
      <trkpt lat="39.22262027666651" lon="-6.139188069924009"><ele>836</ele><speed>7.99</speed><time>2016-06-01T16:56:34Z</time><pdop>6.0</pdop><geoidheight>50.60</geoidheight><course>59.597515</course><type>1</type></trkpt>
      <trkpt lat="39.222687776575725" lon="-6.1390601962434665"><ele>835</ele><speed>4.76</speed><time>2016-06-01T16:56:36Z</time><pdop>6.0</pdop><geoidheight>50.60</geoidheight><course>54.094776</course><type>1</type></trkpt>
      <trkpt lat="39.22278176482519" lon="-6.138989054519622"><ele>835</ele><speed>4.15</speed><time>2016-06-01T16:56:38Z</time><pdop>4.0</pdop><geoidheight>50.60</geoidheight><course>21.114761</course><type>1</type></trkpt>
      <trkpt lat="39.22286864102575" lon="-6.138922562661707"><ele>835</ele><speed>4.70</speed><time>2016-06-01T16:56:41Z</time><pdop>6.0</pdop><geoidheight>50.60</geoidheight><course>36.91313</course><type>1</type></trkpt>
      <trkpt lat="39.22298599950688" lon="-6.138813135768765"><ele>836</ele><speed>4.20</speed><time>2016-06-01T16:56:44Z</time><pdop>6.0</pdop><geoidheight>50.60</geoidheight><course>33.488182</course><type>1</type></trkpt>
      <trkpt lat="39.223076530859686" lon="-6.138736640347068"><ele>837</ele><speed>4.91</speed><time>2016-06-01T16:56:47Z</time><pdop>6.0</pdop><geoidheight>50.60</geoidheight><course>16.745504</course><type>1</type></trkpt>
      <trkpt lat="39.22322128028384" lon="-6.138729457008753"><ele>837</ele><speed>6.77</speed><time>2016-06-01T16:56:50Z</time><pdop>6.0</pdop><geoidheight>50.60</geoidheight><course>9.932746</course><type>1</type></trkpt>
      <trkpt lat="39.22338150969186" lon="-6.138650127356834"><ele>837</ele><speed>5.84</speed><time>2016-06-01T16:56:53Z</time><pdop>8.0</pdop><geoidheight>50.60</geoidheight><course>29.50562</course><type>1</type></trkpt>
      <trkpt lat="39.223452206484296" lon="-6.138893758218421"><ele>839</ele><speed>10.66</speed><time>2016-06-01T16:57:00Z</time><pdop>8.0</pdop><geoidheight>50.60</geoidheight><course>221.51857</course><type>1</type></trkpt>
      <trkpt lat="39.223260527363614" lon="-6.138972119008972"><ele>839</ele><speed>11.21</speed><time>2016-06-01T16:57:02Z</time><pdop>8.0</pdop><geoidheight>50.60</geoidheight><course>182.01709</course><type>1</type></trkpt>
      <trkpt lat="39.22308081654182" lon="-6.138977862777468"><ele>840</ele><speed>9.37</speed><time>2016-06-01T16:57:04Z</time><pdop>6.0</pdop><geoidheight>50.60</geoidheight><course>177.6201</course><type>1</type></trkpt>
      <trkpt lat="39.22289864396772" lon="-6.1389676439863905"><ele>842</ele><speed>10.54</speed><time>2016-06-01T16:57:06Z</time><pdop>6.0</pdop><geoidheight>50.60</geoidheight><course>177.19543</course><type>1</type></trkpt>
      <trkpt lat="39.222691073213596" lon="-6.138951276380267"><ele>842</ele><speed>10.93</speed><time>2016-06-01T16:57:08Z</time><pdop>6.0</pdop><geoidheight>50.60</geoidheight><course>177.2349</course><type>1</type></trkpt>
      <trkpt lat="39.22250550228499" lon="-6.138997173775419"><ele>844</ele><speed>8.53</speed><time>2016-06-01T16:57:09Z</time><pdop>6.0</pdop><geoidheight>50.60</geoidheight><course>204.18307</course><type>1</type></trkpt>
      <trkpt lat="39.22240623963892" lon="-6.139154916784122"><ele>845</ele><speed>9.41</speed><time>2016-06-01T16:57:12Z</time><pdop>8.0</pdop><geoidheight>50.60</geoidheight><course>244.51636</course><type>1</type></trkpt>
      <trkpt lat="39.22257088871797" lon="-6.139136363991776"><ele>841</ele><speed>3.76</speed><time>2016-06-01T16:57:18Z</time><pdop>6.0</pdop><geoidheight>50.60</geoidheight><course>21.91738</course><type>1</type></trkpt>
      <trkpt lat="39.22267477934309" lon="-6.1390822333245705"><ele>841</ele><speed>5.44</speed><time>2016-06-01T16:57:21Z</time><pdop>6.0</pdop><geoidheight>50.60</geoidheight><course>27.325851</course><type>1</type></trkpt>
      <trkpt lat="39.222808884915835" lon="-6.139010507359572"><ele>842</ele><speed>5.00</speed><time>2016-06-01T16:57:24Z</time><pdop>6.0</pdop><geoidheight>50.60</geoidheight><course>12.845267</course><type>1</type></trkpt>
      <trkpt lat="39.22293535034914" lon="-6.138916995968345"><ele>842</ele><speed>5.75</speed><time>2016-06-01T16:57:26Z</time><pdop>6.0</pdop><geoidheight>50.60</geoidheight><course>40.271942</course><type>1</type></trkpt>
      <trkpt lat="39.22303066056512" lon="-6.138795540807644"><ele>843</ele><speed>4.89</speed><time>2016-06-01T16:57:30Z</time><pdop>8.0</pdop><geoidheight>50.60</geoidheight><course>39.455723</course><type>1</type></trkpt>
      <trkpt lat="39.22316988620109" lon="-6.1386594536065955"><ele>841</ele><speed>5.95</speed><time>2016-06-01T16:57:34Z</time><pdop>8.0</pdop><geoidheight>50.60</geoidheight><course>21.95553</course><type>1</type></trkpt>
      <trkpt lat="39.22329314164502" lon="-6.138551868984519"><ele>840</ele><speed>6.33</speed><time>2016-06-01T16:57:36Z</time><pdop>8.0</pdop><geoidheight>50.60</geoidheight><course>50.31102</course><type>1</type></trkpt>
      <trkpt lat="39.22341701345697" lon="-6.138409191897354"><ele>840</ele><speed>4.69</speed><time>2016-06-01T16:57:40Z</time><pdop>8.0</pdop><geoidheight>50.60</geoidheight><course>28.08279</course><type>1</type></trkpt>
      <trkpt lat="39.22359093649281" lon="-6.1384016817673315"><ele>845</ele><speed>5.65</speed><time>2016-06-01T16:57:44Z</time><pdop>8.0</pdop><geoidheight>50.60</geoidheight><course>332.42682</course><type>1</type></trkpt>
      <trkpt lat="39.223723987850484" lon="-6.138564374489963"><ele>847</ele><speed>6.04</speed><time>2016-06-01T16:57:48Z</time><pdop>8.0</pdop><geoidheight>50.60</geoidheight><course>315.55884</course><type>1</type></trkpt>
      <trkpt lat="39.22384634182919" lon="-6.138698748062154"><ele>849</ele><speed>6.09</speed><time>2016-06-01T16:57:51Z</time><pdop>8.0</pdop><geoidheight>50.60</geoidheight><course>312.15308</course><type>1</type></trkpt>
      <trkpt lat="39.22391353030033" lon="-6.138888483063121"><ele>853</ele><speed>6.95</speed><time>2016-06-01T16:57:54Z</time><pdop>6.0</pdop><geoidheight>50.60</geoidheight><course>285.54507</course><type>1</type></trkpt>
      <trkpt lat="39.22392454379348" lon="-6.13914912140192"><ele>856</ele><speed>8.61</speed><time>2016-06-01T16:57:56Z</time><pdop>8.0</pdop><geoidheight>50.60</geoidheight><course>264.83026</course><type>1</type></trkpt>
      <trkpt lat="39.22390812076751" lon="-6.139360973710322"><ele>858</ele><speed>7.56</speed><time>2016-06-01T16:57:59Z</time><pdop>8.0</pdop><geoidheight>50.60</geoidheight><course>263.31616</course><type>1</type></trkpt>
      <trkpt lat="39.22395139501461" lon="-6.139550369930879"><ele>857</ele><speed>6.50</speed><time>2016-06-01T16:58:01Z</time><pdop>6.0</pdop><geoidheight>50.60</geoidheight><course>300.82166</course><type>1</type></trkpt>
      <trkpt lat="39.22410754841412" lon="-6.139723066858556"><ele>855</ele><speed>5.82</speed><time>2016-06-01T16:58:05Z</time><pdop>12.0</pdop><geoidheight>50.60</geoidheight><course>310.2751</course><type>1</type></trkpt>
      <trkpt lat="39.22424348240328" lon="-6.140009322871262"><ele>858</ele><speed>6.56</speed><time>2016-06-01T16:58:10Z</time><pdop>12.0</pdop><geoidheight>50.60</geoidheight><course>303.50424</course><type>1</type></trkpt>
      <trkpt lat="39.22443620747867" lon="-6.1400167912380015"><ele>861</ele><speed>7.84</speed><time>2016-06-01T16:58:15Z</time><pdop>6.0</pdop><geoidheight>50.60</geoidheight><course>71.06847</course><type>1</type></trkpt>
      <trkpt lat="39.22440437054834" lon="-6.139802165061673"><ele>861</ele><speed>11.39</speed><time>2016-06-01T16:58:17Z</time><pdop>8.0</pdop><geoidheight>50.60</geoidheight><course>110.83202</course><type>1</type></trkpt>
      <trkpt lat="39.22416041084434" lon="-6.139632650931869"><ele>860</ele><speed>14.99</speed><time>2016-06-01T16:58:19Z</time><pdop>8.0</pdop><geoidheight>50.60</geoidheight><course>173.01675</course><type>1</type></trkpt>
      <trkpt lat="39.223977102523776" lon="-6.139723376869324"><ele>859</ele><speed>8.07</speed><time>2016-06-01T16:58:21Z</time><pdop>8.0</pdop><geoidheight>50.60</geoidheight><course>225.22798</course><type>1</type></trkpt>
      <trkpt lat="39.223892190580486" lon="-6.13998068421154"><ele>860</ele><speed>10.14</speed><time>2016-06-01T16:58:23Z</time><pdop>8.0</pdop><geoidheight>50.60</geoidheight><course>246.83928</course><type>1</type></trkpt>
      <trkpt lat="39.22377190938032" lon="-6.140179615299711"><ele>861</ele><speed>10.50</speed><time>2016-06-01T16:58:25Z</time><pdop>12.0</pdop><geoidheight>50.60</geoidheight><course>232.01515</course><type>1</type></trkpt>
      <trkpt lat="39.22364123573949" lon="-6.140374082520229"><ele>861</ele><speed>11.96</speed><time>2016-06-01T16:58:27Z</time><pdop>6.0</pdop><geoidheight>50.60</geoidheight><course>226.34651</course><type>1</type></trkpt>
      <trkpt lat="39.22348964383423" lon="-6.140551788346062"><ele>862</ele><speed>10.16</speed><time>2016-06-01T16:58:29Z</time><pdop>6.0</pdop><geoidheight>50.60</geoidheight><course>222.10959</course><type>1</type></trkpt>
      <trkpt lat="39.223380601912375" lon="-6.140718442623476"><ele>863</ele><speed>8.57</speed><time>2016-06-01T16:58:31Z</time><pdop>6.0</pdop><geoidheight>50.60</geoidheight><course>240.73248</course><type>1</type></trkpt>
      <trkpt lat="39.2233656543661" lon="-6.140904627753483"><ele>862</ele><speed>8.75</speed><time>2016-06-01T16:58:32Z</time><pdop>8.0</pdop><geoidheight>50.60</geoidheight><course>269.8085</course><type>1</type></trkpt>
      <trkpt lat="39.22344854579729" lon="-6.140675035097578"><ele>851</ele><speed>11.01</speed><time>2016-06-01T16:58:39Z</time><pdop>8.0</pdop><geoidheight>50.60</geoidheight><course>110.61089</course><type>1</type></trkpt>
      <trkpt lat="39.22335201877403" lon="-6.140462330783676"><ele>849</ele><speed>10.27</speed><time>2016-06-01T16:58:42Z</time><pdop>6.0</pdop><geoidheight>50.60</geoidheight><course>138.02266</course><type>1</type></trkpt>
      <trkpt lat="39.22319591464937" lon="-6.140294301707635"><ele>849</ele><speed>11.62</speed><time>2016-06-01T16:58:44Z</time><pdop>6.0</pdop><geoidheight>50.60</geoidheight><course>154.35413</course><type>1</type></trkpt>
      <trkpt lat="39.223094234724954" lon="-6.140232542762366"><ele>848</ele><speed>13.12</speed><time>2016-06-01T16:58:45Z</time><pdop>6.0</pdop><geoidheight>50.60</geoidheight><course>155.94844</course><type>1</type></trkpt>
      <trkpt lat="39.222883188731274" lon="-6.140128884228106"><ele>849</ele><speed>11.98</speed><time>2016-06-01T16:58:46Z</time><pdop>6.0</pdop><geoidheight>50.60</geoidheight><course>158.23788</course><type>1</type></trkpt>
      <trkpt lat="39.22277961649794" lon="-6.140075745753235"><ele>850</ele><speed>12.09</speed><time>2016-06-01T16:58:48Z</time><pdop>6.0</pdop><geoidheight>50.60</geoidheight><course>158.01964</course><type>1</type></trkpt>
      <trkpt lat="39.222671418487536" lon="-6.140019874672584"><ele>850</ele><speed>12.69</speed><time>2016-06-01T16:58:49Z</time><pdop>6.0</pdop><geoidheight>50.60</geoidheight><course>157.24754</course><type>1</type></trkpt>
      <trkpt lat="39.222470152512706" lon="-6.139920923857297"><ele>848</ele><speed>13.34</speed><time>2016-06-01T16:58:50Z</time><pdop>6.0</pdop><geoidheight>50.60</geoidheight><course>156.90332</course><type>1</type></trkpt>
      <trkpt lat="39.22236534252546" lon="-6.1398677314803525"><ele>847</ele><speed>13.31</speed><time>2016-06-01T16:58:51Z</time><pdop>6.0</pdop><geoidheight>50.60</geoidheight><course>157.48557</course><type>1</type></trkpt>
      <trkpt lat="39.22225914791239" lon="-6.139823265783571"><ele>846</ele><speed>12.95</speed><time>2016-06-01T16:58:53Z</time><pdop>6.0</pdop><geoidheight>50.60</geoidheight><course>160.40291</course><type>1</type></trkpt>
      <trkpt lat="39.22214686499236" lon="-6.139822424426318"><ele>846</ele><speed>12.35</speed><time>2016-06-01T16:58:54Z</time><pdop>6.0</pdop><geoidheight>50.60</geoidheight><course>177.58829</course><type>1</type></trkpt>
      <trkpt lat="39.22203246947794" lon="-6.139831267991494"><ele>845</ele><speed>11.95</speed><time>2016-06-01T16:58:55Z</time><pdop>6.0</pdop><geoidheight>50.60</geoidheight><course>180.00003</course><type>1</type></trkpt>
      <trkpt lat="39.22191719051895" lon="-6.139851008748045"><ele>845</ele><speed>12.22</speed><time>2016-06-01T16:58:56Z</time><pdop>6.0</pdop><geoidheight>50.60</geoidheight><course>181.64474</course><type>1</type></trkpt>
      <trkpt lat="39.221800847030245" lon="-6.139869281816599"><ele>846</ele><speed>12.53</speed><time>2016-06-01T16:58:57Z</time><pdop>6.0</pdop><geoidheight>50.60</geoidheight><course>182.61305</course><type>1</type></trkpt>
      <trkpt lat="39.22168693948106" lon="-6.139892521811268"><ele>846</ele><speed>12.00</speed><time>2016-06-01T16:58:58Z</time><pdop>6.0</pdop><geoidheight>50.60</geoidheight><course>184.03302</course><type>1</type></trkpt>
      <trkpt lat="39.221574394549755" lon="-6.13991461722583"><ele>846</ele><speed>11.70</speed><time>2016-06-01T16:58:59Z</time><pdop>6.0</pdop><geoidheight>50.60</geoidheight><course>186.01265</course><type>1</type></trkpt>
      <trkpt lat="39.22138216389831" lon="-6.139992739020125"><ele>846</ele><speed>10.41</speed><time>2016-06-01T16:59:01Z</time><pdop>6.0</pdop><geoidheight>50.60</geoidheight><course>201.8933</course><type>1</type></trkpt>
      <trkpt lat="39.22121400651746" lon="-6.140101818746556"><ele>845</ele><speed>9.62</speed><time>2016-06-01T16:59:03Z</time><pdop>8.0</pdop><geoidheight>50.60</geoidheight><course>206.37909</course><type>1</type></trkpt>
      <trkpt lat="39.22106693889604" lon="-6.140205860552706"><ele>843</ele><speed>9.21</speed><time>2016-06-01T16:59:05Z</time><pdop>6.0</pdop><geoidheight>50.60</geoidheight><course>208.05807</course><type>1</type></trkpt>
      <trkpt lat="39.2209833495316" lon="-6.140341783342748"><ele>841</ele><speed>7.94</speed><time>2016-06-01T16:59:07Z</time><pdop>6.0</pdop><geoidheight>50.60</geoidheight><course>243.8488</course><type>1</type></trkpt>
      <trkpt lat="39.221087762364675" lon="-6.140489136282389"><ele>835</ele><speed>7.85</speed><time>2016-06-01T16:59:10Z</time><pdop>8.0</pdop><geoidheight>50.60</geoidheight><course>346.40155</course><type>1</type></trkpt>
      <trkpt lat="39.22114734802322" lon="-6.140274527461927"><ele>829</ele><speed>6.35</speed><time>2016-06-01T16:59:13Z</time><pdop>8.0</pdop><geoidheight>50.60</geoidheight><course>72.96822</course><type>1</type></trkpt>
      <trkpt lat="39.22125682435244" lon="-6.140188377582669"><ele>826</ele><speed>3.61</speed><time>2016-06-01T16:59:17Z</time><pdop>6.0</pdop><geoidheight>50.60</geoidheight><course>321.50748</course><type>1</type></trkpt>
      <trkpt lat="39.22122634461467" lon="-6.140351829185528"><ele>823</ele><speed>8.17</speed><time>2016-06-01T16:59:20Z</time><pdop>6.0</pdop><geoidheight>50.60</geoidheight><course>233.38356</course><type>1</type></trkpt>
      <trkpt lat="39.22108917763589" lon="-6.140508045947229"><ele>821</ele><speed>10.14</speed><time>2016-06-01T16:59:22Z</time><pdop>6.0</pdop><geoidheight>50.60</geoidheight><course>214.57248</course><type>1</type></trkpt>
      <trkpt lat="39.220990933896694" lon="-6.140623797857882"><ele>818</ele><speed>7.08</speed><time>2016-06-01T16:59:24Z</time><pdop>6.0</pdop><geoidheight>50.60</geoidheight><course>227.57465</course><type>1</type></trkpt>
      <trkpt lat="39.22111518465338" lon="-6.14070338553885"><ele>813</ele><speed>3.97</speed><time>2016-06-01T16:59:28Z</time><pdop>8.0</pdop><geoidheight>50.60</geoidheight><course>17.568636</course><type>1</type></trkpt>
      <trkpt lat="39.22118331275817" lon="-6.140868499496678"><ele>811</ele><speed>7.16</speed><time>2016-06-01T16:59:31Z</time><pdop>6.0</pdop><geoidheight>50.60</geoidheight><course>269.6361</course><type>1</type></trkpt>
      <trkpt lat="39.2211874006216" lon="-6.141049557351712"><ele>807</ele><speed>2.73</speed><time>2016-06-01T16:59:35Z</time><pdop>8.0</pdop><geoidheight>50.60</geoidheight><course>307.80554</course><type>1</type></trkpt>
      <trkpt lat="39.2213419553711" lon="-6.141124357258369"><ele>797</ele><speed>6.41</speed><time>2016-06-01T16:59:39Z</time><pdop>8.0</pdop><geoidheight>50.60</geoidheight><course>346.71454</course><type>1</type></trkpt>
      <trkpt lat="39.221526643702894" lon="-6.141172751341365"><ele>788</ele><speed>3.82</speed><time>2016-06-01T16:59:44Z</time><pdop>8.0</pdop><geoidheight>50.60</geoidheight><course>30.472387</course><type>1</type></trkpt>
      <trkpt lat="39.221670045985086" lon="-6.141083338966456"><ele>782</ele><speed>4.61</speed><time>2016-06-01T16:59:48Z</time><pdop>8.0</pdop><geoidheight>50.60</geoidheight><course>37.57118</course><type>1</type></trkpt>
      <trkpt lat="39.22175824481522" lon="-6.141190450263591"><ele>780</ele><speed>5.80</speed><time>2016-06-01T16:59:51Z</time><pdop>4.0</pdop><geoidheight>50.60</geoidheight><course>287.59314</course><type>1</type></trkpt>
      <trkpt lat="39.22176336076495" lon="-6.141354415275166"><ele>778</ele><speed>7.36</speed><time>2016-06-01T16:59:53Z</time><pdop>6.0</pdop><geoidheight>50.60</geoidheight><course>264.539</course><type>1</type></trkpt>
      <trkpt lat="39.2217703365572" lon="-6.141537595031226"><ele>775</ele><speed>7.50</speed><time>2016-06-01T16:59:54Z</time><pdop>6.0</pdop><geoidheight>50.60</geoidheight><course>269.33673</course><type>1</type></trkpt>
      <trkpt lat="39.221781852652384" lon="-6.141803937795955"><ele>772</ele><speed>6.58</speed><time>2016-06-01T16:59:58Z</time><pdop>6.0</pdop><geoidheight>50.60</geoidheight><course>268.65253</course><type>1</type></trkpt>
      <trkpt lat="39.221786008749255" lon="-6.141984331776449"><ele>769</ele><speed>7.33</speed><time>2016-06-01T17:00:00Z</time><pdop>8.0</pdop><geoidheight>50.60</geoidheight><course>272.60098</course><type>1</type></trkpt>
      <trkpt lat="39.22180973828501" lon="-6.142179646582185"><ele>765</ele><speed>4.95</speed><time>2016-06-01T17:00:03Z</time><pdop>8.0</pdop><geoidheight>50.60</geoidheight><course>297.7533</course><type>1</type></trkpt>
      <trkpt lat="39.221911514235735" lon="-6.14229045394198"><ele>762</ele><speed>4.08</speed><time>2016-06-01T17:00:06Z</time><pdop>6.0</pdop><geoidheight>50.60</geoidheight><course>345.48682</course><type>1</type></trkpt>
    </trkseg>
  </trk>
</gpx>